<?xml version='1.0' encoding='UTF-8'?><gpx version="1.1" creator="JPX - https://github.com/jenetics/jpx" xmlns="http://www.topografix.com/GPX/1/1"><trk><trkseg><trkpt lat="45.51053252319406" lon="9.250984722803556"><ele>130.0</ele><time>2026-04-11T06:53:10.001Z</time></trkpt><trkpt lat="45.51056718722551" lon="9.250909530590798"><ele>130.0</ele><time>2026-04-11T06:53:44.001Z</time></trkpt><trkpt lat="45.510638108582235" lon="9.250787733819314"><ele>130.0</ele><time>2026-04-11T06:53:47.001Z</time></trkpt><trkpt lat="45.51065422299806" lon="9.250692450916393"><ele>130.0</ele><time>2026-04-11T06:53:48.001Z</time></trkpt><trkpt lat="45.510646566721945" lon="9.250586899384514"><ele>130.0</ele><time>2026-04-11T06:53:49.001Z</time></trkpt><trkpt lat="45.5106219236397" lon="9.250457266767906"><ele>130.0</ele><time>2026-04-11T06:53:50.001Z</time></trkpt><trkpt lat="45.51049563028247" lon="9.250344310537454"><ele>130.0</ele><time>2026-04-11T06:53:51.001Z</time></trkpt><trkpt lat="45.510464303800376" lon="9.250182084630035"><ele>130.0</ele><time>2026-04-11T06:53:52.001Z</time></trkpt><trkpt lat="45.51038558477898" lon="9.250057780175277"><ele>130.0</ele><time>2026-04-11T06:53:53.001Z</time></trkpt><trkpt lat="45.51036757707432" lon="9.249904653275921"><ele>130.0</ele><time>2026-04-11T06:53:54.001Z</time></trkpt><trkpt lat="45.510340490273265" lon="9.249764382789206"><ele>130.0</ele><time>2026-04-11T06:53:55.001Z</time></trkpt><trkpt lat="45.51031543620969" lon="9.249634638949072"><ele>130.4</ele><time>2026-04-11T06:53:56.001Z</time></trkpt><trkpt lat="45.51029190156933" lon="9.249510875947884"><ele>130.8</ele><time>2026-04-11T06:53:57.001Z</time></trkpt><trkpt lat="45.51026743288003" lon="9.249380424889207"><ele>131.2</ele><time>2026-04-11T06:53:58.001Z</time></trkpt><trkpt lat="45.510242124134805" lon="9.24924549520131"><ele>131.6</ele><time>2026-04-11T06:53:59.001Z</time></trkpt><trkpt lat="45.51021438350535" lon="9.249106592178318"><ele>132.0</ele><time>2026-04-11T06:54:00.001Z</time></trkpt><trkpt lat="45.51018359078426" lon="9.248965862024965"><ele>132.2</ele><time>2026-04-11T06:54:01.001Z</time></trkpt><trkpt lat="45.51014641893686" lon="9.248821710533697"><ele>132.39999999999998</ele><time>2026-04-11T06:54:02.001Z</time></trkpt><trkpt lat="45.51009671094468" lon="9.248684140469669"><ele>132.60000000000002</ele><time>2026-04-11T06:54:03.001Z</time></trkpt><trkpt lat="45.51003768816177" lon="9.248559775177059"><ele>132.8</ele><time>2026-04-11T06:54:04.001Z</time></trkpt><trkpt lat="45.509982341210055" lon="9.24845446999641"><ele>133.0</ele><time>2026-04-11T06:54:05.001Z</time></trkpt><trkpt lat="45.50992817626616" lon="9.24836225408241"><ele>133.0</ele><time>2026-04-11T06:54:06.001Z</time></trkpt><trkpt lat="45.509879655244326" lon="9.248279828286964"><ele>133.0</ele><time>2026-04-11T06:54:07.001Z</time></trkpt><trkpt lat="45.509834974858265" lon="9.24820437157332"><ele>133.0</ele><time>2026-04-11T06:54:08.001Z</time></trkpt><trkpt lat="45.50976125053013" lon="9.24808239835228"><ele>133.0</ele><time>2026-04-11T06:54:10.001Z</time></trkpt><trkpt lat="45.509694438343296" lon="9.247969034871666"><ele>133.0</ele><time>2026-04-11T06:54:12.001Z</time></trkpt><trkpt lat="45.50963433814019" lon="9.247862935737354"><ele>132.5</ele><time>2026-04-11T06:54:14.001Z</time></trkpt><trkpt lat="45.50957106814223" lon="9.247762890866383"><ele>132.0</ele><time>2026-04-11T06:54:16.001Z</time></trkpt><trkpt lat="45.509495229692895" lon="9.247647062172081"><ele>131.5</ele><time>2026-04-11T06:54:18.001Z</time></trkpt><trkpt lat="45.50944714678232" lon="9.247578415807984"><ele>131.0</ele><time>2026-04-11T06:54:19.001Z</time></trkpt><trkpt lat="45.509393554196485" lon="9.24750349202807"><ele>130.5</ele><time>2026-04-11T06:54:20.001Z</time></trkpt><trkpt lat="45.509338050931554" lon="9.247427975088906"><ele>130.0</ele><time>2026-04-11T06:54:21.001Z</time></trkpt><trkpt lat="45.509278140519235" lon="9.247349074364546"><ele>129.83333333333334</ele><time>2026-04-11T06:54:22.001Z</time></trkpt><trkpt lat="45.509215482167285" lon="9.247266393719109"><ele>129.66666666666669</ele><time>2026-04-11T06:54:23.001Z</time></trkpt><trkpt lat="45.50915377473859" lon="9.247184967861298"><ele>129.5</ele><time>2026-04-11T06:54:24.001Z</time></trkpt><trkpt lat="45.50909386163397" lon="9.247105909699226"><ele>129.33333333333334</ele><time>2026-04-11T06:54:25.001Z</time></trkpt><trkpt lat="45.50903126371046" lon="9.247021365607463"><ele>129.16666666666666</ele><time>2026-04-11T06:54:26.001Z</time></trkpt><trkpt lat="45.508967892977275" lon="9.246933440794965"><ele>129.0</ele><time>2026-04-11T06:54:27.001Z</time></trkpt><trkpt lat="45.50890518832906" lon="9.246844735612324"><ele>129.0</ele><time>2026-04-11T06:54:28.001Z</time></trkpt><trkpt lat="45.50883880655612" lon="9.246752070289867"><ele>129.0</ele><time>2026-04-11T06:54:29.001Z</time></trkpt><trkpt lat="45.508768224427534" lon="9.246656487718155"><ele>129.0</ele><time>2026-04-11T06:54:30.001Z</time></trkpt><trkpt lat="45.508695508113405" lon="9.246559247364873"><ele>129.0</ele><time>2026-04-11T06:54:31.001Z</time></trkpt><trkpt lat="45.50862116007333" lon="9.246459824976428"><ele>129.0</ele><time>2026-04-11T06:54:32.001Z</time></trkpt><trkpt lat="45.50854984602687" lon="9.246364459815668"><ele>129.2</ele><time>2026-04-11T06:54:33.002Z</time></trkpt><trkpt lat="45.50847966889748" lon="9.246270615004216"><ele>129.4</ele><time>2026-04-11T06:54:34.002Z</time></trkpt><trkpt lat="45.50840473921941" lon="9.24617041481593"><ele>129.6</ele><time>2026-04-11T06:54:35.002Z</time></trkpt><trkpt lat="45.508325718143304" lon="9.246064743381227"><ele>129.8</ele><time>2026-04-11T06:54:36.002Z</time></trkpt><trkpt lat="45.50824486945303" lon="9.245956892027598"><ele>130.0</ele><time>2026-04-11T06:54:37.002Z</time></trkpt><trkpt lat="45.50816379048803" lon="9.245848235215249"><ele>130.0</ele><time>2026-04-11T06:54:38.002Z</time></trkpt><trkpt lat="45.50808232853203" lon="9.245738997866122"><ele>130.0</ele><time>2026-04-11T06:54:39.002Z</time></trkpt><trkpt lat="45.50799888116042" lon="9.245627098150564"><ele>130.0</ele><time>2026-04-11T06:54:40.002Z</time></trkpt><trkpt lat="45.507916344792" lon="9.245516393678365"><ele>130.0</ele><time>2026-04-11T06:54:41.002Z</time></trkpt><trkpt lat="45.507835842546825" lon="9.245408177919561"><ele>131.0</ele><time>2026-04-11T06:54:42.002Z</time></trkpt><trkpt lat="45.507755023009146" lon="9.245299535636994"><ele>132.0</ele><time>2026-04-11T06:54:43.002Z</time></trkpt><trkpt lat="45.507674513067194" lon="9.245191309530986"><ele>133.0</ele><time>2026-04-11T06:54:44.002Z</time></trkpt><trkpt lat="45.507594871894995" lon="9.245084342647422"><ele>134.0</ele><time>2026-04-11T06:54:45.002Z</time></trkpt><trkpt lat="45.5075182310009" lon="9.244981648478749"><ele>135.0</ele><time>2026-04-11T06:54:46.002Z</time></trkpt><trkpt lat="45.50744390401139" lon="9.24488205480234"><ele>134.6</ele><time>2026-04-11T06:54:47.002Z</time></trkpt><trkpt lat="45.507366912477494" lon="9.24477889079708"><ele>134.2</ele><time>2026-04-11T06:54:48.002Z</time></trkpt><trkpt lat="45.507289463240056" lon="9.244675113497484"><ele>133.8</ele><time>2026-04-11T06:54:49.002Z</time></trkpt><trkpt lat="45.507210952695665" lon="9.24456991410998"><ele>133.4</ele><time>2026-04-11T06:54:50.002Z</time></trkpt><trkpt lat="45.507121943153386" lon="9.244476164015932"><ele>133.0</ele><time>2026-04-11T06:54:51.002Z</time></trkpt><trkpt lat="45.50704911265683" lon="9.244376089308806"><ele>132.20000000000002</ele><time>2026-04-11T06:54:52.002Z</time></trkpt><trkpt lat="45.50697235453911" lon="9.244274427862907"><ele>131.4</ele><time>2026-04-11T06:54:53.002Z</time></trkpt><trkpt lat="45.50689212935445" lon="9.244166086491541"><ele>130.60000000000002</ele><time>2026-04-11T06:54:54.002Z</time></trkpt><trkpt lat="45.50681035261247" lon="9.244055141181397"><ele>129.8</ele><time>2026-04-11T06:54:55.002Z</time></trkpt><trkpt lat="45.50672541141476" lon="9.24394635093011"><ele>129.0</ele><time>2026-04-11T06:54:56.002Z</time></trkpt><trkpt lat="45.50664237735487" lon="9.24384057860475"><ele>128.8</ele><time>2026-04-11T06:54:57.002Z</time></trkpt><trkpt lat="45.50656444562752" lon="9.243736438407861"><ele>128.60000000000002</ele><time>2026-04-11T06:54:58.002Z</time></trkpt><trkpt lat="45.50649262727185" lon="9.243635202850951"><ele>128.4</ele><time>2026-04-11T06:54:59.002Z</time></trkpt><trkpt lat="45.506420256622434" lon="9.243545950806014"><ele>128.20000000000002</ele><time>2026-04-11T06:55:00.002Z</time></trkpt><trkpt lat="45.506354892726094" lon="9.243462594925823"><ele>128.0</ele><time>2026-04-11T06:55:01.002Z</time></trkpt><trkpt lat="45.50629688980567" lon="9.24338687515097"><ele>128.0</ele><time>2026-04-11T06:55:02.002Z</time></trkpt><trkpt lat="45.50624245635843" lon="9.243315380872316"><ele>127.99999999999999</ele><time>2026-04-11T06:55:03.002Z</time></trkpt><trkpt lat="45.50619119132249" lon="9.243246099271106"><ele>128.0</ele><time>2026-04-11T06:55:04.002Z</time></trkpt><trkpt lat="45.5061414582878" lon="9.243175410815876"><ele>128.0</ele><time>2026-04-11T06:55:05.002Z</time></trkpt><trkpt lat="45.5060897331836" lon="9.243108679723285"><ele>127.99999999999999</ele><time>2026-04-11T06:55:06.002Z</time></trkpt><trkpt lat="45.50603961334197" lon="9.24304133109642"><ele>128.0</ele><time>2026-04-11T06:55:07.002Z</time></trkpt><trkpt lat="45.50598974148022" lon="9.242971398709253"><ele>128.0</ele><time>2026-04-11T06:55:08.002Z</time></trkpt><trkpt lat="45.5059420731744" lon="9.242896937826778"><ele>127.99999999999999</ele><time>2026-04-11T06:55:09.002Z</time></trkpt><trkpt lat="45.50589022325208" lon="9.242828705028755"><ele>128.0</ele><time>2026-04-11T06:55:10.002Z</time></trkpt><trkpt lat="45.505836808472246" lon="9.242753027826511"><ele>128.0</ele><time>2026-04-11T06:55:11.002Z</time></trkpt><trkpt lat="45.505780604898625" lon="9.242676671695506"><ele>128.0</ele><time>2026-04-11T06:55:12.002Z</time></trkpt><trkpt lat="45.505721233866055" lon="9.242588241794175"><ele>127.99999999999999</ele><time>2026-04-11T06:55:13.002Z</time></trkpt><trkpt lat="45.50565761317963" lon="9.242496844811617"><ele>128.0</ele><time>2026-04-11T06:55:14.002Z</time></trkpt><trkpt lat="45.50559200516968" lon="9.242409391862068"><ele>127.99999999999999</ele><time>2026-04-11T06:55:15.002Z</time></trkpt><trkpt lat="45.5055287311282" lon="9.242323895388942"><ele>128.0</ele><time>2026-04-11T06:55:16.002Z</time></trkpt><trkpt lat="45.50545825191709" lon="9.242244674233783"><ele>128.0</ele><time>2026-04-11T06:55:17.002Z</time></trkpt><trkpt lat="45.50539327459735" lon="9.2421627292283"><ele>128.0</ele><time>2026-04-11T06:55:18.002Z</time></trkpt><trkpt lat="45.50532352795846" lon="9.242089323955826"><ele>127.99999999999999</ele><time>2026-04-11T06:55:19.002Z</time></trkpt><trkpt lat="45.505256744814055" lon="9.242012122319858"><ele>128.0</ele><time>2026-04-11T06:55:20.002Z</time></trkpt><trkpt lat="45.50519418912034" lon="9.241933583704062"><ele>128.33333333333331</ele><time>2026-04-11T06:55:21.002Z</time></trkpt><trkpt lat="45.5051326872858" lon="9.241857450512805"><ele>128.66666666666666</ele><time>2026-04-11T06:55:22.002Z</time></trkpt><trkpt lat="45.505083370482474" lon="9.241760471421088"><ele>129.0</ele><time>2026-04-11T06:55:23.002Z</time></trkpt><trkpt lat="45.50502277431781" lon="9.24168044130921"><ele>129.33333333333334</ele><time>2026-04-11T06:55:24.002Z</time></trkpt><trkpt lat="45.50496063567615" lon="9.241598371550413"><ele>129.66666666666669</ele><time>2026-04-11T06:55:25.002Z</time></trkpt><trkpt lat="45.5048999396365" lon="9.24151820711065"><ele>130.0</ele><time>2026-04-11T06:55:26.002Z</time></trkpt><trkpt lat="45.50483941296257" lon="9.241438266364552"><ele>130.0</ele><time>2026-04-11T06:55:27.002Z</time></trkpt><trkpt lat="45.50478085528158" lon="9.24136092616308"><ele>130.0</ele><time>2026-04-11T06:55:28.002Z</time></trkpt><trkpt lat="45.50472346192129" lon="9.241285123751911"><ele>130.0</ele><time>2026-04-11T06:55:29.002Z</time></trkpt><trkpt lat="45.50465542049261" lon="9.241221977635716"><ele>130.0</ele><time>2026-04-11T06:55:30.002Z</time></trkpt><trkpt lat="45.504598062047265" lon="9.241139944514334"><ele>130.0</ele><time>2026-04-11T06:55:31.002Z</time></trkpt><trkpt lat="45.50453726349777" lon="9.241060356406281"><ele>130.0</ele><time>2026-04-11T06:55:32.002Z</time></trkpt><trkpt lat="45.50447663351775" lon="9.240985424729217"><ele>130.0</ele><time>2026-04-11T06:55:33.002Z</time></trkpt><trkpt lat="45.50441578100878" lon="9.240904293696286"><ele>130.0</ele><time>2026-04-11T06:55:34.002Z</time></trkpt><trkpt lat="45.50435487141274" lon="9.240823359298627"><ele>130.0</ele><time>2026-04-11T06:55:35.002Z</time></trkpt><trkpt lat="45.50429676286897" lon="9.240747976295609"><ele>130.0</ele><time>2026-04-11T06:55:36.002Z</time></trkpt><trkpt lat="45.50424217897793" lon="9.240674804165554"><ele>130.0</ele><time>2026-04-11T06:55:37.002Z</time></trkpt><trkpt lat="45.50419745060192" lon="9.240608892971565"><ele>130.0</ele><time>2026-04-11T06:55:38.002Z</time></trkpt><trkpt lat="45.50410581409384" lon="9.240490906092452"><ele>130.0</ele><time>2026-04-11T06:55:40.002Z</time></trkpt><trkpt lat="45.504021470794434" lon="9.240377804537701"><ele>130.0</ele><time>2026-04-11T06:55:42.002Z</time></trkpt><trkpt lat="45.50394984227887" lon="9.240290582079592"><ele>130.0</ele><time>2026-04-11T06:55:44.002Z</time></trkpt><trkpt lat="45.50388663086744" lon="9.24020796044888"><ele>130.0</ele><time>2026-04-11T06:55:46.002Z</time></trkpt><trkpt lat="45.503835611329265" lon="9.240132221282236"><ele>130.0</ele><time>2026-04-11T06:55:48.002Z</time></trkpt><trkpt lat="45.5038419911833" lon="9.240042401777698"><ele>130.0</ele><time>2026-04-11T06:56:10.002Z</time></trkpt><trkpt lat="45.503778209157275" lon="9.23993202180162"><ele>130.0</ele><time>2026-04-11T06:56:15.002Z</time></trkpt><trkpt lat="45.50368106938938" lon="9.23989133386298"><ele>130.0</ele><time>2026-04-11T06:56:16.002Z</time></trkpt><trkpt lat="45.50360394296678" lon="9.239800058541888"><ele>130.0</ele><time>2026-04-11T06:56:17.002Z</time></trkpt><trkpt lat="45.50351302057083" lon="9.239707331251955"><ele>130.0</ele><time>2026-04-11T06:56:18.002Z</time></trkpt><trkpt lat="45.50341663534507" lon="9.239586065229032"><ele>130.0</ele><time>2026-04-11T06:56:19.002Z</time></trkpt><trkpt lat="45.50332073706986" lon="9.239444815940505"><ele>129.75</ele><time>2026-04-11T06:56:20.002Z</time></trkpt><trkpt lat="45.503212866964674" lon="9.239320210009675"><ele>129.5</ele><time>2026-04-11T06:56:21.002Z</time></trkpt><trkpt lat="45.50310676458084" lon="9.239146799316444"><ele>129.25</ele><time>2026-04-11T06:56:22.002Z</time></trkpt><trkpt lat="45.50300209029512" lon="9.239007449733375"><ele>129.0</ele><time>2026-04-11T06:56:23.002Z</time></trkpt><trkpt lat="45.50289835004137" lon="9.238869572190518"><ele>129.0</ele><time>2026-04-11T06:56:24.002Z</time></trkpt><trkpt lat="45.50279430724502" lon="9.238731292561846"><ele>129.0</ele><time>2026-04-11T06:56:25.002Z</time></trkpt><trkpt lat="45.50268889214299" lon="9.238591189057718"><ele>129.0</ele><time>2026-04-11T06:56:26.002Z</time></trkpt><trkpt lat="45.50258496756126" lon="9.238453257124108"><ele>129.0</ele><time>2026-04-11T06:56:27.002Z</time></trkpt><trkpt lat="45.502482769098314" lon="9.23831766967043"><ele>129.0</ele><time>2026-04-11T06:56:28.002Z</time></trkpt><trkpt lat="45.50238104078488" lon="9.238182705984622"><ele>129.0</ele><time>2026-04-11T06:56:29.002Z</time></trkpt><trkpt lat="45.50228122913023" lon="9.238050285107818"><ele>129.0</ele><time>2026-04-11T06:56:30.002Z</time></trkpt><trkpt lat="45.50218212155133" lon="9.237918798342383"><ele>129.0</ele><time>2026-04-11T06:56:31.002Z</time></trkpt><trkpt lat="45.50208093310606" lon="9.237784550890547"><ele>129.25</ele><time>2026-04-11T06:56:32.002Z</time></trkpt><trkpt lat="45.50197911098217" lon="9.237649462744594"><ele>129.5</ele><time>2026-04-11T06:56:33.002Z</time></trkpt><trkpt lat="45.501878191348816" lon="9.237515571914702"><ele>129.75</ele><time>2026-04-11T06:56:34.002Z</time></trkpt><trkpt lat="45.50178097030821" lon="9.237386072370585"><ele>130.0</ele><time>2026-04-11T06:56:35.002Z</time></trkpt><trkpt lat="45.501675337479796" lon="9.237271848183406"><ele>130.5</ele><time>2026-04-11T06:56:36.002Z</time></trkpt><trkpt lat="45.501579944411255" lon="9.237141266972174"><ele>131.0</ele><time>2026-04-11T06:56:37.002Z</time></trkpt><trkpt lat="45.50148404119485" lon="9.237007911481513"><ele>131.5</ele><time>2026-04-11T06:56:38.002Z</time></trkpt><trkpt lat="45.50138565643054" lon="9.236874318756607"><ele>132.0</ele><time>2026-04-11T06:56:39.002Z</time></trkpt><trkpt lat="45.5012854368962" lon="9.236744463217592"><ele>131.75</ele><time>2026-04-11T06:56:40.002Z</time></trkpt><trkpt lat="45.501183615721665" lon="9.236615611136406"><ele>131.5</ele><time>2026-04-11T06:56:41.002Z</time></trkpt><trkpt lat="45.501082277653175" lon="9.236485722567338"><ele>131.25</ele><time>2026-04-11T06:56:42.002Z</time></trkpt><trkpt lat="45.50099485203934" lon="9.236341788646103"><ele>131.0</ele><time>2026-04-11T06:56:43.002Z</time></trkpt><trkpt lat="45.50088995120446" lon="9.236234133035575"><ele>130.75</ele><time>2026-04-11T06:56:44.002Z</time></trkpt><trkpt lat="45.50080707043645" lon="9.236092608823034"><ele>130.5</ele><time>2026-04-11T06:56:45.002Z</time></trkpt><trkpt lat="45.50071213095624" lon="9.235966627346363"><ele>130.25</ele><time>2026-04-11T06:56:46.002Z</time></trkpt><trkpt lat="45.500620873988034" lon="9.23584553240484"><ele>130.0</ele><time>2026-04-11T06:56:47.002Z</time></trkpt><trkpt lat="45.50052189173475" lon="9.235748044920728"><ele>129.8</ele><time>2026-04-11T06:56:48.002Z</time></trkpt><trkpt lat="45.50043782987482" lon="9.235633656875473"><ele>129.6</ele><time>2026-04-11T06:56:49.003Z</time></trkpt><trkpt lat="45.50035429420326" lon="9.235518897811836"><ele>129.4</ele><time>2026-04-11T06:56:50.003Z</time></trkpt><trkpt lat="45.50027466766562" lon="9.235409872049086"><ele>129.2</ele><time>2026-04-11T06:56:51.003Z</time></trkpt><trkpt lat="45.50019906803855" lon="9.235307183002885"><ele>129.0</ele><time>2026-04-11T06:56:52.003Z</time></trkpt><trkpt lat="45.500121073384186" lon="9.235205891320797"><ele>128.75</ele><time>2026-04-11T06:56:53.003Z</time></trkpt><trkpt lat="45.500048229473336" lon="9.235088216522142"><ele>128.5</ele><time>2026-04-11T06:56:54.003Z</time></trkpt><trkpt lat="45.499964933685405" lon="9.234978796712086"><ele>128.25</ele><time>2026-04-11T06:56:55.003Z</time></trkpt><trkpt lat="45.499871291831035" lon="9.234877024936127"><ele>128.0</ele><time>2026-04-11T06:56:56.003Z</time></trkpt><trkpt lat="45.49978621697219" lon="9.234764648692428"><ele>127.75</ele><time>2026-04-11T06:56:57.003Z</time></trkpt><trkpt lat="45.49969904154271" lon="9.234656698549705"><ele>127.5</ele><time>2026-04-11T06:56:58.003Z</time></trkpt><trkpt lat="45.499606177317595" lon="9.234549054110332"><ele>127.25</ele><time>2026-04-11T06:56:59.003Z</time></trkpt><trkpt lat="45.499531343491526" lon="9.234407212882601"><ele>127.0</ele><time>2026-04-11T06:57:00.003Z</time></trkpt><trkpt lat="45.49944085154723" lon="9.234286622103664"><ele>127.25</ele><time>2026-04-11T06:57:01.003Z</time></trkpt><trkpt lat="45.49934867968577" lon="9.234164243267415"><ele>127.5</ele><time>2026-04-11T06:57:02.003Z</time></trkpt><trkpt lat="45.49925585566915" lon="9.234040998533128"><ele>127.75</ele><time>2026-04-11T06:57:03.003Z</time></trkpt><trkpt lat="45.49916600560194" lon="9.23392170238098"><ele>128.0</ele><time>2026-04-11T06:57:04.003Z</time></trkpt><trkpt lat="45.49907505251173" lon="9.233800941713257"><ele>128.0</ele><time>2026-04-11T06:57:05.003Z</time></trkpt><trkpt lat="45.49898809896414" lon="9.233685168097509"><ele>128.0</ele><time>2026-04-11T06:57:06.003Z</time></trkpt><trkpt lat="45.498902152124565" lon="9.233570590196072"><ele>128.0</ele><time>2026-04-11T06:57:07.003Z</time></trkpt><trkpt lat="45.49881491779384" lon="9.233456335047585"><ele>128.0</ele><time>2026-04-11T06:57:08.003Z</time></trkpt><trkpt lat="45.498729521427045" lon="9.233343508194785"><ele>128.25</ele><time>2026-04-11T06:57:09.003Z</time></trkpt><trkpt lat="45.49864375725319" lon="9.233230155911055"><ele>128.5</ele><time>2026-04-11T06:57:10.003Z</time></trkpt><trkpt lat="45.49855568335524" lon="9.233116035734517"><ele>128.75</ele><time>2026-04-11T06:57:11.003Z</time></trkpt><trkpt lat="45.49846634973325" lon="9.233000283276867"><ele>129.0</ele><time>2026-04-11T06:57:12.003Z</time></trkpt><trkpt lat="45.49837739135741" lon="9.232881289551383"><ele>129.0</ele><time>2026-04-11T06:57:13.003Z</time></trkpt><trkpt lat="45.49828766569387" lon="9.232761181380535"><ele>129.0</ele><time>2026-04-11T06:57:14.003Z</time></trkpt><trkpt lat="45.49819455910278" lon="9.232639359108996"><ele>129.0</ele><time>2026-04-11T06:57:15.003Z</time></trkpt><trkpt lat="45.498107323568" lon="9.232525218653446"><ele>129.0</ele><time>2026-04-11T06:57:16.003Z</time></trkpt><trkpt lat="45.49802619512554" lon="9.232419068807017"><ele>129.0</ele><time>2026-04-11T06:57:17.003Z</time></trkpt><trkpt lat="45.49794808443751" lon="9.232316867441426"><ele>129.0</ele><time>2026-04-11T06:57:18.003Z</time></trkpt><trkpt lat="45.49787888303245" lon="9.232225885046137"><ele>129.0</ele><time>2026-04-11T06:57:19.003Z</time></trkpt><trkpt lat="45.49781590780859" lon="9.232143034651195"><ele>129.0</ele><time>2026-04-11T06:57:20.003Z</time></trkpt><trkpt lat="45.497756434571386" lon="9.232064791476127"><ele>129.0</ele><time>2026-04-11T06:57:21.003Z</time></trkpt><trkpt lat="45.49770214773294" lon="9.231993371496413"><ele>129.0</ele><time>2026-04-11T06:57:22.003Z</time></trkpt><trkpt lat="45.497653874877436" lon="9.231929863603417"><ele>128.8</ele><time>2026-04-11T06:57:23.003Z</time></trkpt><trkpt lat="45.497564672349704" lon="9.231813423332309"><ele>128.60000000000002</ele><time>2026-04-11T06:57:25.003Z</time></trkpt><trkpt lat="45.49749019933455" lon="9.23171656066519"><ele>128.4</ele><time>2026-04-11T06:57:27.003Z</time></trkpt><trkpt lat="45.497437619528974" lon="9.231648173171248"><ele>128.20000000000002</ele><time>2026-04-11T06:57:30.003Z</time></trkpt><trkpt lat="45.49730878141581" lon="9.231553648323992"><ele>128.0</ele><time>2026-04-11T06:58:02.003Z</time></trkpt><trkpt lat="45.49728431743854" lon="9.231461397908378"><ele>127.99999999999999</ele><time>2026-04-11T06:58:03.003Z</time></trkpt><trkpt lat="45.497233085776024" lon="9.23140237953863"><ele>128.0</ele><time>2026-04-11T06:58:04.003Z</time></trkpt><trkpt lat="45.49717850560396" lon="9.231329454241255"><ele>128.0</ele><time>2026-04-11T06:58:05.004Z</time></trkpt><trkpt lat="45.49712133171134" lon="9.231245717263137"><ele>128.0</ele><time>2026-04-11T06:58:06.004Z</time></trkpt><trkpt lat="45.49706421724871" lon="9.231147956238614"><ele>127.99999999999999</ele><time>2026-04-11T06:58:07.004Z</time></trkpt><trkpt lat="45.49700020072872" lon="9.231048453305247"><ele>128.0</ele><time>2026-04-11T06:58:08.004Z</time></trkpt><trkpt lat="45.4969302802911" lon="9.23094034530656"><ele>128.20000000000002</ele><time>2026-04-11T06:58:09.004Z</time></trkpt><trkpt lat="45.496858728359506" lon="9.230822142157828"><ele>128.4</ele><time>2026-04-11T06:58:10.004Z</time></trkpt><trkpt lat="45.496772416550115" lon="9.230723653836192"><ele>128.60000000000002</ele><time>2026-04-11T06:58:11.004Z</time></trkpt><trkpt lat="45.4966916518957" lon="9.230617367719347"><ele>128.8</ele><time>2026-04-11T06:58:12.003Z</time></trkpt><trkpt lat="45.496607858077844" lon="9.230518548715622"><ele>129.0</ele><time>2026-04-11T06:58:13.003Z</time></trkpt><trkpt lat="45.49652945007334" lon="9.230412707533377"><ele>128.66666666666666</ele><time>2026-04-11T06:58:14.003Z</time></trkpt><trkpt lat="45.49645685013247" lon="9.230304763603518"><ele>128.33333333333334</ele><time>2026-04-11T06:58:15.003Z</time></trkpt><trkpt lat="45.49638919797714" lon="9.230211497727351"><ele>128.0</ele><time>2026-04-11T06:58:16.003Z</time></trkpt><trkpt lat="45.49632907020707" lon="9.230126014883995"><ele>127.66666666666667</ele><time>2026-04-11T06:58:17.002Z</time></trkpt><trkpt lat="45.496270533906774" lon="9.23004467959236"><ele>127.33333333333334</ele><time>2026-04-11T06:58:18.002Z</time></trkpt><trkpt lat="45.49621149489424" lon="9.22996218389659"><ele>127.0</ele><time>2026-04-11T06:58:19.002Z</time></trkpt><trkpt lat="45.496146842496955" lon="9.229874567064549"><ele>127.00000000000001</ele><time>2026-04-11T06:58:20.002Z</time></trkpt><trkpt lat="45.49607967686532" lon="9.229792730556078"><ele>127.0</ele><time>2026-04-11T06:58:21.002Z</time></trkpt><trkpt lat="45.496018158344015" lon="9.229712556873263"><ele>127.0</ele><time>2026-04-11T06:58:22.002Z</time></trkpt><trkpt lat="45.49596007857624" lon="9.229632245122582"><ele>127.0</ele><time>2026-04-11T06:58:23.002Z</time></trkpt><trkpt lat="45.495903113389794" lon="9.22954861135589"><ele>127.00000000000001</ele><time>2026-04-11T06:58:24.002Z</time></trkpt><trkpt lat="45.49584444070501" lon="9.229468262252919"><ele>127.0</ele><time>2026-04-11T06:58:25.002Z</time></trkpt><trkpt lat="45.49578630130941" lon="9.229392631559165"><ele>127.00000000000001</ele><time>2026-04-11T06:58:26.001Z</time></trkpt><trkpt lat="45.49572784503814" lon="9.229322448320016"><ele>127.0</ele><time>2026-04-11T06:58:27.001Z</time></trkpt><trkpt lat="45.49566880990124" lon="9.229249307355513"><ele>127.0</ele><time>2026-04-11T06:58:28.001Z</time></trkpt><trkpt lat="45.49560953048947" lon="9.229177033975946"><ele>127.0</ele><time>2026-04-11T06:58:29.001Z</time></trkpt><trkpt lat="45.49554810346655" lon="9.229108227119632"><ele>127.00000000000001</ele><time>2026-04-11T06:58:30.001Z</time></trkpt><trkpt lat="45.495489512598596" lon="9.229031721962178"><ele>127.0</ele><time>2026-04-11T06:58:31.001Z</time></trkpt><trkpt lat="45.49543138822908" lon="9.228950721554758"><ele>127.14285714285714</ele><time>2026-04-11T06:58:32.001Z</time></trkpt><trkpt lat="45.495372121177404" lon="9.228871204041454"><ele>127.28571428571428</ele><time>2026-04-11T06:58:33.001Z</time></trkpt><trkpt lat="45.49531711516698" lon="9.228799016770486"><ele>127.42857142857142</ele><time>2026-04-11T06:58:34.001Z</time></trkpt><trkpt lat="45.49526228385133" lon="9.228737225614868"><ele>127.57142857142857</ele><time>2026-04-11T06:58:35.001Z</time></trkpt><trkpt lat="45.495206673952495" lon="9.228678677853917"><ele>127.7142857142857</ele><time>2026-04-11T06:58:36.001Z</time></trkpt><trkpt lat="45.495151423930466" lon="9.228623050083016"><ele>127.85714285714285</ele><time>2026-04-11T06:58:37.001Z</time></trkpt><trkpt lat="45.49509522422159" lon="9.228562583715751"><ele>128.0</ele><time>2026-04-11T06:58:38.001Z</time></trkpt><trkpt lat="45.49504762290168" lon="9.22846765323703"><ele>128.0</ele><time>2026-04-11T06:58:39.001Z</time></trkpt><trkpt lat="45.494984743143775" lon="9.228384333784517"><ele>128.0</ele><time>2026-04-11T06:58:40.001Z</time></trkpt><trkpt lat="45.494806238731606" lon="9.228148566876195"><ele>128.0</ele><time>2026-04-11T06:58:43.001Z</time></trkpt><trkpt lat="45.49474372420369" lon="9.228064872620495"><ele>128.0</ele><time>2026-04-11T06:58:44.001Z</time></trkpt><trkpt lat="45.494678997655555" lon="9.227978382845723"><ele>127.80000000000001</ele><time>2026-04-11T06:58:45.001Z</time></trkpt><trkpt lat="45.49460246434429" lon="9.227876116459724"><ele>127.60000000000001</ele><time>2026-04-11T06:58:46Z</time></trkpt><trkpt lat="45.49453782113333" lon="9.22778973806681"><ele>127.39999999999999</ele><time>2026-04-11T06:58:47Z</time></trkpt><trkpt lat="45.49446909067336" lon="9.22769789792895"><ele>127.19999999999999</ele><time>2026-04-11T06:58:48Z</time></trkpt><trkpt lat="45.494406626740265" lon="9.227614151004074"><ele>127.0</ele><time>2026-04-11T06:58:49Z</time></trkpt><trkpt lat="45.49434403407682" lon="9.227530282340894"><ele>127.00000000000001</ele><time>2026-04-11T06:58:50Z</time></trkpt><trkpt lat="45.49428692952325" lon="9.227453767276826"><ele>127.0</ele><time>2026-04-11T06:58:51Z</time></trkpt><trkpt lat="45.49423026665799" lon="9.227379256660194"><ele>127.0</ele><time>2026-04-11T06:58:52Z</time></trkpt><trkpt lat="45.4941710322251" lon="9.227301514603587"><ele>127.0</ele><time>2026-04-11T06:58:53Z</time></trkpt><trkpt lat="45.494105854764875" lon="9.227215972605707"><ele>127.00000000000001</ele><time>2026-04-11T06:58:54Z</time></trkpt><trkpt lat="45.494035426579636" lon="9.227123314109173"><ele>127.0</ele><time>2026-04-11T06:58:55Z</time></trkpt><trkpt lat="45.49396046452349" lon="9.22702342372285"><ele>127.0</ele><time>2026-04-11T06:58:56Z</time></trkpt><trkpt lat="45.49388075216446" lon="9.226917203256647"><ele>126.99999999999999</ele><time>2026-04-11T06:58:57Z</time></trkpt><trkpt lat="45.493802393133414" lon="9.226812786197778"><ele>126.99999999999999</ele><time>2026-04-11T06:58:58Z</time></trkpt><trkpt lat="45.493727295757836" lon="9.226712715459412"><ele>127.0</ele><time>2026-04-11T06:58:59Z</time></trkpt><trkpt lat="45.49365931083219" lon="9.226622475391014"><ele>127.0</ele><time>2026-04-11T06:59:00Z</time></trkpt><trkpt lat="45.49359085297709" lon="9.226549153927396"><ele>126.83333333333334</ele><time>2026-04-11T06:59:01Z</time></trkpt><trkpt lat="45.49353755147218" lon="9.226455969384968"><ele>126.66666666666667</ele><time>2026-04-11T06:59:02Z</time></trkpt><trkpt lat="45.49348413155769" lon="9.226370245538343"><ele>126.5</ele><time>2026-04-11T06:59:03Z</time></trkpt><trkpt lat="45.493423560974236" lon="9.226306618984262"><ele>126.33333333333334</ele><time>2026-04-11T06:59:04Z</time></trkpt><trkpt lat="45.4933566688142" lon="9.226241947165931"><ele>126.16666666666667</ele><time>2026-04-11T06:59:05Z</time></trkpt><trkpt lat="45.49329419669687" lon="9.226167776998295"><ele>126.0</ele><time>2026-04-11T06:59:06Z</time></trkpt><trkpt lat="45.493240382852065" lon="9.226097769726582"><ele>126.0</ele><time>2026-04-11T06:59:07Z</time></trkpt><trkpt lat="45.4931995061031" lon="9.226012670268174"><ele>126.0</ele><time>2026-04-11T06:59:08Z</time></trkpt><trkpt lat="45.493150328846696" lon="9.225947793037637"><ele>126.0</ele><time>2026-04-11T06:59:09Z</time></trkpt><trkpt lat="45.493086937049526" lon="9.225864163212334"><ele>126.0</ele><time>2026-04-11T06:59:11Z</time></trkpt><trkpt lat="45.49303408968799" lon="9.225794444198067"><ele>126.0</ele><time>2026-04-11T06:59:16Z</time></trkpt><trkpt lat="45.49296414129087" lon="9.225702164573352"><ele>126.0</ele><time>2026-04-11T06:59:18Z</time></trkpt><trkpt lat="45.49286248650085" lon="9.225567828272398"><ele>125.8</ele><time>2026-04-11T06:59:20Z</time></trkpt><trkpt lat="45.49279621019144" lon="9.22547970779474"><ele>125.6</ele><time>2026-04-11T06:59:21Z</time></trkpt><trkpt lat="45.492719368280056" lon="9.225378271503828"><ele>125.4</ele><time>2026-04-11T06:59:22Z</time></trkpt><trkpt lat="45.49264026561941" lon="9.225273847624363"><ele>125.2</ele><time>2026-04-11T06:59:23Z</time></trkpt><trkpt lat="45.492564862052134" lon="9.225174982515563"><ele>125.0</ele><time>2026-04-11T06:59:24Z</time></trkpt><trkpt lat="45.492499383838705" lon="9.225089155157395"><ele>124.99999999999999</ele><time>2026-04-11T06:59:25Z</time></trkpt><trkpt lat="45.49243833653743" lon="9.225009135715286"><ele>125.0</ele><time>2026-04-11T06:59:26Z</time></trkpt><trkpt lat="45.492378759059704" lon="9.224931042909173"><ele>125.0</ele><time>2026-04-11T06:59:27Z</time></trkpt><trkpt lat="45.4923162960267" lon="9.22484916775924"><ele>125.0</ele><time>2026-04-11T06:59:28Z</time></trkpt><trkpt lat="45.49224508076798" lon="9.224755820373348"><ele>124.99999999999999</ele><time>2026-04-11T06:59:29Z</time></trkpt><trkpt lat="45.49216927194349" lon="9.224655390900073"><ele>125.0</ele><time>2026-04-11T06:59:30Z</time></trkpt><trkpt lat="45.49209081968661" lon="9.224550435982668"><ele>125.0</ele><time>2026-04-11T06:59:31Z</time></trkpt><trkpt lat="45.492010129490275" lon="9.224442326376462"><ele>125.0</ele><time>2026-04-11T06:59:32Z</time></trkpt><trkpt lat="45.49192774169827" lon="9.22433219375463"><ele>125.0</ele><time>2026-04-11T06:59:33Z</time></trkpt><trkpt lat="45.491843622541836" lon="9.224220493445149"><ele>125.0</ele><time>2026-04-11T06:59:34Z</time></trkpt><trkpt lat="45.491759825329574" lon="9.22410960892861"><ele>125.0</ele><time>2026-04-11T06:59:35Z</time></trkpt><trkpt lat="45.49167293978342" lon="9.22399463777064"><ele>125.0</ele><time>2026-04-11T06:59:36Z</time></trkpt><trkpt lat="45.491590660134044" lon="9.22388576137454"><ele>125.0</ele><time>2026-04-11T06:59:37Z</time></trkpt><trkpt lat="45.491514951775" lon="9.223785424631403"><ele>125.0</ele><time>2026-04-11T06:59:38Z</time></trkpt><trkpt lat="45.491447287911775" lon="9.2236954844208"><ele>125.0</ele><time>2026-04-11T06:59:39Z</time></trkpt><trkpt lat="45.49138467256881" lon="9.223611701991755"><ele>125.2</ele><time>2026-04-11T06:59:40Z</time></trkpt><trkpt lat="45.49132976759015" lon="9.223537717924458"><ele>125.4</ele><time>2026-04-11T06:59:41Z</time></trkpt><trkpt lat="45.49127983702692" lon="9.223469608369477"><ele>125.6</ele><time>2026-04-11T06:59:42Z</time></trkpt><trkpt lat="45.49119941406795" lon="9.223375413888387"><ele>125.8</ele><time>2026-04-11T06:59:44Z</time></trkpt><trkpt lat="45.49115002354337" lon="9.223242603319598"><ele>126.0</ele><time>2026-04-11T06:59:46Z</time></trkpt><trkpt lat="45.49103220263381" lon="9.2231716098846"><ele>126.83333333333333</ele><time>2026-04-11T06:59:48Z</time></trkpt><trkpt lat="45.49095913762059" lon="9.223117597821856"><ele>127.66666666666666</ele><time>2026-04-11T06:59:49Z</time></trkpt><trkpt lat="45.49092823023705" lon="9.222993622585543"><ele>128.5</ele><time>2026-04-11T06:59:50Z</time></trkpt><trkpt lat="45.490864860798915" lon="9.222901877197778"><ele>129.33333333333331</ele><time>2026-04-11T06:59:51Z</time></trkpt><trkpt lat="45.49079679147097" lon="9.222807202415154"><ele>130.16666666666666</ele><time>2026-04-11T06:59:52Z</time></trkpt><trkpt lat="45.49073210865987" lon="9.222721231873537"><ele>131.0</ele><time>2026-04-11T06:59:53Z</time></trkpt><trkpt lat="45.490672485865886" lon="9.222641986549629"><ele>131.0</ele><time>2026-04-11T06:59:54Z</time></trkpt><trkpt lat="45.490620466166746" lon="9.22257284662901"><ele>131.0</ele><time>2026-04-11T06:59:55Z</time></trkpt><trkpt lat="45.490572583648756" lon="9.222509205380717"><ele>131.0</ele><time>2026-04-11T06:59:56Z</time></trkpt><trkpt lat="45.490524484827716" lon="9.22244551011061"><ele>131.0</ele><time>2026-04-11T06:59:57Z</time></trkpt><trkpt lat="45.490466640874786" lon="9.222369091796233"><ele>131.0</ele><time>2026-04-11T06:59:58Z</time></trkpt><trkpt lat="45.4904046460032" lon="9.222287189519296"><ele>131.0</ele><time>2026-04-11T06:59:59Z</time></trkpt><trkpt lat="45.49033494519213" lon="9.222195105339775"><ele>130.6</ele><time>2026-04-11T07:00:00Z</time></trkpt><trkpt lat="45.490266750160096" lon="9.222105624199912"><ele>130.2</ele><time>2026-04-11T07:00:01Z</time></trkpt><trkpt lat="45.49019018123079" lon="9.222004169622592"><ele>129.8</ele><time>2026-04-11T07:00:02Z</time></trkpt><trkpt lat="45.49010734857148" lon="9.221894415501724"><ele>129.4</ele><time>2026-04-11T07:00:03Z</time></trkpt><trkpt lat="45.49002600488758" lon="9.221786634348012"><ele>129.0</ele><time>2026-04-11T07:00:04Z</time></trkpt><trkpt lat="45.48994519092141" lon="9.221679555082211"><ele>129.0</ele><time>2026-04-11T07:00:05Z</time></trkpt><trkpt lat="45.489864889597555" lon="9.22157315502443"><ele>129.0</ele><time>2026-04-11T07:00:06Z</time></trkpt><trkpt lat="45.48978452922062" lon="9.221466676703754"><ele>129.0</ele><time>2026-04-11T07:00:07Z</time></trkpt><trkpt lat="45.489705830274005" lon="9.22136239985647"><ele>129.0</ele><time>2026-04-11T07:00:08Z</time></trkpt><trkpt lat="45.489630450894396" lon="9.221262726338631"><ele>129.0</ele><time>2026-04-11T07:00:09Z</time></trkpt><trkpt lat="45.48954910562672" lon="9.221187712523298"><ele>128.6</ele><time>2026-04-11T07:00:10Z</time></trkpt><trkpt lat="45.489481978461505" lon="9.221097401550468"><ele>128.2</ele><time>2026-04-11T07:00:11Z</time></trkpt><trkpt lat="45.489417006035225" lon="9.221002196405301"><ele>127.79999999999998</ele><time>2026-04-11T07:00:12Z</time></trkpt><trkpt lat="45.489345384609194" lon="9.220902451093597"><ele>127.39999999999999</ele><time>2026-04-11T07:00:13Z</time></trkpt><trkpt lat="45.48926463075622" lon="9.220799022009698"><ele>127.0</ele><time>2026-04-11T07:00:14Z</time></trkpt><trkpt lat="45.48918196708172" lon="9.220681981806987"><ele>126.75</ele><time>2026-04-11T07:00:15Z</time></trkpt><trkpt lat="45.48910278189664" lon="9.220574806682327"><ele>126.5</ele><time>2026-04-11T07:00:16Z</time></trkpt><trkpt lat="45.48902325351055" lon="9.220470214384747"><ele>126.25</ele><time>2026-04-11T07:00:17Z</time></trkpt><trkpt lat="45.48895100060436" lon="9.220340110871952"><ele>126.0</ele><time>2026-04-11T07:00:18Z</time></trkpt><trkpt lat="45.48886190876329" lon="9.220219613238648"><ele>126.0</ele><time>2026-04-11T07:00:19Z</time></trkpt><trkpt lat="45.4887706217025" lon="9.220096146481731"><ele>126.0</ele><time>2026-04-11T07:00:20Z</time></trkpt><trkpt lat="45.48868130508054" lon="9.21997534484664"><ele>126.0</ele><time>2026-04-11T07:00:21Z</time></trkpt><trkpt lat="45.48859121148212" lon="9.21985349231654"><ele>126.0</ele><time>2026-04-11T07:00:22Z</time></trkpt><trkpt lat="45.488500369857924" lon="9.219730628098892"><ele>125.5</ele><time>2026-04-11T07:00:23Z</time></trkpt><trkpt lat="45.48840738719867" lon="9.21960736679123"><ele>125.0</ele><time>2026-04-11T07:00:24Z</time></trkpt><trkpt lat="45.48831214835313" lon="9.219481857530145"><ele>124.5</ele><time>2026-04-11T07:00:25Z</time></trkpt><trkpt lat="45.48821696529676" lon="9.219356421705989"><ele>124.0</ele><time>2026-04-11T07:00:26Z</time></trkpt><trkpt lat="45.48812199025032" lon="9.219229758048336"><ele>124.0</ele><time>2026-04-11T07:00:27Z</time></trkpt><trkpt lat="45.488026764324204" lon="9.21910259638815"><ele>124.0</ele><time>2026-04-11T07:00:28Z</time></trkpt><trkpt lat="45.48793195887889" lon="9.218975996239834"><ele>124.0</ele><time>2026-04-11T07:00:29Z</time></trkpt><trkpt lat="45.48783059023175" lon="9.218846864972027"><ele>124.0</ele><time>2026-04-11T07:00:30Z</time></trkpt><trkpt lat="45.487728917506864" lon="9.218720478124949"><ele>125.0</ele><time>2026-04-11T07:00:31Z</time></trkpt><trkpt lat="45.4876280497386" lon="9.218595091874695"><ele>126.0</ele><time>2026-04-11T07:00:32Z</time></trkpt><trkpt lat="45.48752703990778" lon="9.218473378980857"><ele>127.0</ele><time>2026-04-11T07:00:33Z</time></trkpt><trkpt lat="45.487435424221424" lon="9.218358711161203"><ele>128.0</ele><time>2026-04-11T07:00:34Z</time></trkpt><trkpt lat="45.48734901683018" lon="9.21824856316222"><ele>127.80000000000001</ele><time>2026-04-11T07:00:35Z</time></trkpt><trkpt lat="45.48726756450238" lon="9.21814399802971"><ele>127.60000000000001</ele><time>2026-04-11T07:00:36Z</time></trkpt><trkpt lat="45.48719131978578" lon="9.218043048597783"><ele>127.39999999999999</ele><time>2026-04-11T07:00:37Z</time></trkpt><trkpt lat="45.487112845024" lon="9.21793913327414"><ele>127.19999999999999</ele><time>2026-04-11T07:00:38Z</time></trkpt><trkpt lat="45.487035694954606" lon="9.217836972113663"><ele>127.0</ele><time>2026-04-11T07:00:39Z</time></trkpt><trkpt lat="45.486963259756756" lon="9.217741054217878"><ele>127.50000000000001</ele><time>2026-04-11T07:00:40Z</time></trkpt><trkpt lat="45.48689849647255" lon="9.2176531717662"><ele>128.0</ele><time>2026-04-11T07:00:41Z</time></trkpt><trkpt lat="45.486838079789166" lon="9.217571255702499"><ele>128.5</ele><time>2026-04-11T07:00:42Z</time></trkpt><trkpt lat="45.486782498955954" lon="9.217496153287366"><ele>129.0</ele><time>2026-04-11T07:00:43Z</time></trkpt><trkpt lat="45.48672250315729" lon="9.217440292669092"><ele>129.5</ele><time>2026-04-11T07:00:44Z</time></trkpt><trkpt lat="45.4866749324192" lon="9.217295225188108"><ele>130.0</ele><time>2026-04-11T07:00:46Z</time></trkpt><trkpt lat="45.48666533630176" lon="9.21718940582946"><ele>130.0</ele><time>2026-04-11T07:00:49Z</time></trkpt><trkpt lat="45.4866385708148" lon="9.216941594903059"><ele>130.0</ele><time>2026-04-11T07:01:10Z</time></trkpt><trkpt lat="45.4866477886206" lon="9.216819972682247"><ele>130.0</ele><time>2026-04-11T07:01:11Z</time></trkpt><trkpt lat="45.48656644221246" lon="9.216699953917555"><ele>130.0</ele><time>2026-04-11T07:01:12Z</time></trkpt><trkpt lat="45.48652750534206" lon="9.216608701736051"><ele>130.0</ele><time>2026-04-11T07:01:13Z</time></trkpt><trkpt lat="45.48649865357378" lon="9.216518516557871"><ele>130.0</ele><time>2026-04-11T07:01:14Z</time></trkpt><trkpt lat="45.48642718868731" lon="9.216387467827715"><ele>130.0</ele><time>2026-04-11T07:01:16Z</time></trkpt><trkpt lat="45.4863757628251" lon="9.216290391515912"><ele>130.0</ele><time>2026-04-11T07:01:18Z</time></trkpt><trkpt lat="45.486311520780625" lon="9.216192922373944"><ele>130.0</ele><time>2026-04-11T07:01:48Z</time></trkpt><trkpt lat="45.486242805066134" lon="9.216023411959284"><ele>129.75</ele><time>2026-04-11T07:01:50Z</time></trkpt><trkpt lat="45.48630553775527" lon="9.215925098342568"><ele>129.5</ele><time>2026-04-11T07:01:51Z</time></trkpt><trkpt lat="45.48636699410738" lon="9.21579803306836"><ele>129.25</ele><time>2026-04-11T07:01:52Z</time></trkpt><trkpt lat="45.4864469816991" lon="9.21565613725222"><ele>129.0</ele><time>2026-04-11T07:01:53Z</time></trkpt><trkpt lat="45.48652748480764" lon="9.215514055681776"><ele>129.0</ele><time>2026-04-11T07:01:54Z</time></trkpt><trkpt lat="45.48661850727278" lon="9.215341990750026"><ele>129.0</ele><time>2026-04-11T07:01:55Z</time></trkpt><trkpt lat="45.48670453076883" lon="9.215183039839996"><ele>129.0</ele><time>2026-04-11T07:01:56Z</time></trkpt><trkpt lat="45.4867916074664" lon="9.215027259584184"><ele>129.0</ele><time>2026-04-11T07:01:57Z</time></trkpt><trkpt lat="45.48688908171286" lon="9.214847534085292"><ele>128.0</ele><time>2026-04-11T07:01:58Z</time></trkpt><trkpt lat="45.48698462964852" lon="9.214678749826769"><ele>127.0</ele><time>2026-04-11T07:01:59Z</time></trkpt><trkpt lat="45.48707868437736" lon="9.214506707601402"><ele>126.0</ele><time>2026-04-11T07:02:00Z</time></trkpt><trkpt lat="45.48716294347928" lon="9.214309971987612"><ele>126.0</ele><time>2026-04-11T07:02:01Z</time></trkpt><trkpt lat="45.48724997032467" lon="9.214136753416902"><ele>126.0</ele><time>2026-04-11T07:02:02Z</time></trkpt><trkpt lat="45.48733751697822" lon="9.213962500524971"><ele>126.0</ele><time>2026-04-11T07:02:03Z</time></trkpt><trkpt lat="45.48742235362144" lon="9.213793641476554"><ele>126.0</ele><time>2026-04-11T07:02:04Z</time></trkpt><trkpt lat="45.48750599657956" lon="9.213626846431746"><ele>126.5</ele><time>2026-04-11T07:02:05Z</time></trkpt><trkpt lat="45.48758957483885" lon="9.213460440462846"><ele>127.0</ele><time>2026-04-11T07:02:06Z</time></trkpt><trkpt lat="45.487681038006315" lon="9.213278397275428"><ele>127.5</ele><time>2026-04-11T07:02:07Z</time></trkpt><trkpt lat="45.48776397491406" lon="9.213118529693748"><ele>128.0</ele><time>2026-04-11T07:02:08Z</time></trkpt><trkpt lat="45.48784375094171" lon="9.212964755040922"><ele>128.25</ele><time>2026-04-11T07:02:09Z</time></trkpt><trkpt lat="45.48792909444717" lon="9.21280050434935"><ele>128.5</ele><time>2026-04-11T07:02:10Z</time></trkpt><trkpt lat="45.487999228118326" lon="9.212665549414556"><ele>128.75</ele><time>2026-04-11T07:02:11Z</time></trkpt><trkpt lat="45.48805692224724" lon="9.212553039169942"><ele>129.0</ele><time>2026-04-11T07:02:12Z</time></trkpt><trkpt lat="45.48811558160878" lon="9.212437995609598"><ele>129.0</ele><time>2026-04-11T07:02:13Z</time></trkpt><trkpt lat="45.48817199225483" lon="9.212327362261165"><ele>129.0</ele><time>2026-04-11T07:02:14Z</time></trkpt><trkpt lat="45.48823028793084" lon="9.212213031966058"><ele>129.0</ele><time>2026-04-11T07:02:15Z</time></trkpt><trkpt lat="45.48831738180413" lon="9.212099544319098"><ele>129.0</ele><time>2026-04-11T07:02:16Z</time></trkpt><trkpt lat="45.488391696456624" lon="9.211953566283052"><ele>129.0</ele><time>2026-04-11T07:02:17Z</time></trkpt><trkpt lat="45.48845947070197" lon="9.21181677652331"><ele>129.2</ele><time>2026-04-11T07:02:18Z</time></trkpt><trkpt lat="45.488501006469406" lon="9.211663652058743"><ele>129.4</ele><time>2026-04-11T07:02:19Z</time></trkpt><trkpt lat="45.48857457112769" lon="9.211536082909708"><ele>129.6</ele><time>2026-04-11T07:02:20Z</time></trkpt><trkpt lat="45.488632356206274" lon="9.211407802222181"><ele>129.8</ele><time>2026-04-11T07:02:21Z</time></trkpt><trkpt lat="45.48868648194085" lon="9.211289816925026"><ele>130.0</ele><time>2026-04-11T07:02:22Z</time></trkpt><trkpt lat="45.488727142191365" lon="9.211192692854041"><ele>129.8</ele><time>2026-04-11T07:02:23Z</time></trkpt><trkpt lat="45.488787744663036" lon="9.211073707410275"><ele>129.6</ele><time>2026-04-11T07:02:25Z</time></trkpt><trkpt lat="45.488837415168845" lon="9.211013016905344"><ele>129.4</ele><time>2026-04-11T07:02:27Z</time></trkpt><trkpt lat="45.488831487620445" lon="9.210890949534154"><ele>129.2</ele><time>2026-04-11T07:02:32Z</time></trkpt><trkpt lat="45.48883428327241" lon="9.210796998096654"><ele>129.0</ele><time>2026-04-11T07:02:40Z</time></trkpt><trkpt lat="45.48894012467162" lon="9.210578356821749"><ele>129.33333333333334</ele><time>2026-04-11T07:03:02Z</time></trkpt><trkpt lat="45.488984283091796" lon="9.210477601976823"><ele>129.66666666666666</ele><time>2026-04-11T07:03:03Z</time></trkpt><trkpt lat="45.48903694339785" lon="9.21035668829103"><ele>130.0</ele><time>2026-04-11T07:03:04Z</time></trkpt><trkpt lat="45.48909489182388" lon="9.210244393914255"><ele>130.33333333333331</ele><time>2026-04-11T07:03:05Z</time></trkpt><trkpt lat="45.48915441928926" lon="9.210158973221917"><ele>130.66666666666666</ele><time>2026-04-11T07:03:06Z</time></trkpt><trkpt lat="45.48920848518399" lon="9.210074156652361"><ele>131.0</ele><time>2026-04-11T07:03:07Z</time></trkpt><trkpt lat="45.48925897143613" lon="9.209990288119888"><ele>131.0</ele><time>2026-04-11T07:03:08Z</time></trkpt><trkpt lat="45.48930337614606" lon="9.209895518835555"><ele>131.0</ele><time>2026-04-11T07:03:09Z</time></trkpt><trkpt lat="45.48936052401405" lon="9.209806518651966"><ele>131.0</ele><time>2026-04-11T07:03:10Z</time></trkpt><trkpt lat="45.489405019261" lon="9.209717550888422"><ele>131.0</ele><time>2026-04-11T07:03:11Z</time></trkpt><trkpt lat="45.48944972378425" lon="9.20962813026985"><ele>131.0</ele><time>2026-04-11T07:03:12Z</time></trkpt><trkpt lat="45.48949502473424" lon="9.209535557325971"><ele>131.0</ele><time>2026-04-11T07:03:13Z</time></trkpt><trkpt lat="45.48954429528686" lon="9.20943316549807"><ele>130.66666666666666</ele><time>2026-04-11T07:03:14Z</time></trkpt><trkpt lat="45.48959474531972" lon="9.209328396408154"><ele>130.33333333333331</ele><time>2026-04-11T07:03:15Z</time></trkpt><trkpt lat="45.489642064440474" lon="9.209233035161338"><ele>130.0</ele><time>2026-04-11T07:03:16Z</time></trkpt><trkpt lat="45.48968938356123" lon="9.209137673834409"><ele>129.66666666666666</ele><time>2026-04-11T07:03:17Z</time></trkpt><trkpt lat="45.48973670268198" lon="9.209042312427364"><ele>129.33333333333334</ele><time>2026-04-11T07:03:18Z</time></trkpt><trkpt lat="45.489784021802734" lon="9.208946950940206"><ele>129.0</ele><time>2026-04-11T07:03:19Z</time></trkpt><trkpt lat="45.489824372022795" lon="9.2088359141706"><ele>129.0</ele><time>2026-04-11T07:03:21Z</time></trkpt><trkpt lat="45.48989995693859" lon="9.208719499647504"><ele>129.0</ele><time>2026-04-11T07:03:23Z</time></trkpt><trkpt lat="45.48997554185438" lon="9.208603084968185"><ele>129.0</ele><time>2026-04-11T07:03:25.001Z</time></trkpt><trkpt lat="45.4901615503241" lon="9.208099096692614"><ele>129.25</ele><time>2026-04-11T07:03:28.204Z</time></trkpt><trkpt lat="45.49023400130948" lon="9.207954473756306"><ele>129.5</ele><time>2026-04-11T07:03:29.203Z</time></trkpt><trkpt lat="45.490306746923864" lon="9.207810305954471"><ele>129.75</ele><time>2026-04-11T07:03:30.202Z</time></trkpt><trkpt lat="45.49037975964855" lon="9.207665665927534"><ele>130.0</ele><time>2026-04-11T07:03:31.204Z</time></trkpt><trkpt lat="45.49045414117069" lon="9.207522593393282"><ele>130.0</ele><time>2026-04-11T07:03:32.205Z</time></trkpt><trkpt lat="45.490532777340704" lon="9.20738487617236"><ele>130.0</ele><time>2026-04-11T07:03:33.204Z</time></trkpt><trkpt lat="45.49066124746665" lon="9.207171272110832"><ele>130.0</ele><time>2026-04-11T07:03:43.492Z</time></trkpt><trkpt lat="45.490848239358996" lon="9.206973842739187"><ele>130.2</ele><time>2026-04-11T07:03:49Z</time></trkpt><trkpt lat="45.4908982179213" lon="9.206836254845893"><ele>130.4</ele><time>2026-04-11T07:03:52Z</time></trkpt><trkpt lat="45.49092941251868" lon="9.206715538968089"><ele>130.6</ele><time>2026-04-11T07:03:53Z</time></trkpt><trkpt lat="45.49097936663806" lon="9.20660603132271"><ele>130.8</ele><time>2026-04-11T07:03:54Z</time></trkpt><trkpt lat="45.49102843477984" lon="9.206499446474284"><ele>131.0</ele><time>2026-04-11T07:03:55.001Z</time></trkpt><trkpt lat="45.4910790434059" lon="9.2063796549404"><ele>131.0</ele><time>2026-04-11T07:03:56.001Z</time></trkpt><trkpt lat="45.491136742800194" lon="9.206275153141103"><ele>131.0</ele><time>2026-04-11T07:03:57.001Z</time></trkpt><trkpt lat="45.49120936433348" lon="9.206145725666552"><ele>131.0</ele><time>2026-04-11T07:03:58.001Z</time></trkpt><trkpt lat="45.4912705170737" lon="9.206023398291396"><ele>131.0</ele><time>2026-04-11T07:03:59.001Z</time></trkpt><trkpt lat="45.49133601670741" lon="9.205874044511406"><ele>131.0</ele><time>2026-04-11T07:04:00.001Z</time></trkpt><trkpt lat="45.49139578489992" lon="9.205750375936763"><ele>131.0</ele><time>2026-04-11T07:04:01.001Z</time></trkpt><trkpt lat="45.49145738287987" lon="9.20562760723405"><ele>131.0</ele><time>2026-04-11T07:04:02.001Z</time></trkpt><trkpt lat="45.49151132716006" lon="9.20551684345048"><ele>131.0</ele><time>2026-04-11T07:04:03.001Z</time></trkpt><trkpt lat="45.491559582732684" lon="9.205414948964654"><ele>131.0</ele><time>2026-04-11T07:04:04.001Z</time></trkpt><trkpt lat="45.49160146236488" lon="9.205319037696272"><ele>131.0</ele><time>2026-04-11T07:04:05.001Z</time></trkpt><trkpt lat="45.491655587125834" lon="9.205200851813117"><ele>131.0</ele><time>2026-04-11T07:04:06.001Z</time></trkpt><trkpt lat="45.49171383104089" lon="9.20508099661638"><ele>131.0</ele><time>2026-04-11T07:04:07.001Z</time></trkpt><trkpt lat="45.4917777823435" lon="9.204959917070173"><ele>131.0</ele><time>2026-04-11T07:04:08.001Z</time></trkpt><trkpt lat="45.49183670350521" lon="9.204834220480736"><ele>131.0</ele><time>2026-04-11T07:04:09.001Z</time></trkpt><trkpt lat="45.49190121038739" lon="9.20471395364869"><ele>131.0</ele><time>2026-04-11T07:04:10.001Z</time></trkpt><trkpt lat="45.491954618501495" lon="9.204611866658729"><ele>131.0</ele><time>2026-04-11T07:04:11.001Z</time></trkpt><trkpt lat="45.49200314444098" lon="9.204511017380494"><ele>131.0</ele><time>2026-04-11T07:04:12.001Z</time></trkpt><trkpt lat="45.49205027020365" lon="9.204400665177808"><ele>131.0</ele><time>2026-04-11T07:04:13.001Z</time></trkpt><trkpt lat="45.49210095182737" lon="9.204283679037099"><ele>131.0</ele><time>2026-04-11T07:04:14.001Z</time></trkpt><trkpt lat="45.492159991084684" lon="9.20416339683328"><ele>131.0</ele><time>2026-04-11T07:04:15.001Z</time></trkpt><trkpt lat="45.492230992976566" lon="9.20402247773848"><ele>130.5</ele><time>2026-04-11T07:04:16.001Z</time></trkpt><trkpt lat="45.49231670532342" lon="9.20386476304526"><ele>130.0</ele><time>2026-04-11T07:04:17.001Z</time></trkpt><trkpt lat="45.49241275949031" lon="9.203702346291697"><ele>129.5</ele><time>2026-04-11T07:04:18.001Z</time></trkpt><trkpt lat="45.49250851248092" lon="9.203536674733817"><ele>129.0</ele><time>2026-04-11T07:04:19.001Z</time></trkpt><trkpt lat="45.492607085230716" lon="9.203351522494925"><ele>128.66666666666666</ele><time>2026-04-11T07:04:20.001Z</time></trkpt><trkpt lat="45.49270363924311" lon="9.203155061528381"><ele>128.33333333333331</ele><time>2026-04-11T07:04:21.001Z</time></trkpt><trkpt lat="45.49279938374501" lon="9.202953830657647"><ele>128.0</ele><time>2026-04-11T07:04:22.001Z</time></trkpt><trkpt lat="45.492895386712306" lon="9.202750435290708"><ele>129.0</ele><time>2026-04-11T07:04:23.001Z</time></trkpt><trkpt lat="45.492996997311195" lon="9.20254993688736"><ele>130.0</ele><time>2026-04-11T07:04:24.001Z</time></trkpt><trkpt lat="45.493091279702156" lon="9.202345738433818"><ele>131.0</ele><time>2026-04-11T07:04:25.001Z</time></trkpt><trkpt lat="45.493195439114544" lon="9.202132967886797"><ele>131.0</ele><time>2026-04-11T07:04:26.001Z</time></trkpt><trkpt lat="45.49329209289438" lon="9.201935318996929"><ele>131.0</ele><time>2026-04-11T07:04:27.001Z</time></trkpt><trkpt lat="45.49339381934566" lon="9.20174894993969"><ele>131.0</ele><time>2026-04-11T07:04:28.001Z</time></trkpt><trkpt lat="45.49348262116031" lon="9.20156555885953"><ele>131.25</ele><time>2026-04-11T07:04:29.001Z</time></trkpt><trkpt lat="45.49356814344863" lon="9.201395198777451"><ele>131.5</ele><time>2026-04-11T07:04:30.001Z</time></trkpt><trkpt lat="45.493643755374656" lon="9.201239887365052"><ele>131.75</ele><time>2026-04-11T07:04:31.001Z</time></trkpt><trkpt lat="45.493727551573286" lon="9.201054740856518"><ele>132.0</ele><time>2026-04-11T07:04:32.001Z</time></trkpt><trkpt lat="45.49380173130463" lon="9.200890011190564"><ele>131.25</ele><time>2026-04-11T07:04:33.001Z</time></trkpt><trkpt lat="45.49388889065574" lon="9.20072951326803"><ele>130.5</ele><time>2026-04-11T07:04:34.001Z</time></trkpt><trkpt lat="45.49396663102618" lon="9.200544543691136"><ele>129.75</ele><time>2026-04-11T07:04:35.001Z</time></trkpt><trkpt lat="45.494036454917605" lon="9.200371561696254"><ele>129.0</ele><time>2026-04-11T07:04:36.001Z</time></trkpt><trkpt lat="45.49409333902077" lon="9.200216213931425"><ele>129.0</ele><time>2026-04-11T07:04:37.001Z</time></trkpt><trkpt lat="45.49415130407451" lon="9.200054203724651"><ele>129.0</ele><time>2026-04-11T07:04:38.001Z</time></trkpt><trkpt lat="45.49419680311321" lon="9.19983594002675"><ele>129.0</ele><time>2026-04-11T07:04:39.001Z</time></trkpt><trkpt lat="45.494248947634375" lon="9.199659915192516"><ele>129.0</ele><time>2026-04-11T07:04:40.001Z</time></trkpt><trkpt lat="45.4943030222815" lon="9.19947583823441"><ele>128.75</ele><time>2026-04-11T07:04:41.001Z</time></trkpt><trkpt lat="45.49436054793357" lon="9.199284855702135"><ele>128.5</ele><time>2026-04-11T07:04:42.001Z</time></trkpt><trkpt lat="45.49440227358436" lon="9.199100836585231"><ele>128.25</ele><time>2026-04-11T07:04:43.001Z</time></trkpt><trkpt lat="45.49443539227654" lon="9.198917926320402"><ele>128.0</ele><time>2026-04-11T07:04:44.001Z</time></trkpt><trkpt lat="45.49447729299336" lon="9.198742416582819"><ele>128.0</ele><time>2026-04-11T07:04:45.001Z</time></trkpt><trkpt lat="45.494531078607395" lon="9.198581906268885"><ele>128.0</ele><time>2026-04-11T07:04:46.001Z</time></trkpt><trkpt lat="45.4946170715552" lon="9.198448752153112"><ele>128.0</ele><time>2026-04-11T07:04:47.001Z</time></trkpt><trkpt lat="45.49467023728479" lon="9.198313945500995"><ele>128.0</ele><time>2026-04-11T07:04:48.001Z</time></trkpt><trkpt lat="45.49470735754504" lon="9.198175129033174"><ele>128.8</ele><time>2026-04-11T07:04:49.001Z</time></trkpt><trkpt lat="45.494754630058566" lon="9.198037390976065"><ele>129.60000000000002</ele><time>2026-04-11T07:04:50.001Z</time></trkpt><trkpt lat="45.49478197758249" lon="9.19792224588818"><ele>130.39999999999998</ele><time>2026-04-11T07:04:51.001Z</time></trkpt><trkpt lat="45.49482440928535" lon="9.197798938423395"><ele>131.2</ele><time>2026-04-11T07:04:52.001Z</time></trkpt><trkpt lat="45.49485631733976" lon="9.197664115726974"><ele>132.0</ele><time>2026-04-11T07:04:53.001Z</time></trkpt><trkpt lat="45.49486340019235" lon="9.197513084139233"><ele>132.0</ele><time>2026-04-11T07:04:54.001Z</time></trkpt><trkpt lat="45.49489212346773" lon="9.197406046162408"><ele>132.0</ele><time>2026-04-11T07:04:55.001Z</time></trkpt><trkpt lat="45.49491793427859" lon="9.19731102020852"><ele>132.0</ele><time>2026-04-11T07:04:56.001Z</time></trkpt><trkpt lat="45.495003350428114" lon="9.197205040017355"><ele>132.0</ele><time>2026-04-11T07:04:58.001Z</time></trkpt><trkpt lat="45.49503294398102" lon="9.197090983086074"><ele>132.0</ele><time>2026-04-11T07:05:00.001Z</time></trkpt><trkpt lat="45.49504462699294" lon="9.196986943606504"><ele>132.0</ele><time>2026-04-11T07:05:02.001Z</time></trkpt><trkpt lat="45.494997737995874" lon="9.196902303787445"><ele>131.4</ele><time>2026-04-11T07:05:07.001Z</time></trkpt><trkpt lat="45.49501056256904" lon="9.196805982967794"><ele>130.79999999999998</ele><time>2026-04-11T07:10:08Z</time></trkpt><trkpt lat="45.49503679817716" lon="9.19670348703012"><ele>130.2</ele><time>2026-04-11T07:10:09Z</time></trkpt><trkpt lat="45.495068541543056" lon="9.196577405304422"><ele>129.6</ele><time>2026-04-11T07:10:10Z</time></trkpt><trkpt lat="45.495106483794785" lon="9.19641681447523"><ele>129.0</ele><time>2026-04-11T07:10:11Z</time></trkpt><trkpt lat="45.49514174429803" lon="9.196240366662122"><ele>128.75</ele><time>2026-04-11T07:10:12Z</time></trkpt><trkpt lat="45.49518841553295" lon="9.19607011846809"><ele>128.5</ele><time>2026-04-11T07:10:13Z</time></trkpt><trkpt lat="45.49523805448037" lon="9.195904199808373"><ele>128.25</ele><time>2026-04-11T07:10:14Z</time></trkpt><trkpt lat="45.49528532108273" lon="9.195764082822125"><ele>128.0</ele><time>2026-04-11T07:10:15Z</time></trkpt><trkpt lat="45.495320663914136" lon="9.19561212232142"><ele>128.0</ele><time>2026-04-11T07:10:16Z</time></trkpt><trkpt lat="45.495360650199956" lon="9.19546598926285"><ele>128.0</ele><time>2026-04-11T07:10:17Z</time></trkpt><trkpt lat="45.49539723839532" lon="9.195342311112622"><ele>128.0</ele><time>2026-04-11T07:10:18Z</time></trkpt><trkpt lat="45.495434548745884" lon="9.19520344518647"><ele>128.0</ele><time>2026-04-11T07:10:19Z</time></trkpt><trkpt lat="45.49547154164807" lon="9.19507075655686"><ele>128.0</ele><time>2026-04-11T07:10:20Z</time></trkpt><trkpt lat="45.49551693560224" lon="9.194915188457639"><ele>128.0</ele><time>2026-04-11T07:10:21Z</time></trkpt><trkpt lat="45.495563358167566" lon="9.194750855125372"><ele>128.0</ele><time>2026-04-11T07:10:22Z</time></trkpt><trkpt lat="45.495620725768575" lon="9.194579416361638"><ele>128.0</ele><time>2026-04-11T07:10:23Z</time></trkpt><trkpt lat="45.495674879752904" lon="9.194392983266438"><ele>128.0</ele><time>2026-04-11T07:10:24Z</time></trkpt><trkpt lat="45.49571881085872" lon="9.194199704502218"><ele>128.0</ele><time>2026-04-11T07:10:25Z</time></trkpt><trkpt lat="45.495765767961515" lon="9.194014503874895"><ele>128.0</ele><time>2026-04-11T07:10:26Z</time></trkpt><trkpt lat="45.495805390187726" lon="9.193858456913498"><ele>128.0</ele><time>2026-04-11T07:10:27Z</time></trkpt><trkpt lat="45.495841558990435" lon="9.193720129089739"><ele>128.0</ele><time>2026-04-11T07:10:28Z</time></trkpt><trkpt lat="45.495877183054816" lon="9.19359909491912"><ele>128.16666666666666</ele><time>2026-04-11T07:10:29Z</time></trkpt><trkpt lat="45.49590901544306" lon="9.193498957093556"><ele>128.33333333333331</ele><time>2026-04-11T07:10:30Z</time></trkpt><trkpt lat="45.49596242194185" lon="9.193356350657192"><ele>128.5</ele><time>2026-04-11T07:10:32Z</time></trkpt><trkpt lat="45.49599313685911" lon="9.19326833936807"><ele>128.66666666666666</ele><time>2026-04-11T07:10:34Z</time></trkpt><trkpt lat="45.496029140077695" lon="9.193176139963239"><ele>128.83333333333334</ele><time>2026-04-11T07:10:37Z</time></trkpt><trkpt lat="45.496059529203094" lon="9.193067012524581"><ele>129.0</ele><time>2026-04-11T07:10:57Z</time></trkpt><trkpt lat="45.496065654158386" lon="9.192965599976429"><ele>129.25</ele><time>2026-04-11T07:10:58Z</time></trkpt><trkpt lat="45.49611106103245" lon="9.19284152948438"><ele>129.5</ele><time>2026-04-11T07:10:59Z</time></trkpt><trkpt lat="45.496154434742095" lon="9.192677170985103"><ele>129.75</ele><time>2026-04-11T07:10:59.999Z</time></trkpt><trkpt lat="45.496206768173984" lon="9.19249645031347"><ele>130.0</ele><time>2026-04-11T07:11:00.999Z</time></trkpt><trkpt lat="45.49626482721572" lon="9.192302159368705"><ele>130.0</ele><time>2026-04-11T07:11:01.999Z</time></trkpt><trkpt lat="45.49633999993484" lon="9.192104301358972"><ele>130.0</ele><time>2026-04-11T07:11:02.999Z</time></trkpt><trkpt lat="45.496399571375235" lon="9.19188646616677"><ele>130.0</ele><time>2026-04-11T07:11:03.999Z</time></trkpt><trkpt lat="45.49646066139845" lon="9.191659028194342"><ele>131.0</ele><time>2026-04-11T07:11:04.999Z</time></trkpt><trkpt lat="45.49649662105478" lon="9.191376203797137"><ele>132.0</ele><time>2026-04-11T07:11:05.999Z</time></trkpt><trkpt lat="45.49652384381074" lon="9.191070762691522"><ele>133.0</ele><time>2026-04-11T07:11:06.999Z</time></trkpt><trkpt lat="45.49658960127183" lon="9.190822076131859"><ele>133.0</ele><time>2026-04-11T07:11:07.999Z</time></trkpt><trkpt lat="45.49666189362959" lon="9.190567074567666"><ele>133.0</ele><time>2026-04-11T07:11:08.999Z</time></trkpt><trkpt lat="45.4967476393642" lon="9.190331533718613"><ele>133.0</ele><time>2026-04-11T07:11:09.999Z</time></trkpt><trkpt lat="45.49681069107693" lon="9.190098401545631"><ele>133.0</ele><time>2026-04-11T07:11:10.999Z</time></trkpt><trkpt lat="45.49686596285852" lon="9.189894035517217"><ele>133.0</ele><time>2026-04-11T07:11:11.999Z</time></trkpt><trkpt lat="45.49690564013552" lon="9.189688953207213"><ele>133.0</ele><time>2026-04-11T07:11:12.999Z</time></trkpt><trkpt lat="45.49698740368719" lon="9.189444464113768"><ele>132.66666666666669</ele><time>2026-04-11T07:11:13.999Z</time></trkpt><trkpt lat="45.49704357369818" lon="9.189235710408735"><ele>132.33333333333334</ele><time>2026-04-11T07:11:14.999Z</time></trkpt><trkpt lat="45.49708832594469" lon="9.189033200765483"><ele>132.0</ele><time>2026-04-11T07:11:15.999Z</time></trkpt><trkpt lat="45.497082756843" lon="9.188815332593819"><ele>132.0</ele><time>2026-04-11T07:11:16.999Z</time></trkpt><trkpt lat="45.497097197392165" lon="9.188595229822507"><ele>132.0</ele><time>2026-04-11T07:11:17.999Z</time></trkpt><trkpt lat="45.49714195256298" lon="9.188374377759642"><ele>132.0</ele><time>2026-04-11T07:11:18.999Z</time></trkpt><trkpt lat="45.49719435993674" lon="9.188149050589383"><ele>131.25</ele><time>2026-04-11T07:11:19.999Z</time></trkpt><trkpt lat="45.497250155820375" lon="9.187949309456352"><ele>130.5</ele><time>2026-04-11T07:11:20.999Z</time></trkpt><trkpt lat="45.497373690968395" lon="9.187833399457869"><ele>129.75</ele><time>2026-04-11T07:11:21.999Z</time></trkpt><trkpt lat="45.49741815680059" lon="9.187652671122539"><ele>129.0</ele><time>2026-04-11T07:11:22.999Z</time></trkpt><trkpt lat="45.49746379610768" lon="9.187486968120034"><ele>129.0</ele><time>2026-04-11T07:11:23.999Z</time></trkpt><trkpt lat="45.497495699712836" lon="9.187305339272163"><ele>129.0</ele><time>2026-04-11T07:11:24.999Z</time></trkpt><trkpt lat="45.49759870346793" lon="9.187158614651494"><ele>129.0</ele><time>2026-04-11T07:11:25.999Z</time></trkpt><trkpt lat="45.49760943825584" lon="9.18699311710447"><ele>129.0</ele><time>2026-04-11T07:11:26.999Z</time></trkpt><trkpt lat="45.49760957238871" lon="9.186809215626806"><ele>129.0</ele><time>2026-04-11T07:11:27.999Z</time></trkpt><trkpt lat="45.497595258194316" lon="9.186646296815715"><ele>129.0</ele><time>2026-04-11T07:11:28.999Z</time></trkpt><trkpt lat="45.497577429929656" lon="9.186482939745876"><ele>129.0</ele><time>2026-04-11T07:11:29.999Z</time></trkpt><trkpt lat="45.497558169666206" lon="9.186308883808618"><ele>129.0</ele><time>2026-04-11T07:11:30.999Z</time></trkpt><trkpt lat="45.49754283444486" lon="9.186144785482194"><ele>129.5</ele><time>2026-04-11T07:11:31.999Z</time></trkpt><trkpt lat="45.49753137761315" lon="9.18596662614941"><ele>130.0</ele><time>2026-04-11T07:11:32.999Z</time></trkpt><trkpt lat="45.49756457898509" lon="9.185780570958933"><ele>130.5</ele><time>2026-04-11T07:11:33.999Z</time></trkpt><trkpt lat="45.49754820304528" lon="9.185628199117579"><ele>131.0</ele><time>2026-04-11T07:11:34.999Z</time></trkpt><trkpt lat="45.49753811328891" lon="9.185464731415337"><ele>131.0</ele><time>2026-04-11T07:11:35.999Z</time></trkpt><trkpt lat="45.49752181870385" lon="9.185311893787658"><ele>131.0</ele><time>2026-04-11T07:11:36.999Z</time></trkpt><trkpt lat="45.49750995650835" lon="9.185174357197557"><ele>131.0</ele><time>2026-04-11T07:11:37.999Z</time></trkpt><trkpt lat="45.49749201458919" lon="9.185052553940855"><ele>131.0</ele><time>2026-04-11T07:11:38.999Z</time></trkpt><trkpt lat="45.49746820743131" lon="9.184932459707465"><ele>131.0</ele><time>2026-04-11T07:11:39.999Z</time></trkpt><trkpt lat="45.49746330651546" lon="9.18482346447083"><ele>131.16666666666666</ele><time>2026-04-11T07:11:40.999Z</time></trkpt><trkpt lat="45.49745809977856" lon="9.184709979274912"><ele>131.33333333333331</ele><time>2026-04-11T07:11:41.999Z</time></trkpt><trkpt lat="45.497453010365966" lon="9.184599051344673"><ele>131.5</ele><time>2026-04-11T07:11:42.999Z</time></trkpt><trkpt lat="45.49744435850941" lon="9.184429721738047"><ele>131.66666666666666</ele><time>2026-04-11T07:11:44.999Z</time></trkpt><trkpt lat="45.49743856026201" lon="9.184324941903332"><ele>131.83333333333334</ele><time>2026-04-11T07:11:45.999Z</time></trkpt><trkpt lat="45.497432272714626" lon="9.184211319468668"><ele>132.0</ele><time>2026-04-11T07:11:46.999Z</time></trkpt><trkpt lat="45.49742502228483" lon="9.184084171337641"><ele>132.0</ele><time>2026-04-11T07:11:47.999Z</time></trkpt><trkpt lat="45.497419068397114" lon="9.183968668511186"><ele>132.0</ele><time>2026-04-11T07:11:48.999Z</time></trkpt><trkpt lat="45.49741120300593" lon="9.18383401293341"><ele>132.0</ele><time>2026-04-11T07:11:49.999Z</time></trkpt><trkpt lat="45.49739941148949" lon="9.183639208146102"><ele>132.0</ele><time>2026-04-11T07:11:50.999Z</time></trkpt><trkpt lat="45.49738778103477" lon="9.183448105964553"><ele>132.0</ele><time>2026-04-11T07:11:51.999Z</time></trkpt><trkpt lat="45.49737542324527" lon="9.183250717553863"><ele>131.4</ele><time>2026-04-11T07:11:52.999Z</time></trkpt><trkpt lat="45.49736397483391" lon="9.183071872095768"><ele>130.79999999999998</ele><time>2026-04-11T07:11:53.999Z</time></trkpt><trkpt lat="45.49735207034091" lon="9.18289691369826"><ele>130.2</ele><time>2026-04-11T07:11:54.999Z</time></trkpt><trkpt lat="45.497342174726626" lon="9.182751741743028"><ele>129.6</ele><time>2026-04-11T07:11:55.999Z</time></trkpt><trkpt lat="45.49733404928682" lon="9.182632539003304"><ele>129.0</ele><time>2026-04-11T07:11:56.999Z</time></trkpt><trkpt lat="45.497327028351705" lon="9.182529539507918"><ele>129.0</ele><time>2026-04-11T07:11:57.999Z</time></trkpt><trkpt lat="45.49732067849485" lon="9.182436385165698"><ele>129.0</ele><time>2026-04-11T07:11:58.999Z</time></trkpt><trkpt lat="45.49731084113178" lon="9.182290235510543"><ele>129.0</ele><time>2026-04-11T07:12:00.999Z</time></trkpt><trkpt lat="45.49730402378668" lon="9.182186028977592"><ele>129.0</ele><time>2026-04-11T07:12:02.999Z</time></trkpt><trkpt lat="45.497298020435615" lon="9.182094264822245"><ele>129.0</ele><time>2026-04-11T07:12:05.999Z</time></trkpt><trkpt lat="45.49715109700411" lon="9.181955531273367"><ele>129.6</ele><time>2026-04-11T07:12:18.999Z</time></trkpt><trkpt lat="45.49713477367532" lon="9.18186815040303"><ele>130.2</ele><time>2026-04-11T07:12:19.999Z</time></trkpt><trkpt lat="45.497091405043115" lon="9.18174691990165"><ele>130.79999999999998</ele><time>2026-04-11T07:12:21Z</time></trkpt><trkpt lat="45.49704958222603" lon="9.181608579320832"><ele>131.4</ele><time>2026-04-11T07:12:22Z</time></trkpt><trkpt lat="45.49703990805104" lon="9.181405782211234"><ele>132.0</ele><time>2026-04-11T07:12:23Z</time></trkpt><trkpt lat="45.49705838714699" lon="9.181161432302348"><ele>132.0</ele><time>2026-04-11T07:12:24Z</time></trkpt><trkpt lat="45.49703288026749" lon="9.18091409521406"><ele>132.0</ele><time>2026-04-11T07:12:25Z</time></trkpt><trkpt lat="45.49701797602616" lon="9.180654283890815"><ele>132.0</ele><time>2026-04-11T07:12:26Z</time></trkpt><trkpt lat="45.497036445948005" lon="9.180380653829523"><ele>132.0</ele><time>2026-04-11T07:12:27Z</time></trkpt><trkpt lat="45.497016637765874" lon="9.180130544816961"><ele>132.0</ele><time>2026-04-11T07:12:28Z</time></trkpt><trkpt lat="45.49703778785092" lon="9.179899176553006"><ele>132.0</ele><time>2026-04-11T07:12:29Z</time></trkpt><trkpt lat="45.49698073527192" lon="9.179655439714747"><ele>132.66666666666666</ele><time>2026-04-11T07:12:30Z</time></trkpt><trkpt lat="45.4969989245113" lon="9.179418934755413"><ele>133.33333333333331</ele><time>2026-04-11T07:12:31Z</time></trkpt><trkpt lat="45.496997632591366" lon="9.179160284623917"><ele>134.0</ele><time>2026-04-11T07:12:32Z</time></trkpt><trkpt lat="45.49699569675462" lon="9.178900915174141"><ele>134.0</ele><time>2026-04-11T07:12:33Z</time></trkpt><trkpt lat="45.49699515959962" lon="9.178680778869994"><ele>134.0</ele><time>2026-04-11T07:12:34Z</time></trkpt><trkpt lat="45.496978946161846" lon="9.178418435752784"><ele>134.0</ele><time>2026-04-11T07:12:35Z</time></trkpt><trkpt lat="45.49696936855112" lon="9.178181606358354"><ele>132.66666666666666</ele><time>2026-04-11T07:12:36Z</time></trkpt><trkpt lat="45.49693803321717" lon="9.177891474484747"><ele>131.33333333333334</ele><time>2026-04-11T07:12:37Z</time></trkpt><trkpt lat="45.49694527807804" lon="9.177664536738591"><ele>130.0</ele><time>2026-04-11T07:12:38Z</time></trkpt><trkpt lat="45.49693169367323" lon="9.177426014055973"><ele>129.66666666666669</ele><time>2026-04-11T07:12:39Z</time></trkpt><trkpt lat="45.4969314678371" lon="9.177193562518157"><ele>129.33333333333334</ele><time>2026-04-11T07:12:40Z</time></trkpt><trkpt lat="45.496979175440245" lon="9.176950605486933"><ele>129.0</ele><time>2026-04-11T07:12:41Z</time></trkpt><trkpt lat="45.496964255495705" lon="9.176709937080751"><ele>129.66666666666666</ele><time>2026-04-11T07:12:42Z</time></trkpt><trkpt lat="45.49698882152996" lon="9.176461226667136"><ele>130.33333333333331</ele><time>2026-04-11T07:12:43Z</time></trkpt><trkpt lat="45.49694808561222" lon="9.176228216941176"><ele>131.0</ele><time>2026-04-11T07:12:44Z</time></trkpt><trkpt lat="45.496914780636246" lon="9.176019933718187"><ele>131.0</ele><time>2026-04-11T07:12:45Z</time></trkpt><trkpt lat="45.496906597850085" lon="9.175790513178953"><ele>131.0</ele><time>2026-04-11T07:12:46Z</time></trkpt><trkpt lat="45.496894573480624" lon="9.175604494428304"><ele>131.0</ele><time>2026-04-11T07:12:47Z</time></trkpt><trkpt lat="45.49688235192093" lon="9.175415425326731"><ele>131.0</ele><time>2026-04-11T07:12:48Z</time></trkpt><trkpt lat="45.49692016098637" lon="9.175283010969315"><ele>131.4</ele><time>2026-04-11T07:12:49Z</time></trkpt><trkpt lat="45.496914408496515" lon="9.175170107080572"><ele>131.8</ele><time>2026-04-11T07:12:50Z</time></trkpt><trkpt lat="45.49690818834538" lon="9.17507130110283"><ele>132.20000000000002</ele><time>2026-04-11T07:12:51Z</time></trkpt><trkpt lat="45.496901481619815" lon="9.17497878765564"><ele>132.6</ele><time>2026-04-11T07:12:53Z</time></trkpt><trkpt lat="45.49686895084587" lon="9.174766360700408"><ele>133.0</ele><time>2026-04-11T07:13:18Z</time></trkpt><trkpt lat="45.49682452634575" lon="9.174623675384899"><ele>134.0</ele><time>2026-04-11T07:13:19Z</time></trkpt><trkpt lat="45.49676141933128" lon="9.174432083400417"><ele>135.0</ele><time>2026-04-11T07:13:20Z</time></trkpt><trkpt lat="45.496716622614" lon="9.17426863260384"><ele>136.0</ele><time>2026-04-11T07:13:21Z</time></trkpt><trkpt lat="45.496684843531504" lon="9.174107680829092"><ele>137.0</ele><time>2026-04-11T07:13:22Z</time></trkpt><trkpt lat="45.49665101996908" lon="9.173912961360159"><ele>137.0</ele><time>2026-04-11T07:13:23Z</time></trkpt><trkpt lat="45.49662219122437" lon="9.173672950440109"><ele>137.0</ele><time>2026-04-11T07:13:24Z</time></trkpt><trkpt lat="45.496587754193726" lon="9.17344066542284"><ele>137.0</ele><time>2026-04-11T07:13:25Z</time></trkpt><trkpt lat="45.49653489335151" lon="9.17319818071106"><ele>136.5</ele><time>2026-04-11T07:13:26Z</time></trkpt><trkpt lat="45.49654001155036" lon="9.172971503058163"><ele>136.0</ele><time>2026-04-11T07:13:27Z</time></trkpt><trkpt lat="45.49650855041673" lon="9.172770286119423"><ele>135.5</ele><time>2026-04-11T07:13:28Z</time></trkpt><trkpt lat="45.4964826500689" lon="9.172578133309713"><ele>135.0</ele><time>2026-04-11T07:13:29Z</time></trkpt><trkpt lat="45.49665624927083" lon="9.17240572899229"><ele>135.5</ele><time>2026-04-11T07:13:30Z</time></trkpt><trkpt lat="45.49649664811478" lon="9.17228886349192"><ele>136.0</ele><time>2026-04-11T07:13:31Z</time></trkpt><trkpt lat="45.496498985035245" lon="9.172138022843079"><ele>136.5</ele><time>2026-04-11T07:13:32Z</time></trkpt><trkpt lat="45.49652209119725" lon="9.17200498746436"><ele>137.0</ele><time>2026-04-11T07:13:33Z</time></trkpt><trkpt lat="45.49648815803442" lon="9.171856556547581"><ele>137.00000000000003</ele><time>2026-04-11T07:13:34Z</time></trkpt><trkpt lat="45.49649981815347" lon="9.171742689908482"><ele>137.0</ele><time>2026-04-11T07:13:35Z</time></trkpt><trkpt lat="45.496508970935444" lon="9.171641958304097"><ele>137.0</ele><time>2026-04-11T07:13:36Z</time></trkpt><trkpt lat="45.49649134025992" lon="9.171549799418894"><ele>137.0</ele><time>2026-04-11T07:13:37Z</time></trkpt><trkpt lat="45.496527009481404" lon="9.171458346503192"><ele>137.0</ele><time>2026-04-11T07:13:39Z</time></trkpt><trkpt lat="45.49660102763901" lon="9.17145755645808"><ele>137.00000000000003</ele><time>2026-04-11T07:13:42Z</time></trkpt><trkpt lat="45.496590422946575" lon="9.171360222909644"><ele>137.0</ele><time>2026-04-11T07:13:44Z</time></trkpt><trkpt lat="45.496600685462596" lon="9.171213073770248"><ele>136.79999999999998</ele><time>2026-04-11T07:13:46Z</time></trkpt><trkpt lat="45.49655393542348" lon="9.171079824856246"><ele>136.6</ele><time>2026-04-11T07:13:47Z</time></trkpt><trkpt lat="45.49652534889239" lon="9.170957615078617"><ele>136.39999999999998</ele><time>2026-04-11T07:13:48Z</time></trkpt><trkpt lat="45.49650635594688" lon="9.170798800562803"><ele>136.2</ele><time>2026-04-11T07:13:49Z</time></trkpt><trkpt lat="45.49650743221952" lon="9.170642861179925"><ele>136.0</ele><time>2026-04-11T07:13:50Z</time></trkpt><trkpt lat="45.496535962904794" lon="9.170461362963415"><ele>135.0</ele><time>2026-04-11T07:13:51Z</time></trkpt><trkpt lat="45.49662454375712" lon="9.17028128194433"><ele>134.0</ele><time>2026-04-11T07:13:52Z</time></trkpt><trkpt lat="45.49674063470979" lon="9.170119145602259"><ele>133.0</ele><time>2026-04-11T07:13:53Z</time></trkpt><trkpt lat="45.49684869609731" lon="9.16996666016589"><ele>132.75</ele><time>2026-04-11T07:13:54Z</time></trkpt><trkpt lat="45.49694627142218" lon="9.169824097090538"><ele>132.5</ele><time>2026-04-11T07:13:55Z</time></trkpt><trkpt lat="45.49702030550198" lon="9.169668022418634"><ele>132.25</ele><time>2026-04-11T07:13:56Z</time></trkpt><trkpt lat="45.49712498190731" lon="9.16950391407197"><ele>132.0</ele><time>2026-04-11T07:13:57Z</time></trkpt><trkpt lat="45.497175675321984" lon="9.16935868975608"><ele>132.5</ele><time>2026-04-11T07:13:58Z</time></trkpt><trkpt lat="45.49726772823203" lon="9.16923853519908"><ele>133.0</ele><time>2026-04-11T07:13:59Z</time></trkpt><trkpt lat="45.497373857327126" lon="9.169137533548456"><ele>133.5</ele><time>2026-04-11T07:14:00Z</time></trkpt><trkpt lat="45.49743738760569" lon="9.169017647597883"><ele>134.0</ele><time>2026-04-11T07:14:01Z</time></trkpt><trkpt lat="45.49751429010919" lon="9.168923711000726"><ele>134.33333333333331</ele><time>2026-04-11T07:14:02Z</time></trkpt><trkpt lat="45.49756812898761" lon="9.168817019159592"><ele>134.66666666666666</ele><time>2026-04-11T07:14:03Z</time></trkpt><trkpt lat="45.497591411860355" lon="9.16871012861552"><ele>135.0</ele><time>2026-04-11T07:14:04Z</time></trkpt><trkpt lat="45.49762148310427" lon="9.168610393803196"><ele>135.33333333333334</ele><time>2026-04-11T07:14:05Z</time></trkpt><trkpt lat="45.49763991564404" lon="9.168491490670931"><ele>135.66666666666669</ele><time>2026-04-11T07:14:06Z</time></trkpt><trkpt lat="45.49767320407491" lon="9.168408530943495"><ele>136.0</ele><time>2026-04-11T07:14:07Z</time></trkpt><trkpt lat="45.49766590441619" lon="9.168260417059313"><ele>135.75</ele><time>2026-04-11T07:14:08Z</time></trkpt><trkpt lat="45.49772270587359" lon="9.168182134442269"><ele>135.5</ele><time>2026-04-11T07:14:09Z</time></trkpt><trkpt lat="45.49777188446824" lon="9.16807716042018"><ele>135.25</ele><time>2026-04-11T07:14:10Z</time></trkpt><trkpt lat="45.49788802859617" lon="9.167916658709073"><ele>135.0</ele><time>2026-04-11T07:14:11Z</time></trkpt><trkpt lat="45.49795970580547" lon="9.167730269377374"><ele>134.75</ele><time>2026-04-11T07:14:12Z</time></trkpt><trkpt lat="45.49801493212766" lon="9.167594115394609"><ele>134.5</ele><time>2026-04-11T07:14:13Z</time></trkpt><trkpt lat="45.49805986770746" lon="9.167421645278473"><ele>134.25</ele><time>2026-04-11T07:14:14Z</time></trkpt><trkpt lat="45.498085841090564" lon="9.167222510315797"><ele>134.0</ele><time>2026-04-11T07:14:15Z</time></trkpt><trkpt lat="45.498094484758056" lon="9.167123306323091"><ele>134.0</ele><time>2026-04-11T07:14:16Z</time></trkpt><trkpt lat="45.49809119336767" lon="9.16701876097076"><ele>134.0</ele><time>2026-04-11T07:14:18Z</time></trkpt><trkpt lat="45.498056255426086" lon="9.167095003531264"><ele>134.0</ele><time>2026-04-11T07:14:23Z</time></trkpt><trkpt lat="45.497989085772154" lon="9.167079267558181"><ele>134.0</ele><time>2026-04-11T07:14:28Z</time></trkpt><trkpt lat="45.498054220431584" lon="9.167068087273506"><ele>134.0</ele><time>2026-04-11T07:14:36Z</time></trkpt><trkpt lat="45.49814638226023" lon="9.167038839977632"><ele>134.0</ele><time>2026-04-11T07:14:39Z</time></trkpt><trkpt lat="45.49819836289488" lon="9.166945042325324"><ele>134.0</ele><time>2026-04-11T07:14:48Z</time></trkpt><trkpt lat="45.498228895714476" lon="9.166859106121176"><ele>134.0</ele><time>2026-04-11T07:14:49Z</time></trkpt><trkpt lat="45.49827212582637" lon="9.16674298306434"><ele>134.0</ele><time>2026-04-11T07:14:50Z</time></trkpt><trkpt lat="45.49833724225344" lon="9.166590470472991"><ele>134.0</ele><time>2026-04-11T07:14:51Z</time></trkpt><trkpt lat="45.498410061765796" lon="9.1663990333608"><ele>134.0</ele><time>2026-04-11T07:14:52Z</time></trkpt><trkpt lat="45.49847489702402" lon="9.16615721478161"><ele>133.66666666666666</ele><time>2026-04-11T07:14:53Z</time></trkpt><trkpt lat="45.49852946604284" lon="9.165901763908813"><ele>133.33333333333334</ele><time>2026-04-11T07:14:54Z</time></trkpt><trkpt lat="45.49854123000163" lon="9.165613211515595"><ele>133.0</ele><time>2026-04-11T07:14:55Z</time></trkpt><trkpt lat="45.49852253761996" lon="9.165326081022558"><ele>133.0</ele><time>2026-04-11T07:14:56Z</time></trkpt><trkpt lat="45.49847748731913" lon="9.165046923200556"><ele>133.0</ele><time>2026-04-11T07:14:57Z</time></trkpt><trkpt lat="45.49841233202027" lon="9.164748635434377"><ele>133.0</ele><time>2026-04-11T07:14:58Z</time></trkpt><trkpt lat="45.49830714018495" lon="9.164467908451256"><ele>133.0</ele><time>2026-04-11T07:14:59Z</time></trkpt><trkpt lat="45.49819012091914" lon="9.164201146011854"><ele>133.0</ele><time>2026-04-11T07:15:00Z</time></trkpt><trkpt lat="45.49805650301724" lon="9.163941005782837"><ele>133.0</ele><time>2026-04-11T07:15:01Z</time></trkpt><trkpt lat="45.49791308707022" lon="9.163671864669377"><ele>133.5</ele><time>2026-04-11T07:15:02Z</time></trkpt><trkpt lat="45.49775939722093" lon="9.163407005849182"><ele>134.0</ele><time>2026-04-11T07:15:03Z</time></trkpt><trkpt lat="45.49760712922714" lon="9.163160795975571"><ele>133.33333333333331</ele><time>2026-04-11T07:15:04Z</time></trkpt><trkpt lat="45.497468491165534" lon="9.162935690035559"><ele>132.66666666666666</ele><time>2026-04-11T07:15:05Z</time></trkpt><trkpt lat="45.497330021416595" lon="9.1627264826128"><ele>132.0</ele><time>2026-04-11T07:15:06Z</time></trkpt><trkpt lat="45.497219719525624" lon="9.162527426737189"><ele>132.33333333333334</ele><time>2026-04-11T07:15:07Z</time></trkpt><trkpt lat="45.49710135891691" lon="9.162325951214227"><ele>132.66666666666669</ele><time>2026-04-11T07:15:08Z</time></trkpt><trkpt lat="45.49696682038549" lon="9.162145955119211"><ele>133.0</ele><time>2026-04-11T07:15:09Z</time></trkpt><trkpt lat="45.49684371133315" lon="9.161955676379295"><ele>133.0</ele><time>2026-04-11T07:15:10Z</time></trkpt><trkpt lat="45.49672694712005" lon="9.161765980572357"><ele>133.0</ele><time>2026-04-11T07:15:11Z</time></trkpt><trkpt lat="45.496595705905506" lon="9.161582771586765"><ele>133.0</ele><time>2026-04-11T07:15:12Z</time></trkpt><trkpt lat="45.496473527867686" lon="9.161373113787215"><ele>133.33333333333334</ele><time>2026-04-11T07:15:13Z</time></trkpt><trkpt lat="45.49633718936832" lon="9.161167138884563"><ele>133.66666666666666</ele><time>2026-04-11T07:15:14Z</time></trkpt><trkpt lat="45.49622747682757" lon="9.16091544844741"><ele>134.0</ele><time>2026-04-11T07:15:15Z</time></trkpt><trkpt lat="45.49608878853816" lon="9.160669484136456"><ele>134.0</ele><time>2026-04-11T07:15:16Z</time></trkpt><trkpt lat="45.49593666127842" lon="9.160431161231317"><ele>134.0</ele><time>2026-04-11T07:15:17Z</time></trkpt><trkpt lat="45.495780415465696" lon="9.160213165688427"><ele>134.0</ele><time>2026-04-11T07:15:18Z</time></trkpt><trkpt lat="45.49563274026448" lon="9.160001285986597"><ele>133.33333333333331</ele><time>2026-04-11T07:15:19Z</time></trkpt><trkpt lat="45.49552844078601" lon="9.159765149278915"><ele>132.66666666666666</ele><time>2026-04-11T07:15:20Z</time></trkpt><trkpt lat="45.49539047553214" lon="9.159573564314536"><ele>132.0</ele><time>2026-04-11T07:15:21Z</time></trkpt><trkpt lat="45.495295484243414" lon="9.159344696448805"><ele>132.0</ele><time>2026-04-11T07:15:22Z</time></trkpt><trkpt lat="45.49510565165177" lon="9.15923379155623"><ele>132.0</ele><time>2026-04-11T07:15:23Z</time></trkpt><trkpt lat="45.494992126856324" lon="9.159059531318796"><ele>132.0</ele><time>2026-04-11T07:15:24Z</time></trkpt><trkpt lat="45.49487590309596" lon="9.15888109861115"><ele>131.66666666666666</ele><time>2026-04-11T07:15:25Z</time></trkpt><trkpt lat="45.494758546737486" lon="9.158706552622952"><ele>131.33333333333331</ele><time>2026-04-11T07:15:26Z</time></trkpt><trkpt lat="45.49465014069954" lon="9.158553900552581"><ele>131.0</ele><time>2026-04-11T07:15:27Z</time></trkpt><trkpt lat="45.49457397161238" lon="9.158391435585003"><ele>131.4</ele><time>2026-04-11T07:15:28Z</time></trkpt><trkpt lat="45.49448157086101" lon="9.15825242090859"><ele>131.8</ele><time>2026-04-11T07:15:29Z</time></trkpt><trkpt lat="45.494413618097596" lon="9.158122142596572"><ele>132.20000000000002</ele><time>2026-04-11T07:15:30Z</time></trkpt><trkpt lat="45.494355707339096" lon="9.158011335942843"><ele>132.6</ele><time>2026-04-11T07:15:31Z</time></trkpt><trkpt lat="45.494312051584565" lon="9.157908096248546"><ele>133.0</ele><time>2026-04-11T07:15:32Z</time></trkpt><trkpt lat="45.49423589526893" lon="9.157860584720654"><ele>133.0</ele><time>2026-04-11T07:15:33Z</time></trkpt><trkpt lat="45.49414454374802" lon="9.157792433408598"><ele>133.0</ele><time>2026-04-11T07:15:35Z</time></trkpt><trkpt lat="45.494081094142835" lon="9.15777954426907"><ele>133.0</ele><time>2026-04-11T07:15:37Z</time></trkpt><trkpt lat="45.49417161733999" lon="9.15773288021822"><ele>133.0</ele><time>2026-04-11T07:15:49Z</time></trkpt><trkpt lat="45.494173600185356" lon="9.157833489563457"><ele>133.0</ele><time>2026-04-11T07:15:56Z</time></trkpt><trkpt lat="45.494104129252804" lon="9.157889888687434"><ele>133.0</ele><time>2026-04-11T07:16:19Z</time></trkpt><trkpt lat="45.494025976344524" lon="9.157765124283753"><ele>133.0</ele><time>2026-04-11T07:16:34Z</time></trkpt><trkpt lat="45.49395158370899" lon="9.15768462940083"><ele>133.0</ele><time>2026-04-11T07:16:35Z</time></trkpt><trkpt lat="45.49385889961733" lon="9.157551969575737"><ele>133.0</ele><time>2026-04-11T07:16:36Z</time></trkpt><trkpt lat="45.49382893849121" lon="9.157334041239674"><ele>133.0</ele><time>2026-04-11T07:16:37Z</time></trkpt><trkpt lat="45.493734893770096" lon="9.157192322347042"><ele>133.5</ele><time>2026-04-11T07:16:38Z</time></trkpt><trkpt lat="45.49363771074431" lon="9.157041718660883"><ele>134.0</ele><time>2026-04-11T07:16:39Z</time></trkpt><trkpt lat="45.49353048029957" lon="9.156873891485764"><ele>134.5</ele><time>2026-04-11T07:16:40Z</time></trkpt><trkpt lat="45.493439292826125" lon="9.156731455611668"><ele>135.0</ele><time>2026-04-11T07:16:41Z</time></trkpt><trkpt lat="45.49333680020634" lon="9.156574546759245"><ele>134.75</ele><time>2026-04-11T07:16:42Z</time></trkpt><trkpt lat="45.493241410415365" lon="9.15642851171655"><ele>134.5</ele><time>2026-04-11T07:16:43Z</time></trkpt><trkpt lat="45.49315899948529" lon="9.156302346537796"><ele>134.25</ele><time>2026-04-11T07:16:44Z</time></trkpt><trkpt lat="45.49307579703562" lon="9.156174969375849"><ele>134.0</ele><time>2026-04-11T07:16:45Z</time></trkpt><trkpt lat="45.49299502389145" lon="9.156030561153052"><ele>134.0</ele><time>2026-04-11T07:16:46Z</time></trkpt><trkpt lat="45.49291507504093" lon="9.155881602723335"><ele>134.0</ele><time>2026-04-11T07:16:47Z</time></trkpt><trkpt lat="45.49283816860128" lon="9.155721013909274"><ele>134.0</ele><time>2026-04-11T07:16:48Z</time></trkpt><trkpt lat="45.492773195575545" lon="9.155555515439687"><ele>134.0</ele><time>2026-04-11T07:16:49Z</time></trkpt><trkpt lat="45.49269014729743" lon="9.155403254334798"><ele>134.25</ele><time>2026-04-11T07:16:50Z</time></trkpt><trkpt lat="45.492602695976004" lon="9.155269981571724"><ele>134.5</ele><time>2026-04-11T07:16:51Z</time></trkpt><trkpt lat="45.49252623885097" lon="9.155134546328775"><ele>134.75</ele><time>2026-04-11T07:16:52Z</time></trkpt><trkpt lat="45.49244223980555" lon="9.154993651585338"><ele>135.0</ele><time>2026-04-11T07:16:53Z</time></trkpt><trkpt lat="45.49236496112041" lon="9.154842684521483"><ele>135.0</ele><time>2026-04-11T07:16:54Z</time></trkpt><trkpt lat="45.49228482098284" lon="9.15475237659025"><ele>135.0</ele><time>2026-04-11T07:16:55Z</time></trkpt><trkpt lat="45.49220592423915" lon="9.154631823471256"><ele>135.0</ele><time>2026-04-11T07:16:56Z</time></trkpt><trkpt lat="45.492133390828705" lon="9.154520993323164"><ele>135.0</ele><time>2026-04-11T07:16:57Z</time></trkpt><trkpt lat="45.49204926199211" lon="9.154392445749917"><ele>135.0</ele><time>2026-04-11T07:16:58Z</time></trkpt><trkpt lat="45.49196713230867" lon="9.154266952719384"><ele>134.8</ele><time>2026-04-11T07:16:59Z</time></trkpt><trkpt lat="45.491889032722156" lon="9.154147375000186"><ele>134.6</ele><time>2026-04-11T07:17:00Z</time></trkpt><trkpt lat="45.49181382810207" lon="9.154032148438967"><ele>134.4</ele><time>2026-04-11T07:17:01Z</time></trkpt><trkpt lat="45.491749044969" lon="9.153932889437632"><ele>134.2</ele><time>2026-04-11T07:17:02Z</time></trkpt><trkpt lat="45.491680160039024" lon="9.153827345543037"><ele>134.0</ele><time>2026-04-11T07:17:03Z</time></trkpt><trkpt lat="45.49162462585756" lon="9.153742257547606"><ele>134.0</ele><time>2026-04-11T07:17:04Z</time></trkpt><trkpt lat="45.4915688955176" lon="9.153656868989206"><ele>134.0</ele><time>2026-04-11T07:17:05Z</time></trkpt><trkpt lat="45.49152099081324" lon="9.153583470424762"><ele>134.0</ele><time>2026-04-11T07:17:06Z</time></trkpt><trkpt lat="45.491477861028706" lon="9.15351738826605"><ele>134.0</ele><time>2026-04-11T07:17:07Z</time></trkpt><trkpt lat="45.491416050551976" lon="9.153422827727129"><ele>134.0</ele><time>2026-04-11T07:17:08.999Z</time></trkpt><trkpt lat="45.49136200553709" lon="9.15334018177292"><ele>134.0</ele><time>2026-04-11T07:17:10.999Z</time></trkpt><trkpt lat="45.49131242418826" lon="9.153264078262737"><ele>134.8</ele><time>2026-04-11T07:17:16.999Z</time></trkpt><trkpt lat="45.49125223961421" lon="9.153171896521844"><ele>135.60000000000002</ele><time>2026-04-11T07:17:22.999Z</time></trkpt><trkpt lat="45.49117826122203" lon="9.15305952598498"><ele>136.4</ele><time>2026-04-11T07:17:23.999Z</time></trkpt><trkpt lat="45.49109949534113" lon="9.152940528011436"><ele>137.20000000000002</ele><time>2026-04-11T07:17:24.999Z</time></trkpt><trkpt lat="45.49100804655072" lon="9.152802368482284"><ele>138.0</ele><time>2026-04-11T07:17:25.999Z</time></trkpt><trkpt lat="45.49091105428959" lon="9.15265435522757"><ele>138.0</ele><time>2026-04-11T07:17:26.999Z</time></trkpt><trkpt lat="45.490832184179965" lon="9.152500157697737"><ele>138.0</ele><time>2026-04-11T07:17:27.999Z</time></trkpt><trkpt lat="45.49073217942797" lon="9.15236690593027"><ele>138.0</ele><time>2026-04-11T07:17:28.999Z</time></trkpt><trkpt lat="45.49063457795781" lon="9.152242351112864"><ele>138.0</ele><time>2026-04-11T07:17:29.999Z</time></trkpt><trkpt lat="45.4905464322758" lon="9.152123095367463"><ele>137.66666666666666</ele><time>2026-04-11T07:17:30.999Z</time></trkpt><trkpt lat="45.49046246673162" lon="9.152018668262018"><ele>137.33333333333334</ele><time>2026-04-11T07:17:31.999Z</time></trkpt><trkpt lat="45.49039300571629" lon="9.151922316893996"><ele>137.0</ele><time>2026-04-11T07:17:32.999Z</time></trkpt><trkpt lat="45.49032961596538" lon="9.151830742787297"><ele>136.66666666666669</ele><time>2026-04-11T07:17:33.999Z</time></trkpt><trkpt lat="45.490277233266795" lon="9.151747398622089"><ele>136.33333333333334</ele><time>2026-04-11T07:17:34.999Z</time></trkpt><trkpt lat="45.49023551525371" lon="9.151674842287584"><ele>136.0</ele><time>2026-04-11T07:17:35.999Z</time></trkpt><trkpt lat="45.490180727587955" lon="9.151588787660565"><ele>135.0</ele><time>2026-04-11T07:17:37.999Z</time></trkpt><trkpt lat="45.49015674263667" lon="9.151491724918122"><ele>134.0</ele><time>2026-04-11T07:17:39.999Z</time></trkpt><trkpt lat="45.49024262969347" lon="9.151243833147106"><ele>133.0</ele><time>2026-04-11T07:17:42.999Z</time></trkpt><trkpt lat="45.49030001423419" lon="9.151094603391247"><ele>132.0</ele><time>2026-04-11T07:17:44.999Z</time></trkpt><trkpt lat="45.490355965355164" lon="9.151003941060896"><ele>132.0</ele><time>2026-04-11T07:17:45.999Z</time></trkpt><trkpt lat="45.49039088200002" lon="9.150919491035287"><ele>132.0</ele><time>2026-04-11T07:17:46.999Z</time></trkpt><trkpt lat="45.49043056739902" lon="9.150820223570792"><ele>132.0</ele><time>2026-04-11T07:17:47.999Z</time></trkpt><trkpt lat="45.49046675530507" lon="9.150715447229844"><ele>132.0</ele><time>2026-04-11T07:17:48.999Z</time></trkpt><trkpt lat="45.49052281612186" lon="9.150605178249753"><ele>132.0</ele><time>2026-04-11T07:17:49.999Z</time></trkpt><trkpt lat="45.49058017832844" lon="9.150473855261424"><ele>132.0</ele><time>2026-04-11T07:17:50.999Z</time></trkpt><trkpt lat="45.49064321784359" lon="9.150337829377472"><ele>132.75</ele><time>2026-04-11T07:17:51.999Z</time></trkpt><trkpt lat="45.4906979430331" lon="9.15017242318446"><ele>133.5</ele><time>2026-04-11T07:17:52.999Z</time></trkpt><trkpt lat="45.490757817292405" lon="9.150016983537125"><ele>134.25</ele><time>2026-04-11T07:17:53.999Z</time></trkpt><trkpt lat="45.49080683188803" lon="9.149874232695772"><ele>135.0</ele><time>2026-04-11T07:17:54.999Z</time></trkpt><trkpt lat="45.4908625539564" lon="9.149728960709004"><ele>135.5</ele><time>2026-04-11T07:17:55.999Z</time></trkpt><trkpt lat="45.4909320708713" lon="9.149580088832913"><ele>136.0</ele><time>2026-04-11T07:17:56.999Z</time></trkpt><trkpt lat="45.49099491829776" lon="9.149440027249147"><ele>136.5</ele><time>2026-04-11T07:17:57.999Z</time></trkpt><trkpt lat="45.49105455473736" lon="9.149304969221117"><ele>137.0</ele><time>2026-04-11T07:17:58.999Z</time></trkpt><trkpt lat="45.491118685477424" lon="9.149150505478273"><ele>137.2</ele><time>2026-04-11T07:17:59.999Z</time></trkpt><trkpt lat="45.491178480491975" lon="9.149020648753261"><ele>137.39999999999998</ele><time>2026-04-11T07:18:00.999Z</time></trkpt><trkpt lat="45.49125825627795" lon="9.148917729073391"><ele>137.60000000000002</ele><time>2026-04-11T07:18:01.999Z</time></trkpt><trkpt lat="45.49132229917597" lon="9.148798752553436"><ele>137.8</ele><time>2026-04-11T07:18:02.999Z</time></trkpt><trkpt lat="45.491378626769134" lon="9.148683583365811"><ele>138.0</ele><time>2026-04-11T07:18:03.999Z</time></trkpt><trkpt lat="45.49143503957212" lon="9.14859662282665"><ele>138.0</ele><time>2026-04-11T07:18:04.999Z</time></trkpt><trkpt lat="45.49147842476031" lon="9.14852298222275"><ele>138.0</ele><time>2026-04-11T07:18:05.999Z</time></trkpt><trkpt lat="45.49156137211094" lon="9.148427633719626"><ele>138.0</ele><time>2026-04-11T07:18:07.999Z</time></trkpt><trkpt lat="45.491594658785694" lon="9.148332438577809"><ele>138.0</ele><time>2026-04-11T07:18:11.999Z</time></trkpt><trkpt lat="45.49163663151243" lon="9.148138676347333"><ele>138.0</ele><time>2026-04-11T07:18:26.999Z</time></trkpt><trkpt lat="45.49169393365254" lon="9.148031246071984"><ele>137.25</ele><time>2026-04-11T07:18:27.999Z</time></trkpt><trkpt lat="45.49176092703974" lon="9.147891650321435"><ele>136.5</ele><time>2026-04-11T07:18:28.999Z</time></trkpt><trkpt lat="45.49183743671098" lon="9.147750878478575"><ele>135.75</ele><time>2026-04-11T07:18:29.999Z</time></trkpt><trkpt lat="45.49192106228652" lon="9.147590396827173"><ele>135.0</ele><time>2026-04-11T07:18:30.999Z</time></trkpt><trkpt lat="45.49200101210663" lon="9.147422421330035"><ele>134.0</ele><time>2026-04-11T07:18:31.999Z</time></trkpt><trkpt lat="45.49208417207734" lon="9.147255932380293"><ele>133.0</ele><time>2026-04-11T07:18:32.999Z</time></trkpt><trkpt lat="45.49216586266797" lon="9.147087484997344"><ele>132.0</ele><time>2026-04-11T07:18:33.999Z</time></trkpt><trkpt lat="45.49224116398219" lon="9.146929256900629"><ele>131.0</ele><time>2026-04-11T07:18:34.999Z</time></trkpt><trkpt lat="45.49231391774783" lon="9.14677448928659"><ele>131.0</ele><time>2026-04-11T07:18:35.999Z</time></trkpt><trkpt lat="45.49238061953897" lon="9.146614708686997"><ele>131.0</ele><time>2026-04-11T07:18:36.999Z</time></trkpt><trkpt lat="45.49245109389644" lon="9.1464823603311"><ele>131.0</ele><time>2026-04-11T07:18:37.999Z</time></trkpt><trkpt lat="45.492509153444566" lon="9.146359970608925"><ele>131.0</ele><time>2026-04-11T07:18:38.999Z</time></trkpt><trkpt lat="45.49255979717365" lon="9.146254302024516"><ele>131.0</ele><time>2026-04-11T07:18:39.999Z</time></trkpt><trkpt lat="45.492608358050745" lon="9.146145912150393"><ele>131.2</ele><time>2026-04-11T07:18:40.999Z</time></trkpt><trkpt lat="45.49265257638961" lon="9.146048811488756"><ele>131.39999999999998</ele><time>2026-04-11T07:18:41.999Z</time></trkpt><trkpt lat="45.492701148434115" lon="9.145947863974706"><ele>131.6</ele><time>2026-04-11T07:18:42.999Z</time></trkpt><trkpt lat="45.492739678546734" lon="9.145834979642645"><ele>131.79999999999998</ele><time>2026-04-11T07:18:43.999Z</time></trkpt><trkpt lat="45.49278569611919" lon="9.145710453191283"><ele>132.0</ele><time>2026-04-11T07:18:44.999Z</time></trkpt><trkpt lat="45.492843351609956" lon="9.145576685850546"><ele>132.0</ele><time>2026-04-11T07:18:45.999Z</time></trkpt><trkpt lat="45.49290144425323" lon="9.145437721620054"><ele>132.0</ele><time>2026-04-11T07:18:46.999Z</time></trkpt><trkpt lat="45.492962677632796" lon="9.145292370841663"><ele>132.0</ele><time>2026-04-11T07:18:47.999Z</time></trkpt><trkpt lat="45.49302666500303" lon="9.145140712130013"><ele>132.0</ele><time>2026-04-11T07:18:48.999Z</time></trkpt><trkpt lat="45.4930869950348" lon="9.14499539854906"><ele>132.25</ele><time>2026-04-11T07:18:49.999Z</time></trkpt><trkpt lat="45.49314796844964" lon="9.144848870279949"><ele>132.5</ele><time>2026-04-11T07:18:50.999Z</time></trkpt><trkpt lat="45.49320934359258" lon="9.144704343482843"><ele>132.75</ele><time>2026-04-11T07:18:51.999Z</time></trkpt><trkpt lat="45.49327733515839" lon="9.144560821060745"><ele>133.0</ele><time>2026-04-11T07:18:52.999Z</time></trkpt><trkpt lat="45.493345204668714" lon="9.144425978600422"><ele>133.0</ele><time>2026-04-11T07:18:53.999Z</time></trkpt><trkpt lat="45.493408912180435" lon="9.144291561448451"><ele>133.0</ele><time>2026-04-11T07:18:54.999Z</time></trkpt><trkpt lat="45.49347668050977" lon="9.144156852691996"><ele>133.0</ele><time>2026-04-11T07:18:55.999Z</time></trkpt><trkpt lat="45.49353401561134" lon="9.144032139056826"><ele>133.0</ele><time>2026-04-11T07:18:56.999Z</time></trkpt><trkpt lat="45.49360233661007" lon="9.143883871114948"><ele>132.8</ele><time>2026-04-11T07:18:57.999Z</time></trkpt><trkpt lat="45.49366762857456" lon="9.14375320174597"><ele>132.60000000000002</ele><time>2026-04-11T07:18:58.999Z</time></trkpt><trkpt lat="45.49373029042709" lon="9.143635923325576"><ele>132.39999999999998</ele><time>2026-04-11T07:18:59.999Z</time></trkpt><trkpt lat="45.49379606652989" lon="9.143520872703396"><ele>132.2</ele><time>2026-04-11T07:19:00.999Z</time></trkpt><trkpt lat="45.493859589259934" lon="9.143397359297007"><ele>132.0</ele><time>2026-04-11T07:19:01.999Z</time></trkpt><trkpt lat="45.493923309542645" lon="9.14326826476013"><ele>132.5</ele><time>2026-04-11T07:19:02.999Z</time></trkpt><trkpt lat="45.4939874242405" lon="9.143134025768886"><ele>133.0</ele><time>2026-04-11T07:19:03.999Z</time></trkpt><trkpt lat="45.49405588718354" lon="9.142988188286877"><ele>133.5</ele><time>2026-04-11T07:19:04.999Z</time></trkpt><trkpt lat="45.49412440900353" lon="9.142840528493679"><ele>134.0</ele><time>2026-04-11T07:19:05.999Z</time></trkpt><trkpt lat="45.494200472785096" lon="9.142699511237657"><ele>134.0</ele><time>2026-04-11T07:19:06.999Z</time></trkpt><trkpt lat="45.49427232042764" lon="9.142554079479712"><ele>134.0</ele><time>2026-04-11T07:19:07.999Z</time></trkpt><trkpt lat="45.494335516049716" lon="9.142412989920208"><ele>134.0</ele><time>2026-04-11T07:19:08.999Z</time></trkpt><trkpt lat="45.49440660611321" lon="9.142280475418017"><ele>134.0</ele><time>2026-04-11T07:19:09.999Z</time></trkpt><trkpt lat="45.494480813537415" lon="9.142150812404362"><ele>134.0</ele><time>2026-04-11T07:19:10.999Z</time></trkpt><trkpt lat="45.49454534069518" lon="9.142020943350659"><ele>134.0</ele><time>2026-04-11T07:19:11.999Z</time></trkpt><trkpt lat="45.494602032766004" lon="9.141894736444382"><ele>134.0</ele><time>2026-04-11T07:19:12.999Z</time></trkpt><trkpt lat="45.494657270053956" lon="9.141765150544408"><ele>134.0</ele><time>2026-04-11T07:19:13.999Z</time></trkpt><trkpt lat="45.494715819241776" lon="9.14162844845401"><ele>134.0</ele><time>2026-04-11T07:19:14.999Z</time></trkpt><trkpt lat="45.49478437059245" lon="9.141491946144143"><ele>134.0</ele><time>2026-04-11T07:19:15.999Z</time></trkpt><trkpt lat="45.49485653041596" lon="9.141357839760602"><ele>134.0</ele><time>2026-04-11T07:19:16.999Z</time></trkpt><trkpt lat="45.49492403646893" lon="9.141214519600458"><ele>134.0</ele><time>2026-04-11T07:19:17.999Z</time></trkpt><trkpt lat="45.49498127529656" lon="9.141070929676088"><ele>134.0</ele><time>2026-04-11T07:19:18.999Z</time></trkpt><trkpt lat="45.49504452110167" lon="9.140932534710103"><ele>134.0</ele><time>2026-04-11T07:19:19.999Z</time></trkpt><trkpt lat="45.495106753964414" lon="9.140792316192412"><ele>134.0</ele><time>2026-04-11T07:19:20.999Z</time></trkpt><trkpt lat="45.49517193156085" lon="9.140663132377464"><ele>134.0</ele><time>2026-04-11T07:19:22.001Z</time></trkpt><trkpt lat="45.49523503882828" lon="9.140533465166975"><ele>134.0</ele><time>2026-04-11T07:19:23.001Z</time></trkpt><trkpt lat="45.49529249285444" lon="9.140391872554773"><ele>134.0</ele><time>2026-04-11T07:19:24.001Z</time></trkpt><trkpt lat="45.495348873914814" lon="9.140255485816976"><ele>134.0</ele><time>2026-04-11T07:19:25.001Z</time></trkpt><trkpt lat="45.49541147869633" lon="9.140120125994892"><ele>134.0</ele><time>2026-04-11T07:19:26.001Z</time></trkpt><trkpt lat="45.49547671078107" lon="9.139982625620918"><ele>134.0</ele><time>2026-04-11T07:19:27.001Z</time></trkpt><trkpt lat="45.49554673012365" lon="9.139846681860282"><ele>134.0</ele><time>2026-04-11T07:19:28Z</time></trkpt><trkpt lat="45.49561450568176" lon="9.139712640352869"><ele>134.0</ele><time>2026-04-11T07:19:29Z</time></trkpt><trkpt lat="45.495676777684615" lon="9.139558255934121"><ele>134.0</ele><time>2026-04-11T07:19:30Z</time></trkpt><trkpt lat="45.49574150631761" lon="9.139415143066525"><ele>134.0</ele><time>2026-04-11T07:19:31Z</time></trkpt><trkpt lat="45.49580533269621" lon="9.139266303937392"><ele>134.0</ele><time>2026-04-11T07:19:32Z</time></trkpt><trkpt lat="45.49588264651142" lon="9.139128525923494"><ele>134.0</ele><time>2026-04-11T07:19:33Z</time></trkpt><trkpt lat="45.495946657112825" lon="9.138984907722675"><ele>134.0</ele><time>2026-04-11T07:19:34Z</time></trkpt><trkpt lat="45.49601010018842" lon="9.13883767209733"><ele>134.0</ele><time>2026-04-11T07:19:35Z</time></trkpt><trkpt lat="45.49607794944276" lon="9.138686343983338"><ele>134.25</ele><time>2026-04-11T07:19:36Z</time></trkpt><trkpt lat="45.49614662812605" lon="9.138532264461984"><ele>134.5</ele><time>2026-04-11T07:19:37Z</time></trkpt><trkpt lat="45.496211665966676" lon="9.13837263129787"><ele>134.75</ele><time>2026-04-11T07:19:38Z</time></trkpt><trkpt lat="45.49627852654179" lon="9.138211589894482"><ele>135.0</ele><time>2026-04-11T07:19:39Z</time></trkpt><trkpt lat="45.49634793745823" lon="9.138051568386736"><ele>134.5</ele><time>2026-04-11T07:19:40Z</time></trkpt><trkpt lat="45.496408499967814" lon="9.137894991995278"><ele>134.0</ele><time>2026-04-11T07:19:41Z</time></trkpt><trkpt lat="45.4964635204551" lon="9.137757896167559"><ele>133.5</ele><time>2026-04-11T07:19:42Z</time></trkpt><trkpt lat="45.496520877526194" lon="9.137624770395341"><ele>133.0</ele><time>2026-04-11T07:19:43Z</time></trkpt><trkpt lat="45.496584501012535" lon="9.137467024443188"><ele>133.0</ele><time>2026-04-11T07:19:44Z</time></trkpt><trkpt lat="45.496656112141345" lon="9.137303194573327"><ele>133.0</ele><time>2026-04-11T07:19:45Z</time></trkpt><trkpt lat="45.496730122035935" lon="9.137145673172157"><ele>133.0</ele><time>2026-04-11T07:19:46Z</time></trkpt><trkpt lat="45.49680117711133" lon="9.136989124248272"><ele>133.0</ele><time>2026-04-11T07:19:47Z</time></trkpt><trkpt lat="45.496874776893755" lon="9.136827828905933"><ele>133.0</ele><time>2026-04-11T07:19:48Z</time></trkpt><trkpt lat="45.49695327340861" lon="9.13666345618742"><ele>133.0</ele><time>2026-04-11T07:19:49Z</time></trkpt><trkpt lat="45.49703182880911" lon="9.136502851000616"><ele>133.0</ele><time>2026-04-11T07:19:50Z</time></trkpt><trkpt lat="45.49710609775952" lon="9.136332488115444"><ele>133.0</ele><time>2026-04-11T07:19:51Z</time></trkpt><trkpt lat="45.497179512707696" lon="9.136158026049324"><ele>132.75</ele><time>2026-04-11T07:19:52Z</time></trkpt><trkpt lat="45.497252622357536" lon="9.135987009245087"><ele>132.5</ele><time>2026-04-11T07:19:53Z</time></trkpt><trkpt lat="45.49732531218374" lon="9.135816395363934"><ele>132.25</ele><time>2026-04-11T07:19:54Z</time></trkpt><trkpt lat="45.49739629395703" lon="9.135645807946634"><ele>132.0</ele><time>2026-04-11T07:19:55Z</time></trkpt><trkpt lat="45.49746394319098" lon="9.135481250122552"><ele>132.75</ele><time>2026-04-11T07:19:56Z</time></trkpt><trkpt lat="45.49753484292" lon="9.135321777033845"><ele>133.5</ele><time>2026-04-11T07:19:57Z</time></trkpt><trkpt lat="45.497596978900916" lon="9.13516678000672"><ele>134.25</ele><time>2026-04-11T07:19:58Z</time></trkpt><trkpt lat="45.497661198943554" lon="9.135017937044452"><ele>135.0</ele><time>2026-04-11T07:19:59Z</time></trkpt><trkpt lat="45.49772787644714" lon="9.134868462562512"><ele>135.0</ele><time>2026-04-11T07:20:00Z</time></trkpt><trkpt lat="45.497794005364526" lon="9.134723688183978"><ele>135.0</ele><time>2026-04-11T07:20:01Z</time></trkpt><trkpt lat="45.49785425306165" lon="9.13459560928247"><ele>135.0</ele><time>2026-04-11T07:20:02Z</time></trkpt><trkpt lat="45.497906784927665" lon="9.134487822751327"><ele>135.0</ele><time>2026-04-11T07:20:03Z</time></trkpt><trkpt lat="45.497955920123964" lon="9.134393147828034"><ele>135.0</ele><time>2026-04-11T07:20:04Z</time></trkpt><trkpt lat="45.49800123717252" lon="9.134303186621935"><ele>135.0</ele><time>2026-04-11T07:20:05Z</time></trkpt><trkpt lat="45.49804887752212" lon="9.134214522025854"><ele>135.0</ele><time>2026-04-11T07:20:06Z</time></trkpt><trkpt lat="45.498098317795346" lon="9.134134503060386"><ele>135.0</ele><time>2026-04-11T07:20:07Z</time></trkpt><trkpt lat="45.498144536957575" lon="9.134061509388012"><ele>135.0</ele><time>2026-04-11T07:20:08Z</time></trkpt><trkpt lat="45.498205523950766" lon="9.133948807924911"><ele>135.0</ele><time>2026-04-11T07:20:10Z</time></trkpt><trkpt lat="45.498233622503754" lon="9.133854897013759"><ele>135.0</ele><time>2026-04-11T07:20:12Z</time></trkpt><trkpt lat="45.49827641079046" lon="9.133744007600725"><ele>135.0</ele><time>2026-04-11T07:20:28Z</time></trkpt><trkpt lat="45.498314404352996" lon="9.133652763874487"><ele>135.0</ele><time>2026-04-11T07:20:31Z</time></trkpt><trkpt lat="45.49838741136266" lon="9.133523046789922"><ele>135.0</ele><time>2026-04-11T07:20:33Z</time></trkpt><trkpt lat="45.49843751566708" lon="9.133392935101693"><ele>135.0</ele><time>2026-04-11T07:20:34Z</time></trkpt><trkpt lat="45.49850734995111" lon="9.133229875884949"><ele>135.0</ele><time>2026-04-11T07:20:35Z</time></trkpt><trkpt lat="45.49858026523688" lon="9.133062216095558"><ele>135.75</ele><time>2026-04-11T07:20:36Z</time></trkpt><trkpt lat="45.49865489178875" lon="9.132880516806514"><ele>136.5</ele><time>2026-04-11T07:20:37Z</time></trkpt><trkpt lat="45.49873507620869" lon="9.132714845328588"><ele>137.25</ele><time>2026-04-11T07:20:38Z</time></trkpt><trkpt lat="45.49880544098151" lon="9.13255198338427"><ele>138.0</ele><time>2026-04-11T07:20:39Z</time></trkpt><trkpt lat="45.49887426950637" lon="9.132394782905862"><ele>137.25</ele><time>2026-04-11T07:20:40Z</time></trkpt><trkpt lat="45.49895557424428" lon="9.132245968118067"><ele>136.5</ele><time>2026-04-11T07:20:41Z</time></trkpt><trkpt lat="45.499017411552614" lon="9.132111153608351"><ele>135.75</ele><time>2026-04-11T07:20:42Z</time></trkpt><trkpt lat="45.499065011325214" lon="9.131971086279902"><ele>135.0</ele><time>2026-04-11T07:20:43Z</time></trkpt><trkpt lat="45.4991152183423" lon="9.131854029841831"><ele>135.0</ele><time>2026-04-11T07:20:44Z</time></trkpt><trkpt lat="45.49916793250029" lon="9.131758749228993"><ele>135.0</ele><time>2026-04-11T07:20:45Z</time></trkpt><trkpt lat="45.49922073872104" lon="9.131650214390726"><ele>135.0</ele><time>2026-04-11T07:20:46Z</time></trkpt><trkpt lat="45.49926514789796" lon="9.131568855287542"><ele>135.0</ele><time>2026-04-11T07:20:47Z</time></trkpt><trkpt lat="45.499332998943636" lon="9.131446614449972"><ele>135.0</ele><time>2026-04-11T07:20:49Z</time></trkpt><trkpt lat="45.49939873313401" lon="9.1313927505516"><ele>135.0</ele><time>2026-04-11T07:20:51Z</time></trkpt><trkpt lat="45.499463248992896" lon="9.131314602920606"><ele>135.16666666666666</ele><time>2026-04-11T07:20:54Z</time></trkpt><trkpt lat="45.49949826900268" lon="9.131234775408558"><ele>135.33333333333334</ele><time>2026-04-11T07:21:02Z</time></trkpt><trkpt lat="45.4995584532124" lon="9.13112682307933"><ele>135.5</ele><time>2026-04-11T07:21:06Z</time></trkpt><trkpt lat="45.49961600092783" lon="9.131061953592166"><ele>135.66666666666669</ele><time>2026-04-11T07:21:08Z</time></trkpt><trkpt lat="45.49972091341277" lon="9.131043964316286"><ele>135.83333333333334</ele><time>2026-04-11T07:21:10Z</time></trkpt><trkpt lat="45.49978930732684" lon="9.131020397296133"><ele>136.0</ele><time>2026-04-11T07:21:11Z</time></trkpt><trkpt lat="45.49986364289115" lon="9.13101842587081"><ele>136.0</ele><time>2026-04-11T07:21:12Z</time></trkpt><trkpt lat="45.49993611021013" lon="9.13102159267907"><ele>136.0</ele><time>2026-04-11T07:21:13Z</time></trkpt><trkpt lat="45.50002991118958" lon="9.131024206644707"><ele>136.0</ele><time>2026-04-11T07:21:14Z</time></trkpt><trkpt lat="45.50012874634605" lon="9.131001751244439"><ele>136.0</ele><time>2026-04-11T07:21:15Z</time></trkpt><trkpt lat="45.500254798591115" lon="9.130940178996202"><ele>136.0</ele><time>2026-04-11T07:21:16Z</time></trkpt><trkpt lat="45.500371683365415" lon="9.13092201269477"><ele>135.75</ele><time>2026-04-11T07:21:17Z</time></trkpt><trkpt lat="45.50049141704825" lon="9.130896101332587"><ele>135.5</ele><time>2026-04-11T07:21:18Z</time></trkpt><trkpt lat="45.50062346399322" lon="9.130859265524638"><ele>135.25</ele><time>2026-04-11T07:21:19Z</time></trkpt><trkpt lat="45.5007433442248" lon="9.130834423726121"><ele>135.0</ele><time>2026-04-11T07:21:20Z</time></trkpt><trkpt lat="45.50085640424401" lon="9.130812911115997"><ele>135.0</ele><time>2026-04-11T07:21:21Z</time></trkpt><trkpt lat="45.50097983724419" lon="9.13079064519199"><ele>135.0</ele><time>2026-04-11T07:21:22Z</time></trkpt><trkpt lat="45.501121250270025" lon="9.13076432841725"><ele>135.0</ele><time>2026-04-11T07:21:23Z</time></trkpt><trkpt lat="45.50126987246258" lon="9.130738645856358"><ele>135.0</ele><time>2026-04-11T07:21:24Z</time></trkpt><trkpt lat="45.50141482709573" lon="9.13072167221454"><ele>134.66666666666666</ele><time>2026-04-11T07:21:25Z</time></trkpt><trkpt lat="45.50156592362271" lon="9.130707714482108"><ele>134.33333333333331</ele><time>2026-04-11T07:21:26Z</time></trkpt><trkpt lat="45.50171417003494" lon="9.130706943341403"><ele>134.0</ele><time>2026-04-11T07:21:27Z</time></trkpt><trkpt lat="45.50187329432305" lon="9.130711383203447"><ele>134.0</ele><time>2026-04-11T07:21:28Z</time></trkpt><trkpt lat="45.50203119218781" lon="9.130715658581051"><ele>134.0</ele><time>2026-04-11T07:21:29Z</time></trkpt><trkpt lat="45.502172831407805" lon="9.13072837974103"><ele>134.0</ele><time>2026-04-11T07:21:30Z</time></trkpt><trkpt lat="45.502321758956874" lon="9.130733843651742"><ele>134.0</ele><time>2026-04-11T07:21:31Z</time></trkpt><trkpt lat="45.50248863363898" lon="9.130723605159382"><ele>133.66666666666666</ele><time>2026-04-11T07:21:32Z</time></trkpt><trkpt lat="45.50266219000609" lon="9.130730044249022"><ele>133.33333333333334</ele><time>2026-04-11T07:21:33Z</time></trkpt><trkpt lat="45.502813434763176" lon="9.130736357778796"><ele>133.0</ele><time>2026-04-11T07:21:34Z</time></trkpt><trkpt lat="45.50297761299547" lon="9.13073511105321"><ele>132.66666666666669</ele><time>2026-04-11T07:21:35Z</time></trkpt><trkpt lat="45.503146562921195" lon="9.130735265202665"><ele>132.33333333333334</ele><time>2026-04-11T07:21:36Z</time></trkpt><trkpt lat="45.50333226101024" lon="9.130747982109188"><ele>132.0</ele><time>2026-04-11T07:21:37Z</time></trkpt><trkpt lat="45.50350763078228" lon="9.130747131903007"><ele>132.0</ele><time>2026-04-11T07:21:38Z</time></trkpt><trkpt lat="45.50368043868582" lon="9.13075353899421"><ele>132.0</ele><time>2026-04-11T07:21:39Z</time></trkpt><trkpt lat="45.50388789762613" lon="9.130778977772184"><ele>132.0</ele><time>2026-04-11T07:21:40Z</time></trkpt><trkpt lat="45.504054876944366" lon="9.130786434959912"><ele>133.0</ele><time>2026-04-11T07:21:41Z</time></trkpt><trkpt lat="45.50422805325401" lon="9.130788720194303"><ele>134.0</ele><time>2026-04-11T07:21:42Z</time></trkpt><trkpt lat="45.50439419981541" lon="9.1308107716812"><ele>135.0</ele><time>2026-04-11T07:21:43Z</time></trkpt><trkpt lat="45.50455856214831" lon="9.130821345945462"><ele>135.66666666666666</ele><time>2026-04-11T07:21:44Z</time></trkpt><trkpt lat="45.50473408791198" lon="9.130807539443202"><ele>136.33333333333331</ele><time>2026-04-11T07:21:45Z</time></trkpt><trkpt lat="45.50493520100206" lon="9.130830045102146"><ele>137.0</ele><time>2026-04-11T07:21:46Z</time></trkpt><trkpt lat="45.50514881213125" lon="9.130850231437629"><ele>137.0</ele><time>2026-04-11T07:21:47Z</time></trkpt><trkpt lat="45.5053521090113" lon="9.130808142188842"><ele>137.0</ele><time>2026-04-11T07:21:48Z</time></trkpt><trkpt lat="45.50555636822933" lon="9.130783794666344"><ele>137.0</ele><time>2026-04-11T07:21:49Z</time></trkpt><trkpt lat="45.505758674970146" lon="9.130778330361524"><ele>137.0</ele><time>2026-04-11T07:21:50Z</time></trkpt><trkpt lat="45.505983509498044" lon="9.130735974784672"><ele>137.0</ele><time>2026-04-11T07:21:51Z</time></trkpt><trkpt lat="45.50620613668758" lon="9.130701986219455"><ele>137.0</ele><time>2026-04-11T07:21:52Z</time></trkpt><trkpt lat="45.506391848612644" lon="9.130687327874117"><ele>137.0</ele><time>2026-04-11T07:21:53Z</time></trkpt><trkpt lat="45.50661977395872" lon="9.130655087657766"><ele>137.0</ele><time>2026-04-11T07:21:54Z</time></trkpt><trkpt lat="45.50681306138055" lon="9.130609340638822"><ele>137.0</ele><time>2026-04-11T07:21:55Z</time></trkpt><trkpt lat="45.5070302272243" lon="9.130578162865467"><ele>137.0</ele><time>2026-04-11T07:21:56Z</time></trkpt><trkpt lat="45.50724321420299" lon="9.130514444850455"><ele>137.0</ele><time>2026-04-11T07:21:57Z</time></trkpt><trkpt lat="45.50746364898606" lon="9.130458018954846"><ele>137.66666666666666</ele><time>2026-04-11T07:21:58Z</time></trkpt><trkpt lat="45.507683913597305" lon="9.1304097800935"><ele>138.33333333333334</ele><time>2026-04-11T07:21:59Z</time></trkpt><trkpt lat="45.507886655100805" lon="9.130319629131499"><ele>139.0</ele><time>2026-04-11T07:22:00Z</time></trkpt><trkpt lat="45.50809692662115" lon="9.13026682619097"><ele>140.0</ele><time>2026-04-11T07:22:01Z</time></trkpt><trkpt lat="45.50830466285355" lon="9.130213987625575"><ele>141.0</ele><time>2026-04-11T07:22:02Z</time></trkpt><trkpt lat="45.508511324428184" lon="9.130152383318725"><ele>142.0</ele><time>2026-04-11T07:22:03Z</time></trkpt><trkpt lat="45.508694538454556" lon="9.130065463952652"><ele>141.0</ele><time>2026-04-11T07:22:04Z</time></trkpt><trkpt lat="45.50888991767703" lon="9.130006945124212"><ele>140.0</ele><time>2026-04-11T07:22:05Z</time></trkpt><trkpt lat="45.50908432542895" lon="9.129953325848279"><ele>139.0</ele><time>2026-04-11T07:22:06Z</time></trkpt><trkpt lat="45.50926401695462" lon="9.12985799199873"><ele>138.66666666666669</ele><time>2026-04-11T07:22:07Z</time></trkpt><trkpt lat="45.50947183308748" lon="9.129781410761797"><ele>138.33333333333334</ele><time>2026-04-11T07:22:08Z</time></trkpt><trkpt lat="45.50967098425322" lon="9.129693496489972"><ele>138.0</ele><time>2026-04-11T07:22:09Z</time></trkpt><trkpt lat="45.509870295146044" lon="9.129593153107615"><ele>138.0</ele><time>2026-04-11T07:22:10Z</time></trkpt><trkpt lat="45.510060469802816" lon="9.129465493672406"><ele>138.0</ele><time>2026-04-11T07:22:11Z</time></trkpt><trkpt lat="45.51026207825969" lon="9.129321351214067"><ele>138.0</ele><time>2026-04-11T07:22:12Z</time></trkpt><trkpt lat="45.51043379510831" lon="9.129142480047514"><ele>137.0</ele><time>2026-04-11T07:22:13Z</time></trkpt><trkpt lat="45.510599819202874" lon="9.128945001224098"><ele>136.0</ele><time>2026-04-11T07:22:14Z</time></trkpt><trkpt lat="45.510740870437296" lon="9.128760095320054"><ele>135.0</ele><time>2026-04-11T07:22:15Z</time></trkpt><trkpt lat="45.5108904497156" lon="9.128544703167654"><ele>135.0</ele><time>2026-04-11T07:22:16Z</time></trkpt><trkpt lat="45.51102817586271" lon="9.128337723628148"><ele>135.0</ele><time>2026-04-11T07:22:17Z</time></trkpt><trkpt lat="45.511171592158746" lon="9.128118230137886"><ele>135.0</ele><time>2026-04-11T07:22:18Z</time></trkpt><trkpt lat="45.511316676184904" lon="9.127897348145748"><ele>135.66666666666666</ele><time>2026-04-11T07:22:19Z</time></trkpt><trkpt lat="45.51145731321746" lon="9.12768571330441"><ele>136.33333333333331</ele><time>2026-04-11T07:22:20Z</time></trkpt><trkpt lat="45.511582248528164" lon="9.127469568714229"><ele>137.0</ele><time>2026-04-11T07:22:21Z</time></trkpt><trkpt lat="45.51168533081367" lon="9.127254748446408"><ele>137.0</ele><time>2026-04-11T07:22:22Z</time></trkpt><trkpt lat="45.51182441183433" lon="9.127027643063814"><ele>137.0</ele><time>2026-04-11T07:22:23Z</time></trkpt><trkpt lat="45.51196866050767" lon="9.126808130982099"><ele>137.0</ele><time>2026-04-11T07:22:23.999Z</time></trkpt><trkpt lat="45.51214487349932" lon="9.126631271776173"><ele>137.33333333333331</ele><time>2026-04-11T07:22:24.999Z</time></trkpt><trkpt lat="45.51229959201036" lon="9.126415696825255"><ele>137.66666666666666</ele><time>2026-04-11T07:22:25.999Z</time></trkpt><trkpt lat="45.51244818672705" lon="9.126194946549667"><ele>138.0</ele><time>2026-04-11T07:22:26.999Z</time></trkpt><trkpt lat="45.51260943257018" lon="9.125952060418594"><ele>137.0</ele><time>2026-04-11T07:22:27.999Z</time></trkpt><trkpt lat="45.5127204639387" lon="9.12566857080138"><ele>136.0</ele><time>2026-04-11T07:22:28.999Z</time></trkpt><trkpt lat="45.512883940995984" lon="9.125432560143267"><ele>136.66666666666669</ele><time>2026-04-11T07:22:29.999Z</time></trkpt><trkpt lat="45.51302139477015" lon="9.125247199203669"><ele>137.33333333333334</ele><time>2026-04-11T07:22:30.999Z</time></trkpt><trkpt lat="45.51314281319159" lon="9.12499011667308"><ele>138.0</ele><time>2026-04-11T07:22:31.999Z</time></trkpt><trkpt lat="45.51334386098274" lon="9.124814452415938"><ele>138.5</ele><time>2026-04-11T07:22:32.999Z</time></trkpt><trkpt lat="45.513519004224285" lon="9.124601005212485"><ele>139.0</ele><time>2026-04-11T07:22:33.999Z</time></trkpt><trkpt lat="45.51366835872717" lon="9.124320127715237"><ele>139.5</ele><time>2026-04-11T07:22:34.999Z</time></trkpt><trkpt lat="45.51381531378124" lon="9.124058836400437"><ele>140.0</ele><time>2026-04-11T07:22:35.999Z</time></trkpt><trkpt lat="45.51394959596946" lon="9.123817239869732"><ele>140.0</ele><time>2026-04-11T07:22:36.999Z</time></trkpt><trkpt lat="45.514093449314736" lon="9.123588489339944"><ele>140.0</ele><time>2026-04-11T07:22:37.999Z</time></trkpt><trkpt lat="45.51423161282674" lon="9.123368862637664"><ele>140.0</ele><time>2026-04-11T07:22:38.999Z</time></trkpt><trkpt lat="45.51436945535303" lon="9.123144005768264"><ele>139.66666666666666</ele><time>2026-04-11T07:22:39.999Z</time></trkpt><trkpt lat="45.51450759152861" lon="9.122908554024688"><ele>139.33333333333334</ele><time>2026-04-11T07:22:40.999Z</time></trkpt><trkpt lat="45.514649865371" lon="9.12268384595475"><ele>139.0</ele><time>2026-04-11T07:22:41.999Z</time></trkpt><trkpt lat="45.514791320591655" lon="9.122441295341526"><ele>140.0</ele><time>2026-04-11T07:22:42.999Z</time></trkpt><trkpt lat="45.51491445906377" lon="9.122233197292175"><ele>141.0</ele><time>2026-04-11T07:22:43.999Z</time></trkpt><trkpt lat="45.515034439425094" lon="9.12203002637705"><ele>142.0</ele><time>2026-04-11T07:22:44.999Z</time></trkpt><trkpt lat="45.51514822438683" lon="9.121832383478107"><ele>142.0</ele><time>2026-04-11T07:22:45.999Z</time></trkpt><trkpt lat="45.51527694737639" lon="9.121601126834406"><ele>142.0</ele><time>2026-04-11T07:22:46.999Z</time></trkpt><trkpt lat="45.51540006162435" lon="9.12137084440347"><ele>142.0</ele><time>2026-04-11T07:22:47.999Z</time></trkpt><trkpt lat="45.515560159855276" lon="9.121130766532987"><ele>141.33333333333334</ele><time>2026-04-11T07:22:48.999Z</time></trkpt><trkpt lat="45.51567322567307" lon="9.12087091567094"><ele>140.66666666666666</ele><time>2026-04-11T07:22:49.999Z</time></trkpt><trkpt lat="45.515797444396" lon="9.120597034448746"><ele>140.0</ele><time>2026-04-11T07:22:50.999Z</time></trkpt><trkpt lat="45.515930276583234" lon="9.120334253453162"><ele>140.0</ele><time>2026-04-11T07:22:51.999Z</time></trkpt><trkpt lat="45.516047590756244" lon="9.120087477365434"><ele>140.0</ele><time>2026-04-11T07:22:52.999Z</time></trkpt><trkpt lat="45.516175447684205" lon="9.11984798157951"><ele>140.0</ele><time>2026-04-11T07:22:53.999Z</time></trkpt><trkpt lat="45.5162940285177" lon="9.119595464722362"><ele>140.0</ele><time>2026-04-11T07:22:54.999Z</time></trkpt><trkpt lat="45.51641789918608" lon="9.119338365373"><ele>140.0</ele><time>2026-04-11T07:22:55.999Z</time></trkpt><trkpt lat="45.516539015260975" lon="9.119093421279109"><ele>140.0</ele><time>2026-04-11T07:22:56.999Z</time></trkpt><trkpt lat="45.51666350293093" lon="9.118836068558146"><ele>140.33333333333331</ele><time>2026-04-11T07:22:57.999Z</time></trkpt><trkpt lat="45.51679065440726" lon="9.118570015680993"><ele>140.66666666666666</ele><time>2026-04-11T07:22:58.999Z</time></trkpt><trkpt lat="45.51691257190589" lon="9.118318113280631"><ele>141.0</ele><time>2026-04-11T07:22:59.999Z</time></trkpt><trkpt lat="45.51702818769365" lon="9.11805923714772"><ele>141.33333333333334</ele><time>2026-04-11T07:23:00.999Z</time></trkpt><trkpt lat="45.517158863216736" lon="9.117796489622785"><ele>141.66666666666669</ele><time>2026-04-11T07:23:01.999Z</time></trkpt><trkpt lat="45.51727802768178" lon="9.11752664965483"><ele>142.0</ele><time>2026-04-11T07:23:02.999Z</time></trkpt><trkpt lat="45.51741777428536" lon="9.11727930159835"><ele>142.0</ele><time>2026-04-11T07:23:03.999Z</time></trkpt><trkpt lat="45.51754927382925" lon="9.11700922526533"><ele>142.0</ele><time>2026-04-11T07:23:04.999Z</time></trkpt><trkpt lat="45.51766724300693" lon="9.116741693720666"><ele>141.5</ele><time>2026-04-11T07:23:05.999Z</time></trkpt><trkpt lat="45.517840359111595" lon="9.116492367750325"><ele>141.0</ele><time>2026-04-11T07:23:06.999Z</time></trkpt><trkpt lat="45.51798156223668" lon="9.116225376155878"><ele>141.0</ele><time>2026-04-11T07:23:07.999Z</time></trkpt><trkpt lat="45.518128631290196" lon="9.115961187983572"><ele>141.0</ele><time>2026-04-11T07:23:08.999Z</time></trkpt><trkpt lat="45.51825703602501" lon="9.115714886754068"><ele>140.5</ele><time>2026-04-11T07:23:09.999Z</time></trkpt><trkpt lat="45.51840399022339" lon="9.115473617209597"><ele>140.0</ele><time>2026-04-11T07:23:10.999Z</time></trkpt><trkpt lat="45.51854091442082" lon="9.115214352492671"><ele>140.0</ele><time>2026-04-11T07:23:11.999Z</time></trkpt><trkpt lat="45.51863957282449" lon="9.11494386485382"><ele>140.0</ele><time>2026-04-11T07:23:12.999Z</time></trkpt><trkpt lat="45.518752595393586" lon="9.114672517311211"><ele>140.0</ele><time>2026-04-11T07:23:13.999Z</time></trkpt><trkpt lat="45.51891681817438" lon="9.11448845423867"><ele>140.0</ele><time>2026-04-11T07:23:14.999Z</time></trkpt><trkpt lat="45.519067530002665" lon="9.114254274323477"><ele>140.0</ele><time>2026-04-11T07:23:15.999Z</time></trkpt><trkpt lat="45.519199664040734" lon="9.114024461710208"><ele>140.0</ele><time>2026-04-11T07:23:16.999Z</time></trkpt><trkpt lat="45.5193268807208" lon="9.113825497977873"><ele>140.0</ele><time>2026-04-11T07:23:17.999Z</time></trkpt><trkpt lat="45.51947006386561" lon="9.113594583922879"><ele>140.0</ele><time>2026-04-11T07:23:18.999Z</time></trkpt><trkpt lat="45.519609736016896" lon="9.113362512350585"><ele>140.0</ele><time>2026-04-11T07:23:19.999Z</time></trkpt><trkpt lat="45.51974515626178" lon="9.113106114392705"><ele>140.0</ele><time>2026-04-11T07:23:20.999Z</time></trkpt><trkpt lat="45.519876383079335" lon="9.1128728831923"><ele>140.0</ele><time>2026-04-11T07:23:21.999Z</time></trkpt><trkpt lat="45.520008597258" lon="9.112643466468377"><ele>140.0</ele><time>2026-04-11T07:23:22.999Z</time></trkpt><trkpt lat="45.52015522421034" lon="9.112383476927631"><ele>140.0</ele><time>2026-04-11T07:23:23.999Z</time></trkpt><trkpt lat="45.520303177816416" lon="9.11213550081833"><ele>140.0</ele><time>2026-04-11T07:23:24.999Z</time></trkpt><trkpt lat="45.52045794378882" lon="9.11188276758121"><ele>140.0</ele><time>2026-04-11T07:23:25.999Z</time></trkpt><trkpt lat="45.52062453728877" lon="9.111617604028071"><ele>140.0</ele><time>2026-04-11T07:23:26.999Z</time></trkpt><trkpt lat="45.52077125378787" lon="9.111331372169005"><ele>139.5</ele><time>2026-04-11T07:23:27.999Z</time></trkpt><trkpt lat="45.52091728973887" lon="9.111054683356299"><ele>139.0</ele><time>2026-04-11T07:23:28.999Z</time></trkpt><trkpt lat="45.521054055872064" lon="9.11076691117952"><ele>139.0</ele><time>2026-04-11T07:23:29.999Z</time></trkpt><trkpt lat="45.52120406625381" lon="9.110491525647117"><ele>139.0</ele><time>2026-04-11T07:23:30.999Z</time></trkpt><trkpt lat="45.521366181438054" lon="9.110224807804798"><ele>139.0</ele><time>2026-04-11T07:23:31.999Z</time></trkpt><trkpt lat="45.52152621724822" lon="9.109998970386343"><ele>139.0</ele><time>2026-04-11T07:23:32.999Z</time></trkpt><trkpt lat="45.52166026167559" lon="9.109735045950229"><ele>139.0</ele><time>2026-04-11T07:23:33.999Z</time></trkpt><trkpt lat="45.52180228844486" lon="9.109461391690335"><ele>139.0</ele><time>2026-04-11T07:23:34.999Z</time></trkpt><trkpt lat="45.52193800574685" lon="9.109168733980823"><ele>141.0</ele><time>2026-04-11T07:23:35.999Z</time></trkpt><trkpt lat="45.5220736827136" lon="9.108894630087566"><ele>143.0</ele><time>2026-04-11T07:23:36.999Z</time></trkpt><trkpt lat="45.52221737171657" lon="9.108639106982757"><ele>143.0</ele><time>2026-04-11T07:23:37.999Z</time></trkpt><trkpt lat="45.52236028853122" lon="9.108367443410916"><ele>143.0</ele><time>2026-04-11T07:23:38.999Z</time></trkpt><trkpt lat="45.52250390824829" lon="9.108108721663596"><ele>143.0</ele><time>2026-04-11T07:23:39.999Z</time></trkpt><trkpt lat="45.52264810132589" lon="9.107841375953376"><ele>143.0</ele><time>2026-04-11T07:23:40.999Z</time></trkpt><trkpt lat="45.522796265313" lon="9.107576871106108"><ele>142.5</ele><time>2026-04-11T07:23:41.999Z</time></trkpt><trkpt lat="45.52295438326415" lon="9.107321496162255"><ele>142.0</ele><time>2026-04-11T07:23:42.999Z</time></trkpt><trkpt lat="45.52310938750069" lon="9.107057313012104"><ele>142.0</ele><time>2026-04-11T07:23:43.999Z</time></trkpt><trkpt lat="45.52325017040366" lon="9.106777626310286"><ele>142.0</ele><time>2026-04-11T07:23:44.999Z</time></trkpt><trkpt lat="45.52339332362518" lon="9.106470705749823"><ele>142.0</ele><time>2026-04-11T07:23:45.999Z</time></trkpt><trkpt lat="45.52355235589" lon="9.106182146636133"><ele>142.0</ele><time>2026-04-11T07:23:46.999Z</time></trkpt><trkpt lat="45.523716486620465" lon="9.10594314725702"><ele>143.0</ele><time>2026-04-11T07:23:47.999Z</time></trkpt><trkpt lat="45.52387340981934" lon="9.105661991918161"><ele>144.0</ele><time>2026-04-11T07:23:48.999Z</time></trkpt><trkpt lat="45.52403053326105" lon="9.105384318623344"><ele>144.0</ele><time>2026-04-11T07:23:49.999Z</time></trkpt><trkpt lat="45.524159200581074" lon="9.105096877638156"><ele>144.0</ele><time>2026-04-11T07:23:50.999Z</time></trkpt><trkpt lat="45.524296295008334" lon="9.104812153353386"><ele>144.5</ele><time>2026-04-11T07:23:51.999Z</time></trkpt><trkpt lat="45.52444244062619" lon="9.1045435825953"><ele>145.0</ele><time>2026-04-11T07:23:52.999Z</time></trkpt><trkpt lat="45.52458749982841" lon="9.104271786645857"><ele>145.5</ele><time>2026-04-11T07:23:53.999Z</time></trkpt><trkpt lat="45.52472759479928" lon="9.104020868672745"><ele>146.0</ele><time>2026-04-11T07:23:54.999Z</time></trkpt><trkpt lat="45.52488494739463" lon="9.103760563809798"><ele>146.0</ele><time>2026-04-11T07:23:55.999Z</time></trkpt><trkpt lat="45.525058304911724" lon="9.103471330542412"><ele>146.0</ele><time>2026-04-11T07:23:56.999Z</time></trkpt><trkpt lat="45.52521710244461" lon="9.1031789746681"><ele>146.0</ele><time>2026-04-11T07:23:57.999Z</time></trkpt><trkpt lat="45.52535378908883" lon="9.10290674160669"><ele>146.0</ele><time>2026-04-11T07:23:58.999Z</time></trkpt><trkpt lat="45.52549563142003" lon="9.102625491297662"><ele>145.5</ele><time>2026-04-11T07:23:59.999Z</time></trkpt><trkpt lat="45.525636664851575" lon="9.102371581863386"><ele>145.0</ele><time>2026-04-11T07:24:00.999Z</time></trkpt><trkpt lat="45.52578922132862" lon="9.102122555309549"><ele>145.0</ele><time>2026-04-11T07:24:01.999Z</time></trkpt><trkpt lat="45.52592934305321" lon="9.10185899553146"><ele>145.0</ele><time>2026-04-11T07:24:02.999Z</time></trkpt><trkpt lat="45.52609597805159" lon="9.101614419899038"><ele>145.5</ele><time>2026-04-11T07:24:03.999Z</time></trkpt><trkpt lat="45.526229779376735" lon="9.101334657655666"><ele>146.0</ele><time>2026-04-11T07:24:04.999Z</time></trkpt><trkpt lat="45.52636656234676" lon="9.101065394102944"><ele>146.0</ele><time>2026-04-11T07:24:05.999Z</time></trkpt><trkpt lat="45.52651471875502" lon="9.10077907525756"><ele>146.0</ele><time>2026-04-11T07:24:06.999Z</time></trkpt><trkpt lat="45.526686871169495" lon="9.10050715678982"><ele>145.0</ele><time>2026-04-11T07:24:07.999Z</time></trkpt><trkpt lat="45.52685362099301" lon="9.100220333779115"><ele>144.0</ele><time>2026-04-11T07:24:08.999Z</time></trkpt><trkpt lat="45.526987681222586" lon="9.099920845041876"><ele>148.5</ele><time>2026-04-11T07:24:09.999Z</time></trkpt><trkpt lat="45.52712540487763" lon="9.099616589687793"><ele>153.0</ele><time>2026-04-11T07:24:10.999Z</time></trkpt><trkpt lat="45.52726353797794" lon="9.099339896070596"><ele>151.0</ele><time>2026-04-11T07:24:11.999Z</time></trkpt><trkpt lat="45.52741614169503" lon="9.099082635742368"><ele>149.0</ele><time>2026-04-11T07:24:12.999Z</time></trkpt><trkpt lat="45.52757006763328" lon="9.098845732935619"><ele>149.0</ele><time>2026-04-11T07:24:13.999Z</time></trkpt><trkpt lat="45.52771299027919" lon="9.098605212869225"><ele>149.0</ele><time>2026-04-11T07:24:14.999Z</time></trkpt><trkpt lat="45.52783991621529" lon="9.098324892271206"><ele>148.0</ele><time>2026-04-11T07:24:15.999Z</time></trkpt><trkpt lat="45.52797737902317" lon="9.098025819579703"><ele>147.0</ele><time>2026-04-11T07:24:16.999Z</time></trkpt><trkpt lat="45.528122200331445" lon="9.09775324337093"><ele>147.0</ele><time>2026-04-11T07:24:17.999Z</time></trkpt><trkpt lat="45.52828179208943" lon="9.097441771170292"><ele>147.0</ele><time>2026-04-11T07:24:18.999Z</time></trkpt><trkpt lat="45.52843665359718" lon="9.09714386097469"><ele>146.5</ele><time>2026-04-11T07:24:19.999Z</time></trkpt><trkpt lat="45.52858962625103" lon="9.096855116211648"><ele>146.0</ele><time>2026-04-11T07:24:20.999Z</time></trkpt><trkpt lat="45.52874491761053" lon="9.09657368320471"><ele>145.5</ele><time>2026-04-11T07:24:21.999Z</time></trkpt><trkpt lat="45.52888127658577" lon="9.096286772188385"><ele>145.0</ele><time>2026-04-11T07:24:22.999Z</time></trkpt><trkpt lat="45.52903746651624" lon="9.096017062752198"><ele>144.0</ele><time>2026-04-11T07:24:23.999Z</time></trkpt><trkpt lat="45.52919252343053" lon="9.095746430829635"><ele>143.0</ele><time>2026-04-11T07:24:24.999Z</time></trkpt><trkpt lat="45.52934125936888" lon="9.09547587931697"><ele>143.0</ele><time>2026-04-11T07:24:25.999Z</time></trkpt><trkpt lat="45.52947573077916" lon="9.095196677536071"><ele>143.0</ele><time>2026-04-11T07:24:26.999Z</time></trkpt><trkpt lat="45.529610699855894" lon="9.09492219346738"><ele>144.66666666666666</ele><time>2026-04-11T07:24:27.999Z</time></trkpt><trkpt lat="45.529756933427805" lon="9.094674328104764"><ele>146.33333333333334</ele><time>2026-04-11T07:24:28.999Z</time></trkpt><trkpt lat="45.52988878777536" lon="9.094420447281964"><ele>148.0</ele><time>2026-04-11T07:24:29.999Z</time></trkpt><trkpt lat="45.5300397676529" lon="9.094165540861951"><ele>147.0</ele><time>2026-04-11T07:24:30.999Z</time></trkpt><trkpt lat="45.53017490432682" lon="9.093886907876877"><ele>146.0</ele><time>2026-04-11T07:24:31.999Z</time></trkpt><trkpt lat="45.530310424949285" lon="9.093619116549153"><ele>147.0</ele><time>2026-04-11T07:24:32.999Z</time></trkpt><trkpt lat="45.53044080107688" lon="9.093352409413818"><ele>148.0</ele><time>2026-04-11T07:24:33.999Z</time></trkpt><trkpt lat="45.530584001780106" lon="9.093099109217624"><ele>148.0</ele><time>2026-04-11T07:24:34.999Z</time></trkpt><trkpt lat="45.5307201808822" lon="9.092814811140306"><ele>148.0</ele><time>2026-04-11T07:24:35.999Z</time></trkpt><trkpt lat="45.53085218621684" lon="9.092589941823807"><ele>148.0</ele><time>2026-04-11T07:24:36.999Z</time></trkpt><trkpt lat="45.53099496022122" lon="9.09231234086899"><ele>147.5</ele><time>2026-04-11T07:24:37.999Z</time></trkpt><trkpt lat="45.53114851698433" lon="9.092050965844132"><ele>147.0</ele><time>2026-04-11T07:24:38.999Z</time></trkpt><trkpt lat="45.53128133663792" lon="9.091762843850493"><ele>147.5</ele><time>2026-04-11T07:24:39.999Z</time></trkpt><trkpt lat="45.531429324189354" lon="9.091499085118157"><ele>148.0</ele><time>2026-04-11T07:24:40.999Z</time></trkpt><trkpt lat="45.531560869632365" lon="9.09125400924806"><ele>148.0</ele><time>2026-04-11T07:24:41.999Z</time></trkpt><trkpt lat="45.53169507314177" lon="9.091012932003444"><ele>148.0</ele><time>2026-04-11T07:24:42.999Z</time></trkpt><trkpt lat="45.531837661769" lon="9.090770402217842"><ele>148.0</ele><time>2026-04-11T07:24:43.999Z</time></trkpt><trkpt lat="45.531972949649266" lon="9.090523055151843"><ele>148.66666666666669</ele><time>2026-04-11T07:24:44.999Z</time></trkpt><trkpt lat="45.532107588807456" lon="9.090266667903563"><ele>149.33333333333334</ele><time>2026-04-11T07:24:45.999Z</time></trkpt><trkpt lat="45.53224388571844" lon="9.090038920304846"><ele>150.0</ele><time>2026-04-11T07:24:46.999Z</time></trkpt><trkpt lat="45.53237541883992" lon="9.089792318088024"><ele>150.0</ele><time>2026-04-11T07:24:47.999Z</time></trkpt><trkpt lat="45.53250599521382" lon="9.089556935472928"><ele>150.0</ele><time>2026-04-11T07:24:48.999Z</time></trkpt><trkpt lat="45.53261494241544" lon="9.089315979874428"><ele>150.0</ele><time>2026-04-11T07:24:49.999Z</time></trkpt><trkpt lat="45.53275521840689" lon="9.0890401338653"><ele>150.0</ele><time>2026-04-11T07:24:50.999Z</time></trkpt><trkpt lat="45.532885531260284" lon="9.088763815594564"><ele>150.0</ele><time>2026-04-11T07:24:51.999Z</time></trkpt><trkpt lat="45.533020517653654" lon="9.088508399864534"><ele>150.5</ele><time>2026-04-11T07:24:52.999Z</time></trkpt><trkpt lat="45.533182850164295" lon="9.088227475539563"><ele>151.0</ele><time>2026-04-11T07:24:53.999Z</time></trkpt><trkpt lat="45.53333296457752" lon="9.087972435812661"><ele>151.0</ele><time>2026-04-11T07:24:54.999Z</time></trkpt><trkpt lat="45.53347609898364" lon="9.087705987590319"><ele>151.0</ele><time>2026-04-11T07:24:55.999Z</time></trkpt><trkpt lat="45.533615297271155" lon="9.087445845318802"><ele>151.5</ele><time>2026-04-11T07:24:56.999Z</time></trkpt><trkpt lat="45.53375220163391" lon="9.08716538133781"><ele>152.0</ele><time>2026-04-11T07:24:57.999Z</time></trkpt><trkpt lat="45.53390267007181" lon="9.086864373743119"><ele>151.0</ele><time>2026-04-11T07:24:58.999Z</time></trkpt><trkpt lat="45.534036441364876" lon="9.086563568110252"><ele>150.0</ele><time>2026-04-11T07:24:59.999Z</time></trkpt><trkpt lat="45.534198829229695" lon="9.086327808051248"><ele>150.0</ele><time>2026-04-11T07:25:00.999Z</time></trkpt><trkpt lat="45.53433399095149" lon="9.086047266522709"><ele>150.0</ele><time>2026-04-11T07:25:01.999Z</time></trkpt><trkpt lat="45.53447840662131" lon="9.085753819230511"><ele>150.0</ele><time>2026-04-11T07:25:02.999Z</time></trkpt><trkpt lat="45.5346230256432" lon="9.085472093539357"><ele>150.0</ele><time>2026-04-11T07:25:03.999Z</time></trkpt><trkpt lat="45.53477601645767" lon="9.085181794570012"><ele>150.0</ele><time>2026-04-11T07:25:04.999Z</time></trkpt><trkpt lat="45.53493816655015" lon="9.084936266003448"><ele>150.0</ele><time>2026-04-11T07:25:05.999Z</time></trkpt><trkpt lat="45.53507901799125" lon="9.084664178685273"><ele>151.0</ele><time>2026-04-11T07:25:06.999Z</time></trkpt><trkpt lat="45.535234581814485" lon="9.084413937160496"><ele>152.0</ele><time>2026-04-11T07:25:07.999Z</time></trkpt><trkpt lat="45.53539203560121" lon="9.084162548813458"><ele>153.0</ele><time>2026-04-11T07:25:08.999Z</time></trkpt><trkpt lat="45.535517813755945" lon="9.083891739727795"><ele>154.0</ele><time>2026-04-11T07:25:09.999Z</time></trkpt><trkpt lat="45.53571922732545" lon="9.083632690920986"><ele>154.0</ele><time>2026-04-11T07:25:10.999Z</time></trkpt><trkpt lat="45.53589176741313" lon="9.08338836187766"><ele>154.0</ele><time>2026-04-11T07:25:11.999Z</time></trkpt><trkpt lat="45.53603338385529" lon="9.083099989063248"><ele>154.0</ele><time>2026-04-11T07:25:12.999Z</time></trkpt><trkpt lat="45.536175190549855" lon="9.082819888047094"><ele>154.0</ele><time>2026-04-11T07:25:13.999Z</time></trkpt><trkpt lat="45.53630833742955" lon="9.082550522360918"><ele>154.0</ele><time>2026-04-11T07:25:14.999Z</time></trkpt><trkpt lat="45.536451797470995" lon="9.082280555014435"><ele>154.0</ele><time>2026-04-11T07:25:15.999Z</time></trkpt><trkpt lat="45.536599720184235" lon="9.08202057550344"><ele>154.0</ele><time>2026-04-11T07:25:16.999Z</time></trkpt><trkpt lat="45.53674538030305" lon="9.081752662166782"><ele>154.0</ele><time>2026-04-11T07:25:17.999Z</time></trkpt><trkpt lat="45.53688323449413" lon="9.081492118094191"><ele>154.33333333333334</ele><time>2026-04-11T07:25:18.999Z</time></trkpt><trkpt lat="45.537009600485874" lon="9.081249473076602"><ele>154.66666666666666</ele><time>2026-04-11T07:25:19.999Z</time></trkpt><trkpt lat="45.537136059513884" lon="9.08097719548292"><ele>155.0</ele><time>2026-04-11T07:25:20.999Z</time></trkpt><trkpt lat="45.53725940462096" lon="9.080728863591409"><ele>153.5</ele><time>2026-04-11T07:25:21.999Z</time></trkpt><trkpt lat="45.53738512449479" lon="9.080459985447018"><ele>152.0</ele><time>2026-04-11T07:25:22.999Z</time></trkpt><trkpt lat="45.537485061152594" lon="9.080163866499387"><ele>153.0</ele><time>2026-04-11T07:25:23.999Z</time></trkpt><trkpt lat="45.53763027023247" lon="9.079904693314443"><ele>154.0</ele><time>2026-04-11T07:25:24.999Z</time></trkpt><trkpt lat="45.537800006220884" lon="9.079602579190627"><ele>153.5</ele><time>2026-04-11T07:25:25.999Z</time></trkpt><trkpt lat="45.5379217109081" lon="9.079301176014603"><ele>153.0</ele><time>2026-04-11T07:25:26.999Z</time></trkpt><trkpt lat="45.53807102698678" lon="9.07903881194772"><ele>153.0</ele><time>2026-04-11T07:25:27.999Z</time></trkpt><trkpt lat="45.538209619062364" lon="9.078787063898693"><ele>153.0</ele><time>2026-04-11T07:25:28.999Z</time></trkpt><trkpt lat="45.53835044481447" lon="9.078524888675389"><ele>153.0</ele><time>2026-04-11T07:25:29.999Z</time></trkpt><trkpt lat="45.53849278269174" lon="9.078254456688176"><ele>153.0</ele><time>2026-04-11T07:25:30.999Z</time></trkpt><trkpt lat="45.53862649565542" lon="9.077968863636002"><ele>153.5</ele><time>2026-04-11T07:25:31.999Z</time></trkpt><trkpt lat="45.53876567326818" lon="9.077697673705986"><ele>154.0</ele><time>2026-04-11T07:25:32.999Z</time></trkpt><trkpt lat="45.53891844952177" lon="9.07744520053555"><ele>154.0</ele><time>2026-04-11T07:25:33.999Z</time></trkpt><trkpt lat="45.53905921961529" lon="9.077158181460685"><ele>154.0</ele><time>2026-04-11T07:25:34.999Z</time></trkpt><trkpt lat="45.53921330465949" lon="9.076873614004487"><ele>154.0</ele><time>2026-04-11T07:25:35.999Z</time></trkpt><trkpt lat="45.53935215738258" lon="9.07661215476909"><ele>154.0</ele><time>2026-04-11T07:25:36.999Z</time></trkpt><trkpt lat="45.53948844614845" lon="9.076359942107025"><ele>154.33333333333334</ele><time>2026-04-11T07:25:37.999Z</time></trkpt><trkpt lat="45.53962982773317" lon="9.07610774849317"><ele>154.66666666666666</ele><time>2026-04-11T07:25:38.999Z</time></trkpt><trkpt lat="45.53976742597706" lon="9.075859824004052"><ele>155.0</ele><time>2026-04-11T07:25:39.999Z</time></trkpt><trkpt lat="45.539905261583534" lon="9.075607174465203"><ele>155.0</ele><time>2026-04-11T07:25:40.999Z</time></trkpt><trkpt lat="45.54002144397531" lon="9.075358475901167"><ele>155.0</ele><time>2026-04-11T07:25:41.999Z</time></trkpt><trkpt lat="45.540156651645944" lon="9.07513842593245"><ele>155.0</ele><time>2026-04-11T07:25:42.999Z</time></trkpt><trkpt lat="45.54027908231344" lon="9.074910137696552"><ele>155.0</ele><time>2026-04-11T07:25:43.999Z</time></trkpt><trkpt lat="45.54040359387834" lon="9.074677970240918"><ele>155.0</ele><time>2026-04-11T07:25:44.999Z</time></trkpt><trkpt lat="45.54052751744532" lon="9.074445992996662"><ele>155.0</ele><time>2026-04-11T07:25:45.999Z</time></trkpt><trkpt lat="45.54065062449255" lon="9.074215418165883"><ele>155.66666666666666</ele><time>2026-04-11T07:25:46.999Z</time></trkpt><trkpt lat="45.540756184075455" lon="9.073980877908875"><ele>156.33333333333334</ele><time>2026-04-11T07:25:47.999Z</time></trkpt><trkpt lat="45.540875154631046" lon="9.073775958560672"><ele>157.0</ele><time>2026-04-11T07:25:48.999Z</time></trkpt><trkpt lat="45.54100595753745" lon="9.073531625871626"><ele>157.0</ele><time>2026-04-11T07:25:49.999Z</time></trkpt><trkpt lat="45.541137940948396" lon="9.073290891662488"><ele>157.0</ele><time>2026-04-11T07:25:50.999Z</time></trkpt><trkpt lat="45.54127948497311" lon="9.073051899237607"><ele>157.0</ele><time>2026-04-11T07:25:51.999Z</time></trkpt><trkpt lat="45.541413054669775" lon="9.072810145521675"><ele>156.5</ele><time>2026-04-11T07:25:52.999Z</time></trkpt><trkpt lat="45.54155264544939" lon="9.072558123539801"><ele>156.0</ele><time>2026-04-11T07:25:53.999Z</time></trkpt><trkpt lat="45.54173848036381" lon="9.072311979851928"><ele>156.0</ele><time>2026-04-11T07:25:54.999Z</time></trkpt><trkpt lat="45.541864585525374" lon="9.072032658555095"><ele>156.0</ele><time>2026-04-11T07:25:55.999Z</time></trkpt><trkpt lat="45.54200376517484" lon="9.071782445750875"><ele>157.0</ele><time>2026-04-11T07:25:56.999Z</time></trkpt><trkpt lat="45.54213075732362" lon="9.071547525506489"><ele>158.0</ele><time>2026-04-11T07:25:57.999Z</time></trkpt><trkpt lat="45.542258587402856" lon="9.071298713645886"><ele>159.0</ele><time>2026-04-11T07:25:58.999Z</time></trkpt><trkpt lat="45.54239615123388" lon="9.071057328999643"><ele>159.0</ele><time>2026-04-11T07:25:59.999Z</time></trkpt><trkpt lat="45.542530652258314" lon="9.070845642039654"><ele>159.0</ele><time>2026-04-11T07:26:00.999Z</time></trkpt><trkpt lat="45.542650984296785" lon="9.070596142421493"><ele>159.0</ele><time>2026-04-11T07:26:01.999Z</time></trkpt><trkpt lat="45.54278848341333" lon="9.070339289967558"><ele>159.0</ele><time>2026-04-11T07:26:02.999Z</time></trkpt><trkpt lat="45.54293746301842" lon="9.070100500933458"><ele>159.0</ele><time>2026-04-11T07:26:03.999Z</time></trkpt><trkpt lat="45.54308242709826" lon="9.069836624761328"><ele>159.0</ele><time>2026-04-11T07:26:04.999Z</time></trkpt><trkpt lat="45.54323351602707" lon="9.069588191564431"><ele>159.0</ele><time>2026-04-11T07:26:05.999Z</time></trkpt><trkpt lat="45.543367901510635" lon="9.069350372674965"><ele>159.0</ele><time>2026-04-11T07:26:06.999Z</time></trkpt><trkpt lat="45.543496890933" lon="9.069107171220809"><ele>159.0</ele><time>2026-04-11T07:26:07.999Z</time></trkpt><trkpt lat="45.54364229019045" lon="9.068878965045846"><ele>159.0</ele><time>2026-04-11T07:26:08.999Z</time></trkpt><trkpt lat="45.54378432051771" lon="9.06865419277726"><ele>159.0</ele><time>2026-04-11T07:26:09.999Z</time></trkpt><trkpt lat="45.543915641455875" lon="9.068436278837911"><ele>159.0</ele><time>2026-04-11T07:26:10.999Z</time></trkpt><trkpt lat="45.54403411191592" lon="9.06819803846538"><ele>159.0</ele><time>2026-04-11T07:26:11.999Z</time></trkpt><trkpt lat="45.54416635610295" lon="9.067974611873554"><ele>159.0</ele><time>2026-04-11T07:26:12.999Z</time></trkpt><trkpt lat="45.544250489807055" lon="9.067695500467694"><ele>158.5</ele><time>2026-04-11T07:26:13.999Z</time></trkpt><trkpt lat="45.54440361196747" lon="9.067427748519561"><ele>158.0</ele><time>2026-04-11T07:26:14.999Z</time></trkpt><trkpt lat="45.544552675719096" lon="9.067201319910836"><ele>159.0</ele><time>2026-04-11T07:26:15.999Z</time></trkpt><trkpt lat="45.5446708289688" lon="9.066971988103406"><ele>160.0</ele><time>2026-04-11T07:26:16.999Z</time></trkpt><trkpt lat="45.544785797879236" lon="9.0667348385947"><ele>161.0</ele><time>2026-04-11T07:26:17.999Z</time></trkpt><trkpt lat="45.54491206375817" lon="9.066510219188487"><ele>161.0</ele><time>2026-04-11T07:26:18.999Z</time></trkpt><trkpt lat="45.545044074453116" lon="9.066287060297961"><ele>161.0</ele><time>2026-04-11T07:26:19.999Z</time></trkpt><trkpt lat="45.54517859884444" lon="9.066045933162146"><ele>161.0</ele><time>2026-04-11T07:26:20.999Z</time></trkpt><trkpt lat="45.54531023820174" lon="9.065812027470399"><ele>161.66666666666666</ele><time>2026-04-11T07:26:21.999Z</time></trkpt><trkpt lat="45.54542558825394" lon="9.06557295382561"><ele>162.33333333333334</ele><time>2026-04-11T07:26:22.999Z</time></trkpt><trkpt lat="45.545563364818655" lon="9.065346839667571"><ele>163.0</ele><time>2026-04-11T07:26:23.999Z</time></trkpt><trkpt lat="45.54568872271994" lon="9.065126315467303"><ele>162.33333333333334</ele><time>2026-04-11T07:26:24.999Z</time></trkpt><trkpt lat="45.54583178798355" lon="9.064892746066702"><ele>161.66666666666666</ele><time>2026-04-11T07:26:25.999Z</time></trkpt><trkpt lat="45.54595849665173" lon="9.064656841227652"><ele>161.0</ele><time>2026-04-11T07:26:26.999Z</time></trkpt><trkpt lat="45.5460988828113" lon="9.064420773281967"><ele>161.33333333333331</ele><time>2026-04-11T07:26:28Z</time></trkpt><trkpt lat="45.54622622985052" lon="9.064192465581835"><ele>161.66666666666666</ele><time>2026-04-11T07:26:29Z</time></trkpt><trkpt lat="45.54634601370889" lon="9.063965364749833"><ele>162.0</ele><time>2026-04-11T07:26:30Z</time></trkpt><trkpt lat="45.546456393138875" lon="9.063746629239834"><ele>162.0</ele><time>2026-04-11T07:26:31Z</time></trkpt><trkpt lat="45.546531846326374" lon="9.063474994145134"><ele>162.0</ele><time>2026-04-11T07:26:32Z</time></trkpt><trkpt lat="45.546643037947106" lon="9.063256295366335"><ele>162.0</ele><time>2026-04-11T07:26:33Z</time></trkpt><trkpt lat="45.54673686703556" lon="9.063027003812719"><ele>162.0</ele><time>2026-04-11T07:26:34Z</time></trkpt><trkpt lat="45.54685540913563" lon="9.06284630236576"><ele>162.0</ele><time>2026-04-11T07:26:35Z</time></trkpt><trkpt lat="45.546969616381475" lon="9.062686144634172"><ele>162.0</ele><time>2026-04-11T07:26:36Z</time></trkpt><trkpt lat="45.54710767821144" lon="9.062526731377178"><ele>161.66666666666666</ele><time>2026-04-11T07:26:37Z</time></trkpt><trkpt lat="45.54722062808626" lon="9.062314763221334"><ele>161.33333333333331</ele><time>2026-04-11T07:26:38Z</time></trkpt><trkpt lat="45.54735655535344" lon="9.062078743894636"><ele>161.0</ele><time>2026-04-11T07:26:39Z</time></trkpt><trkpt lat="45.54749648443308" lon="9.061880632418111"><ele>161.0</ele><time>2026-04-11T07:26:40Z</time></trkpt><trkpt lat="45.547626652477504" lon="9.061708888316689"><ele>161.0</ele><time>2026-04-11T07:26:41Z</time></trkpt><trkpt lat="45.54772737239718" lon="9.061573286527489"><ele>161.0</ele><time>2026-04-11T07:26:42Z</time></trkpt><trkpt lat="45.54786785349681" lon="9.061407133615338"><ele>161.0</ele><time>2026-04-11T07:26:43Z</time></trkpt><trkpt lat="45.54798024703968" lon="9.06121209026613"><ele>161.0</ele><time>2026-04-11T07:26:44Z</time></trkpt><trkpt lat="45.54805924724473" lon="9.060992588345393"><ele>161.0</ele><time>2026-04-11T07:26:45Z</time></trkpt><trkpt lat="45.548148370783174" lon="9.060822637995447"><ele>161.5</ele><time>2026-04-11T07:26:46Z</time></trkpt><trkpt lat="45.54824614162099" lon="9.06072283688549"><ele>162.0</ele><time>2026-04-11T07:26:47Z</time></trkpt><trkpt lat="45.54833353910969" lon="9.060605735729098"><ele>162.5</ele><time>2026-04-11T07:26:48Z</time></trkpt><trkpt lat="45.548418709045826" lon="9.06048454665193"><ele>163.0</ele><time>2026-04-11T07:26:49Z</time></trkpt><trkpt lat="45.54848309079983" lon="9.060369704882492"><ele>163.0</ele><time>2026-04-11T07:26:50Z</time></trkpt><trkpt lat="45.54857523070649" lon="9.060296310673607"><ele>163.0</ele><time>2026-04-11T07:26:51Z</time></trkpt><trkpt lat="45.548611915100636" lon="9.060189564089011"><ele>163.0</ele><time>2026-04-11T07:26:52Z</time></trkpt><trkpt lat="45.548669676008245" lon="9.060135969968274"><ele>163.0</ele><time>2026-04-11T07:26:53Z</time></trkpt><trkpt lat="45.54871579295381" lon="9.06005649761279"><ele>163.0</ele><time>2026-04-11T07:26:54Z</time></trkpt><trkpt lat="45.548778147299736" lon="9.05996026094482"><ele>163.0</ele><time>2026-04-11T07:26:56Z</time></trkpt><trkpt lat="45.54871762364563" lon="9.060095127604407"><ele>163.0</ele><time>2026-04-11T07:27:05Z</time></trkpt><trkpt lat="45.54866256790669" lon="9.060196393063887"><ele>163.0</ele><time>2026-04-11T07:27:07Z</time></trkpt><trkpt lat="45.548700637059" lon="9.06011619106426"><ele>163.0</ele><time>2026-04-11T07:28:01.999Z</time></trkpt><trkpt lat="45.54884592069205" lon="9.059847047965116"><ele>163.0</ele><time>2026-04-11T07:28:35.999Z</time></trkpt><trkpt lat="45.54892293131169" lon="9.059686884850384"><ele>162.33333333333334</ele><time>2026-04-11T07:28:36.999Z</time></trkpt><trkpt lat="45.5490120987928" lon="9.05948905255557"><ele>161.66666666666666</ele><time>2026-04-11T07:28:37.999Z</time></trkpt><trkpt lat="45.54910137545498" lon="9.059187322865641"><ele>161.0</ele><time>2026-04-11T07:28:38.999Z</time></trkpt><trkpt lat="45.549167334446494" lon="9.05891685582915"><ele>161.0</ele><time>2026-04-11T07:28:39.999Z</time></trkpt><trkpt lat="45.54922834733557" lon="9.058659836849516"><ele>161.0</ele><time>2026-04-11T07:28:40.999Z</time></trkpt><trkpt lat="45.54931224344555" lon="9.058368904635099"><ele>161.0</ele><time>2026-04-11T07:28:41.999Z</time></trkpt><trkpt lat="45.54943090260652" lon="9.058087540170039"><ele>164.5</ele><time>2026-04-11T07:28:42.999Z</time></trkpt><trkpt lat="45.549553602102336" lon="9.057817272962588"><ele>168.0</ele><time>2026-04-11T07:28:43.999Z</time></trkpt><trkpt lat="45.54969264729415" lon="9.057557866074266"><ele>167.33333333333334</ele><time>2026-04-11T07:28:44.999Z</time></trkpt><trkpt lat="45.54982660506283" lon="9.057311927152664"><ele>166.66666666666669</ele><time>2026-04-11T07:28:45.999Z</time></trkpt><trkpt lat="45.54996572114742" lon="9.05707666866191"><ele>166.0</ele><time>2026-04-11T07:28:46.999Z</time></trkpt><trkpt lat="45.550099680418164" lon="9.056815968943612"><ele>166.0</ele><time>2026-04-11T07:28:47.999Z</time></trkpt><trkpt lat="45.550239652020885" lon="9.056580643366694"><ele>166.0</ele><time>2026-04-11T07:28:48.999Z</time></trkpt><trkpt lat="45.55037611492089" lon="9.056320856652189"><ele>166.0</ele><time>2026-04-11T07:28:49.999Z</time></trkpt><trkpt lat="45.55050874963231" lon="9.056078290307646"><ele>166.0</ele><time>2026-04-11T07:28:50.999Z</time></trkpt><trkpt lat="45.550654293092116" lon="9.05586111404503"><ele>166.0</ele><time>2026-04-11T07:28:51.999Z</time></trkpt><trkpt lat="45.55079080687916" lon="9.055608652128841"><ele>166.0</ele><time>2026-04-11T07:28:52.999Z</time></trkpt><trkpt lat="45.55093663505197" lon="9.055324759214752"><ele>165.5</ele><time>2026-04-11T07:28:53.999Z</time></trkpt><trkpt lat="45.551080083231575" lon="9.055057114199858"><ele>165.0</ele><time>2026-04-11T07:28:54.999Z</time></trkpt><trkpt lat="45.55122130761669" lon="9.054792652646286"><ele>163.5</ele><time>2026-04-11T07:28:55.999Z</time></trkpt><trkpt lat="45.551359153288665" lon="9.054534396051242"><ele>162.0</ele><time>2026-04-11T07:28:56.999Z</time></trkpt><trkpt lat="45.551502715723515" lon="9.054265423927948"><ele>163.0</ele><time>2026-04-11T07:28:57.999Z</time></trkpt><trkpt lat="45.55164533854907" lon="9.053998217414696"><ele>164.0</ele><time>2026-04-11T07:28:58.999Z</time></trkpt><trkpt lat="45.55178361904929" lon="9.053738436327096"><ele>164.0</ele><time>2026-04-11T07:28:59.999Z</time></trkpt><trkpt lat="45.55192136366963" lon="9.05347689784587"><ele>164.0</ele><time>2026-04-11T07:29:00.999Z</time></trkpt><trkpt lat="45.552039679784194" lon="9.053252248309134"><ele>164.0</ele><time>2026-04-11T07:29:01.999Z</time></trkpt><trkpt lat="45.55216537408629" lon="9.05303023914024"><ele>164.5</ele><time>2026-04-11T07:29:02.999Z</time></trkpt><trkpt lat="45.552300175232055" lon="9.052784392538458"><ele>165.0</ele><time>2026-04-11T07:29:03.999Z</time></trkpt><trkpt lat="45.55244006344788" lon="9.052519426576792"><ele>164.33333333333334</ele><time>2026-04-11T07:29:04.999Z</time></trkpt><trkpt lat="45.55256172474223" lon="9.052263448905377"><ele>163.66666666666669</ele><time>2026-04-11T07:29:05.999Z</time></trkpt><trkpt lat="45.55269853994636" lon="9.052000327288768"><ele>163.0</ele><time>2026-04-11T07:29:06.999Z</time></trkpt><trkpt lat="45.55283982473638" lon="9.051726839307626"><ele>164.0</ele><time>2026-04-11T07:29:07.999Z</time></trkpt><trkpt lat="45.55297696681314" lon="9.05146084658804"><ele>165.0</ele><time>2026-04-11T07:29:08.999Z</time></trkpt><trkpt lat="45.553106879849324" lon="9.051205849490128"><ele>165.0</ele><time>2026-04-11T07:29:09.999Z</time></trkpt><trkpt lat="45.553238818162114" lon="9.05094645888061"><ele>165.0</ele><time>2026-04-11T07:29:10.999Z</time></trkpt><trkpt lat="45.55337583569355" lon="9.050677082656863"><ele>165.0</ele><time>2026-04-11T07:29:11.999Z</time></trkpt><trkpt lat="45.55351406221027" lon="9.050404011010517"><ele>165.0</ele><time>2026-04-11T07:29:12.999Z</time></trkpt><trkpt lat="45.55365063110892" lon="9.050132053017053"><ele>164.5</ele><time>2026-04-11T07:29:13.999Z</time></trkpt><trkpt lat="45.553833453936065" lon="9.049850716459062"><ele>164.0</ele><time>2026-04-11T07:29:14.999Z</time></trkpt><trkpt lat="45.55395560879366" lon="9.049554572548338"><ele>164.0</ele><time>2026-04-11T07:29:15.999Z</time></trkpt><trkpt lat="45.554088796019705" lon="9.049271720644274"><ele>164.0</ele><time>2026-04-11T07:29:16.999Z</time></trkpt><trkpt lat="45.55421272610391" lon="9.048964515729034"><ele>164.5</ele><time>2026-04-11T07:29:17.999Z</time></trkpt><trkpt lat="45.55434341510453" lon="9.048672289995144"><ele>165.0</ele><time>2026-04-11T07:29:18.999Z</time></trkpt><trkpt lat="45.554483577875324" lon="9.04836628153575"><ele>164.5</ele><time>2026-04-11T07:29:19.999Z</time></trkpt><trkpt lat="45.55460059684405" lon="9.04804836251071"><ele>164.0</ele><time>2026-04-11T07:29:20.999Z</time></trkpt><trkpt lat="45.554814967983724" lon="9.047819817705124"><ele>164.0</ele><time>2026-04-11T07:29:21.999Z</time></trkpt><trkpt lat="45.554974152048565" lon="9.047521014110593"><ele>164.0</ele><time>2026-04-11T07:29:22.999Z</time></trkpt><trkpt lat="45.5551337678375" lon="9.047221400095333"><ele>164.5</ele><time>2026-04-11T07:29:23.999Z</time></trkpt><trkpt lat="45.55530420179769" lon="9.046901664475202"><ele>165.0</ele><time>2026-04-11T07:29:24.999Z</time></trkpt><trkpt lat="45.55546318710944" lon="9.04660120929738"><ele>164.0</ele><time>2026-04-11T07:29:25.999Z</time></trkpt><trkpt lat="45.55563450218836" lon="9.046279032760127"><ele>163.0</ele><time>2026-04-11T07:29:26.999Z</time></trkpt><trkpt lat="45.55579667053869" lon="9.045977943528666"><ele>163.5</ele><time>2026-04-11T07:29:27.999Z</time></trkpt><trkpt lat="45.55597035992528" lon="9.04565906468463"><ele>164.0</ele><time>2026-04-11T07:29:28.999Z</time></trkpt><trkpt lat="45.556144206017656" lon="9.045336599030513"><ele>165.0</ele><time>2026-04-11T07:29:29.999Z</time></trkpt><trkpt lat="45.55631903118098" lon="9.045020249450289"><ele>166.0</ele><time>2026-04-11T07:29:31Z</time></trkpt><trkpt lat="45.556502897657985" lon="9.04469299232954"><ele>166.0</ele><time>2026-04-11T07:29:32Z</time></trkpt><trkpt lat="45.55668362192089" lon="9.044360923416741"><ele>166.0</ele><time>2026-04-11T07:29:33Z</time></trkpt><trkpt lat="45.556859488727824" lon="9.04402962084847"><ele>166.0</ele><time>2026-04-11T07:29:34Z</time></trkpt><trkpt lat="45.557028479806995" lon="9.043711297919778"><ele>166.0</ele><time>2026-04-11T07:29:35Z</time></trkpt><trkpt lat="45.55719897722391" lon="9.04338949641485"><ele>167.0</ele><time>2026-04-11T07:29:36Z</time></trkpt><trkpt lat="45.55737116282258" lon="9.043049968795632"><ele>168.0</ele><time>2026-04-11T07:29:37Z</time></trkpt><trkpt lat="45.55753733956974" lon="9.042718333265977"><ele>167.0</ele><time>2026-04-11T07:29:38Z</time></trkpt><trkpt lat="45.55770585415524" lon="9.042383215190197"><ele>166.0</ele><time>2026-04-11T07:29:39Z</time></trkpt><trkpt lat="45.55771395237876" lon="9.041863831712526"><ele>166.5</ele><time>2026-04-11T07:29:40Z</time></trkpt><trkpt lat="45.55790892062609" lon="9.041524812199148"><ele>167.0</ele><time>2026-04-11T07:29:41Z</time></trkpt><trkpt lat="45.55807196527489" lon="9.04119687694969"><ele>167.0</ele><time>2026-04-11T07:29:42Z</time></trkpt><trkpt lat="45.55822364341855" lon="9.040846611358782"><ele>167.0</ele><time>2026-04-11T07:29:43Z</time></trkpt><trkpt lat="45.55859237225659" lon="9.040720218221725"><ele>168.0</ele><time>2026-04-11T07:29:44Z</time></trkpt><trkpt lat="45.55877101863153" lon="9.040387321491869"><ele>169.0</ele><time>2026-04-11T07:29:45Z</time></trkpt><trkpt lat="45.55894058125828" lon="9.040072010370944"><ele>169.0</ele><time>2026-04-11T07:29:46Z</time></trkpt><trkpt lat="45.5591128957806" lon="9.039751582971075"><ele>169.0</ele><time>2026-04-11T07:29:47Z</time></trkpt><trkpt lat="45.55929327957133" lon="9.039411190696281"><ele>168.5</ele><time>2026-04-11T07:29:48Z</time></trkpt><trkpt lat="45.55946863873201" lon="9.039073946364383"><ele>168.0</ele><time>2026-04-11T07:29:49Z</time></trkpt><trkpt lat="45.559645214393484" lon="9.038734362113955"><ele>169.0</ele><time>2026-04-11T07:29:50Z</time></trkpt><trkpt lat="45.559821346312724" lon="9.03839563201481"><ele>170.0</ele><time>2026-04-11T07:29:51Z</time></trkpt><trkpt lat="45.55999531130425" lon="9.038062119128247"><ele>170.0</ele><time>2026-04-11T07:29:52Z</time></trkpt><trkpt lat="45.56016314418748" lon="9.037749769085815"><ele>170.0</ele><time>2026-04-11T07:29:53Z</time></trkpt><trkpt lat="45.56035317195358" lon="9.037418356521828"><ele>170.0</ele><time>2026-04-11T07:29:54Z</time></trkpt><trkpt lat="45.56053498091753" lon="9.037080391782078"><ele>170.0</ele><time>2026-04-11T07:29:55Z</time></trkpt><trkpt lat="45.56071187444897" lon="9.036750013022207"><ele>171.5</ele><time>2026-04-11T07:29:56Z</time></trkpt><trkpt lat="45.56088172076863" lon="9.03644145530447"><ele>173.0</ele><time>2026-04-11T07:29:57Z</time></trkpt><trkpt lat="45.56106618228245" lon="9.036099961150391"><ele>172.0</ele><time>2026-04-11T07:29:58Z</time></trkpt><trkpt lat="45.56123581841244" lon="9.035776907437858"><ele>171.0</ele><time>2026-04-11T07:29:59Z</time></trkpt><trkpt lat="45.561404905465196" lon="9.035454904288587"><ele>171.0</ele><time>2026-04-11T07:30:00Z</time></trkpt><trkpt lat="45.56157654925807" lon="9.035128029871052"><ele>171.0</ele><time>2026-04-11T07:30:01Z</time></trkpt><trkpt lat="45.5617564368535" lon="9.034785455968592"><ele>171.0</ele><time>2026-04-11T07:30:02Z</time></trkpt><trkpt lat="45.561932318621714" lon="9.034450508719738"><ele>171.0</ele><time>2026-04-11T07:30:03Z</time></trkpt><trkpt lat="45.56210194621074" lon="9.034127471674275"><ele>171.0</ele><time>2026-04-11T07:30:04Z</time></trkpt><trkpt lat="45.56226975854626" lon="9.033810893731996"><ele>171.0</ele><time>2026-04-11T07:30:05Z</time></trkpt><trkpt lat="45.56244583242507" lon="9.033481654369123"><ele>171.5</ele><time>2026-04-11T07:30:06Z</time></trkpt><trkpt lat="45.56262308554296" lon="9.033150210092181"><ele>172.0</ele><time>2026-04-11T07:30:07Z</time></trkpt><trkpt lat="45.562803376123725" lon="9.03281369188272"><ele>172.5</ele><time>2026-04-11T07:30:08Z</time></trkpt><trkpt lat="45.56297493021355" lon="9.03249371498121"><ele>173.0</ele><time>2026-04-11T07:30:09Z</time></trkpt><trkpt lat="45.56314556759258" lon="9.03217594770247"><ele>173.0</ele><time>2026-04-11T07:30:10Z</time></trkpt><trkpt lat="45.56331692247052" lon="9.031857084990662"><ele>173.0</ele><time>2026-04-11T07:30:11Z</time></trkpt><trkpt lat="45.56348974126546" lon="9.031537830160753"><ele>173.5</ele><time>2026-04-11T07:30:12Z</time></trkpt><trkpt lat="45.56365752902888" lon="9.031220950175753"><ele>174.0</ele><time>2026-04-11T07:30:13Z</time></trkpt><trkpt lat="45.56382886663168" lon="9.03089940506575"><ele>173.5</ele><time>2026-04-11T07:30:14Z</time></trkpt><trkpt lat="45.56399496902738" lon="9.030588038268835"><ele>173.0</ele><time>2026-04-11T07:30:15Z</time></trkpt><trkpt lat="45.564160190655635" lon="9.030280378007618"><ele>173.0</ele><time>2026-04-11T07:30:16Z</time></trkpt><trkpt lat="45.564319696807004" lon="9.029982456006223"><ele>173.0</ele><time>2026-04-11T07:30:17Z</time></trkpt><trkpt lat="45.56448052789877" lon="9.029680209882002"><ele>174.0</ele><time>2026-04-11T07:30:18Z</time></trkpt><trkpt lat="45.56464651845658" lon="9.029368269499995"><ele>175.0</ele><time>2026-04-11T07:30:19Z</time></trkpt><trkpt lat="45.56480995799413" lon="9.029059418790894"><ele>175.0</ele><time>2026-04-11T07:30:20Z</time></trkpt><trkpt lat="45.56498832559655" lon="9.02872614953992"><ele>175.0</ele><time>2026-04-11T07:30:21Z</time></trkpt><trkpt lat="45.565160056444974" lon="9.028404601192054"><ele>174.5</ele><time>2026-04-11T07:30:22Z</time></trkpt><trkpt lat="45.565330343038674" lon="9.028085182595122"><ele>174.0</ele><time>2026-04-11T07:30:23Z</time></trkpt><trkpt lat="45.56549854140191" lon="9.027769294737782"><ele>174.0</ele><time>2026-04-11T07:30:24Z</time></trkpt><trkpt lat="45.56566804824902" lon="9.027453639455342"><ele>174.0</ele><time>2026-04-11T07:30:25Z</time></trkpt><trkpt lat="45.56584120894123" lon="9.02713118503435"><ele>174.0</ele><time>2026-04-11T07:30:26Z</time></trkpt><trkpt lat="45.56601057476671" lon="9.026812816630985"><ele>174.0</ele><time>2026-04-11T07:30:27Z</time></trkpt><trkpt lat="45.56615842372782" lon="9.026533624429131"><ele>174.5</ele><time>2026-04-11T07:30:28Z</time></trkpt><trkpt lat="45.566331728584736" lon="9.026209906443658"><ele>175.0</ele><time>2026-04-11T07:30:29Z</time></trkpt><trkpt lat="45.56649642302075" lon="9.025905461055327"><ele>175.5</ele><time>2026-04-11T07:30:30Z</time></trkpt><trkpt lat="45.56666994749386" lon="9.02558590922766"><ele>176.0</ele><time>2026-04-11T07:30:31Z</time></trkpt><trkpt lat="45.56683773201396" lon="9.02526845817236"><ele>176.0</ele><time>2026-04-11T07:30:32Z</time></trkpt><trkpt lat="45.5670092852427" lon="9.0249451569057"><ele>176.0</ele><time>2026-04-11T07:30:33Z</time></trkpt><trkpt lat="45.56718560278177" lon="9.024616177038506"><ele>176.0</ele><time>2026-04-11T07:30:34Z</time></trkpt><trkpt lat="45.56735668415088" lon="9.02429758961723"><ele>176.0</ele><time>2026-04-11T07:30:35Z</time></trkpt><trkpt lat="45.56752795716357" lon="9.023978645038145"><ele>176.0</ele><time>2026-04-11T07:30:36Z</time></trkpt><trkpt lat="45.56743385734078" lon="9.023367504405325"><ele>176.0</ele><time>2026-04-11T07:30:37Z</time></trkpt><trkpt lat="45.56759087612024" lon="9.023043733146595"><ele>176.0</ele><time>2026-04-11T07:30:38Z</time></trkpt><trkpt lat="45.5677647523999" lon="9.022713123792627"><ele>176.0</ele><time>2026-04-11T07:30:39Z</time></trkpt><trkpt lat="45.56793270624891" lon="9.022399147099513"><ele>177.0</ele><time>2026-04-11T07:30:40Z</time></trkpt><trkpt lat="45.56812677451947" lon="9.02208332435018"><ele>178.0</ele><time>2026-04-11T07:30:41Z</time></trkpt><trkpt lat="45.568302819251436" lon="9.02176753024953"><ele>177.5</ele><time>2026-04-11T07:30:42Z</time></trkpt><trkpt lat="45.568464502555926" lon="9.021462290300667"><ele>177.0</ele><time>2026-04-11T07:30:43Z</time></trkpt><trkpt lat="45.5686186470766" lon="9.02113930878195"><ele>178.5</ele><time>2026-04-11T07:30:44Z</time></trkpt><trkpt lat="45.568747415838644" lon="9.02081109942841"><ele>180.0</ele><time>2026-04-11T07:30:45Z</time></trkpt><trkpt lat="45.56890706345115" lon="9.020550464654436"><ele>180.0</ele><time>2026-04-11T07:30:46Z</time></trkpt><trkpt lat="45.569038559785994" lon="9.02023214906355"><ele>180.0</ele><time>2026-04-11T07:30:47Z</time></trkpt><trkpt lat="45.56924664199181" lon="9.019937640961482"><ele>180.0</ele><time>2026-04-11T07:30:48Z</time></trkpt><trkpt lat="45.569478034739184" lon="9.01967134929148"><ele>180.0</ele><time>2026-04-11T07:30:49Z</time></trkpt><trkpt lat="45.56962458306124" lon="9.019359387575483"><ele>180.0</ele><time>2026-04-11T07:30:50Z</time></trkpt><trkpt lat="45.56978151998674" lon="9.019060349617632"><ele>180.0</ele><time>2026-04-11T07:30:51Z</time></trkpt><trkpt lat="45.569943680827016" lon="9.018757022766117"><ele>180.0</ele><time>2026-04-11T07:30:52Z</time></trkpt><trkpt lat="45.57013506550333" lon="9.01847967010511"><ele>180.0</ele><time>2026-04-11T07:30:53Z</time></trkpt><trkpt lat="45.570261182953715" lon="9.018166757293073"><ele>180.0</ele><time>2026-04-11T07:30:54Z</time></trkpt><trkpt lat="45.57043924030432" lon="9.017891091693366"><ele>180.0</ele><time>2026-04-11T07:30:55Z</time></trkpt><trkpt lat="45.570854930543774" lon="9.01785543688737"><ele>180.0</ele><time>2026-04-11T07:30:56Z</time></trkpt><trkpt lat="45.571013569724094" lon="9.017562644757879"><ele>180.0</ele><time>2026-04-11T07:30:57Z</time></trkpt><trkpt lat="45.571177088903084" lon="9.017260379213793"><ele>180.0</ele><time>2026-04-11T07:30:57.999Z</time></trkpt><trkpt lat="45.57133712740518" lon="9.016963120998916"><ele>180.0</ele><time>2026-04-11T07:30:58.999Z</time></trkpt><trkpt lat="45.57149053461723" lon="9.01667872210367"><ele>181.0</ele><time>2026-04-11T07:30:59.999Z</time></trkpt><trkpt lat="45.571638772615366" lon="9.016402141820517"><ele>182.0</ele><time>2026-04-11T07:31:00.999Z</time></trkpt><trkpt lat="45.57179921068178" lon="9.016120402837348"><ele>182.0</ele><time>2026-04-11T07:31:01.999Z</time></trkpt><trkpt lat="45.57196991810534" lon="9.015806199142258"><ele>182.0</ele><time>2026-04-11T07:31:02.999Z</time></trkpt><trkpt lat="45.572131571070045" lon="9.01548808636856"><ele>182.0</ele><time>2026-04-11T07:31:03.999Z</time></trkpt><trkpt lat="45.57233258535454" lon="9.01508572630732"><ele>182.0</ele><time>2026-04-11T07:31:04.999Z</time></trkpt><trkpt lat="45.57249160151219" lon="9.014828652138863"><ele>182.0</ele><time>2026-04-11T07:31:05.999Z</time></trkpt><trkpt lat="45.57259716089695" lon="9.014468007883275"><ele>182.0</ele><time>2026-04-11T07:31:06.999Z</time></trkpt><trkpt lat="45.57273702493233" lon="9.014187717764862"><ele>181.5</ele><time>2026-04-11T07:31:07.999Z</time></trkpt><trkpt lat="45.57290169843213" lon="9.013904607578274"><ele>181.0</ele><time>2026-04-11T07:31:08.999Z</time></trkpt><trkpt lat="45.573060456262375" lon="9.013646432215257"><ele>181.0</ele><time>2026-04-11T07:31:09.999Z</time></trkpt><trkpt lat="45.57322275660286" lon="9.013383336147037"><ele>181.0</ele><time>2026-04-11T07:31:10.999Z</time></trkpt><trkpt lat="45.573378766368776" lon="9.013117519866832"><ele>180.0</ele><time>2026-04-11T07:31:11.999Z</time></trkpt><trkpt lat="45.57353622003961" lon="9.012847487088397"><ele>179.0</ele><time>2026-04-11T07:31:12.999Z</time></trkpt><trkpt lat="45.57369066496575" lon="9.012578178522684"><ele>178.5</ele><time>2026-04-11T07:31:13.999Z</time></trkpt><trkpt lat="45.57385243355884" lon="9.012297977682843"><ele>178.0</ele><time>2026-04-11T07:31:14.999Z</time></trkpt><trkpt lat="45.57401617582678" lon="9.012017471956456"><ele>178.0</ele><time>2026-04-11T07:31:15.999Z</time></trkpt><trkpt lat="45.574173179267646" lon="9.011750742426324"><ele>178.0</ele><time>2026-04-11T07:31:16.999Z</time></trkpt><trkpt lat="45.57433321549319" lon="9.011476685367489"><ele>178.5</ele><time>2026-04-11T07:31:17.999Z</time></trkpt><trkpt lat="45.574499050994824" lon="9.011186100450407"><ele>179.0</ele><time>2026-04-11T07:31:18.999Z</time></trkpt><trkpt lat="45.57467388654727" lon="9.010873493787646"><ele>180.0</ele><time>2026-04-11T07:31:19.999Z</time></trkpt><trkpt lat="45.57483115410209" lon="9.010598896824288"><ele>181.0</ele><time>2026-04-11T07:31:20.999Z</time></trkpt><trkpt lat="45.5749816477409" lon="9.010337315133484"><ele>181.0</ele><time>2026-04-11T07:31:21.999Z</time></trkpt><trkpt lat="45.57514194396328" lon="9.010051636981679"><ele>181.0</ele><time>2026-04-11T07:31:22.999Z</time></trkpt><trkpt lat="45.57531046308156" lon="9.00974846858745"><ele>182.5</ele><time>2026-04-11T07:31:23.999Z</time></trkpt><trkpt lat="45.5754658403166" lon="9.009461725211626"><ele>184.0</ele><time>2026-04-11T07:31:24.999Z</time></trkpt><trkpt lat="45.57561907945463" lon="9.009167694756728"><ele>184.0</ele><time>2026-04-11T07:31:25.999Z</time></trkpt><trkpt lat="45.57578611915606" lon="9.008861072358114"><ele>184.0</ele><time>2026-04-11T07:31:26.999Z</time></trkpt><trkpt lat="45.57595803147499" lon="9.008556361102029"><ele>184.5</ele><time>2026-04-11T07:31:27.999Z</time></trkpt><trkpt lat="45.57610636474241" lon="9.008275429134704"><ele>185.0</ele><time>2026-04-11T07:31:28.999Z</time></trkpt><trkpt lat="45.576252327857894" lon="9.007994607568289"><ele>185.0</ele><time>2026-04-11T07:31:29.999Z</time></trkpt><trkpt lat="45.57639656817643" lon="9.007726133033005"><ele>185.0</ele><time>2026-04-11T07:31:30.999Z</time></trkpt><trkpt lat="45.5765378352537" lon="9.007464205567187"><ele>185.0</ele><time>2026-04-11T07:31:31.999Z</time></trkpt><trkpt lat="45.57667720127644" lon="9.007205039026829"><ele>185.0</ele><time>2026-04-11T07:31:32.999Z</time></trkpt><trkpt lat="45.576825338341166" lon="9.006928198766325"><ele>185.0</ele><time>2026-04-11T07:31:33.999Z</time></trkpt><trkpt lat="45.576967133733646" lon="9.006661239196923"><ele>185.0</ele><time>2026-04-11T07:31:34.999Z</time></trkpt><trkpt lat="45.57710410045539" lon="9.006397106523945"><ele>184.5</ele><time>2026-04-11T07:31:35.999Z</time></trkpt><trkpt lat="45.57724593600362" lon="9.006123584010885"><ele>184.0</ele><time>2026-04-11T07:31:36.999Z</time></trkpt><trkpt lat="45.57737759063061" lon="9.005869694994866"><ele>183.5</ele><time>2026-04-11T07:31:37.999Z</time></trkpt><trkpt lat="45.577511472201685" lon="9.005610676328509"><ele>183.0</ele><time>2026-04-11T07:31:38.999Z</time></trkpt><trkpt lat="45.577648450680954" lon="9.005333773431781"><ele>183.0</ele><time>2026-04-11T07:31:39.999Z</time></trkpt><trkpt lat="45.57778607446931" lon="9.005053512758032"><ele>183.0</ele><time>2026-04-11T07:31:40.999Z</time></trkpt><trkpt lat="45.577918524878314" lon="9.00478389171748"><ele>185.0</ele><time>2026-04-11T07:31:41.999Z</time></trkpt><trkpt lat="45.57805135650165" lon="9.004532767223807"><ele>187.0</ele><time>2026-04-11T07:31:42.999Z</time></trkpt><trkpt lat="45.57818818759688" lon="9.004261646090862"><ele>185.5</ele><time>2026-04-11T07:31:43.999Z</time></trkpt><trkpt lat="45.57831138366335" lon="9.003988037318235"><ele>184.0</ele><time>2026-04-11T07:31:44.999Z</time></trkpt><trkpt lat="45.57843950129477" lon="9.003703874836674"><ele>184.0</ele><time>2026-04-11T07:31:45.999Z</time></trkpt><trkpt lat="45.578565990247775" lon="9.003423324757804"><ele>184.0</ele><time>2026-04-11T07:31:46.999Z</time></trkpt><trkpt lat="45.57869431163142" lon="9.003138711080659"><ele>185.5</ele><time>2026-04-11T07:31:47.999Z</time></trkpt><trkpt lat="45.578830684059824" lon="9.002835161983965"><ele>187.0</ele><time>2026-04-11T07:31:48.999Z</time></trkpt><trkpt lat="45.578947794929746" lon="9.002564088912933"><ele>186.5</ele><time>2026-04-11T07:31:49.999Z</time></trkpt><trkpt lat="45.57906559396935" lon="9.00228558862223"><ele>186.0</ele><time>2026-04-11T07:31:50.999Z</time></trkpt><trkpt lat="45.579183916380764" lon="9.002003251609906"><ele>186.0</ele><time>2026-04-11T07:31:51.999Z</time></trkpt><trkpt lat="45.57930296123717" lon="9.001719232821658"><ele>186.0</ele><time>2026-04-11T07:31:52.999Z</time></trkpt><trkpt lat="45.57941789566241" lon="9.001445021227271"><ele>189.5</ele><time>2026-04-11T07:31:53.999Z</time></trkpt><trkpt lat="45.57953242010713" lon="9.00115164671029"><ele>193.0</ele><time>2026-04-11T07:31:54.999Z</time></trkpt><trkpt lat="45.57964056923201" lon="9.000873846010997"><ele>191.5</ele><time>2026-04-11T07:31:55.999Z</time></trkpt><trkpt lat="45.57976390150665" lon="9.000575451801124"><ele>190.0</ele><time>2026-04-11T07:31:56.999Z</time></trkpt><trkpt lat="45.57989617212804" lon="9.000262139510829"><ele>190.0</ele><time>2026-04-11T07:31:57.999Z</time></trkpt><trkpt lat="45.580010714443205" lon="8.999990817019148"><ele>190.0</ele><time>2026-04-11T07:31:58.999Z</time></trkpt><trkpt lat="45.58013303404873" lon="8.999701076248703"><ele>190.0</ele><time>2026-04-11T07:31:59.999Z</time></trkpt><trkpt lat="45.580256050995615" lon="8.999409683282824"><ele>190.0</ele><time>2026-04-11T07:32:00.999Z</time></trkpt><trkpt lat="45.58037137768545" lon="8.999136067029369"><ele>192.0</ele><time>2026-04-11T07:32:01.999Z</time></trkpt><trkpt lat="45.58048584209464" lon="8.998863838620872"><ele>194.0</ele><time>2026-04-11T07:32:02.999Z</time></trkpt><trkpt lat="45.58051185011928" lon="8.998484473783247"><ele>193.0</ele><time>2026-04-11T07:32:03.999Z</time></trkpt><trkpt lat="45.58066270925622" lon="8.99820345164183"><ele>192.0</ele><time>2026-04-11T07:32:04.999Z</time></trkpt><trkpt lat="45.58077747101378" lon="8.997906184781828"><ele>192.0</ele><time>2026-04-11T07:32:05.999Z</time></trkpt><trkpt lat="45.58089341242512" lon="8.997615941552462"><ele>192.0</ele><time>2026-04-11T07:32:06.999Z</time></trkpt><trkpt lat="45.581098100056316" lon="8.997408287913682"><ele>194.0</ele><time>2026-04-11T07:32:07.999Z</time></trkpt><trkpt lat="45.58120994276027" lon="8.997142162137017"><ele>196.0</ele><time>2026-04-11T07:32:08.999Z</time></trkpt><trkpt lat="45.581335698058545" lon="8.996839680601214"><ele>191.5</ele><time>2026-04-11T07:32:09.999Z</time></trkpt><trkpt lat="45.58145681397929" lon="8.99654911708271"><ele>187.0</ele><time>2026-04-11T07:32:10.999Z</time></trkpt><trkpt lat="45.58158856904525" lon="8.996249685993156"><ele>187.0</ele><time>2026-04-11T07:32:11.999Z</time></trkpt><trkpt lat="45.581732895909425" lon="8.995946973646817"><ele>187.0</ele><time>2026-04-11T07:32:12.999Z</time></trkpt><trkpt lat="45.58186063002773" lon="8.995640512219536"><ele>187.0</ele><time>2026-04-11T07:32:13.999Z</time></trkpt><trkpt lat="45.58198707075361" lon="8.995340201555072"><ele>187.0</ele><time>2026-04-11T07:32:14.999Z</time></trkpt><trkpt lat="45.58211203009833" lon="8.995043409034405"><ele>186.0</ele><time>2026-04-11T07:32:15.999Z</time></trkpt><trkpt lat="45.58222897930635" lon="8.994765620338162"><ele>185.0</ele><time>2026-04-11T07:32:16.999Z</time></trkpt><trkpt lat="45.582391282822435" lon="8.994470976517114"><ele>185.0</ele><time>2026-04-11T07:32:17.999Z</time></trkpt><trkpt lat="45.58251966925084" lon="8.994188032704647"><ele>185.0</ele><time>2026-04-11T07:32:18.999Z</time></trkpt><trkpt lat="45.58264781156556" lon="8.993913542365695"><ele>186.0</ele><time>2026-04-11T07:32:19.999Z</time></trkpt><trkpt lat="45.58276327851091" lon="8.993614818143008"><ele>187.0</ele><time>2026-04-11T07:32:20.999Z</time></trkpt><trkpt lat="45.58287650490999" lon="8.993322636659087"><ele>189.0</ele><time>2026-04-11T07:32:21.999Z</time></trkpt><trkpt lat="45.58296782200908" lon="8.992976865507726"><ele>191.0</ele><time>2026-04-11T07:32:22.999Z</time></trkpt><trkpt lat="45.583079768560516" lon="8.992655829636918"><ele>191.5</ele><time>2026-04-11T07:32:23.999Z</time></trkpt><trkpt lat="45.58320873521718" lon="8.992390386927262"><ele>192.0</ele><time>2026-04-11T07:32:24.999Z</time></trkpt><trkpt lat="45.583330414796" lon="8.992098971652675"><ele>192.0</ele><time>2026-04-11T07:32:25.999Z</time></trkpt><trkpt lat="45.583424099025976" lon="8.991843697270879"><ele>192.0</ele><time>2026-04-11T07:32:26.999Z</time></trkpt><trkpt lat="45.58355836588628" lon="8.991596903383977"><ele>192.0</ele><time>2026-04-11T07:32:27.999Z</time></trkpt><trkpt lat="45.58367999910463" lon="8.991341572200533"><ele>192.66666666666669</ele><time>2026-04-11T07:32:28.999Z</time></trkpt><trkpt lat="45.58381092250971" lon="8.99109967515355"><ele>193.33333333333334</ele><time>2026-04-11T07:32:29.999Z</time></trkpt><trkpt lat="45.58393184118878" lon="8.990832710712619"><ele>194.0</ele><time>2026-04-11T07:32:30.999Z</time></trkpt><trkpt lat="45.584000308504905" lon="8.990510101797282"><ele>194.0</ele><time>2026-04-11T07:32:31.999Z</time></trkpt><trkpt lat="45.584119778445924" lon="8.99022871665106"><ele>194.0</ele><time>2026-04-11T07:32:32.999Z</time></trkpt><trkpt lat="45.58423786869842" lon="8.989945770788944"><ele>194.0</ele><time>2026-04-11T07:32:33.999Z</time></trkpt><trkpt lat="45.58435897409023" lon="8.989655596596473"><ele>194.0</ele><time>2026-04-11T07:32:34.999Z</time></trkpt><trkpt lat="45.58448321348169" lon="8.989360053226116"><ele>194.0</ele><time>2026-04-11T07:32:35.999Z</time></trkpt><trkpt lat="45.58460666084458" lon="8.989066891277629"><ele>194.0</ele><time>2026-04-11T07:32:36.999Z</time></trkpt><trkpt lat="45.584734099735115" lon="8.98876424886014"><ele>194.0</ele><time>2026-04-11T07:32:37.999Z</time></trkpt><trkpt lat="45.58486322169551" lon="8.988457609933056"><ele>194.0</ele><time>2026-04-11T07:32:38.999Z</time></trkpt><trkpt lat="45.58499698830711" lon="8.988139800758557"><ele>193.5</ele><time>2026-04-11T07:32:39.999Z</time></trkpt><trkpt lat="45.585118364193875" lon="8.987849676595255"><ele>193.0</ele><time>2026-04-11T07:32:40.999Z</time></trkpt><trkpt lat="45.58523927724905" lon="8.98756065883015"><ele>192.0</ele><time>2026-04-11T07:32:41.999Z</time></trkpt><trkpt lat="45.585365612321795" lon="8.987258680827738"><ele>191.0</ele><time>2026-04-11T07:32:42.999Z</time></trkpt><trkpt lat="45.58549330908606" lon="8.986954224312433"><ele>192.5</ele><time>2026-04-11T07:32:43.999Z</time></trkpt><trkpt lat="45.585622363437444" lon="8.986644893655923"><ele>194.0</ele><time>2026-04-11T07:32:44.999Z</time></trkpt><trkpt lat="45.58575133998414" lon="8.986336220030703"><ele>194.0</ele><time>2026-04-11T07:32:45.999Z</time></trkpt><trkpt lat="45.585883963856055" lon="8.986018929744892"><ele>194.0</ele><time>2026-04-11T07:32:46.999Z</time></trkpt><trkpt lat="45.58602192234533" lon="8.985689046784305"><ele>194.0</ele><time>2026-04-11T07:32:47.999Z</time></trkpt><trkpt lat="45.58614010508462" lon="8.985407029444783"><ele>194.0</ele><time>2026-04-11T07:32:48.999Z</time></trkpt><trkpt lat="45.586262726476036" lon="8.985114420725125"><ele>194.5</ele><time>2026-04-11T07:32:49.999Z</time></trkpt><trkpt lat="45.586390272821916" lon="8.984814500887069"><ele>195.0</ele><time>2026-04-11T07:32:50.999Z</time></trkpt><trkpt lat="45.586526409163255" lon="8.98450302069329"><ele>195.0</ele><time>2026-04-11T07:32:51.999Z</time></trkpt><trkpt lat="45.58665313840729" lon="8.98420229889855"><ele>195.0</ele><time>2026-04-11T07:32:52.999Z</time></trkpt><trkpt lat="45.58677302012623" lon="8.983913320549517"><ele>195.0</ele><time>2026-04-11T07:32:53.999Z</time></trkpt><trkpt lat="45.586896630690525" lon="8.983615353079886"><ele>195.0</ele><time>2026-04-11T07:32:54.999Z</time></trkpt><trkpt lat="45.58702137098416" lon="8.983317649597833"><ele>191.5</ele><time>2026-04-11T07:32:55.999Z</time></trkpt><trkpt lat="45.58714920959178" lon="8.983014204439668"><ele>188.0</ele><time>2026-04-11T07:32:56.999Z</time></trkpt><trkpt lat="45.58728049627389" lon="8.98270257563243"><ele>190.0</ele><time>2026-04-11T07:32:57.999Z</time></trkpt><trkpt lat="45.587403712881645" lon="8.98240848560514"><ele>192.0</ele><time>2026-04-11T07:32:58.999Z</time></trkpt><trkpt lat="45.58753376811227" lon="8.982096650281802"><ele>192.0</ele><time>2026-04-11T07:32:59.999Z</time></trkpt><trkpt lat="45.5876543653125" lon="8.981807492327377"><ele>192.0</ele><time>2026-04-11T07:33:00.999Z</time></trkpt><trkpt lat="45.58777147805511" lon="8.981530427036445"><ele>193.0</ele><time>2026-04-11T07:33:01.999Z</time></trkpt><trkpt lat="45.587898129124156" lon="8.98123136725126"><ele>194.0</ele><time>2026-04-11T07:33:02.999Z</time></trkpt><trkpt lat="45.588023456074964" lon="8.980935433090831"><ele>195.0</ele><time>2026-04-11T07:33:03.999Z</time></trkpt><trkpt lat="45.588142032072945" lon="8.980655439594733"><ele>196.0</ele><time>2026-04-11T07:33:04.999Z</time></trkpt><trkpt lat="45.5882652504901" lon="8.980364483861473"><ele>196.0</ele><time>2026-04-11T07:33:05.999Z</time></trkpt><trkpt lat="45.58837029787717" lon="8.980116435660412"><ele>196.0</ele><time>2026-04-11T07:33:06.999Z</time></trkpt><trkpt lat="45.588476593287055" lon="8.979863436920635"><ele>196.0</ele><time>2026-04-11T07:33:07.999Z</time></trkpt><trkpt lat="45.58857666467381" lon="8.979625188004354"><ele>195.66666666666666</ele><time>2026-04-11T07:33:08.999Z</time></trkpt><trkpt lat="45.5886916537671" lon="8.979351424550561"><ele>195.33333333333331</ele><time>2026-04-11T07:33:09.999Z</time></trkpt><trkpt lat="45.588801496163605" lon="8.97908991195852"><ele>195.0</ele><time>2026-04-11T07:33:10.999Z</time></trkpt><trkpt lat="45.588905077907" lon="8.978843307663768"><ele>195.0</ele><time>2026-04-11T07:33:11.999Z</time></trkpt><trkpt lat="45.589020352422594" lon="8.978569562523182"><ele>195.0</ele><time>2026-04-11T07:33:12.999Z</time></trkpt><trkpt lat="45.58913361679568" lon="8.978300627016887"><ele>195.0</ele><time>2026-04-11T07:33:13.999Z</time></trkpt><trkpt lat="45.58923929428444" lon="8.978049703542375"><ele>196.0</ele><time>2026-04-11T07:33:14.999Z</time></trkpt><trkpt lat="45.58934420646979" lon="8.977800598144661"><ele>197.0</ele><time>2026-04-11T07:33:15.999Z</time></trkpt><trkpt lat="45.58944503173218" lon="8.977561196563128"><ele>198.0</ele><time>2026-04-11T07:33:16.999Z</time></trkpt><trkpt lat="45.58956428640147" lon="8.977278033502179"><ele>197.5</ele><time>2026-04-11T07:33:17.999Z</time></trkpt><trkpt lat="45.58943205278248" lon="8.97682670941481"><ele>197.0</ele><time>2026-04-11T07:33:18.999Z</time></trkpt><trkpt lat="45.58955120996887" lon="8.976584419426896"><ele>197.0</ele><time>2026-04-11T07:33:19.999Z</time></trkpt><trkpt lat="45.58963073556293" lon="8.976301926505457"><ele>197.0</ele><time>2026-04-11T07:33:20.999Z</time></trkpt><trkpt lat="45.58975879871987" lon="8.976051866971346"><ele>197.0</ele><time>2026-04-11T07:33:21.999Z</time></trkpt><trkpt lat="45.5901111152243" lon="8.975972037681094"><ele>197.5</ele><time>2026-04-11T07:33:22.999Z</time></trkpt><trkpt lat="45.5902322673782" lon="8.975681145905538"><ele>198.0</ele><time>2026-04-11T07:33:23.999Z</time></trkpt><trkpt lat="45.59035231901164" lon="8.975396749304167"><ele>197.5</ele><time>2026-04-11T07:33:24.999Z</time></trkpt><trkpt lat="45.5904784368653" lon="8.975103715131189"><ele>197.0</ele><time>2026-04-11T07:33:25.999Z</time></trkpt><trkpt lat="45.59060709196414" lon="8.974805480381159"><ele>197.0</ele><time>2026-04-11T07:33:26.999Z</time></trkpt><trkpt lat="45.59075102903764" lon="8.974467415598149"><ele>197.0</ele><time>2026-04-11T07:33:27.999Z</time></trkpt><trkpt lat="45.590881569169355" lon="8.974144149277894"><ele>200.0</ele><time>2026-04-11T07:33:28.999Z</time></trkpt><trkpt lat="45.59100835308502" lon="8.973839057554324"><ele>203.0</ele><time>2026-04-11T07:33:29.999Z</time></trkpt><trkpt lat="45.591138381808754" lon="8.973528923935437"><ele>200.0</ele><time>2026-04-11T07:33:30.999Z</time></trkpt><trkpt lat="45.59126416330106" lon="8.973228918313659"><ele>197.0</ele><time>2026-04-11T07:33:31.999Z</time></trkpt><trkpt lat="45.591387434737335" lon="8.97293522281669"><ele>197.0</ele><time>2026-04-11T07:33:32.999Z</time></trkpt><trkpt lat="45.59151127606257" lon="8.972640399081026"><ele>197.0</ele><time>2026-04-11T07:33:34Z</time></trkpt><trkpt lat="45.59163900124288" lon="8.972336329426238"><ele>197.5</ele><time>2026-04-11T07:33:35Z</time></trkpt><trkpt lat="45.59177033650783" lon="8.97202434700955"><ele>198.0</ele><time>2026-04-11T07:33:36Z</time></trkpt><trkpt lat="45.59189912767084" lon="8.971719832114314"><ele>199.0</ele><time>2026-04-11T07:33:37Z</time></trkpt><trkpt lat="45.59202835051938" lon="8.971414295931103"><ele>200.0</ele><time>2026-04-11T07:33:38Z</time></trkpt><trkpt lat="45.59215681395826" lon="8.97111055510937"><ele>201.5</ele><time>2026-04-11T07:33:39Z</time></trkpt><trkpt lat="45.592285873047224" lon="8.970805407114794"><ele>203.0</ele><time>2026-04-11T07:33:40Z</time></trkpt><trkpt lat="45.592411880901" lon="8.970507472472296"><ele>203.0</ele><time>2026-04-11T07:33:41Z</time></trkpt><trkpt lat="45.592541505745274" lon="8.970199249822448"><ele>203.0</ele><time>2026-04-11T07:33:42Z</time></trkpt><trkpt lat="45.59266785174621" lon="8.969897196570345"><ele>202.5</ele><time>2026-04-11T07:33:43Z</time></trkpt><trkpt lat="45.5927933700279" lon="8.969597121420492"><ele>202.0</ele><time>2026-04-11T07:33:44Z</time></trkpt><trkpt lat="45.592920485151325" lon="8.969293229281474"><ele>202.5</ele><time>2026-04-11T07:33:45Z</time></trkpt><trkpt lat="45.593046424731355" lon="8.968992147464368"><ele>203.0</ele><time>2026-04-11T07:33:46Z</time></trkpt><trkpt lat="45.59318231646938" lon="8.968667273300037"><ele>203.0</ele><time>2026-04-11T07:33:47Z</time></trkpt><trkpt lat="45.59330490002451" lon="8.968375316594706"><ele>203.0</ele><time>2026-04-11T07:33:48Z</time></trkpt><trkpt lat="45.59343015521184" lon="8.96807771346786"><ele>203.5</ele><time>2026-04-11T07:33:49Z</time></trkpt><trkpt lat="45.59355442742614" lon="8.967782337553464"><ele>204.0</ele><time>2026-04-11T07:33:50Z</time></trkpt><trkpt lat="45.59368072571957" lon="8.967481516547313"><ele>204.0</ele><time>2026-04-11T07:33:51Z</time></trkpt><trkpt lat="45.59380417131418" lon="8.967187490226046"><ele>204.0</ele><time>2026-04-11T07:33:52Z</time></trkpt><trkpt lat="45.593927539521175" lon="8.966894578351924"><ele>204.5</ele><time>2026-04-11T07:33:53Z</time></trkpt><trkpt lat="45.594052560251214" lon="8.96659703985455"><ele>205.0</ele><time>2026-04-11T07:33:54Z</time></trkpt><trkpt lat="45.59417962326246" lon="8.966294798798955"><ele>205.0</ele><time>2026-04-11T07:33:55Z</time></trkpt><trkpt lat="45.59430360516745" lon="8.965999078662746"><ele>205.0</ele><time>2026-04-11T07:33:56Z</time></trkpt><trkpt lat="45.5944299078237" lon="8.965697631997465"><ele>205.0</ele><time>2026-04-11T07:33:57Z</time></trkpt><trkpt lat="45.5945542591849" lon="8.965401992896886"><ele>205.0</ele><time>2026-04-11T07:33:58Z</time></trkpt><trkpt lat="45.59467822653973" lon="8.965107266777135"><ele>205.0</ele><time>2026-04-11T07:33:59Z</time></trkpt><trkpt lat="45.59479561073521" lon="8.964828191755961"><ele>205.0</ele><time>2026-04-11T07:34:00Z</time></trkpt><trkpt lat="45.5949113704271" lon="8.964552284486258"><ele>205.0</ele><time>2026-04-11T07:34:01Z</time></trkpt><trkpt lat="45.59502660170783" lon="8.96427857488667"><ele>205.0</ele><time>2026-04-11T07:34:02Z</time></trkpt><trkpt lat="45.5951547046736" lon="8.963973612398926"><ele>204.66666666666666</ele><time>2026-04-11T07:34:03Z</time></trkpt><trkpt lat="45.59526917198931" lon="8.96370245348958"><ele>204.33333333333331</ele><time>2026-04-11T07:34:04Z</time></trkpt><trkpt lat="45.59538481702566" lon="8.963428502644097"><ele>204.0</ele><time>2026-04-11T07:34:05Z</time></trkpt><trkpt lat="45.59550006699863" lon="8.963155487734362"><ele>205.0</ele><time>2026-04-11T07:34:06Z</time></trkpt><trkpt lat="45.5956151669766" lon="8.962882533415103"><ele>206.0</ele><time>2026-04-11T07:34:07Z</time></trkpt><trkpt lat="45.59573643235747" lon="8.9625947271855"><ele>205.5</ele><time>2026-04-11T07:34:08Z</time></trkpt><trkpt lat="45.595863483677995" lon="8.962293188879938"><ele>205.0</ele><time>2026-04-11T07:34:09Z</time></trkpt><trkpt lat="45.595971528097294" lon="8.962036760453767"><ele>205.0</ele><time>2026-04-11T07:34:10Z</time></trkpt><trkpt lat="45.59608878428409" lon="8.961758460723836"><ele>205.0</ele><time>2026-04-11T07:34:11Z</time></trkpt><trkpt lat="45.5962063437936" lon="8.96147944121284"><ele>205.66666666666666</ele><time>2026-04-11T07:34:12Z</time></trkpt><trkpt lat="45.59632104815833" lon="8.961207198150376"><ele>206.33333333333331</ele><time>2026-04-11T07:34:13Z</time></trkpt><trkpt lat="45.59643609450185" lon="8.960934144917958"><ele>207.0</ele><time>2026-04-11T07:34:14Z</time></trkpt><trkpt lat="45.59656265313716" lon="8.960631237663115"><ele>207.0</ele><time>2026-04-11T07:34:15Z</time></trkpt><trkpt lat="45.59668111222464" lon="8.960348466910776"><ele>207.0</ele><time>2026-04-11T07:34:16Z</time></trkpt><trkpt lat="45.59680014655805" lon="8.960064377176472"><ele>207.0</ele><time>2026-04-11T07:34:17Z</time></trkpt><trkpt lat="45.59691655050334" lon="8.959786355025777"><ele>207.0</ele><time>2026-04-11T07:34:18Z</time></trkpt><trkpt lat="45.59704084899566" lon="8.959489650084317"><ele>207.0</ele><time>2026-04-11T07:34:19Z</time></trkpt><trkpt lat="45.597154783408726" lon="8.9592182612466"><ele>207.0</ele><time>2026-04-11T07:34:20Z</time></trkpt><trkpt lat="45.59727062719753" lon="8.958943488437814"><ele>207.0</ele><time>2026-04-11T07:34:21Z</time></trkpt><trkpt lat="45.59738647325497" lon="8.958669061839235"><ele>207.0</ele><time>2026-04-11T07:34:22Z</time></trkpt><trkpt lat="45.59750437968777" lon="8.958388209211504"><ele>207.0</ele><time>2026-04-11T07:34:23Z</time></trkpt><trkpt lat="45.59763404319503" lon="8.958079351289282"><ele>207.0</ele><time>2026-04-11T07:34:24Z</time></trkpt><trkpt lat="45.59776561021846" lon="8.957765816146305"><ele>207.0</ele><time>2026-04-11T07:34:25Z</time></trkpt><trkpt lat="45.597886409647245" lon="8.957477305973116"><ele>207.5</ele><time>2026-04-11T07:34:26Z</time></trkpt><trkpt lat="45.59800962400032" lon="8.957183028182358"><ele>208.0</ele><time>2026-04-11T07:34:27Z</time></trkpt><trkpt lat="45.59812685869469" lon="8.956903513672966"><ele>207.5</ele><time>2026-04-11T07:34:28Z</time></trkpt><trkpt lat="45.598247176762484" lon="8.956616726487054"><ele>207.0</ele><time>2026-04-11T07:34:29Z</time></trkpt><trkpt lat="45.59817905554927" lon="8.956125406930513"><ele>207.33333333333331</ele><time>2026-04-11T07:34:30Z</time></trkpt><trkpt lat="45.5982816260752" lon="8.955825323202868"><ele>207.66666666666666</ele><time>2026-04-11T07:34:31Z</time></trkpt><trkpt lat="45.59839063682288" lon="8.955564879735295"><ele>208.0</ele><time>2026-04-11T07:34:32Z</time></trkpt><trkpt lat="45.598499519019896" lon="8.955300185803202"><ele>208.0</ele><time>2026-04-11T07:34:33Z</time></trkpt><trkpt lat="45.59883661304947" lon="8.95521241822324"><ele>208.0</ele><time>2026-04-11T07:34:34Z</time></trkpt><trkpt lat="45.59895144616954" lon="8.954938582869172"><ele>208.5</ele><time>2026-04-11T07:34:35Z</time></trkpt><trkpt lat="45.599090980804746" lon="8.954613192798126"><ele>209.0</ele><time>2026-04-11T07:34:36Z</time></trkpt><trkpt lat="45.59922715676868" lon="8.954291937245456"><ele>208.5</ele><time>2026-04-11T07:34:37Z</time></trkpt><trkpt lat="45.59934839108838" lon="8.954000810373461"><ele>208.0</ele><time>2026-04-11T07:34:38Z</time></trkpt><trkpt lat="45.59947811899157" lon="8.95369165718024"><ele>208.0</ele><time>2026-04-11T07:34:39Z</time></trkpt><trkpt lat="45.59960278671578" lon="8.953395952100756"><ele>208.0</ele><time>2026-04-11T07:34:40Z</time></trkpt><trkpt lat="45.599726910956434" lon="8.953101093612723"><ele>208.0</ele><time>2026-04-11T07:34:41Z</time></trkpt><trkpt lat="45.59984269096499" lon="8.9528249398804"><ele>208.0</ele><time>2026-04-11T07:34:42Z</time></trkpt><trkpt lat="45.59996242324079" lon="8.95253935944311"><ele>209.0</ele><time>2026-04-11T07:34:43Z</time></trkpt><trkpt lat="45.60008871070451" lon="8.952240381726654"><ele>210.0</ele><time>2026-04-11T07:34:44Z</time></trkpt><trkpt lat="45.60021521678508" lon="8.951941382395084"><ele>212.0</ele><time>2026-04-11T07:34:45Z</time></trkpt><trkpt lat="45.600341449614646" lon="8.951643028981763"><ele>214.0</ele><time>2026-04-11T07:34:46Z</time></trkpt><trkpt lat="45.60046335696856" lon="8.951352478903745"><ele>214.0</ele><time>2026-04-11T07:34:47Z</time></trkpt><trkpt lat="45.60058684954389" lon="8.951056812811707"><ele>214.0</ele><time>2026-04-11T07:34:48Z</time></trkpt><trkpt lat="45.60070956097515" lon="8.950761480012808"><ele>212.0</ele><time>2026-04-11T07:34:49Z</time></trkpt><trkpt lat="45.600833641075596" lon="8.950462853218466"><ele>210.0</ele><time>2026-04-11T07:34:50Z</time></trkpt><trkpt lat="45.60096350349297" lon="8.950150310033358"><ele>210.0</ele><time>2026-04-11T07:34:51Z</time></trkpt><trkpt lat="45.601076997175504" lon="8.949877161868923"><ele>210.0</ele><time>2026-04-11T07:34:52Z</time></trkpt><trkpt lat="45.60119550504281" lon="8.949592407089103"><ele>210.0</ele><time>2026-04-11T07:34:53Z</time></trkpt><trkpt lat="45.60131721037963" lon="8.949301131797656"><ele>210.0</ele><time>2026-04-11T07:34:54Z</time></trkpt><trkpt lat="45.601439004431725" lon="8.949013802350374"><ele>209.5</ele><time>2026-04-11T07:34:55Z</time></trkpt><trkpt lat="45.60156501860072" lon="8.948720174266237"><ele>209.0</ele><time>2026-04-11T07:34:56Z</time></trkpt><trkpt lat="45.60168892796244" lon="8.9484301786931"><ele>209.0</ele><time>2026-04-11T07:34:57Z</time></trkpt><trkpt lat="45.601814643620216" lon="8.948134591579786"><ele>209.0</ele><time>2026-04-11T07:34:58Z</time></trkpt><trkpt lat="45.601936996940736" lon="8.947849184466074"><ele>211.0</ele><time>2026-04-11T07:34:59Z</time></trkpt><trkpt lat="45.60206205443733" lon="8.947558252718173"><ele>213.0</ele><time>2026-04-11T07:35:00Z</time></trkpt><trkpt lat="45.60218710997208" lon="8.947265546781415"><ele>213.5</ele><time>2026-04-11T07:35:01Z</time></trkpt><trkpt lat="45.60231181540155" lon="8.946967852895305"><ele>214.0</ele><time>2026-04-11T07:35:02Z</time></trkpt><trkpt lat="45.60243552329045" lon="8.946672540306471"><ele>214.0</ele><time>2026-04-11T07:35:03Z</time></trkpt><trkpt lat="45.60256242940643" lon="8.946369592976925"><ele>214.0</ele><time>2026-04-11T07:35:04Z</time></trkpt><trkpt lat="45.60268775811592" lon="8.946069154995616"><ele>214.5</ele><time>2026-04-11T07:35:05Z</time></trkpt><trkpt lat="45.60281656821995" lon="8.94575868460043"><ele>215.0</ele><time>2026-04-11T07:35:06Z</time></trkpt><trkpt lat="45.602938644153134" lon="8.945464523300556"><ele>215.0</ele><time>2026-04-11T07:35:07Z</time></trkpt><trkpt lat="45.60306487883261" lon="8.94516274719893"><ele>215.0</ele><time>2026-04-11T07:35:08Z</time></trkpt><trkpt lat="45.603198990384946" lon="8.944842136912635"><ele>215.0</ele><time>2026-04-11T07:35:09Z</time></trkpt><trkpt lat="45.60331621456361" lon="8.944561901381686"><ele>215.0</ele><time>2026-04-11T07:35:10Z</time></trkpt><trkpt lat="45.60343655723238" lon="8.94427393482516"><ele>215.0</ele><time>2026-04-11T07:35:11Z</time></trkpt><trkpt lat="45.60354839534928" lon="8.944005605583506"><ele>215.0</ele><time>2026-04-11T07:35:12Z</time></trkpt><trkpt lat="45.603668790960974" lon="8.94371333784467"><ele>215.0</ele><time>2026-04-11T07:35:13Z</time></trkpt><trkpt lat="45.60378462804974" lon="8.943432451378467"><ele>215.0</ele><time>2026-04-11T07:35:14Z</time></trkpt><trkpt lat="45.60389422702522" lon="8.94313453610539"><ele>215.0</ele><time>2026-04-11T07:35:15Z</time></trkpt><trkpt lat="45.604030287639" lon="8.942863706442536"><ele>215.0</ele><time>2026-04-11T07:35:16Z</time></trkpt><trkpt lat="45.60416396882823" lon="8.942579514996513"><ele>214.5</ele><time>2026-04-11T07:35:17Z</time></trkpt><trkpt lat="45.60429817594011" lon="8.942264547714903"><ele>214.0</ele><time>2026-04-11T07:35:18Z</time></trkpt><trkpt lat="45.60442957673827" lon="8.94197042692677"><ele>217.0</ele><time>2026-04-11T07:35:19Z</time></trkpt><trkpt lat="45.60455526604995" lon="8.941659294614716"><ele>220.0</ele><time>2026-04-11T07:35:20Z</time></trkpt><trkpt lat="45.60467635612614" lon="8.94132912981552"><ele>220.0</ele><time>2026-04-11T07:35:21Z</time></trkpt><trkpt lat="45.6047926061602" lon="8.941007716225492"><ele>220.0</ele><time>2026-04-11T07:35:22Z</time></trkpt><trkpt lat="45.604920751655044" lon="8.940726575993382"><ele>218.0</ele><time>2026-04-11T07:35:23Z</time></trkpt><trkpt lat="45.605047795642605" lon="8.940422986211157"><ele>216.0</ele><time>2026-04-11T07:35:24Z</time></trkpt><trkpt lat="45.605165754851456" lon="8.940141352484915"><ele>216.0</ele><time>2026-04-11T07:35:25Z</time></trkpt><trkpt lat="45.605290187354356" lon="8.939844580966694"><ele>216.0</ele><time>2026-04-11T07:35:26Z</time></trkpt><trkpt lat="45.60542066942045" lon="8.939540328333118"><ele>216.0</ele><time>2026-04-11T07:35:27Z</time></trkpt><trkpt lat="45.60555637512754" lon="8.93922389515971"><ele>216.0</ele><time>2026-04-11T07:35:28Z</time></trkpt><trkpt lat="45.60569214862667" lon="8.93890284526363"><ele>216.0</ele><time>2026-04-11T07:35:29Z</time></trkpt><trkpt lat="45.60581674450837" lon="8.9386046204383"><ele>216.0</ele><time>2026-04-11T07:35:30Z</time></trkpt><trkpt lat="45.60594750499873" lon="8.93829346672398"><ele>216.5</ele><time>2026-04-11T07:35:31Z</time></trkpt><trkpt lat="45.60596341217441" lon="8.937899739109106"><ele>217.0</ele><time>2026-04-11T07:35:32Z</time></trkpt><trkpt lat="45.60609225559855" lon="8.937618258752748"><ele>216.0</ele><time>2026-04-11T07:35:33Z</time></trkpt><trkpt lat="45.606196647296876" lon="8.9372980013664"><ele>215.0</ele><time>2026-04-11T07:35:34Z</time></trkpt><trkpt lat="45.60630281975539" lon="8.93698762881086"><ele>218.0</ele><time>2026-04-11T07:35:35Z</time></trkpt><trkpt lat="45.606402842518484" lon="8.936660315742872"><ele>221.0</ele><time>2026-04-11T07:35:36Z</time></trkpt><trkpt lat="45.60653551701797" lon="8.936369904117889"><ele>221.0</ele><time>2026-04-11T07:35:37Z</time></trkpt><trkpt lat="45.60664278839759" lon="8.936063342516308"><ele>221.0</ele><time>2026-04-11T07:35:38Z</time></trkpt><trkpt lat="45.60677292051821" lon="8.935739333329375"><ele>220.0</ele><time>2026-04-11T07:35:39Z</time></trkpt><trkpt lat="45.60689424276131" lon="8.935421283887393"><ele>219.0</ele><time>2026-04-11T07:35:40Z</time></trkpt><trkpt lat="45.60703285131962" lon="8.935105238183894"><ele>217.0</ele><time>2026-04-11T07:35:41Z</time></trkpt><trkpt lat="45.60719498481142" lon="8.934815645879342"><ele>215.0</ele><time>2026-04-11T07:35:42Z</time></trkpt><trkpt lat="45.60748065736456" lon="8.93464467658383"><ele>215.0</ele><time>2026-04-11T07:35:43Z</time></trkpt><trkpt lat="45.60760471087615" lon="8.934349601914445"><ele>215.0</ele><time>2026-04-11T07:35:44Z</time></trkpt><trkpt lat="45.607784879463345" lon="8.933998202869505"><ele>214.5</ele><time>2026-04-11T07:35:45Z</time></trkpt><trkpt lat="45.60788802489338" lon="8.933662724121337"><ele>214.0</ele><time>2026-04-11T07:35:46Z</time></trkpt><trkpt lat="45.608018858006396" lon="8.933386663927562"><ele>214.0</ele><time>2026-04-11T07:35:47Z</time></trkpt><trkpt lat="45.60815069572458" lon="8.933095610628111"><ele>214.0</ele><time>2026-04-11T07:35:48Z</time></trkpt><trkpt lat="45.60828112295374" lon="8.932799827953541"><ele>212.0</ele><time>2026-04-11T07:35:49Z</time></trkpt><trkpt lat="45.60840103310522" lon="8.932486246205775"><ele>210.0</ele><time>2026-04-11T07:35:50Z</time></trkpt><trkpt lat="45.60850924931427" lon="8.932157466534047"><ele>210.0</ele><time>2026-04-11T07:35:51Z</time></trkpt><trkpt lat="45.608649032147135" lon="8.931871940744584"><ele>210.0</ele><time>2026-04-11T07:35:52Z</time></trkpt><trkpt lat="45.608777047761734" lon="8.931576609254385"><ele>211.5</ele><time>2026-04-11T07:35:53Z</time></trkpt><trkpt lat="45.608906203917876" lon="8.931264230125102"><ele>213.0</ele><time>2026-04-11T07:35:54Z</time></trkpt><trkpt lat="45.60903381512774" lon="8.930961668211888"><ele>211.5</ele><time>2026-04-11T07:35:55Z</time></trkpt><trkpt lat="45.60915938406766" lon="8.93066354332016"><ele>210.0</ele><time>2026-04-11T07:35:56Z</time></trkpt><trkpt lat="45.609287979134784" lon="8.93035917146987"><ele>209.5</ele><time>2026-04-11T07:35:57Z</time></trkpt><trkpt lat="45.609417306930474" lon="8.930053932337715"><ele>209.0</ele><time>2026-04-11T07:35:58Z</time></trkpt><trkpt lat="45.60954397017949" lon="8.929752834863065"><ele>209.0</ele><time>2026-04-11T07:35:59Z</time></trkpt><trkpt lat="45.6096701502808" lon="8.929451239192732"><ele>209.0</ele><time>2026-04-11T07:36:00Z</time></trkpt><trkpt lat="45.6098046011941" lon="8.929129782998583"><ele>208.5</ele><time>2026-04-11T07:36:01Z</time></trkpt><trkpt lat="45.609927194597134" lon="8.928839988194088"><ele>208.0</ele><time>2026-04-11T07:36:02Z</time></trkpt><trkpt lat="45.61004833949582" lon="8.928548308609866"><ele>208.5</ele><time>2026-04-11T07:36:03Z</time></trkpt><trkpt lat="45.61016697032484" lon="8.928269631317479"><ele>209.0</ele><time>2026-04-11T07:36:04Z</time></trkpt><trkpt lat="45.61029845891208" lon="8.927958479005994"><ele>208.5</ele><time>2026-04-11T07:36:05Z</time></trkpt><trkpt lat="45.61042123755458" lon="8.927660837664959"><ele>208.0</ele><time>2026-04-11T07:36:06Z</time></trkpt><trkpt lat="45.610545623381945" lon="8.927369780901033"><ele>208.0</ele><time>2026-04-11T07:36:07Z</time></trkpt><trkpt lat="45.61066299739687" lon="8.9270867234898"><ele>208.0</ele><time>2026-04-11T07:36:08Z</time></trkpt><trkpt lat="45.610780390608674" lon="8.926808953706377"><ele>208.0</ele><time>2026-04-11T07:36:09Z</time></trkpt><trkpt lat="45.610900057161594" lon="8.926521118999878"><ele>208.0</ele><time>2026-04-11T07:36:10Z</time></trkpt><trkpt lat="45.61101412037279" lon="8.92624581112351"><ele>208.0</ele><time>2026-04-11T07:36:11Z</time></trkpt><trkpt lat="45.611127452101954" lon="8.92597613403217"><ele>208.0</ele><time>2026-04-11T07:36:12Z</time></trkpt><trkpt lat="45.61125009497645" lon="8.925684701433223"><ele>208.33333333333331</ele><time>2026-04-11T07:36:13Z</time></trkpt><trkpt lat="45.611357847030035" lon="8.925424583966276"><ele>208.66666666666669</ele><time>2026-04-11T07:36:14Z</time></trkpt><trkpt lat="45.6114670852127" lon="8.925164314966876"><ele>209.0</ele><time>2026-04-11T07:36:15Z</time></trkpt><trkpt lat="45.61158299346308" lon="8.924885609418604"><ele>209.0</ele><time>2026-04-11T07:36:16Z</time></trkpt><trkpt lat="45.61169906822558" lon="8.924609530680785"><ele>209.0</ele><time>2026-04-11T07:36:17Z</time></trkpt><trkpt lat="45.61181048928412" lon="8.924347797914244"><ele>209.0</ele><time>2026-04-11T07:36:18Z</time></trkpt><trkpt lat="45.61190851271959" lon="8.924108818187763"><ele>208.66666666666669</ele><time>2026-04-11T07:36:19Z</time></trkpt><trkpt lat="45.612015591923424" lon="8.923849463007715"><ele>208.33333333333331</ele><time>2026-04-11T07:36:20Z</time></trkpt><trkpt lat="45.61212995287467" lon="8.923576382871145"><ele>208.0</ele><time>2026-04-11T07:36:21Z</time></trkpt><trkpt lat="45.612220906488176" lon="8.923358114955501"><ele>208.66666666666666</ele><time>2026-04-11T07:36:22Z</time></trkpt><trkpt lat="45.612322703749925" lon="8.9231175440447"><ele>209.33333333333331</ele><time>2026-04-11T07:36:23Z</time></trkpt><trkpt lat="45.612424416015045" lon="8.922874781691684"><ele>210.0</ele><time>2026-04-11T07:36:24Z</time></trkpt><trkpt lat="45.61252059160492" lon="8.922645234304118"><ele>209.66666666666669</ele><time>2026-04-11T07:36:25Z</time></trkpt><trkpt lat="45.612630435480504" lon="8.922383064770251"><ele>209.33333333333334</ele><time>2026-04-11T07:36:26Z</time></trkpt><trkpt lat="45.61273063409332" lon="8.922143915284629"><ele>209.0</ele><time>2026-04-11T07:36:27Z</time></trkpt><trkpt lat="45.61283789803155" lon="8.92188790343639"><ele>210.0</ele><time>2026-04-11T07:36:28Z</time></trkpt><trkpt lat="45.61294187758475" lon="8.921639729657127"><ele>211.0</ele><time>2026-04-11T07:36:29Z</time></trkpt><trkpt lat="45.61280195166714" lon="8.921159081706863"><ele>211.33333333333331</ele><time>2026-04-11T07:36:30Z</time></trkpt><trkpt lat="45.61290088401098" lon="8.920904834393458"><ele>211.66666666666669</ele><time>2026-04-11T07:36:31Z</time></trkpt><trkpt lat="45.61300146678035" lon="8.920666376729834"><ele>212.0</ele><time>2026-04-11T07:36:32Z</time></trkpt><trkpt lat="45.613147277635996" lon="8.920428430325387"><ele>212.0</ele><time>2026-04-11T07:36:33Z</time></trkpt><trkpt lat="45.61314548387791" lon="8.920083543822514"><ele>212.0</ele><time>2026-04-11T07:36:34Z</time></trkpt><trkpt lat="45.61338193944017" lon="8.91990531348794"><ele>212.33333333333334</ele><time>2026-04-11T07:36:35Z</time></trkpt><trkpt lat="45.61349173818147" lon="8.919642507449929"><ele>212.66666666666669</ele><time>2026-04-11T07:36:36Z</time></trkpt><trkpt lat="45.613604705972435" lon="8.919371717464658"><ele>213.0</ele><time>2026-04-11T07:36:37Z</time></trkpt><trkpt lat="45.61372523409628" lon="8.919118768466907"><ele>215.66666666666669</ele><time>2026-04-11T07:36:38Z</time></trkpt><trkpt lat="45.61381172010902" lon="8.918837818045152"><ele>218.33333333333334</ele><time>2026-04-11T07:36:39Z</time></trkpt><trkpt lat="45.61393017146827" lon="8.918594154690663"><ele>221.0</ele><time>2026-04-11T07:36:40Z</time></trkpt><trkpt lat="45.61402666123746" lon="8.918334952335076"><ele>221.0</ele><time>2026-04-11T07:36:41Z</time></trkpt><trkpt lat="45.61414466371233" lon="8.918093712278813"><ele>221.0</ele><time>2026-04-11T07:36:42Z</time></trkpt><trkpt lat="45.61424244586286" lon="8.917852288179619"><ele>221.0</ele><time>2026-04-11T07:36:43Z</time></trkpt><trkpt lat="45.614350860276566" lon="8.917595771558794"><ele>220.0</ele><time>2026-04-11T07:36:44Z</time></trkpt><trkpt lat="45.61445363318883" lon="8.917352006675301"><ele>219.0</ele><time>2026-04-11T07:36:45Z</time></trkpt><trkpt lat="45.614562768900186" lon="8.917105404498638"><ele>218.0</ele><time>2026-04-11T07:36:46Z</time></trkpt><trkpt lat="45.61466001474478" lon="8.916869229051422"><ele>216.33333333333334</ele><time>2026-04-11T07:36:47Z</time></trkpt><trkpt lat="45.61477701693729" lon="8.916594477519435"><ele>214.66666666666669</ele><time>2026-04-11T07:36:48Z</time></trkpt><trkpt lat="45.614886231176946" lon="8.916338261959043"><ele>213.0</ele><time>2026-04-11T07:36:49Z</time></trkpt><trkpt lat="45.61499940019297" lon="8.916072635663868"><ele>213.66666666666669</ele><time>2026-04-11T07:36:50Z</time></trkpt><trkpt lat="45.61505585249308" lon="8.915762572848026"><ele>214.33333333333334</ele><time>2026-04-11T07:36:51Z</time></trkpt><trkpt lat="45.61515618089209" lon="8.915487796225454"><ele>215.0</ele><time>2026-04-11T07:36:52Z</time></trkpt><trkpt lat="45.61528790202081" lon="8.915221108742534"><ele>217.5</ele><time>2026-04-11T07:36:53Z</time></trkpt><trkpt lat="45.61538292111037" lon="8.91493240862654"><ele>220.0</ele><time>2026-04-11T07:36:54Z</time></trkpt><trkpt lat="45.61550575270004" lon="8.914658441922029"><ele>220.0</ele><time>2026-04-11T07:36:55Z</time></trkpt><trkpt lat="45.615611956239675" lon="8.914364519506602"><ele>220.0</ele><time>2026-04-11T07:36:56Z</time></trkpt><trkpt lat="45.61571962736412" lon="8.914054106507498"><ele>219.0</ele><time>2026-04-11T07:36:57Z</time></trkpt><trkpt lat="45.615669742998634" lon="8.913591678092796"><ele>218.0</ele><time>2026-04-11T07:36:58Z</time></trkpt><trkpt lat="45.616016206456976" lon="8.913576108053288"><ele>218.0</ele><time>2026-04-11T07:36:59Z</time></trkpt><trkpt lat="45.616148529230585" lon="8.913307712150122"><ele>218.0</ele><time>2026-04-11T07:37:00Z</time></trkpt><trkpt lat="45.616290209742786" lon="8.913038158008465"><ele>219.5</ele><time>2026-04-11T07:37:01Z</time></trkpt><trkpt lat="45.616425232793915" lon="8.912759214438083"><ele>221.0</ele><time>2026-04-11T07:37:02Z</time></trkpt><trkpt lat="45.61672264207373" lon="8.912649451006398"><ele>221.33333333333334</ele><time>2026-04-11T07:37:03Z</time></trkpt><trkpt lat="45.6168386668955" lon="8.9123732292781"><ele>221.66666666666669</ele><time>2026-04-11T07:37:04Z</time></trkpt><trkpt lat="45.616951904448825" lon="8.912102672315768"><ele>222.0</ele><time>2026-04-11T07:37:05Z</time></trkpt><trkpt lat="45.61707269978947" lon="8.911814057658193"><ele>221.66666666666669</ele><time>2026-04-11T07:37:06Z</time></trkpt><trkpt lat="45.61718285736426" lon="8.911554448946394"><ele>221.33333333333334</ele><time>2026-04-11T07:37:07Z</time></trkpt><trkpt lat="45.617297396048755" lon="8.911284216631152"><ele>221.0</ele><time>2026-04-11T07:37:08Z</time></trkpt><trkpt lat="45.61741404436511" lon="8.911007374213364"><ele>221.5</ele><time>2026-04-11T07:37:09Z</time></trkpt><trkpt lat="45.61752745598527" lon="8.910736338376395"><ele>222.0</ele><time>2026-04-11T07:37:10Z</time></trkpt><trkpt lat="45.61764522220402" lon="8.910453526686586"><ele>222.0</ele><time>2026-04-11T07:37:11Z</time></trkpt><trkpt lat="45.617756157355984" lon="8.910187119805572"><ele>222.0</ele><time>2026-04-11T07:37:12Z</time></trkpt><trkpt lat="45.61787781401723" lon="8.909892307452738"><ele>221.66666666666669</ele><time>2026-04-11T07:37:13Z</time></trkpt><trkpt lat="45.61799156791422" lon="8.909624862055509"><ele>221.33333333333334</ele><time>2026-04-11T07:37:14Z</time></trkpt><trkpt lat="45.61810001098039" lon="8.90937111379067"><ele>221.0</ele><time>2026-04-11T07:37:15Z</time></trkpt><trkpt lat="45.61821970761723" lon="8.909090749930739"><ele>221.0</ele><time>2026-04-11T07:37:15.999Z</time></trkpt><trkpt lat="45.61832878652645" lon="8.908831237123827"><ele>221.0</ele><time>2026-04-11T07:37:16.999Z</time></trkpt><trkpt lat="45.61843829128912" lon="8.908570707067039"><ele>221.0</ele><time>2026-04-11T07:37:17.999Z</time></trkpt><trkpt lat="45.61854906787557" lon="8.908307157330748"><ele>221.0</ele><time>2026-04-11T07:37:18.999Z</time></trkpt><trkpt lat="45.61866125692603" lon="8.908040374323589"><ele>221.0</ele><time>2026-04-11T07:37:19.999Z</time></trkpt><trkpt lat="45.618771878340226" lon="8.90777719569461"><ele>221.0</ele><time>2026-04-11T07:37:20.999Z</time></trkpt><trkpt lat="45.618879076716304" lon="8.907521752318"><ele>221.0</ele><time>2026-04-11T07:37:21.999Z</time></trkpt><trkpt lat="45.618989588526034" lon="8.907256566135729"><ele>221.0</ele><time>2026-04-11T07:37:22.999Z</time></trkpt><trkpt lat="45.61911316361779" lon="8.906960602516818"><ele>221.5</ele><time>2026-04-11T07:37:23.999Z</time></trkpt><trkpt lat="45.619232316914896" lon="8.906674767361215"><ele>222.0</ele><time>2026-04-11T07:37:24.999Z</time></trkpt><trkpt lat="45.61934687804514" lon="8.906401100991982"><ele>222.0</ele><time>2026-04-11T07:37:25.999Z</time></trkpt><trkpt lat="45.61944874739724" lon="8.906158298679784"><ele>222.0</ele><time>2026-04-11T07:37:26.999Z</time></trkpt><trkpt lat="45.61956077358873" lon="8.905891141470395"><ele>222.0</ele><time>2026-04-11T07:37:27.999Z</time></trkpt><trkpt lat="45.61967090895685" lon="8.905628802507167"><ele>222.33333333333331</ele><time>2026-04-11T07:37:28.999Z</time></trkpt><trkpt lat="45.61978308639837" lon="8.905361791928668"><ele>222.66666666666666</ele><time>2026-04-11T07:37:29.999Z</time></trkpt><trkpt lat="45.61989725039903" lon="8.905090053175059"><ele>223.0</ele><time>2026-04-11T07:37:30.999Z</time></trkpt><trkpt lat="45.62001270328789" lon="8.904815246194842"><ele>223.0</ele><time>2026-04-11T07:37:31.999Z</time></trkpt><trkpt lat="45.62012677122598" lon="8.904543666763754"><ele>223.0</ele><time>2026-04-11T07:37:32.999Z</time></trkpt><trkpt lat="45.62025107319214" lon="8.904247459724582"><ele>223.5</ele><time>2026-04-11T07:37:33.999Z</time></trkpt><trkpt lat="45.620382702783324" lon="8.90393379088485"><ele>224.0</ele><time>2026-04-11T07:37:34.999Z</time></trkpt><trkpt lat="45.62051219585324" lon="8.903625213412921"><ele>223.0</ele><time>2026-04-11T07:37:35.999Z</time></trkpt><trkpt lat="45.62063589010154" lon="8.903330454352675"><ele>222.0</ele><time>2026-04-11T07:37:36.999Z</time></trkpt><trkpt lat="45.620753548360184" lon="8.903049827618819"><ele>222.0</ele><time>2026-04-11T07:37:37.999Z</time></trkpt><trkpt lat="45.620866449969675" lon="8.902780490041932"><ele>222.0</ele><time>2026-04-11T07:37:38.999Z</time></trkpt><trkpt lat="45.62097626503411" lon="8.902518515863894"><ele>222.0</ele><time>2026-04-11T07:37:39.999Z</time></trkpt><trkpt lat="45.621089912974604" lon="8.902247398152477"><ele>222.0</ele><time>2026-04-11T07:37:40.999Z</time></trkpt><trkpt lat="45.62120028985171" lon="8.901983955653339"><ele>222.0</ele><time>2026-04-11T07:37:41.999Z</time></trkpt><trkpt lat="45.62131025104522" lon="8.90172111704078"><ele>222.0</ele><time>2026-04-11T07:37:42.999Z</time></trkpt><trkpt lat="45.62145056559492" lon="8.90138572468966"><ele>222.0</ele><time>2026-04-11T07:37:43.999Z</time></trkpt><trkpt lat="45.62157220433242" lon="8.90109497397731"><ele>222.0</ele><time>2026-04-11T07:37:44.999Z</time></trkpt><trkpt lat="45.62169783808649" lon="8.900794563437934"><ele>221.66666666666669</ele><time>2026-04-11T07:37:45.999Z</time></trkpt><trkpt lat="45.62180708758752" lon="8.900533068156083"><ele>221.33333333333334</ele><time>2026-04-11T07:37:46.999Z</time></trkpt><trkpt lat="45.621926569113846" lon="8.900247081902856"><ele>221.0</ele><time>2026-04-11T07:37:47.999Z</time></trkpt><trkpt lat="45.622045318594274" lon="8.899963317570824"><ele>221.0</ele><time>2026-04-11T07:37:48.999Z</time></trkpt><trkpt lat="45.622044343699265" lon="8.899588185881296"><ele>221.0</ele><time>2026-04-11T07:37:49.999Z</time></trkpt><trkpt lat="45.62220529383178" lon="8.899310159587158"><ele>221.5</ele><time>2026-04-11T07:37:50.999Z</time></trkpt><trkpt lat="45.622329986942056" lon="8.899011086045842"><ele>222.0</ele><time>2026-04-11T07:37:51.999Z</time></trkpt><trkpt lat="45.62242205248349" lon="8.898688151961858"><ele>222.0</ele><time>2026-04-11T07:37:52.999Z</time></trkpt><trkpt lat="45.62266094991547" lon="8.89849762668862"><ele>222.0</ele><time>2026-04-11T07:37:53.999Z</time></trkpt><trkpt lat="45.62277918015683" lon="8.898216601281261"><ele>221.33333333333331</ele><time>2026-04-11T07:37:54.999Z</time></trkpt><trkpt lat="45.62289441949143" lon="8.897941946452724"><ele>220.66666666666666</ele><time>2026-04-11T07:37:55.999Z</time></trkpt><trkpt lat="45.62300439895569" lon="8.89767973077471"><ele>220.0</ele><time>2026-04-11T07:37:56.999Z</time></trkpt><trkpt lat="45.62311464392552" lon="8.897416882562721"><ele>220.0</ele><time>2026-04-11T07:37:57.999Z</time></trkpt><trkpt lat="45.623224308890386" lon="8.897155654104468"><ele>220.0</ele><time>2026-04-11T07:37:58.999Z</time></trkpt><trkpt lat="45.623333168835565" lon="8.896895730505245"><ele>220.0</ele><time>2026-04-11T07:37:59.999Z</time></trkpt><trkpt lat="45.62343909947998" lon="8.89664403009997"><ele>219.33333333333331</ele><time>2026-04-11T07:38:00.999Z</time></trkpt><trkpt lat="45.6235490224893" lon="8.896382842852457"><ele>218.66666666666669</ele><time>2026-04-11T07:38:01.999Z</time></trkpt><trkpt lat="45.62366032934675" lon="8.896117848861413"><ele>218.0</ele><time>2026-04-11T07:38:02.999Z</time></trkpt><trkpt lat="45.62377732895681" lon="8.895839271699206"><ele>217.66666666666669</ele><time>2026-04-11T07:38:03.999Z</time></trkpt><trkpt lat="45.623888793446056" lon="8.895574035916377"><ele>217.33333333333331</ele><time>2026-04-11T07:38:04.999Z</time></trkpt><trkpt lat="45.62399653418125" lon="8.895318249655896"><ele>217.0</ele><time>2026-04-11T07:38:05.999Z</time></trkpt><trkpt lat="45.624109070860804" lon="8.895050427071967"><ele>217.0</ele><time>2026-04-11T07:38:06.999Z</time></trkpt><trkpt lat="45.62431527722389" lon="8.894795959885613"><ele>217.0</ele><time>2026-04-11T07:38:07.999Z</time></trkpt><trkpt lat="45.624461606203326" lon="8.894529676212588"><ele>216.33333333333331</ele><time>2026-04-11T07:38:08.999Z</time></trkpt><trkpt lat="45.6245862195816" lon="8.894282041616696"><ele>215.66666666666669</ele><time>2026-04-11T07:38:09.999Z</time></trkpt><trkpt lat="45.624688375901336" lon="8.894037628769743"><ele>215.0</ele><time>2026-04-11T07:38:10.999Z</time></trkpt><trkpt lat="45.624796286111426" lon="8.893779117306508"><ele>215.0</ele><time>2026-04-11T07:38:11.999Z</time></trkpt><trkpt lat="45.62491482133497" lon="8.893494671898946"><ele>215.0</ele><time>2026-04-11T07:38:12.999Z</time></trkpt><trkpt lat="45.625047388060196" lon="8.893176740004998"><ele>216.0</ele><time>2026-04-11T07:38:13.999Z</time></trkpt><trkpt lat="45.62518395901978" lon="8.89284911233283"><ele>217.0</ele><time>2026-04-11T07:38:14.999Z</time></trkpt><trkpt lat="45.62532030744539" lon="8.892521955765833"><ele>221.5</ele><time>2026-04-11T07:38:15.999Z</time></trkpt><trkpt lat="45.62546861427615" lon="8.892166829416375"><ele>226.0</ele><time>2026-04-11T07:38:16.999Z</time></trkpt><trkpt lat="45.62560748160689" lon="8.89183577906272"><ele>226.5</ele><time>2026-04-11T07:38:17.999Z</time></trkpt><trkpt lat="45.62574361226473" lon="8.891511729701271"><ele>227.0</ele><time>2026-04-11T07:38:18.999Z</time></trkpt><trkpt lat="45.6258641677169" lon="8.891224468562962"><ele>227.0</ele><time>2026-04-11T07:38:19.999Z</time></trkpt><trkpt lat="45.62598677232429" lon="8.890931604922729"><ele>227.0</ele><time>2026-04-11T07:38:20.999Z</time></trkpt><trkpt lat="45.62611788191466" lon="8.890620003328518"><ele>231.5</ele><time>2026-04-11T07:38:21.999Z</time></trkpt><trkpt lat="45.62624752382076" lon="8.890314961614461"><ele>236.0</ele><time>2026-04-11T07:38:22.999Z</time></trkpt><trkpt lat="45.62637707800341" lon="8.890050483408087"><ele>236.0</ele><time>2026-04-11T07:38:23.999Z</time></trkpt><trkpt lat="45.626482888767434" lon="8.889729508319714"><ele>236.0</ele><time>2026-04-11T07:38:24.999Z</time></trkpt><trkpt lat="45.62657373216387" lon="8.889432461147942"><ele>234.5</ele><time>2026-04-11T07:38:25.999Z</time></trkpt><trkpt lat="45.62671917746716" lon="8.889157075301815"><ele>233.0</ele><time>2026-04-11T07:38:26.999Z</time></trkpt><trkpt lat="45.62686682533029" lon="8.888849283001596"><ele>235.0</ele><time>2026-04-11T07:38:27.999Z</time></trkpt><trkpt lat="45.62699573424077" lon="8.888548331452965"><ele>237.0</ele><time>2026-04-11T07:38:28.999Z</time></trkpt><trkpt lat="45.627127750788596" lon="8.888240124896576"><ele>237.0</ele><time>2026-04-11T07:38:29.999Z</time></trkpt><trkpt lat="45.62726556682889" lon="8.887928903805012"><ele>237.0</ele><time>2026-04-11T07:38:30.999Z</time></trkpt><trkpt lat="45.62739857621102" lon="8.887609254617796"><ele>236.0</ele><time>2026-04-11T07:38:31.999Z</time></trkpt><trkpt lat="45.62752479935649" lon="8.887311001937253"><ele>235.0</ele><time>2026-04-11T07:38:32.999Z</time></trkpt><trkpt lat="45.6276512954249" lon="8.887012104741427"><ele>234.5</ele><time>2026-04-11T07:38:33.999Z</time></trkpt><trkpt lat="45.627772510466116" lon="8.886720970638704"><ele>234.0</ele><time>2026-04-11T07:38:34.999Z</time></trkpt><trkpt lat="45.627896026978" lon="8.88641934374945"><ele>234.0</ele><time>2026-04-11T07:38:35.999Z</time></trkpt><trkpt lat="45.628021342089234" lon="8.886113324370424"><ele>234.0</ele><time>2026-04-11T07:38:36.999Z</time></trkpt><trkpt lat="45.62814243695449" lon="8.885817615466308"><ele>234.0</ele><time>2026-04-11T07:38:37.999Z</time></trkpt><trkpt lat="45.62826483254604" lon="8.885520430721948"><ele>234.0</ele><time>2026-04-11T07:38:38.999Z</time></trkpt><trkpt lat="45.628394251080586" lon="8.885206544278782"><ele>235.0</ele><time>2026-04-11T07:38:39.999Z</time></trkpt><trkpt lat="45.62852030779147" lon="8.884900811479957"><ele>236.0</ele><time>2026-04-11T07:38:40.999Z</time></trkpt><trkpt lat="45.62864487416046" lon="8.884598883699864"><ele>236.0</ele><time>2026-04-11T07:38:41.999Z</time></trkpt><trkpt lat="45.628771371228424" lon="8.884297641677323"><ele>236.0</ele><time>2026-04-11T07:38:42.999Z</time></trkpt><trkpt lat="45.628897422214024" lon="8.883997883218955"><ele>236.0</ele><time>2026-04-11T07:38:43.999Z</time></trkpt><trkpt lat="45.629023545441406" lon="8.883699986112795"><ele>236.0</ele><time>2026-04-11T07:38:44.999Z</time></trkpt><trkpt lat="45.629151330029266" lon="8.883398164777931"><ele>236.5</ele><time>2026-04-11T07:38:45.999Z</time></trkpt><trkpt lat="45.629282661347304" lon="8.883085454464299"><ele>237.0</ele><time>2026-04-11T07:38:46.999Z</time></trkpt><trkpt lat="45.629399224438984" lon="8.882803652451164"><ele>238.0</ele><time>2026-04-11T07:38:47.999Z</time></trkpt><trkpt lat="45.629531775630404" lon="8.882486436384477"><ele>239.0</ele><time>2026-04-11T07:38:48.999Z</time></trkpt><trkpt lat="45.629661372008755" lon="8.88217949863346"><ele>239.0</ele><time>2026-04-11T07:38:49.999Z</time></trkpt><trkpt lat="45.62978801000275" lon="8.88188087032344"><ele>239.0</ele><time>2026-04-11T07:38:50.999Z</time></trkpt><trkpt lat="45.6299146409911" lon="8.881580990649683"><ele>238.0</ele><time>2026-04-11T07:38:51.999Z</time></trkpt><trkpt lat="45.63003615223465" lon="8.881293235194338"><ele>237.0</ele><time>2026-04-11T07:38:52.999Z</time></trkpt><trkpt lat="45.6301570061451" lon="8.881007037028246"><ele>238.0</ele><time>2026-04-11T07:38:53.999Z</time></trkpt><trkpt lat="45.6302823030909" lon="8.880710381794213"><ele>239.0</ele><time>2026-04-11T07:38:54.999Z</time></trkpt><trkpt lat="45.63040546610719" lon="8.880418835087255"><ele>239.0</ele><time>2026-04-11T07:38:55.999Z</time></trkpt><trkpt lat="45.630528375764825" lon="8.880127887910895"><ele>239.0</ele><time>2026-04-11T07:38:56.999Z</time></trkpt><trkpt lat="45.63065509474547" lon="8.879827923636347"><ele>239.5</ele><time>2026-04-11T07:38:57.999Z</time></trkpt><trkpt lat="45.630780649101524" lon="8.879530486432907"><ele>240.0</ele><time>2026-04-11T07:38:58.999Z</time></trkpt><trkpt lat="45.63090726717262" lon="8.879230529363108"><ele>240.0</ele><time>2026-04-11T07:38:59.999Z</time></trkpt><trkpt lat="45.631038991677144" lon="8.878918474518805"><ele>240.0</ele><time>2026-04-11T07:39:00.999Z</time></trkpt><trkpt lat="45.6311570256777" lon="8.878638039427466"><ele>240.5</ele><time>2026-04-11T07:39:01.999Z</time></trkpt><trkpt lat="45.63127601716152" lon="8.87835597787937"><ele>241.0</ele><time>2026-04-11T07:39:02.999Z</time></trkpt><trkpt lat="45.631396465711525" lon="8.878070462586628"><ele>241.0</ele><time>2026-04-11T07:39:03.999Z</time></trkpt><trkpt lat="45.631520832868844" lon="8.877775658122646"><ele>241.0</ele><time>2026-04-11T07:39:04.999Z</time></trkpt><trkpt lat="45.63175906040812" lon="8.877595279623318"><ele>241.0</ele><time>2026-04-11T07:39:05.999Z</time></trkpt><trkpt lat="45.63187876143913" lon="8.877292540797947"><ele>241.0</ele><time>2026-04-11T07:39:06.999Z</time></trkpt><trkpt lat="45.632003495788375" lon="8.87701347220097"><ele>241.0</ele><time>2026-04-11T07:39:07.999Z</time></trkpt><trkpt lat="45.63212436398303" lon="8.876712587661997"><ele>241.0</ele><time>2026-04-11T07:39:08.999Z</time></trkpt><trkpt lat="45.63227378477972" lon="8.876448234780092"><ele>241.0</ele><time>2026-04-11T07:39:09.999Z</time></trkpt><trkpt lat="45.63225241612248" lon="8.87603347637469"><ele>241.0</ele><time>2026-04-11T07:39:10.999Z</time></trkpt><trkpt lat="45.632379367198894" lon="8.875732885146148"><ele>241.0</ele><time>2026-04-11T07:39:11.999Z</time></trkpt><trkpt lat="45.63250346074182" lon="8.875438690764573"><ele>241.0</ele><time>2026-04-11T07:39:12.999Z</time></trkpt><trkpt lat="45.63262948231859" lon="8.875139533955121"><ele>241.0</ele><time>2026-04-11T07:39:13.999Z</time></trkpt><trkpt lat="45.63275442812187" lon="8.874842930754463"><ele>241.0</ele><time>2026-04-11T07:39:14.999Z</time></trkpt><trkpt lat="45.63288535368066" lon="8.874532132893702"><ele>243.0</ele><time>2026-04-11T07:39:15.999Z</time></trkpt><trkpt lat="45.63300835192202" lon="8.874240153076846"><ele>245.0</ele><time>2026-04-11T07:39:16.999Z</time></trkpt><trkpt lat="45.63313091764228" lon="8.873949203939226"><ele>245.0</ele><time>2026-04-11T07:39:17.999Z</time></trkpt><trkpt lat="45.63325124119506" lon="8.873663321842125"><ele>245.0</ele><time>2026-04-11T07:39:18.999Z</time></trkpt><trkpt lat="45.63336815830423" lon="8.873384285043025"><ele>244.5</ele><time>2026-04-11T07:39:19.999Z</time></trkpt><trkpt lat="45.6334997253083" lon="8.873070283907214"><ele>244.0</ele><time>2026-04-11T07:39:20.999Z</time></trkpt><trkpt lat="45.63361921216831" lon="8.872785113970671"><ele>242.0</ele><time>2026-04-11T07:39:21.999Z</time></trkpt><trkpt lat="45.63374759843286" lon="8.872478704966875"><ele>240.0</ele><time>2026-04-11T07:39:22.999Z</time></trkpt><trkpt lat="45.633870204848044" lon="8.872186089966661"><ele>240.0</ele><time>2026-04-11T07:39:23.999Z</time></trkpt><trkpt lat="45.633986542960734" lon="8.871908434769818"><ele>240.0</ele><time>2026-04-11T07:39:24.999Z</time></trkpt><trkpt lat="45.63411546024568" lon="8.871600758457586"><ele>240.5</ele><time>2026-04-11T07:39:25.999Z</time></trkpt><trkpt lat="45.634244389840994" lon="8.871293052525553"><ele>241.0</ele><time>2026-04-11T07:39:26.999Z</time></trkpt><trkpt lat="45.634356246383106" lon="8.871026093673358"><ele>242.5</ele><time>2026-04-11T07:39:27.999Z</time></trkpt><trkpt lat="45.63448103073448" lon="8.870729782275395"><ele>244.0</ele><time>2026-04-11T07:39:28.999Z</time></trkpt><trkpt lat="45.63461079423407" lon="8.870422221679048"><ele>244.0</ele><time>2026-04-11T07:39:29.999Z</time></trkpt><trkpt lat="45.634740029136985" lon="8.870115914011857"><ele>244.0</ele><time>2026-04-11T07:39:30.999Z</time></trkpt><trkpt lat="45.63485180874778" lon="8.869850978033075"><ele>242.0</ele><time>2026-04-11T07:39:31.999Z</time></trkpt><trkpt lat="45.634980797917564" lon="8.869545548972418"><ele>240.0</ele><time>2026-04-11T07:39:32.999Z</time></trkpt><trkpt lat="45.6351017203258" lon="8.869259567425717"><ele>240.0</ele><time>2026-04-11T07:39:33.999Z</time></trkpt><trkpt lat="45.6352233416948" lon="8.868971932792853"><ele>240.0</ele><time>2026-04-11T07:39:34.999Z</time></trkpt><trkpt lat="45.63534229892311" lon="8.868690354529967"><ele>240.0</ele><time>2026-04-11T07:39:35.999Z</time></trkpt><trkpt lat="45.63546324016944" lon="8.868401371588261"><ele>240.0</ele><time>2026-04-11T07:39:36.999Z</time></trkpt><trkpt lat="45.6355985482246" lon="8.868078060168893"><ele>240.0</ele><time>2026-04-11T07:39:37.999Z</time></trkpt><trkpt lat="45.635715764223875" lon="8.867797978659254"><ele>240.0</ele><time>2026-04-11T07:39:38.999Z</time></trkpt><trkpt lat="45.63583599279033" lon="8.867510698487315"><ele>240.0</ele><time>2026-04-11T07:39:39.999Z</time></trkpt><trkpt lat="45.63596466682361" lon="8.86720323900474"><ele>240.0</ele><time>2026-04-11T07:39:40.999Z</time></trkpt><trkpt lat="45.63608240444585" lon="8.866921911102326"><ele>240.5</ele><time>2026-04-11T07:39:41.999Z</time></trkpt><trkpt lat="45.63620302450276" lon="8.866633640253408"><ele>241.0</ele><time>2026-04-11T07:39:42.999Z</time></trkpt><trkpt lat="45.63632661532244" lon="8.866338078209793"><ele>241.0</ele><time>2026-04-11T07:39:43.999Z</time></trkpt><trkpt lat="45.636450736022766" lon="8.866041249397913"><ele>241.0</ele><time>2026-04-11T07:39:44.999Z</time></trkpt><trkpt lat="45.636575989838384" lon="8.865742321070481"><ele>242.0</ele><time>2026-04-11T07:39:45.999Z</time></trkpt><trkpt lat="45.63669971539917" lon="8.865447951275263"><ele>243.0</ele><time>2026-04-11T07:39:46.999Z</time></trkpt><trkpt lat="45.63681734452791" lon="8.865169030873686"><ele>243.0</ele><time>2026-04-11T07:39:47.999Z</time></trkpt><trkpt lat="45.63694338447588" lon="8.864870166918907"><ele>243.0</ele><time>2026-04-11T07:39:48.999Z</time></trkpt><trkpt lat="45.6370677601063" lon="8.864575248697905"><ele>243.0</ele><time>2026-04-11T07:39:49.999Z</time></trkpt><trkpt lat="45.637187353269795" lon="8.864291654368834"><ele>243.0</ele><time>2026-04-11T07:39:50.999Z</time></trkpt><trkpt lat="45.637307084960405" lon="8.864007702909323"><ele>242.5</ele><time>2026-04-11T07:39:51.999Z</time></trkpt><trkpt lat="45.63742884394677" lon="8.863718943101363"><ele>242.0</ele><time>2026-04-11T07:39:52.999Z</time></trkpt><trkpt lat="45.637553724219245" lon="8.863422781035078"><ele>242.0</ele><time>2026-04-11T07:39:53.999Z</time></trkpt><trkpt lat="45.637676164188186" lon="8.863132406463421"><ele>242.0</ele><time>2026-04-11T07:39:54.999Z</time></trkpt><trkpt lat="45.63780236240842" lon="8.862833118430043"><ele>242.0</ele><time>2026-04-11T07:39:55.999Z</time></trkpt><trkpt lat="45.637930014298796" lon="8.862534861083965"><ele>242.0</ele><time>2026-04-11T07:39:56.999Z</time></trkpt><trkpt lat="45.63805416175766" lon="8.862244997877688"><ele>242.0</ele><time>2026-04-11T07:39:57.999Z</time></trkpt><trkpt lat="45.63817810995741" lon="8.861955595509933"><ele>242.0</ele><time>2026-04-11T07:39:58.999Z</time></trkpt><trkpt lat="45.638303491679906" lon="8.86166284585822"><ele>240.5</ele><time>2026-04-11T07:39:59.999Z</time></trkpt><trkpt lat="45.638431897936975" lon="8.861363034695302"><ele>239.0</ele><time>2026-04-11T07:40:00.999Z</time></trkpt><trkpt lat="45.63856343575098" lon="8.861055911479546"><ele>241.0</ele><time>2026-04-11T07:40:01.999Z</time></trkpt><trkpt lat="45.638687423571824" lon="8.860767112142439"><ele>243.0</ele><time>2026-04-11T07:40:02.999Z</time></trkpt><trkpt lat="45.63880902190708" lon="8.86049255738945"><ele>243.0</ele><time>2026-04-11T07:40:03.999Z</time></trkpt><trkpt lat="45.63893073119127" lon="8.860217751940795"><ele>243.0</ele><time>2026-04-11T07:40:04.999Z</time></trkpt><trkpt lat="45.63905132656551" lon="8.85994854195627"><ele>244.5</ele><time>2026-04-11T07:40:05.999Z</time></trkpt><trkpt lat="45.63917309264615" lon="8.859650126452182"><ele>246.0</ele><time>2026-04-11T07:40:06.999Z</time></trkpt><trkpt lat="45.63927741948839" lon="8.85938535201714"><ele>245.5</ele><time>2026-04-11T07:40:07.999Z</time></trkpt><trkpt lat="45.63937661878122" lon="8.85900186239986"><ele>245.0</ele><time>2026-04-11T07:40:08.999Z</time></trkpt><trkpt lat="45.6395260292732" lon="8.858717397806602"><ele>245.5</ele><time>2026-04-11T07:40:09.999Z</time></trkpt><trkpt lat="45.63965077368075" lon="8.858424569882265"><ele>246.0</ele><time>2026-04-11T07:40:10.999Z</time></trkpt><trkpt lat="45.63976939559447" lon="8.858141889198508"><ele>246.0</ele><time>2026-04-11T07:40:11.999Z</time></trkpt><trkpt lat="45.639877026712874" lon="8.85788517143079"><ele>246.0</ele><time>2026-04-11T07:40:12.999Z</time></trkpt><trkpt lat="45.63998430605148" lon="8.857628676189764"><ele>246.0</ele><time>2026-04-11T07:40:13.999Z</time></trkpt><trkpt lat="45.64009539925037" lon="8.857364521975791"><ele>246.0</ele><time>2026-04-11T07:40:14.999Z</time></trkpt><trkpt lat="45.640211106357924" lon="8.857090157584745"><ele>246.0</ele><time>2026-04-11T07:40:15.999Z</time></trkpt><trkpt lat="45.64032643788176" lon="8.85681668445775"><ele>246.0</ele><time>2026-04-11T07:40:16.999Z</time></trkpt><trkpt lat="45.640445294046934" lon="8.856534853344847"><ele>245.5</ele><time>2026-04-11T07:40:17.999Z</time></trkpt><trkpt lat="45.64056722520031" lon="8.856245551065157"><ele>245.0</ele><time>2026-04-11T07:40:18.999Z</time></trkpt><trkpt lat="45.640795152017205" lon="8.856056258506108"><ele>245.0</ele><time>2026-04-11T07:40:19.999Z</time></trkpt><trkpt lat="45.64091835326354" lon="8.855765731337618"><ele>245.0</ele><time>2026-04-11T07:40:20.999Z</time></trkpt><trkpt lat="45.64103008540599" lon="8.85549042272998"><ele>245.0</ele><time>2026-04-11T07:40:21.999Z</time></trkpt><trkpt lat="45.641149022869804" lon="8.855196734030498"><ele>245.0</ele><time>2026-04-11T07:40:22.999Z</time></trkpt><trkpt lat="45.641269459700915" lon="8.854900192111714"><ele>245.0</ele><time>2026-04-11T07:40:23.999Z</time></trkpt><trkpt lat="45.6412907983348" lon="8.854526120520053"><ele>245.0</ele><time>2026-04-11T07:40:24.999Z</time></trkpt><trkpt lat="45.64141955465964" lon="8.854218689827308"><ele>244.5</ele><time>2026-04-11T07:40:25.999Z</time></trkpt><trkpt lat="45.6415431732893" lon="8.853922289142153"><ele>244.0</ele><time>2026-04-11T07:40:26.999Z</time></trkpt><trkpt lat="45.641666170121844" lon="8.853627277207877"><ele>243.5</ele><time>2026-04-11T07:40:27.999Z</time></trkpt><trkpt lat="45.64179797444038" lon="8.853311138699349"><ele>243.0</ele><time>2026-04-11T07:40:28.999Z</time></trkpt><trkpt lat="45.64192135344237" lon="8.853015679223263"><ele>243.5</ele><time>2026-04-11T07:40:29.999Z</time></trkpt><trkpt lat="45.64204514786059" lon="8.852719638280686"><ele>244.0</ele><time>2026-04-11T07:40:30.999Z</time></trkpt><trkpt lat="45.64216320856677" lon="8.852437308874746"><ele>244.0</ele><time>2026-04-11T07:40:31.999Z</time></trkpt><trkpt lat="45.642294593040766" lon="8.85212486221919"><ele>244.0</ele><time>2026-04-11T07:40:32.999Z</time></trkpt><trkpt lat="45.64242370832801" lon="8.851820117236734"><ele>244.5</ele><time>2026-04-11T07:40:33.999Z</time></trkpt><trkpt lat="45.64255858218786" lon="8.851502338139788"><ele>245.0</ele><time>2026-04-11T07:40:34.999Z</time></trkpt><trkpt lat="45.64268386545802" lon="8.85120656073579"><ele>244.5</ele><time>2026-04-11T07:40:35.999Z</time></trkpt><trkpt lat="45.64281380696966" lon="8.850897992711152"><ele>244.0</ele><time>2026-04-11T07:40:36.999Z</time></trkpt><trkpt lat="45.64294093255509" lon="8.850593801212991"><ele>244.0</ele><time>2026-04-11T07:40:37.999Z</time></trkpt><trkpt lat="45.64306799752881" lon="8.850289025183965"><ele>244.0</ele><time>2026-04-11T07:40:38.999Z</time></trkpt><trkpt lat="45.643187485681466" lon="8.850002108845857"><ele>245.5</ele><time>2026-04-11T07:40:40Z</time></trkpt><trkpt lat="45.64331368254857" lon="8.849698856722828"><ele>247.0</ele><time>2026-04-11T07:40:41Z</time></trkpt><trkpt lat="45.64343476073211" lon="8.849410604695281"><ele>247.0</ele><time>2026-04-11T07:40:42Z</time></trkpt><trkpt lat="45.64355286842783" lon="8.849130192123381"><ele>247.0</ele><time>2026-04-11T07:40:43Z</time></trkpt><trkpt lat="45.643684833111585" lon="8.8488164752422"><ele>247.0</ele><time>2026-04-11T07:40:44Z</time></trkpt><trkpt lat="45.64380703175782" lon="8.848525625129453"><ele>247.0</ele><time>2026-04-11T07:40:45Z</time></trkpt><trkpt lat="45.64392716462541" lon="8.848239238633212"><ele>247.0</ele><time>2026-04-11T07:40:46Z</time></trkpt><trkpt lat="45.64405237543018" lon="8.847940473024257"><ele>247.0</ele><time>2026-04-11T07:40:47Z</time></trkpt><trkpt lat="45.64417276375078" lon="8.847653006605984"><ele>246.5</ele><time>2026-04-11T07:40:48Z</time></trkpt><trkpt lat="45.64430431667631" lon="8.847339387385071"><ele>246.0</ele><time>2026-04-11T07:40:49Z</time></trkpt><trkpt lat="45.6444275430453" lon="8.847045830185595"><ele>246.0</ele><time>2026-04-11T07:40:50Z</time></trkpt><trkpt lat="45.644556417572794" lon="8.846737811997757"><ele>246.0</ele><time>2026-04-11T07:40:51Z</time></trkpt><trkpt lat="45.64467172382944" lon="8.846458186147574"><ele>246.0</ele><time>2026-04-11T07:40:52Z</time></trkpt><trkpt lat="45.64479060788756" lon="8.846169883433522"><ele>246.0</ele><time>2026-04-11T07:40:53Z</time></trkpt><trkpt lat="45.644911134740795" lon="8.845883821642499"><ele>245.5</ele><time>2026-04-11T07:40:54Z</time></trkpt><trkpt lat="45.645028945600025" lon="8.84560667380473"><ele>245.0</ele><time>2026-04-11T07:40:55Z</time></trkpt><trkpt lat="45.645158582191904" lon="8.845301705965491"><ele>245.0</ele><time>2026-04-11T07:40:56Z</time></trkpt><trkpt lat="45.64527201482005" lon="8.845027802570693"><ele>245.0</ele><time>2026-04-11T07:40:57Z</time></trkpt><trkpt lat="45.64539509278444" lon="8.844730092853817"><ele>246.5</ele><time>2026-04-11T07:40:58Z</time></trkpt><trkpt lat="45.64551749799214" lon="8.844436956928547"><ele>248.0</ele><time>2026-04-11T07:40:59Z</time></trkpt><trkpt lat="45.64564106876152" lon="8.844143299920377"><ele>248.0</ele><time>2026-04-11T07:41:00Z</time></trkpt><trkpt lat="45.64586864187918" lon="8.843926446261792"><ele>248.0</ele><time>2026-04-11T07:41:01Z</time></trkpt><trkpt lat="45.64599246405061" lon="8.84363250604485"><ele>247.5</ele><time>2026-04-11T07:41:02Z</time></trkpt><trkpt lat="45.64615277585863" lon="8.843351485520339"><ele>247.0</ele><time>2026-04-11T07:41:03Z</time></trkpt><trkpt lat="45.646269287710616" lon="8.843039204673712"><ele>247.0</ele><time>2026-04-11T07:41:04Z</time></trkpt><trkpt lat="45.64627464576386" lon="8.842640869353506"><ele>247.0</ele><time>2026-04-11T07:41:05Z</time></trkpt><trkpt lat="45.646402509090436" lon="8.842337490082423"><ele>247.0</ele><time>2026-04-11T07:41:06Z</time></trkpt><trkpt lat="45.64652307567" lon="8.842048497231957"><ele>247.0</ele><time>2026-04-11T07:41:07Z</time></trkpt><trkpt lat="45.64664068448368" lon="8.84176467853936"><ele>246.5</ele><time>2026-04-11T07:41:08Z</time></trkpt><trkpt lat="45.64677129167303" lon="8.84144851018667"><ele>246.0</ele><time>2026-04-11T07:41:09Z</time></trkpt><trkpt lat="45.64689333796978" lon="8.841153065574511"><ele>247.0</ele><time>2026-04-11T07:41:10Z</time></trkpt><trkpt lat="45.64701296272188" lon="8.840867570672167"><ele>248.0</ele><time>2026-04-11T07:41:11Z</time></trkpt><trkpt lat="45.64714604566938" lon="8.840550618429187"><ele>248.0</ele><time>2026-04-11T07:41:12Z</time></trkpt><trkpt lat="45.647263404476" lon="8.840273474613536"><ele>248.0</ele><time>2026-04-11T07:41:13Z</time></trkpt><trkpt lat="45.64737699525882" lon="8.840003774591375"><ele>248.0</ele><time>2026-04-11T07:41:14Z</time></trkpt><trkpt lat="45.647496395817235" lon="8.839719250728939"><ele>248.0</ele><time>2026-04-11T07:41:15Z</time></trkpt><trkpt lat="45.64761521064089" lon="8.83943612254966"><ele>248.0</ele><time>2026-04-11T07:41:16Z</time></trkpt><trkpt lat="45.647729264895524" lon="8.839164102978025"><ele>251.0</ele><time>2026-04-11T07:41:17Z</time></trkpt><trkpt lat="45.64787007918369" lon="8.838827444351722"><ele>254.0</ele><time>2026-04-11T07:41:18Z</time></trkpt><trkpt lat="45.64799512172896" lon="8.838528492770712"><ele>252.0</ele><time>2026-04-11T07:41:19Z</time></trkpt><trkpt lat="45.64811528542094" lon="8.838241030917377"><ele>250.0</ele><time>2026-04-11T07:41:20Z</time></trkpt><trkpt lat="45.648240267724006" lon="8.837940624234328"><ele>250.0</ele><time>2026-04-11T07:41:21Z</time></trkpt><trkpt lat="45.648366020334755" lon="8.83763836603806"><ele>250.0</ele><time>2026-04-11T07:41:22Z</time></trkpt><trkpt lat="45.64848431482036" lon="8.837354034088357"><ele>249.0</ele><time>2026-04-11T07:41:23Z</time></trkpt><trkpt lat="45.648611434907956" lon="8.837048489075631"><ele>248.0</ele><time>2026-04-11T07:41:24Z</time></trkpt><trkpt lat="45.64873572111088" lon="8.836749754536436"><ele>248.0</ele><time>2026-04-11T07:41:25Z</time></trkpt><trkpt lat="45.64886054291577" lon="8.836452516357454"><ele>248.0</ele><time>2026-04-11T07:41:26Z</time></trkpt><trkpt lat="45.64899542213577" lon="8.836163775216262"><ele>249.5</ele><time>2026-04-11T07:41:27Z</time></trkpt><trkpt lat="45.64912596095148" lon="8.835879815630419"><ele>251.0</ele><time>2026-04-11T07:41:28Z</time></trkpt><trkpt lat="45.649248005258286" lon="8.835588493985075"><ele>251.0</ele><time>2026-04-11T07:41:29Z</time></trkpt><trkpt lat="45.64937400758263" lon="8.835282819533655"><ele>251.0</ele><time>2026-04-11T07:41:30Z</time></trkpt><trkpt lat="45.64949567423529" lon="8.8349939142579"><ele>251.5</ele><time>2026-04-11T07:41:31Z</time></trkpt><trkpt lat="45.649618984868404" lon="8.83470110525808"><ele>252.0</ele><time>2026-04-11T07:41:32Z</time></trkpt><trkpt lat="45.649744576360455" lon="8.834402842007108"><ele>252.0</ele><time>2026-04-11T07:41:33Z</time></trkpt><trkpt lat="45.6498704757554" lon="8.834105019263578"><ele>252.0</ele><time>2026-04-11T07:41:34Z</time></trkpt><trkpt lat="45.64999909578045" lon="8.83380360176809"><ele>252.0</ele><time>2026-04-11T07:41:35Z</time></trkpt><trkpt lat="45.65024031711097" lon="8.833603494481613"><ele>252.0</ele><time>2026-04-11T07:41:36Z</time></trkpt><trkpt lat="45.6503590642749" lon="8.83330130616272"><ele>254.0</ele><time>2026-04-11T07:41:37Z</time></trkpt><trkpt lat="45.650494567208185" lon="8.833018352826803"><ele>256.0</ele><time>2026-04-11T07:41:38Z</time></trkpt><trkpt lat="45.65063025298503" lon="8.83274311070826"><ele>254.0</ele><time>2026-04-11T07:41:39Z</time></trkpt><trkpt lat="45.65073129306178" lon="8.832411636328604"><ele>252.0</ele><time>2026-04-11T07:41:40Z</time></trkpt><trkpt lat="45.65085834846705" lon="8.832120042432143"><ele>250.5</ele><time>2026-04-11T07:41:41Z</time></trkpt><trkpt lat="45.65096232486553" lon="8.831792541793085"><ele>249.0</ele><time>2026-04-11T07:41:42Z</time></trkpt><trkpt lat="45.65110583451067" lon="8.83151334300998"><ele>249.0</ele><time>2026-04-11T07:41:43Z</time></trkpt><trkpt lat="45.65122325678486" lon="8.831193603989185"><ele>249.0</ele><time>2026-04-11T07:41:44Z</time></trkpt><trkpt lat="45.65133764774996" lon="8.83087878828157"><ele>249.5</ele><time>2026-04-11T07:41:45Z</time></trkpt><trkpt lat="45.65144856953311" lon="8.830561829521615"><ele>250.0</ele><time>2026-04-11T07:41:46Z</time></trkpt><trkpt lat="45.65158707838687" lon="8.830270000671797"><ele>249.5</ele><time>2026-04-11T07:41:47Z</time></trkpt><trkpt lat="45.651697171121405" lon="8.82996369300974"><ele>249.0</ele><time>2026-04-11T07:41:48Z</time></trkpt><trkpt lat="45.65179852772769" lon="8.82967173449356"><ele>249.0</ele><time>2026-04-11T07:41:49Z</time></trkpt><trkpt lat="45.651938928166274" lon="8.829392482090338"><ele>249.0</ele><time>2026-04-11T07:41:50Z</time></trkpt><trkpt lat="45.652046131554606" lon="8.829078525778083"><ele>248.5</ele><time>2026-04-11T07:41:51Z</time></trkpt><trkpt lat="45.65220634142851" lon="8.828838131185691"><ele>248.0</ele><time>2026-04-11T07:41:52Z</time></trkpt><trkpt lat="45.652211540501575" lon="8.828469878245489"><ele>248.0</ele><time>2026-04-11T07:41:53Z</time></trkpt><trkpt lat="45.65232402884549" lon="8.828199175897113"><ele>248.0</ele><time>2026-04-11T07:41:54Z</time></trkpt><trkpt lat="45.65244969283295" lon="8.827898542206494"><ele>249.0</ele><time>2026-04-11T07:41:55Z</time></trkpt><trkpt lat="45.652564725312324" lon="8.827623376957751"><ele>250.0</ele><time>2026-04-11T07:41:56Z</time></trkpt><trkpt lat="45.65268057885073" lon="8.827346228907942"><ele>250.0</ele><time>2026-04-11T07:41:57Z</time></trkpt><trkpt lat="45.65280275102577" lon="8.827054372212809"><ele>250.0</ele><time>2026-04-11T07:41:58Z</time></trkpt><trkpt lat="45.65293356702352" lon="8.826745173358601"><ele>250.0</ele><time>2026-04-11T07:41:59Z</time></trkpt><trkpt lat="45.65304840849101" lon="8.826473732302674"><ele>250.0</ele><time>2026-04-11T07:42:00Z</time></trkpt><trkpt lat="45.65316938369878" lon="8.82618779333301"><ele>248.0</ele><time>2026-04-11T07:42:01Z</time></trkpt><trkpt lat="45.653288867978475" lon="8.825901437229335"><ele>246.0</ele><time>2026-04-11T07:42:02Z</time></trkpt><trkpt lat="45.65341023442982" lon="8.82561037584549"><ele>246.0</ele><time>2026-04-11T07:42:03Z</time></trkpt><trkpt lat="45.65352731219107" lon="8.82533002388868"><ele>246.0</ele><time>2026-04-11T07:42:04Z</time></trkpt><trkpt lat="45.653635340641806" lon="8.825071341107215"><ele>246.0</ele><time>2026-04-11T07:42:05Z</time></trkpt><trkpt lat="45.653743521938765" lon="8.824812292395606"><ele>246.5</ele><time>2026-04-11T07:42:06Z</time></trkpt><trkpt lat="45.65386177282161" lon="8.824529131098721"><ele>247.0</ele><time>2026-04-11T07:42:07Z</time></trkpt><trkpt lat="45.65398334773409" lon="8.824238010165702"><ele>247.5</ele><time>2026-04-11T07:42:08Z</time></trkpt><trkpt lat="45.65410719944678" lon="8.82394164465384"><ele>248.0</ele><time>2026-04-11T07:42:09Z</time></trkpt><trkpt lat="45.654238135036955" lon="8.82363043216866"><ele>248.0</ele><time>2026-04-11T07:42:10Z</time></trkpt><trkpt lat="45.65435977880154" lon="8.823341304836646"><ele>248.0</ele><time>2026-04-11T07:42:11Z</time></trkpt><trkpt lat="45.65448170456906" lon="8.823051507312503"><ele>248.0</ele><time>2026-04-11T07:42:12Z</time></trkpt><trkpt lat="45.654607905820285" lon="8.822751547547027"><ele>248.0</ele><time>2026-04-11T07:42:13Z</time></trkpt><trkpt lat="45.654728677913354" lon="8.82246110951341"><ele>248.0</ele><time>2026-04-11T07:42:14Z</time></trkpt><trkpt lat="45.654847646236824" lon="8.822174377919247"><ele>248.0</ele><time>2026-04-11T07:42:15Z</time></trkpt><trkpt lat="45.65496790281888" lon="8.821890331261065"><ele>247.0</ele><time>2026-04-11T07:42:16Z</time></trkpt><trkpt lat="45.65508463021861" lon="8.821612244231709"><ele>246.0</ele><time>2026-04-11T07:42:17Z</time></trkpt><trkpt lat="45.65521038069782" lon="8.821312660590412"><ele>247.5</ele><time>2026-04-11T07:42:18Z</time></trkpt><trkpt lat="45.65532883664788" lon="8.821030354353606"><ele>249.0</ele><time>2026-04-11T07:42:19Z</time></trkpt><trkpt lat="45.655448909928374" lon="8.820741923485713"><ele>249.0</ele><time>2026-04-11T07:42:20Z</time></trkpt><trkpt lat="45.655564332541466" lon="8.820464664868458"><ele>249.0</ele><time>2026-04-11T07:42:21Z</time></trkpt><trkpt lat="45.65567833925898" lon="8.82019080685447"><ele>249.0</ele><time>2026-04-11T07:42:22Z</time></trkpt><trkpt lat="45.655790371281334" lon="8.819921692410434"><ele>248.5</ele><time>2026-04-11T07:42:23Z</time></trkpt><trkpt lat="45.65591453464745" lon="8.819625773056956"><ele>248.0</ele><time>2026-04-11T07:42:24Z</time></trkpt><trkpt lat="45.656031723389084" lon="8.81934888546845"><ele>249.0</ele><time>2026-04-11T07:42:25Z</time></trkpt><trkpt lat="45.65615712752139" lon="8.81905258783415"><ele>250.0</ele><time>2026-04-11T07:42:26Z</time></trkpt><trkpt lat="45.656277530490684" lon="8.818767927468935"><ele>250.0</ele><time>2026-04-11T07:42:27Z</time></trkpt><trkpt lat="45.6563958371468" lon="8.818488108379215"><ele>250.0</ele><time>2026-04-11T07:42:28Z</time></trkpt><trkpt lat="45.65651443660347" lon="8.818207596159581"><ele>249.66666666666666</ele><time>2026-04-11T07:42:29Z</time></trkpt><trkpt lat="45.656634537332955" lon="8.817923535440407"><ele>249.33333333333331</ele><time>2026-04-11T07:42:30Z</time></trkpt><trkpt lat="45.656736758055736" lon="8.817667075550489"><ele>249.0</ele><time>2026-04-11T07:42:31Z</time></trkpt><trkpt lat="45.65681725506496" lon="8.817387255756628"><ele>248.66666666666669</ele><time>2026-04-11T07:42:32Z</time></trkpt><trkpt lat="45.6568927108575" lon="8.817089125340347"><ele>248.33333333333334</ele><time>2026-04-11T07:42:33Z</time></trkpt><trkpt lat="45.65701868934404" lon="8.816829401009475"><ele>248.0</ele><time>2026-04-11T07:42:34Z</time></trkpt><trkpt lat="45.657197876082435" lon="8.816574792898095"><ele>248.0</ele><time>2026-04-11T07:42:35Z</time></trkpt><trkpt lat="45.65731618677216" lon="8.816291244440679"><ele>248.0</ele><time>2026-04-11T07:42:36Z</time></trkpt><trkpt lat="45.65742220652661" lon="8.816035667870986"><ele>248.0</ele><time>2026-04-11T07:42:37Z</time></trkpt><trkpt lat="45.657539950503875" lon="8.815751842669584"><ele>248.0</ele><time>2026-04-11T07:42:38Z</time></trkpt><trkpt lat="45.65766403554335" lon="8.815453278187666"><ele>248.0</ele><time>2026-04-11T07:42:39Z</time></trkpt><trkpt lat="45.65778629456557" lon="8.815159107481014"><ele>248.5</ele><time>2026-04-11T07:42:40Z</time></trkpt><trkpt lat="45.657906899689884" lon="8.81486891613118"><ele>249.0</ele><time>2026-04-11T07:42:41Z</time></trkpt><trkpt lat="45.658037209029885" lon="8.814555375232233"><ele>248.5</ele><time>2026-04-11T07:42:42Z</time></trkpt><trkpt lat="45.658151931282305" lon="8.814281229682233"><ele>248.0</ele><time>2026-04-11T07:42:43Z</time></trkpt><trkpt lat="45.65827557335815" lon="8.813988361453388"><ele>248.0</ele><time>2026-04-11T07:42:44Z</time></trkpt><trkpt lat="45.65840101683446" lon="8.813691226289388"><ele>248.0</ele><time>2026-04-11T07:42:45Z</time></trkpt><trkpt lat="45.65853903098358" lon="8.813365385911492"><ele>248.5</ele><time>2026-04-11T07:42:46Z</time></trkpt><trkpt lat="45.6586541987628" lon="8.813093820648849"><ele>249.0</ele><time>2026-04-11T07:42:47Z</time></trkpt><trkpt lat="45.658779578563845" lon="8.812794109554305"><ele>249.0</ele><time>2026-04-11T07:42:48Z</time></trkpt><trkpt lat="45.65888802445213" lon="8.81253223647177"><ele>249.0</ele><time>2026-04-11T07:42:49Z</time></trkpt><trkpt lat="45.659010055473445" lon="8.81223731146904"><ele>249.0</ele><time>2026-04-11T07:42:50Z</time></trkpt><trkpt lat="45.659187961216986" lon="8.81201218312258"><ele>249.0</ele><time>2026-04-11T07:42:51Z</time></trkpt><trkpt lat="45.65929904808624" lon="8.811711492613185"><ele>248.0</ele><time>2026-04-11T07:42:52Z</time></trkpt><trkpt lat="45.65941750348749" lon="8.811422423109383"><ele>247.0</ele><time>2026-04-11T07:42:53Z</time></trkpt><trkpt lat="45.65954762871055" lon="8.811161873234497"><ele>247.5</ele><time>2026-04-11T07:42:54Z</time></trkpt><trkpt lat="45.65959605871437" lon="8.810835511606129"><ele>248.0</ele><time>2026-04-11T07:42:55Z</time></trkpt><trkpt lat="45.659718893942326" lon="8.81054322787762"><ele>248.0</ele><time>2026-04-11T07:42:56Z</time></trkpt><trkpt lat="45.6598390903912" lon="8.810257223335661"><ele>248.0</ele><time>2026-04-11T07:42:57Z</time></trkpt><trkpt lat="45.65995895782225" lon="8.809972001791204"><ele>246.5</ele><time>2026-04-11T07:42:58Z</time></trkpt><trkpt lat="45.66007955350905" lon="8.809685047153934"><ele>245.0</ele><time>2026-04-11T07:42:59Z</time></trkpt><trkpt lat="45.66019292891938" lon="8.809415110309288"><ele>247.5</ele><time>2026-04-11T07:43:00Z</time></trkpt><trkpt lat="45.66031538418523" lon="8.80912022386686"><ele>250.0</ele><time>2026-04-11T07:43:01Z</time></trkpt><trkpt lat="45.66043197036192" lon="8.808839211061992"><ele>250.0</ele><time>2026-04-11T07:43:02Z</time></trkpt><trkpt lat="45.66055340338868" lon="8.808546515740169"><ele>250.0</ele><time>2026-04-11T07:43:03Z</time></trkpt><trkpt lat="45.66066463916147" lon="8.808276489529574"><ele>249.0</ele><time>2026-04-11T07:43:04Z</time></trkpt><trkpt lat="45.66078961449731" lon="8.80796791357441"><ele>248.0</ele><time>2026-04-11T07:43:05Z</time></trkpt><trkpt lat="45.66090319629634" lon="8.807686327008126"><ele>248.0</ele><time>2026-04-11T07:43:06Z</time></trkpt><trkpt lat="45.66100901733097" lon="8.807426848717745"><ele>248.0</ele><time>2026-04-11T07:43:07Z</time></trkpt><trkpt lat="45.6611206263842" lon="8.807153177978583"><ele>248.0</ele><time>2026-04-11T07:43:08Z</time></trkpt><trkpt lat="45.66123879428905" lon="8.806858834181178"><ele>247.0</ele><time>2026-04-11T07:43:09Z</time></trkpt><trkpt lat="45.661345403659936" lon="8.806592645284812"><ele>246.0</ele><time>2026-04-11T07:43:10Z</time></trkpt><trkpt lat="45.66145726662101" lon="8.806312703757383"><ele>245.0</ele><time>2026-04-11T07:43:11Z</time></trkpt><trkpt lat="45.66156875764582" lon="8.806033677167127"><ele>246.0</ele><time>2026-04-11T07:43:12Z</time></trkpt><trkpt lat="45.66168303068996" lon="8.805747542287078"><ele>247.0</ele><time>2026-04-11T07:43:13Z</time></trkpt><trkpt lat="45.661796849096575" lon="8.805462545633576"><ele>247.0</ele><time>2026-04-11T07:43:14Z</time></trkpt><trkpt lat="45.66191479080699" lon="8.805167224953545"><ele>247.0</ele><time>2026-04-11T07:43:15Z</time></trkpt><trkpt lat="45.66202923575577" lon="8.804883956817322"><ele>247.0</ele><time>2026-04-11T07:43:16Z</time></trkpt><trkpt lat="45.662137927266" lon="8.804618236198912"><ele>247.0</ele><time>2026-04-11T07:43:17Z</time></trkpt><trkpt lat="45.66223968284267" lon="8.804369471936921"><ele>247.0</ele><time>2026-04-11T07:43:18Z</time></trkpt><trkpt lat="45.66234918219206" lon="8.804105228290616"><ele>247.0</ele><time>2026-04-11T07:43:19Z</time></trkpt><trkpt lat="45.66246647231186" lon="8.803826418999375"><ele>247.0</ele><time>2026-04-11T07:43:20Z</time></trkpt><trkpt lat="45.662591437817476" lon="8.803543523684805"><ele>246.5</ele><time>2026-04-11T07:43:20.999Z</time></trkpt><trkpt lat="45.662720421904524" lon="8.803263586960025"><ele>246.0</ele><time>2026-04-11T07:43:21.999Z</time></trkpt><trkpt lat="45.66285032456005" lon="8.802999171895777"><ele>245.5</ele><time>2026-04-11T07:43:22.999Z</time></trkpt><trkpt lat="45.66298494793872" lon="8.802743386200346"><ele>245.0</ele><time>2026-04-11T07:43:23.999Z</time></trkpt><trkpt lat="45.66312976914552" lon="8.802481249910953"><ele>245.0</ele><time>2026-04-11T07:43:24.999Z</time></trkpt><trkpt lat="45.66327643676405" lon="8.802231379392852"><ele>245.0</ele><time>2026-04-11T07:43:25.999Z</time></trkpt><trkpt lat="45.66342541410952" lon="8.801991030650823"><ele>244.66666666666669</ele><time>2026-04-11T07:43:26.999Z</time></trkpt><trkpt lat="45.66357414028818" lon="8.80175867757929"><ele>244.33333333333331</ele><time>2026-04-11T07:43:27.999Z</time></trkpt><trkpt lat="45.66372458557211" lon="8.801536873570805"><ele>244.0</ele><time>2026-04-11T07:43:28.999Z</time></trkpt><trkpt lat="45.66388293847046" lon="8.801313013422673"><ele>244.0</ele><time>2026-04-11T07:43:29.999Z</time></trkpt><trkpt lat="45.664057732919986" lon="8.80108123471154"><ele>244.0</ele><time>2026-04-11T07:43:30.999Z</time></trkpt><trkpt lat="45.664226728196844" lon="8.800868379194307"><ele>244.33333333333331</ele><time>2026-04-11T07:43:31.999Z</time></trkpt><trkpt lat="45.66440483555415" lon="8.800663036213903"><ele>244.66666666666669</ele><time>2026-04-11T07:43:32.999Z</time></trkpt><trkpt lat="45.664570078715144" lon="8.80045413616911"><ele>245.0</ele><time>2026-04-11T07:43:33.999Z</time></trkpt><trkpt lat="45.664743538141146" lon="8.800260775433445"><ele>245.66666666666669</ele><time>2026-04-11T07:43:34.999Z</time></trkpt><trkpt lat="45.66493273193379" lon="8.800089477520208"><ele>246.33333333333331</ele><time>2026-04-11T07:43:35.999Z</time></trkpt><trkpt lat="45.66511558933533" lon="8.799928354215856"><ele>247.0</ele><time>2026-04-11T07:43:36.999Z</time></trkpt><trkpt lat="45.66530661977073" lon="8.799782968658747"><ele>247.5</ele><time>2026-04-11T07:43:37.999Z</time></trkpt><trkpt lat="45.66550977749992" lon="8.799652739843642"><ele>248.0</ele><time>2026-04-11T07:43:38.999Z</time></trkpt><trkpt lat="45.6657252206002" lon="8.799525484887141"><ele>248.0</ele><time>2026-04-11T07:43:39.999Z</time></trkpt><trkpt lat="45.66592880254465" lon="8.79945264042847"><ele>248.0</ele><time>2026-04-11T07:43:40.999Z</time></trkpt><trkpt lat="45.666142961058874" lon="8.79934615725529"><ele>248.0</ele><time>2026-04-11T07:43:41.999Z</time></trkpt><trkpt lat="45.66635585469508" lon="8.799248504319158"><ele>246.66666666666669</ele><time>2026-04-11T07:43:42.999Z</time></trkpt><trkpt lat="45.666573154096874" lon="8.799174755983246"><ele>245.33333333333331</ele><time>2026-04-11T07:43:43.999Z</time></trkpt><trkpt lat="45.6667914118804" lon="8.799120779962275"><ele>244.0</ele><time>2026-04-11T07:43:44.999Z</time></trkpt><trkpt lat="45.66698759670685" lon="8.799109682266524"><ele>243.0</ele><time>2026-04-11T07:43:45.999Z</time></trkpt><trkpt lat="45.66720341484958" lon="8.799088387407885"><ele>242.0</ele><time>2026-04-11T07:43:46.999Z</time></trkpt><trkpt lat="45.667438473213835" lon="8.7990666148074"><ele>242.0</ele><time>2026-04-11T07:43:47.999Z</time></trkpt><trkpt lat="45.66765950389386" lon="8.799077853827558"><ele>242.0</ele><time>2026-04-11T07:43:48.999Z</time></trkpt><trkpt lat="45.66788280438215" lon="8.799105605538129"><ele>242.0</ele><time>2026-04-11T07:43:49.999Z</time></trkpt><trkpt lat="45.66810658297165" lon="8.799177283506847"><ele>242.5</ele><time>2026-04-11T07:43:50.999Z</time></trkpt><trkpt lat="45.668334816504824" lon="8.799240008274879"><ele>243.0</ele><time>2026-04-11T07:43:51.999Z</time></trkpt><trkpt lat="45.6685613552346" lon="8.79930621267603"><ele>244.0</ele><time>2026-04-11T07:43:52.999Z</time></trkpt><trkpt lat="45.66878866689885" lon="8.799372031979754"><ele>245.0</ele><time>2026-04-11T07:43:53.999Z</time></trkpt><trkpt lat="45.669002553247374" lon="8.799428890561554"><ele>246.0</ele><time>2026-04-11T07:43:54.999Z</time></trkpt><trkpt lat="45.66921723436125" lon="8.799496490814485"><ele>246.0</ele><time>2026-04-11T07:43:55.999Z</time></trkpt><trkpt lat="45.66942414641203" lon="8.799569199845513"><ele>246.0</ele><time>2026-04-11T07:43:56.999Z</time></trkpt><trkpt lat="45.669643279006515" lon="8.799623620247143"><ele>246.0</ele><time>2026-04-11T07:43:57.999Z</time></trkpt><trkpt lat="45.6698608806175" lon="8.79970712631508"><ele>246.0</ele><time>2026-04-11T07:43:58.999Z</time></trkpt><trkpt lat="45.67008510749565" lon="8.799795522226653"><ele>246.0</ele><time>2026-04-11T07:43:59.999Z</time></trkpt><trkpt lat="45.670307032850054" lon="8.799893657435739"><ele>247.5</ele><time>2026-04-11T07:44:00.999Z</time></trkpt><trkpt lat="45.670504153325616" lon="8.80006620003658"><ele>249.0</ele><time>2026-04-11T07:44:01.999Z</time></trkpt><trkpt lat="45.67073439652735" lon="8.800126758313162"><ele>249.0</ele><time>2026-04-11T07:44:02.999Z</time></trkpt><trkpt lat="45.670963260579754" lon="8.800193299336566"><ele>249.0</ele><time>2026-04-11T07:44:03.999Z</time></trkpt><trkpt lat="45.67119153259736" lon="8.800260091188877"><ele>249.0</ele><time>2026-04-11T07:44:04.999Z</time></trkpt><trkpt lat="45.67142849700993" lon="8.800331171597557"><ele>249.0</ele><time>2026-04-11T07:44:05.999Z</time></trkpt><trkpt lat="45.67166083201826" lon="8.800412365543352"><ele>249.0</ele><time>2026-04-11T07:44:06.999Z</time></trkpt><trkpt lat="45.67188432205376" lon="8.800510569113907"><ele>249.0</ele><time>2026-04-11T07:44:07.999Z</time></trkpt><trkpt lat="45.67209281348646" lon="8.800559633211416"><ele>249.0</ele><time>2026-04-11T07:44:08.999Z</time></trkpt><trkpt lat="45.67230765363326" lon="8.800648973450963"><ele>249.5</ele><time>2026-04-11T07:44:09.999Z</time></trkpt><trkpt lat="45.67252142300376" lon="8.800752415180593"><ele>250.0</ele><time>2026-04-11T07:44:10.999Z</time></trkpt><trkpt lat="45.6727303854952" lon="8.800872711529644"><ele>250.0</ele><time>2026-04-11T07:44:11.999Z</time></trkpt><trkpt lat="45.67294113791406" lon="8.80098523874415"><ele>250.0</ele><time>2026-04-11T07:44:12.999Z</time></trkpt><trkpt lat="45.673147680254495" lon="8.801104791993213"><ele>250.0</ele><time>2026-04-11T07:44:13.999Z</time></trkpt><trkpt lat="45.67336084293841" lon="8.801192967681132"><ele>250.0</ele><time>2026-04-11T07:44:14.999Z</time></trkpt><trkpt lat="45.673569395829986" lon="8.801257893045593"><ele>250.0</ele><time>2026-04-11T07:44:15.999Z</time></trkpt><trkpt lat="45.673779885949266" lon="8.8013172376136"><ele>250.0</ele><time>2026-04-11T07:44:16.999Z</time></trkpt><trkpt lat="45.674016568380154" lon="8.801297058347567"><ele>250.33333333333331</ele><time>2026-04-11T07:44:17.999Z</time></trkpt><trkpt lat="45.67425059801281" lon="8.801306456661674"><ele>250.66666666666669</ele><time>2026-04-11T07:44:18.999Z</time></trkpt><trkpt lat="45.67444106075822" lon="8.801303085575848"><ele>251.0</ele><time>2026-04-11T07:44:19.999Z</time></trkpt><trkpt lat="45.674645240768385" lon="8.801180725214069"><ele>251.0</ele><time>2026-04-11T07:44:20.999Z</time></trkpt><trkpt lat="45.67484825251246" lon="8.801080132394627"><ele>251.0</ele><time>2026-04-11T07:44:21.999Z</time></trkpt><trkpt lat="45.675052193970885" lon="8.801028421295618"><ele>251.0</ele><time>2026-04-11T07:44:22.999Z</time></trkpt><trkpt lat="45.67525305385726" lon="8.80092398386753"><ele>251.5</ele><time>2026-04-11T07:44:23.999Z</time></trkpt><trkpt lat="45.67544614945422" lon="8.800807429352778"><ele>252.0</ele><time>2026-04-11T07:44:24.999Z</time></trkpt><trkpt lat="45.67565556895252" lon="8.800622627854553"><ele>252.0</ele><time>2026-04-11T07:44:25.999Z</time></trkpt><trkpt lat="45.675871556782894" lon="8.800466264350874"><ele>252.0</ele><time>2026-04-11T07:44:26.999Z</time></trkpt><trkpt lat="45.67604420865461" lon="8.800332400280693"><ele>252.0</ele><time>2026-04-11T07:44:27.999Z</time></trkpt><trkpt lat="45.67617945054791" lon="8.8000871844858"><ele>252.33333333333331</ele><time>2026-04-11T07:44:28.999Z</time></trkpt><trkpt lat="45.67632501857911" lon="8.79988432911033"><ele>252.66666666666666</ele><time>2026-04-11T07:44:29.999Z</time></trkpt><trkpt lat="45.676463704838696" lon="8.799655831954334"><ele>253.0</ele><time>2026-04-11T07:44:30.999Z</time></trkpt><trkpt lat="45.67662359661917" lon="8.799452990124419"><ele>253.0</ele><time>2026-04-11T07:44:31.999Z</time></trkpt><trkpt lat="45.67678283865078" lon="8.799221870518002"><ele>253.0</ele><time>2026-04-11T07:44:32.999Z</time></trkpt><trkpt lat="45.676944537129614" lon="8.798988258308873"><ele>253.0</ele><time>2026-04-11T07:44:33.999Z</time></trkpt><trkpt lat="45.6771010765791" lon="8.798741592148447"><ele>253.0</ele><time>2026-04-11T07:44:34.999Z</time></trkpt><trkpt lat="45.677370078220854" lon="8.798559586711935"><ele>253.0</ele><time>2026-04-11T07:44:35.999Z</time></trkpt><trkpt lat="45.67754600986403" lon="8.79835324081783"><ele>253.0</ele><time>2026-04-11T07:44:36.999Z</time></trkpt><trkpt lat="45.67769472703632" lon="8.7981475315219"><ele>253.0</ele><time>2026-04-11T07:44:37.999Z</time></trkpt><trkpt lat="45.67785186170694" lon="8.797939243030049"><ele>253.5</ele><time>2026-04-11T07:44:38.999Z</time></trkpt><trkpt lat="45.67801887309411" lon="8.797716685606142"><ele>254.0</ele><time>2026-04-11T07:44:39.999Z</time></trkpt><trkpt lat="45.678176701124706" lon="8.797476192486094"><ele>254.0</ele><time>2026-04-11T07:44:40.999Z</time></trkpt><trkpt lat="45.678346709768796" lon="8.797298512682282"><ele>254.0</ele><time>2026-04-11T07:44:41.999Z</time></trkpt><trkpt lat="45.678522621129055" lon="8.797103428716223"><ele>254.0</ele><time>2026-04-11T07:44:42.999Z</time></trkpt><trkpt lat="45.67866647814779" lon="8.796868654207477"><ele>255.0</ele><time>2026-04-11T07:44:43.999Z</time></trkpt><trkpt lat="45.6788356724155" lon="8.796650461883278"><ele>256.0</ele><time>2026-04-11T07:44:44.999Z</time></trkpt><trkpt lat="45.67900128763534" lon="8.796436447715182"><ele>256.0</ele><time>2026-04-11T07:44:45.999Z</time></trkpt><trkpt lat="45.6791736770493" lon="8.796223358370714"><ele>256.0</ele><time>2026-04-11T07:44:46.999Z</time></trkpt><trkpt lat="45.67934702668608" lon="8.795999789367182"><ele>256.0</ele><time>2026-04-11T07:44:47.999Z</time></trkpt><trkpt lat="45.67953377872404" lon="8.795801938822766"><ele>256.0</ele><time>2026-04-11T07:44:48.999Z</time></trkpt><trkpt lat="45.67973771545364" lon="8.795612112241134"><ele>256.0</ele><time>2026-04-11T07:44:49.999Z</time></trkpt><trkpt lat="45.6799102462678" lon="8.79540263984027"><ele>256.0</ele><time>2026-04-11T07:44:50.999Z</time></trkpt><trkpt lat="45.6801145031952" lon="8.795219159870882"><ele>256.66666666666663</ele><time>2026-04-11T07:44:51.999Z</time></trkpt><trkpt lat="45.68025607646533" lon="8.795022064097575"><ele>257.3333333333333</ele><time>2026-04-11T07:44:52.999Z</time></trkpt><trkpt lat="45.68041599056943" lon="8.794805556580409"><ele>258.0</ele><time>2026-04-11T07:44:53.999Z</time></trkpt><trkpt lat="45.6805858868793" lon="8.794601005250652"><ele>258.0</ele><time>2026-04-11T07:44:54.999Z</time></trkpt><trkpt lat="45.68073808828173" lon="8.794380231248843"><ele>258.0</ele><time>2026-04-11T07:44:55.999Z</time></trkpt><trkpt lat="45.68090366028937" lon="8.794171711717848"><ele>258.0</ele><time>2026-04-11T07:44:56.999Z</time></trkpt><trkpt lat="45.6810714528984" lon="8.793971774661973"><ele>258.3333333333333</ele><time>2026-04-11T07:44:57.999Z</time></trkpt><trkpt lat="45.681242084791236" lon="8.793800918901963"><ele>258.66666666666663</ele><time>2026-04-11T07:44:58.999Z</time></trkpt><trkpt lat="45.6814144506855" lon="8.793614730431761"><ele>259.0</ele><time>2026-04-11T07:44:59.999Z</time></trkpt><trkpt lat="45.681579421173524" lon="8.793426517569833"><ele>258.3333333333333</ele><time>2026-04-11T07:45:00.999Z</time></trkpt><trkpt lat="45.681738897285165" lon="8.79324322731025"><ele>257.6666666666667</ele><time>2026-04-11T07:45:01.999Z</time></trkpt><trkpt lat="45.68189931058872" lon="8.793061487544088"><ele>257.0</ele><time>2026-04-11T07:45:02.999Z</time></trkpt><trkpt lat="45.682065724168694" lon="8.792874579873219"><ele>257.0</ele><time>2026-04-11T07:45:03.999Z</time></trkpt><trkpt lat="45.68223275794124" lon="8.792681133071964"><ele>257.0</ele><time>2026-04-11T07:45:04.999Z</time></trkpt><trkpt lat="45.68241764736579" lon="8.792462507280398"><ele>257.5</ele><time>2026-04-11T07:45:05.999Z</time></trkpt><trkpt lat="45.68259206827463" lon="8.792273463096976"><ele>258.0</ele><time>2026-04-11T07:45:06.999Z</time></trkpt><trkpt lat="45.68276804344546" lon="8.792056951016846"><ele>259.0</ele><time>2026-04-11T07:45:07.999Z</time></trkpt><trkpt lat="45.682944542052695" lon="8.791829727065897"><ele>260.0</ele><time>2026-04-11T07:45:08.999Z</time></trkpt><trkpt lat="45.683111796261244" lon="8.791608655216823"><ele>260.0</ele><time>2026-04-11T07:45:09.999Z</time></trkpt><trkpt lat="45.68327268623936" lon="8.791381650609644"><ele>260.0</ele><time>2026-04-11T07:45:10.999Z</time></trkpt><trkpt lat="45.68343795027559" lon="8.791129903076802"><ele>260.5</ele><time>2026-04-11T07:45:11.999Z</time></trkpt><trkpt lat="45.68360162917477" lon="8.790889467748196"><ele>261.0</ele><time>2026-04-11T07:45:12.999Z</time></trkpt><trkpt lat="45.68375809622907" lon="8.790675343042514"><ele>261.0</ele><time>2026-04-11T07:45:13.999Z</time></trkpt><trkpt lat="45.683917055102725" lon="8.790429090320659"><ele>261.0</ele><time>2026-04-11T07:45:14.999Z</time></trkpt><trkpt lat="45.684071657116824" lon="8.790183283498967"><ele>262.3333333333333</ele><time>2026-04-11T07:45:15.999Z</time></trkpt><trkpt lat="45.68421609565437" lon="8.789942084809857"><ele>263.66666666666663</ele><time>2026-04-11T07:45:16.999Z</time></trkpt><trkpt lat="45.68435747320472" lon="8.78969333185295"><ele>265.0</ele><time>2026-04-11T07:45:17.999Z</time></trkpt><trkpt lat="45.68448196181275" lon="8.789436828559904"><ele>273.5</ele><time>2026-04-11T07:45:18.999Z</time></trkpt><trkpt lat="45.68462988307206" lon="8.78916946386768"><ele>282.0</ele><time>2026-04-11T07:45:19.999Z</time></trkpt><trkpt lat="45.68479400979239" lon="8.788887373310688"><ele>282.0</ele><time>2026-04-11T07:45:20.999Z</time></trkpt><trkpt lat="45.68491950426278" lon="8.788610567862575"><ele>282.0</ele><time>2026-04-11T07:45:21.999Z</time></trkpt><trkpt lat="45.685058049558556" lon="8.788331156732918"><ele>283.0</ele><time>2026-04-11T07:45:22.999Z</time></trkpt><trkpt lat="45.68519126720156" lon="8.788063303036363"><ele>284.0</ele><time>2026-04-11T07:45:23.999Z</time></trkpt><trkpt lat="45.685315642485975" lon="8.787786357482014"><ele>286.5</ele><time>2026-04-11T07:45:24.999Z</time></trkpt><trkpt lat="45.68543875017943" lon="8.787495898151578"><ele>289.0</ele><time>2026-04-11T07:45:25.999Z</time></trkpt><trkpt lat="45.68560486016568" lon="8.787251645299884"><ele>289.0</ele><time>2026-04-11T07:45:26.999Z</time></trkpt><trkpt lat="45.685748049379825" lon="8.787012856540436"><ele>289.0</ele><time>2026-04-11T07:45:27.999Z</time></trkpt><trkpt lat="45.68590049289354" lon="8.7867243452271"><ele>287.66666666666663</ele><time>2026-04-11T07:45:28.999Z</time></trkpt><trkpt lat="45.68599204895568" lon="8.786438621066774"><ele>286.3333333333333</ele><time>2026-04-11T07:45:29.999Z</time></trkpt><trkpt lat="45.68608003413448" lon="8.786143995102705"><ele>285.0</ele><time>2026-04-11T07:45:30.999Z</time></trkpt><trkpt lat="45.68617302659006" lon="8.785844424700588"><ele>290.5</ele><time>2026-04-11T07:45:31.999Z</time></trkpt><trkpt lat="45.686249837881824" lon="8.785534878829454"><ele>296.0</ele><time>2026-04-11T07:45:32.999Z</time></trkpt><trkpt lat="45.686350718475495" lon="8.785236185169632"><ele>294.5</ele><time>2026-04-11T07:45:33.999Z</time></trkpt><trkpt lat="45.68642053262213" lon="8.78492810092524"><ele>293.0</ele><time>2026-04-11T07:45:34.999Z</time></trkpt><trkpt lat="45.68649212362437" lon="8.784612185702455"><ele>292.6666666666667</ele><time>2026-04-11T07:45:35.999Z</time></trkpt><trkpt lat="45.68655755374134" lon="8.784310255225062"><ele>292.3333333333333</ele><time>2026-04-11T07:45:36.999Z</time></trkpt><trkpt lat="45.686665772431695" lon="8.784039770886777"><ele>292.0</ele><time>2026-04-11T07:45:37.999Z</time></trkpt><trkpt lat="45.686750204183184" lon="8.783746004255747"><ele>291.5</ele><time>2026-04-11T07:45:38.999Z</time></trkpt><trkpt lat="45.686847774248186" lon="8.783427474950834"><ele>291.0</ele><time>2026-04-11T07:45:39.999Z</time></trkpt><trkpt lat="45.68694345640877" lon="8.783131466517029"><ele>286.0</ele><time>2026-04-11T07:45:40.999Z</time></trkpt><trkpt lat="45.687020044037745" lon="8.782814951979192"><ele>281.0</ele><time>2026-04-11T07:45:41.999Z</time></trkpt><trkpt lat="45.68706267000913" lon="8.78245702266705"><ele>280.0</ele><time>2026-04-11T07:45:42.999Z</time></trkpt><trkpt lat="45.68713046022696" lon="8.782112843082114"><ele>279.0</ele><time>2026-04-11T07:45:43.999Z</time></trkpt><trkpt lat="45.68720224676366" lon="8.781776444002867"><ele>281.5</ele><time>2026-04-11T07:45:44.999Z</time></trkpt><trkpt lat="45.68733703762707" lon="8.781498448849694"><ele>284.0</ele><time>2026-04-11T07:45:45.999Z</time></trkpt><trkpt lat="45.68746023073256" lon="8.781225570781759"><ele>286.5</ele><time>2026-04-11T07:45:46.999Z</time></trkpt><trkpt lat="45.68754592197726" lon="8.78090551669592"><ele>289.0</ele><time>2026-04-11T07:45:47.999Z</time></trkpt><trkpt lat="45.68763494755219" lon="8.780570977757327"><ele>289.0</ele><time>2026-04-11T07:45:48.999Z</time></trkpt><trkpt lat="45.687723580049585" lon="8.780240237158631"><ele>289.0</ele><time>2026-04-11T07:45:49.999Z</time></trkpt><trkpt lat="45.687813614853795" lon="8.779904263905015"><ele>284.66666666666663</ele><time>2026-04-11T07:45:50.999Z</time></trkpt><trkpt lat="45.687892199147974" lon="8.779600673034878"><ele>280.3333333333333</ele><time>2026-04-11T07:45:51.999Z</time></trkpt><trkpt lat="45.68796587261059" lon="8.779314862398696"><ele>276.0</ele><time>2026-04-11T07:45:52.999Z</time></trkpt><trkpt lat="45.688038794603564" lon="8.779033065656595"><ele>276.0</ele><time>2026-04-11T07:45:53.999Z</time></trkpt><trkpt lat="45.688157930061315" lon="8.778791815027322"><ele>276.0</ele><time>2026-04-11T07:45:54.999Z</time></trkpt><trkpt lat="45.688232633494586" lon="8.778536154100276"><ele>276.0</ele><time>2026-04-11T07:45:55.999Z</time></trkpt><trkpt lat="45.68830444407592" lon="8.77830143346164"><ele>276.6666666666667</ele><time>2026-04-11T07:45:56.999Z</time></trkpt><trkpt lat="45.688368136518235" lon="8.778095178893231"><ele>277.33333333333337</ele><time>2026-04-11T07:45:57.999Z</time></trkpt><trkpt lat="45.68839932117216" lon="8.777866714114769"><ele>278.0</ele><time>2026-04-11T07:45:58.999Z</time></trkpt><trkpt lat="45.68845891204071" lon="8.777664419694027"><ele>278.75</ele><time>2026-04-11T07:45:59.999Z</time></trkpt><trkpt lat="45.68853888892614" lon="8.77750524299903"><ele>279.5</ele><time>2026-04-11T07:46:00.999Z</time></trkpt><trkpt lat="45.68860254709481" lon="8.777356451054931"><ele>280.25</ele><time>2026-04-11T07:46:01.999Z</time></trkpt><trkpt lat="45.68865783493977" lon="8.777206221417995"><ele>281.0</ele><time>2026-04-11T07:46:02.999Z</time></trkpt><trkpt lat="45.68874697633076" lon="8.777086932154807"><ele>279.6666666666667</ele><time>2026-04-11T07:46:03.999Z</time></trkpt><trkpt lat="45.68880359749853" lon="8.77697561442449"><ele>278.33333333333337</ele><time>2026-04-11T07:46:04.999Z</time></trkpt><trkpt lat="45.68883394749861" lon="8.776885113467584"><ele>277.0</ele><time>2026-04-11T07:46:05.999Z</time></trkpt><trkpt lat="45.68885175674861" lon="8.776762692550427"><ele>275.6666666666667</ele><time>2026-04-11T07:46:07.999Z</time></trkpt><trkpt lat="45.68888712528225" lon="8.776627727912562"><ele>274.3333333333333</ele><time>2026-04-11T07:46:12.999Z</time></trkpt><trkpt lat="45.68886227282231" lon="8.77672255993767"><ele>273.0</ele><time>2026-04-11T07:46:31.999Z</time></trkpt><trkpt lat="45.68891194426444" lon="8.77664949274159"><ele>273.0</ele><time>2026-04-11T07:46:36.999Z</time></trkpt><trkpt lat="45.68897676825311" lon="8.776545976336024"><ele>273.0</ele><time>2026-04-11T07:46:37.999Z</time></trkpt><trkpt lat="45.68902606166993" lon="8.776415755245774"><ele>273.0</ele><time>2026-04-11T07:46:38.999Z</time></trkpt><trkpt lat="45.68898801017888" lon="8.776180965099726"><ele>273.0</ele><time>2026-04-11T07:46:39.999Z</time></trkpt><trkpt lat="45.68901766383932" lon="8.775958049535268"><ele>273.0</ele><time>2026-04-11T07:46:40.999Z</time></trkpt><trkpt lat="45.68907167842222" lon="8.775710350746271"><ele>273.0</ele><time>2026-04-11T07:46:41.999Z</time></trkpt><trkpt lat="45.689121291228105" lon="8.77545246324808"><ele>273.0</ele><time>2026-04-11T07:46:42.999Z</time></trkpt><trkpt lat="45.68916263344409" lon="8.775154184779616"><ele>273.3333333333333</ele><time>2026-04-11T07:46:43.999Z</time></trkpt><trkpt lat="45.689115759653035" lon="8.774829034134882"><ele>273.66666666666663</ele><time>2026-04-11T07:46:44.999Z</time></trkpt><trkpt lat="45.68911898564417" lon="8.77451987983361"><ele>274.0</ele><time>2026-04-11T07:46:45.999Z</time></trkpt><trkpt lat="45.6891985739013" lon="8.774212520143404"><ele>274.0</ele><time>2026-04-11T07:46:46.999Z</time></trkpt><trkpt lat="45.68927502341871" lon="8.77391828730566"><ele>274.0</ele><time>2026-04-11T07:46:47.999Z</time></trkpt><trkpt lat="45.6893483803413" lon="8.77364122966401"><ele>274.0</ele><time>2026-04-11T07:46:48.999Z</time></trkpt><trkpt lat="45.68942799693012" lon="8.773331739267487"><ele>273.66666666666663</ele><time>2026-04-11T07:46:49.999Z</time></trkpt><trkpt lat="45.68950056363934" lon="8.77302665600531"><ele>273.3333333333333</ele><time>2026-04-11T07:46:50.999Z</time></trkpt><trkpt lat="45.689573585384174" lon="8.772725377342086"><ele>273.0</ele><time>2026-04-11T07:46:51.999Z</time></trkpt><trkpt lat="45.68965726313719" lon="8.772416155863457"><ele>272.5</ele><time>2026-04-11T07:46:52.999Z</time></trkpt><trkpt lat="45.68973912593893" lon="8.772111110728568"><ele>272.0</ele><time>2026-04-11T07:46:53.999Z</time></trkpt><trkpt lat="45.68982531824193" lon="8.771781470623369"><ele>271.5</ele><time>2026-04-11T07:46:54.999Z</time></trkpt><trkpt lat="45.68991582668401" lon="8.77143082784794"><ele>271.0</ele><time>2026-04-11T07:46:55.999Z</time></trkpt><trkpt lat="45.690002024983166" lon="8.771106539074385"><ele>272.0</ele><time>2026-04-11T07:46:56.999Z</time></trkpt><trkpt lat="45.690094889172244" lon="8.770761201298807"><ele>273.0</ele><time>2026-04-11T07:46:57.999Z</time></trkpt><trkpt lat="45.69018615681823" lon="8.770417955091641"><ele>274.0</ele><time>2026-04-11T07:46:58.999Z</time></trkpt><trkpt lat="45.69027296385297" lon="8.770090752027915"><ele>275.0</ele><time>2026-04-11T07:46:59.999Z</time></trkpt><trkpt lat="45.69035302910932" lon="8.769739054333654"><ele>275.0</ele><time>2026-04-11T07:47:00.999Z</time></trkpt><trkpt lat="45.69045872595806" lon="8.769414284843938"><ele>275.0</ele><time>2026-04-11T07:47:01.999Z</time></trkpt><trkpt lat="45.69054728307554" lon="8.769072570783443"><ele>275.0</ele><time>2026-04-11T07:47:02.999Z</time></trkpt><trkpt lat="45.69064902655173" lon="8.768751902266045"><ele>275.0</ele><time>2026-04-11T07:47:03.999Z</time></trkpt><trkpt lat="45.69075318924933" lon="8.768433210115031"><ele>275.0</ele><time>2026-04-11T07:47:04.999Z</time></trkpt><trkpt lat="45.6908532658606" lon="8.768133958417335"><ele>275.0</ele><time>2026-04-11T07:47:05.999Z</time></trkpt><trkpt lat="45.690953002421864" lon="8.767851985398597"><ele>275.5</ele><time>2026-04-11T07:47:06.999Z</time></trkpt><trkpt lat="45.69105807185201" lon="8.767547755893066"><ele>276.0</ele><time>2026-04-11T07:47:07.999Z</time></trkpt><trkpt lat="45.691129844605996" lon="8.767249884520444"><ele>276.0</ele><time>2026-04-11T07:47:08.999Z</time></trkpt><trkpt lat="45.691206741474296" lon="8.766934231766271"><ele>276.0</ele><time>2026-04-11T07:47:09.999Z</time></trkpt><trkpt lat="45.691295545605655" lon="8.766629811039396"><ele>276.5</ele><time>2026-04-11T07:47:10.999Z</time></trkpt><trkpt lat="45.69141909951088" lon="8.766324923039413"><ele>277.0</ele><time>2026-04-11T07:47:11.999Z</time></trkpt><trkpt lat="45.69149980929368" lon="8.766012384032784"><ele>278.0</ele><time>2026-04-11T07:47:12.999Z</time></trkpt><trkpt lat="45.6915853045279" lon="8.765688958672266"><ele>279.0</ele><time>2026-04-11T07:47:13.999Z</time></trkpt><trkpt lat="45.69166948334179" lon="8.765371983292848"><ele>280.0</ele><time>2026-04-11T07:47:14.999Z</time></trkpt><trkpt lat="45.6917504709198" lon="8.765067709656556"><ele>281.0</ele><time>2026-04-11T07:47:15.999Z</time></trkpt><trkpt lat="45.69183303817432" lon="8.76475670179183"><ele>281.0</ele><time>2026-04-11T07:47:16.999Z</time></trkpt><trkpt lat="45.691914108482145" lon="8.764450301919751"><ele>281.0</ele><time>2026-04-11T07:47:17.999Z</time></trkpt><trkpt lat="45.69199766873159" lon="8.764134745982078"><ele>279.0</ele><time>2026-04-11T07:47:18.999Z</time></trkpt><trkpt lat="45.692085223751846" lon="8.76380559390645"><ele>277.0</ele><time>2026-04-11T07:47:19.999Z</time></trkpt><trkpt lat="45.69216553872131" lon="8.763503987936147"><ele>277.0</ele><time>2026-04-11T07:47:20.999Z</time></trkpt><trkpt lat="45.69224720725396" lon="8.763197298962638"><ele>277.0</ele><time>2026-04-11T07:47:21.999Z</time></trkpt><trkpt lat="45.69233293485243" lon="8.762878555975739"><ele>278.5</ele><time>2026-04-11T07:47:22.999Z</time></trkpt><trkpt lat="45.69242631568614" lon="8.762524831763638"><ele>280.0</ele><time>2026-04-11T07:47:23.999Z</time></trkpt><trkpt lat="45.69250841954832" lon="8.762217502820329"><ele>280.0</ele><time>2026-04-11T07:47:24.999Z</time></trkpt><trkpt lat="45.692598183191805" lon="8.761880285418286"><ele>280.0</ele><time>2026-04-11T07:47:25.999Z</time></trkpt><trkpt lat="45.692687098137846" lon="8.761545274542607"><ele>280.0</ele><time>2026-04-11T07:47:26.999Z</time></trkpt><trkpt lat="45.69276782099522" lon="8.761241513364332"><ele>280.0</ele><time>2026-04-11T07:47:27.999Z</time></trkpt><trkpt lat="45.69285304940241" lon="8.760921153664933"><ele>280.0</ele><time>2026-04-11T07:47:28.999Z</time></trkpt><trkpt lat="45.69293963372543" lon="8.760595697167162"><ele>280.0</ele><time>2026-04-11T07:47:29.999Z</time></trkpt><trkpt lat="45.69302490651909" lon="8.760273298205428"><ele>280.0</ele><time>2026-04-11T07:47:30.999Z</time></trkpt><trkpt lat="45.693104605936185" lon="8.759972147642285"><ele>280.0</ele><time>2026-04-11T07:47:31.999Z</time></trkpt><trkpt lat="45.693189704040634" lon="8.75965059777044"><ele>280.0</ele><time>2026-04-11T07:47:32.999Z</time></trkpt><trkpt lat="45.69327319047337" lon="8.759335131981548"><ele>280.0</ele><time>2026-04-11T07:47:33.999Z</time></trkpt><trkpt lat="45.69335515266417" lon="8.759023088531745"><ele>280.0</ele><time>2026-04-11T07:47:34.999Z</time></trkpt><trkpt lat="45.69343717649762" lon="8.758710811355032"><ele>280.0</ele><time>2026-04-11T07:47:35.999Z</time></trkpt><trkpt lat="45.69352109738807" lon="8.75839298777796"><ele>281.5</ele><time>2026-04-11T07:47:36.999Z</time></trkpt><trkpt lat="45.6936039399592" lon="8.758081408764687"><ele>283.0</ele><time>2026-04-11T07:47:37.999Z</time></trkpt><trkpt lat="45.6936842565205" lon="8.757778289421895"><ele>282.5</ele><time>2026-04-11T07:47:38.999Z</time></trkpt><trkpt lat="45.69376957874674" lon="8.757457624529433"><ele>282.0</ele><time>2026-04-11T07:47:39.999Z</time></trkpt><trkpt lat="45.693900154166855" lon="8.757179400525951"><ele>282.5</ele><time>2026-04-11T07:47:40.999Z</time></trkpt><trkpt lat="45.69397723198506" lon="8.756847400964013"><ele>283.0</ele><time>2026-04-11T07:47:41.999Z</time></trkpt><trkpt lat="45.69409320359199" lon="8.756526095616989"><ele>283.0</ele><time>2026-04-11T07:47:42.999Z</time></trkpt><trkpt lat="45.694126677497" lon="8.75617745940289"><ele>283.0</ele><time>2026-04-11T07:47:43.999Z</time></trkpt><trkpt lat="45.69422121046244" lon="8.755871157465686"><ele>283.5</ele><time>2026-04-11T07:47:44.999Z</time></trkpt><trkpt lat="45.69432398622123" lon="8.755557596444024"><ele>284.0</ele><time>2026-04-11T07:47:45.999Z</time></trkpt><trkpt lat="45.69442718679531" lon="8.755256195606753"><ele>286.0</ele><time>2026-04-11T07:47:46.999Z</time></trkpt><trkpt lat="45.694537773159105" lon="8.754937595002017"><ele>288.0</ele><time>2026-04-11T07:47:47.999Z</time></trkpt><trkpt lat="45.69464817102764" lon="8.754636357670744"><ele>287.0</ele><time>2026-04-11T07:47:48.999Z</time></trkpt><trkpt lat="45.69476730076741" lon="8.754328664012741"><ele>286.0</ele><time>2026-04-11T07:47:49.999Z</time></trkpt><trkpt lat="45.69489306717683" lon="8.754021490568846"><ele>286.0</ele><time>2026-04-11T07:47:50.999Z</time></trkpt><trkpt lat="45.69500985053831" lon="8.75374782191263"><ele>286.0</ele><time>2026-04-11T07:47:51.999Z</time></trkpt><trkpt lat="45.695139168407366" lon="8.753454244752175"><ele>285.0</ele><time>2026-04-11T07:47:52.999Z</time></trkpt><trkpt lat="45.69526911137779" lon="8.75316281611369"><ele>284.0</ele><time>2026-04-11T07:47:53.999Z</time></trkpt><trkpt lat="45.6953946479817" lon="8.752880079656862"><ele>285.0</ele><time>2026-04-11T07:47:54.999Z</time></trkpt><trkpt lat="45.69553756905371" lon="8.752611796046459"><ele>286.0</ele><time>2026-04-11T07:47:55.999Z</time></trkpt><trkpt lat="45.69565400790218" lon="8.752353186031252"><ele>286.0</ele><time>2026-04-11T07:47:56.999Z</time></trkpt><trkpt lat="45.695769216917206" lon="8.752087927947555"><ele>286.0</ele><time>2026-04-11T07:47:57.999Z</time></trkpt><trkpt lat="45.69589531346777" lon="8.751811203570684"><ele>286.0</ele><time>2026-04-11T07:47:58.999Z</time></trkpt><trkpt lat="45.696010169663474" lon="8.75152313565425"><ele>291.0</ele><time>2026-04-11T07:47:59.999Z</time></trkpt><trkpt lat="45.69615427198735" lon="8.751229881709138"><ele>296.0</ele><time>2026-04-11T07:48:00.999Z</time></trkpt><trkpt lat="45.696276529685925" lon="8.750936008451871"><ele>296.0</ele><time>2026-04-11T07:48:01.999Z</time></trkpt><trkpt lat="45.69639255212733" lon="8.750617888573057"><ele>296.0</ele><time>2026-04-11T07:48:02.999Z</time></trkpt><trkpt lat="45.696528189264335" lon="8.750354349981524"><ele>297.0</ele><time>2026-04-11T07:48:03.999Z</time></trkpt><trkpt lat="45.696657350732515" lon="8.750087060634828"><ele>298.0</ele><time>2026-04-11T07:48:04.999Z</time></trkpt><trkpt lat="45.69678767777883" lon="8.74979798213135"><ele>297.5</ele><time>2026-04-11T07:48:05.999Z</time></trkpt><trkpt lat="45.696929730596885" lon="8.749482488751383"><ele>297.0</ele><time>2026-04-11T07:48:06.999Z</time></trkpt><trkpt lat="45.69706886251714" lon="8.749173482581346"><ele>298.0</ele><time>2026-04-11T07:48:07.999Z</time></trkpt><trkpt lat="45.69720209368419" lon="8.748877581752303"><ele>299.0</ele><time>2026-04-11T07:48:08.999Z</time></trkpt><trkpt lat="45.69732229324128" lon="8.748611637428308"><ele>299.0</ele><time>2026-04-11T07:48:10Z</time></trkpt><trkpt lat="45.69745347559228" lon="8.748321344668865"><ele>299.0</ele><time>2026-04-11T07:48:10.999Z</time></trkpt><trkpt lat="45.697589900338386" lon="8.748018677205243"><ele>299.0</ele><time>2026-04-11T07:48:12Z</time></trkpt><trkpt lat="45.697712828007276" lon="8.747745953918603"><ele>299.0</ele><time>2026-04-11T07:48:13Z</time></trkpt><trkpt lat="45.697842859844094" lon="8.74745710404969"><ele>298.0</ele><time>2026-04-11T07:48:14Z</time></trkpt><trkpt lat="45.69796696832612" lon="8.747180766566954"><ele>297.0</ele><time>2026-04-11T07:48:15Z</time></trkpt><trkpt lat="45.69810458922479" lon="8.74687434254319"><ele>296.0</ele><time>2026-04-11T07:48:15.999Z</time></trkpt><trkpt lat="45.698233320098254" lon="8.746587713095483"><ele>295.0</ele><time>2026-04-11T07:48:16.999Z</time></trkpt><trkpt lat="45.69836011844053" lon="8.746306262975414"><ele>295.5</ele><time>2026-04-11T07:48:17.999Z</time></trkpt><trkpt lat="45.69850079897354" lon="8.745994785256693"><ele>296.0</ele><time>2026-04-11T07:48:18.999Z</time></trkpt><trkpt lat="45.69863529239269" lon="8.745696818086445"><ele>297.5</ele><time>2026-04-11T07:48:19.999Z</time></trkpt><trkpt lat="45.69875832965212" lon="8.745424084936683"><ele>299.0</ele><time>2026-04-11T07:48:20.999Z</time></trkpt><trkpt lat="45.69888900077664" lon="8.745134360867564"><ele>299.0</ele><time>2026-04-11T07:48:21.999Z</time></trkpt><trkpt lat="45.699020408759345" lon="8.744842481349997"><ele>299.0</ele><time>2026-04-11T07:48:22.999Z</time></trkpt><trkpt lat="45.69915581133912" lon="8.744542174818305"><ele>299.0</ele><time>2026-04-11T07:48:23.999Z</time></trkpt><trkpt lat="45.69928671187614" lon="8.74425367454878"><ele>299.0</ele><time>2026-04-11T07:48:24.999Z</time></trkpt><trkpt lat="45.69941403084091" lon="8.74397149212571"><ele>299.33333333333337</ele><time>2026-04-11T07:48:25.999Z</time></trkpt><trkpt lat="45.69952683493936" lon="8.74372147960277"><ele>299.6666666666667</ele><time>2026-04-11T07:48:26.999Z</time></trkpt><trkpt lat="45.699652285737805" lon="8.74344265084217"><ele>300.0</ele><time>2026-04-11T07:48:27.999Z</time></trkpt><trkpt lat="45.69977569059156" lon="8.743169249524847"><ele>300.0</ele><time>2026-04-11T07:48:28.999Z</time></trkpt><trkpt lat="45.69990363835766" lon="8.74288578338232"><ele>300.0</ele><time>2026-04-11T07:48:29.999Z</time></trkpt><trkpt lat="45.70002516819794" lon="8.742616536047928"><ele>300.5</ele><time>2026-04-11T07:48:30.999Z</time></trkpt><trkpt lat="45.70015101456872" lon="8.742337447630655"><ele>301.0</ele><time>2026-04-11T07:48:31.999Z</time></trkpt><trkpt lat="45.700281624933226" lon="8.742046441739063"><ele>303.5</ele><time>2026-04-11T07:48:32.999Z</time></trkpt><trkpt lat="45.700406572187084" lon="8.741769676960356"><ele>306.0</ele><time>2026-04-11T07:48:33.999Z</time></trkpt><trkpt lat="45.70053931794053" lon="8.741477215421929"><ele>306.0</ele><time>2026-04-11T07:48:34.999Z</time></trkpt><trkpt lat="45.70066562980183" lon="8.74119944880575"><ele>306.0</ele><time>2026-04-11T07:48:35.999Z</time></trkpt><trkpt lat="45.7007983882355" lon="8.740906375086622"><ele>306.0</ele><time>2026-04-11T07:48:36.999Z</time></trkpt><trkpt lat="45.7009225306262" lon="8.7406304284578"><ele>306.0</ele><time>2026-04-11T07:48:37.999Z</time></trkpt><trkpt lat="45.701052577103" lon="8.740341358062905"><ele>308.5</ele><time>2026-04-11T07:48:38.999Z</time></trkpt><trkpt lat="45.70118176314639" lon="8.7400546275457"><ele>311.0</ele><time>2026-04-11T07:48:39.999Z</time></trkpt><trkpt lat="45.70130725920419" lon="8.739776493303049"><ele>311.0</ele><time>2026-04-11T07:48:40.999Z</time></trkpt><trkpt lat="45.701450690727214" lon="8.739492279952398"><ele>311.0</ele><time>2026-04-11T07:48:42Z</time></trkpt><trkpt lat="45.701569387546314" lon="8.73922077275763"><ele>310.33333333333337</ele><time>2026-04-11T07:48:43Z</time></trkpt><trkpt lat="45.70167734471029" lon="8.73895687449744"><ele>309.6666666666667</ele><time>2026-04-11T07:48:44Z</time></trkpt><trkpt lat="45.70180024026058" lon="8.738684273002875"><ele>309.0</ele><time>2026-04-11T07:48:45Z</time></trkpt><trkpt lat="45.701925969944334" lon="8.738405384937426"><ele>307.5</ele><time>2026-04-11T07:48:46Z</time></trkpt><trkpt lat="45.702057894088156" lon="8.738112764241917"><ele>306.0</ele><time>2026-04-11T07:48:47Z</time></trkpt><trkpt lat="45.702186585443364" lon="8.73782585535142"><ele>305.5</ele><time>2026-04-11T07:48:48Z</time></trkpt><trkpt lat="45.70230763305369" lon="8.737556657838558"><ele>305.0</ele><time>2026-04-11T07:48:49Z</time></trkpt><trkpt lat="45.702434749426345" lon="8.737275485856008"><ele>305.0</ele><time>2026-04-11T07:48:50Z</time></trkpt><trkpt lat="45.70255991477718" lon="8.736998630599293"><ele>305.0</ele><time>2026-04-11T07:48:51Z</time></trkpt><trkpt lat="45.70268236358" lon="8.736727028283793"><ele>303.0</ele><time>2026-04-11T07:48:52Z</time></trkpt><trkpt lat="45.70280719510707" lon="8.736448644406924"><ele>301.0</ele><time>2026-04-11T07:48:53Z</time></trkpt><trkpt lat="45.70296093840683" lon="8.736183617220414"><ele>300.0</ele><time>2026-04-11T07:48:54Z</time></trkpt><trkpt lat="45.703071695937396" lon="8.73587899921968"><ele>299.0</ele><time>2026-04-11T07:48:55Z</time></trkpt><trkpt lat="45.703177559175955" lon="8.735579586242006"><ele>299.0</ele><time>2026-04-11T07:48:56Z</time></trkpt><trkpt lat="45.7033146546304" lon="8.735256941656722"><ele>299.0</ele><time>2026-04-11T07:48:57Z</time></trkpt><trkpt lat="45.70341421306059" lon="8.734950580651212"><ele>298.5</ele><time>2026-04-11T07:48:58Z</time></trkpt><trkpt lat="45.703526851821216" lon="8.73464761147719"><ele>298.0</ele><time>2026-04-11T07:48:59Z</time></trkpt><trkpt lat="45.70367260968562" lon="8.73435316911815"><ele>300.0</ele><time>2026-04-11T07:49:00Z</time></trkpt><trkpt lat="45.70378732962144" lon="8.734059113862505"><ele>302.0</ele><time>2026-04-11T07:49:01Z</time></trkpt><trkpt lat="45.70391010159665" lon="8.733784439860983"><ele>303.5</ele><time>2026-04-11T07:49:02Z</time></trkpt><trkpt lat="45.70404367917994" lon="8.733502651364947"><ele>305.0</ele><time>2026-04-11T07:49:03Z</time></trkpt><trkpt lat="45.70417730921268" lon="8.733223755340099"><ele>305.0</ele><time>2026-04-11T07:49:04Z</time></trkpt><trkpt lat="45.70433383340282" lon="8.732960423865697"><ele>305.0</ele><time>2026-04-11T07:49:05Z</time></trkpt><trkpt lat="45.704435280865056" lon="8.732662750100785"><ele>304.0</ele><time>2026-04-11T07:49:06Z</time></trkpt><trkpt lat="45.70457042255192" lon="8.73238932784655"><ele>303.0</ele><time>2026-04-11T07:49:07Z</time></trkpt><trkpt lat="45.704712724836085" lon="8.732141058896485"><ele>303.5</ele><time>2026-04-11T07:49:08Z</time></trkpt><trkpt lat="45.70483765199907" lon="8.731857668989205"><ele>304.0</ele><time>2026-04-11T07:49:09Z</time></trkpt><trkpt lat="45.70495021739062" lon="8.731578657787194"><ele>304.0</ele><time>2026-04-11T07:49:10Z</time></trkpt><trkpt lat="45.70507825899901" lon="8.73130047942334"><ele>304.0</ele><time>2026-04-11T07:49:11Z</time></trkpt><trkpt lat="45.705238073512376" lon="8.73102958321162"><ele>304.5</ele><time>2026-04-11T07:49:12Z</time></trkpt><trkpt lat="45.70537977193343" lon="8.730760768552718"><ele>305.0</ele><time>2026-04-11T07:49:13Z</time></trkpt><trkpt lat="45.70549885646249" lon="8.730477758383318"><ele>305.0</ele><time>2026-04-11T07:49:14Z</time></trkpt><trkpt lat="45.705625228795135" lon="8.73020038233519"><ele>305.0</ele><time>2026-04-11T07:49:15Z</time></trkpt><trkpt lat="45.70573284405416" lon="8.729887703514857"><ele>305.0</ele><time>2026-04-11T07:49:16Z</time></trkpt><trkpt lat="45.70585829892969" lon="8.72961968446263"><ele>305.0</ele><time>2026-04-11T07:49:17Z</time></trkpt><trkpt lat="45.706013685710374" lon="8.729330460263713"><ele>297.5</ele><time>2026-04-11T07:49:18Z</time></trkpt><trkpt lat="45.706141832254694" lon="8.729053236204294"><ele>290.0</ele><time>2026-04-11T07:49:19Z</time></trkpt><trkpt lat="45.70627349848258" lon="8.728771064572916"><ele>290.0</ele><time>2026-04-11T07:49:20Z</time></trkpt><trkpt lat="45.7063907524959" lon="8.728493257949818"><ele>290.0</ele><time>2026-04-11T07:49:21Z</time></trkpt><trkpt lat="45.706511196669986" lon="8.728192717384868"><ele>290.0</ele><time>2026-04-11T07:49:22Z</time></trkpt><trkpt lat="45.706637715734864" lon="8.727867636865357"><ele>290.0</ele><time>2026-04-11T07:49:23Z</time></trkpt><trkpt lat="45.706775419676426" lon="8.7275725572707"><ele>290.5</ele><time>2026-04-11T07:49:24Z</time></trkpt><trkpt lat="45.706902426531194" lon="8.727275040883448"><ele>291.0</ele><time>2026-04-11T07:49:25Z</time></trkpt><trkpt lat="45.70701961730429" lon="8.727015429229844"><ele>293.0</ele><time>2026-04-11T07:49:26Z</time></trkpt><trkpt lat="45.70714895781951" lon="8.726743696069617"><ele>295.0</ele><time>2026-04-11T07:49:27Z</time></trkpt><trkpt lat="45.70729560521667" lon="8.726462463739507"><ele>295.0</ele><time>2026-04-11T07:49:28Z</time></trkpt><trkpt lat="45.70745183315016" lon="8.72614299297871"><ele>295.0</ele><time>2026-04-11T07:49:29Z</time></trkpt><trkpt lat="45.7075888122854" lon="8.725838383004264"><ele>294.0</ele><time>2026-04-11T07:49:30Z</time></trkpt><trkpt lat="45.70772699001422" lon="8.725531107540254"><ele>293.0</ele><time>2026-04-11T07:49:31Z</time></trkpt><trkpt lat="45.70786772149638" lon="8.72521748951458"><ele>290.5</ele><time>2026-04-11T07:49:32Z</time></trkpt><trkpt lat="45.70801352074493" lon="8.72489217572503"><ele>288.0</ele><time>2026-04-11T07:49:33Z</time></trkpt><trkpt lat="45.708151508518256" lon="8.724584291403877"><ele>286.0</ele><time>2026-04-11T07:49:34Z</time></trkpt><trkpt lat="45.70828760151438" lon="8.724280634544883"><ele>284.0</ele><time>2026-04-11T07:49:35Z</time></trkpt><trkpt lat="45.70843066117288" lon="8.723992769674352"><ele>284.0</ele><time>2026-04-11T07:49:36Z</time></trkpt><trkpt lat="45.708557129585486" lon="8.723674522003654"><ele>284.0</ele><time>2026-04-11T07:49:37Z</time></trkpt><trkpt lat="45.70867493213751" lon="8.72336739530031"><ele>283.0</ele><time>2026-04-11T07:49:38Z</time></trkpt><trkpt lat="45.70879822588209" lon="8.723090838607007"><ele>282.0</ele><time>2026-04-11T07:49:39Z</time></trkpt><trkpt lat="45.70892565010973" lon="8.722842001415328"><ele>281.0</ele><time>2026-04-11T07:49:40Z</time></trkpt><trkpt lat="45.709043444591074" lon="8.722570784198659"><ele>281.0</ele><time>2026-04-11T07:49:41Z</time></trkpt><trkpt lat="45.70916055072282" lon="8.722295780379453"><ele>281.0</ele><time>2026-04-11T07:49:42Z</time></trkpt><trkpt lat="45.70928864558391" lon="8.721990130142434"><ele>282.5</ele><time>2026-04-11T07:49:43Z</time></trkpt><trkpt lat="45.70940384404688" lon="8.72167969582244"><ele>284.0</ele><time>2026-04-11T07:49:44Z</time></trkpt><trkpt lat="45.70956394727858" lon="8.72138583341565"><ele>280.5</ele><time>2026-04-11T07:49:45Z</time></trkpt><trkpt lat="45.70969507495484" lon="8.72107939213989"><ele>277.0</ele><time>2026-04-11T07:49:46Z</time></trkpt><trkpt lat="45.7098211290748" lon="8.720780409149933"><ele>276.5</ele><time>2026-04-11T07:49:47Z</time></trkpt><trkpt lat="45.70995173522293" lon="8.720473201150348"><ele>276.0</ele><time>2026-04-11T07:49:48Z</time></trkpt><trkpt lat="45.71009268775209" lon="8.720207567421154"><ele>276.5</ele><time>2026-04-11T07:49:49Z</time></trkpt><trkpt lat="45.71021248409561" lon="8.719911245605294"><ele>277.0</ele><time>2026-04-11T07:49:50Z</time></trkpt><trkpt lat="45.71033492036106" lon="8.719636296652075"><ele>276.0</ele><time>2026-04-11T07:49:51Z</time></trkpt><trkpt lat="45.71048289743596" lon="8.719397335966796"><ele>275.0</ele><time>2026-04-11T07:49:52Z</time></trkpt><trkpt lat="45.7106185035198" lon="8.719095568163137"><ele>275.0</ele><time>2026-04-11T07:49:53Z</time></trkpt><trkpt lat="45.710752034864406" lon="8.718798416800713"><ele>275.0</ele><time>2026-04-11T07:49:54Z</time></trkpt><trkpt lat="45.71088234109094" lon="8.71850384766658"><ele>274.5</ele><time>2026-04-11T07:49:55Z</time></trkpt><trkpt lat="45.71101203146114" lon="8.718213104986773"><ele>274.0</ele><time>2026-04-11T07:49:56Z</time></trkpt><trkpt lat="45.711149370607714" lon="8.71790866842608"><ele>272.5</ele><time>2026-04-11T07:49:57Z</time></trkpt><trkpt lat="45.71127034484845" lon="8.717639497061498"><ele>271.0</ele><time>2026-04-11T07:49:58Z</time></trkpt><trkpt lat="45.71140201696669" lon="8.717346522878788"><ele>271.0</ele><time>2026-04-11T07:49:59Z</time></trkpt><trkpt lat="45.711530905087606" lon="8.717059741466695"><ele>271.0</ele><time>2026-04-11T07:50:00Z</time></trkpt><trkpt lat="45.71165559854753" lon="8.71677387593927"><ele>270.5</ele><time>2026-04-11T07:50:01Z</time></trkpt><trkpt lat="45.71176801600715" lon="8.716467788626014"><ele>270.0</ele><time>2026-04-11T07:50:02Z</time></trkpt><trkpt lat="45.71188797239343" lon="8.716165984918524"><ele>266.5</ele><time>2026-04-11T07:50:03Z</time></trkpt><trkpt lat="45.71203160794506" lon="8.715906852439902"><ele>263.0</ele><time>2026-04-11T07:50:04Z</time></trkpt><trkpt lat="45.71217370557545" lon="8.71563435326202"><ele>263.0</ele><time>2026-04-11T07:50:05Z</time></trkpt><trkpt lat="45.71230546303005" lon="8.715336141673577"><ele>263.0</ele><time>2026-04-11T07:50:06Z</time></trkpt><trkpt lat="45.71243757760628" lon="8.715048621755523"><ele>262.0</ele><time>2026-04-11T07:50:07Z</time></trkpt><trkpt lat="45.71253903547646" lon="8.714719382641718"><ele>261.0</ele><time>2026-04-11T07:50:08Z</time></trkpt><trkpt lat="45.712658280894175" lon="8.714414955069202"><ele>259.5</ele><time>2026-04-11T07:50:09Z</time></trkpt><trkpt lat="45.71278284842214" lon="8.71411353163747"><ele>258.0</ele><time>2026-04-11T07:50:10Z</time></trkpt><trkpt lat="45.71288911808265" lon="8.713824010512814"><ele>261.0</ele><time>2026-04-11T07:50:11Z</time></trkpt><trkpt lat="45.71303165309544" lon="8.713538169296124"><ele>264.0</ele><time>2026-04-11T07:50:12Z</time></trkpt><trkpt lat="45.713150325320626" lon="8.71324858211439"><ele>264.0</ele><time>2026-04-11T07:50:13Z</time></trkpt><trkpt lat="45.71326946862862" lon="8.712973332979537"><ele>264.0</ele><time>2026-04-11T07:50:14Z</time></trkpt><trkpt lat="45.71340051201536" lon="8.712702744925599"><ele>265.5</ele><time>2026-04-11T07:50:15Z</time></trkpt><trkpt lat="45.71354799063673" lon="8.71244879056932"><ele>267.0</ele><time>2026-04-11T07:50:16Z</time></trkpt><trkpt lat="45.71366114668797" lon="8.712178577237307"><ele>269.0</ele><time>2026-04-11T07:50:17Z</time></trkpt><trkpt lat="45.713804341104606" lon="8.711920151410535"><ele>271.0</ele><time>2026-04-11T07:50:18Z</time></trkpt><trkpt lat="45.713955340930546" lon="8.711655060870676"><ele>271.0</ele><time>2026-04-11T07:50:19Z</time></trkpt><trkpt lat="45.71409392107825" lon="8.711375765582813"><ele>271.0</ele><time>2026-04-11T07:50:20Z</time></trkpt><trkpt lat="45.714228197029016" lon="8.711098362078637"><ele>271.0</ele><time>2026-04-11T07:50:21Z</time></trkpt><trkpt lat="45.71436749587005" lon="8.710834445296753"><ele>271.0</ele><time>2026-04-11T07:50:22Z</time></trkpt><trkpt lat="45.71450317287735" lon="8.710575947411348"><ele>271.0</ele><time>2026-04-11T07:50:23Z</time></trkpt><trkpt lat="45.71462590440347" lon="8.710296240907846"><ele>271.0</ele><time>2026-04-11T07:50:24Z</time></trkpt><trkpt lat="45.71474703579425" lon="8.710010053175992"><ele>271.0</ele><time>2026-04-11T07:50:25Z</time></trkpt><trkpt lat="45.71488405088583" lon="8.70974226128005"><ele>271.0</ele><time>2026-04-11T07:50:26Z</time></trkpt><trkpt lat="45.71502205960023" lon="8.70948914929179"><ele>269.5</ele><time>2026-04-11T07:50:27Z</time></trkpt><trkpt lat="45.71516501881773" lon="8.709228845032035"><ele>268.0</ele><time>2026-04-11T07:50:28Z</time></trkpt><trkpt lat="45.715299813572926" lon="8.708959383560334"><ele>270.0</ele><time>2026-04-11T07:50:29Z</time></trkpt><trkpt lat="45.7154222381681" lon="8.708655938969365"><ele>272.0</ele><time>2026-04-11T07:50:30Z</time></trkpt><trkpt lat="45.71555442309077" lon="8.708366201441526"><ele>272.0</ele><time>2026-04-11T07:50:31Z</time></trkpt><trkpt lat="45.71567972707632" lon="8.708088984128254"><ele>272.0</ele><time>2026-04-11T07:50:32Z</time></trkpt><trkpt lat="45.715809121431924" lon="8.707800707893421"><ele>273.0</ele><time>2026-04-11T07:50:33Z</time></trkpt><trkpt lat="45.715941147425234" lon="8.707506566664351"><ele>274.0</ele><time>2026-04-11T07:50:34Z</time></trkpt><trkpt lat="45.71607043641423" lon="8.707218524402888"><ele>274.0</ele><time>2026-04-11T07:50:35Z</time></trkpt><trkpt lat="45.716199268302454" lon="8.706931504650058"><ele>274.0</ele><time>2026-04-11T07:50:36Z</time></trkpt><trkpt lat="45.71632535902657" lon="8.706650208137301"><ele>274.0</ele><time>2026-04-11T07:50:37Z</time></trkpt><trkpt lat="45.71645011226465" lon="8.706371711255796"><ele>274.0</ele><time>2026-04-11T07:50:38Z</time></trkpt><trkpt lat="45.71658120100623" lon="8.706079070905322"><ele>272.5</ele><time>2026-04-11T07:50:39Z</time></trkpt><trkpt lat="45.71671183787673" lon="8.705788329771003"><ele>271.0</ele><time>2026-04-11T07:50:40Z</time></trkpt><trkpt lat="45.71684137114541" lon="8.705500271255325"><ele>269.5</ele><time>2026-04-11T07:50:41Z</time></trkpt><trkpt lat="45.71697340525363" lon="8.705206651054231"><ele>268.0</ele><time>2026-04-11T07:50:42Z</time></trkpt><trkpt lat="45.71710100121881" lon="8.704922966680396"><ele>268.0</ele><time>2026-04-11T07:50:43Z</time></trkpt><trkpt lat="45.7172309260027" lon="8.704634426124588"><ele>268.0</ele><time>2026-04-11T07:50:44Z</time></trkpt><trkpt lat="45.71736437377381" lon="8.704338061202275"><ele>268.0</ele><time>2026-04-11T07:50:45Z</time></trkpt><trkpt lat="45.71748851424199" lon="8.70406236684676"><ele>268.0</ele><time>2026-04-11T07:50:46Z</time></trkpt><trkpt lat="45.71761535588241" lon="8.70378067360653"><ele>267.0</ele><time>2026-04-11T07:50:47Z</time></trkpt><trkpt lat="45.71774070156913" lon="8.703502510054395"><ele>266.0</ele><time>2026-04-11T07:50:48Z</time></trkpt><trkpt lat="45.717868653188155" lon="8.70321862551936"><ele>266.0</ele><time>2026-04-11T07:50:49Z</time></trkpt><trkpt lat="45.717998366813674" lon="8.702930812752076"><ele>266.0</ele><time>2026-04-11T07:50:50Z</time></trkpt><trkpt lat="45.718129979489184" lon="8.702637358707726"><ele>266.0</ele><time>2026-04-11T07:50:51Z</time></trkpt><trkpt lat="45.71825605223556" lon="8.702356256986407"><ele>266.0</ele><time>2026-04-11T07:50:52Z</time></trkpt><trkpt lat="45.71838755304477" lon="8.702064078835354"><ele>267.0</ele><time>2026-04-11T07:50:53Z</time></trkpt><trkpt lat="45.71852730768992" lon="8.701781334958646"><ele>268.0</ele><time>2026-04-11T07:50:54Z</time></trkpt><trkpt lat="45.71864822992694" lon="8.701493763738648"><ele>268.0</ele><time>2026-04-11T07:50:55Z</time></trkpt><trkpt lat="45.71878253831838" lon="8.701213508281961"><ele>268.0</ele><time>2026-04-11T07:50:56Z</time></trkpt><trkpt lat="45.71890962056048" lon="8.700915011386144"><ele>267.0</ele><time>2026-04-11T07:50:57Z</time></trkpt><trkpt lat="45.719020275485136" lon="8.700631889980544"><ele>266.0</ele><time>2026-04-11T07:50:58Z</time></trkpt><trkpt lat="45.719127460705096" lon="8.70030196394928"><ele>266.5</ele><time>2026-04-11T07:50:59Z</time></trkpt><trkpt lat="45.71925936637429" lon="8.700015830517138"><ele>267.0</ele><time>2026-04-11T07:51:00Z</time></trkpt><trkpt lat="45.719376696690155" lon="8.699720151651812"><ele>267.0</ele><time>2026-04-11T07:51:01Z</time></trkpt><trkpt lat="45.719494109882945" lon="8.69942773312053"><ele>267.0</ele><time>2026-04-11T07:51:02Z</time></trkpt><trkpt lat="45.719603860248014" lon="8.69913189937823"><ele>267.0</ele><time>2026-04-11T07:51:03Z</time></trkpt><trkpt lat="45.7197280888369" lon="8.698852431233155"><ele>267.0</ele><time>2026-04-11T07:51:04Z</time></trkpt><trkpt lat="45.71980832224805" lon="8.698539419447295"><ele>267.6666666666667</ele><time>2026-04-11T07:51:05Z</time></trkpt><trkpt lat="45.71987239153754" lon="8.698255531922591"><ele>268.33333333333337</ele><time>2026-04-11T07:51:06Z</time></trkpt><trkpt lat="45.719927268480724" lon="8.697975810137896"><ele>269.0</ele><time>2026-04-11T07:51:07Z</time></trkpt><trkpt lat="45.71997268031683" lon="8.697690735829122"><ele>269.0</ele><time>2026-04-11T07:51:08Z</time></trkpt><trkpt lat="45.72000863117516" lon="8.697398351811097"><ele>269.0</ele><time>2026-04-11T07:51:09Z</time></trkpt><trkpt lat="45.72003574179504" lon="8.697106278349107"><ele>269.0</ele><time>2026-04-11T07:51:10Z</time></trkpt><trkpt lat="45.720058710841656" lon="8.696807064174799"><ele>268.6666666666667</ele><time>2026-04-11T07:51:11Z</time></trkpt><trkpt lat="45.720073200062146" lon="8.696493798672845"><ele>268.3333333333333</ele><time>2026-04-11T07:51:12Z</time></trkpt><trkpt lat="45.72008649748773" lon="8.69617159893385"><ele>268.0</ele><time>2026-04-11T07:51:13Z</time></trkpt><trkpt lat="45.72010196063034" lon="8.695844911873994"><ele>268.0</ele><time>2026-04-11T07:51:14Z</time></trkpt><trkpt lat="45.72011683382032" lon="8.69553068855537"><ele>268.0</ele><time>2026-04-11T07:51:15Z</time></trkpt><trkpt lat="45.720134418876235" lon="8.6951524516437"><ele>267.5</ele><time>2026-04-11T07:51:16Z</time></trkpt><trkpt lat="45.720150333476106" lon="8.694801517064262"><ele>267.0</ele><time>2026-04-11T07:51:17Z</time></trkpt><trkpt lat="45.72016600051709" lon="8.694456041228493"><ele>267.0</ele><time>2026-04-11T07:51:18Z</time></trkpt><trkpt lat="45.720180595470566" lon="8.694109456680692"><ele>267.0</ele><time>2026-04-11T07:51:19Z</time></trkpt><trkpt lat="45.72019497229903" lon="8.693761446218641"><ele>266.5</ele><time>2026-04-11T07:51:20Z</time></trkpt><trkpt lat="45.72021011082889" lon="8.693407358405056"><ele>266.0</ele><time>2026-04-11T07:51:21Z</time></trkpt><trkpt lat="45.7202255215926" lon="8.693066525049861"><ele>265.5</ele><time>2026-04-11T07:51:22Z</time></trkpt><trkpt lat="45.720241837812345" lon="8.692713984964474"><ele>265.0</ele><time>2026-04-11T07:51:23Z</time></trkpt><trkpt lat="45.72025820886911" lon="8.692360259930732"><ele>265.0</ele><time>2026-04-11T07:51:24Z</time></trkpt><trkpt lat="45.72027345258681" lon="8.692007497649366"><ele>265.0</ele><time>2026-04-11T07:51:25Z</time></trkpt><trkpt lat="45.720288934704655" lon="8.69164845307395"><ele>264.5</ele><time>2026-04-11T07:51:26Z</time></trkpt><trkpt lat="45.720304890009544" lon="8.691309449465221"><ele>264.0</ele><time>2026-04-11T07:51:27Z</time></trkpt><trkpt lat="45.720379887042384" lon="8.69096836766554"><ele>263.0</ele><time>2026-04-11T07:51:28Z</time></trkpt><trkpt lat="45.72036850032117" lon="8.690638605698995"><ele>262.0</ele><time>2026-04-11T07:51:29Z</time></trkpt><trkpt lat="45.72036573947431" lon="8.690304540029661"><ele>262.5</ele><time>2026-04-11T07:51:30Z</time></trkpt><trkpt lat="45.72036567764824" lon="8.68994652458222"><ele>263.0</ele><time>2026-04-11T07:51:31Z</time></trkpt><trkpt lat="45.72038311754069" lon="8.689628457108768"><ele>263.5</ele><time>2026-04-11T07:51:32Z</time></trkpt><trkpt lat="45.72039022068666" lon="8.689278684764332"><ele>264.0</ele><time>2026-04-11T07:51:33Z</time></trkpt><trkpt lat="45.720405362011014" lon="8.688936954197109"><ele>264.0</ele><time>2026-04-11T07:51:34Z</time></trkpt><trkpt lat="45.720408148527206" lon="8.688642088764512"><ele>264.0</ele><time>2026-04-11T07:51:35Z</time></trkpt><trkpt lat="45.720408773865195" lon="8.688308739277993"><ele>264.0</ele><time>2026-04-11T07:51:36Z</time></trkpt><trkpt lat="45.72040779545099" lon="8.68799030181858"><ele>277.0</ele><time>2026-04-11T07:51:37Z</time></trkpt><trkpt lat="45.72039846382005" lon="8.687651439233653"><ele>290.0</ele><time>2026-04-11T07:51:38Z</time></trkpt><trkpt lat="45.720392575240524" lon="8.68731930656112"><ele>290.0</ele><time>2026-04-11T07:51:39Z</time></trkpt><trkpt lat="45.72039876412246" lon="8.687005670752777"><ele>290.0</ele><time>2026-04-11T07:51:40Z</time></trkpt><trkpt lat="45.7203991068756" lon="8.686682640576239"><ele>290.0</ele><time>2026-04-11T07:51:41Z</time></trkpt><trkpt lat="45.72038898707528" lon="8.68636906957139"><ele>284.0</ele><time>2026-04-11T07:51:42Z</time></trkpt><trkpt lat="45.72040815312229" lon="8.686050652093524"><ele>278.0</ele><time>2026-04-11T07:51:43Z</time></trkpt><trkpt lat="45.72042740234618" lon="8.685720944288132"><ele>278.0</ele><time>2026-04-11T07:51:44Z</time></trkpt><trkpt lat="45.72045225960353" lon="8.685406837311834"><ele>278.0</ele><time>2026-04-11T07:51:45Z</time></trkpt><trkpt lat="45.72047510750531" lon="8.685075233445568"><ele>275.6666666666667</ele><time>2026-04-11T07:51:46Z</time></trkpt><trkpt lat="45.72049179527764" lon="8.684780834146832"><ele>273.3333333333333</ele><time>2026-04-11T07:51:47Z</time></trkpt><trkpt lat="45.72050805889309" lon="8.68449391720553"><ele>271.0</ele><time>2026-04-11T07:51:48Z</time></trkpt><trkpt lat="45.72052806030507" lon="8.68414549995564"><ele>271.0</ele><time>2026-04-11T07:51:49Z</time></trkpt><trkpt lat="45.72054699843395" lon="8.683829633079428"><ele>271.0</ele><time>2026-04-11T07:51:50Z</time></trkpt><trkpt lat="45.72056462925937" lon="8.683535571120824"><ele>271.0</ele><time>2026-04-11T07:51:51Z</time></trkpt><trkpt lat="45.72058706027934" lon="8.68319556478123"><ele>272.5</ele><time>2026-04-11T07:51:52Z</time></trkpt><trkpt lat="45.72060900421234" lon="8.682865147752656"><ele>274.0</ele><time>2026-04-11T07:51:53Z</time></trkpt><trkpt lat="45.72063131443201" lon="8.682540733278984"><ele>274.0</ele><time>2026-04-11T07:51:54Z</time></trkpt><trkpt lat="45.720654951197226" lon="8.682197029306593"><ele>274.0</ele><time>2026-04-11T07:51:55Z</time></trkpt><trkpt lat="45.720678379275284" lon="8.681856359551176"><ele>274.5</ele><time>2026-04-11T07:51:56Z</time></trkpt><trkpt lat="45.72070141873597" lon="8.681517450818498"><ele>275.0</ele><time>2026-04-11T07:51:57Z</time></trkpt><trkpt lat="45.72072369211181" lon="8.681186197717714"><ele>274.6666666666667</ele><time>2026-04-11T07:51:58Z</time></trkpt><trkpt lat="45.720742761844015" lon="8.680900742729708"><ele>274.3333333333333</ele><time>2026-04-11T07:51:59Z</time></trkpt><trkpt lat="45.72076394760555" lon="8.680583612816733"><ele>274.0</ele><time>2026-04-11T07:52:00Z</time></trkpt><trkpt lat="45.72078554392009" lon="8.680257491347822"><ele>274.0</ele><time>2026-04-11T07:52:01Z</time></trkpt><trkpt lat="45.72080676874035" lon="8.679932465601784"><ele>274.0</ele><time>2026-04-11T07:52:02Z</time></trkpt><trkpt lat="45.72082901883599" lon="8.679591739160797"><ele>274.5</ele><time>2026-04-11T07:52:03Z</time></trkpt><trkpt lat="45.72084995466355" lon="8.679268875084228"><ele>275.0</ele><time>2026-04-11T07:52:04Z</time></trkpt><trkpt lat="45.72087326764561" lon="8.678913272276382"><ele>274.0</ele><time>2026-04-11T07:52:05Z</time></trkpt><trkpt lat="45.72089567264299" lon="8.678573443079895"><ele>273.0</ele><time>2026-04-11T07:52:06Z</time></trkpt><trkpt lat="45.72091698003363" lon="8.678245783975779"><ele>273.0</ele><time>2026-04-11T07:52:07Z</time></trkpt><trkpt lat="45.72093731118885" lon="8.677906487316637"><ele>273.0</ele><time>2026-04-11T07:52:08Z</time></trkpt><trkpt lat="45.720958459903514" lon="8.677551354451712"><ele>272.0</ele><time>2026-04-11T07:52:09Z</time></trkpt><trkpt lat="45.72097708657915" lon="8.677200908801185"><ele>271.0</ele><time>2026-04-11T07:52:10Z</time></trkpt><trkpt lat="45.72098790631466" lon="8.676855084912152"><ele>270.0</ele><time>2026-04-11T07:52:11Z</time></trkpt><trkpt lat="45.7209904887554" lon="8.676498112859743"><ele>269.0</ele><time>2026-04-11T07:52:12Z</time></trkpt><trkpt lat="45.72098547891742" lon="8.676120734779015"><ele>268.5</ele><time>2026-04-11T07:52:13Z</time></trkpt><trkpt lat="45.720975458644126" lon="8.675752419709086"><ele>268.0</ele><time>2026-04-11T07:52:14Z</time></trkpt><trkpt lat="45.72095736750653" lon="8.675413598193172"><ele>268.5</ele><time>2026-04-11T07:52:15Z</time></trkpt><trkpt lat="45.72092749073286" lon="8.675050293157927"><ele>269.0</ele><time>2026-04-11T07:52:16Z</time></trkpt><trkpt lat="45.72089652429392" lon="8.674721679004294"><ele>265.5</ele><time>2026-04-11T07:52:17Z</time></trkpt><trkpt lat="45.7208616413323" lon="8.674409179613962"><ele>262.0</ele><time>2026-04-11T07:52:18Z</time></trkpt><trkpt lat="45.72081757694965" lon="8.674065989233817"><ele>262.0</ele><time>2026-04-11T07:52:19Z</time></trkpt><trkpt lat="45.72076088709174" lon="8.673718429956219"><ele>262.0</ele><time>2026-04-11T07:52:20Z</time></trkpt><trkpt lat="45.72069686678199" lon="8.673386008107272"><ele>261.5</ele><time>2026-04-11T07:52:21Z</time></trkpt><trkpt lat="45.72063138933002" lon="8.673069946650394"><ele>261.0</ele><time>2026-04-11T07:52:22Z</time></trkpt><trkpt lat="45.72055821557895" lon="8.67275122554945"><ele>259.0</ele><time>2026-04-11T07:52:23Z</time></trkpt><trkpt lat="45.720475995731384" lon="8.672430461992802"><ele>257.0</ele><time>2026-04-11T07:52:24Z</time></trkpt><trkpt lat="45.720381087858485" lon="8.672087213922797"><ele>255.5</ele><time>2026-04-11T07:52:25Z</time></trkpt><trkpt lat="45.720287118171136" lon="8.671774594735405"><ele>254.0</ele><time>2026-04-11T07:52:26Z</time></trkpt><trkpt lat="45.72018713931764" lon="8.671458241777234"><ele>257.0</ele><time>2026-04-11T07:52:27Z</time></trkpt><trkpt lat="45.72008780349966" lon="8.671167012859184"><ele>260.0</ele><time>2026-04-11T07:52:28Z</time></trkpt><trkpt lat="45.71997977080845" lon="8.670879902825394"><ele>260.0</ele><time>2026-04-11T07:52:29Z</time></trkpt><trkpt lat="45.719870945817334" lon="8.67057123718422"><ele>260.0</ele><time>2026-04-11T07:52:30Z</time></trkpt><trkpt lat="45.71976220714835" lon="8.670290520188624"><ele>256.6666666666667</ele><time>2026-04-11T07:52:31Z</time></trkpt><trkpt lat="45.719656362518506" lon="8.67000209631091"><ele>253.33333333333331</ele><time>2026-04-11T07:52:32Z</time></trkpt><trkpt lat="45.71953705387546" lon="8.669753439473242"><ele>250.0</ele><time>2026-04-11T07:52:33Z</time></trkpt><trkpt lat="45.719420047220716" lon="8.669511444455361"><ele>251.33333333333331</ele><time>2026-04-11T07:52:34Z</time></trkpt><trkpt lat="45.719331590505604" lon="8.66930513169364"><ele>252.66666666666669</ele><time>2026-04-11T07:52:35Z</time></trkpt><trkpt lat="45.71919214636023" lon="8.669118775144552"><ele>254.0</ele><time>2026-04-11T07:52:36Z</time></trkpt><trkpt lat="45.719068083330335" lon="8.668878539562654"><ele>254.0</ele><time>2026-04-11T07:52:37Z</time></trkpt><trkpt lat="45.71893819492327" lon="8.668664698073629"><ele>254.0</ele><time>2026-04-11T07:52:38Z</time></trkpt><trkpt lat="45.71880071740072" lon="8.668496405522223"><ele>254.0</ele><time>2026-04-11T07:52:39Z</time></trkpt><trkpt lat="45.71866564185621" lon="8.668316456850697"><ele>254.0</ele><time>2026-04-11T07:52:40Z</time></trkpt><trkpt lat="45.718557390325735" lon="8.668166891784809"><ele>254.0</ele><time>2026-04-11T07:52:41Z</time></trkpt><trkpt lat="45.71851390740356" lon="8.66795733227835"><ele>254.0</ele><time>2026-04-11T07:52:42Z</time></trkpt><trkpt lat="45.7184396479863" lon="8.6677942602787"><ele>254.0</ele><time>2026-04-11T07:52:43Z</time></trkpt><trkpt lat="45.71836507670045" lon="8.667697780057113"><ele>254.0</ele><time>2026-04-11T07:52:44Z</time></trkpt><trkpt lat="45.71848731430449" lon="8.667351434698688"><ele>254.0</ele><time>2026-04-11T07:52:46Z</time></trkpt><trkpt lat="45.71861924715073" lon="8.667241699441655"><ele>254.0</ele><time>2026-04-11T07:52:47Z</time></trkpt><trkpt lat="45.71874637477972" lon="8.667171732542922"><ele>251.66666666666669</ele><time>2026-04-11T07:52:48Z</time></trkpt><trkpt lat="45.71889391508837" lon="8.667186596537958"><ele>249.33333333333331</ele><time>2026-04-11T07:52:49Z</time></trkpt><trkpt lat="45.71903431429944" lon="8.667226372180034"><ele>247.0</ele><time>2026-04-11T07:52:50Z</time></trkpt><trkpt lat="45.719216505916926" lon="8.667224775222488"><ele>247.0</ele><time>2026-04-11T07:52:51Z</time></trkpt><trkpt lat="45.7193686433504" lon="8.667296373795585"><ele>247.0</ele><time>2026-04-11T07:52:52Z</time></trkpt><trkpt lat="45.71944522637772" lon="8.66748937252405"><ele>247.0</ele><time>2026-04-11T07:52:53Z</time></trkpt><trkpt lat="45.719504689225275" lon="8.667675699047967"><ele>245.33333333333331</ele><time>2026-04-11T07:52:54Z</time></trkpt><trkpt lat="45.71964135737528" lon="8.667886932002395"><ele>243.66666666666669</ele><time>2026-04-11T07:52:55Z</time></trkpt><trkpt lat="45.71969152995001" lon="8.668095021089629"><ele>242.0</ele><time>2026-04-11T07:52:56Z</time></trkpt><trkpt lat="45.71971852524207" lon="8.66832168983384"><ele>242.0</ele><time>2026-04-11T07:52:57Z</time></trkpt><trkpt lat="45.71976982110772" lon="8.668570661013957"><ele>242.0</ele><time>2026-04-11T07:52:58Z</time></trkpt><trkpt lat="45.71980723835796" lon="8.668861961970096"><ele>242.0</ele><time>2026-04-11T07:52:59Z</time></trkpt><trkpt lat="45.719870501786254" lon="8.669110094796968"><ele>242.66666666666669</ele><time>2026-04-11T07:53:00Z</time></trkpt><trkpt lat="45.71991988900766" lon="8.66932965461569"><ele>243.33333333333331</ele><time>2026-04-11T07:53:01Z</time></trkpt><trkpt lat="45.719986660511566" lon="8.669531767468932"><ele>244.0</ele><time>2026-04-11T07:53:02Z</time></trkpt><trkpt lat="45.720070538884585" lon="8.669723836299847"><ele>244.75</ele><time>2026-04-11T07:53:03Z</time></trkpt><trkpt lat="45.72013754481339" lon="8.669905891029453"><ele>245.5</ele><time>2026-04-11T07:53:04Z</time></trkpt><trkpt lat="45.72020781067677" lon="8.670068209189427"><ele>246.25</ele><time>2026-04-11T07:53:05Z</time></trkpt><trkpt lat="45.72026594279889" lon="8.670209803548413"><ele>247.0</ele><time>2026-04-11T07:53:06Z</time></trkpt><trkpt lat="45.72031460136506" lon="8.670344484781452"><ele>247.83333333333331</ele><time>2026-04-11T07:53:07Z</time></trkpt><trkpt lat="45.720372225823894" lon="8.670423130945585"><ele>248.66666666666666</ele><time>2026-04-11T07:53:08Z</time></trkpt><trkpt lat="45.72039665849183" lon="8.670519226098317"><ele>249.5</ele><time>2026-04-11T07:53:09Z</time></trkpt><trkpt lat="45.7204517142321" lon="8.670640022200727"><ele>250.33333333333331</ele><time>2026-04-11T07:53:10Z</time></trkpt><trkpt lat="45.72049097778399" lon="8.670740033519483"><ele>251.16666666666666</ele><time>2026-04-11T07:53:11Z</time></trkpt><trkpt lat="45.72053243852374" lon="8.670829017406387"><ele>252.0</ele><time>2026-04-11T07:53:12Z</time></trkpt><trkpt lat="45.72058701629254" lon="8.670934567021149"><ele>252.0</ele><time>2026-04-11T07:53:14Z</time></trkpt><trkpt lat="45.720556521069405" lon="8.670853765344104"><ele>252.0</ele><time>2026-04-11T07:53:37Z</time></trkpt><trkpt lat="45.72045462660663" lon="8.670824869747806"><ele>252.0</ele><time>2026-04-11T07:53:42Z</time></trkpt><trkpt lat="45.72038971272115" lon="8.670750799285987"><ele>252.0</ele><time>2026-04-11T07:53:45Z</time></trkpt><trkpt lat="45.72052725731248" lon="8.670743648683269"><ele>252.0</ele><time>2026-04-11T07:53:53Z</time></trkpt><trkpt lat="45.720577442196394" lon="8.670919358318677"><ele>252.0</ele><time>2026-04-11T07:54:02Z</time></trkpt><trkpt lat="45.720626301183856" lon="8.671030304004743"><ele>252.0</ele><time>2026-04-11T07:54:03Z</time></trkpt><trkpt lat="45.72067195173808" lon="8.671155035947159"><ele>252.0</ele><time>2026-04-11T07:54:04Z</time></trkpt><trkpt lat="45.72070295239578" lon="8.671297736483956"><ele>252.0</ele><time>2026-04-11T07:54:05Z</time></trkpt><trkpt lat="45.72072063063087" lon="8.671481374612775"><ele>252.0</ele><time>2026-04-11T07:54:06Z</time></trkpt><trkpt lat="45.720756571875064" lon="8.671679797099777"><ele>252.5</ele><time>2026-04-11T07:54:07Z</time></trkpt><trkpt lat="45.7207971912363" lon="8.671870562466031"><ele>253.0</ele><time>2026-04-11T07:54:08Z</time></trkpt><trkpt lat="45.72080995923329" lon="8.672059285868245"><ele>253.5</ele><time>2026-04-11T07:54:09Z</time></trkpt><trkpt lat="45.72084001447486" lon="8.672248181806225"><ele>254.0</ele><time>2026-04-11T07:54:10Z</time></trkpt><trkpt lat="45.7208712780038" lon="8.672423699087007"><ele>254.0</ele><time>2026-04-11T07:54:11Z</time></trkpt><trkpt lat="45.72090734059386" lon="8.672614579529553"><ele>254.0</ele><time>2026-04-11T07:54:12Z</time></trkpt><trkpt lat="45.72110480442198" lon="8.672720694722228"><ele>254.0</ele><time>2026-04-11T07:54:13Z</time></trkpt><trkpt lat="45.72122534776265" lon="8.67287784134678"><ele>254.0</ele><time>2026-04-11T07:54:14Z</time></trkpt><trkpt lat="45.72134207039777" lon="8.673093360203547"><ele>254.0</ele><time>2026-04-11T07:54:15Z</time></trkpt><trkpt lat="45.72148527926794" lon="8.673194880916824"><ele>254.0</ele><time>2026-04-11T07:54:16Z</time></trkpt><trkpt lat="45.721654956782004" lon="8.673198840646492"><ele>254.0</ele><time>2026-04-11T07:54:17Z</time></trkpt><trkpt lat="45.72180313881053" lon="8.673131800714383"><ele>254.0</ele><time>2026-04-11T07:54:18Z</time></trkpt><trkpt lat="45.72196683347959" lon="8.673089060638782"><ele>254.0</ele><time>2026-04-11T07:54:19Z</time></trkpt><trkpt lat="45.72211602784332" lon="8.673044756477333"><ele>255.25</ele><time>2026-04-11T07:54:20Z</time></trkpt><trkpt lat="45.72228291106121" lon="8.672998222041093"><ele>256.5</ele><time>2026-04-11T07:54:21Z</time></trkpt><trkpt lat="45.72242048286068" lon="8.672965628145784"><ele>257.75</ele><time>2026-04-11T07:54:22Z</time></trkpt><trkpt lat="45.72255433235354" lon="8.672950559763057"><ele>259.0</ele><time>2026-04-11T07:54:23Z</time></trkpt><trkpt lat="45.722683455637764" lon="8.672964933707002"><ele>260.25</ele><time>2026-04-11T07:54:24Z</time></trkpt><trkpt lat="45.722793912570715" lon="8.673022687387126"><ele>261.5</ele><time>2026-04-11T07:54:25Z</time></trkpt><trkpt lat="45.72288337139553" lon="8.67310329031374"><ele>262.75</ele><time>2026-04-11T07:54:26Z</time></trkpt><trkpt lat="45.722962257184605" lon="8.673238860955125"><ele>264.0</ele><time>2026-04-11T07:54:27Z</time></trkpt><trkpt lat="45.72301387179307" lon="8.673417338525129"><ele>264.0</ele><time>2026-04-11T07:54:28Z</time></trkpt><trkpt lat="45.72303802840719" lon="8.673595926052723"><ele>264.0</ele><time>2026-04-11T07:54:29Z</time></trkpt><trkpt lat="45.722997094141206" lon="8.673817032266646"><ele>264.0</ele><time>2026-04-11T07:54:30Z</time></trkpt><trkpt lat="45.72292240918297" lon="8.673983458953764"><ele>264.0</ele><time>2026-04-11T07:54:31Z</time></trkpt><trkpt lat="45.7228082964575" lon="8.67410268666793"><ele>262.75</ele><time>2026-04-11T07:54:32Z</time></trkpt><trkpt lat="45.72268591858951" lon="8.674171284400565"><ele>261.5</ele><time>2026-04-11T07:54:33Z</time></trkpt><trkpt lat="45.722551965830405" lon="8.67416159823404"><ele>260.25</ele><time>2026-04-11T07:54:34Z</time></trkpt><trkpt lat="45.72241561136616" lon="8.674066056324097"><ele>259.0</ele><time>2026-04-11T07:54:35Z</time></trkpt><trkpt lat="45.722290491632876" lon="8.673932973310986"><ele>259.0</ele><time>2026-04-11T07:54:36Z</time></trkpt><trkpt lat="45.72220850275371" lon="8.673767005932069"><ele>259.0</ele><time>2026-04-11T07:54:37Z</time></trkpt><trkpt lat="45.72213893908076" lon="8.673576070392109"><ele>259.0</ele><time>2026-04-11T07:54:38Z</time></trkpt><trkpt lat="45.72207782424869" lon="8.673379621775785"><ele>259.0</ele><time>2026-04-11T07:54:39Z</time></trkpt><trkpt lat="45.72201593001987" lon="8.673155383958612"><ele>259.0</ele><time>2026-04-11T07:54:40Z</time></trkpt><trkpt lat="45.72194964631649" lon="8.672926781125959"><ele>259.0</ele><time>2026-04-11T07:54:41Z</time></trkpt><trkpt lat="45.72188102391173" lon="8.67270825045638"><ele>259.0</ele><time>2026-04-11T07:54:42Z</time></trkpt><trkpt lat="45.72183177002465" lon="8.672500104810922"><ele>258.3333333333333</ele><time>2026-04-11T07:54:43Z</time></trkpt><trkpt lat="45.721772815480215" lon="8.672277812704854"><ele>257.6666666666667</ele><time>2026-04-11T07:54:44Z</time></trkpt><trkpt lat="45.721763530646854" lon="8.672051192321693"><ele>257.0</ele><time>2026-04-11T07:54:45Z</time></trkpt><trkpt lat="45.72171782668897" lon="8.67182357238292"><ele>256.0</ele><time>2026-04-11T07:54:46Z</time></trkpt><trkpt lat="45.72167549611268" lon="8.67157206294494"><ele>255.0</ele><time>2026-04-11T07:54:47Z</time></trkpt><trkpt lat="45.72164210394992" lon="8.671287856552075"><ele>254.0</ele><time>2026-04-11T07:54:48Z</time></trkpt><trkpt lat="45.721638366105495" lon="8.671037712579217"><ele>251.33333333333334</ele><time>2026-04-11T07:54:49Z</time></trkpt><trkpt lat="45.72161543125795" lon="8.670808084685506"><ele>248.66666666666669</ele><time>2026-04-11T07:54:50Z</time></trkpt><trkpt lat="45.72160622168201" lon="8.67056011997974"><ele>246.0</ele><time>2026-04-11T07:54:51Z</time></trkpt><trkpt lat="45.72160696041655" lon="8.670298564532125"><ele>244.33333333333331</ele><time>2026-04-11T07:54:52Z</time></trkpt><trkpt lat="45.72160821577839" lon="8.670021666526624"><ele>242.66666666666666</ele><time>2026-04-11T07:54:53Z</time></trkpt><trkpt lat="45.72161717917912" lon="8.66975074147384"><ele>241.0</ele><time>2026-04-11T07:54:54Z</time></trkpt><trkpt lat="45.721615987882615" lon="8.66947482985634"><ele>240.66666666666666</ele><time>2026-04-11T07:54:55Z</time></trkpt><trkpt lat="45.72162423921818" lon="8.669235334387224"><ele>240.33333333333331</ele><time>2026-04-11T07:54:56Z</time></trkpt><trkpt lat="45.72164581366522" lon="8.66900006136167"><ele>240.0</ele><time>2026-04-11T07:54:57Z</time></trkpt><trkpt lat="45.72166004117714" lon="8.668801265352135"><ele>240.33333333333331</ele><time>2026-04-11T07:54:58Z</time></trkpt><trkpt lat="45.721667190576156" lon="8.668587409435823"><ele>240.66666666666666</ele><time>2026-04-11T07:54:59Z</time></trkpt><trkpt lat="45.72169965372396" lon="8.668377262247056"><ele>241.0</ele><time>2026-04-11T07:55:00Z</time></trkpt><trkpt lat="45.72175667789626" lon="8.668177305998759"><ele>241.0</ele><time>2026-04-11T07:55:01Z</time></trkpt><trkpt lat="45.72177744903401" lon="8.667974314039883"><ele>241.0</ele><time>2026-04-11T07:55:02Z</time></trkpt><trkpt lat="45.72179732937288" lon="8.66774913129283"><ele>241.0</ele><time>2026-04-11T07:55:03Z</time></trkpt><trkpt lat="45.721810185048106" lon="8.667541772674184"><ele>241.0</ele><time>2026-04-11T07:55:04Z</time></trkpt><trkpt lat="45.72183394574701" lon="8.667323634840407"><ele>240.0</ele><time>2026-04-11T07:55:05Z</time></trkpt><trkpt lat="45.72186347057316" lon="8.667086237273619"><ele>239.0</ele><time>2026-04-11T07:55:06Z</time></trkpt><trkpt lat="45.72190198611198" lon="8.666836505628664"><ele>238.0</ele><time>2026-04-11T07:55:07Z</time></trkpt><trkpt lat="45.72192504669025" lon="8.666610728995648"><ele>237.5</ele><time>2026-04-11T07:55:08Z</time></trkpt><trkpt lat="45.72196310169261" lon="8.666407877221687"><ele>237.0</ele><time>2026-04-11T07:55:09Z</time></trkpt><trkpt lat="45.721991714495594" lon="8.666202425950468"><ele>236.5</ele><time>2026-04-11T07:55:10Z</time></trkpt><trkpt lat="45.722012942417" lon="8.665996004578004"><ele>236.0</ele><time>2026-04-11T07:55:11Z</time></trkpt><trkpt lat="45.72203310338655" lon="8.665801648869277"><ele>235.25</ele><time>2026-04-11T07:55:12Z</time></trkpt><trkpt lat="45.722059146244945" lon="8.665621507973732"><ele>234.5</ele><time>2026-04-11T07:55:13Z</time></trkpt><trkpt lat="45.722083255480484" lon="8.665441711066668"><ele>233.75</ele><time>2026-04-11T07:55:14Z</time></trkpt><trkpt lat="45.722106332720664" lon="8.665245009646931"><ele>233.0</ele><time>2026-04-11T07:55:15Z</time></trkpt><trkpt lat="45.722129513490955" lon="8.665055764216074"><ele>232.75</ele><time>2026-04-11T07:55:16Z</time></trkpt><trkpt lat="45.72215371662861" lon="8.664874101511067"><ele>232.5</ele><time>2026-04-11T07:55:17Z</time></trkpt><trkpt lat="45.7221717237203" lon="8.664675025466714"><ele>232.25</ele><time>2026-04-11T07:55:18Z</time></trkpt><trkpt lat="45.722187077757276" lon="8.6644657765155"><ele>232.0</ele><time>2026-04-11T07:55:19Z</time></trkpt><trkpt lat="45.722209882984245" lon="8.664241855659256"><ele>231.66666666666666</ele><time>2026-04-11T07:55:20Z</time></trkpt><trkpt lat="45.72224700586787" lon="8.664037092879182"><ele>231.33333333333331</ele><time>2026-04-11T07:55:21Z</time></trkpt><trkpt lat="45.72228641392583" lon="8.663825595673464"><ele>231.0</ele><time>2026-04-11T07:55:22Z</time></trkpt><trkpt lat="45.722316119656526" lon="8.663614626034892"><ele>230.25</ele><time>2026-04-11T07:55:23Z</time></trkpt><trkpt lat="45.72232678138899" lon="8.663397242545825"><ele>229.5</ele><time>2026-04-11T07:55:24Z</time></trkpt><trkpt lat="45.72234107531931" lon="8.663185936134044"><ele>228.75</ele><time>2026-04-11T07:55:25Z</time></trkpt><trkpt lat="45.72236361397668" lon="8.663008432839982"><ele>228.0</ele><time>2026-04-11T07:55:26Z</time></trkpt><trkpt lat="45.72238579454917" lon="8.662829998937363"><ele>227.75</ele><time>2026-04-11T07:55:27Z</time></trkpt><trkpt lat="45.7224076739316" lon="8.662654104616406"><ele>227.5</ele><time>2026-04-11T07:55:28Z</time></trkpt><trkpt lat="45.722429351996105" lon="8.662479828921075"><ele>227.25</ele><time>2026-04-11T07:55:29Z</time></trkpt><trkpt lat="45.72245317920485" lon="8.662287749182813"><ele>227.0</ele><time>2026-04-11T07:55:30Z</time></trkpt><trkpt lat="45.72247683235695" lon="8.662096786336768"><ele>226.25</ele><time>2026-04-11T07:55:31Z</time></trkpt><trkpt lat="45.722501726981704" lon="8.661895800517293"><ele>225.5</ele><time>2026-04-11T07:55:32Z</time></trkpt><trkpt lat="45.722528458914866" lon="8.661678704841405"><ele>224.75</ele><time>2026-04-11T07:55:33Z</time></trkpt><trkpt lat="45.722551497753884" lon="8.661489143881889"><ele>224.0</ele><time>2026-04-11T07:55:34Z</time></trkpt><trkpt lat="45.72258402996815" lon="8.66127716619749"><ele>224.0</ele><time>2026-04-11T07:55:35Z</time></trkpt><trkpt lat="45.722628951858105" lon="8.661066199501727"><ele>224.0</ele><time>2026-04-11T07:55:36Z</time></trkpt><trkpt lat="45.72266872745049" lon="8.660878938649507"><ele>224.0</ele><time>2026-04-11T07:55:37Z</time></trkpt><trkpt lat="45.72271232832556" lon="8.660681250101803"><ele>224.0</ele><time>2026-04-11T07:55:38Z</time></trkpt><trkpt lat="45.722745748933534" lon="8.660469895667594"><ele>224.0</ele><time>2026-04-11T07:55:39Z</time></trkpt><trkpt lat="45.7227805011526" lon="8.660263087396974"><ele>224.0</ele><time>2026-04-11T07:55:40Z</time></trkpt><trkpt lat="45.722803300200724" lon="8.660059838897658"><ele>224.0</ele><time>2026-04-11T07:55:41Z</time></trkpt><trkpt lat="45.72283766934984" lon="8.659851937489517"><ele>224.0</ele><time>2026-04-11T07:55:42Z</time></trkpt><trkpt lat="45.722850383920836" lon="8.659645074166809"><ele>224.75</ele><time>2026-04-11T07:55:43Z</time></trkpt><trkpt lat="45.72279411890993" lon="8.659402075581337"><ele>225.5</ele><time>2026-04-11T07:55:44Z</time></trkpt><trkpt lat="45.72281635559679" lon="8.659237527305294"><ele>226.25</ele><time>2026-04-11T07:55:45Z</time></trkpt><trkpt lat="45.72284630158403" lon="8.65908264667912"><ele>227.0</ele><time>2026-04-11T07:55:46Z</time></trkpt><trkpt lat="45.72285149615016" lon="8.658937681544193"><ele>227.0</ele><time>2026-04-11T07:55:47Z</time></trkpt><trkpt lat="45.722870909137946" lon="8.658823159269577"><ele>227.0</ele><time>2026-04-11T07:55:48Z</time></trkpt><trkpt lat="45.722868330901164" lon="8.6586599578904"><ele>227.0</ele><time>2026-04-11T07:55:50Z</time></trkpt><trkpt lat="45.72291041924446" lon="8.658549814169357"><ele>227.0</ele><time>2026-04-11T07:55:52Z</time></trkpt><trkpt lat="45.722992636072085" lon="8.658423258308106"><ele>227.0</ele><time>2026-04-11T07:55:54Z</time></trkpt><trkpt lat="45.722987023915124" lon="8.65831959576518"><ele>227.00000000000003</ele><time>2026-04-11T07:55:56Z</time></trkpt><trkpt lat="45.7229743730107" lon="8.658207604911267"><ele>227.0</ele><time>2026-04-11T07:55:57Z</time></trkpt><trkpt lat="45.72299472108727" lon="8.65808181031782"><ele>227.0</ele><time>2026-04-11T07:55:59Z</time></trkpt><trkpt lat="45.72301355870423" lon="8.657985487517855"><ele>227.0</ele><time>2026-04-11T07:56:02Z</time></trkpt><trkpt lat="45.72300678898929" lon="8.657836005438408"><ele>227.00000000000003</ele><time>2026-04-11T07:56:06Z</time></trkpt><trkpt lat="45.723027523377596" lon="8.657695930905128"><ele>227.0</ele><time>2026-04-11T07:56:08Z</time></trkpt><trkpt lat="45.7229994189349" lon="8.657534028799367"><ele>226.8</ele><time>2026-04-11T07:56:10Z</time></trkpt><trkpt lat="45.72302535984431" lon="8.657428995596733"><ele>226.6</ele><time>2026-04-11T07:56:12Z</time></trkpt><trkpt lat="45.72303261514523" lon="8.657295347353635"><ele>226.40000000000003</ele><time>2026-04-11T07:56:14Z</time></trkpt><trkpt lat="45.72312563908348" lon="8.657138951330987"><ele>226.20000000000002</ele><time>2026-04-11T07:56:16Z</time></trkpt><trkpt lat="45.72310609805697" lon="8.657028517536196"><ele>226.0</ele><time>2026-04-11T07:56:17Z</time></trkpt><trkpt lat="45.72312672078615" lon="8.656924267724134"><ele>225.83333333333331</ele><time>2026-04-11T07:56:18Z</time></trkpt><trkpt lat="45.72313599592416" lon="8.656809619470868"><ele>225.66666666666666</ele><time>2026-04-11T07:56:19Z</time></trkpt><trkpt lat="45.72313910046451" lon="8.656697214159434"><ele>225.5</ele><time>2026-04-11T07:56:20Z</time></trkpt><trkpt lat="45.723115142576724" lon="8.656594432717295"><ele>225.33333333333331</ele><time>2026-04-11T07:56:21Z</time></trkpt><trkpt lat="45.72313263813269" lon="8.656485685716113"><ele>225.16666666666666</ele><time>2026-04-11T07:56:22Z</time></trkpt><trkpt lat="45.72314715353927" lon="8.656377421405422"><ele>225.0</ele><time>2026-04-11T07:56:23Z</time></trkpt><trkpt lat="45.72316212372203" lon="8.65626770162453"><ele>225.0</ele><time>2026-04-11T07:56:24Z</time></trkpt><trkpt lat="45.72320521718206" lon="8.656133659887068"><ele>225.0</ele><time>2026-04-11T07:56:25Z</time></trkpt><trkpt lat="45.72322626847129" lon="8.655996822545621"><ele>225.0</ele><time>2026-04-11T07:56:26Z</time></trkpt><trkpt lat="45.72320751111262" lon="8.655865426539277"><ele>225.0</ele><time>2026-04-11T07:56:27Z</time></trkpt><trkpt lat="45.72322827213445" lon="8.655757462986081"><ele>225.0</ele><time>2026-04-11T07:56:28Z</time></trkpt><trkpt lat="45.72324228690288" lon="8.655642307642772"><ele>225.0</ele><time>2026-04-11T07:56:29Z</time></trkpt><trkpt lat="45.723258958318496" lon="8.655505323778101"><ele>225.0</ele><time>2026-04-11T07:56:30Z</time></trkpt><trkpt lat="45.72327659735431" lon="8.655360389094962"><ele>225.0</ele><time>2026-04-11T07:56:31Z</time></trkpt><trkpt lat="45.72329362344064" lon="8.655220490535415"><ele>225.0</ele><time>2026-04-11T07:56:32Z</time></trkpt><trkpt lat="45.723310932204285" lon="8.655077167234817"><ele>225.0</ele><time>2026-04-11T07:56:33Z</time></trkpt><trkpt lat="45.723326532419826" lon="8.654946946167987"><ele>225.0</ele><time>2026-04-11T07:56:34Z</time></trkpt><trkpt lat="45.723343821210506" lon="8.654811102974666"><ele>225.0</ele><time>2026-04-11T07:56:35Z</time></trkpt><trkpt lat="45.723361172615355" lon="8.654676664927658"><ele>225.0</ele><time>2026-04-11T07:56:36Z</time></trkpt><trkpt lat="45.723376618096815" lon="8.654537351417327"><ele>225.0</ele><time>2026-04-11T07:56:37Z</time></trkpt><trkpt lat="45.723391832123674" lon="8.654412729040045"><ele>225.0</ele><time>2026-04-11T07:56:38Z</time></trkpt><trkpt lat="45.72340584497726" lon="8.654297945880963"><ele>224.6</ele><time>2026-04-11T07:56:39Z</time></trkpt><trkpt lat="45.72342304808651" lon="8.654157030353165"><ele>224.2</ele><time>2026-04-11T07:56:40Z</time></trkpt><trkpt lat="45.72343589973034" lon="8.654051758925357"><ele>223.8</ele><time>2026-04-11T07:56:41Z</time></trkpt><trkpt lat="45.723454864075244" lon="8.653896416613728"><ele>223.4</ele><time>2026-04-11T07:56:43Z</time></trkpt><trkpt lat="45.72346971555312" lon="8.653774764055708"><ele>223.0</ele><time>2026-04-11T07:56:45Z</time></trkpt><trkpt lat="45.7234833915136" lon="8.653662740544657"><ele>222.8</ele><time>2026-04-11T07:56:47Z</time></trkpt><trkpt lat="45.72350076453232" lon="8.653521726232379"><ele>222.60000000000002</ele><time>2026-04-11T07:56:49Z</time></trkpt><trkpt lat="45.72351298025958" lon="8.653419429348576"><ele>222.39999999999998</ele><time>2026-04-11T07:56:50Z</time></trkpt><trkpt lat="45.72352420092736" lon="8.65333059712623"><ele>222.2</ele><time>2026-04-11T07:56:51Z</time></trkpt><trkpt lat="45.72354582443956" lon="8.653163987077527"><ele>222.0</ele><time>2026-04-11T07:56:53Z</time></trkpt><trkpt lat="45.72356682415702" lon="8.65302682936099"><ele>222.25</ele><time>2026-04-11T07:56:55Z</time></trkpt><trkpt lat="45.723591586737534" lon="8.65294294714328"><ele>222.5</ele><time>2026-04-11T07:56:57Z</time></trkpt><trkpt lat="45.72363593969143" lon="8.652861805541164"><ele>222.75</ele><time>2026-04-11T07:56:59Z</time></trkpt><trkpt lat="45.72380837934" lon="8.65268069537598"><ele>223.0</ele><time>2026-04-11T07:57:01Z</time></trkpt><trkpt lat="45.72373596051481" lon="8.652469772944743"><ele>223.0</ele><time>2026-04-11T07:57:02Z</time></trkpt><trkpt lat="45.72360957914009" lon="8.652492201362877"><ele>223.0</ele><time>2026-04-11T07:57:03Z</time></trkpt><trkpt lat="45.723535769360815" lon="8.652349440143611"><ele>223.0</ele><time>2026-04-11T07:57:05Z</time></trkpt><trkpt lat="45.72353879633229" lon="8.65224126063541"><ele>223.0</ele><time>2026-04-11T07:57:06Z</time></trkpt><trkpt lat="45.723701383069056" lon="8.652180231492231"><ele>222.99999999999997</ele><time>2026-04-11T07:57:07Z</time></trkpt><trkpt lat="45.72371042792697" lon="8.652076588683535"><ele>223.0</ele><time>2026-04-11T07:57:08Z</time></trkpt><trkpt lat="45.72373227034248" lon="8.651907696233943"><ele>223.0</ele><time>2026-04-11T07:57:10Z</time></trkpt><trkpt lat="45.723751946211856" lon="8.651741354624273"><ele>223.0</ele><time>2026-04-11T07:57:12Z</time></trkpt><trkpt lat="45.723764245358964" lon="8.651643846149794"><ele>222.99999999999997</ele><time>2026-04-11T07:57:13Z</time></trkpt><trkpt lat="45.72377577847573" lon="8.651552238504353"><ele>223.0</ele><time>2026-04-11T07:57:14Z</time></trkpt><trkpt lat="45.72378717455318" lon="8.651458378287153"><ele>222.8</ele><time>2026-04-11T07:57:15Z</time></trkpt><trkpt lat="45.72370737274611" lon="8.651354221914309"><ele>222.60000000000002</ele><time>2026-04-11T07:57:16Z</time></trkpt><trkpt lat="45.72371861397425" lon="8.651207692071491"><ele>222.39999999999998</ele><time>2026-04-11T07:57:18Z</time></trkpt><trkpt lat="45.72383076098445" lon="8.65111505053171"><ele>222.2</ele><time>2026-04-11T07:57:20Z</time></trkpt><trkpt lat="45.72376820594467" lon="8.651030521648899"><ele>222.0</ele><time>2026-04-11T07:57:21Z</time></trkpt><trkpt lat="45.723777974491775" lon="8.65093701721936"><ele>221.83333333333334</ele><time>2026-04-11T07:57:22Z</time></trkpt><trkpt lat="45.723777221013" lon="8.650825346025906"><ele>221.66666666666669</ele><time>2026-04-11T07:57:23Z</time></trkpt><trkpt lat="45.72377403906075" lon="8.65071313421484"><ele>221.5</ele><time>2026-04-11T07:57:24Z</time></trkpt><trkpt lat="45.72388871499919" lon="8.65064084357836"><ele>221.33333333333334</ele><time>2026-04-11T07:57:25Z</time></trkpt><trkpt lat="45.72390022831101" lon="8.650547223858666"><ele>221.16666666666669</ele><time>2026-04-11T07:57:26Z</time></trkpt><trkpt lat="45.72391769141386" lon="8.650405223530397"><ele>221.0</ele><time>2026-04-11T07:57:28Z</time></trkpt><trkpt lat="45.7239354489953" lon="8.650260828794968"><ele>221.00000000000003</ele><time>2026-04-11T07:57:31Z</time></trkpt><trkpt lat="45.723947026002946" lon="8.650166691121472"><ele>221.0</ele><time>2026-04-11T07:57:32Z</time></trkpt><trkpt lat="45.72395809269818" lon="8.650076702875547"><ele>221.0</ele><time>2026-04-11T07:57:33Z</time></trkpt><trkpt lat="45.72396963439566" lon="8.649982854773903"><ele>221.0</ele><time>2026-04-11T07:57:34Z</time></trkpt><trkpt lat="45.72398363170014" lon="8.649874699648636"><ele>221.0</ele><time>2026-04-11T07:57:35Z</time></trkpt><trkpt lat="45.723998443371464" lon="8.649757464279048"><ele>221.00000000000003</ele><time>2026-04-11T07:57:36Z</time></trkpt><trkpt lat="45.72401306635526" lon="8.649640933465474"><ele>221.0</ele><time>2026-04-11T07:57:37Z</time></trkpt><trkpt lat="45.72402686858235" lon="8.649530490689212"><ele>220.57142857142858</ele><time>2026-04-11T07:57:38Z</time></trkpt><trkpt lat="45.72403998604767" lon="8.649425527117849"><ele>220.14285714285714</ele><time>2026-04-11T07:57:39Z</time></trkpt><trkpt lat="45.72405172408308" lon="8.64933160193953"><ele>219.71428571428572</ele><time>2026-04-11T07:57:40Z</time></trkpt><trkpt lat="45.72406487073357" lon="8.649226407439956"><ele>219.28571428571428</ele><time>2026-04-11T07:57:41Z</time></trkpt><trkpt lat="45.72407731466562" lon="8.649121856554505"><ele>218.85714285714286</ele><time>2026-04-11T07:57:42Z</time></trkpt><trkpt lat="45.724089534900145" lon="8.649018466548526"><ele>218.42857142857144</ele><time>2026-04-11T07:57:43Z</time></trkpt><trkpt lat="45.724102958782375" lon="8.648906504942648"><ele>218.0</ele><time>2026-04-11T07:57:44Z</time></trkpt><trkpt lat="45.72411755562614" lon="8.648784760344697"><ele>218.0</ele><time>2026-04-11T07:57:45Z</time></trkpt><trkpt lat="45.72413309625966" lon="8.648655144284652"><ele>218.0</ele><time>2026-04-11T07:57:46Z</time></trkpt><trkpt lat="45.7241484578914" lon="8.64852734341678"><ele>218.0</ele><time>2026-04-11T07:57:47Z</time></trkpt><trkpt lat="45.724164453015334" lon="8.648396832557792"><ele>218.0</ele><time>2026-04-11T07:57:48Z</time></trkpt><trkpt lat="45.72418102521089" lon="8.64826161322723"><ele>218.0</ele><time>2026-04-11T07:57:49Z</time></trkpt><trkpt lat="45.72419907157064" lon="8.648114365599575"><ele>217.4</ele><time>2026-04-11T07:57:50Z</time></trkpt><trkpt lat="45.72421735417218" lon="8.647965190437489"><ele>216.8</ele><time>2026-04-11T07:57:51Z</time></trkpt><trkpt lat="45.72423566128596" lon="8.64781434216891"><ele>216.2</ele><time>2026-04-11T07:57:52Z</time></trkpt><trkpt lat="45.72425375039758" lon="8.647665089068202"><ele>215.6</ele><time>2026-04-11T07:57:53Z</time></trkpt><trkpt lat="45.72427259545757" lon="8.647514640395496"><ele>215.0</ele><time>2026-04-11T07:57:54Z</time></trkpt><trkpt lat="45.724213448767195" lon="8.64734085896838"><ele>215.0</ele><time>2026-04-11T07:57:55Z</time></trkpt><trkpt lat="45.72422942249138" lon="8.647186261754685"><ele>215.0</ele><time>2026-04-11T07:57:56Z</time></trkpt><trkpt lat="45.72424744288953" lon="8.647032091432333"><ele>215.0</ele><time>2026-04-11T07:57:57Z</time></trkpt><trkpt lat="45.72426576976506" lon="8.64687731312774"><ele>215.0</ele><time>2026-04-11T07:57:58Z</time></trkpt><trkpt lat="45.72427837137905" lon="8.646720768596166"><ele>215.0</ele><time>2026-04-11T07:57:59Z</time></trkpt><trkpt lat="45.72429141497909" lon="8.64657043763177"><ele>215.00000000000003</ele><time>2026-04-11T07:58:00Z</time></trkpt><trkpt lat="45.72430944980691" lon="8.646436000999845"><ele>215.0</ele><time>2026-04-11T07:58:01Z</time></trkpt><trkpt lat="45.724328949836114" lon="8.64631029422789"><ele>215.0</ele><time>2026-04-11T07:58:02Z</time></trkpt><trkpt lat="45.72434996803451" lon="8.646192809827614"><ele>215.0</ele><time>2026-04-11T07:58:03Z</time></trkpt><trkpt lat="45.72442465150158" lon="8.646097563165693"><ele>215.00000000000003</ele><time>2026-04-11T07:58:04Z</time></trkpt><trkpt lat="45.72444096553911" lon="8.645991328482202"><ele>215.0</ele><time>2026-04-11T07:58:05Z</time></trkpt><trkpt lat="45.72445770856682" lon="8.645887400661115"><ele>215.50000000000003</ele><time>2026-04-11T07:58:06Z</time></trkpt><trkpt lat="45.72447415628027" lon="8.645794197959336"><ele>216.0</ele><time>2026-04-11T07:58:07Z</time></trkpt><trkpt lat="45.72450137591338" lon="8.64565012209492"><ele>216.5</ele><time>2026-04-11T07:58:09Z</time></trkpt><trkpt lat="45.724526619059056" lon="8.645553270307937"><ele>217.0</ele><time>2026-04-11T07:58:11Z</time></trkpt><trkpt lat="45.72456159699693" lon="8.645459382897883"><ele>217.50000000000003</ele><time>2026-04-11T07:58:12Z</time></trkpt><trkpt lat="45.72462415502834" lon="8.645365381702565"><ele>218.0</ele><time>2026-04-11T07:58:13Z</time></trkpt><trkpt lat="45.72459919104824" lon="8.645262243677035"><ele>218.0</ele><time>2026-04-11T07:58:14Z</time></trkpt><trkpt lat="45.724590989706094" lon="8.64507276014274"><ele>218.0</ele><time>2026-04-11T07:58:16Z</time></trkpt><trkpt lat="45.7246146139837" lon="8.644983903234007"><ele>218.0</ele><time>2026-04-11T07:58:17Z</time></trkpt><trkpt lat="45.72461851315082" lon="8.644854742690317"><ele>218.0</ele><time>2026-04-11T07:58:18Z</time></trkpt><trkpt lat="45.72462226503568" lon="8.644725006393102"><ele>218.0</ele><time>2026-04-11T07:58:19Z</time></trkpt><trkpt lat="45.72463278006795" lon="8.644584250359195"><ele>218.2</ele><time>2026-04-11T07:58:20Z</time></trkpt><trkpt lat="45.72464716688882" lon="8.644440126414473"><ele>218.4</ele><time>2026-04-11T07:58:21Z</time></trkpt><trkpt lat="45.72466490771701" lon="8.644292801484644"><ele>218.59999999999997</ele><time>2026-04-11T07:58:22Z</time></trkpt><trkpt lat="45.724684043949516" lon="8.644139295177862"><ele>218.79999999999998</ele><time>2026-04-11T07:58:23Z</time></trkpt><trkpt lat="45.72470413011947" lon="8.643977352075156"><ele>219.0</ele><time>2026-04-11T07:58:24Z</time></trkpt><trkpt lat="45.72472493225676" lon="8.64380884630349"><ele>218.5</ele><time>2026-04-11T07:58:25Z</time></trkpt><trkpt lat="45.72474694133744" lon="8.643629238602498"><ele>218.0</ele><time>2026-04-11T07:58:26Z</time></trkpt><trkpt lat="45.72475318744359" lon="8.643441668879273"><ele>217.5</ele><time>2026-04-11T07:58:27Z</time></trkpt><trkpt lat="45.72477744612723" lon="8.643252637052186"><ele>217.0</ele><time>2026-04-11T07:58:28Z</time></trkpt><trkpt lat="45.72480491588223" lon="8.64306235380118"><ele>217.0</ele><time>2026-04-11T07:58:29Z</time></trkpt><trkpt lat="45.724834119718764" lon="8.642873497414712"><ele>217.0</ele><time>2026-04-11T07:58:30Z</time></trkpt><trkpt lat="45.72486353798378" lon="8.642685166888038"><ele>217.0</ele><time>2026-04-11T07:58:31Z</time></trkpt><trkpt lat="45.72488966451474" lon="8.642494417823086"><ele>217.0</ele><time>2026-04-11T07:58:32Z</time></trkpt><trkpt lat="45.72491922845345" lon="8.642306282936621"><ele>216.0</ele><time>2026-04-11T07:58:33Z</time></trkpt><trkpt lat="45.72494506523935" lon="8.642116238640742"><ele>215.0</ele><time>2026-04-11T07:58:34Z</time></trkpt><trkpt lat="45.724965921979994" lon="8.641922827869257"><ele>214.0</ele><time>2026-04-11T07:58:35Z</time></trkpt><trkpt lat="45.72498124119117" lon="8.641726511523515"><ele>213.0</ele><time>2026-04-11T07:58:36Z</time></trkpt><trkpt lat="45.72499293149571" lon="8.641530763460578"><ele>212.5</ele><time>2026-04-11T07:58:37Z</time></trkpt><trkpt lat="45.72502572611176" lon="8.641344648278366"><ele>212.0</ele><time>2026-04-11T07:58:38Z</time></trkpt><trkpt lat="45.725048171063854" lon="8.641161004025376"><ele>211.5</ele><time>2026-04-11T07:58:39Z</time></trkpt><trkpt lat="45.72507025520556" lon="8.640980172243541"><ele>211.0</ele><time>2026-04-11T07:58:40Z</time></trkpt><trkpt lat="45.72509126794492" lon="8.640803084170052"><ele>210.25</ele><time>2026-04-11T07:58:41Z</time></trkpt><trkpt lat="45.725111393125175" lon="8.64063191706448"><ele>209.5</ele><time>2026-04-11T07:58:42Z</time></trkpt><trkpt lat="45.72511600972817" lon="8.640461701770505"><ele>208.75</ele><time>2026-04-11T07:58:43Z</time></trkpt><trkpt lat="45.72514979151961" lon="8.640302314992624"><ele>208.0</ele><time>2026-04-11T07:58:44Z</time></trkpt><trkpt lat="45.72515928985752" lon="8.640142510681397"><ele>208.0</ele><time>2026-04-11T07:58:45Z</time></trkpt><trkpt lat="45.72517594833951" lon="8.639989185026693"><ele>208.0</ele><time>2026-04-11T07:58:46Z</time></trkpt><trkpt lat="45.72519852878624" lon="8.639839246494846"><ele>208.0</ele><time>2026-04-11T07:58:47Z</time></trkpt><trkpt lat="45.72522179648728" lon="8.63969168469548"><ele>208.0</ele><time>2026-04-11T07:58:48Z</time></trkpt><trkpt lat="45.72524468519812" lon="8.639549864918528"><ele>208.0</ele><time>2026-04-11T07:58:49Z</time></trkpt><trkpt lat="45.725262221709706" lon="8.639412421571137"><ele>208.66666666666666</ele><time>2026-04-11T07:58:50Z</time></trkpt><trkpt lat="45.725283154006405" lon="8.639276876722429"><ele>209.33333333333331</ele><time>2026-04-11T07:58:51Z</time></trkpt><trkpt lat="45.72530493842612" lon="8.639145471340344"><ele>210.0</ele><time>2026-04-11T07:58:52Z</time></trkpt><trkpt lat="45.72533017135417" lon="8.639027682026825"><ele>210.66666666666669</ele><time>2026-04-11T07:58:53Z</time></trkpt><trkpt lat="45.7253520592378" lon="8.638924564103947"><ele>211.33333333333334</ele><time>2026-04-11T07:58:54Z</time></trkpt><trkpt lat="45.72536916686442" lon="8.638831926765072"><ele>212.0</ele><time>2026-04-11T07:58:55Z</time></trkpt><trkpt lat="45.72538191075585" lon="8.638743312125282"><ele>212.0</ele><time>2026-04-11T07:58:56Z</time></trkpt><trkpt lat="45.725418195696015" lon="8.63857691511725"><ele>212.0</ele><time>2026-04-11T07:58:58Z</time></trkpt><trkpt lat="45.725439840519186" lon="8.63843386739897"><ele>212.0</ele><time>2026-04-11T07:59:00Z</time></trkpt><trkpt lat="45.72547028017384" lon="8.638316272554418"><ele>212.0</ele><time>2026-04-11T07:59:02Z</time></trkpt><trkpt lat="45.725493718783696" lon="8.63822186848219"><ele>212.0</ele><time>2026-04-11T07:59:04Z</time></trkpt><trkpt lat="45.72552083491383" lon="8.63812013511694"><ele>212.0</ele><time>2026-04-11T07:59:06Z</time></trkpt><trkpt lat="45.72555317178592" lon="8.637996059605412"><ele>212.0</ele><time>2026-04-11T07:59:08Z</time></trkpt><trkpt lat="45.725587920636784" lon="8.637864508283048"><ele>212.0</ele><time>2026-04-11T07:59:10Z</time></trkpt><trkpt lat="45.72563326673592" lon="8.637694414866267"><ele>212.0</ele><time>2026-04-11T07:59:12Z</time></trkpt><trkpt lat="45.72565855730778" lon="8.637599549813995"><ele>212.0</ele><time>2026-04-11T07:59:13Z</time></trkpt><trkpt lat="45.7256836366569" lon="8.637504852313118"><ele>211.39999999999998</ele><time>2026-04-11T07:59:14Z</time></trkpt><trkpt lat="45.725706349339" lon="8.637419102669169"><ele>210.79999999999998</ele><time>2026-04-11T07:59:15Z</time></trkpt><trkpt lat="45.725740552480026" lon="8.637289972089052"><ele>210.2</ele><time>2026-04-11T07:59:17Z</time></trkpt><trkpt lat="45.72577161044156" lon="8.63717271620119"><ele>209.6</ele><time>2026-04-11T07:59:19Z</time></trkpt><trkpt lat="45.72579877231948" lon="8.637020770161543"><ele>209.0</ele><time>2026-04-11T07:59:21Z</time></trkpt><trkpt lat="45.7258095151724" lon="8.636843137496943"><ele>208.50000000000003</ele><time>2026-04-11T07:59:23Z</time></trkpt><trkpt lat="45.72580987406527" lon="8.636743428143125"><ele>208.0</ele><time>2026-04-11T07:59:24Z</time></trkpt><trkpt lat="45.72580710998246" lon="8.636643255777098"><ele>207.5</ele><time>2026-04-11T07:59:25Z</time></trkpt><trkpt lat="45.72580433783817" lon="8.636542791430037"><ele>207.0</ele><time>2026-04-11T07:59:26Z</time></trkpt><trkpt lat="45.72579969899128" lon="8.636398163740454"><ele>206.50000000000003</ele><time>2026-04-11T07:59:28Z</time></trkpt><trkpt lat="45.72579500744714" lon="8.636292185512483"><ele>206.0</ele><time>2026-04-11T07:59:34Z</time></trkpt><trkpt lat="45.72579007171645" lon="8.636180691222163"><ele>205.66666666666669</ele><time>2026-04-11T07:59:37Z</time></trkpt><trkpt lat="45.725786253417354" lon="8.636077756314666"><ele>205.33333333333334</ele><time>2026-04-11T07:59:39Z</time></trkpt><trkpt lat="45.72578281472532" lon="8.635980880397446"><ele>205.0</ele><time>2026-04-11T07:59:41Z</time></trkpt><trkpt lat="45.72576649944249" lon="8.635876750074198"><ele>204.66666666666669</ele><time>2026-04-11T07:59:43Z</time></trkpt><trkpt lat="45.72577518190195" lon="8.6357435897292"><ele>204.33333333333334</ele><time>2026-04-11T07:59:45Z</time></trkpt><trkpt lat="45.7257643778782" lon="8.635633628777763"><ele>204.0</ele><time>2026-04-11T07:59:47Z</time></trkpt><trkpt lat="45.72576803385566" lon="8.635518644364641"><ele>204.0</ele><time>2026-04-11T07:59:49Z</time></trkpt><trkpt lat="45.72575371882713" lon="8.635346058869326"><ele>204.0</ele><time>2026-04-11T07:59:51Z</time></trkpt><trkpt lat="45.725736901241184" lon="8.635255283522437"><ele>204.0</ele><time>2026-04-11T07:59:52Z</time></trkpt><trkpt lat="45.72572096487024" lon="8.635162919115714"><ele>204.0</ele><time>2026-04-11T07:59:53Z</time></trkpt><trkpt lat="45.725727898223" lon="8.635058142831218"><ele>204.0</ele><time>2026-04-11T07:59:54Z</time></trkpt><trkpt lat="45.7257383570743" lon="8.63494668176872"><ele>204.0</ele><time>2026-04-11T07:59:54.999Z</time></trkpt><trkpt lat="45.72572877956337" lon="8.634841077701397"><ele>204.0</ele><time>2026-04-11T07:59:55.999Z</time></trkpt><trkpt lat="45.72572469248312" lon="8.634740212001127"><ele>204.0</ele><time>2026-04-11T07:59:56.999Z</time></trkpt><trkpt lat="45.72572856004417" lon="8.634643811053532"><ele>204.0</ele><time>2026-04-11T07:59:57.999Z</time></trkpt><trkpt lat="45.72571266562798" lon="8.634550423784491"><ele>204.0</ele><time>2026-04-11T07:59:58.999Z</time></trkpt><trkpt lat="45.72571624434331" lon="8.634453892285093"><ele>204.0</ele><time>2026-04-11T07:59:59.999Z</time></trkpt><trkpt lat="45.72571573361509" lon="8.634360231841471"><ele>204.0</ele><time>2026-04-11T08:00:00.999Z</time></trkpt><trkpt lat="45.72569364625825" lon="8.6342682776075"><ele>204.0</ele><time>2026-04-11T08:00:01.999Z</time></trkpt><trkpt lat="45.72567046262808" lon="8.63417460812691"><ele>204.39999999999998</ele><time>2026-04-11T08:00:02.999Z</time></trkpt><trkpt lat="45.7256488977102" lon="8.634088818402285"><ele>204.8</ele><time>2026-04-11T08:00:03.999Z</time></trkpt><trkpt lat="45.72562465859412" lon="8.633927963392875"><ele>205.2</ele><time>2026-04-11T08:00:05.999Z</time></trkpt><trkpt lat="45.72559872933662" lon="8.633786763156285"><ele>205.60000000000002</ele><time>2026-04-11T08:00:07.999Z</time></trkpt><trkpt lat="45.72557381709054" lon="8.633662880780319"><ele>206.0</ele><time>2026-04-11T08:00:09.999Z</time></trkpt><trkpt lat="45.725561072110345" lon="8.633526997345976"><ele>206.20000000000002</ele><time>2026-04-11T08:00:11.999Z</time></trkpt><trkpt lat="45.72553594920784" lon="8.633377435441973"><ele>206.4</ele><time>2026-04-11T08:00:13.999Z</time></trkpt><trkpt lat="45.725566232007466" lon="8.63321753321622"><ele>206.6</ele><time>2026-04-11T08:00:15.999Z</time></trkpt><trkpt lat="45.72553944809333" lon="8.633105005621378"><ele>206.8</ele><time>2026-04-11T08:00:17.999Z</time></trkpt><trkpt lat="45.72551731590124" lon="8.63298146196897"><ele>207.0</ele><time>2026-04-11T08:00:20.999Z</time></trkpt><trkpt lat="45.725491861342924" lon="8.632897100734855"><ele>206.39999999999998</ele><time>2026-04-11T08:00:23.999Z</time></trkpt><trkpt lat="45.72548496911661" lon="8.632790121535972"><ele>205.79999999999998</ele><time>2026-04-11T08:00:27.999Z</time></trkpt><trkpt lat="45.72545908068626" lon="8.632671531129299"><ele>205.2</ele><time>2026-04-11T08:00:31.999Z</time></trkpt><trkpt lat="45.725455469262236" lon="8.632518069086608"><ele>204.6</ele><time>2026-04-11T08:00:33.999Z</time></trkpt><trkpt lat="45.72546081363341" lon="8.632319145771135"><ele>204.0</ele><time>2026-04-11T08:00:35.999Z</time></trkpt><trkpt lat="45.72538545675727" lon="8.632169671866457"><ele>204.0</ele><time>2026-04-11T08:00:37.999Z</time></trkpt><trkpt lat="45.725328655029486" lon="8.632108354729944"><ele>204.0</ele><time>2026-04-11T08:00:38.999Z</time></trkpt><trkpt lat="45.72528434237177" lon="8.632030964973119"><ele>204.0</ele><time>2026-04-11T08:00:39.999Z</time></trkpt><trkpt lat="45.725263072720246" lon="8.631936713986835"><ele>204.0</ele><time>2026-04-11T08:00:40.999Z</time></trkpt><trkpt lat="45.72523701708961" lon="8.631844318996203"><ele>204.0</ele><time>2026-04-11T08:00:41.999Z</time></trkpt><trkpt lat="45.72521057445651" lon="8.631754613076305"><ele>204.0</ele><time>2026-04-11T08:00:42.999Z</time></trkpt><trkpt lat="45.725183156036344" lon="8.63165141560205"><ele>204.0</ele><time>2026-04-11T08:00:43.999Z</time></trkpt><trkpt lat="45.725172765175316" lon="8.631546787199301"><ele>203.79999999999998</ele><time>2026-04-11T08:00:44.999Z</time></trkpt><trkpt lat="45.72512214558329" lon="8.631356420835873"><ele>203.6</ele><time>2026-04-11T08:00:47.999Z</time></trkpt><trkpt lat="45.72509635443809" lon="8.631263548377483"><ele>203.4</ele><time>2026-04-11T08:00:49.999Z</time></trkpt><trkpt lat="45.725063280029744" lon="8.63113888226247"><ele>203.2</ele><time>2026-04-11T08:00:52.999Z</time></trkpt><trkpt lat="45.72502494201575" lon="8.63104406540413"><ele>203.0</ele><time>2026-04-11T08:00:54.999Z</time></trkpt><trkpt lat="45.7249755155549" lon="8.630890877051518"><ele>203.00000000000003</ele><time>2026-04-11T08:00:56.999Z</time></trkpt><trkpt lat="45.72494016842859" lon="8.630728131732624"><ele>203.0</ele><time>2026-04-11T08:00:58.999Z</time></trkpt><trkpt lat="45.72491682475331" lon="8.63064302017555"><ele>203.0</ele><time>2026-04-11T08:00:59.999Z</time></trkpt><trkpt lat="45.72489166036791" lon="8.630549044044658"><ele>203.0</ele><time>2026-04-11T08:01:00.999Z</time></trkpt><trkpt lat="45.72486284817164" lon="8.63045794796592"><ele>203.00000000000003</ele><time>2026-04-11T08:01:01.999Z</time></trkpt><trkpt lat="45.724840030224144" lon="8.630367738884607"><ele>203.0</ele><time>2026-04-11T08:01:02.999Z</time></trkpt><trkpt lat="45.72481874145748" lon="8.63028046193529"><ele>203.8</ele><time>2026-04-11T08:01:03.999Z</time></trkpt><trkpt lat="45.72479099133918" lon="8.63015623228103"><ele>204.60000000000002</ele><time>2026-04-11T08:01:05.999Z</time></trkpt><trkpt lat="45.72481175237717" lon="8.630018419184902"><ele>205.39999999999998</ele><time>2026-04-11T08:01:07.999Z</time></trkpt><trkpt lat="45.72481607734236" lon="8.62986836448112"><ele>206.2</ele><time>2026-04-11T08:01:09.999Z</time></trkpt><trkpt lat="45.724751316360184" lon="8.629725477831474"><ele>207.0</ele><time>2026-04-11T08:01:11.999Z</time></trkpt><trkpt lat="45.72470303124465" lon="8.629640323815307"><ele>207.0</ele><time>2026-04-11T08:01:12.999Z</time></trkpt><trkpt lat="45.72466053747276" lon="8.629529962271235"><ele>207.0</ele><time>2026-04-11T08:01:13.999Z</time></trkpt><trkpt lat="45.72462232253089" lon="8.629402721433483"><ele>207.0</ele><time>2026-04-11T08:01:14.999Z</time></trkpt><trkpt lat="45.72458883860851" lon="8.62927280499259"><ele>207.0</ele><time>2026-04-11T08:01:15.999Z</time></trkpt><trkpt lat="45.72456403233336" lon="8.629132721586203"><ele>207.0</ele><time>2026-04-11T08:01:16.999Z</time></trkpt><trkpt lat="45.72452337129829" lon="8.628995128967926"><ele>207.2</ele><time>2026-04-11T08:01:17.999Z</time></trkpt><trkpt lat="45.72447626323348" lon="8.628856059119272"><ele>207.39999999999998</ele><time>2026-04-11T08:01:18.999Z</time></trkpt><trkpt lat="45.72443278252863" lon="8.628713236805213"><ele>207.60000000000002</ele><time>2026-04-11T08:01:19.999Z</time></trkpt><trkpt lat="45.72439383239674" lon="8.628569014076785"><ele>207.8</ele><time>2026-04-11T08:01:20.999Z</time></trkpt><trkpt lat="45.72435068581916" lon="8.628428530830114"><ele>208.0</ele><time>2026-04-11T08:01:21.999Z</time></trkpt><trkpt lat="45.724309403202966" lon="8.628289892821302"><ele>207.2</ele><time>2026-04-11T08:01:22.999Z</time></trkpt><trkpt lat="45.72425772823335" lon="8.628166161232988"><ele>206.4</ele><time>2026-04-11T08:01:23.999Z</time></trkpt><trkpt lat="45.72418765933585" lon="8.628062279189562"><ele>205.6</ele><time>2026-04-11T08:01:24.999Z</time></trkpt><trkpt lat="45.724144200745606" lon="8.627943036497104"><ele>204.79999999999998</ele><time>2026-04-11T08:01:25.999Z</time></trkpt><trkpt lat="45.72408911691262" lon="8.627780867206852"><ele>204.0</ele><time>2026-04-11T08:01:26.999Z</time></trkpt><trkpt lat="45.724002940091566" lon="8.62767402336082"><ele>203.5</ele><time>2026-04-11T08:01:27.999Z</time></trkpt><trkpt lat="45.723898452646125" lon="8.627598455950736"><ele>203.0</ele><time>2026-04-11T08:01:28.999Z</time></trkpt><trkpt lat="45.72380015740152" lon="8.627563405968903"><ele>202.5</ele><time>2026-04-11T08:01:29.999Z</time></trkpt><trkpt lat="45.72370641119678" lon="8.627536051733195"><ele>202.0</ele><time>2026-04-11T08:01:30.999Z</time></trkpt><trkpt lat="45.72357318995802" lon="8.627500132336904"><ele>201.0</ele><time>2026-04-11T08:01:31.999Z</time></trkpt><trkpt lat="45.72346897414574" lon="8.627472753457386"><ele>200.0</ele><time>2026-04-11T08:01:32.999Z</time></trkpt><trkpt lat="45.72336064671608" lon="8.627443981220623"><ele>199.0</ele><time>2026-04-11T08:01:33.999Z</time></trkpt><trkpt lat="45.72325481344839" lon="8.627415642745826"><ele>198.0</ele><time>2026-04-11T08:01:34.999Z</time></trkpt><trkpt lat="45.723149924985755" lon="8.627387557294767"><ele>197.0</ele><time>2026-04-11T08:01:35.999Z</time></trkpt><trkpt lat="45.72304720331684" lon="8.627360051932905"><ele>197.0</ele><time>2026-04-11T08:01:36.999Z</time></trkpt><trkpt lat="45.72294886103553" lon="8.627333719302579"><ele>197.0</ele><time>2026-04-11T08:01:37.999Z</time></trkpt><trkpt lat="45.7228525894492" lon="8.627307941107945"><ele>197.0</ele><time>2026-04-11T08:01:38.999Z</time></trkpt><trkpt lat="45.72275241588432" lon="8.627304572265214"><ele>197.0</ele><time>2026-04-11T08:01:39.999Z</time></trkpt><trkpt lat="45.722655545721494" lon="8.627277251612371"><ele>197.0</ele><time>2026-04-11T08:01:40.999Z</time></trkpt><trkpt lat="45.72255005642263" lon="8.627249327729201"><ele>195.5</ele><time>2026-04-11T08:01:41.999Z</time></trkpt><trkpt lat="45.72243690285987" lon="8.627217386172893"><ele>194.0</ele><time>2026-04-11T08:01:42.999Z</time></trkpt><trkpt lat="45.72232597089674" lon="8.627190384767886"><ele>192.5</ele><time>2026-04-11T08:01:43.999Z</time></trkpt><trkpt lat="45.72221468982151" lon="8.627161696909663"><ele>191.0</ele><time>2026-04-11T08:01:44.999Z</time></trkpt><trkpt lat="45.72210331799137" lon="8.627129609380363"><ele>191.0</ele><time>2026-04-11T08:01:45.999Z</time></trkpt><trkpt lat="45.72199208242659" lon="8.627099268606177"><ele>191.0</ele><time>2026-04-11T08:01:46.999Z</time></trkpt><trkpt lat="45.72188234572282" lon="8.627049500556467"><ele>191.0</ele><time>2026-04-11T08:01:47.999Z</time></trkpt><trkpt lat="45.72176852105745" lon="8.62701898301921"><ele>191.0</ele><time>2026-04-11T08:01:48.999Z</time></trkpt><trkpt lat="45.72165756545826" lon="8.626989236617808"><ele>192.4</ele><time>2026-04-11T08:01:49.999Z</time></trkpt><trkpt lat="45.721544949169854" lon="8.626959823950575"><ele>193.8</ele><time>2026-04-11T08:01:50.999Z</time></trkpt><trkpt lat="45.72142874599426" lon="8.62692739076604"><ele>195.20000000000002</ele><time>2026-04-11T08:01:51.999Z</time></trkpt><trkpt lat="45.72133857141226" lon="8.626894215726502"><ele>196.60000000000002</ele><time>2026-04-11T08:01:52.999Z</time></trkpt><trkpt lat="45.721248046005144" lon="8.626805808722255"><ele>198.0</ele><time>2026-04-11T08:01:53.999Z</time></trkpt><trkpt lat="45.72116495679746" lon="8.6267073339377"><ele>198.0</ele><time>2026-04-11T08:01:54.999Z</time></trkpt><trkpt lat="45.72107538855513" lon="8.626611359119003"><ele>198.0</ele><time>2026-04-11T08:01:55.999Z</time></trkpt><trkpt lat="45.720984557433106" lon="8.626543103883046"><ele>198.0</ele><time>2026-04-11T08:01:57Z</time></trkpt><trkpt lat="45.72089318911754" lon="8.62648618981444"><ele>198.0</ele><time>2026-04-11T08:01:58Z</time></trkpt><trkpt lat="45.72080634395711" lon="8.6264336873081"><ele>198.0</ele><time>2026-04-11T08:01:59Z</time></trkpt><trkpt lat="45.720722646937105" lon="8.626381948418143"><ele>199.16666666666666</ele><time>2026-04-11T08:02:00Z</time></trkpt><trkpt lat="45.72064609794306" lon="8.626333495553853"><ele>200.33333333333331</ele><time>2026-04-11T08:02:01Z</time></trkpt><trkpt lat="45.72057933359556" lon="8.62628800544741"><ele>201.5</ele><time>2026-04-11T08:02:02Z</time></trkpt><trkpt lat="45.720513126938556" lon="8.626259502505658"><ele>202.66666666666666</ele><time>2026-04-11T08:02:03Z</time></trkpt><trkpt lat="45.720454588793764" lon="8.626204932476936"><ele>203.83333333333331</ele><time>2026-04-11T08:02:04Z</time></trkpt><trkpt lat="45.72039237672822" lon="8.626146578549841"><ele>205.0</ele><time>2026-04-11T08:02:05Z</time></trkpt><trkpt lat="45.72032195376816" lon="8.626080852221017"><ele>205.14285714285714</ele><time>2026-04-11T08:02:06Z</time></trkpt><trkpt lat="45.720249897232556" lon="8.626024647555365"><ele>205.28571428571428</ele><time>2026-04-11T08:02:07Z</time></trkpt><trkpt lat="45.72019558742672" lon="8.625965498275752"><ele>205.42857142857142</ele><time>2026-04-11T08:02:08Z</time></trkpt><trkpt lat="45.72014182537991" lon="8.625913768441656"><ele>205.57142857142856</ele><time>2026-04-11T08:02:09Z</time></trkpt><trkpt lat="45.72009632147284" lon="8.625831565293561"><ele>205.71428571428572</ele><time>2026-04-11T08:02:10Z</time></trkpt><trkpt lat="45.72003411675371" lon="8.625756256767685"><ele>205.85714285714283</ele><time>2026-04-11T08:02:11Z</time></trkpt><trkpt lat="45.719992002066796" lon="8.625682319780369"><ele>206.0</ele><time>2026-04-11T08:02:12Z</time></trkpt><trkpt lat="45.71996731026731" lon="8.625560040526269"><ele>206.0</ele><time>2026-04-11T08:02:13Z</time></trkpt><trkpt lat="45.719953226325245" lon="8.62539399035709"><ele>206.0</ele><time>2026-04-11T08:02:14Z</time></trkpt><trkpt lat="45.71993205024131" lon="8.62520346924594"><ele>206.0</ele><time>2026-04-11T08:02:15Z</time></trkpt><trkpt lat="45.71991780445674" lon="8.625000178058778"><ele>206.0</ele><time>2026-04-11T08:02:16Z</time></trkpt><trkpt lat="45.71991106867836" lon="8.624801474140533"><ele>206.75</ele><time>2026-04-11T08:02:17Z</time></trkpt><trkpt lat="45.71990493021318" lon="8.6246011798992"><ele>207.5</ele><time>2026-04-11T08:02:18Z</time></trkpt><trkpt lat="45.71989858802544" lon="8.624396785048297"><ele>208.25</ele><time>2026-04-11T08:02:19Z</time></trkpt><trkpt lat="45.71989296240766" lon="8.624191106603957"><ele>209.0</ele><time>2026-04-11T08:02:20Z</time></trkpt><trkpt lat="45.7198888606085" lon="8.623990979790447"><ele>209.25</ele><time>2026-04-11T08:02:21Z</time></trkpt><trkpt lat="45.71988508293462" lon="8.62379533172768"><ele>209.5</ele><time>2026-04-11T08:02:22Z</time></trkpt><trkpt lat="45.719859015959386" lon="8.623573618408312"><ele>209.75</ele><time>2026-04-11T08:02:23Z</time></trkpt><trkpt lat="45.71984822297808" lon="8.62337300665533"><ele>210.0</ele><time>2026-04-11T08:02:24Z</time></trkpt><trkpt lat="45.719850620710744" lon="8.623174701490257"><ele>210.0</ele><time>2026-04-11T08:02:25Z</time></trkpt><trkpt lat="45.7198472124115" lon="8.62297704102514"><ele>210.0</ele><time>2026-04-11T08:02:26Z</time></trkpt><trkpt lat="45.719845576675546" lon="8.622775948559347"><ele>210.0</ele><time>2026-04-11T08:02:27Z</time></trkpt><trkpt lat="45.719845602726146" lon="8.622565904443716"><ele>210.0</ele><time>2026-04-11T08:02:28Z</time></trkpt><trkpt lat="45.71985038926974" lon="8.622356925669008"><ele>210.0</ele><time>2026-04-11T08:02:29Z</time></trkpt><trkpt lat="45.719853880344935" lon="8.622146906904627"><ele>210.0</ele><time>2026-04-11T08:02:30Z</time></trkpt><trkpt lat="45.719868099424595" lon="8.621935599302363"><ele>210.0</ele><time>2026-04-11T08:02:31Z</time></trkpt><trkpt lat="45.71987224003272" lon="8.621726377106064"><ele>210.0</ele><time>2026-04-11T08:02:32Z</time></trkpt><trkpt lat="45.71986960348539" lon="8.62151740444475"><ele>209.66666666666669</ele><time>2026-04-11T08:02:33Z</time></trkpt><trkpt lat="45.71987517796997" lon="8.621301739274767"><ele>209.33333333333334</ele><time>2026-04-11T08:02:34Z</time></trkpt><trkpt lat="45.71987942696127" lon="8.621085797589354"><ele>209.0</ele><time>2026-04-11T08:02:35Z</time></trkpt><trkpt lat="45.71986012473981" lon="8.620871703640349"><ele>209.0</ele><time>2026-04-11T08:02:36Z</time></trkpt><trkpt lat="45.719782253137446" lon="8.620635372514156"><ele>209.0</ele><time>2026-04-11T08:02:37Z</time></trkpt><trkpt lat="45.719778486811876" lon="8.620416546667355"><ele>209.0</ele><time>2026-04-11T08:02:38Z</time></trkpt><trkpt lat="45.719782129202905" lon="8.620199022055358"><ele>209.0</ele><time>2026-04-11T08:02:39Z</time></trkpt><trkpt lat="45.7197803515625" lon="8.619989811436795"><ele>209.0</ele><time>2026-04-11T08:02:40Z</time></trkpt><trkpt lat="45.71978560979516" lon="8.61978864710936"><ele>209.0</ele><time>2026-04-11T08:02:41Z</time></trkpt><trkpt lat="45.71979300308189" lon="8.619594003878522"><ele>209.0</ele><time>2026-04-11T08:02:42Z</time></trkpt><trkpt lat="45.719802497477914" lon="8.61940531906534"><ele>209.0</ele><time>2026-04-11T08:02:43Z</time></trkpt><trkpt lat="45.71981381121142" lon="8.619220149774693"><ele>209.0</ele><time>2026-04-11T08:02:44Z</time></trkpt><trkpt lat="45.71981563908147" lon="8.61903952363161"><ele>209.0</ele><time>2026-04-11T08:02:45Z</time></trkpt><trkpt lat="45.71981150991066" lon="8.618863898486687"><ele>209.0</ele><time>2026-04-11T08:02:46Z</time></trkpt><trkpt lat="45.71981933822489" lon="8.618691944080362"><ele>209.2</ele><time>2026-04-11T08:02:47Z</time></trkpt><trkpt lat="45.7198247000095" lon="8.618522187666478"><ele>209.39999999999998</ele><time>2026-04-11T08:02:48Z</time></trkpt><trkpt lat="45.719827424510854" lon="8.618368857791607"><ele>209.6</ele><time>2026-04-11T08:02:49Z</time></trkpt><trkpt lat="45.71983324460729" lon="8.61824429151369"><ele>209.8</ele><time>2026-04-11T08:02:50Z</time></trkpt><trkpt lat="45.719807135088296" lon="8.618114643579945"><ele>210.0</ele><time>2026-04-11T08:02:52Z</time></trkpt><trkpt lat="45.71980352859178" lon="8.618000999254903"><ele>210.0</ele><time>2026-04-11T08:02:56Z</time></trkpt><trkpt lat="45.71979937183357" lon="8.617870015742636"><ele>210.0</ele><time>2026-04-11T08:02:58Z</time></trkpt><trkpt lat="45.71979609624918" lon="8.61776679820406"><ele>210.0</ele><time>2026-04-11T08:02:59Z</time></trkpt><trkpt lat="45.719792038762975" lon="8.617659866833488"><ele>210.0</ele><time>2026-04-11T08:03:00Z</time></trkpt><trkpt lat="45.71978771518636" lon="8.617544262842031"><ele>210.0</ele><time>2026-04-11T08:03:01Z</time></trkpt><trkpt lat="45.7197841433869" lon="8.617427381786223"><ele>210.0</ele><time>2026-04-11T08:03:02Z</time></trkpt><trkpt lat="45.71978074159971" lon="8.617316064662212"><ele>210.0</ele><time>2026-04-11T08:03:03Z</time></trkpt><trkpt lat="45.719777633167006" lon="8.617214346361727"><ele>210.0</ele><time>2026-04-11T08:03:04Z</time></trkpt><trkpt lat="45.71977352776618" lon="8.617118966387542"><ele>210.0</ele><time>2026-04-11T08:03:05Z</time></trkpt><trkpt lat="45.71976440376478" lon="8.617020020211129"><ele>210.0</ele><time>2026-04-11T08:03:06Z</time></trkpt><trkpt lat="45.719754794720224" lon="8.616913838981509"><ele>210.0</ele><time>2026-04-11T08:03:07Z</time></trkpt><trkpt lat="45.71975237255311" lon="8.616804967710786"><ele>210.0</ele><time>2026-04-11T08:03:08Z</time></trkpt><trkpt lat="45.719749764486856" lon="8.616687740904943"><ele>210.0</ele><time>2026-04-11T08:03:09Z</time></trkpt><trkpt lat="45.719746859481006" lon="8.616557167137204"><ele>209.75</ele><time>2026-04-11T08:03:10Z</time></trkpt><trkpt lat="45.719814893121374" lon="8.616409406080553"><ele>209.5</ele><time>2026-04-11T08:03:11Z</time></trkpt><trkpt lat="45.719826601348764" lon="8.616254138104228"><ele>209.25</ele><time>2026-04-11T08:03:12Z</time></trkpt><trkpt lat="45.71982711249175" lon="8.616091122833119"><ele>209.0</ele><time>2026-04-11T08:03:13Z</time></trkpt><trkpt lat="45.7198321332925" lon="8.615921100096013"><ele>209.25</ele><time>2026-04-11T08:03:14Z</time></trkpt><trkpt lat="45.71982753607175" lon="8.615749625319857"><ele>209.5</ele><time>2026-04-11T08:03:15Z</time></trkpt><trkpt lat="45.71982291168953" lon="8.61557598145493"><ele>209.75</ele><time>2026-04-11T08:03:16Z</time></trkpt><trkpt lat="45.719828531111354" lon="8.615401580465283"><ele>210.0</ele><time>2026-04-11T08:03:17Z</time></trkpt><trkpt lat="45.719831165609" lon="8.615227475951125"><ele>210.0</ele><time>2026-04-11T08:03:18Z</time></trkpt><trkpt lat="45.719837270240454" lon="8.615051700428777"><ele>210.0</ele><time>2026-04-11T08:03:19Z</time></trkpt><trkpt lat="45.71982720278083" lon="8.614875146435539"><ele>210.0</ele><time>2026-04-11T08:03:20Z</time></trkpt><trkpt lat="45.71980271006069" lon="8.614519273946533"><ele>209.75</ele><time>2026-04-11T08:03:22Z</time></trkpt><trkpt lat="45.71979517041834" lon="8.614341325180913"><ele>209.5</ele><time>2026-04-11T08:03:23Z</time></trkpt><trkpt lat="45.719729093789454" lon="8.614169089071131"><ele>209.25</ele><time>2026-04-11T08:03:24Z</time></trkpt><trkpt lat="45.71972585447445" lon="8.613991819745644"><ele>209.0</ele><time>2026-04-11T08:03:25Z</time></trkpt><trkpt lat="45.71972232027487" lon="8.613822741859838"><ele>209.0</ele><time>2026-04-11T08:03:26Z</time></trkpt><trkpt lat="45.71971872345022" lon="8.613664639916452"><ele>209.0</ele><time>2026-04-11T08:03:27Z</time></trkpt><trkpt lat="45.71971524760528" lon="8.61351358441705"><ele>209.0</ele><time>2026-04-11T08:03:28Z</time></trkpt><trkpt lat="45.71971219312019" lon="8.613369933227547"><ele>209.0</ele><time>2026-04-11T08:03:29Z</time></trkpt><trkpt lat="45.719709244409394" lon="8.613236947495258"><ele>209.0</ele><time>2026-04-11T08:03:30Z</time></trkpt><trkpt lat="45.71970618502135" lon="8.613110964587813"><ele>209.0</ele><time>2026-04-11T08:03:31Z</time></trkpt><trkpt lat="45.719703323933715" lon="8.612993147544938"><ele>209.0</ele><time>2026-04-11T08:03:32Z</time></trkpt><trkpt lat="45.71970237717852" lon="8.612889362525744"><ele>209.0</ele><time>2026-04-11T08:03:33Z</time></trkpt><trkpt lat="45.719699468297755" lon="8.612714770979744"><ele>209.0</ele><time>2026-04-11T08:03:35Z</time></trkpt><trkpt lat="45.71971545863009" lon="8.612575442177418"><ele>209.0</ele><time>2026-04-11T08:03:37Z</time></trkpt><trkpt lat="45.719827270727116" lon="8.612445887880376"><ele>209.0</ele><time>2026-04-11T08:03:39Z</time></trkpt><trkpt lat="45.71989464355676" lon="8.612335226583307"><ele>209.0</ele><time>2026-04-11T08:03:41Z</time></trkpt><trkpt lat="45.719939736036864" lon="8.612207387879884"><ele>209.0</ele><time>2026-04-11T08:03:43Z</time></trkpt><trkpt lat="45.71992840534776" lon="8.612068397093717"><ele>209.0</ele><time>2026-04-11T08:03:45Z</time></trkpt><trkpt lat="45.71986037757498" lon="8.61194311763004"><ele>209.0</ele><time>2026-04-11T08:03:47Z</time></trkpt><trkpt lat="45.71975121574888" lon="8.611824124081869"><ele>209.0</ele><time>2026-04-11T08:03:49Z</time></trkpt><trkpt lat="45.71972750826944" lon="8.61172190354585"><ele>209.0</ele><time>2026-04-11T08:03:50Z</time></trkpt><trkpt lat="45.719729422806914" lon="8.611594853852912"><ele>209.0</ele><time>2026-04-11T08:03:51Z</time></trkpt><trkpt lat="45.71973000196105" lon="8.6114437477924"><ele>209.0</ele><time>2026-04-11T08:03:52Z</time></trkpt><trkpt lat="45.71973743282419" lon="8.611270706759859"><ele>209.0</ele><time>2026-04-11T08:03:53Z</time></trkpt><trkpt lat="45.71966951865132" lon="8.61109467669446"><ele>209.0</ele><time>2026-04-11T08:03:54Z</time></trkpt><trkpt lat="45.71973607929591" lon="8.610909530042393"><ele>209.0</ele><time>2026-04-11T08:03:55Z</time></trkpt><trkpt lat="45.719734189634465" lon="8.610725122980245"><ele>209.0</ele><time>2026-04-11T08:03:56Z</time></trkpt><trkpt lat="45.71973659874062" lon="8.610541262862357"><ele>209.0</ele><time>2026-04-11T08:03:57Z</time></trkpt><trkpt lat="45.719730395556084" lon="8.610358133158256"><ele>208.75</ele><time>2026-04-11T08:03:58Z</time></trkpt><trkpt lat="45.71972651254101" lon="8.610171110435521"><ele>208.5</ele><time>2026-04-11T08:03:59Z</time></trkpt><trkpt lat="45.719716573750446" lon="8.609979920346875"><ele>208.25</ele><time>2026-04-11T08:04:00Z</time></trkpt><trkpt lat="45.71971144883585" lon="8.609784694193923"><ele>208.0</ele><time>2026-04-11T08:04:01Z</time></trkpt><trkpt lat="45.71970848352207" lon="8.609586374687268"><ele>208.5</ele><time>2026-04-11T08:04:02Z</time></trkpt><trkpt lat="45.71970593126689" lon="8.609383299650183"><ele>209.0</ele><time>2026-04-11T08:04:03Z</time></trkpt><trkpt lat="45.719700814858655" lon="8.609186241408677"><ele>209.5</ele><time>2026-04-11T08:04:04Z</time></trkpt><trkpt lat="45.71970429094854" lon="8.609014850706938"><ele>210.0</ele><time>2026-04-11T08:04:05Z</time></trkpt><trkpt lat="45.71973460214824" lon="8.608877843810554"><ele>210.0</ele><time>2026-04-11T08:04:06Z</time></trkpt><trkpt lat="45.71971932781088" lon="8.60874834817645"><ele>210.0</ele><time>2026-04-11T08:04:07Z</time></trkpt><trkpt lat="45.71971631601088" lon="8.608628157182883"><ele>210.0</ele><time>2026-04-11T08:04:08Z</time></trkpt><trkpt lat="45.71970979672013" lon="8.60851336000846"><ele>210.0</ele><time>2026-04-11T08:04:09Z</time></trkpt><trkpt lat="45.71970344471908" lon="8.608396075028049"><ele>210.0</ele><time>2026-04-11T08:04:10Z</time></trkpt><trkpt lat="45.71969622844622" lon="8.608274967431282"><ele>210.0</ele><time>2026-04-11T08:04:11Z</time></trkpt><trkpt lat="45.71968108072704" lon="8.608156286157483"><ele>210.6</ele><time>2026-04-11T08:04:12Z</time></trkpt><trkpt lat="45.719672188107914" lon="8.608023758168434"><ele>211.2</ele><time>2026-04-11T08:04:13Z</time></trkpt><trkpt lat="45.71967742954592" lon="8.607875245731146"><ele>211.8</ele><time>2026-04-11T08:04:14Z</time></trkpt><trkpt lat="45.71967664780302" lon="8.607715271919801"><ele>212.4</ele><time>2026-04-11T08:04:15Z</time></trkpt><trkpt lat="45.719674993482904" lon="8.607548697464823"><ele>213.0</ele><time>2026-04-11T08:04:16Z</time></trkpt><trkpt lat="45.719659604801535" lon="8.607379091890103"><ele>213.25</ele><time>2026-04-11T08:04:17Z</time></trkpt><trkpt lat="45.71965172467593" lon="8.607204472034509"><ele>213.5</ele><time>2026-04-11T08:04:18Z</time></trkpt><trkpt lat="45.71964781138717" lon="8.607019967308952"><ele>213.75</ele><time>2026-04-11T08:04:19Z</time></trkpt><trkpt lat="45.71964954177102" lon="8.606830357552317"><ele>214.0</ele><time>2026-04-11T08:04:20Z</time></trkpt><trkpt lat="45.71965115984945" lon="8.606636408174628"><ele>213.5</ele><time>2026-04-11T08:04:21Z</time></trkpt><trkpt lat="45.71965094099412" lon="8.606442240954834"><ele>213.0</ele><time>2026-04-11T08:04:21.999Z</time></trkpt><trkpt lat="45.71965254762335" lon="8.606244892648046"><ele>212.5</ele><time>2026-04-11T08:04:22.999Z</time></trkpt><trkpt lat="45.719653532825326" lon="8.60604376434449"><ele>212.0</ele><time>2026-04-11T08:04:23.999Z</time></trkpt><trkpt lat="45.719655437178965" lon="8.605843037387558"><ele>212.0</ele><time>2026-04-11T08:04:24.999Z</time></trkpt><trkpt lat="45.719643558481" lon="8.605640938693032"><ele>212.0</ele><time>2026-04-11T08:04:25.999Z</time></trkpt><trkpt lat="45.71963798502652" lon="8.605438381950439"><ele>212.0</ele><time>2026-04-11T08:04:26.999Z</time></trkpt><trkpt lat="45.7196221359005" lon="8.605239887204684"><ele>212.0</ele><time>2026-04-11T08:04:27.999Z</time></trkpt><trkpt lat="45.71961699946298" lon="8.60504581052835"><ele>211.75</ele><time>2026-04-11T08:04:28.999Z</time></trkpt><trkpt lat="45.719613891857556" lon="8.60485780990848"><ele>211.5</ele><time>2026-04-11T08:04:29.999Z</time></trkpt><trkpt lat="45.71960368426853" lon="8.604666931688095"><ele>211.25</ele><time>2026-04-11T08:04:30.999Z</time></trkpt><trkpt lat="45.71960057474909" lon="8.604480145118854"><ele>211.0</ele><time>2026-04-11T08:04:31.999Z</time></trkpt><trkpt lat="45.71959571876641" lon="8.604308716640258"><ele>210.25</ele><time>2026-04-11T08:04:32.999Z</time></trkpt><trkpt lat="45.71959837332208" lon="8.604127540059192"><ele>209.5</ele><time>2026-04-11T08:04:33.999Z</time></trkpt><trkpt lat="45.71952953345773" lon="8.603965079815385"><ele>208.75</ele><time>2026-04-11T08:04:34.999Z</time></trkpt><trkpt lat="45.719532085688854" lon="8.60381243841681"><ele>208.0</ele><time>2026-04-11T08:04:35.999Z</time></trkpt><trkpt lat="45.71954283386162" lon="8.603645676949514"><ele>207.75</ele><time>2026-04-11T08:04:36.999Z</time></trkpt><trkpt lat="45.71961153659192" lon="8.603453675195977"><ele>207.5</ele><time>2026-04-11T08:04:37.999Z</time></trkpt><trkpt lat="45.719687999757575" lon="8.603350599772183"><ele>207.25</ele><time>2026-04-11T08:04:39.999Z</time></trkpt><trkpt lat="45.71970705065942" lon="8.603167371706164"><ele>207.0</ele><time>2026-04-11T08:04:41.999Z</time></trkpt><trkpt lat="45.7196439690868" lon="8.60310688140131"><ele>207.0</ele><time>2026-04-11T08:04:42.999Z</time></trkpt><trkpt lat="45.719581903794314" lon="8.60304015604878"><ele>207.0</ele><time>2026-04-11T08:04:43.999Z</time></trkpt><trkpt lat="45.71951692999816" lon="8.602929251272517"><ele>207.0</ele><time>2026-04-11T08:04:44.999Z</time></trkpt><trkpt lat="45.7194666898909" lon="8.602818643482381"><ele>207.0</ele><time>2026-04-11T08:04:45.999Z</time></trkpt><trkpt lat="45.71943242470966" lon="8.60268578013256"><ele>207.0</ele><time>2026-04-11T08:04:46.999Z</time></trkpt><trkpt lat="45.71940883508019" lon="8.602546501214162"><ele>207.0</ele><time>2026-04-11T08:04:47.999Z</time></trkpt><trkpt lat="45.7193969299274" lon="8.602412709526087"><ele>207.0</ele><time>2026-04-11T08:04:48.999Z</time></trkpt><trkpt lat="45.71939405933523" lon="8.602259349103464"><ele>207.0</ele><time>2026-04-11T08:04:49.999Z</time></trkpt><trkpt lat="45.71940427800098" lon="8.602084341844556"><ele>207.0</ele><time>2026-04-11T08:04:50.999Z</time></trkpt><trkpt lat="45.719401197554525" lon="8.601891670254874"><ele>206.5</ele><time>2026-04-11T08:04:51.999Z</time></trkpt><trkpt lat="45.719398285184425" lon="8.60170951001222"><ele>206.0</ele><time>2026-04-11T08:04:52.999Z</time></trkpt><trkpt lat="45.71939551408093" lon="8.601538050028232"><ele>205.5</ele><time>2026-04-11T08:04:53.999Z</time></trkpt><trkpt lat="45.71939252203902" lon="8.601368063035968"><ele>205.0</ele><time>2026-04-11T08:04:54.999Z</time></trkpt><trkpt lat="45.71937962405352" lon="8.601194130087338"><ele>204.5</ele><time>2026-04-11T08:04:55.999Z</time></trkpt><trkpt lat="45.71938171214788" lon="8.601018030873979"><ele>204.0</ele><time>2026-04-11T08:04:56.999Z</time></trkpt><trkpt lat="45.71937861323011" lon="8.600833869832059"><ele>203.5</ele><time>2026-04-11T08:04:57.999Z</time></trkpt><trkpt lat="45.719371899730376" lon="8.600645110307235"><ele>203.0</ele><time>2026-04-11T08:04:58.999Z</time></trkpt><trkpt lat="45.71936548499109" lon="8.600449244697549"><ele>202.25</ele><time>2026-04-11T08:04:59.999Z</time></trkpt><trkpt lat="45.71936443616564" lon="8.600254678661306"><ele>201.5</ele><time>2026-04-11T08:05:00.999Z</time></trkpt><trkpt lat="45.71936166042864" lon="8.600068524563438"><ele>200.75</ele><time>2026-04-11T08:05:01.999Z</time></trkpt><trkpt lat="45.71935637472005" lon="8.599888621897232"><ele>200.0</ele><time>2026-04-11T08:05:02.999Z</time></trkpt><trkpt lat="45.71935320519277" lon="8.599713196275628"><ele>200.0</ele><time>2026-04-11T08:05:03.999Z</time></trkpt><trkpt lat="45.71935364875525" lon="8.599543076475081"><ele>200.0</ele><time>2026-04-11T08:05:04.999Z</time></trkpt><trkpt lat="45.71935540631927" lon="8.599379568923954"><ele>200.0</ele><time>2026-04-11T08:05:05.999Z</time></trkpt><trkpt lat="45.71936151840253" lon="8.599216767549386"><ele>200.0</ele><time>2026-04-11T08:05:06.999Z</time></trkpt><trkpt lat="45.71936427543585" lon="8.599052984312886"><ele>200.25</ele><time>2026-04-11T08:05:07.999Z</time></trkpt><trkpt lat="45.71936418781867" lon="8.598887819310933"><ele>200.5</ele><time>2026-04-11T08:05:08.999Z</time></trkpt><trkpt lat="45.719359983934815" lon="8.598716901148345"><ele>200.75</ele><time>2026-04-11T08:05:09.999Z</time></trkpt><trkpt lat="45.71935911549509" lon="8.598540801091508"><ele>201.0</ele><time>2026-04-11T08:05:10.999Z</time></trkpt><trkpt lat="45.71935956601873" lon="8.598352168728274"><ele>201.25</ele><time>2026-04-11T08:05:11.999Z</time></trkpt><trkpt lat="45.71935240277983" lon="8.598152264672404"><ele>201.5</ele><time>2026-04-11T08:05:12.999Z</time></trkpt><trkpt lat="45.71934628341502" lon="8.597948226062606"><ele>201.75</ele><time>2026-04-11T08:05:13.999Z</time></trkpt><trkpt lat="45.71934401438084" lon="8.597742851148759"><ele>202.0</ele><time>2026-04-11T08:05:14.999Z</time></trkpt><trkpt lat="45.719342175954836" lon="8.597538070684758"><ele>202.25</ele><time>2026-04-11T08:05:15.999Z</time></trkpt><trkpt lat="45.71934315806062" lon="8.597332312436402"><ele>202.5</ele><time>2026-04-11T08:05:16.999Z</time></trkpt><trkpt lat="45.71935071360066" lon="8.597127996801886"><ele>202.75</ele><time>2026-04-11T08:05:17.999Z</time></trkpt><trkpt lat="45.719352685264006" lon="8.59692701101981"><ele>203.0</ele><time>2026-04-11T08:05:18.999Z</time></trkpt><trkpt lat="45.719361389796425" lon="8.596731731363757"><ele>203.0</ele><time>2026-04-11T08:05:19.999Z</time></trkpt><trkpt lat="45.719374035266995" lon="8.596537808126223"><ele>203.0</ele><time>2026-04-11T08:05:20.999Z</time></trkpt><trkpt lat="45.719384901133374" lon="8.596341396199337"><ele>203.0</ele><time>2026-04-11T08:05:21.999Z</time></trkpt><trkpt lat="45.71939907627032" lon="8.596136316231593"><ele>203.0</ele><time>2026-04-11T08:05:22.999Z</time></trkpt><trkpt lat="45.719408445850064" lon="8.595920705899685"><ele>203.66666666666669</ele><time>2026-04-11T08:05:23.999Z</time></trkpt><trkpt lat="45.71942098926118" lon="8.595696187591138"><ele>204.33333333333331</ele><time>2026-04-11T08:05:24.999Z</time></trkpt><trkpt lat="45.71944210419336" lon="8.595467480594962"><ele>205.0</ele><time>2026-04-11T08:05:25.999Z</time></trkpt><trkpt lat="45.71946050188928" lon="8.59523177171053"><ele>205.0</ele><time>2026-04-11T08:05:26.999Z</time></trkpt><trkpt lat="45.719478355273495" lon="8.595005041596565"><ele>205.0</ele><time>2026-04-11T08:05:27.999Z</time></trkpt><trkpt lat="45.719491815345556" lon="8.594775824501479"><ele>205.0</ele><time>2026-04-11T08:05:28.999Z</time></trkpt><trkpt lat="45.71951029689956" lon="8.594557622905997"><ele>204.75</ele><time>2026-04-11T08:05:29.999Z</time></trkpt><trkpt lat="45.71952541096221" lon="8.594348104702743"><ele>204.5</ele><time>2026-04-11T08:05:30.999Z</time></trkpt><trkpt lat="45.71955052969782" lon="8.594147686999648"><ele>204.25</ele><time>2026-04-11T08:05:31.999Z</time></trkpt><trkpt lat="45.719563091934305" lon="8.593941964259644"><ele>204.0</ele><time>2026-04-11T08:05:32.999Z</time></trkpt><trkpt lat="45.71956882133817" lon="8.593741192833933"><ele>204.25</ele><time>2026-04-11T08:05:33.999Z</time></trkpt><trkpt lat="45.71957782834938" lon="8.593567843673902"><ele>204.5</ele><time>2026-04-11T08:05:34.999Z</time></trkpt><trkpt lat="45.71960602699863" lon="8.593389944023592"><ele>204.75</ele><time>2026-04-11T08:05:35.999Z</time></trkpt><trkpt lat="45.71961425267837" lon="8.593222119411616"><ele>205.0</ele><time>2026-04-11T08:05:36.999Z</time></trkpt><trkpt lat="45.719621774979466" lon="8.59306421489287"><ele>205.0</ele><time>2026-04-11T08:05:37.999Z</time></trkpt><trkpt lat="45.71963309660046" lon="8.59288678122058"><ele>205.0</ele><time>2026-04-11T08:05:38.999Z</time></trkpt><trkpt lat="45.71964425568246" lon="8.592701348123699"><ele>205.0</ele><time>2026-04-11T08:05:39.999Z</time></trkpt><trkpt lat="45.71967156293481" lon="8.592514166833316"><ele>205.0</ele><time>2026-04-11T08:05:40.999Z</time></trkpt><trkpt lat="45.71965892550191" lon="8.59234389396679"><ele>205.25</ele><time>2026-04-11T08:05:41.999Z</time></trkpt><trkpt lat="45.71966646417946" lon="8.592168580229027"><ele>205.5</ele><time>2026-04-11T08:05:42.999Z</time></trkpt><trkpt lat="45.71967220139363" lon="8.591997260374352"><ele>205.75</ele><time>2026-04-11T08:05:43.999Z</time></trkpt><trkpt lat="45.71968010151345" lon="8.5918200210665"><ele>206.0</ele><time>2026-04-11T08:05:44.999Z</time></trkpt><trkpt lat="45.71964056842493" lon="8.59169393638891"><ele>206.00000000000003</ele><time>2026-04-11T08:05:45.999Z</time></trkpt><trkpt lat="45.71964384262245" lon="8.59158081844659"><ele>206.0</ele><time>2026-04-11T08:05:46.999Z</time></trkpt><trkpt lat="45.71964152644921" lon="8.591441657228406"><ele>206.0</ele><time>2026-04-11T08:05:47.999Z</time></trkpt><trkpt lat="45.71963951899459" lon="8.59131384596555"><ele>206.0</ele><time>2026-04-11T08:05:48.999Z</time></trkpt><trkpt lat="45.71965356201775" lon="8.59121168462262"><ele>206.00000000000003</ele><time>2026-04-11T08:05:49.999Z</time></trkpt><trkpt lat="45.719672295684525" lon="8.591121820236246"><ele>206.0</ele><time>2026-04-11T08:05:50.999Z</time></trkpt><trkpt lat="45.71971863269481" lon="8.591050650837866"><ele>205.60000000000002</ele><time>2026-04-11T08:05:51.999Z</time></trkpt><trkpt lat="45.71973245309184" lon="8.5908733297043"><ele>205.2</ele><time>2026-04-11T08:05:53.999Z</time></trkpt><trkpt lat="45.71971139372293" lon="8.590755870355746"><ele>204.8</ele><time>2026-04-11T08:05:54.999Z</time></trkpt><trkpt lat="45.719748845276136" lon="8.590635655746762"><ele>204.39999999999998</ele><time>2026-04-11T08:05:55.999Z</time></trkpt><trkpt lat="45.71974356658545" lon="8.590505214336067"><ele>204.0</ele><time>2026-04-11T08:05:56.999Z</time></trkpt><trkpt lat="45.71974181818119" lon="8.590375955939736"><ele>204.33333333333331</ele><time>2026-04-11T08:05:57.999Z</time></trkpt><trkpt lat="45.719779231644075" lon="8.590180034000017"><ele>204.66666666666666</ele><time>2026-04-11T08:05:58.999Z</time></trkpt><trkpt lat="45.71983562048801" lon="8.589960200850472"><ele>205.0</ele><time>2026-04-11T08:05:59.999Z</time></trkpt><trkpt lat="45.71986166169438" lon="8.589723303819026"><ele>204.66666666666666</ele><time>2026-04-11T08:06:00.999Z</time></trkpt><trkpt lat="45.71987997760131" lon="8.589454993334302"><ele>204.33333333333331</ele><time>2026-04-11T08:06:01.999Z</time></trkpt><trkpt lat="45.71988784591777" lon="8.589203337781885"><ele>204.0</ele><time>2026-04-11T08:06:02.999Z</time></trkpt><trkpt lat="45.71990389348349" lon="8.588918485020027"><ele>204.0</ele><time>2026-04-11T08:06:03.999Z</time></trkpt><trkpt lat="45.719917833904304" lon="8.588637804440737"><ele>204.0</ele><time>2026-04-11T08:06:04.999Z</time></trkpt><trkpt lat="45.719927815226534" lon="8.58836986668803"><ele>204.0</ele><time>2026-04-11T08:06:05.999Z</time></trkpt><trkpt lat="45.719940569359416" lon="8.58811539206629"><ele>204.0</ele><time>2026-04-11T08:06:06.999Z</time></trkpt><trkpt lat="45.71996904374716" lon="8.587838872914338"><ele>204.0</ele><time>2026-04-11T08:06:07.999Z</time></trkpt><trkpt lat="45.71999882551288" lon="8.587588913988853"><ele>204.0</ele><time>2026-04-11T08:06:08.999Z</time></trkpt><trkpt lat="45.72001502798512" lon="8.587366734962018"><ele>204.0</ele><time>2026-04-11T08:06:09.999Z</time></trkpt><trkpt lat="45.7199946643944" lon="8.587179719189532"><ele>204.0</ele><time>2026-04-11T08:06:10.999Z</time></trkpt><trkpt lat="45.71998584177964" lon="8.587003990753763"><ele>204.0</ele><time>2026-04-11T08:06:11.999Z</time></trkpt><trkpt lat="45.719977428836316" lon="8.586864380489947"><ele>204.0</ele><time>2026-04-11T08:06:12.999Z</time></trkpt><trkpt lat="45.719952725216395" lon="8.586768813890973"><ele>204.0</ele><time>2026-04-11T08:06:13.999Z</time></trkpt><trkpt lat="45.71994057436044" lon="8.586660045494984"><ele>203.83333333333334</ele><time>2026-04-11T08:06:16.999Z</time></trkpt><trkpt lat="45.719969210641544" lon="8.586537848879065"><ele>203.66666666666669</ele><time>2026-04-11T08:06:21.999Z</time></trkpt><trkpt lat="45.71997165619882" lon="8.586446086783676"><ele>203.5</ele><time>2026-04-11T08:06:23.999Z</time></trkpt><trkpt lat="45.71999967555561" lon="8.586360742549003"><ele>203.33333333333334</ele><time>2026-04-11T08:06:25.999Z</time></trkpt><trkpt lat="45.72001683659063" lon="8.586273886866088"><ele>203.16666666666669</ele><time>2026-04-11T08:06:26.999Z</time></trkpt><trkpt lat="45.72003420180921" lon="8.586158661552926"><ele>203.0</ele><time>2026-04-11T08:06:27.999Z</time></trkpt><trkpt lat="45.720052122901215" lon="8.58602321563485"><ele>202.75</ele><time>2026-04-11T08:06:28.999Z</time></trkpt><trkpt lat="45.720074597214946" lon="8.58588139914949"><ele>202.5</ele><time>2026-04-11T08:06:29.999Z</time></trkpt><trkpt lat="45.72009187921142" lon="8.585729970873775"><ele>202.25</ele><time>2026-04-11T08:06:30.999Z</time></trkpt><trkpt lat="45.720150749381375" lon="8.585580564173748"><ele>202.0</ele><time>2026-04-11T08:06:31.999Z</time></trkpt><trkpt lat="45.720236951726896" lon="8.585448608756224"><ele>202.0</ele><time>2026-04-11T08:06:32.999Z</time></trkpt><trkpt lat="45.72033888204249" lon="8.585323771586648"><ele>202.0</ele><time>2026-04-11T08:06:33.999Z</time></trkpt><trkpt lat="45.72046156046084" lon="8.585186441272796"><ele>202.0</ele><time>2026-04-11T08:06:34.999Z</time></trkpt><trkpt lat="45.720589192477256" lon="8.58505003724047"><ele>202.0</ele><time>2026-04-11T08:06:35.999Z</time></trkpt><trkpt lat="45.72071527469478" lon="8.584922059063176"><ele>202.0</ele><time>2026-04-11T08:06:36.999Z</time></trkpt><trkpt lat="45.72086030671367" lon="8.584780604418995"><ele>202.0</ele><time>2026-04-11T08:06:37.999Z</time></trkpt><trkpt lat="45.72099571920932" lon="8.584648660244211"><ele>202.0</ele><time>2026-04-11T08:06:38.999Z</time></trkpt><trkpt lat="45.721119901402375" lon="8.584525044251832"><ele>201.66666666666666</ele><time>2026-04-11T08:06:39.999Z</time></trkpt><trkpt lat="45.72125233149379" lon="8.584396665498405"><ele>201.33333333333331</ele><time>2026-04-11T08:06:40.999Z</time></trkpt><trkpt lat="45.72140358643862" lon="8.584267413519488"><ele>201.0</ele><time>2026-04-11T08:06:41.999Z</time></trkpt><trkpt lat="45.72153690094424" lon="8.584159769187307"><ele>201.0</ele><time>2026-04-11T08:06:42.999Z</time></trkpt><trkpt lat="45.721680735960376" lon="8.58404434800266"><ele>201.0</ele><time>2026-04-11T08:06:43.999Z</time></trkpt><trkpt lat="45.72181359236441" lon="8.58394024275185"><ele>201.0</ele><time>2026-04-11T08:06:44.999Z</time></trkpt><trkpt lat="45.72196571727518" lon="8.583821039010418"><ele>201.0</ele><time>2026-04-11T08:06:45.999Z</time></trkpt><trkpt lat="45.72211746814373" lon="8.583701640753358"><ele>201.0</ele><time>2026-04-11T08:06:46.999Z</time></trkpt><trkpt lat="45.72226334511583" lon="8.58358683576929"><ele>201.0</ele><time>2026-04-11T08:06:47.999Z</time></trkpt><trkpt lat="45.722391069352774" lon="8.583471196079838"><ele>201.25</ele><time>2026-04-11T08:06:48.999Z</time></trkpt><trkpt lat="45.7225098647253" lon="8.583366432036588"><ele>201.5</ele><time>2026-04-11T08:06:49.999Z</time></trkpt><trkpt lat="45.72262701562617" lon="8.583299934099548"><ele>201.75</ele><time>2026-04-11T08:06:50.999Z</time></trkpt><trkpt lat="45.72272614694703" lon="8.583196193819953"><ele>202.0</ele><time>2026-04-11T08:06:51.999Z</time></trkpt><trkpt lat="45.722842685994614" lon="8.583107529614152"><ele>202.0</ele><time>2026-04-11T08:06:52.999Z</time></trkpt><trkpt lat="45.722939278383386" lon="8.58303878277365"><ele>202.0</ele><time>2026-04-11T08:06:53.999Z</time></trkpt><trkpt lat="45.72305102358656" lon="8.582953182011247"><ele>202.0</ele><time>2026-04-11T08:06:54.999Z</time></trkpt><trkpt lat="45.72315972917193" lon="8.582873622157406"><ele>202.0</ele><time>2026-04-11T08:06:55.999Z</time></trkpt><trkpt lat="45.723272906958194" lon="8.5827929382056"><ele>202.0</ele><time>2026-04-11T08:06:56.999Z</time></trkpt><trkpt lat="45.72339176445577" lon="8.58268407958405"><ele>202.0</ele><time>2026-04-11T08:06:57.999Z</time></trkpt><trkpt lat="45.72347880816664" lon="8.58261114849845"><ele>202.0</ele><time>2026-04-11T08:06:58.999Z</time></trkpt><trkpt lat="45.723579477709954" lon="8.582519600106655"><ele>202.0</ele><time>2026-04-11T08:06:59.999Z</time></trkpt><trkpt lat="45.72369710164817" lon="8.582447864993862"><ele>202.25</ele><time>2026-04-11T08:07:00.999Z</time></trkpt><trkpt lat="45.72379506140723" lon="8.582312009106317"><ele>202.5</ele><time>2026-04-11T08:07:01.999Z</time></trkpt><trkpt lat="45.723962507306645" lon="8.58223678052523"><ele>202.75</ele><time>2026-04-11T08:07:02.999Z</time></trkpt><trkpt lat="45.724040068866024" lon="8.582113350032158"><ele>203.0</ele><time>2026-04-11T08:07:03.999Z</time></trkpt><trkpt lat="45.724137061246154" lon="8.582007400768381"><ele>203.0</ele><time>2026-04-11T08:07:04.999Z</time></trkpt><trkpt lat="45.72424367276512" lon="8.581908864475752"><ele>203.0</ele><time>2026-04-11T08:07:05.999Z</time></trkpt><trkpt lat="45.724345312397226" lon="8.581817492827811"><ele>203.0</ele><time>2026-04-11T08:07:06.999Z</time></trkpt><trkpt lat="45.72444674903373" lon="8.581748363256635"><ele>203.0</ele><time>2026-04-11T08:07:07.999Z</time></trkpt><trkpt lat="45.72458535023369" lon="8.581750122154984"><ele>202.5</ele><time>2026-04-11T08:07:08.999Z</time></trkpt><trkpt lat="45.72469038881523" lon="8.581668052092677"><ele>202.0</ele><time>2026-04-11T08:07:09.999Z</time></trkpt><trkpt lat="45.72479607216831" lon="8.58158511459893"><ele>201.5</ele><time>2026-04-11T08:07:10.999Z</time></trkpt><trkpt lat="45.72489048384593" lon="8.581510218753754"><ele>201.0</ele><time>2026-04-11T08:07:11.999Z</time></trkpt><trkpt lat="45.72498565864873" lon="8.581434717577483"><ele>201.0</ele><time>2026-04-11T08:07:12.999Z</time></trkpt><trkpt lat="45.72506808593469" lon="8.581369328803628"><ele>201.0</ele><time>2026-04-11T08:07:13.999Z</time></trkpt><trkpt lat="45.725139133353295" lon="8.581312967629465"><ele>201.0</ele><time>2026-04-11T08:07:14.999Z</time></trkpt><trkpt lat="45.72521951609573" lon="8.581249200778087"><ele>201.0</ele><time>2026-04-11T08:07:15.999Z</time></trkpt><trkpt lat="45.725328234032624" lon="8.581162956015374"><ele>201.0</ele><time>2026-04-11T08:07:17.999Z</time></trkpt><trkpt lat="45.72542738228526" lon="8.581084613283277"><ele>201.4</ele><time>2026-04-11T08:07:19.999Z</time></trkpt><trkpt lat="45.72550476860948" lon="8.581023567356718"><ele>201.8</ele><time>2026-04-11T08:07:20.999Z</time></trkpt><trkpt lat="45.72558297037348" lon="8.580961878067674"><ele>202.20000000000002</ele><time>2026-04-11T08:07:21.999Z</time></trkpt><trkpt lat="45.72568047957991" lon="8.580884958284146"><ele>202.60000000000002</ele><time>2026-04-11T08:07:22.999Z</time></trkpt><trkpt lat="45.725752498306406" lon="8.580828146569484"><ele>203.0</ele><time>2026-04-11T08:07:23.999Z</time></trkpt><trkpt lat="45.72582300272822" lon="8.580772859167853"><ele>203.00000000000003</ele><time>2026-04-11T08:07:24.999Z</time></trkpt><trkpt lat="45.72588869715585" lon="8.580721402299087"><ele>203.0</ele><time>2026-04-11T08:07:25.999Z</time></trkpt><trkpt lat="45.725964905473894" lon="8.580661710160152"><ele>203.0</ele><time>2026-04-11T08:07:26.999Z</time></trkpt><trkpt lat="45.726048504585606" lon="8.580596228846318"><ele>203.0</ele><time>2026-04-11T08:07:27.999Z</time></trkpt><trkpt lat="45.72612952155807" lon="8.580532770112715"><ele>203.00000000000003</ele><time>2026-04-11T08:07:28.999Z</time></trkpt><trkpt lat="45.726211974310935" lon="8.58046821475478"><ele>203.0</ele><time>2026-04-11T08:07:29.999Z</time></trkpt><trkpt lat="45.72628828576689" lon="8.580408988047756"><ele>202.8</ele><time>2026-04-11T08:07:30.999Z</time></trkpt><trkpt lat="45.726374549791544" lon="8.580342137059818"><ele>202.60000000000002</ele><time>2026-04-11T08:07:31.999Z</time></trkpt><trkpt lat="45.726467236395756" lon="8.580269357480995"><ele>202.39999999999998</ele><time>2026-04-11T08:07:32.999Z</time></trkpt><trkpt lat="45.726565975937916" lon="8.58019182506969"><ele>202.2</ele><time>2026-04-11T08:07:33.999Z</time></trkpt><trkpt lat="45.726644296665704" lon="8.58013032577546"><ele>202.0</ele><time>2026-04-11T08:07:34.999Z</time></trkpt><trkpt lat="45.72674877301236" lon="8.580048288776732"><ele>202.0</ele><time>2026-04-11T08:07:35.999Z</time></trkpt><trkpt lat="45.726842395759654" lon="8.579974773898615"><ele>202.0</ele><time>2026-04-11T08:07:36.999Z</time></trkpt><trkpt lat="45.726936417286055" lon="8.579900946129992"><ele>202.0</ele><time>2026-04-11T08:07:37.999Z</time></trkpt><trkpt lat="45.72702965730839" lon="8.579827731994321"><ele>202.0</ele><time>2026-04-11T08:07:38.999Z</time></trkpt><trkpt lat="45.727119636830125" lon="8.579757078172422"><ele>202.0</ele><time>2026-04-11T08:07:39.999Z</time></trkpt><trkpt lat="45.72719416673237" lon="8.579698555540864"><ele>202.0</ele><time>2026-04-11T08:07:40.999Z</time></trkpt><trkpt lat="45.727252241500054" lon="8.579652954097373"><ele>202.0</ele><time>2026-04-11T08:07:41.999Z</time></trkpt><trkpt lat="45.72735525206599" lon="8.579600691903806"><ele>202.0</ele><time>2026-04-11T08:07:43.999Z</time></trkpt><trkpt lat="45.72746411531993" lon="8.579486322570881"><ele>202.0</ele><time>2026-04-11T08:07:45.999Z</time></trkpt><trkpt lat="45.7276026295339" lon="8.579593804566494"><ele>201.8</ele><time>2026-04-11T08:07:47.999Z</time></trkpt><trkpt lat="45.72768670268432" lon="8.579583416186788"><ele>201.6</ele><time>2026-04-11T08:07:49.999Z</time></trkpt><trkpt lat="45.727733162293944" lon="8.579517437544773"><ele>201.4</ele><time>2026-04-11T08:07:50.999Z</time></trkpt><trkpt lat="45.72780427282085" lon="8.579351719084963"><ele>201.20000000000002</ele><time>2026-04-11T08:07:52.999Z</time></trkpt><trkpt lat="45.72790450138374" lon="8.579243771197216"><ele>201.0</ele><time>2026-04-11T08:07:54.999Z</time></trkpt><trkpt lat="45.72795207523933" lon="8.579156976980384"><ele>201.5</ele><time>2026-04-11T08:07:55.999Z</time></trkpt><trkpt lat="45.728049627212506" lon="8.579079949969111"><ele>202.0</ele><time>2026-04-11T08:07:56.999Z</time></trkpt><trkpt lat="45.72814631179563" lon="8.578990492348355"><ele>202.5</ele><time>2026-04-11T08:07:57.999Z</time></trkpt><trkpt lat="45.728256115647014" lon="8.578906858282302"><ele>203.0</ele><time>2026-04-11T08:07:58.999Z</time></trkpt><trkpt lat="45.728371361770144" lon="8.578823170997195"><ele>203.0</ele><time>2026-04-11T08:07:59.999Z</time></trkpt><trkpt lat="45.72847977715212" lon="8.5787145023771"><ele>203.0</ele><time>2026-04-11T08:08:00.999Z</time></trkpt><trkpt lat="45.72858564583724" lon="8.57859958343155"><ele>203.0</ele><time>2026-04-11T08:08:01.999Z</time></trkpt><trkpt lat="45.72870064489853" lon="8.578487182651198"><ele>203.0</ele><time>2026-04-11T08:08:02.999Z</time></trkpt><trkpt lat="45.72882948500467" lon="8.578400378574866"><ele>203.25</ele><time>2026-04-11T08:08:03.999Z</time></trkpt><trkpt lat="45.72895507480685" lon="8.578313742623418"><ele>203.5</ele><time>2026-04-11T08:08:05Z</time></trkpt><trkpt lat="45.72907230590188" lon="8.578197199790917"><ele>203.75</ele><time>2026-04-11T08:08:06Z</time></trkpt><trkpt lat="45.72920245832108" lon="8.578118030950069"><ele>204.0</ele><time>2026-04-11T08:08:07Z</time></trkpt><trkpt lat="45.729315407545194" lon="8.578003862256592"><ele>204.0</ele><time>2026-04-11T08:08:08Z</time></trkpt><trkpt lat="45.72942810631018" lon="8.577904183261962"><ele>204.0</ele><time>2026-04-11T08:08:09Z</time></trkpt><trkpt lat="45.72953362622377" lon="8.577798389716573"><ele>204.0</ele><time>2026-04-11T08:08:10Z</time></trkpt><trkpt lat="45.72962184791366" lon="8.577696976932264"><ele>204.0</ele><time>2026-04-11T08:08:11Z</time></trkpt><trkpt lat="45.729729908048476" lon="8.5775962881956"><ele>204.0</ele><time>2026-04-11T08:08:12Z</time></trkpt><trkpt lat="45.72984362164132" lon="8.577521649241348"><ele>204.0</ele><time>2026-04-11T08:08:13Z</time></trkpt><trkpt lat="45.72996695305978" lon="8.577443308526671"><ele>204.0</ele><time>2026-04-11T08:08:14Z</time></trkpt><trkpt lat="45.73007157361512" lon="8.577381034926434"><ele>204.0</ele><time>2026-04-11T08:08:15Z</time></trkpt><trkpt lat="45.730160077535665" lon="8.577313572062232"><ele>203.66666666666666</ele><time>2026-04-11T08:08:16Z</time></trkpt><trkpt lat="45.730264530538705" lon="8.577233398269303"><ele>203.33333333333331</ele><time>2026-04-11T08:08:17Z</time></trkpt><trkpt lat="45.730356156622804" lon="8.577183335106236"><ele>203.0</ele><time>2026-04-11T08:08:18Z</time></trkpt><trkpt lat="45.73041872207972" lon="8.577157936156915"><ele>202.66666666666666</ele><time>2026-04-11T08:08:19Z</time></trkpt><trkpt lat="45.73048411450794" lon="8.57713929703557"><ele>202.33333333333331</ele><time>2026-04-11T08:08:21Z</time></trkpt><trkpt lat="45.73056620331786" lon="8.577107525781082"><ele>202.0</ele><time>2026-04-11T08:08:24Z</time></trkpt><trkpt lat="45.73061719330149" lon="8.577160844005787"><ele>201.99999999999997</ele><time>2026-04-11T08:08:25Z</time></trkpt><trkpt lat="45.730692115662045" lon="8.57717989458844"><ele>202.0</ele><time>2026-04-11T08:08:27Z</time></trkpt><trkpt lat="45.7307666586638" lon="8.57712728193194"><ele>202.0</ele><time>2026-04-11T08:08:28Z</time></trkpt><trkpt lat="45.73080765922559" lon="8.577045399781028"><ele>202.0</ele><time>2026-04-11T08:08:29Z</time></trkpt><trkpt lat="45.73086857196123" lon="8.57688858841638"><ele>201.99999999999997</ele><time>2026-04-11T08:08:31Z</time></trkpt><trkpt lat="45.73092531439891" lon="8.576825377355389"><ele>202.0</ele><time>2026-04-11T08:08:32Z</time></trkpt><trkpt lat="45.730985743904604" lon="8.576745671937445"><ele>202.0</ele><time>2026-04-11T08:08:33Z</time></trkpt><trkpt lat="45.731061673586105" lon="8.576690751246506"><ele>202.0</ele><time>2026-04-11T08:08:34Z</time></trkpt><trkpt lat="45.73116061654466" lon="8.576629680363078"><ele>202.0</ele><time>2026-04-11T08:08:35Z</time></trkpt><trkpt lat="45.73124651066567" lon="8.576592091499466"><ele>202.0</ele><time>2026-04-11T08:08:36Z</time></trkpt><trkpt lat="45.73133641841059" lon="8.576516330041828"><ele>202.0</ele><time>2026-04-11T08:08:37Z</time></trkpt><trkpt lat="45.731429492771305" lon="8.576417975614117"><ele>201.99999999999997</ele><time>2026-04-11T08:08:38Z</time></trkpt><trkpt lat="45.73152726731086" lon="8.576339876144914"><ele>202.0</ele><time>2026-04-11T08:08:39Z</time></trkpt><trkpt lat="45.73161000023677" lon="8.576253613889465"><ele>202.0</ele><time>2026-04-11T08:08:40Z</time></trkpt><trkpt lat="45.73168180966239" lon="8.576189383048469"><ele>202.0</ele><time>2026-04-11T08:08:41Z</time></trkpt><trkpt lat="45.73174052294443" lon="8.576130319862868"><ele>201.99999999999997</ele><time>2026-04-11T08:08:42Z</time></trkpt><trkpt lat="45.7318057225853" lon="8.576103440975904"><ele>202.0</ele><time>2026-04-11T08:08:44Z</time></trkpt><trkpt lat="45.731908039172694" lon="8.576006593965076"><ele>202.5</ele><time>2026-04-11T08:08:46Z</time></trkpt><trkpt lat="45.7319863924423" lon="8.575910046545156"><ele>203.0</ele><time>2026-04-11T08:08:47Z</time></trkpt><trkpt lat="45.73209119833371" lon="8.575817172367762"><ele>203.5</ele><time>2026-04-11T08:08:48Z</time></trkpt><trkpt lat="45.732208370274044" lon="8.575736217305797"><ele>204.0</ele><time>2026-04-11T08:08:49Z</time></trkpt><trkpt lat="45.73233508272312" lon="8.575666390351673"><ele>204.0</ele><time>2026-04-11T08:08:50Z</time></trkpt><trkpt lat="45.73245646533077" lon="8.575570499520033"><ele>204.0</ele><time>2026-04-11T08:08:51Z</time></trkpt><trkpt lat="45.732581597943685" lon="8.575473552071394"><ele>204.0</ele><time>2026-04-11T08:08:52Z</time></trkpt><trkpt lat="45.7327046707569" lon="8.575376680882547"><ele>204.0</ele><time>2026-04-11T08:08:53Z</time></trkpt><trkpt lat="45.7328256422775" lon="8.575275187215164"><ele>204.25</ele><time>2026-04-11T08:08:54Z</time></trkpt><trkpt lat="45.732944668346875" lon="8.575175155230093"><ele>204.5</ele><time>2026-04-11T08:08:55Z</time></trkpt><trkpt lat="45.73305188502771" lon="8.575061183109367"><ele>204.75</ele><time>2026-04-11T08:08:56Z</time></trkpt><trkpt lat="45.73317574475445" lon="8.574986077017453"><ele>205.0</ele><time>2026-04-11T08:08:57Z</time></trkpt><trkpt lat="45.73328879925786" lon="8.574898311984628"><ele>205.0</ele><time>2026-04-11T08:08:58Z</time></trkpt><trkpt lat="45.733400130827626" lon="8.57481238957095"><ele>205.0</ele><time>2026-04-11T08:08:59Z</time></trkpt><trkpt lat="45.733509014099894" lon="8.574728290116502"><ele>205.0</ele><time>2026-04-11T08:09:00Z</time></trkpt><trkpt lat="45.733591236238695" lon="8.574593285231664"><ele>205.0</ele><time>2026-04-11T08:09:01Z</time></trkpt><trkpt lat="45.73368697483872" lon="8.574517780768378"><ele>205.2</ele><time>2026-04-11T08:09:02Z</time></trkpt><trkpt lat="45.7337712448796" lon="8.574444946760021"><ele>205.4</ele><time>2026-04-11T08:09:03.001Z</time></trkpt><trkpt lat="45.733851047321984" lon="8.574377426088283"><ele>205.60000000000002</ele><time>2026-04-11T08:09:04.001Z</time></trkpt><trkpt lat="45.733933794066154" lon="8.574309104266291"><ele>205.8</ele><time>2026-04-11T08:09:05.001Z</time></trkpt><trkpt lat="45.734026869056216" lon="8.574235836761806"><ele>206.0</ele><time>2026-04-11T08:09:06.001Z</time></trkpt><trkpt lat="45.73413704533601" lon="8.574197468502826"><ele>206.0</ele><time>2026-04-11T08:09:07.001Z</time></trkpt><trkpt lat="45.73422664993477" lon="8.574124527825257"><ele>206.0</ele><time>2026-04-11T08:09:08.001Z</time></trkpt><trkpt lat="45.734306929793995" lon="8.574059177744358"><ele>206.0</ele><time>2026-04-11T08:09:09.001Z</time></trkpt><trkpt lat="45.73437508124132" lon="8.574008748630117"><ele>206.0</ele><time>2026-04-11T08:09:10.001Z</time></trkpt><trkpt lat="45.73448729004563" lon="8.573994029490718"><ele>206.0</ele><time>2026-04-11T08:09:12.001Z</time></trkpt><trkpt lat="45.73456201869899" lon="8.574008148205241"><ele>206.20000000000002</ele><time>2026-04-11T08:09:13.001Z</time></trkpt><trkpt lat="45.73463083206968" lon="8.574055658155709"><ele>206.4</ele><time>2026-04-11T08:09:14.001Z</time></trkpt><trkpt lat="45.734715130579985" lon="8.574148298763403"><ele>206.6</ele><time>2026-04-11T08:09:15.001Z</time></trkpt><trkpt lat="45.734810729144236" lon="8.57411867412187"><ele>206.8</ele><time>2026-04-11T08:09:16.001Z</time></trkpt><trkpt lat="45.73484244843689" lon="8.573953212643385"><ele>207.0</ele><time>2026-04-11T08:09:17.001Z</time></trkpt><trkpt lat="45.734903154200104" lon="8.573859857963372"><ele>207.0</ele><time>2026-04-11T08:09:18.001Z</time></trkpt><trkpt lat="45.7349471661409" lon="8.573731267688453"><ele>207.0</ele><time>2026-04-11T08:09:19.001Z</time></trkpt><trkpt lat="45.73500648724474" lon="8.573608670914723"><ele>207.0</ele><time>2026-04-11T08:09:20.001Z</time></trkpt><trkpt lat="45.735080319558136" lon="8.573493429229027"><ele>207.0</ele><time>2026-04-11T08:09:21.001Z</time></trkpt><trkpt lat="45.73515391571508" lon="8.57337966179765"><ele>207.0</ele><time>2026-04-11T08:09:22.001Z</time></trkpt><trkpt lat="45.73523672820477" lon="8.573274290753282"><ele>207.25</ele><time>2026-04-11T08:09:23.001Z</time></trkpt><trkpt lat="45.73535855474579" lon="8.573258497853613"><ele>207.5</ele><time>2026-04-11T08:09:24.001Z</time></trkpt><trkpt lat="45.73545561086194" lon="8.573177859059125"><ele>207.75</ele><time>2026-04-11T08:09:25.001Z</time></trkpt><trkpt lat="45.73555262224941" lon="8.573100455439846"><ele>208.0</ele><time>2026-04-11T08:09:26.001Z</time></trkpt><trkpt lat="45.73565154198461" lon="8.573025603415399"><ele>208.0</ele><time>2026-04-11T08:09:27.001Z</time></trkpt><trkpt lat="45.7357544722265" lon="8.57294803745245"><ele>208.0</ele><time>2026-04-11T08:09:28.001Z</time></trkpt><trkpt lat="45.73585963346923" lon="8.572866307272625"><ele>208.0</ele><time>2026-04-11T08:09:29.001Z</time></trkpt><trkpt lat="45.73596519014308" lon="8.572782949624973"><ele>208.0</ele><time>2026-04-11T08:09:30.001Z</time></trkpt><trkpt lat="45.7360744056499" lon="8.572695159972776"><ele>207.75</ele><time>2026-04-11T08:09:31.001Z</time></trkpt><trkpt lat="45.736134855404345" lon="8.57248326221491"><ele>207.5</ele><time>2026-04-11T08:09:32.001Z</time></trkpt><trkpt lat="45.73624246949434" lon="8.572393654671075"><ele>207.25</ele><time>2026-04-11T08:09:33.001Z</time></trkpt><trkpt lat="45.73635682942591" lon="8.572311108664843"><ele>207.0</ele><time>2026-04-11T08:09:34.001Z</time></trkpt><trkpt lat="45.73647940653603" lon="8.572224013670027"><ele>207.0</ele><time>2026-04-11T08:09:35.001Z</time></trkpt><trkpt lat="45.7366480359424" lon="8.57224043492228"><ele>207.0</ele><time>2026-04-11T08:09:36.001Z</time></trkpt><trkpt lat="45.73677070239828" lon="8.572144536165373"><ele>207.0</ele><time>2026-04-11T08:09:37.001Z</time></trkpt><trkpt lat="45.736887810782484" lon="8.572053456217157"><ele>207.0</ele><time>2026-04-11T08:09:38.001Z</time></trkpt><trkpt lat="45.73700335868834" lon="8.571963738744818"><ele>207.25</ele><time>2026-04-11T08:09:39.001Z</time></trkpt><trkpt lat="45.73711457168903" lon="8.571877939294648"><ele>207.5</ele><time>2026-04-11T08:09:40Z</time></trkpt><trkpt lat="45.73722504484477" lon="8.571791924724007"><ele>207.75</ele><time>2026-04-11T08:09:41Z</time></trkpt><trkpt lat="45.73733552898823" lon="8.571705213504172"><ele>208.0</ele><time>2026-04-11T08:09:42Z</time></trkpt><trkpt lat="45.73744734739184" lon="8.571617455112492"><ele>208.0</ele><time>2026-04-11T08:09:43Z</time></trkpt><trkpt lat="45.73751630320008" lon="8.571402398225924"><ele>208.0</ele><time>2026-04-11T08:09:44Z</time></trkpt><trkpt lat="45.73763465061484" lon="8.571299834921447"><ele>208.0</ele><time>2026-04-11T08:09:45Z</time></trkpt><trkpt lat="45.73775914241646" lon="8.571205336289443"><ele>208.0</ele><time>2026-04-11T08:09:46Z</time></trkpt><trkpt lat="45.73788222530179" lon="8.571104446720902"><ele>207.75</ele><time>2026-04-11T08:09:47Z</time></trkpt><trkpt lat="45.73805782694565" lon="8.571128624859774"><ele>207.5</ele><time>2026-04-11T08:09:48Z</time></trkpt><trkpt lat="45.738179307809936" lon="8.571031309745036"><ele>207.25</ele><time>2026-04-11T08:09:49Z</time></trkpt><trkpt lat="45.73829462581331" lon="8.570938931482836"><ele>207.0</ele><time>2026-04-11T08:09:50Z</time></trkpt><trkpt lat="45.73840803297678" lon="8.570848084051947"><ele>207.0</ele><time>2026-04-11T08:09:51Z</time></trkpt><trkpt lat="45.73852110243195" lon="8.570757507094442"><ele>207.0</ele><time>2026-04-11T08:09:52Z</time></trkpt><trkpt lat="45.73863217122033" lon="8.57066853276435"><ele>207.0</ele><time>2026-04-11T08:09:53Z</time></trkpt><trkpt lat="45.73868994969674" lon="8.570448044912434"><ele>207.0</ele><time>2026-04-11T08:09:54Z</time></trkpt><trkpt lat="45.73879631778354" lon="8.570358384355865"><ele>207.0</ele><time>2026-04-11T08:09:55Z</time></trkpt><trkpt lat="45.73890533528588" lon="8.570278136769291"><ele>207.0</ele><time>2026-04-11T08:09:56Z</time></trkpt><trkpt lat="45.73901233828791" lon="8.570192628764358"><ele>207.0</ele><time>2026-04-11T08:09:57Z</time></trkpt><trkpt lat="45.73917183161988" lon="8.570242135436581"><ele>207.0</ele><time>2026-04-11T08:09:58Z</time></trkpt><trkpt lat="45.739282161757096" lon="8.570155290187861"><ele>207.25</ele><time>2026-04-11T08:09:59Z</time></trkpt><trkpt lat="45.739393318625346" lon="8.570067239513408"><ele>207.5</ele><time>2026-04-11T08:10:00Z</time></trkpt><trkpt lat="45.739503043875715" lon="8.569980138383649"><ele>207.75</ele><time>2026-04-11T08:10:01Z</time></trkpt><trkpt lat="45.739607757793095" lon="8.569896433475558"><ele>208.0</ele><time>2026-04-11T08:10:02Z</time></trkpt><trkpt lat="45.739709783545244" lon="8.569814877391018"><ele>208.0</ele><time>2026-04-11T08:10:03Z</time></trkpt><trkpt lat="45.73981387302082" lon="8.569732492058236"><ele>208.0</ele><time>2026-04-11T08:10:04Z</time></trkpt><trkpt lat="45.73991919403285" lon="8.569649544337727"><ele>208.0</ele><time>2026-04-11T08:10:05Z</time></trkpt><trkpt lat="45.74002670658488" lon="8.56956487062389"><ele>208.0</ele><time>2026-04-11T08:10:06Z</time></trkpt><trkpt lat="45.74013467984216" lon="8.569479834072883"><ele>207.25</ele><time>2026-04-11T08:10:07Z</time></trkpt><trkpt lat="45.740244853694314" lon="8.569393064399025"><ele>206.5</ele><time>2026-04-11T08:10:08Z</time></trkpt><trkpt lat="45.74035414273225" lon="8.569306864743083"><ele>205.75</ele><time>2026-04-11T08:10:09Z</time></trkpt><trkpt lat="45.740464301167115" lon="8.569219886050552"><ele>205.0</ele><time>2026-04-11T08:10:10Z</time></trkpt><trkpt lat="45.740574645889865" lon="8.569132760270051"><ele>205.0</ele><time>2026-04-11T08:10:11Z</time></trkpt><trkpt lat="45.74068465961691" lon="8.569045895835533"><ele>205.0</ele><time>2026-04-11T08:10:12Z</time></trkpt><trkpt lat="45.74079608416918" lon="8.56895791744265"><ele>205.0</ele><time>2026-04-11T08:10:13Z</time></trkpt><trkpt lat="45.74090947683665" lon="8.568868384979684"><ele>205.0</ele><time>2026-04-11T08:10:14Z</time></trkpt><trkpt lat="45.74102292252996" lon="8.568777217578143"><ele>205.0</ele><time>2026-04-11T08:10:15Z</time></trkpt><trkpt lat="45.74113620992724" lon="8.568687109298137"><ele>205.0</ele><time>2026-04-11T08:10:16Z</time></trkpt><trkpt lat="45.74124822984079" lon="8.568598269010689"><ele>205.0</ele><time>2026-04-11T08:10:17Z</time></trkpt><trkpt lat="45.74135518611885" lon="8.568513444576322"><ele>205.0</ele><time>2026-04-11T08:10:18Z</time></trkpt><trkpt lat="45.74140524130878" lon="8.568287755452179"><ele>205.0</ele><time>2026-04-11T08:10:19Z</time></trkpt><trkpt lat="45.74150795834165" lon="8.568201176269804"><ele>205.0</ele><time>2026-04-11T08:10:20Z</time></trkpt><trkpt lat="45.741613522280296" lon="8.568113493555105"><ele>205.0</ele><time>2026-04-11T08:10:21Z</time></trkpt><trkpt lat="45.74171884085497" lon="8.568023684944494"><ele>205.0</ele><time>2026-04-11T08:10:22Z</time></trkpt><trkpt lat="45.741825766906146" lon="8.567935006504905"><ele>205.0</ele><time>2026-04-11T08:10:23Z</time></trkpt><trkpt lat="45.741934577801345" lon="8.567842895484485"><ele>205.0</ele><time>2026-04-11T08:10:24Z</time></trkpt><trkpt lat="45.742107466532524" lon="8.567915629837064"><ele>205.0</ele><time>2026-04-11T08:10:25Z</time></trkpt><trkpt lat="45.74221816851789" lon="8.567828175183289"><ele>205.0</ele><time>2026-04-11T08:10:26Z</time></trkpt><trkpt lat="45.74233255434341" lon="8.567737810290351"><ele>205.0</ele><time>2026-04-11T08:10:27Z</time></trkpt><trkpt lat="45.742446718163144" lon="8.567647620787852"><ele>205.0</ele><time>2026-04-11T08:10:28Z</time></trkpt><trkpt lat="45.742559556222076" lon="8.567558478633218"><ele>205.0</ele><time>2026-04-11T08:10:29Z</time></trkpt><trkpt lat="45.742610336649044" lon="8.567305469183264"><ele>205.0</ele><time>2026-04-11T08:10:30Z</time></trkpt><trkpt lat="45.74272022224167" lon="8.567212913071137"><ele>204.25</ele><time>2026-04-11T08:10:31Z</time></trkpt><trkpt lat="45.74283090677896" lon="8.56712910856553"><ele>203.5</ele><time>2026-04-11T08:10:32Z</time></trkpt><trkpt lat="45.74293950190523" lon="8.567045620776877"><ele>202.75</ele><time>2026-04-11T08:10:33Z</time></trkpt><trkpt lat="45.743111317088974" lon="8.56711965071786"><ele>202.0</ele><time>2026-04-11T08:10:34Z</time></trkpt><trkpt lat="45.74321782696083" lon="8.56703423680179"><ele>202.0</ele><time>2026-04-11T08:10:35Z</time></trkpt><trkpt lat="45.74332325009754" lon="8.56694979340669"><ele>202.0</ele><time>2026-04-11T08:10:36Z</time></trkpt><trkpt lat="45.74342891741678" lon="8.566865289435366"><ele>202.0</ele><time>2026-04-11T08:10:37Z</time></trkpt><trkpt lat="45.74353674564689" lon="8.566779291046785"><ele>202.0</ele><time>2026-04-11T08:10:38Z</time></trkpt><trkpt lat="45.7436458337047" lon="8.566692287884365"><ele>202.0</ele><time>2026-04-11T08:10:39Z</time></trkpt><trkpt lat="45.74375230913158" lon="8.566607368425467"><ele>202.0</ele><time>2026-04-11T08:10:40Z</time></trkpt><trkpt lat="45.74385019858083" lon="8.566529296712739"><ele>202.0</ele><time>2026-04-11T08:10:41Z</time></trkpt><trkpt lat="45.74394446296939" lon="8.566454116099797"><ele>202.0</ele><time>2026-04-11T08:10:42Z</time></trkpt><trkpt lat="45.744035116125175" lon="8.566383169251141"><ele>202.0</ele><time>2026-04-11T08:10:43Z</time></trkpt><trkpt lat="45.7441241189221" lon="8.566313038037679"><ele>202.0</ele><time>2026-04-11T08:10:44Z</time></trkpt><trkpt lat="45.744216025542414" lon="8.566240618708036"><ele>202.0</ele><time>2026-04-11T08:10:45Z</time></trkpt><trkpt lat="45.74431469264582" lon="8.566162872346991"><ele>202.0</ele><time>2026-04-11T08:10:46Z</time></trkpt><trkpt lat="45.744420454634145" lon="8.566079535386569"><ele>202.0</ele><time>2026-04-11T08:10:47Z</time></trkpt><trkpt lat="45.744532454264366" lon="8.565989678537505"><ele>202.0</ele><time>2026-04-11T08:10:48Z</time></trkpt><trkpt lat="45.74464905073255" lon="8.565898928650569"><ele>202.0</ele><time>2026-04-11T08:10:49Z</time></trkpt><trkpt lat="45.744769541911474" lon="8.565803936245423"><ele>202.0</ele><time>2026-04-11T08:10:50Z</time></trkpt><trkpt lat="45.7448877895245" lon="8.565710712616838"><ele>202.0</ele><time>2026-04-11T08:10:51Z</time></trkpt><trkpt lat="45.74500865200314" lon="8.565615427487785"><ele>202.0</ele><time>2026-04-11T08:10:52Z</time></trkpt><trkpt lat="45.74513063192004" lon="8.565519145599387"><ele>202.0</ele><time>2026-04-11T08:10:53Z</time></trkpt><trkpt lat="45.74525193070006" lon="8.565423259177166"><ele>202.0</ele><time>2026-04-11T08:10:54Z</time></trkpt><trkpt lat="45.7453733237594" lon="8.56532729822884"><ele>202.0</ele><time>2026-04-11T08:10:55Z</time></trkpt><trkpt lat="45.745495374723006" lon="8.565230817208223"><ele>201.75</ele><time>2026-04-11T08:10:56Z</time></trkpt><trkpt lat="45.74561948875741" lon="8.565130025321958"><ele>201.5</ele><time>2026-04-11T08:10:57Z</time></trkpt><trkpt lat="45.745740195883535" lon="8.565034313301517"><ele>201.25</ele><time>2026-04-11T08:10:58Z</time></trkpt><trkpt lat="45.74586035644705" lon="8.564942692366444"><ele>201.0</ele><time>2026-04-11T08:10:59Z</time></trkpt><trkpt lat="45.745971465231214" lon="8.564868360836373"><ele>200.8</ele><time>2026-04-11T08:11:00Z</time></trkpt><trkpt lat="45.74608326288915" lon="8.564812983442906"><ele>200.60000000000002</ele><time>2026-04-11T08:11:01Z</time></trkpt><trkpt lat="45.746190141734196" lon="8.564774941579955"><ele>200.4</ele><time>2026-04-11T08:11:02Z</time></trkpt><trkpt lat="45.746292783174255" lon="8.564753583522274"><ele>200.2</ele><time>2026-04-11T08:11:03Z</time></trkpt><trkpt lat="45.746393760389644" lon="8.56474427681774"><ele>200.0</ele><time>2026-04-11T08:11:04Z</time></trkpt><trkpt lat="45.74648639283217" lon="8.564736173331687"><ele>200.0</ele><time>2026-04-11T08:11:05Z</time></trkpt><trkpt lat="45.74655882671738" lon="8.564729501931325"><ele>200.0</ele><time>2026-04-11T08:11:06Z</time></trkpt><trkpt lat="45.74666646283298" lon="8.56471958828876"><ele>200.0</ele><time>2026-04-11T08:11:08Z</time></trkpt><trkpt lat="45.74676429706934" lon="8.564710577432535"><ele>200.0</ele><time>2026-04-11T08:11:10Z</time></trkpt><trkpt lat="45.74684860148634" lon="8.564690555942096"><ele>200.0</ele><time>2026-04-11T08:11:12Z</time></trkpt><trkpt lat="45.746931964597664" lon="8.564755154715977"><ele>200.25</ele><time>2026-04-11T08:11:14Z</time></trkpt><trkpt lat="45.747123056188954" lon="8.564831576849464"><ele>200.5</ele><time>2026-04-11T08:11:16Z</time></trkpt><trkpt lat="45.747171866117526" lon="8.564674746200328"><ele>200.75</ele><time>2026-04-11T08:11:17Z</time></trkpt><trkpt lat="45.74716196469867" lon="8.564549178691642"><ele>201.0</ele><time>2026-04-11T08:11:18Z</time></trkpt><trkpt lat="45.74712996048176" lon="8.564447694642524"><ele>201.5</ele><time>2026-04-11T08:11:19Z</time></trkpt><trkpt lat="45.74713226125725" lon="8.564321743838041"><ele>202.0</ele><time>2026-04-11T08:11:20Z</time></trkpt><trkpt lat="45.74723536529353" lon="8.564161196198228"><ele>202.5</ele><time>2026-04-11T08:11:22Z</time></trkpt><trkpt lat="45.747293928119575" lon="8.564039976797204"><ele>203.0</ele><time>2026-04-11T08:11:23Z</time></trkpt><trkpt lat="45.747358606102786" lon="8.56390569219522"><ele>203.0</ele><time>2026-04-11T08:11:24Z</time></trkpt><trkpt lat="45.74742231356744" lon="8.563772024722406"><ele>203.0</ele><time>2026-04-11T08:11:25Z</time></trkpt><trkpt lat="45.74749810450044" lon="8.563657730777905"><ele>203.0</ele><time>2026-04-11T08:11:26Z</time></trkpt><trkpt lat="45.747605133182134" lon="8.563553074292209"><ele>203.0</ele><time>2026-04-11T08:11:27Z</time></trkpt><trkpt lat="45.74771632099782" lon="8.563462183581297"><ele>202.33333333333334</ele><time>2026-04-11T08:11:28Z</time></trkpt><trkpt lat="45.74783818547611" lon="8.563368148421832"><ele>201.66666666666669</ele><time>2026-04-11T08:11:29Z</time></trkpt><trkpt lat="45.74791305362765" lon="8.563136853825437"><ele>201.0</ele><time>2026-04-11T08:11:30Z</time></trkpt><trkpt lat="45.74804178431648" lon="8.563042590014055"><ele>201.0</ele><time>2026-04-11T08:11:31Z</time></trkpt><trkpt lat="45.74815557393762" lon="8.562908547824328"><ele>201.0</ele><time>2026-04-11T08:11:32Z</time></trkpt><trkpt lat="45.74828508474708" lon="8.56280917200011"><ele>201.0</ele><time>2026-04-11T08:11:33Z</time></trkpt><trkpt lat="45.74847269632585" lon="8.562871966612803"><ele>201.25</ele><time>2026-04-11T08:11:34Z</time></trkpt><trkpt lat="45.748592381452546" lon="8.562776954385425"><ele>201.5</ele><time>2026-04-11T08:11:35Z</time></trkpt><trkpt lat="45.74870751446031" lon="8.562686248305678"><ele>201.75</ele><time>2026-04-11T08:11:36Z</time></trkpt><trkpt lat="45.74882280659417" lon="8.562594070124879"><ele>202.0</ele><time>2026-04-11T08:11:37Z</time></trkpt><trkpt lat="45.74893305982199" lon="8.562506383889085"><ele>202.0</ele><time>2026-04-11T08:11:38Z</time></trkpt><trkpt lat="45.74903995740359" lon="8.562421415240518"><ele>202.0</ele><time>2026-04-11T08:11:39Z</time></trkpt><trkpt lat="45.749141401317054" lon="8.562340860431684"><ele>202.0</ele><time>2026-04-11T08:11:40Z</time></trkpt><trkpt lat="45.7492445042669" lon="8.562259010954133"><ele>202.0</ele><time>2026-04-11T08:11:41Z</time></trkpt><trkpt lat="45.7493302828191" lon="8.562190914618947"><ele>202.0</ele><time>2026-04-11T08:11:42Z</time></trkpt><trkpt lat="45.7494132799015" lon="8.56212502640408"><ele>202.0</ele><time>2026-04-11T08:11:43Z</time></trkpt><trkpt lat="45.74950025593591" lon="8.562055784192522"><ele>202.0</ele><time>2026-04-11T08:11:44Z</time></trkpt><trkpt lat="45.74958655053822" lon="8.56198692386021"><ele>202.0</ele><time>2026-04-11T08:11:45Z</time></trkpt><trkpt lat="45.74967261966736" lon="8.561918243487845"><ele>202.0</ele><time>2026-04-11T08:11:46Z</time></trkpt><trkpt lat="45.74975944806796" lon="8.561848957223134"><ele>202.0</ele><time>2026-04-11T08:11:47Z</time></trkpt><trkpt lat="45.74984877076297" lon="8.561777830878096"><ele>202.0</ele><time>2026-04-11T08:11:48Z</time></trkpt><trkpt lat="45.749931833587674" lon="8.561711736798317"><ele>202.0</ele><time>2026-04-11T08:11:49Z</time></trkpt><trkpt lat="45.75001201730054" lon="8.561647933599252"><ele>202.0</ele><time>2026-04-11T08:11:50Z</time></trkpt><trkpt lat="45.750089672352566" lon="8.561586142492201"><ele>202.0</ele><time>2026-04-11T08:11:51Z</time></trkpt><trkpt lat="45.75016382219217" lon="8.56152711718829"><ele>201.99999999999997</ele><time>2026-04-11T08:11:52Z</time></trkpt><trkpt lat="45.7502331318406" lon="8.56147193511242"><ele>202.0</ele><time>2026-04-11T08:11:53Z</time></trkpt><trkpt lat="45.750304894372285" lon="8.561414800619646"><ele>202.0</ele><time>2026-04-11T08:11:54Z</time></trkpt><trkpt lat="45.750373694951605" lon="8.561360625064516"><ele>202.0</ele><time>2026-04-11T08:11:55Z</time></trkpt><trkpt lat="45.750442267260446" lon="8.56130613723339"><ele>201.99999999999997</ele><time>2026-04-11T08:11:56Z</time></trkpt><trkpt lat="45.75051078033535" lon="8.561251530685443"><ele>202.0</ele><time>2026-04-11T08:11:57Z</time></trkpt><trkpt lat="45.750577047825004" lon="8.561198713966148"><ele>201.83333333333331</ele><time>2026-04-11T08:11:58Z</time></trkpt><trkpt lat="45.750639675121505" lon="8.561149188846356"><ele>201.66666666666666</ele><time>2026-04-11T08:11:59Z</time></trkpt><trkpt lat="45.75070162950554" lon="8.561100182820203"><ele>201.5</ele><time>2026-04-11T08:12:00Z</time></trkpt><trkpt lat="45.75076400575775" lon="8.561050843671474"><ele>201.33333333333331</ele><time>2026-04-11T08:12:01Z</time></trkpt><trkpt lat="45.75083189453571" lon="8.560996409823064"><ele>201.16666666666666</ele><time>2026-04-11T08:12:02Z</time></trkpt><trkpt lat="45.7509035321752" lon="8.560939373663167"><ele>201.0</ele><time>2026-04-11T08:12:03Z</time></trkpt><trkpt lat="45.75097732262198" lon="8.560880718942157"><ele>201.33333333333334</ele><time>2026-04-11T08:12:04Z</time></trkpt><trkpt lat="45.751051275492664" lon="8.560821933711024"><ele>201.66666666666669</ele><time>2026-04-11T08:12:05Z</time></trkpt><trkpt lat="45.751125118662834" lon="8.560763235696589"><ele>202.0</ele><time>2026-04-11T08:12:06Z</time></trkpt><trkpt lat="45.75120162544245" lon="8.560702420387985"><ele>202.33333333333334</ele><time>2026-04-11T08:12:07Z</time></trkpt><trkpt lat="45.75128854442631" lon="8.56063332838184"><ele>202.66666666666669</ele><time>2026-04-11T08:12:08Z</time></trkpt><trkpt lat="45.75136728261026" lon="8.560570739306865"><ele>203.0</ele><time>2026-04-11T08:12:09Z</time></trkpt><trkpt lat="45.75144106457198" lon="8.560512089949128"><ele>203.00000000000003</ele><time>2026-04-11T08:12:10Z</time></trkpt><trkpt lat="45.75151195889067" lon="8.560455736318982"><ele>203.0</ele><time>2026-04-11T08:12:11Z</time></trkpt><trkpt lat="45.75158009829151" lon="8.560401547139238"><ele>203.0</ele><time>2026-04-11T08:12:12Z</time></trkpt><trkpt lat="45.75164297709889" lon="8.560351548473115"><ele>203.0</ele><time>2026-04-11T08:12:13Z</time></trkpt><trkpt lat="45.75169943608033" lon="8.560306654504428"><ele>203.00000000000003</ele><time>2026-04-11T08:12:14Z</time></trkpt><trkpt lat="45.75180134390785" lon="8.560225621479095"><ele>203.0</ele><time>2026-04-11T08:12:16Z</time></trkpt><trkpt lat="45.751859892782356" lon="8.56017906573922"><ele>203.14285714285714</ele><time>2026-04-11T08:12:17Z</time></trkpt><trkpt lat="45.751915438322676" lon="8.560134898143504"><ele>203.28571428571428</ele><time>2026-04-11T08:12:18Z</time></trkpt><trkpt lat="45.75197479973755" lon="8.560087959856531"><ele>203.42857142857144</ele><time>2026-04-11T08:12:19Z</time></trkpt><trkpt lat="45.75203956463035" lon="8.560036771365715"><ele>203.57142857142856</ele><time>2026-04-11T08:12:20Z</time></trkpt><trkpt lat="45.752107542951485" lon="8.55998304308005"><ele>203.71428571428572</ele><time>2026-04-11T08:12:21Z</time></trkpt><trkpt lat="45.752176990812195" lon="8.559928153244806"><ele>203.85714285714286</ele><time>2026-04-11T08:12:22Z</time></trkpt><trkpt lat="45.752239828986426" lon="8.559877966304718"><ele>204.0</ele><time>2026-04-11T08:12:23Z</time></trkpt><trkpt lat="45.75229928780435" lon="8.559830163585875"><ele>204.0</ele><time>2026-04-11T08:12:24Z</time></trkpt><trkpt lat="45.75235661426065" lon="8.559784123127443"><ele>204.0</ele><time>2026-04-11T08:12:25Z</time></trkpt><trkpt lat="45.75241385769857" lon="8.559739704285136"><ele>204.0</ele><time>2026-04-11T08:12:26Z</time></trkpt><trkpt lat="45.752473014454004" lon="8.55969380077307"><ele>204.0</ele><time>2026-04-11T08:12:27Z</time></trkpt><trkpt lat="45.752573483219564" lon="8.559614641455928"><ele>204.0</ele><time>2026-04-11T08:12:29Z</time></trkpt><trkpt lat="45.752640504607264" lon="8.559561001883424"><ele>204.0</ele><time>2026-04-11T08:12:31Z</time></trkpt><trkpt lat="45.75269910733128" lon="8.559519277725082"><ele>204.25</ele><time>2026-04-11T08:12:34Z</time></trkpt><trkpt lat="45.752756871991764" lon="8.559464086613078"><ele>204.5</ele><time>2026-04-11T08:12:37Z</time></trkpt><trkpt lat="45.75284041105226" lon="8.559379679514443"><ele>204.75</ele><time>2026-04-11T08:12:40Z</time></trkpt><trkpt lat="45.752977008238446" lon="8.559244455225341"><ele>205.0</ele><time>2026-04-11T08:12:42Z</time></trkpt><trkpt lat="45.75307313354101" lon="8.559147829614382"><ele>205.0</ele><time>2026-04-11T08:12:43Z</time></trkpt><trkpt lat="45.75318914253859" lon="8.559062845560174"><ele>205.0</ele><time>2026-04-11T08:12:44Z</time></trkpt><trkpt lat="45.753301902919375" lon="8.559037113146157"><ele>205.0</ele><time>2026-04-11T08:12:45Z</time></trkpt><trkpt lat="45.75339988003434" lon="8.558964341333716"><ele>205.0</ele><time>2026-04-11T08:12:46Z</time></trkpt><trkpt lat="45.75349842481012" lon="8.558888258135186"><ele>204.8</ele><time>2026-04-11T08:12:47Z</time></trkpt><trkpt lat="45.75359415803421" lon="8.55881310932045"><ele>204.6</ele><time>2026-04-11T08:12:48Z</time></trkpt><trkpt lat="45.75369790409732" lon="8.558731458935416"><ele>204.39999999999998</ele><time>2026-04-11T08:12:49Z</time></trkpt><trkpt lat="45.75379448754398" lon="8.558655157873144"><ele>204.2</ele><time>2026-04-11T08:12:50Z</time></trkpt><trkpt lat="45.75388671553652" lon="8.5585824507122"><ele>204.0</ele><time>2026-04-11T08:12:51Z</time></trkpt><trkpt lat="45.75397527161131" lon="8.558512837871646"><ele>204.16666666666666</ele><time>2026-04-11T08:12:52Z</time></trkpt><trkpt lat="45.754060842144376" lon="8.55844557191779"><ele>204.33333333333331</ele><time>2026-04-11T08:12:53Z</time></trkpt><trkpt lat="45.7541427433046" lon="8.558381190424283"><ele>204.5</ele><time>2026-04-11T08:12:54Z</time></trkpt><trkpt lat="45.75422123618059" lon="8.55831887265131"><ele>204.66666666666666</ele><time>2026-04-11T08:12:55Z</time></trkpt><trkpt lat="45.75429693582884" lon="8.558258653899243"><ele>204.83333333333331</ele><time>2026-04-11T08:12:56Z</time></trkpt><trkpt lat="45.75436791938224" lon="8.558202170443211"><ele>205.0</ele><time>2026-04-11T08:12:57Z</time></trkpt><trkpt lat="45.75443552996157" lon="8.558149554963883"><ele>204.99999999999997</ele><time>2026-04-11T08:12:58Z</time></trkpt><trkpt lat="45.75449996501299" lon="8.558099410720292"><ele>205.0</ele><time>2026-04-11T08:12:59Z</time></trkpt><trkpt lat="45.754555735029925" lon="8.55805600973448"><ele>205.0</ele><time>2026-04-11T08:13:00Z</time></trkpt><trkpt lat="45.75466491070823" lon="8.55797323366128"><ele>205.0</ele><time>2026-04-11T08:13:02Z</time></trkpt><trkpt lat="45.75472334451767" lon="8.55792950485771"><ele>204.99999999999997</ele><time>2026-04-11T08:13:03Z</time></trkpt><trkpt lat="45.754782460713606" lon="8.557885809385368"><ele>205.0</ele><time>2026-04-11T08:13:04Z</time></trkpt><trkpt lat="45.754847637229275" lon="8.55783763449271"><ele>204.8</ele><time>2026-04-11T08:13:05Z</time></trkpt><trkpt lat="45.75491992836918" lon="8.557786188091669"><ele>204.6</ele><time>2026-04-11T08:13:06Z</time></trkpt><trkpt lat="45.755000033754385" lon="8.557735489449689"><ele>204.39999999999998</ele><time>2026-04-11T08:13:07Z</time></trkpt><trkpt lat="45.75506276236414" lon="8.557613096198372"><ele>204.2</ele><time>2026-04-11T08:13:08Z</time></trkpt><trkpt lat="45.75514640777183" lon="8.557562056073998"><ele>204.0</ele><time>2026-04-11T08:13:09Z</time></trkpt><trkpt lat="45.75523010528795" lon="8.557504390258737"><ele>204.33333333333334</ele><time>2026-04-11T08:13:10Z</time></trkpt><trkpt lat="45.75532053017718" lon="8.557479662568415"><ele>204.66666666666669</ele><time>2026-04-11T08:13:11Z</time></trkpt><trkpt lat="45.75540283738576" lon="8.557436962311636"><ele>205.0</ele><time>2026-04-11T08:13:12Z</time></trkpt><trkpt lat="45.755484571886015" lon="8.557405786950344"><ele>205.33333333333334</ele><time>2026-04-11T08:13:13Z</time></trkpt><trkpt lat="45.755565387723514" lon="8.557357892507158"><ele>205.66666666666669</ele><time>2026-04-11T08:13:14Z</time></trkpt><trkpt lat="45.755645308918005" lon="8.557336427314032"><ele>206.0</ele><time>2026-04-11T08:13:15Z</time></trkpt><trkpt lat="45.755741604936304" lon="8.557431784891694"><ele>206.00000000000003</ele><time>2026-04-11T08:13:16Z</time></trkpt><trkpt lat="45.75582461803272" lon="8.557410362398"><ele>206.0</ele><time>2026-04-11T08:13:17Z</time></trkpt><trkpt lat="45.755907784451786" lon="8.557390971301615"><ele>206.0</ele><time>2026-04-11T08:13:18Z</time></trkpt><trkpt lat="45.755991368189065" lon="8.557377758345064"><ele>206.0</ele><time>2026-04-11T08:13:19Z</time></trkpt><trkpt lat="45.75606898490646" lon="8.557366774521691"><ele>206.00000000000003</ele><time>2026-04-11T08:13:20Z</time></trkpt><trkpt lat="45.75614107684279" lon="8.55733963032407"><ele>206.0</ele><time>2026-04-11T08:13:21Z</time></trkpt><trkpt lat="45.75620975970454" lon="8.557330917461439"><ele>206.00000000000003</ele><time>2026-04-11T08:13:22Z</time></trkpt><trkpt lat="45.75631900284877" lon="8.557346830372548"><ele>206.0</ele><time>2026-04-11T08:13:24Z</time></trkpt><trkpt lat="45.75639869622919" lon="8.557352948868502"><ele>206.0</ele><time>2026-04-11T08:13:26Z</time></trkpt><trkpt lat="45.75648810687714" lon="8.557361710536572"><ele>206.0</ele><time>2026-04-11T08:13:29Z</time></trkpt><trkpt lat="45.756575950450326" lon="8.557400496403945"><ele>206.00000000000003</ele><time>2026-04-11T08:13:31Z</time></trkpt><trkpt lat="45.75664624744154" lon="8.557380982181368"><ele>206.0</ele><time>2026-04-11T08:13:33Z</time></trkpt><trkpt lat="45.75682779941409" lon="8.557325264252812"><ele>206.00000000000003</ele><time>2026-04-11T08:13:34Z</time></trkpt><trkpt lat="45.756838919755495" lon="8.557202191397586"><ele>206.0</ele><time>2026-04-11T08:13:35Z</time></trkpt><trkpt lat="45.75684471220041" lon="8.557109555094238"><ele>206.0</ele><time>2026-04-11T08:13:37Z</time></trkpt><trkpt lat="45.75686735634548" lon="8.556985673141796"><ele>206.0</ele><time>2026-04-11T08:13:40Z</time></trkpt><trkpt lat="45.75688959365011" lon="8.556882329830048"><ele>206.00000000000003</ele><time>2026-04-11T08:13:41.999Z</time></trkpt><trkpt lat="45.756969265392684" lon="8.556832562963306"><ele>206.0</ele><time>2026-04-11T08:13:44.999Z</time></trkpt><trkpt lat="45.75701677269554" lon="8.556753101163725"><ele>206.20000000000002</ele><time>2026-04-11T08:13:46.999Z</time></trkpt><trkpt lat="45.75707580933058" lon="8.556659083531498"><ele>206.4</ele><time>2026-04-11T08:13:48.999Z</time></trkpt><trkpt lat="45.75714584790663" lon="8.556547546020303"><ele>206.6</ele><time>2026-04-11T08:13:50.999Z</time></trkpt><trkpt lat="45.75722215680818" lon="8.556422315206156"><ele>206.8</ele><time>2026-04-11T08:13:52.999Z</time></trkpt><trkpt lat="45.75726832765396" lon="8.556347186234918"><ele>207.0</ele><time>2026-04-11T08:13:53.999Z</time></trkpt><trkpt lat="45.75735035301028" lon="8.556213715017048"><ele>207.39999999999998</ele><time>2026-04-11T08:13:55.999Z</time></trkpt><trkpt lat="45.75739618728583" lon="8.556139133591616"><ele>207.79999999999998</ele><time>2026-04-11T08:13:56.999Z</time></trkpt><trkpt lat="45.75747275300729" lon="8.556012883143795"><ele>208.2</ele><time>2026-04-11T08:13:58.999Z</time></trkpt><trkpt lat="45.75753993267068" lon="8.555900718080242"><ele>208.6</ele><time>2026-04-11T08:14:00.999Z</time></trkpt><trkpt lat="45.75760479242115" lon="8.555792037946656"><ele>209.0</ele><time>2026-04-11T08:14:02.999Z</time></trkpt><trkpt lat="45.75765204321467" lon="8.555696904957104"><ele>209.5</ele><time>2026-04-11T08:14:04.999Z</time></trkpt><trkpt lat="45.75785039824181" lon="8.555528119928344"><ele>210.0</ele><time>2026-04-11T08:14:07.999Z</time></trkpt><trkpt lat="45.75781910551633" lon="8.555395888711317"><ele>210.5</ele><time>2026-04-11T08:14:08.999Z</time></trkpt><trkpt lat="45.7577636951092" lon="8.555283854023605"><ele>211.0</ele><time>2026-04-11T08:14:09.999Z</time></trkpt><trkpt lat="45.757732257873634" lon="8.555180299867997"><ele>210.60000000000002</ele><time>2026-04-11T08:14:10.999Z</time></trkpt><trkpt lat="45.7576982503038" lon="8.55506235418637"><ele>210.2</ele><time>2026-04-11T08:14:11.999Z</time></trkpt><trkpt lat="45.75765970457293" lon="8.554932381490545"><ele>209.8</ele><time>2026-04-11T08:14:12.999Z</time></trkpt><trkpt lat="45.75761786164347" lon="8.554814932418367"><ele>209.39999999999998</ele><time>2026-04-11T08:14:13.999Z</time></trkpt><trkpt lat="45.75755124920003" lon="8.554684786430487"><ele>209.0</ele><time>2026-04-11T08:14:14.999Z</time></trkpt><trkpt lat="45.757477272422655" lon="8.554581705662399"><ele>209.0</ele><time>2026-04-11T08:14:15.999Z</time></trkpt><trkpt lat="45.75740168734364" lon="8.554498123941276"><ele>209.0</ele><time>2026-04-11T08:14:16.999Z</time></trkpt><trkpt lat="45.75730570174102" lon="8.554415268243824"><ele>209.0</ele><time>2026-04-11T08:14:17.999Z</time></trkpt><trkpt lat="45.75719588458951" lon="8.554351725191882"><ele>209.0</ele><time>2026-04-11T08:14:18.999Z</time></trkpt><trkpt lat="45.757084307095596" lon="8.554312527296542"><ele>209.0</ele><time>2026-04-11T08:14:19.999Z</time></trkpt><trkpt lat="45.756979181006606" lon="8.55428292452287"><ele>209.0</ele><time>2026-04-11T08:14:20.999Z</time></trkpt><trkpt lat="45.75687617694939" lon="8.554253919235997"><ele>209.0</ele><time>2026-04-11T08:14:21.999Z</time></trkpt><trkpt lat="45.75677184554409" lon="8.554224540194705"><ele>209.0</ele><time>2026-04-11T08:14:22.999Z</time></trkpt><trkpt lat="45.756666980495126" lon="8.554213683521445"><ele>209.0</ele><time>2026-04-11T08:14:23.999Z</time></trkpt><trkpt lat="45.75656928754027" lon="8.554177596500711"><ele>209.0</ele><time>2026-04-11T08:14:24.999Z</time></trkpt><trkpt lat="45.756470659293946" lon="8.554129595816208"><ele>209.6</ele><time>2026-04-11T08:14:25.999Z</time></trkpt><trkpt lat="45.756373407119405" lon="8.554095540279103"><ele>210.2</ele><time>2026-04-11T08:14:26.999Z</time></trkpt><trkpt lat="45.756274009974646" lon="8.554054089387348"><ele>210.79999999999998</ele><time>2026-04-11T08:14:27.999Z</time></trkpt><trkpt lat="45.75618954365904" lon="8.553959665641866"><ele>211.39999999999998</ele><time>2026-04-11T08:14:28.999Z</time></trkpt><trkpt lat="45.75611511195971" lon="8.553848751768761"><ele>212.0</ele><time>2026-04-11T08:14:29.999Z</time></trkpt><trkpt lat="45.7560498308845" lon="8.55372963007537"><ele>212.0</ele><time>2026-04-11T08:14:30.999Z</time></trkpt><trkpt lat="45.75599952999711" lon="8.553585834735376"><ele>212.0</ele><time>2026-04-11T08:14:31.999Z</time></trkpt><trkpt lat="45.75595848387668" lon="8.553437044071009"><ele>212.0</ele><time>2026-04-11T08:14:32.999Z</time></trkpt><trkpt lat="45.75593458454345" lon="8.55328525382642"><ele>212.0</ele><time>2026-04-11T08:14:33.999Z</time></trkpt><trkpt lat="45.75591479751716" lon="8.553130228694839"><ele>212.0</ele><time>2026-04-11T08:14:34.999Z</time></trkpt><trkpt lat="45.75589011712929" lon="8.552989657974878"><ele>212.0</ele><time>2026-04-11T08:14:35.999Z</time></trkpt><trkpt lat="45.75586245816811" lon="8.552860573526502"><ele>212.0</ele><time>2026-04-11T08:14:36.999Z</time></trkpt><trkpt lat="45.75584135114046" lon="8.552738194301796"><ele>212.0</ele><time>2026-04-11T08:14:37.999Z</time></trkpt><trkpt lat="45.755821386960086" lon="8.552616278687116"><ele>212.0</ele><time>2026-04-11T08:14:38.999Z</time></trkpt><trkpt lat="45.755800783253456" lon="8.552486133106692"><ele>212.0</ele><time>2026-04-11T08:14:39.999Z</time></trkpt><trkpt lat="45.75578609986888" lon="8.552341493506443"><ele>212.0</ele><time>2026-04-11T08:14:40.999Z</time></trkpt><trkpt lat="45.7557662227123" lon="8.55218655012316"><ele>212.0</ele><time>2026-04-11T08:14:41.999Z</time></trkpt><trkpt lat="45.75572199246073" lon="8.55203852758706"><ele>212.0</ele><time>2026-04-11T08:14:42.999Z</time></trkpt><trkpt lat="45.75567021206663" lon="8.551893787947753"><ele>212.0</ele><time>2026-04-11T08:14:43.999Z</time></trkpt><trkpt lat="45.75562394266962" lon="8.551752110305694"><ele>212.0</ele><time>2026-04-11T08:14:44.999Z</time></trkpt><trkpt lat="45.755585327028506" lon="8.551616182386907"><ele>212.16666666666669</ele><time>2026-04-11T08:14:45.999Z</time></trkpt><trkpt lat="45.75554049108152" lon="8.55149636320664"><ele>212.33333333333334</ele><time>2026-04-11T08:14:46.999Z</time></trkpt><trkpt lat="45.75549891798538" lon="8.551389812087887"><ele>212.5</ele><time>2026-04-11T08:14:47.999Z</time></trkpt><trkpt lat="45.755453564452" lon="8.551289610531237"><ele>212.66666666666669</ele><time>2026-04-11T08:14:48.999Z</time></trkpt><trkpt lat="45.75541230865003" lon="8.55117874955637"><ele>212.83333333333334</ele><time>2026-04-11T08:14:49.999Z</time></trkpt><trkpt lat="45.75537468266426" lon="8.551056543546004"><ele>213.0</ele><time>2026-04-11T08:14:50.999Z</time></trkpt><trkpt lat="45.75534052107181" lon="8.550919861291908"><ele>213.0</ele><time>2026-04-11T08:14:51.999Z</time></trkpt><trkpt lat="45.75529253934433" lon="8.550779193206843"><ele>213.0</ele><time>2026-04-11T08:14:52.999Z</time></trkpt><trkpt lat="45.75524455614561" lon="8.55063807456789"><ele>213.0</ele><time>2026-04-11T08:14:53.999Z</time></trkpt><trkpt lat="45.755199619658896" lon="8.550493626511374"><ele>213.0</ele><time>2026-04-11T08:14:54.999Z</time></trkpt><trkpt lat="45.75516383220369" lon="8.550340200883342"><ele>213.0</ele><time>2026-04-11T08:14:55.999Z</time></trkpt><trkpt lat="45.75512291078499" lon="8.550185876438086"><ele>213.0</ele><time>2026-04-11T08:14:56.999Z</time></trkpt><trkpt lat="45.75508693544124" lon="8.550033246219325"><ele>213.0</ele><time>2026-04-11T08:14:57.999Z</time></trkpt><trkpt lat="45.75504930812327" lon="8.549880980282104"><ele>213.0</ele><time>2026-04-11T08:14:58.999Z</time></trkpt><trkpt lat="45.75501513357982" lon="8.549725209571639"><ele>213.0</ele><time>2026-04-11T08:14:59.999Z</time></trkpt><trkpt lat="45.75498001991014" lon="8.549563327335651"><ele>213.75</ele><time>2026-04-11T08:15:00.999Z</time></trkpt><trkpt lat="45.75493909717482" lon="8.549402367095231"><ele>214.5</ele><time>2026-04-11T08:15:01.999Z</time></trkpt><trkpt lat="45.75490228248603" lon="8.54924135170203"><ele>215.25</ele><time>2026-04-11T08:15:02.999Z</time></trkpt><trkpt lat="45.754864428028036" lon="8.549079765184342"><ele>216.0</ele><time>2026-04-11T08:15:03.999Z</time></trkpt><trkpt lat="45.754829721045766" lon="8.548914139828975"><ele>216.0</ele><time>2026-04-11T08:15:04.999Z</time></trkpt><trkpt lat="45.754754202463474" lon="8.548761865464607"><ele>216.0</ele><time>2026-04-11T08:15:05.999Z</time></trkpt><trkpt lat="45.754716897858096" lon="8.54859711159609"><ele>216.0</ele><time>2026-04-11T08:15:06.999Z</time></trkpt><trkpt lat="45.75468273130169" lon="8.548436427893494"><ele>216.0</ele><time>2026-04-11T08:15:07.999Z</time></trkpt><trkpt lat="45.75465663748132" lon="8.548288665133665"><ele>216.16666666666666</ele><time>2026-04-11T08:15:08.999Z</time></trkpt><trkpt lat="45.754635934088746" lon="8.548153487509847"><ele>216.33333333333331</ele><time>2026-04-11T08:15:09.999Z</time></trkpt><trkpt lat="45.75462873207292" lon="8.548025344500294"><ele>216.5</ele><time>2026-04-11T08:15:10.999Z</time></trkpt><trkpt lat="45.75461271343157" lon="8.54791803448145"><ele>216.66666666666666</ele><time>2026-04-11T08:15:11.999Z</time></trkpt><trkpt lat="45.75461687793609" lon="8.547810653856319"><ele>216.83333333333331</ele><time>2026-04-11T08:15:12.999Z</time></trkpt><trkpt lat="45.75460876689102" lon="8.54769642809818"><ele>217.0</ele><time>2026-04-11T08:15:13.999Z</time></trkpt><trkpt lat="45.75459146704209" lon="8.547584693049052"><ele>217.0</ele><time>2026-04-11T08:15:14.999Z</time></trkpt><trkpt lat="45.75456031189601" lon="8.547487459815093"><ele>217.0</ele><time>2026-04-11T08:15:15.999Z</time></trkpt><trkpt lat="45.754522762235375" lon="8.547386938609975"><ele>217.0</ele><time>2026-04-11T08:15:16.999Z</time></trkpt><trkpt lat="45.7544989047857" lon="8.547258938158322"><ele>217.0</ele><time>2026-04-11T08:15:17.999Z</time></trkpt><trkpt lat="45.75448807196236" lon="8.547117174389177"><ele>217.0</ele><time>2026-04-11T08:15:18.999Z</time></trkpt><trkpt lat="45.75448624154804" lon="8.546968473797987"><ele>217.0</ele><time>2026-04-11T08:15:19.999Z</time></trkpt><trkpt lat="45.7544841142896" lon="8.546819439022615"><ele>217.0</ele><time>2026-04-11T08:15:20.999Z</time></trkpt><trkpt lat="45.754485424590435" lon="8.546667953480455"><ele>217.0</ele><time>2026-04-11T08:15:21.999Z</time></trkpt><trkpt lat="45.75449789580418" lon="8.546512599340822"><ele>217.0</ele><time>2026-04-11T08:15:22.999Z</time></trkpt><trkpt lat="45.7545079228375" lon="8.546351556790077"><ele>217.0</ele><time>2026-04-11T08:15:23.999Z</time></trkpt><trkpt lat="45.75451976473478" lon="8.546187083221763"><ele>217.25</ele><time>2026-04-11T08:15:24.999Z</time></trkpt><trkpt lat="45.75453826746324" lon="8.546024273844663"><ele>217.5</ele><time>2026-04-11T08:15:25.999Z</time></trkpt><trkpt lat="45.75455497123145" lon="8.54586094373839"><ele>217.75</ele><time>2026-04-11T08:15:26.999Z</time></trkpt><trkpt lat="45.75456801151919" lon="8.54569844554901"><ele>218.0</ele><time>2026-04-11T08:15:27.999Z</time></trkpt><trkpt lat="45.75458215593427" lon="8.545548683706734"><ele>218.0</ele><time>2026-04-11T08:15:28.999Z</time></trkpt><trkpt lat="45.75460348211489" lon="8.545415768187116"><ele>218.0</ele><time>2026-04-11T08:15:29.999Z</time></trkpt><trkpt lat="45.75461307963238" lon="8.545286579774412"><ele>218.0</ele><time>2026-04-11T08:15:30.999Z</time></trkpt><trkpt lat="45.754624521936655" lon="8.545158942434794"><ele>218.0</ele><time>2026-04-11T08:15:31.999Z</time></trkpt><trkpt lat="45.75462749367815" lon="8.54502476324423"><ele>218.0</ele><time>2026-04-11T08:15:32.999Z</time></trkpt><trkpt lat="45.754621761403634" lon="8.544886278884983"><ele>218.5</ele><time>2026-04-11T08:15:33.999Z</time></trkpt><trkpt lat="45.75456632888779" lon="8.544745597862727"><ele>219.0</ele><time>2026-04-11T08:15:34.999Z</time></trkpt><trkpt lat="45.75453033088988" lon="8.544587337782074"><ele>219.5</ele><time>2026-04-11T08:15:35.999Z</time></trkpt><trkpt lat="45.7545290649706" lon="8.54438884973825"><ele>220.0</ele><time>2026-04-11T08:15:36.999Z</time></trkpt><trkpt lat="45.754480997654326" lon="8.544202528634939"><ele>220.33333333333331</ele><time>2026-04-11T08:15:37.999Z</time></trkpt><trkpt lat="45.75441027762324" lon="8.54401647652529"><ele>220.66666666666669</ele><time>2026-04-11T08:15:38.999Z</time></trkpt><trkpt lat="45.754316102863356" lon="8.543832579085807"><ele>221.0</ele><time>2026-04-11T08:15:39.999Z</time></trkpt><trkpt lat="45.754195930886375" lon="8.543661745555516"><ele>222.66666666666669</ele><time>2026-04-11T08:15:40.999Z</time></trkpt><trkpt lat="45.754061025811865" lon="8.543477659735421"><ele>224.33333333333331</ele><time>2026-04-11T08:15:41.999Z</time></trkpt><trkpt lat="45.753932480691034" lon="8.543270577354377"><ele>226.0</ele><time>2026-04-11T08:15:42.999Z</time></trkpt><trkpt lat="45.753806740619446" lon="8.543057835682701"><ele>225.66666666666666</ele><time>2026-04-11T08:15:43.999Z</time></trkpt><trkpt lat="45.75368903467328" lon="8.542832203526642"><ele>225.33333333333331</ele><time>2026-04-11T08:15:44.999Z</time></trkpt><trkpt lat="45.753560751320144" lon="8.542598442641376"><ele>225.0</ele><time>2026-04-11T08:15:45.999Z</time></trkpt><trkpt lat="45.753432561391435" lon="8.542347803994977"><ele>225.0</ele><time>2026-04-11T08:15:46.999Z</time></trkpt><trkpt lat="45.75329605377443" lon="8.542108770120814"><ele>225.0</ele><time>2026-04-11T08:15:47.999Z</time></trkpt><trkpt lat="45.753156232409324" lon="8.5418482724037"><ele>225.0</ele><time>2026-04-11T08:15:48.999Z</time></trkpt><trkpt lat="45.75301963539466" lon="8.54157704482947"><ele>225.0</ele><time>2026-04-11T08:15:49.999Z</time></trkpt><trkpt lat="45.75288546797422" lon="8.541312614864676"><ele>225.0</ele><time>2026-04-11T08:15:50.999Z</time></trkpt><trkpt lat="45.75275340105138" lon="8.541052353453441"><ele>226.0</ele><time>2026-04-11T08:15:51.999Z</time></trkpt><trkpt lat="45.75261789080046" lon="8.540782964043522"><ele>227.0</ele><time>2026-04-11T08:15:52.999Z</time></trkpt><trkpt lat="45.75248728922058" lon="8.54050533659689"><ele>226.33333333333334</ele><time>2026-04-11T08:15:53.999Z</time></trkpt><trkpt lat="45.7523694439815" lon="8.540241909058603"><ele>225.66666666666669</ele><time>2026-04-11T08:15:54.999Z</time></trkpt><trkpt lat="45.75225295493733" lon="8.539973358473109"><ele>225.0</ele><time>2026-04-11T08:15:55.999Z</time></trkpt><trkpt lat="45.75213408997369" lon="8.539722976845075"><ele>225.0</ele><time>2026-04-11T08:15:56.999Z</time></trkpt><trkpt lat="45.752006460322406" lon="8.539452857472027"><ele>225.0</ele><time>2026-04-11T08:15:57.999Z</time></trkpt><trkpt lat="45.751897440484434" lon="8.539208092788709"><ele>225.0</ele><time>2026-04-11T08:15:58.999Z</time></trkpt><trkpt lat="45.751793927842435" lon="8.538980247496967"><ele>227.33333333333331</ele><time>2026-04-11T08:15:59.999Z</time></trkpt><trkpt lat="45.751694264701186" lon="8.538771451782956"><ele>229.66666666666666</ele><time>2026-04-11T08:16:00.999Z</time></trkpt><trkpt lat="45.751608926496935" lon="8.538549222454206"><ele>232.0</ele><time>2026-04-11T08:16:01.999Z</time></trkpt><trkpt lat="45.751548280144725" lon="8.538317416669619"><ele>232.33333333333331</ele><time>2026-04-11T08:16:02.999Z</time></trkpt><trkpt lat="45.75151261394654" lon="8.538047996110814"><ele>232.66666666666669</ele><time>2026-04-11T08:16:03.999Z</time></trkpt><trkpt lat="45.75149776043925" lon="8.537811810561118"><ele>233.0</ele><time>2026-04-11T08:16:04.999Z</time></trkpt><trkpt lat="45.751502750679514" lon="8.5375743578244"><ele>237.33333333333334</ele><time>2026-04-11T08:16:05.999Z</time></trkpt><trkpt lat="45.751455236774696" lon="8.537372347561488"><ele>241.66666666666669</ele><time>2026-04-11T08:16:06.999Z</time></trkpt><trkpt lat="45.75139187842599" lon="8.537172028222674"><ele>246.0</ele><time>2026-04-11T08:16:07.999Z</time></trkpt><trkpt lat="45.751311171463236" lon="8.536994477843688"><ele>248.0</ele><time>2026-04-11T08:16:09Z</time></trkpt><trkpt lat="45.75118750319565" lon="8.53688645991829"><ele>250.0</ele><time>2026-04-11T08:16:10Z</time></trkpt><trkpt lat="45.7510685297336" lon="8.536788896467886"><ele>252.0</ele><time>2026-04-11T08:16:11Z</time></trkpt><trkpt lat="45.750921075920644" lon="8.536717399478851"><ele>254.0</ele><time>2026-04-11T08:16:12Z</time></trkpt><trkpt lat="45.75075967323774" lon="8.536682377823565"><ele>255.25</ele><time>2026-04-11T08:16:13Z</time></trkpt><trkpt lat="45.75062185000008" lon="8.536708872393994"><ele>256.5</ele><time>2026-04-11T08:16:14Z</time></trkpt><trkpt lat="45.75048100902006" lon="8.536765308004975"><ele>257.75</ele><time>2026-04-11T08:16:15Z</time></trkpt><trkpt lat="45.75034713939933" lon="8.536862607100643"><ele>259.0</ele><time>2026-04-11T08:16:16Z</time></trkpt><trkpt lat="45.750209481689474" lon="8.536985451286906"><ele>261.0</ele><time>2026-04-11T08:16:17Z</time></trkpt><trkpt lat="45.75010435424428" lon="8.53717451789655"><ele>263.0</ele><time>2026-04-11T08:16:18Z</time></trkpt><trkpt lat="45.75002777264766" lon="8.537403073207583"><ele>265.0</ele><time>2026-04-11T08:16:19Z</time></trkpt><trkpt lat="45.74992687371345" lon="8.537664913058709"><ele>263.0</ele><time>2026-04-11T08:16:20Z</time></trkpt><trkpt lat="45.749894962519626" lon="8.53796617360765"><ele>261.0</ele><time>2026-04-11T08:16:21Z</time></trkpt><trkpt lat="45.74977515018912" lon="8.53817711967386"><ele>259.0</ele><time>2026-04-11T08:16:22Z</time></trkpt><trkpt lat="45.749684591235486" lon="8.538371627872618"><ele>259.0</ele><time>2026-04-11T08:16:23Z</time></trkpt><trkpt lat="45.7496035429988" lon="8.53855679972207"><ele>259.0</ele><time>2026-04-11T08:16:24Z</time></trkpt><trkpt lat="45.7495110720841" lon="8.538672526413931"><ele>259.0</ele><time>2026-04-11T08:16:25Z</time></trkpt><trkpt lat="45.749404973947975" lon="8.538736953571002"><ele>259.0</ele><time>2026-04-11T08:16:26Z</time></trkpt><trkpt lat="45.749307370322775" lon="8.538724586371078"><ele>261.25</ele><time>2026-04-11T08:16:27Z</time></trkpt><trkpt lat="45.74918284721897" lon="8.5386398209868"><ele>263.5</ele><time>2026-04-11T08:16:28Z</time></trkpt><trkpt lat="45.74907724761123" lon="8.538496419832386"><ele>265.75</ele><time>2026-04-11T08:16:29Z</time></trkpt><trkpt lat="45.74901062358992" lon="8.538325830098255"><ele>268.0</ele><time>2026-04-11T08:16:30Z</time></trkpt><trkpt lat="45.74897487576966" lon="8.538117861221064"><ele>270.66666666666663</ele><time>2026-04-11T08:16:31Z</time></trkpt><trkpt lat="45.74898108762585" lon="8.537865391970673"><ele>273.3333333333333</ele><time>2026-04-11T08:16:32Z</time></trkpt><trkpt lat="45.74898071305867" lon="8.537590184789163"><ele>276.0</ele><time>2026-04-11T08:16:33Z</time></trkpt><trkpt lat="45.74898764575541" lon="8.537296339738802"><ele>278.3333333333333</ele><time>2026-04-11T08:16:34Z</time></trkpt><trkpt lat="45.74898031912388" lon="8.537025701165364"><ele>280.66666666666663</ele><time>2026-04-11T08:16:35Z</time></trkpt><trkpt lat="45.74899708836623" lon="8.536751195002674"><ele>283.0</ele><time>2026-04-11T08:16:36Z</time></trkpt><trkpt lat="45.74899940439194" lon="8.536514887542577"><ele>283.0</ele><time>2026-04-11T08:16:37Z</time></trkpt><trkpt lat="45.74900110489843" lon="8.536276696941187"><ele>283.0</ele><time>2026-04-11T08:16:38Z</time></trkpt><trkpt lat="45.748995024068556" lon="8.536019029954614"><ele>283.0</ele><time>2026-04-11T08:16:39Z</time></trkpt><trkpt lat="45.74899371987362" lon="8.535763204982885"><ele>284.66666666666663</ele><time>2026-04-11T08:16:40Z</time></trkpt><trkpt lat="45.74899753280109" lon="8.535548636494052"><ele>286.3333333333333</ele><time>2026-04-11T08:16:41Z</time></trkpt><trkpt lat="45.74899850230328" lon="8.53530914190711"><ele>288.0</ele><time>2026-04-11T08:16:42Z</time></trkpt><trkpt lat="45.74900531308517" lon="8.535071485437532"><ele>289.0</ele><time>2026-04-11T08:16:43Z</time></trkpt><trkpt lat="45.74901850353355" lon="8.53485592391834"><ele>290.0</ele><time>2026-04-11T08:16:44Z</time></trkpt><trkpt lat="45.749024251586384" lon="8.534632706992758"><ele>291.0</ele><time>2026-04-11T08:16:45Z</time></trkpt><trkpt lat="45.749047640598775" lon="8.53441611640911"><ele>292.3333333333333</ele><time>2026-04-11T08:16:46Z</time></trkpt><trkpt lat="45.74906080261213" lon="8.534185538108511"><ele>293.66666666666663</ele><time>2026-04-11T08:16:47Z</time></trkpt><trkpt lat="45.74906453756296" lon="8.533953089709797"><ele>295.0</ele><time>2026-04-11T08:16:48Z</time></trkpt><trkpt lat="45.74905750292433" lon="8.533719302017973"><ele>295.0</ele><time>2026-04-11T08:16:49Z</time></trkpt><trkpt lat="45.74904745452071" lon="8.53351286386252"><ele>295.0</ele><time>2026-04-11T08:16:50Z</time></trkpt><trkpt lat="45.74904621993162" lon="8.533290803299526"><ele>295.0</ele><time>2026-04-11T08:16:51Z</time></trkpt><trkpt lat="45.74905362204729" lon="8.533074955581881"><ele>296.5</ele><time>2026-04-11T08:16:52Z</time></trkpt><trkpt lat="45.74904714598284" lon="8.532878695248266"><ele>298.0</ele><time>2026-04-11T08:16:53Z</time></trkpt><trkpt lat="45.74903289481438" lon="8.532688329520465"><ele>299.5</ele><time>2026-04-11T08:16:54Z</time></trkpt><trkpt lat="45.74904914789405" lon="8.532480186456743"><ele>301.0</ele><time>2026-04-11T08:16:55Z</time></trkpt><trkpt lat="45.74905495151953" lon="8.532261593443197"><ele>301.0</ele><time>2026-04-11T08:16:56Z</time></trkpt><trkpt lat="45.749051375104145" lon="8.532093332195233"><ele>301.0</ele><time>2026-04-11T08:16:57Z</time></trkpt><trkpt lat="45.74905074416096" lon="8.531760569193642"><ele>301.0</ele><time>2026-04-11T08:16:59Z</time></trkpt><trkpt lat="45.74905940196162" lon="8.531622006078575"><ele>301.0</ele><time>2026-04-11T08:17:00Z</time></trkpt><trkpt lat="45.749062169069234" lon="8.531493633054383"><ele>301.16666666666663</ele><time>2026-04-11T08:17:01Z</time></trkpt><trkpt lat="45.749065218677124" lon="8.531389120681704"><ele>301.3333333333333</ele><time>2026-04-11T08:17:02Z</time></trkpt><trkpt lat="45.74905348854908" lon="8.531295095547573"><ele>301.5</ele><time>2026-04-11T08:17:03Z</time></trkpt><trkpt lat="45.749071412376715" lon="8.531184868102264"><ele>301.6666666666667</ele><time>2026-04-11T08:17:04Z</time></trkpt><trkpt lat="45.74905238169852" lon="8.531015130441501"><ele>301.83333333333337</ele><time>2026-04-11T08:17:06Z</time></trkpt><trkpt lat="45.749033429927195" lon="8.530907491966813"><ele>302.0</ele><time>2026-04-11T08:17:08Z</time></trkpt><trkpt lat="45.749013786787465" lon="8.530772090835773"><ele>301.6666666666667</ele><time>2026-04-11T08:17:10Z</time></trkpt><trkpt lat="45.74902735903881" lon="8.530664592122633"><ele>301.33333333333337</ele><time>2026-04-11T08:17:12Z</time></trkpt><trkpt lat="45.74903950643177" lon="8.530546942953043"><ele>301.0</ele><time>2026-04-11T08:17:14Z</time></trkpt><trkpt lat="45.74898349607556" lon="8.530463495198989"><ele>300.6666666666667</ele><time>2026-04-11T08:17:15Z</time></trkpt><trkpt lat="45.74900886394268" lon="8.530322980841868"><ele>300.3333333333333</ele><time>2026-04-11T08:17:17Z</time></trkpt><trkpt lat="45.74902488045983" lon="8.53023250131922"><ele>300.0</ele><time>2026-04-11T08:17:21Z</time></trkpt><trkpt lat="45.749091914040775" lon="8.53024911807003"><ele>300.0</ele><time>2026-04-11T08:17:41Z</time></trkpt><trkpt lat="45.7490824036467" lon="8.53010497635508"><ele>300.0</ele><time>2026-04-11T08:17:46Z</time></trkpt><trkpt lat="45.74911158164248" lon="8.529992373864378"><ele>300.0</ele><time>2026-04-11T08:17:47Z</time></trkpt><trkpt lat="45.74915812848763" lon="8.529885833196783"><ele>300.0</ele><time>2026-04-11T08:17:48Z</time></trkpt><trkpt lat="45.749178516740955" lon="8.529787278013805"><ele>300.0</ele><time>2026-04-11T08:17:49Z</time></trkpt><trkpt lat="45.74919755452438" lon="8.529654108064468"><ele>300.0</ele><time>2026-04-11T08:17:50Z</time></trkpt><trkpt lat="45.74920992461791" lon="8.529526871336909"><ele>300.2</ele><time>2026-04-11T08:17:51Z</time></trkpt><trkpt lat="45.749197130004006" lon="8.529387799969493"><ele>300.4</ele><time>2026-04-11T08:17:52Z</time></trkpt><trkpt lat="45.74917528085805" lon="8.529261334089885"><ele>300.6</ele><time>2026-04-11T08:17:53Z</time></trkpt><trkpt lat="45.749128477340534" lon="8.529135438770412"><ele>300.8</ele><time>2026-04-11T08:17:54Z</time></trkpt><trkpt lat="45.74908612962451" lon="8.52901274304889"><ele>301.0</ele><time>2026-04-11T08:17:55Z</time></trkpt><trkpt lat="45.7490588101263" lon="8.528900118345113"><ele>301.0</ele><time>2026-04-11T08:17:56Z</time></trkpt><trkpt lat="45.749013809555535" lon="8.528806686741879"><ele>301.0</ele><time>2026-04-11T08:17:57Z</time></trkpt><trkpt lat="45.74897285268069" lon="8.528725421226378"><ele>301.0</ele><time>2026-04-11T08:17:58Z</time></trkpt><trkpt lat="45.74893682233579" lon="8.52861596838887"><ele>301.0</ele><time>2026-04-11T08:17:59Z</time></trkpt><trkpt lat="45.7488814673409" lon="8.528474392437317"><ele>301.0</ele><time>2026-04-11T08:18:01Z</time></trkpt><trkpt lat="45.74885407504365" lon="8.528354162144938"><ele>301.0</ele><time>2026-04-11T08:18:02Z</time></trkpt><trkpt lat="45.74877139157027" lon="8.528293920434104"><ele>299.66666666666663</ele><time>2026-04-11T08:18:03Z</time></trkpt><trkpt lat="45.74871602476874" lon="8.528206251708275"><ele>298.3333333333333</ele><time>2026-04-11T08:18:04Z</time></trkpt><trkpt lat="45.74867338211398" lon="8.528106044355352"><ele>297.0</ele><time>2026-04-11T08:18:05Z</time></trkpt><trkpt lat="45.74864797666223" lon="8.527981469572596"><ele>295.6666666666667</ele><time>2026-04-11T08:18:06Z</time></trkpt><trkpt lat="45.74870269791678" lon="8.527897750544442"><ele>294.33333333333337</ele><time>2026-04-11T08:18:09Z</time></trkpt><trkpt lat="45.74875054396417" lon="8.527823100244632"><ele>293.0</ele><time>2026-04-11T08:18:11Z</time></trkpt><trkpt lat="45.74880714250987" lon="8.527727507410562"><ele>293.0</ele><time>2026-04-11T08:18:13Z</time></trkpt><trkpt lat="45.74888679288631" lon="8.527587605770648"><ele>293.0</ele><time>2026-04-11T08:18:15Z</time></trkpt><trkpt lat="45.74893864627619" lon="8.527503858261962"><ele>293.0</ele><time>2026-04-11T08:18:16Z</time></trkpt><trkpt lat="45.74898106659765" lon="8.527422584742144"><ele>293.0</ele><time>2026-04-11T08:18:17Z</time></trkpt><trkpt lat="45.748993980751486" lon="8.5273160562968"><ele>293.0</ele><time>2026-04-11T08:18:18Z</time></trkpt><trkpt lat="45.74895323766631" lon="8.527222324554982"><ele>293.0</ele><time>2026-04-11T08:18:20Z</time></trkpt><trkpt lat="45.74882450078649" lon="8.52710490053417"><ele>293.0</ele><time>2026-04-11T08:18:22Z</time></trkpt><trkpt lat="45.748761085345905" lon="8.52707595585717"><ele>293.0</ele><time>2026-04-11T08:18:23Z</time></trkpt><trkpt lat="45.74869540291357" lon="8.526996236799436"><ele>293.0</ele><time>2026-04-11T08:18:25Z</time></trkpt><trkpt lat="45.74875711596638" lon="8.526849274240822"><ele>293.0</ele><time>2026-04-11T08:18:32Z</time></trkpt><trkpt lat="45.74880299511607" lon="8.526734435140527"><ele>293.0</ele><time>2026-04-11T08:18:33Z</time></trkpt><trkpt lat="45.74884118422768" lon="8.526638845836121"><ele>293.0</ele><time>2026-04-11T08:18:34Z</time></trkpt><trkpt lat="45.74891021708312" lon="8.526467721709128"><ele>293.25</ele><time>2026-04-11T08:18:36Z</time></trkpt><trkpt lat="45.74896093311025" lon="8.526343419093521"><ele>293.5</ele><time>2026-04-11T08:18:37Z</time></trkpt><trkpt lat="45.74903326629556" lon="8.526166133862967"><ele>293.75</ele><time>2026-04-11T08:18:38Z</time></trkpt><trkpt lat="45.749104062865044" lon="8.52599380253003"><ele>294.0</ele><time>2026-04-11T08:18:39Z</time></trkpt><trkpt lat="45.74916391970578" lon="8.525827215349985"><ele>294.25</ele><time>2026-04-11T08:18:40Z</time></trkpt><trkpt lat="45.74919520715449" lon="8.5256649287186"><ele>294.5</ele><time>2026-04-11T08:18:41Z</time></trkpt><trkpt lat="45.74926006934225" lon="8.52547604173485"><ele>294.75</ele><time>2026-04-11T08:18:42Z</time></trkpt><trkpt lat="45.74932230743249" lon="8.525288730989242"><ele>295.0</ele><time>2026-04-11T08:18:43Z</time></trkpt><trkpt lat="45.749362811114004" lon="8.525118043249153"><ele>295.4</ele><time>2026-04-11T08:18:44Z</time></trkpt><trkpt lat="45.74942593069771" lon="8.524972129707251"><ele>295.8</ele><time>2026-04-11T08:18:45Z</time></trkpt><trkpt lat="45.74946679865367" lon="8.52487315615104"><ele>296.2</ele><time>2026-04-11T08:18:46Z</time></trkpt><trkpt lat="45.74952086639566" lon="8.524749397580246"><ele>296.6</ele><time>2026-04-11T08:18:47Z</time></trkpt><trkpt lat="45.74959145546055" lon="8.52461818681526"><ele>297.0</ele><time>2026-04-11T08:18:48Z</time></trkpt><trkpt lat="45.749660194842505" lon="8.524490861648452"><ele>297.0</ele><time>2026-04-11T08:18:49Z</time></trkpt><trkpt lat="45.74971838727888" lon="8.524388637487217"><ele>297.0</ele><time>2026-04-11T08:18:50Z</time></trkpt><trkpt lat="45.74979029260653" lon="8.524262172337913"><ele>297.0</ele><time>2026-04-11T08:18:51Z</time></trkpt><trkpt lat="45.74986590076683" lon="8.524149202363493"><ele>297.0</ele><time>2026-04-11T08:18:52Z</time></trkpt><trkpt lat="45.74994651694351" lon="8.52402922812965"><ele>297.0</ele><time>2026-04-11T08:18:53Z</time></trkpt><trkpt lat="45.75003571734988" lon="8.523890337596837"><ele>297.0</ele><time>2026-04-11T08:18:54Z</time></trkpt><trkpt lat="45.75012270325427" lon="8.523748554548808"><ele>297.0</ele><time>2026-04-11T08:18:55Z</time></trkpt><trkpt lat="45.75020750391973" lon="8.523586125652514"><ele>297.0</ele><time>2026-04-11T08:18:56Z</time></trkpt><trkpt lat="45.75028929825126" lon="8.523417496795677"><ele>297.0</ele><time>2026-04-11T08:18:56.999Z</time></trkpt><trkpt lat="45.750369516018296" lon="8.52324655794351"><ele>297.6666666666667</ele><time>2026-04-11T08:18:57.999Z</time></trkpt><trkpt lat="45.75045368295326" lon="8.523067014381247"><ele>298.33333333333337</ele><time>2026-04-11T08:18:58.999Z</time></trkpt><trkpt lat="45.750539197952335" lon="8.522884596086623"><ele>299.0</ele><time>2026-04-11T08:18:59.999Z</time></trkpt><trkpt lat="45.75062406262874" lon="8.522703279585555"><ele>299.0</ele><time>2026-04-11T08:19:00.999Z</time></trkpt><trkpt lat="45.75070820147079" lon="8.522523591123063"><ele>299.0</ele><time>2026-04-11T08:19:01.999Z</time></trkpt><trkpt lat="45.750790878526146" lon="8.522347024453506"><ele>299.0</ele><time>2026-04-11T08:19:02.999Z</time></trkpt><trkpt lat="45.75086868149297" lon="8.522162984063689"><ele>301.0</ele><time>2026-04-11T08:19:03.999Z</time></trkpt><trkpt lat="45.75092795327631" lon="8.521960736816961"><ele>303.0</ele><time>2026-04-11T08:19:04.999Z</time></trkpt><trkpt lat="45.75095719974422" lon="8.52174536989417"><ele>305.0</ele><time>2026-04-11T08:19:05.999Z</time></trkpt><trkpt lat="45.75094645398917" lon="8.521520918356314"><ele>305.0</ele><time>2026-04-11T08:19:06.999Z</time></trkpt><trkpt lat="45.7509154828325" lon="8.521310205063804"><ele>305.0</ele><time>2026-04-11T08:19:07.999Z</time></trkpt><trkpt lat="45.75091817151877" lon="8.521095002483937"><ele>305.0</ele><time>2026-04-11T08:19:08.999Z</time></trkpt><trkpt lat="45.75090461793547" lon="8.52088246031929"><ele>305.0</ele><time>2026-04-11T08:19:09.999Z</time></trkpt><trkpt lat="45.750891135458815" lon="8.520671033202643"><ele>305.0</ele><time>2026-04-11T08:19:10.999Z</time></trkpt><trkpt lat="45.75087835859006" lon="8.520470671375822"><ele>305.0</ele><time>2026-04-11T08:19:11.999Z</time></trkpt><trkpt lat="45.7508666812072" lon="8.520282289970071"><ele>305.0</ele><time>2026-04-11T08:19:12.999Z</time></trkpt><trkpt lat="45.75085555974855" lon="8.520103173212672"><ele>305.0</ele><time>2026-04-11T08:19:13.999Z</time></trkpt><trkpt lat="45.750827405125754" lon="8.519934696254797"><ele>305.6</ele><time>2026-04-11T08:19:14.999Z</time></trkpt><trkpt lat="45.75081311256161" lon="8.51977196364577"><ele>306.2</ele><time>2026-04-11T08:19:15.999Z</time></trkpt><trkpt lat="45.7507809795697" lon="8.519616351825052"><ele>306.8</ele><time>2026-04-11T08:19:16.999Z</time></trkpt><trkpt lat="45.75072430897413" lon="8.519480808664607"><ele>307.4</ele><time>2026-04-11T08:19:17.999Z</time></trkpt><trkpt lat="45.750643172069815" lon="8.519373016224518"><ele>308.0</ele><time>2026-04-11T08:19:18.999Z</time></trkpt><trkpt lat="45.75054215972077" lon="8.519310933213667"><ele>310.5</ele><time>2026-04-11T08:19:19.999Z</time></trkpt><trkpt lat="45.75043079573833" lon="8.51930804634378"><ele>313.0</ele><time>2026-04-11T08:19:20.999Z</time></trkpt><trkpt lat="45.75031907634093" lon="8.519325766978715"><ele>315.5</ele><time>2026-04-11T08:19:21.999Z</time></trkpt><trkpt lat="45.75020953081004" lon="8.519380772315937"><ele>318.0</ele><time>2026-04-11T08:19:22.999Z</time></trkpt><trkpt lat="45.75009646227348" lon="8.519399653906113"><ele>318.4</ele><time>2026-04-11T08:19:23.999Z</time></trkpt><trkpt lat="45.74998438892592" lon="8.519398578262818"><ele>318.8</ele><time>2026-04-11T08:19:24.999Z</time></trkpt><trkpt lat="45.74988547372797" lon="8.519435824075188"><ele>319.2</ele><time>2026-04-11T08:19:25.999Z</time></trkpt><trkpt lat="45.74979591261736" lon="8.519460018802164"><ele>319.6</ele><time>2026-04-11T08:19:26.999Z</time></trkpt><trkpt lat="45.74970826288837" lon="8.519476731060083"><ele>320.0</ele><time>2026-04-11T08:19:27.999Z</time></trkpt><trkpt lat="45.74961849774242" lon="8.519486836773853"><ele>320.0</ele><time>2026-04-11T08:19:28.999Z</time></trkpt><trkpt lat="45.749535597504554" lon="8.519455300942166"><ele>320.0</ele><time>2026-04-11T08:19:29.999Z</time></trkpt><trkpt lat="45.7494740106721" lon="8.51936888376395"><ele>320.0</ele><time>2026-04-11T08:19:30.999Z</time></trkpt><trkpt lat="45.74944411134421" lon="8.519252473961933"><ele>320.0</ele><time>2026-04-11T08:19:31.999Z</time></trkpt><trkpt lat="45.749448628050175" lon="8.519132198190842"><ele>320.0</ele><time>2026-04-11T08:19:32.999Z</time></trkpt><trkpt lat="45.74950832720787" lon="8.51905481243527"><ele>320.0</ele><time>2026-04-11T08:19:33.999Z</time></trkpt><trkpt lat="45.74958589521423" lon="8.518989702034638"><ele>320.0</ele><time>2026-04-11T08:19:34.999Z</time></trkpt><trkpt lat="45.74967042922885" lon="8.518938515617386"><ele>320.0</ele><time>2026-04-11T08:19:35.999Z</time></trkpt><trkpt lat="45.74975396444087" lon="8.518886656267394"><ele>320.0</ele><time>2026-04-11T08:19:36.999Z</time></trkpt><trkpt lat="45.7498353134434" lon="8.51881333122807"><ele>320.0</ele><time>2026-04-11T08:19:37.999Z</time></trkpt><trkpt lat="45.74988758606899" lon="8.518706504569817"><ele>320.0</ele><time>2026-04-11T08:19:38.999Z</time></trkpt><trkpt lat="45.7499378989396" lon="8.518609010668019"><ele>321.1666666666667</ele><time>2026-04-11T08:19:39.999Z</time></trkpt><trkpt lat="45.749969614934905" lon="8.518491118549846"><ele>322.33333333333337</ele><time>2026-04-11T08:19:40.999Z</time></trkpt><trkpt lat="45.74997169520674" lon="8.518366948155485"><ele>323.5</ele><time>2026-04-11T08:19:41.999Z</time></trkpt><trkpt lat="45.74995441561832" lon="8.518240869504764"><ele>324.6666666666667</ele><time>2026-04-11T08:19:42.999Z</time></trkpt><trkpt lat="45.749934317446716" lon="8.518117111018041"><ele>325.8333333333333</ele><time>2026-04-11T08:19:43.999Z</time></trkpt><trkpt lat="45.7499128023841" lon="8.517998059145771"><ele>327.0</ele><time>2026-04-11T08:19:44.999Z</time></trkpt><trkpt lat="45.749891559744015" lon="8.51788010429453"><ele>328.0</ele><time>2026-04-11T08:19:45.999Z</time></trkpt><trkpt lat="45.7498694199358" lon="8.517762054111156"><ele>329.0</ele><time>2026-04-11T08:19:46.999Z</time></trkpt><trkpt lat="45.74984156531652" lon="8.51764969714839"><ele>330.0</ele><time>2026-04-11T08:19:47.999Z</time></trkpt><trkpt lat="45.74981449406028" lon="8.517537935324688"><ele>331.0</ele><time>2026-04-11T08:19:48.999Z</time></trkpt><trkpt lat="45.74978316598299" lon="8.51744147318452"><ele>332.0</ele><time>2026-04-11T08:19:49.999Z</time></trkpt><trkpt lat="45.74975445577668" lon="8.517349655545795"><ele>333.0</ele><time>2026-04-11T08:19:50.999Z</time></trkpt><trkpt lat="45.749721491054" lon="8.517260099751676"><ele>333.0</ele><time>2026-04-11T08:19:51.999Z</time></trkpt><trkpt lat="45.74969256379841" lon="8.517166018331638"><ele>333.0</ele><time>2026-04-11T08:19:52.999Z</time></trkpt><trkpt lat="45.74965981056286" lon="8.517081660284386"><ele>333.0</ele><time>2026-04-11T08:19:53.999Z</time></trkpt><trkpt lat="45.749621735822004" lon="8.51699878703829"><ele>333.0</ele><time>2026-04-11T08:19:54.999Z</time></trkpt><trkpt lat="45.749587969528974" lon="8.516907654662091"><ele>333.0</ele><time>2026-04-11T08:19:55.999Z</time></trkpt><trkpt lat="45.74955186272353" lon="8.516816792229152"><ele>333.0</ele><time>2026-04-11T08:19:56.999Z</time></trkpt><trkpt lat="45.74950728069572" lon="8.51672667108144"><ele>333.0</ele><time>2026-04-11T08:19:57.999Z</time></trkpt><trkpt lat="45.74946956865269" lon="8.516625785590836"><ele>334.5</ele><time>2026-04-11T08:19:58.999Z</time></trkpt><trkpt lat="45.749442628022365" lon="8.516515111965255"><ele>336.0</ele><time>2026-04-11T08:19:59.999Z</time></trkpt><trkpt lat="45.74941970428993" lon="8.516398761523975"><ele>337.5</ele><time>2026-04-11T08:20:00.999Z</time></trkpt><trkpt lat="45.749405780129656" lon="8.516275310531334"><ele>339.0</ele><time>2026-04-11T08:20:01.999Z</time></trkpt><trkpt lat="45.7494107575137" lon="8.516146831236732"><ele>340.5</ele><time>2026-04-11T08:20:02.999Z</time></trkpt><trkpt lat="45.74941669883509" lon="8.516016350625511"><ele>342.0</ele><time>2026-04-11T08:20:03.999Z</time></trkpt><trkpt lat="45.749421174734515" lon="8.51589076134199"><ele>342.40000000000003</ele><time>2026-04-11T08:20:04.999Z</time></trkpt><trkpt lat="45.74943505508012" lon="8.515763366977808"><ele>342.8</ele><time>2026-04-11T08:20:05.999Z</time></trkpt><trkpt lat="45.7494507227412" lon="8.515634530524828"><ele>343.2</ele><time>2026-04-11T08:20:06.999Z</time></trkpt><trkpt lat="45.749470732950215" lon="8.515502138416739"><ele>343.6</ele><time>2026-04-11T08:20:07.999Z</time></trkpt><trkpt lat="45.74949326679951" lon="8.515365581741696"><ele>344.0</ele><time>2026-04-11T08:20:08.999Z</time></trkpt><trkpt lat="45.74951933083625" lon="8.51522481214034"><ele>344.0</ele><time>2026-04-11T08:20:09.999Z</time></trkpt><trkpt lat="45.74956192314816" lon="8.515088270210216"><ele>344.0</ele><time>2026-04-11T08:20:10.999Z</time></trkpt><trkpt lat="45.74960457219483" lon="8.51494642199461"><ele>344.0</ele><time>2026-04-11T08:20:11.999Z</time></trkpt><trkpt lat="45.749663230046224" lon="8.514811598891832"><ele>344.0</ele><time>2026-04-11T08:20:12.999Z</time></trkpt><trkpt lat="45.74971391989585" lon="8.514672329118815"><ele>344.0</ele><time>2026-04-11T08:20:13.999Z</time></trkpt><trkpt lat="45.749770867536384" lon="8.514546774830633"><ele>343.0</ele><time>2026-04-11T08:20:14.999Z</time></trkpt><trkpt lat="45.74983191853485" lon="8.514431422656042"><ele>342.0</ele><time>2026-04-11T08:20:15.999Z</time></trkpt><trkpt lat="45.749891098746865" lon="8.514328968730725"><ele>341.0</ele><time>2026-04-11T08:20:16.999Z</time></trkpt><trkpt lat="45.749946991943844" lon="8.514232868463639"><ele>340.0</ele><time>2026-04-11T08:20:17.999Z</time></trkpt><trkpt lat="45.74999953314873" lon="8.514142194441693"><ele>339.0</ele><time>2026-04-11T08:20:18.999Z</time></trkpt><trkpt lat="45.75004971900017" lon="8.51405552031285"><ele>338.0</ele><time>2026-04-11T08:20:19.999Z</time></trkpt><trkpt lat="45.75009677171823" lon="8.513974257313029"><ele>338.0</ele><time>2026-04-11T08:20:20.999Z</time></trkpt><trkpt lat="45.75014263941005" lon="8.51389504068839"><ele>338.0</ele><time>2026-04-11T08:20:21.999Z</time></trkpt><trkpt lat="45.750195009335464" lon="8.513804594320353"><ele>338.0</ele><time>2026-04-11T08:20:22.999Z</time></trkpt><trkpt lat="45.75025698482038" lon="8.513697559500672"><ele>338.0</ele><time>2026-04-11T08:20:23.999Z</time></trkpt><trkpt lat="45.75030341791254" lon="8.513541947529703"><ele>338.0</ele><time>2026-04-11T08:20:24.999Z</time></trkpt><trkpt lat="45.750385420191904" lon="8.513409486178931"><ele>338.0</ele><time>2026-04-11T08:20:25.999Z</time></trkpt><trkpt lat="45.75047724132118" lon="8.513267850164574"><ele>338.0</ele><time>2026-04-11T08:20:26.999Z</time></trkpt><trkpt lat="45.75057832870289" lon="8.513112395363915"><ele>338.0</ele><time>2026-04-11T08:20:27.999Z</time></trkpt><trkpt lat="45.750723292240856" lon="8.513003402914736"><ele>338.0</ele><time>2026-04-11T08:20:28.999Z</time></trkpt><trkpt lat="45.75082943847352" lon="8.512841873307366"><ele>338.0</ele><time>2026-04-11T08:20:29.999Z</time></trkpt><trkpt lat="45.75094005453584" lon="8.512669435501333"><ele>338.0</ele><time>2026-04-11T08:20:30.999Z</time></trkpt><trkpt lat="45.75104585333684" lon="8.512489291618788"><ele>338.0</ele><time>2026-04-11T08:20:31.999Z</time></trkpt><trkpt lat="45.751147299670215" lon="8.51229312483073"><ele>339.0</ele><time>2026-04-11T08:20:32.999Z</time></trkpt><trkpt lat="45.751244108304874" lon="8.512094208564863"><ele>340.0</ele><time>2026-04-11T08:20:33.999Z</time></trkpt><trkpt lat="45.75133781657185" lon="8.511897524796241"><ele>341.0</ele><time>2026-04-11T08:20:34.999Z</time></trkpt><trkpt lat="45.75143594652049" lon="8.511691277263225"><ele>341.33333333333337</ele><time>2026-04-11T08:20:35.999Z</time></trkpt><trkpt lat="45.75153417455239" lon="8.511489358393481"><ele>341.6666666666667</ele><time>2026-04-11T08:20:36.999Z</time></trkpt><trkpt lat="45.75163212929789" lon="8.511284374195604"><ele>342.0</ele><time>2026-04-11T08:20:37.999Z</time></trkpt><trkpt lat="45.7517245681177" lon="8.511089205337285"><ele>343.6666666666667</ele><time>2026-04-11T08:20:38.999Z</time></trkpt><trkpt lat="45.75181471415278" lon="8.510900961172705"><ele>345.33333333333337</ele><time>2026-04-11T08:20:39.999Z</time></trkpt><trkpt lat="45.75191181314259" lon="8.510696379775"><ele>347.0</ele><time>2026-04-11T08:20:40.999Z</time></trkpt><trkpt lat="45.75200662622061" lon="8.510502112105938"><ele>348.33333333333337</ele><time>2026-04-11T08:20:41.999Z</time></trkpt><trkpt lat="45.752103094727445" lon="8.510304233471459"><ele>349.6666666666667</ele><time>2026-04-11T08:20:42.999Z</time></trkpt><trkpt lat="45.752196001324506" lon="8.510106598816627"><ele>351.0</ele><time>2026-04-11T08:20:43.999Z</time></trkpt><trkpt lat="45.75227858053241" lon="8.509931699921287"><ele>351.0</ele><time>2026-04-11T08:20:44.999Z</time></trkpt><trkpt lat="45.75235286884732" lon="8.50975743261783"><ele>351.0</ele><time>2026-04-11T08:20:45.999Z</time></trkpt><trkpt lat="45.7524178522491" lon="8.509581094438992"><ele>351.0</ele><time>2026-04-11T08:20:46.999Z</time></trkpt><trkpt lat="45.75248105486073" lon="8.509396680113793"><ele>351.0</ele><time>2026-04-11T08:20:47.999Z</time></trkpt><trkpt lat="45.75254114914956" lon="8.509201165962791"><ele>351.25</ele><time>2026-04-11T08:20:48.999Z</time></trkpt><trkpt lat="45.7525837969489" lon="8.509050440184332"><ele>351.5</ele><time>2026-04-11T08:20:49.999Z</time></trkpt><trkpt lat="45.75262635245621" lon="8.508900040570465"><ele>351.75</ele><time>2026-04-11T08:20:50.999Z</time></trkpt><trkpt lat="45.75265831427492" lon="8.5087496747859"><ele>352.0</ele><time>2026-04-11T08:20:51.999Z</time></trkpt><trkpt lat="45.75271191124105" lon="8.508593858311439"><ele>352.0</ele><time>2026-04-11T08:20:52.999Z</time></trkpt><trkpt lat="45.75275300051022" lon="8.508445748255003"><ele>352.0</ele><time>2026-04-11T08:20:53.999Z</time></trkpt><trkpt lat="45.75279939811844" lon="8.508290892927901"><ele>352.0</ele><time>2026-04-11T08:20:54.999Z</time></trkpt><trkpt lat="45.752848380227256" lon="8.508125465379594"><ele>352.0</ele><time>2026-04-11T08:20:55.999Z</time></trkpt><trkpt lat="45.75289628188613" lon="8.507951953676411"><ele>353.0</ele><time>2026-04-11T08:20:56.999Z</time></trkpt><trkpt lat="45.75294678461507" lon="8.507764631709387"><ele>354.0</ele><time>2026-04-11T08:20:57.999Z</time></trkpt><trkpt lat="45.75299709401498" lon="8.507541381789105"><ele>355.0</ele><time>2026-04-11T08:20:58.999Z</time></trkpt><trkpt lat="45.753037387066065" lon="8.507294188890025"><ele>357.0</ele><time>2026-04-11T08:20:59.999Z</time></trkpt><trkpt lat="45.75306203147767" lon="8.507015122679997"><ele>359.0</ele><time>2026-04-11T08:21:00.999Z</time></trkpt><trkpt lat="45.75307197699928" lon="8.506722643812282"><ele>361.0</ele><time>2026-04-11T08:21:01.999Z</time></trkpt><trkpt lat="45.753082522833914" lon="8.506442278828096"><ele>362.3333333333333</ele><time>2026-04-11T08:21:02.999Z</time></trkpt><trkpt lat="45.753088347122755" lon="8.506140194237865"><ele>363.6666666666667</ele><time>2026-04-11T08:21:03.999Z</time></trkpt><trkpt lat="45.7530983502811" lon="8.505818469161767"><ele>365.0</ele><time>2026-04-11T08:21:04.999Z</time></trkpt><trkpt lat="45.753117319282985" lon="8.505492806889212"><ele>366.0</ele><time>2026-04-11T08:21:05.999Z</time></trkpt><trkpt lat="45.753082759328606" lon="8.505153595331983"><ele>367.0</ele><time>2026-04-11T08:21:06.999Z</time></trkpt><trkpt lat="45.75309649713261" lon="8.504837485370588"><ele>369.0</ele><time>2026-04-11T08:21:07.999Z</time></trkpt><trkpt lat="45.753117296138655" lon="8.504501107256768"><ele>371.0</ele><time>2026-04-11T08:21:08.999Z</time></trkpt><trkpt lat="45.753131624232" lon="8.50417281850212"><ele>371.0</ele><time>2026-04-11T08:21:09.999Z</time></trkpt><trkpt lat="45.753175147902624" lon="8.503857309073103"><ele>371.0</ele><time>2026-04-11T08:21:10.999Z</time></trkpt><trkpt lat="45.75318621956992" lon="8.503547079275684"><ele>371.0</ele><time>2026-04-11T08:21:11.999Z</time></trkpt><trkpt lat="45.7531976595527" lon="8.503241814570021"><ele>371.33333333333337</ele><time>2026-04-11T08:21:12.999Z</time></trkpt><trkpt lat="45.753211685609934" lon="8.50294409748734"><ele>371.6666666666667</ele><time>2026-04-11T08:21:13.999Z</time></trkpt><trkpt lat="45.75324768517342" lon="8.502671972510614"><ele>372.0</ele><time>2026-04-11T08:21:14.999Z</time></trkpt><trkpt lat="45.7533065782698" lon="8.502429969444325"><ele>373.0</ele><time>2026-04-11T08:21:15.999Z</time></trkpt><trkpt lat="45.75338211299603" lon="8.502153459973707"><ele>374.0</ele><time>2026-04-11T08:21:16.999Z</time></trkpt><trkpt lat="45.75346594544405" lon="8.501897924438703"><ele>375.0</ele><time>2026-04-11T08:21:17.999Z</time></trkpt><trkpt lat="45.75356134881348" lon="8.501634446782141"><ele>375.0</ele><time>2026-04-11T08:21:18.999Z</time></trkpt><trkpt lat="45.75366778945388" lon="8.501374340529772"><ele>375.0</ele><time>2026-04-11T08:21:19.999Z</time></trkpt><trkpt lat="45.753788107205224" lon="8.501142477612218"><ele>375.0</ele><time>2026-04-11T08:21:20.999Z</time></trkpt><trkpt lat="45.75391464980965" lon="8.500918721805407"><ele>377.0</ele><time>2026-04-11T08:21:21.999Z</time></trkpt><trkpt lat="45.75402671448596" lon="8.500729026455046"><ele>379.0</ele><time>2026-04-11T08:21:22.999Z</time></trkpt><trkpt lat="45.75413001136214" lon="8.500540533102283"><ele>381.0</ele><time>2026-04-11T08:21:23.999Z</time></trkpt><trkpt lat="45.75420053314698" lon="8.50033755009096"><ele>381.75</ele><time>2026-04-11T08:21:24.999Z</time></trkpt><trkpt lat="45.754237044744876" lon="8.500149347173387"><ele>382.5</ele><time>2026-04-11T08:21:25.999Z</time></trkpt><trkpt lat="45.75424750877936" lon="8.499931950417391"><ele>383.25</ele><time>2026-04-11T08:21:26.999Z</time></trkpt><trkpt lat="45.75426357087892" lon="8.49972634191191"><ele>384.0</ele><time>2026-04-11T08:21:27.999Z</time></trkpt><trkpt lat="45.754291285906454" lon="8.499562528413533"><ele>384.75</ele><time>2026-04-11T08:21:28.999Z</time></trkpt><trkpt lat="45.75432506785517" lon="8.499404109978842"><ele>385.5</ele><time>2026-04-11T08:21:29.999Z</time></trkpt><trkpt lat="45.75440682159715" lon="8.49925374555938"><ele>386.25</ele><time>2026-04-11T08:21:30.999Z</time></trkpt><trkpt lat="45.75449496087139" lon="8.499127480892959"><ele>387.0</ele><time>2026-04-11T08:21:31.999Z</time></trkpt><trkpt lat="45.754599638815385" lon="8.499000300439151"><ele>387.0</ele><time>2026-04-11T08:21:32.999Z</time></trkpt><trkpt lat="45.754709578841386" lon="8.498870246037901"><ele>387.0</ele><time>2026-04-11T08:21:33.999Z</time></trkpt><trkpt lat="45.75481437023493" lon="8.49874628620902"><ele>387.0</ele><time>2026-04-11T08:21:34.999Z</time></trkpt><trkpt lat="45.754915598302446" lon="8.498626541591326"><ele>387.0</ele><time>2026-04-11T08:21:35.999Z</time></trkpt><trkpt lat="45.755025940203566" lon="8.49849464156072"><ele>387.75</ele><time>2026-04-11T08:21:36.999Z</time></trkpt><trkpt lat="45.755122866013" lon="8.498369085944116"><ele>388.5</ele><time>2026-04-11T08:21:37.999Z</time></trkpt><trkpt lat="45.75521243514583" lon="8.49822333404527"><ele>389.25</ele><time>2026-04-11T08:21:38.999Z</time></trkpt><trkpt lat="45.75527903966849" lon="8.498030208252546"><ele>390.0</ele><time>2026-04-11T08:21:39.999Z</time></trkpt><trkpt lat="45.7553343607223" lon="8.497832429918175"><ele>391.0</ele><time>2026-04-11T08:21:40.999Z</time></trkpt><trkpt lat="45.755359440275456" lon="8.497621890727917"><ele>392.0</ele><time>2026-04-11T08:21:41.999Z</time></trkpt><trkpt lat="45.755392830410386" lon="8.49743377140134"><ele>393.0</ele><time>2026-04-11T08:21:42.999Z</time></trkpt><trkpt lat="45.755409877217716" lon="8.497237213726988"><ele>394.0</ele><time>2026-04-11T08:21:43.999Z</time></trkpt><trkpt lat="45.7554638146955" lon="8.497052957955217"><ele>394.5</ele><time>2026-04-11T08:21:44.999Z</time></trkpt><trkpt lat="45.75554327799539" lon="8.49691518564962"><ele>395.0</ele><time>2026-04-11T08:21:45.999Z</time></trkpt><trkpt lat="45.75561557568633" lon="8.496766223919316"><ele>395.5</ele><time>2026-04-11T08:21:46.999Z</time></trkpt><trkpt lat="45.755691444806516" lon="8.496617614091738"><ele>396.0</ele><time>2026-04-11T08:21:47.999Z</time></trkpt><trkpt lat="45.755781579193346" lon="8.496445791188188"><ele>396.0</ele><time>2026-04-11T08:21:48.999Z</time></trkpt><trkpt lat="45.75586411594296" lon="8.496300224501072"><ele>396.0</ele><time>2026-04-11T08:21:49.999Z</time></trkpt><trkpt lat="45.75594858559077" lon="8.496152390343003"><ele>396.0</ele><time>2026-04-11T08:21:50.999Z</time></trkpt><trkpt lat="45.75603467793945" lon="8.496014843778594"><ele>396.0</ele><time>2026-04-11T08:21:51.999Z</time></trkpt><trkpt lat="45.75611934652787" lon="8.495912498867021"><ele>397.0</ele><time>2026-04-11T08:21:52.999Z</time></trkpt><trkpt lat="45.75621983572643" lon="8.4958234090945"><ele>398.0</ele><time>2026-04-11T08:21:53.999Z</time></trkpt><trkpt lat="45.75634685712232" lon="8.495730865420066"><ele>399.0</ele><time>2026-04-11T08:21:54.999Z</time></trkpt><trkpt lat="45.756478823739656" lon="8.495631566128269"><ele>400.0</ele><time>2026-04-11T08:21:55.999Z</time></trkpt><trkpt lat="45.7566022716628" lon="8.495509214938135"><ele>399.6666666666667</ele><time>2026-04-11T08:21:56.999Z</time></trkpt><trkpt lat="45.7567343919208" lon="8.495409765280337"><ele>399.33333333333337</ele><time>2026-04-11T08:21:57.999Z</time></trkpt><trkpt lat="45.75687343268369" lon="8.495288346949934"><ele>399.0</ele><time>2026-04-11T08:21:58.999Z</time></trkpt><trkpt lat="45.75697883217786" lon="8.49513183764169"><ele>399.0</ele><time>2026-04-11T08:21:59.999Z</time></trkpt><trkpt lat="45.75704713190598" lon="8.494986498133686"><ele>399.0</ele><time>2026-04-11T08:22:00.999Z</time></trkpt><trkpt lat="45.75714870838262" lon="8.494799948920251"><ele>399.0</ele><time>2026-04-11T08:22:01.999Z</time></trkpt><trkpt lat="45.75717070807013" lon="8.494561194734825"><ele>399.66666666666663</ele><time>2026-04-11T08:22:02.999Z</time></trkpt><trkpt lat="45.757205716272146" lon="8.494325436437347"><ele>400.3333333333333</ele><time>2026-04-11T08:22:03.999Z</time></trkpt><trkpt lat="45.75722767812915" lon="8.494118832123347"><ele>401.0</ele><time>2026-04-11T08:22:04.999Z</time></trkpt><trkpt lat="45.75724567958527" lon="8.49390796607472"><ele>402.25</ele><time>2026-04-11T08:22:05.999Z</time></trkpt><trkpt lat="45.757269996423766" lon="8.493720647203613"><ele>403.5</ele><time>2026-04-11T08:22:06.999Z</time></trkpt><trkpt lat="45.757245209308394" lon="8.493518561657952"><ele>404.75</ele><time>2026-04-11T08:22:07.999Z</time></trkpt><trkpt lat="45.757261861157865" lon="8.493350007234065"><ele>406.0</ele><time>2026-04-11T08:22:08.999Z</time></trkpt><trkpt lat="45.757302711804236" lon="8.493157635342303"><ele>406.0</ele><time>2026-04-11T08:22:09.999Z</time></trkpt><trkpt lat="45.757358476515286" lon="8.492978371770182"><ele>406.0</ele><time>2026-04-11T08:22:10.999Z</time></trkpt><trkpt lat="45.75740435312734" lon="8.492754461063239"><ele>406.0</ele><time>2026-04-11T08:22:11.999Z</time></trkpt><trkpt lat="45.75744813645713" lon="8.492552775203754"><ele>406.0</ele><time>2026-04-11T08:22:12.999Z</time></trkpt><trkpt lat="45.75750524052495" lon="8.492402055371922"><ele>406.0</ele><time>2026-04-11T08:22:13.999Z</time></trkpt><trkpt lat="45.75756129818261" lon="8.492267921326487"><ele>406.0</ele><time>2026-04-11T08:22:14.999Z</time></trkpt><trkpt lat="45.757651729968146" lon="8.492217120941989"><ele>406.0</ele><time>2026-04-11T08:22:15.999Z</time></trkpt><trkpt lat="45.75774735462463" lon="8.492138568306805"><ele>406.0</ele><time>2026-04-11T08:22:16.999Z</time></trkpt><trkpt lat="45.75782416909127" lon="8.49208036864775"><ele>406.0</ele><time>2026-04-11T08:22:17.999Z</time></trkpt><trkpt lat="45.757882398677296" lon="8.49202613252492"><ele>406.50000000000006</ele><time>2026-04-11T08:22:18.999Z</time></trkpt><trkpt lat="45.757999770250215" lon="8.49193957131871"><ele>407.0</ele><time>2026-04-11T08:22:20.999Z</time></trkpt><trkpt lat="45.75805508180583" lon="8.491878167938648"><ele>407.5</ele><time>2026-04-11T08:22:21.999Z</time></trkpt><trkpt lat="45.75812425458672" lon="8.491861170186281"><ele>408.0</ele><time>2026-04-11T08:22:22.999Z</time></trkpt><trkpt lat="45.75820350957603" lon="8.491893458702513"><ele>408.50000000000006</ele><time>2026-04-11T08:22:23.999Z</time></trkpt><trkpt lat="45.7582675134396" lon="8.491825170472472"><ele>409.0</ele><time>2026-04-11T08:22:24.999Z</time></trkpt><trkpt lat="45.75835937082601" lon="8.491806088991618"><ele>409.0</ele><time>2026-04-11T08:22:25.999Z</time></trkpt><trkpt lat="45.758472128042" lon="8.491778363271923"><ele>409.0</ele><time>2026-04-11T08:22:26.999Z</time></trkpt><trkpt lat="45.75857931299775" lon="8.491840740326872"><ele>409.0</ele><time>2026-04-11T08:22:27.999Z</time></trkpt><trkpt lat="45.758726033181134" lon="8.491866731947612"><ele>409.0</ele><time>2026-04-11T08:22:28.999Z</time></trkpt><trkpt lat="45.75889630356907" lon="8.491897709451992"><ele>409.6666666666667</ele><time>2026-04-11T08:22:29.999Z</time></trkpt><trkpt lat="45.75905145343774" lon="8.491926748989377"><ele>410.33333333333337</ele><time>2026-04-11T08:22:30.999Z</time></trkpt><trkpt lat="45.75921917688023" lon="8.491956748547684"><ele>411.0</ele><time>2026-04-11T08:22:31.999Z</time></trkpt><trkpt lat="45.75939021208769" lon="8.491986953004085"><ele>412.0</ele><time>2026-04-11T08:22:32.999Z</time></trkpt><trkpt lat="45.75956699714192" lon="8.492019662990433"><ele>413.0</ele><time>2026-04-11T08:22:33.999Z</time></trkpt><trkpt lat="45.75973755850097" lon="8.492042631672367"><ele>414.0</ele><time>2026-04-11T08:22:34.999Z</time></trkpt><trkpt lat="45.759910836432525" lon="8.492045234357008"><ele>414.0</ele><time>2026-04-11T08:22:35.999Z</time></trkpt><trkpt lat="45.76007851885719" lon="8.492002996377586"><ele>414.0</ele><time>2026-04-11T08:22:36.999Z</time></trkpt><trkpt lat="45.760182358650326" lon="8.491940084706952"><ele>414.0</ele><time>2026-04-11T08:22:37.999Z</time></trkpt><trkpt lat="45.76032980957018" lon="8.491800694070813"><ele>413.0</ele><time>2026-04-11T08:22:38.999Z</time></trkpt><trkpt lat="45.7604590011831" lon="8.491612623994094"><ele>412.0</ele><time>2026-04-11T08:22:39.999Z</time></trkpt><trkpt lat="45.76056345378405" lon="8.491390111833102"><ele>411.0</ele><time>2026-04-11T08:22:40.999Z</time></trkpt><trkpt lat="45.76061085048267" lon="8.491149351000663"><ele>409.66666666666663</ele><time>2026-04-11T08:22:41.999Z</time></trkpt><trkpt lat="45.760631485985684" lon="8.490896252935286"><ele>408.3333333333333</ele><time>2026-04-11T08:22:42.999Z</time></trkpt><trkpt lat="45.760643954243925" lon="8.490637046068604"><ele>407.0</ele><time>2026-04-11T08:22:43.999Z</time></trkpt><trkpt lat="45.7606603868178" lon="8.490372609206482"><ele>405.66666666666663</ele><time>2026-04-11T08:22:44.999Z</time></trkpt><trkpt lat="45.76065335376809" lon="8.490115660529513"><ele>404.33333333333337</ele><time>2026-04-11T08:22:45.999Z</time></trkpt><trkpt lat="45.76066707358824" lon="8.489876834680924"><ele>403.0</ele><time>2026-04-11T08:22:46.999Z</time></trkpt><trkpt lat="45.760708563093836" lon="8.489624072994035"><ele>403.6666666666667</ele><time>2026-04-11T08:22:47.999Z</time></trkpt><trkpt lat="45.76070105057862" lon="8.489374238513284"><ele>404.33333333333337</ele><time>2026-04-11T08:22:48.999Z</time></trkpt><trkpt lat="45.76070168818982" lon="8.489145531359418"><ele>405.0</ele><time>2026-04-11T08:22:49.999Z</time></trkpt><trkpt lat="45.7607136422065" lon="8.488894483155635"><ele>405.66666666666663</ele><time>2026-04-11T08:22:50.999Z</time></trkpt><trkpt lat="45.760735039475605" lon="8.488614103278879"><ele>406.3333333333333</ele><time>2026-04-11T08:22:51.999Z</time></trkpt><trkpt lat="45.760783293384065" lon="8.488349190472656"><ele>407.0</ele><time>2026-04-11T08:22:52.999Z</time></trkpt><trkpt lat="45.76080638077889" lon="8.488116800410257"><ele>407.75</ele><time>2026-04-11T08:22:53.999Z</time></trkpt><trkpt lat="45.76086360453333" lon="8.48791138562566"><ele>408.5</ele><time>2026-04-11T08:22:54.999Z</time></trkpt><trkpt lat="45.760849137834654" lon="8.487722597174553"><ele>409.25</ele><time>2026-04-11T08:22:55.999Z</time></trkpt><trkpt lat="45.76082020327382" lon="8.487514098326029"><ele>410.0</ele><time>2026-04-11T08:22:56.999Z</time></trkpt><trkpt lat="45.7607594213132" lon="8.487322309249835"><ele>410.0</ele><time>2026-04-11T08:22:57.998Z</time></trkpt><trkpt lat="45.760672511980964" lon="8.48714116227884"><ele>410.0</ele><time>2026-04-11T08:22:58.998Z</time></trkpt><trkpt lat="45.76057084330284" lon="8.486973824872315"><ele>410.0</ele><time>2026-04-11T08:22:59.998Z</time></trkpt><trkpt lat="45.76049110839882" lon="8.486830034492332"><ele>410.0</ele><time>2026-04-11T08:23:00.998Z</time></trkpt><trkpt lat="45.76039128501004" lon="8.486690370792747"><ele>410.5</ele><time>2026-04-11T08:23:01.998Z</time></trkpt><trkpt lat="45.76030572960923" lon="8.486518275161263"><ele>411.0</ele><time>2026-04-11T08:23:02.998Z</time></trkpt><trkpt lat="45.76026072216838" lon="8.486356971270345"><ele>411.5</ele><time>2026-04-11T08:23:03.998Z</time></trkpt><trkpt lat="45.76022767013643" lon="8.486208613480239"><ele>412.0</ele><time>2026-04-11T08:23:04.998Z</time></trkpt><trkpt lat="45.7602098860903" lon="8.486070576509627"><ele>412.0</ele><time>2026-04-11T08:23:05.998Z</time></trkpt><trkpt lat="45.76024153990025" lon="8.485982136127054"><ele>412.0</ele><time>2026-04-11T08:23:07.998Z</time></trkpt><trkpt lat="45.76028345563755" lon="8.485868634633288"><ele>412.0</ele><time>2026-04-11T08:23:10.998Z</time></trkpt><trkpt lat="45.760284969661434" lon="8.48570755692328"><ele>412.0</ele><time>2026-04-11T08:23:12.998Z</time></trkpt><trkpt lat="45.76020991637788" lon="8.485566893349377"><ele>412.0</ele><time>2026-04-11T08:23:15Z</time></trkpt><trkpt lat="45.76012358103815" lon="8.48553624161431"><ele>411.8</ele><time>2026-04-11T08:23:16Z</time></trkpt><trkpt lat="45.76006923804804" lon="8.485484914736107"><ele>411.6</ele><time>2026-04-11T08:23:17Z</time></trkpt><trkpt lat="45.759984879859054" lon="8.48538704324319"><ele>411.40000000000003</ele><time>2026-04-11T08:23:19Z</time></trkpt><trkpt lat="45.75989637683502" lon="8.485309268636946"><ele>411.20000000000005</ele><time>2026-04-11T08:23:21Z</time></trkpt><trkpt lat="45.759809530431205" lon="8.485397908507942"><ele>411.0</ele><time>2026-04-11T08:23:23Z</time></trkpt><trkpt lat="45.7597431887624" lon="8.485386996027453"><ele>411.0</ele><time>2026-04-11T08:23:24Z</time></trkpt><trkpt lat="45.75967065767718" lon="8.485381065106012"><ele>411.0</ele><time>2026-04-11T08:23:25Z</time></trkpt><trkpt lat="45.759569797342785" lon="8.485364486373067"><ele>411.0</ele><time>2026-04-11T08:23:26Z</time></trkpt><trkpt lat="45.75946310098433" lon="8.485348870601321"><ele>411.0</ele><time>2026-04-11T08:23:27Z</time></trkpt><trkpt lat="45.759341117518815" lon="8.48536088597019"><ele>411.0</ele><time>2026-04-11T08:23:28Z</time></trkpt><trkpt lat="45.75922223782019" lon="8.485350151219993"><ele>411.75</ele><time>2026-04-11T08:23:29Z</time></trkpt><trkpt lat="45.75910142072414" lon="8.485348228966552"><ele>412.5</ele><time>2026-04-11T08:23:30Z</time></trkpt><trkpt lat="45.758988742819646" lon="8.485268925013003"><ele>413.25</ele><time>2026-04-11T08:23:31Z</time></trkpt><trkpt lat="45.7588844869628" lon="8.485247492695374"><ele>414.0</ele><time>2026-04-11T08:23:32Z</time></trkpt><trkpt lat="45.758772872906995" lon="8.485232436707907"><ele>414.0</ele><time>2026-04-11T08:23:33Z</time></trkpt><trkpt lat="45.758686006665414" lon="8.485220816624429"><ele>414.0</ele><time>2026-04-11T08:23:34Z</time></trkpt><trkpt lat="45.75861823748646" lon="8.485233033939814"><ele>414.0</ele><time>2026-04-11T08:23:35Z</time></trkpt><trkpt lat="45.758532243089455" lon="8.48521921162998"><ele>414.0</ele><time>2026-04-11T08:23:37Z</time></trkpt><trkpt lat="45.75842499830127" lon="8.485232053164353"><ele>414.0</ele><time>2026-04-11T08:23:39Z</time></trkpt><trkpt lat="45.75834529048997" lon="8.485261520942995"><ele>414.0</ele><time>2026-04-11T08:23:40Z</time></trkpt><trkpt lat="45.758276686663145" lon="8.4852897400526"><ele>414.3333333333333</ele><time>2026-04-11T08:23:41Z</time></trkpt><trkpt lat="45.75821546426846" lon="8.485319475444697"><ele>414.66666666666663</ele><time>2026-04-11T08:23:42Z</time></trkpt><trkpt lat="45.75811224503638" lon="8.485364028294454"><ele>415.0</ele><time>2026-04-11T08:23:44Z</time></trkpt><trkpt lat="45.75806502624335" lon="8.485242498301501"><ele>415.3333333333333</ele><time>2026-04-11T08:23:46Z</time></trkpt><trkpt lat="45.7580841285055" lon="8.485125023945447"><ele>415.66666666666663</ele><time>2026-04-11T08:23:47Z</time></trkpt><trkpt lat="45.75809777213187" lon="8.485001843086124"><ele>416.0</ele><time>2026-04-11T08:23:48Z</time></trkpt><trkpt lat="45.75810627993563" lon="8.484873677255518"><ele>415.99999999999994</ele><time>2026-04-11T08:23:49Z</time></trkpt><trkpt lat="45.75809168909341" lon="8.484773028333011"><ele>416.0</ele><time>2026-04-11T08:23:50Z</time></trkpt><trkpt lat="45.7580524522124" lon="8.484692705727577"><ele>416.0</ele><time>2026-04-11T08:23:51Z</time></trkpt><trkpt lat="45.758014647318376" lon="8.484591806873635"><ele>416.0</ele><time>2026-04-11T08:23:52Z</time></trkpt><trkpt lat="45.757972378049786" lon="8.48448697675023"><ele>415.99999999999994</ele><time>2026-04-11T08:23:53Z</time></trkpt><trkpt lat="45.757911333148094" lon="8.484406437556562"><ele>416.0</ele><time>2026-04-11T08:23:54Z</time></trkpt><trkpt lat="45.757842464855685" lon="8.484310244055312"><ele>415.8</ele><time>2026-04-11T08:23:55Z</time></trkpt><trkpt lat="45.757780648538855" lon="8.484205341552679"><ele>415.6</ele><time>2026-04-11T08:23:56Z</time></trkpt><trkpt lat="45.75773887703907" lon="8.48411221609089"><ele>415.4</ele><time>2026-04-11T08:23:57Z</time></trkpt><trkpt lat="45.7576996141998" lon="8.483950014206997"><ele>415.2</ele><time>2026-04-11T08:23:58Z</time></trkpt><trkpt lat="45.75766351524517" lon="8.483798287446499"><ele>415.0</ele><time>2026-04-11T08:23:59Z</time></trkpt><trkpt lat="45.75762902019237" lon="8.483641720438605"><ele>416.1666666666667</ele><time>2026-04-11T08:24:00Z</time></trkpt><trkpt lat="45.75759782821535" lon="8.483503761206808"><ele>417.33333333333337</ele><time>2026-04-11T08:24:01Z</time></trkpt><trkpt lat="45.75756954137239" lon="8.483386321207425"><ele>418.5</ele><time>2026-04-11T08:24:02Z</time></trkpt><trkpt lat="45.757564429492106" lon="8.48328515636094"><ele>419.66666666666663</ele><time>2026-04-11T08:24:03Z</time></trkpt><trkpt lat="45.75755259207623" lon="8.483107359267251"><ele>420.8333333333333</ele><time>2026-04-11T08:24:05Z</time></trkpt><trkpt lat="45.75753424283885" lon="8.483020254912262"><ele>422.0</ele><time>2026-04-11T08:24:07Z</time></trkpt><trkpt lat="45.75741888184555" lon="8.483058958483868"><ele>421.99999999999994</ele><time>2026-04-11T08:24:09Z</time></trkpt><trkpt lat="45.75735670922206" lon="8.483124873614214"><ele>422.0</ele><time>2026-04-11T08:24:09.999Z</time></trkpt><trkpt lat="45.75728824461264" lon="8.483164469631571"><ele>422.0</ele><time>2026-04-11T08:24:10.999Z</time></trkpt><trkpt lat="45.75721707109792" lon="8.483214771349296"><ele>422.0</ele><time>2026-04-11T08:24:11.999Z</time></trkpt><trkpt lat="45.75712827671865" lon="8.48326614323681"><ele>421.99999999999994</ele><time>2026-04-11T08:24:12.999Z</time></trkpt><trkpt lat="45.75704774853141" lon="8.483302948369385"><ele>422.0</ele><time>2026-04-11T08:24:13.999Z</time></trkpt><trkpt lat="45.75694398560341" lon="8.48335143728862"><ele>422.20000000000005</ele><time>2026-04-11T08:24:14.999Z</time></trkpt><trkpt lat="45.7568410474767" lon="8.48337260727241"><ele>422.4</ele><time>2026-04-11T08:24:15.999Z</time></trkpt><trkpt lat="45.756739294711" lon="8.483420368657809"><ele>422.6</ele><time>2026-04-11T08:24:16.999Z</time></trkpt><trkpt lat="45.75666283071276" lon="8.483441281601815"><ele>422.79999999999995</ele><time>2026-04-11T08:24:17.999Z</time></trkpt><trkpt lat="45.75657999493775" lon="8.483445026475708"><ele>423.0</ele><time>2026-04-11T08:24:18.999Z</time></trkpt><trkpt lat="45.75650550658124" lon="8.483509625014957"><ele>423.0</ele><time>2026-04-11T08:24:19.999Z</time></trkpt><trkpt lat="45.756416658205744" lon="8.48355828920415"><ele>423.0</ele><time>2026-04-11T08:24:20.999Z</time></trkpt><trkpt lat="45.75633863581991" lon="8.48357392771134"><ele>423.0</ele><time>2026-04-11T08:24:21.999Z</time></trkpt><trkpt lat="45.75626623856127" lon="8.483653415688083"><ele>423.0</ele><time>2026-04-11T08:24:22.999Z</time></trkpt><trkpt lat="45.756210009077826" lon="8.483745207944716"><ele>423.0</ele><time>2026-04-11T08:24:23.999Z</time></trkpt><trkpt lat="45.75615971747747" lon="8.483842086239907"><ele>423.0</ele><time>2026-04-11T08:24:24.999Z</time></trkpt><trkpt lat="45.7561094874203" lon="8.483942826661593"><ele>422.8333333333333</ele><time>2026-04-11T08:24:25.999Z</time></trkpt><trkpt lat="45.7560560667508" lon="8.484009122151818"><ele>422.66666666666663</ele><time>2026-04-11T08:24:26.999Z</time></trkpt><trkpt lat="45.75601463367402" lon="8.484084341256217"><ele>422.5</ele><time>2026-04-11T08:24:27.999Z</time></trkpt><trkpt lat="45.75598163911627" lon="8.484181529276247"><ele>422.3333333333333</ele><time>2026-04-11T08:24:28.999Z</time></trkpt><trkpt lat="45.75588648392035" lon="8.484272873586509"><ele>422.16666666666663</ele><time>2026-04-11T08:24:30.999Z</time></trkpt><trkpt lat="45.75582539975274" lon="8.484321537278609"><ele>422.0</ele><time>2026-04-11T08:24:31.999Z</time></trkpt><trkpt lat="45.75573351570382" lon="8.484378945309496"><ele>422.0</ele><time>2026-04-11T08:24:33.999Z</time></trkpt><trkpt lat="45.75566697991878" lon="8.484376699244894"><ele>422.0</ele><time>2026-04-11T08:24:35.999Z</time></trkpt><trkpt lat="45.75557049055594" lon="8.484375480797928"><ele>422.0</ele><time>2026-04-11T08:24:39.999Z</time></trkpt><trkpt lat="45.755556194183825" lon="8.484207534076678"><ele>422.0</ele><time>2026-04-11T08:24:40.999Z</time></trkpt><trkpt lat="45.755545445429846" lon="8.484118217890037"><ele>422.0</ele><time>2026-04-11T08:24:41.999Z</time></trkpt><trkpt lat="45.75551056495435" lon="8.483964462463177"><ele>422.0</ele><time>2026-04-11T08:24:43.999Z</time></trkpt><trkpt lat="45.75548529713567" lon="8.483826268448617"><ele>422.0</ele><time>2026-04-11T08:24:45.999Z</time></trkpt><trkpt lat="45.7554007931947" lon="8.483640012323907"><ele>422.0</ele><time>2026-04-11T08:24:47.999Z</time></trkpt><trkpt lat="45.755363491626376" lon="8.483493496135942"><ele>422.0</ele><time>2026-04-11T08:24:48.999Z</time></trkpt><trkpt lat="45.755305790741474" lon="8.483333459681068"><ele>422.5</ele><time>2026-04-11T08:24:49.999Z</time></trkpt><trkpt lat="45.755245441747704" lon="8.483170809120256"><ele>423.0</ele><time>2026-04-11T08:24:50.999Z</time></trkpt><trkpt lat="45.75518357347375" lon="8.482981545535493"><ele>423.5</ele><time>2026-04-11T08:24:51.999Z</time></trkpt><trkpt lat="45.755073899918536" lon="8.482842417370943"><ele>424.0</ele><time>2026-04-11T08:24:52.999Z</time></trkpt><trkpt lat="45.75498932128927" lon="8.482675620791714"><ele>424.5</ele><time>2026-04-11T08:24:53.999Z</time></trkpt><trkpt lat="45.75493787252348" lon="8.482502930663776"><ele>425.0</ele><time>2026-04-11T08:24:54.999Z</time></trkpt><trkpt lat="45.754886220199396" lon="8.482346396195936"><ele>425.5</ele><time>2026-04-11T08:24:55.999Z</time></trkpt><trkpt lat="45.75481740663148" lon="8.482201983268851"><ele>426.0</ele><time>2026-04-11T08:24:56.999Z</time></trkpt><trkpt lat="45.754744228299366" lon="8.482059570840043"><ele>426.4</ele><time>2026-04-11T08:24:57.999Z</time></trkpt><trkpt lat="45.754677679430486" lon="8.481921533942508"><ele>426.8</ele><time>2026-04-11T08:24:58.999Z</time></trkpt><trkpt lat="45.75463104798855" lon="8.481776308154476"><ele>427.19999999999993</ele><time>2026-04-11T08:24:59.999Z</time></trkpt><trkpt lat="45.754577318093915" lon="8.481640376223716"><ele>427.59999999999997</ele><time>2026-04-11T08:25:00.999Z</time></trkpt><trkpt lat="45.754518530171936" lon="8.48151280837083"><ele>428.0</ele><time>2026-04-11T08:25:01.999Z</time></trkpt><trkpt lat="45.75445798496096" lon="8.48137990284591"><ele>428.25</ele><time>2026-04-11T08:25:02.999Z</time></trkpt><trkpt lat="45.75440118412755" lon="8.481237471722203"><ele>428.5</ele><time>2026-04-11T08:25:03.999Z</time></trkpt><trkpt lat="45.75433622339224" lon="8.48110710703609"><ele>428.75</ele><time>2026-04-11T08:25:04.999Z</time></trkpt><trkpt lat="45.754271106527476" lon="8.480971964821547"><ele>429.0</ele><time>2026-04-11T08:25:05.999Z</time></trkpt><trkpt lat="45.75420810011777" lon="8.480830013637405"><ele>429.0</ele><time>2026-04-11T08:25:06.999Z</time></trkpt><trkpt lat="45.754143420363995" lon="8.480693524222369"><ele>429.0</ele><time>2026-04-11T08:25:07.999Z</time></trkpt><trkpt lat="45.75407504141387" lon="8.480552359240253"><ele>429.0</ele><time>2026-04-11T08:25:08.999Z</time></trkpt><trkpt lat="45.75400288407732" lon="8.480413696885535"><ele>429.0</ele><time>2026-04-11T08:25:09.999Z</time></trkpt><trkpt lat="45.753933809834756" lon="8.48026932923771"><ele>429.0</ele><time>2026-04-11T08:25:10.999Z</time></trkpt><trkpt lat="45.75386349477407" lon="8.480123424999736"><ele>429.0</ele><time>2026-04-11T08:25:11.999Z</time></trkpt><trkpt lat="45.753796838203975" lon="8.479971268059472"><ele>429.0</ele><time>2026-04-11T08:25:12.999Z</time></trkpt><trkpt lat="45.753725885963505" lon="8.479824518062891"><ele>429.0</ele><time>2026-04-11T08:25:13.999Z</time></trkpt><trkpt lat="45.75366700801968" lon="8.479668979017779"><ele>428.75</ele><time>2026-04-11T08:25:14.999Z</time></trkpt><trkpt lat="45.75362160872222" lon="8.479502639306384"><ele>428.5</ele><time>2026-04-11T08:25:15.999Z</time></trkpt><trkpt lat="45.753607362091785" lon="8.479325910726965"><ele>428.25</ele><time>2026-04-11T08:25:16.999Z</time></trkpt><trkpt lat="45.753575210101815" lon="8.479141695816534"><ele>428.0</ele><time>2026-04-11T08:25:17.999Z</time></trkpt><trkpt lat="45.75355717181148" lon="8.478953958334559"><ele>428.0</ele><time>2026-04-11T08:25:18.999Z</time></trkpt><trkpt lat="45.75354072076427" lon="8.478764622487253"><ele>428.0</ele><time>2026-04-11T08:25:19.999Z</time></trkpt><trkpt lat="45.75353466747003" lon="8.478576505929134"><ele>428.0</ele><time>2026-04-11T08:25:20.999Z</time></trkpt><trkpt lat="45.75353683027129" lon="8.478400207121222"><ele>428.0</ele><time>2026-04-11T08:25:21.999Z</time></trkpt><trkpt lat="45.75353942943153" lon="8.478244516465567"><ele>428.0</ele><time>2026-04-11T08:25:22.999Z</time></trkpt><trkpt lat="45.75354275885575" lon="8.478101955205345"><ele>427.99999999999994</ele><time>2026-04-11T08:25:23.999Z</time></trkpt><trkpt lat="45.753548454149275" lon="8.477960458167866"><ele>427.99999999999994</ele><time>2026-04-11T08:25:24.999Z</time></trkpt><trkpt lat="45.75354705180858" lon="8.477813578218807"><ele>428.0</ele><time>2026-04-11T08:25:25.999Z</time></trkpt><trkpt lat="45.753545444099124" lon="8.477664377932275"><ele>428.0</ele><time>2026-04-11T08:25:26.999Z</time></trkpt><trkpt lat="45.7535430703272" lon="8.47750822203028"><ele>428.0</ele><time>2026-04-11T08:25:27.999Z</time></trkpt><trkpt lat="45.75354834654168" lon="8.477346283684923"><ele>428.0</ele><time>2026-04-11T08:25:28.999Z</time></trkpt><trkpt lat="45.75356909154231" lon="8.477176431066233"><ele>428.0</ele><time>2026-04-11T08:25:29.999Z</time></trkpt><trkpt lat="45.75359575516175" lon="8.476999716612504"><ele>428.0</ele><time>2026-04-11T08:25:30.999Z</time></trkpt><trkpt lat="45.753622832407146" lon="8.476816646948228"><ele>428.0</ele><time>2026-04-11T08:25:31.999Z</time></trkpt><trkpt lat="45.753656000009755" lon="8.476628403530473"><ele>428.0</ele><time>2026-04-11T08:25:32.999Z</time></trkpt><trkpt lat="45.75368830948599" lon="8.476435381217646"><ele>428.0</ele><time>2026-04-11T08:25:33.999Z</time></trkpt><trkpt lat="45.753721697095365" lon="8.476235807131044"><ele>428.0</ele><time>2026-04-11T08:25:34.999Z</time></trkpt><trkpt lat="45.753752528605794" lon="8.476030851387202"><ele>427.0</ele><time>2026-04-11T08:25:35.999Z</time></trkpt><trkpt lat="45.75378860096655" lon="8.475821454148683"><ele>426.0</ele><time>2026-04-11T08:25:36.999Z</time></trkpt><trkpt lat="45.75382025165792" lon="8.475604157129698"><ele>425.0</ele><time>2026-04-11T08:25:37.999Z</time></trkpt><trkpt lat="45.75383723959734" lon="8.475379956216809"><ele>423.3333333333333</ele><time>2026-04-11T08:25:38.999Z</time></trkpt><trkpt lat="45.75384808725942" lon="8.475147117179118"><ele>421.66666666666663</ele><time>2026-04-11T08:25:39.999Z</time></trkpt><trkpt lat="45.75385231251161" lon="8.474929199950719"><ele>420.0</ele><time>2026-04-11T08:25:40.999Z</time></trkpt><trkpt lat="45.75386769887244" lon="8.474700992668609"><ele>420.33333333333337</ele><time>2026-04-11T08:25:41.999Z</time></trkpt><trkpt lat="45.753892785321696" lon="8.474491016849912"><ele>420.6666666666667</ele><time>2026-04-11T08:25:42.999Z</time></trkpt><trkpt lat="45.75389992083292" lon="8.474255515747256"><ele>421.0</ele><time>2026-04-11T08:25:43.999Z</time></trkpt><trkpt lat="45.75391232416402" lon="8.474056752206646"><ele>421.0</ele><time>2026-04-11T08:25:44.999Z</time></trkpt><trkpt lat="45.75388201696983" lon="8.473856170168435"><ele>421.0</ele><time>2026-04-11T08:25:45.999Z</time></trkpt><trkpt lat="45.753883838472596" lon="8.473640908659213"><ele>421.0</ele><time>2026-04-11T08:25:46.999Z</time></trkpt><trkpt lat="45.75388137044865" lon="8.473402651871657"><ele>420.33333333333337</ele><time>2026-04-11T08:25:47.999Z</time></trkpt><trkpt lat="45.75387691162213" lon="8.473169412163081"><ele>419.66666666666663</ele><time>2026-04-11T08:25:48.999Z</time></trkpt><trkpt lat="45.753911008711924" lon="8.472935457269381"><ele>419.0</ele><time>2026-04-11T08:25:49.999Z</time></trkpt><trkpt lat="45.75399251885152" lon="8.472754425100307"><ele>419.0</ele><time>2026-04-11T08:25:50.999Z</time></trkpt><trkpt lat="45.75409228033761" lon="8.472575786003523"><ele>419.0</ele><time>2026-04-11T08:25:51.999Z</time></trkpt><trkpt lat="45.75420018320746" lon="8.47244861343257"><ele>419.0</ele><time>2026-04-11T08:25:52.999Z</time></trkpt><trkpt lat="45.754330416702096" lon="8.472361690672388"><ele>419.0</ele><time>2026-04-11T08:25:53.999Z</time></trkpt><trkpt lat="45.75445204251029" lon="8.472320492456374"><ele>417.25</ele><time>2026-04-11T08:25:54.999Z</time></trkpt><trkpt lat="45.75459095467041" lon="8.472273511124541"><ele>415.5</ele><time>2026-04-11T08:25:55.999Z</time></trkpt><trkpt lat="45.75471291820521" lon="8.472198154022527"><ele>413.75</ele><time>2026-04-11T08:25:56.999Z</time></trkpt><trkpt lat="45.75480515849909" lon="8.47204150889171"><ele>412.0</ele><time>2026-04-11T08:25:57.999Z</time></trkpt><trkpt lat="45.7548536822873" lon="8.471848616034425"><ele>412.0</ele><time>2026-04-11T08:25:58.999Z</time></trkpt><trkpt lat="45.754938835171366" lon="8.471645880526356"><ele>412.0</ele><time>2026-04-11T08:25:59.999Z</time></trkpt><trkpt lat="45.75500621682161" lon="8.47144144128634"><ele>412.0</ele><time>2026-04-11T08:26:00.999Z</time></trkpt><trkpt lat="45.755071828053715" lon="8.471244159604288"><ele>412.75</ele><time>2026-04-11T08:26:01.999Z</time></trkpt><trkpt lat="45.75512939574142" lon="8.47106051310632"><ele>413.5</ele><time>2026-04-11T08:26:02.999Z</time></trkpt><trkpt lat="45.7551516227642" lon="8.470846501968218"><ele>414.25</ele><time>2026-04-11T08:26:03.999Z</time></trkpt><trkpt lat="45.75518307065498" lon="8.47063916024928"><ele>415.0</ele><time>2026-04-11T08:26:04.999Z</time></trkpt><trkpt lat="45.75515186367048" lon="8.470452348790452"><ele>414.25</ele><time>2026-04-11T08:26:05.999Z</time></trkpt><trkpt lat="45.75508540298681" lon="8.470251410286444"><ele>413.5</ele><time>2026-04-11T08:26:06.999Z</time></trkpt><trkpt lat="45.75504607234167" lon="8.47005730798931"><ele>412.75</ele><time>2026-04-11T08:26:07.999Z</time></trkpt><trkpt lat="45.75500030976654" lon="8.469870835036843"><ele>412.0</ele><time>2026-04-11T08:26:08.999Z</time></trkpt><trkpt lat="45.75497709600233" lon="8.469678806650348"><ele>410.5</ele><time>2026-04-11T08:26:09.999Z</time></trkpt><trkpt lat="45.75492388201175" lon="8.469478652248894"><ele>409.0</ele><time>2026-04-11T08:26:10.999Z</time></trkpt><trkpt lat="45.75486277087443" lon="8.469277798526967"><ele>407.5</ele><time>2026-04-11T08:26:11.999Z</time></trkpt><trkpt lat="45.75477397410276" lon="8.46913325349304"><ele>406.0</ele><time>2026-04-11T08:26:12.999Z</time></trkpt><trkpt lat="45.754614058800875" lon="8.469076784630445"><ele>406.0</ele><time>2026-04-11T08:26:13.999Z</time></trkpt><trkpt lat="45.754458778725834" lon="8.469025166599533"><ele>406.0</ele><time>2026-04-11T08:26:14.999Z</time></trkpt><trkpt lat="45.75429388300309" lon="8.468963535625342"><ele>406.0</ele><time>2026-04-11T08:26:15.999Z</time></trkpt><trkpt lat="45.75413814890499" lon="8.468905644606476"><ele>406.6666666666667</ele><time>2026-04-11T08:26:16.999Z</time></trkpt><trkpt lat="45.753985301256996" lon="8.46883577264925"><ele>407.33333333333337</ele><time>2026-04-11T08:26:17.999Z</time></trkpt><trkpt lat="45.7538096044136" lon="8.468817364369642"><ele>408.0</ele><time>2026-04-11T08:26:18.999Z</time></trkpt><trkpt lat="45.75364615431313" lon="8.468770132123122"><ele>407.0</ele><time>2026-04-11T08:26:19.999Z</time></trkpt><trkpt lat="45.75348116083917" lon="8.468695454094606"><ele>406.0</ele><time>2026-04-11T08:26:20.999Z</time></trkpt><trkpt lat="45.75331761578469" lon="8.468630528680858"><ele>405.0</ele><time>2026-04-11T08:26:21.999Z</time></trkpt><trkpt lat="45.753155746823914" lon="8.46858062629015"><ele>405.0</ele><time>2026-04-11T08:26:22.999Z</time></trkpt><trkpt lat="45.75300403682692" lon="8.468487195410312"><ele>405.0</ele><time>2026-04-11T08:26:23.999Z</time></trkpt><trkpt lat="45.75285558242123" lon="8.468356398231771"><ele>405.0</ele><time>2026-04-11T08:26:24.999Z</time></trkpt><trkpt lat="45.75271618374804" lon="8.468216127689864"><ele>404.66666666666663</ele><time>2026-04-11T08:26:25.999Z</time></trkpt><trkpt lat="45.75256904617122" lon="8.468117023153685"><ele>404.3333333333333</ele><time>2026-04-11T08:26:26.999Z</time></trkpt><trkpt lat="45.752432738670194" lon="8.467979079410817"><ele>404.0</ele><time>2026-04-11T08:26:27.999Z</time></trkpt><trkpt lat="45.752314576701124" lon="8.467828529808143"><ele>404.0</ele><time>2026-04-11T08:26:28.999Z</time></trkpt><trkpt lat="45.752193932063896" lon="8.4677229235273"><ele>404.0</ele><time>2026-04-11T08:26:29.999Z</time></trkpt><trkpt lat="45.75209155087305" lon="8.467592983744447"><ele>404.0</ele><time>2026-04-11T08:26:30.999Z</time></trkpt><trkpt lat="45.75198945016038" lon="8.467462073466258"><ele>404.0</ele><time>2026-04-11T08:26:31.999Z</time></trkpt><trkpt lat="45.75189101987835" lon="8.467380141704881"><ele>403.6</ele><time>2026-04-11T08:26:32.999Z</time></trkpt><trkpt lat="45.75181579169405" lon="8.467283358305572"><ele>403.2</ele><time>2026-04-11T08:26:33.999Z</time></trkpt><trkpt lat="45.7517457416612" lon="8.46718346619681"><ele>402.8</ele><time>2026-04-11T08:26:34.999Z</time></trkpt><trkpt lat="45.751729694389205" lon="8.467088670396807"><ele>402.40000000000003</ele><time>2026-04-11T08:26:35.999Z</time></trkpt><trkpt lat="45.7517340395945" lon="8.466933878346785"><ele>402.0</ele><time>2026-04-11T08:26:36.999Z</time></trkpt><trkpt lat="45.75173180441714" lon="8.46675779415583"><ele>402.5</ele><time>2026-04-11T08:26:37.999Z</time></trkpt><trkpt lat="45.75175822195885" lon="8.466664009531673"><ele>403.0</ele><time>2026-04-11T08:26:38.999Z</time></trkpt><trkpt lat="45.75182524752856" lon="8.466585497234698"><ele>403.5</ele><time>2026-04-11T08:26:40.999Z</time></trkpt><trkpt lat="45.75188985948604" lon="8.466562225597025"><ele>404.0</ele><time>2026-04-11T08:26:41.999Z</time></trkpt><trkpt lat="45.75196732994635" lon="8.46655423698592"><ele>404.5</ele><time>2026-04-11T08:26:42.999Z</time></trkpt><trkpt lat="45.75205988852852" lon="8.466539283345314"><ele>405.0</ele><time>2026-04-11T08:26:43.999Z</time></trkpt><trkpt lat="45.75217853047299" lon="8.466464696713041"><ele>405.0</ele><time>2026-04-11T08:26:44.999Z</time></trkpt><trkpt lat="45.752286007802525" lon="8.466349993542664"><ele>405.0</ele><time>2026-04-11T08:26:45.999Z</time></trkpt><trkpt lat="45.75236464685242" lon="8.466212201420584"><ele>405.0</ele><time>2026-04-11T08:26:46.999Z</time></trkpt><trkpt lat="45.75241879054205" lon="8.466069482488683"><ele>405.0</ele><time>2026-04-11T08:26:47.999Z</time></trkpt><trkpt lat="45.75246555749083" lon="8.465924643315349"><ele>406.2</ele><time>2026-04-11T08:26:48.999Z</time></trkpt><trkpt lat="45.75250561117352" lon="8.46581185257186"><ele>407.4</ele><time>2026-04-11T08:26:49.999Z</time></trkpt><trkpt lat="45.75256776411272" lon="8.46569094411291"><ele>408.6</ele><time>2026-04-11T08:26:50.999Z</time></trkpt><trkpt lat="45.7526549045336" lon="8.465622803209383"><ele>409.8</ele><time>2026-04-11T08:26:51.999Z</time></trkpt><trkpt lat="45.75275567230502" lon="8.465553737821375"><ele>411.0</ele><time>2026-04-11T08:26:52.999Z</time></trkpt><trkpt lat="45.75285580336047" lon="8.465452422511216"><ele>406.4</ele><time>2026-04-11T08:26:53.999Z</time></trkpt><trkpt lat="45.7529444667761" lon="8.465330668381895"><ele>401.8</ele><time>2026-04-11T08:26:54.999Z</time></trkpt><trkpt lat="45.75302792587135" lon="8.465225430810158"><ele>397.2</ele><time>2026-04-11T08:26:55.999Z</time></trkpt><trkpt lat="45.75310560602141" lon="8.465151169876227"><ele>392.59999999999997</ele><time>2026-04-11T08:26:56.999Z</time></trkpt><trkpt lat="45.75319565347787" lon="8.465109835208832"><ele>388.0</ele><time>2026-04-11T08:26:57.999Z</time></trkpt><trkpt lat="45.753291800293546" lon="8.465083000201913"><ele>388.0</ele><time>2026-04-11T08:26:58.999Z</time></trkpt><trkpt lat="45.753394235753476" lon="8.465038812019873"><ele>388.0</ele><time>2026-04-11T08:26:59.999Z</time></trkpt><trkpt lat="45.75349889589264" lon="8.465034115629011"><ele>388.0</ele><time>2026-04-11T08:27:00.999Z</time></trkpt><trkpt lat="45.753630820661336" lon="8.464972940973396"><ele>388.0</ele><time>2026-04-11T08:27:01.999Z</time></trkpt><trkpt lat="45.7537491468391" lon="8.464853556852464"><ele>386.75</ele><time>2026-04-11T08:27:02.999Z</time></trkpt><trkpt lat="45.753842941389095" lon="8.464732178586937"><ele>385.5</ele><time>2026-04-11T08:27:03.999Z</time></trkpt><trkpt lat="45.753917522861094" lon="8.464588549504994"><ele>384.25</ele><time>2026-04-11T08:27:04.999Z</time></trkpt><trkpt lat="45.754002123290775" lon="8.464434989013208"><ele>383.0</ele><time>2026-04-11T08:27:05.999Z</time></trkpt><trkpt lat="45.7540732223161" lon="8.464261123412413"><ele>383.0</ele><time>2026-04-11T08:27:06.999Z</time></trkpt><trkpt lat="45.75416445359584" lon="8.464140711245204"><ele>383.0</ele><time>2026-04-11T08:27:07.999Z</time></trkpt><trkpt lat="45.75427527094108" lon="8.464059314440012"><ele>383.0</ele><time>2026-04-11T08:27:08.999Z</time></trkpt><trkpt lat="45.75434889025042" lon="8.46398790593917"><ele>383.0</ele><time>2026-04-11T08:27:09.999Z</time></trkpt><trkpt lat="45.75443701858361" lon="8.463916585301723"><ele>383.0</ele><time>2026-04-11T08:27:10.999Z</time></trkpt><trkpt lat="45.75447139808583" lon="8.463769337584298"><ele>381.5</ele><time>2026-04-11T08:27:11.999Z</time></trkpt><trkpt lat="45.75447464296872" lon="8.463568810142583"><ele>380.0</ele><time>2026-04-11T08:27:12.999Z</time></trkpt><trkpt lat="45.754494088205654" lon="8.463408713370631"><ele>378.5</ele><time>2026-04-11T08:27:13.999Z</time></trkpt><trkpt lat="45.75452604672069" lon="8.463274704001874"><ele>377.0</ele><time>2026-04-11T08:27:14.999Z</time></trkpt><trkpt lat="45.75455032789377" lon="8.463135247007083"><ele>377.0</ele><time>2026-04-11T08:27:15.999Z</time></trkpt><trkpt lat="45.75455899301886" lon="8.462999885899665"><ele>377.0</ele><time>2026-04-11T08:27:16.999Z</time></trkpt><trkpt lat="45.7545474169982" lon="8.46286045318851"><ele>377.0</ele><time>2026-04-11T08:27:17.999Z</time></trkpt><trkpt lat="45.754525103755235" lon="8.462722169543486"><ele>377.0</ele><time>2026-04-11T08:27:18.999Z</time></trkpt><trkpt lat="45.75452920474015" lon="8.462580471345122"><ele>377.0</ele><time>2026-04-11T08:27:19.999Z</time></trkpt><trkpt lat="45.75451881110484" lon="8.462466473424778"><ele>377.0</ele><time>2026-04-11T08:27:20.999Z</time></trkpt><trkpt lat="45.75459645977371" lon="8.462332686239591"><ele>377.0</ele><time>2026-04-11T08:27:22.999Z</time></trkpt><trkpt lat="45.75465935319676" lon="8.46226909931929"><ele>377.0</ele><time>2026-04-11T08:27:23.999Z</time></trkpt><trkpt lat="45.75472757568424" lon="8.462158779310636"><ele>377.0</ele><time>2026-04-11T08:27:24.999Z</time></trkpt><trkpt lat="45.754777517488506" lon="8.462034774866932"><ele>377.0</ele><time>2026-04-11T08:27:25.999Z</time></trkpt><trkpt lat="45.75481787754288" lon="8.461886216500265"><ele>380.0</ele><time>2026-04-11T08:27:26.999Z</time></trkpt><trkpt lat="45.75485268499825" lon="8.461715313381678"><ele>383.0</ele><time>2026-04-11T08:27:27.999Z</time></trkpt><trkpt lat="45.75487502558665" lon="8.461544334755965"><ele>386.0</ele><time>2026-04-11T08:27:28.999Z</time></trkpt><trkpt lat="45.75489443614632" lon="8.461368144409679"><ele>389.0</ele><time>2026-04-11T08:27:29.999Z</time></trkpt><trkpt lat="45.75491691025938" lon="8.461164146240412"><ele>390.5</ele><time>2026-04-11T08:27:30.999Z</time></trkpt><trkpt lat="45.754936968490675" lon="8.460981535440327"><ele>392.0</ele><time>2026-04-11T08:27:31.999Z</time></trkpt><trkpt lat="45.75495347124199" lon="8.460804255521769"><ele>393.5</ele><time>2026-04-11T08:27:32.999Z</time></trkpt><trkpt lat="45.754967701050106" lon="8.460617802724745"><ele>395.0</ele><time>2026-04-11T08:27:33.999Z</time></trkpt><trkpt lat="45.75497943305134" lon="8.460440824723243"><ele>396.0</ele><time>2026-04-11T08:27:34.999Z</time></trkpt><trkpt lat="45.7550013961028" lon="8.460273791274094"><ele>397.0</ele><time>2026-04-11T08:27:35.999Z</time></trkpt><trkpt lat="45.755054540915204" lon="8.460128855872446"><ele>398.0</ele><time>2026-04-11T08:27:36.999Z</time></trkpt><trkpt lat="45.75512462236791" lon="8.459991565242897"><ele>399.0</ele><time>2026-04-11T08:27:37.999Z</time></trkpt><trkpt lat="45.75520151044669" lon="8.459849765131299"><ele>398.0</ele><time>2026-04-11T08:27:39Z</time></trkpt><trkpt lat="45.75528821335049" lon="8.459696862790022"><ele>397.0</ele><time>2026-04-11T08:27:40Z</time></trkpt><trkpt lat="45.755389649164094" lon="8.459539514492848"><ele>396.0</ele><time>2026-04-11T08:27:41Z</time></trkpt><trkpt lat="45.75548408550012" lon="8.459400702407939"><ele>395.0</ele><time>2026-04-11T08:27:42Z</time></trkpt><trkpt lat="45.755601083030996" lon="8.459244453526383"><ele>397.5</ele><time>2026-04-11T08:27:43Z</time></trkpt><trkpt lat="45.75570278303362" lon="8.459116176891904"><ele>400.0</ele><time>2026-04-11T08:27:44Z</time></trkpt><trkpt lat="45.75581934206964" lon="8.458983037723707"><ele>402.5</ele><time>2026-04-11T08:27:45Z</time></trkpt><trkpt lat="45.7559193358302" lon="8.458872083597273"><ele>405.0</ele><time>2026-04-11T08:27:46Z</time></trkpt><trkpt lat="45.756036126587695" lon="8.458737370266112"><ele>408.75</ele><time>2026-04-11T08:27:47Z</time></trkpt><trkpt lat="45.75613829925273" lon="8.458611291183493"><ele>412.5</ele><time>2026-04-11T08:27:48Z</time></trkpt><trkpt lat="45.75625810659963" lon="8.458444050417622"><ele>416.25</ele><time>2026-04-11T08:27:49Z</time></trkpt><trkpt lat="45.756357450431324" lon="8.458302136856197"><ele>420.0</ele><time>2026-04-11T08:27:50Z</time></trkpt><trkpt lat="45.75646577187361" lon="8.45816765400825"><ele>420.0</ele><time>2026-04-11T08:27:51Z</time></trkpt><trkpt lat="45.75657393668225" lon="8.458046565258364"><ele>420.0</ele><time>2026-04-11T08:27:52Z</time></trkpt><trkpt lat="45.75668911343161" lon="8.457942480636909"><ele>420.0</ele><time>2026-04-11T08:27:53Z</time></trkpt><trkpt lat="45.75680311122131" lon="8.457848089945935"><ele>420.0</ele><time>2026-04-11T08:27:54Z</time></trkpt><trkpt lat="45.75690150031537" lon="8.457767009089064"><ele>423.5</ele><time>2026-04-11T08:27:55Z</time></trkpt><trkpt lat="45.756958652342334" lon="8.457715466946912"><ele>427.0</ele><time>2026-04-11T08:27:56Z</time></trkpt><trkpt lat="45.75709562036744" lon="8.457671384760198"><ele>430.5</ele><time>2026-04-11T08:27:57Z</time></trkpt><trkpt lat="45.757229553341126" lon="8.4576713418014"><ele>434.0</ele><time>2026-04-11T08:27:58Z</time></trkpt><trkpt lat="45.757388448225505" lon="8.457694361435015"><ele>434.0</ele><time>2026-04-11T08:27:59Z</time></trkpt><trkpt lat="45.75754325870849" lon="8.457708291584687"><ele>434.0</ele><time>2026-04-11T08:28:00Z</time></trkpt><trkpt lat="45.75770724072533" lon="8.457710458729156"><ele>434.0</ele><time>2026-04-11T08:28:01Z</time></trkpt><trkpt lat="45.75785798114372" lon="8.457708272831635"><ele>437.66666666666663</ele><time>2026-04-11T08:28:02Z</time></trkpt><trkpt lat="45.7579993707363" lon="8.457729601363928"><ele>441.33333333333337</ele><time>2026-04-11T08:28:03Z</time></trkpt><trkpt lat="45.75813755635701" lon="8.457728339115976"><ele>445.0</ele><time>2026-04-11T08:28:04Z</time></trkpt><trkpt lat="45.75831456783079" lon="8.45775231263803"><ele>445.0</ele><time>2026-04-11T08:28:05Z</time></trkpt><trkpt lat="45.75847621287588" lon="8.45780283225094"><ele>445.0</ele><time>2026-04-11T08:28:06Z</time></trkpt><trkpt lat="45.75861375431076" lon="8.457778952345976"><ele>445.0</ele><time>2026-04-11T08:28:07Z</time></trkpt><trkpt lat="45.758753120920844" lon="8.457782678977773"><ele>445.0</ele><time>2026-04-11T08:28:08Z</time></trkpt><trkpt lat="45.75889888760441" lon="8.457755503127586"><ele>443.6666666666667</ele><time>2026-04-11T08:28:09Z</time></trkpt><trkpt lat="45.75903770168069" lon="8.457716277203195"><ele>442.33333333333337</ele><time>2026-04-11T08:28:10Z</time></trkpt><trkpt lat="45.75920035299499" lon="8.457628968570765"><ele>441.0</ele><time>2026-04-11T08:28:11Z</time></trkpt><trkpt lat="45.75934924524651" lon="8.457530691327074"><ele>433.0</ele><time>2026-04-11T08:28:12Z</time></trkpt><trkpt lat="45.75949498866439" lon="8.457404713961946"><ele>425.0</ele><time>2026-04-11T08:28:13Z</time></trkpt><trkpt lat="45.75960014789122" lon="8.457254052683195"><ele>417.0</ele><time>2026-04-11T08:28:14Z</time></trkpt><trkpt lat="45.759669204232445" lon="8.457065826267186"><ele>417.0</ele><time>2026-04-11T08:28:15Z</time></trkpt><trkpt lat="45.75971239242101" lon="8.456873909687724"><ele>417.0</ele><time>2026-04-11T08:28:16Z</time></trkpt><trkpt lat="45.759725456939364" lon="8.456703254433961"><ele>417.0</ele><time>2026-04-11T08:28:17Z</time></trkpt><trkpt lat="45.75971347998615" lon="8.456519192093898"><ele>417.0</ele><time>2026-04-11T08:28:18Z</time></trkpt><trkpt lat="45.75966805649258" lon="8.456378083543129"><ele>419.0</ele><time>2026-04-11T08:28:19Z</time></trkpt><trkpt lat="45.75959197451284" lon="8.456220378822941"><ele>421.0</ele><time>2026-04-11T08:28:20Z</time></trkpt><trkpt lat="45.759556346797424" lon="8.456085277352248"><ele>423.00000000000006</ele><time>2026-04-11T08:28:21Z</time></trkpt><trkpt lat="45.759523809394835" lon="8.456007202522022"><ele>425.0</ele><time>2026-04-11T08:28:22Z</time></trkpt><trkpt lat="45.75947788932093" lon="8.455915193161324"><ele>427.0</ele><time>2026-04-11T08:28:23Z</time></trkpt><trkpt lat="45.75944861728242" lon="8.455783572136793"><ele>427.00000000000006</ele><time>2026-04-11T08:28:24Z</time></trkpt><trkpt lat="45.759444025140816" lon="8.455655681552823"><ele>427.0</ele><time>2026-04-11T08:28:25Z</time></trkpt><trkpt lat="45.759447129283906" lon="8.455551146681092"><ele>427.0</ele><time>2026-04-11T08:28:26Z</time></trkpt><trkpt lat="45.75946539554319" lon="8.455436115037463"><ele>427.0</ele><time>2026-04-11T08:28:27Z</time></trkpt><trkpt lat="45.75949015093554" lon="8.455302353531433"><ele>427.00000000000006</ele><time>2026-04-11T08:28:28Z</time></trkpt><trkpt lat="45.75951978519189" lon="8.455179569803683"><ele>427.0</ele><time>2026-04-11T08:28:29Z</time></trkpt><trkpt lat="45.75956067840413" lon="8.455077632911479"><ele>428.6</ele><time>2026-04-11T08:28:30Z</time></trkpt><trkpt lat="45.759617396623824" lon="8.454977327221995"><ele>430.20000000000005</ele><time>2026-04-11T08:28:31Z</time></trkpt><trkpt lat="45.75969243395797" lon="8.454878718219122"><ele>431.8</ele><time>2026-04-11T08:28:32Z</time></trkpt><trkpt lat="45.75978132500799" lon="8.454782732084142"><ele>433.4</ele><time>2026-04-11T08:28:33Z</time></trkpt><trkpt lat="45.759883177390115" lon="8.454675580191118"><ele>435.0</ele><time>2026-04-11T08:28:34Z</time></trkpt><trkpt lat="45.75998021103623" lon="8.45457054637591"><ele>436.0</ele><time>2026-04-11T08:28:35Z</time></trkpt><trkpt lat="45.760079528594986" lon="8.454463040428257"><ele>437.0</ele><time>2026-04-11T08:28:36Z</time></trkpt><trkpt lat="45.76017851839809" lon="8.454359908323177"><ele>438.0</ele><time>2026-04-11T08:28:37Z</time></trkpt><trkpt lat="45.760284869701685" lon="8.454259979059357"><ele>439.0</ele><time>2026-04-11T08:28:38Z</time></trkpt><trkpt lat="45.760387046238776" lon="8.454185259730728"><ele>439.0</ele><time>2026-04-11T08:28:38.999Z</time></trkpt><trkpt lat="45.76050364148908" lon="8.454136689493915"><ele>439.0</ele><time>2026-04-11T08:28:39.999Z</time></trkpt><trkpt lat="45.76063268983889" lon="8.454103710242943"><ele>439.0</ele><time>2026-04-11T08:28:40.999Z</time></trkpt><trkpt lat="45.76076274851407" lon="8.454076198815923"><ele>439.0</ele><time>2026-04-11T08:28:41.999Z</time></trkpt><trkpt lat="45.76089286030196" lon="8.454051561332042"><ele>439.0</ele><time>2026-04-11T08:28:42.999Z</time></trkpt><trkpt lat="45.76102667786833" lon="8.454028212535867"><ele>439.0</ele><time>2026-04-11T08:28:43.999Z</time></trkpt><trkpt lat="45.76116177200408" lon="8.453992151314127"><ele>439.0</ele><time>2026-04-11T08:28:44.999Z</time></trkpt><trkpt lat="45.76128903440571" lon="8.453935282321646"><ele>439.0</ele><time>2026-04-11T08:28:45.999Z</time></trkpt><trkpt lat="45.76140672604193" lon="8.453838406340898"><ele>440.75</ele><time>2026-04-11T08:28:46.999Z</time></trkpt><trkpt lat="45.76150789523781" lon="8.453724848864335"><ele>442.5</ele><time>2026-04-11T08:28:47.999Z</time></trkpt><trkpt lat="45.761601667834974" lon="8.453608614620373"><ele>444.25</ele><time>2026-04-11T08:28:48.999Z</time></trkpt><trkpt lat="45.761696250430866" lon="8.453491376361058"><ele>446.0</ele><time>2026-04-11T08:28:49.999Z</time></trkpt><trkpt lat="45.761792569229286" lon="8.453371004173556"><ele>445.75</ele><time>2026-04-11T08:28:50.999Z</time></trkpt><trkpt lat="45.76188852710861" lon="8.45325058018023"><ele>445.5</ele><time>2026-04-11T08:28:51.999Z</time></trkpt><trkpt lat="45.76198527976624" lon="8.453126055082203"><ele>445.25</ele><time>2026-04-11T08:28:52.999Z</time></trkpt><trkpt lat="45.762077839507036" lon="8.452987065359835"><ele>445.0</ele><time>2026-04-11T08:28:53.999Z</time></trkpt><trkpt lat="45.76214724615779" lon="8.45281469539016"><ele>445.0</ele><time>2026-04-11T08:28:54.999Z</time></trkpt><trkpt lat="45.762197103115085" lon="8.452624217199125"><ele>445.0</ele><time>2026-04-11T08:28:55.999Z</time></trkpt><trkpt lat="45.762227805053435" lon="8.452425509188108"><ele>445.0</ele><time>2026-04-11T08:28:56.999Z</time></trkpt><trkpt lat="45.76224404478375" lon="8.45222634369748"><ele>445.0</ele><time>2026-04-11T08:28:57.999Z</time></trkpt><trkpt lat="45.76224717845988" lon="8.452027692407565"><ele>444.25</ele><time>2026-04-11T08:28:58.999Z</time></trkpt><trkpt lat="45.76227273729637" lon="8.451834748428354"><ele>443.5</ele><time>2026-04-11T08:28:59.999Z</time></trkpt><trkpt lat="45.76227151277559" lon="8.451647365305545"><ele>442.75</ele><time>2026-04-11T08:29:00.999Z</time></trkpt><trkpt lat="45.762251576982905" lon="8.45146867652573"><ele>442.0</ele><time>2026-04-11T08:29:01.999Z</time></trkpt><trkpt lat="45.76219870142988" lon="8.451311609828679"><ele>442.25</ele><time>2026-04-11T08:29:02.999Z</time></trkpt><trkpt lat="45.762131761730636" lon="8.45116863959489"><ele>442.5</ele><time>2026-04-11T08:29:03.999Z</time></trkpt><trkpt lat="45.76205586053609" lon="8.451037142446795"><ele>442.75</ele><time>2026-04-11T08:29:04.999Z</time></trkpt><trkpt lat="45.76197999001176" lon="8.450897310548502"><ele>443.0</ele><time>2026-04-11T08:29:05.999Z</time></trkpt><trkpt lat="45.76189943065445" lon="8.450762392618211"><ele>442.3333333333333</ele><time>2026-04-11T08:29:06.999Z</time></trkpt><trkpt lat="45.76181887725763" lon="8.45064328529756"><ele>441.66666666666663</ele><time>2026-04-11T08:29:07.999Z</time></trkpt><trkpt lat="45.76174557659852" lon="8.450536814910029"><ele>441.0</ele><time>2026-04-11T08:29:08.999Z</time></trkpt><trkpt lat="45.7616916846016" lon="8.450438974522417"><ele>440.33333333333337</ele><time>2026-04-11T08:29:09.999Z</time></trkpt><trkpt lat="45.76165821259443" lon="8.450347476245637"><ele>439.6666666666667</ele><time>2026-04-11T08:29:10.999Z</time></trkpt><trkpt lat="45.7616250982501" lon="8.450263655477235"><ele>439.0</ele><time>2026-04-11T08:29:11.999Z</time></trkpt><trkpt lat="45.761583409644544" lon="8.450087009882493"><ele>438.2</ele><time>2026-04-11T08:29:13.999Z</time></trkpt><trkpt lat="45.76157837598491" lon="8.44997543647865"><ele>437.4</ele><time>2026-04-11T08:29:14.999Z</time></trkpt><trkpt lat="45.761579505302294" lon="8.44984996107403"><ele>436.6</ele><time>2026-04-11T08:29:15.999Z</time></trkpt><trkpt lat="45.76158625064794" lon="8.449712221050222"><ele>435.8</ele><time>2026-04-11T08:29:16.999Z</time></trkpt><trkpt lat="45.76162168926476" lon="8.449584078570654"><ele>435.0</ele><time>2026-04-11T08:29:17.999Z</time></trkpt><trkpt lat="45.76165700596755" lon="8.449452753739486"><ele>435.8</ele><time>2026-04-11T08:29:18.999Z</time></trkpt><trkpt lat="45.76169296862877" lon="8.449321466294927"><ele>436.6</ele><time>2026-04-11T08:29:19.999Z</time></trkpt><trkpt lat="45.76177039036929" lon="8.449245515043408"><ele>437.4</ele><time>2026-04-11T08:29:20.999Z</time></trkpt><trkpt lat="45.761847869646786" lon="8.449163070380587"><ele>438.2</ele><time>2026-04-11T08:29:21.999Z</time></trkpt><trkpt lat="45.761928593070316" lon="8.449077699898256"><ele>439.0</ele><time>2026-04-11T08:29:22.999Z</time></trkpt><trkpt lat="45.76200848566716" lon="8.448978482613969"><ele>439.00000000000006</ele><time>2026-04-11T08:29:23.999Z</time></trkpt><trkpt lat="45.76208111212635" lon="8.448880848087489"><ele>439.0</ele><time>2026-04-11T08:29:24.999Z</time></trkpt><trkpt lat="45.762149040604676" lon="8.44878473516356"><ele>439.0</ele><time>2026-04-11T08:29:25.999Z</time></trkpt><trkpt lat="45.76221314567025" lon="8.448694031897828"><ele>439.0</ele><time>2026-04-11T08:29:26.999Z</time></trkpt><trkpt lat="45.76227233932324" lon="8.448614930737826"><ele>439.00000000000006</ele><time>2026-04-11T08:29:27.999Z</time></trkpt><trkpt lat="45.7623314138717" lon="8.44853667648228"><ele>439.0</ele><time>2026-04-11T08:29:28.999Z</time></trkpt><trkpt lat="45.762391847261696" lon="8.448447985893493"><ele>436.50000000000006</ele><time>2026-04-11T08:29:29.999Z</time></trkpt><trkpt lat="45.7624430997075" lon="8.448340620807217"><ele>434.0</ele><time>2026-04-11T08:29:30.999Z</time></trkpt><trkpt lat="45.76246143739456" lon="8.448213695880145"><ele>431.5</ele><time>2026-04-11T08:29:31.999Z</time></trkpt><trkpt lat="45.76243863088884" lon="8.448090908663723"><ele>429.0</ele><time>2026-04-11T08:29:32.999Z</time></trkpt><trkpt lat="45.762425047348685" lon="8.447971949123534"><ele>426.50000000000006</ele><time>2026-04-11T08:29:33.999Z</time></trkpt><trkpt lat="45.762400184057945" lon="8.447850311594955"><ele>424.0</ele><time>2026-04-11T08:29:34.999Z</time></trkpt><trkpt lat="45.76236846871586" lon="8.447718232385602"><ele>422.79999999999995</ele><time>2026-04-11T08:29:35.999Z</time></trkpt><trkpt lat="45.762339763343924" lon="8.447575063328708"><ele>421.59999999999997</ele><time>2026-04-11T08:29:36.999Z</time></trkpt><trkpt lat="45.76231782920625" lon="8.447423140484553"><ele>420.4</ele><time>2026-04-11T08:29:37.999Z</time></trkpt><trkpt lat="45.762298066366554" lon="8.447273510385617"><ele>419.2</ele><time>2026-04-11T08:29:38.999Z</time></trkpt><trkpt lat="45.762268080539506" lon="8.447144661232796"><ele>418.0</ele><time>2026-04-11T08:29:39.999Z</time></trkpt><trkpt lat="45.762237871037115" lon="8.44703530154255"><ele>417.00000000000006</ele><time>2026-04-11T08:29:40.999Z</time></trkpt><trkpt lat="45.762235947153705" lon="8.4469372944298"><ele>416.0</ele><time>2026-04-11T08:29:41.999Z</time></trkpt><trkpt lat="45.76223651585517" lon="8.446837774189012"><ele>415.0</ele><time>2026-04-11T08:29:42.999Z</time></trkpt><trkpt lat="45.762295931796" lon="8.4466738667603"><ele>414.0</ele><time>2026-04-11T08:29:44.999Z</time></trkpt><trkpt lat="45.76233257930352" lon="8.446592528631813"><ele>413.00000000000006</ele><time>2026-04-11T08:29:45.999Z</time></trkpt><trkpt lat="45.76235760293196" lon="8.446503297557257"><ele>412.0</ele><time>2026-04-11T08:29:46.999Z</time></trkpt><trkpt lat="45.76239499926033" lon="8.446428996739494"><ele>412.0</ele><time>2026-04-11T08:29:47.999Z</time></trkpt><trkpt lat="45.76247157220604" lon="8.446296155222253"><ele>412.0</ele><time>2026-04-11T08:29:49.999Z</time></trkpt><trkpt lat="45.762573689268265" lon="8.446196419118788"><ele>412.0</ele><time>2026-04-11T08:29:51.999Z</time></trkpt><trkpt lat="45.76262778647073" lon="8.446143779881947"><ele>412.0</ele><time>2026-04-11T08:29:52.999Z</time></trkpt><trkpt lat="45.762722137573874" lon="8.446034593208017"><ele>412.0</ele><time>2026-04-11T08:29:54.999Z</time></trkpt><trkpt lat="45.762763122905994" lon="8.44595750817023"><ele>411.8</ele><time>2026-04-11T08:29:55.999Z</time></trkpt><trkpt lat="45.76282231535595" lon="8.445806040558754"><ele>411.6</ele><time>2026-04-11T08:29:57.999Z</time></trkpt><trkpt lat="45.76284479013874" lon="8.44564379880931"><ele>411.40000000000003</ele><time>2026-04-11T08:29:59.999Z</time></trkpt><trkpt lat="45.762823309979126" lon="8.445465332984922"><ele>411.20000000000005</ele><time>2026-04-11T08:30:02.999Z</time></trkpt><trkpt lat="45.76283545530869" lon="8.445366267874734"><ele>411.0</ele><time>2026-04-11T08:30:06.999Z</time></trkpt><trkpt lat="45.762928216621226" lon="8.445331085539472"><ele>411.0</ele><time>2026-04-11T08:30:09.999Z</time></trkpt><trkpt lat="45.76303153788337" lon="8.445354740884374"><ele>411.0</ele><time>2026-04-11T08:30:11.999Z</time></trkpt><trkpt lat="45.763151467704" lon="8.445409029779684"><ele>411.0</ele><time>2026-04-11T08:30:13.999Z</time></trkpt><trkpt lat="45.763219621047135" lon="8.44541724587708"><ele>411.0</ele><time>2026-04-11T08:30:14.999Z</time></trkpt><trkpt lat="45.76329267238089" lon="8.445363932539498"><ele>411.0</ele><time>2026-04-11T08:30:15.999Z</time></trkpt><trkpt lat="45.76337071605215" lon="8.445374910564977"><ele>411.0</ele><time>2026-04-11T08:30:16.999Z</time></trkpt><trkpt lat="45.76345362602889" lon="8.445359910174242"><ele>411.0</ele><time>2026-04-11T08:30:17.999Z</time></trkpt><trkpt lat="45.76353474540013" lon="8.445337665711925"><ele>411.0</ele><time>2026-04-11T08:30:18.999Z</time></trkpt><trkpt lat="45.76362082783119" lon="8.44530656717474"><ele>411.0</ele><time>2026-04-11T08:30:20Z</time></trkpt><trkpt lat="45.76370500459959" lon="8.445254979704568"><ele>411.0</ele><time>2026-04-11T08:30:21Z</time></trkpt><trkpt lat="45.76377955950089" lon="8.445189189298402"><ele>411.0</ele><time>2026-04-11T08:30:22Z</time></trkpt><trkpt lat="45.76384310812932" lon="8.445121340303636"><ele>412.0</ele><time>2026-04-11T08:30:23Z</time></trkpt><trkpt lat="45.763903449806136" lon="8.445056915100562"><ele>413.0</ele><time>2026-04-11T08:30:24Z</time></trkpt><trkpt lat="45.763963655030864" lon="8.444989858231411"><ele>414.0</ele><time>2026-04-11T08:30:25Z</time></trkpt><trkpt lat="45.76402398748628" lon="8.444921720340627"><ele>415.0</ele><time>2026-04-11T08:30:26Z</time></trkpt><trkpt lat="45.76408277059627" lon="8.444851185637184"><ele>416.0</ele><time>2026-04-11T08:30:27Z</time></trkpt><trkpt lat="45.76414476720849" lon="8.444791101197607"><ele>417.0</ele><time>2026-04-11T08:30:28Z</time></trkpt><trkpt lat="45.76420913335652" lon="8.444744741025326"><ele>417.0</ele><time>2026-04-11T08:30:29Z</time></trkpt><trkpt lat="45.76427738059825" lon="8.444714194422486"><ele>417.0</ele><time>2026-04-11T08:30:30Z</time></trkpt><trkpt lat="45.76435698374235" lon="8.444692477574291"><ele>417.0</ele><time>2026-04-11T08:30:31Z</time></trkpt><trkpt lat="45.764440930635786" lon="8.444672525599392"><ele>417.0</ele><time>2026-04-11T08:30:32Z</time></trkpt><trkpt lat="45.76453019983011" lon="8.444651111446921"><ele>417.0</ele><time>2026-04-11T08:30:33Z</time></trkpt><trkpt lat="45.76462485793648" lon="8.44462664693644"><ele>417.0</ele><time>2026-04-11T08:30:34Z</time></trkpt><trkpt lat="45.76472599428392" lon="8.444588922441135"><ele>417.6</ele><time>2026-04-11T08:30:35Z</time></trkpt><trkpt lat="45.76482154914219" lon="8.444535597409153"><ele>418.20000000000005</ele><time>2026-04-11T08:30:36Z</time></trkpt><trkpt lat="45.7649189849265" lon="8.444473435523193"><ele>418.8</ele><time>2026-04-11T08:30:37Z</time></trkpt><trkpt lat="45.765018096869916" lon="8.444412622486983"><ele>419.4</ele><time>2026-04-11T08:30:38Z</time></trkpt><trkpt lat="45.76511725933553" lon="8.44436528131917"><ele>420.0</ele><time>2026-04-11T08:30:39Z</time></trkpt><trkpt lat="45.7652236720643" lon="8.444336850121475"><ele>420.25</ele><time>2026-04-11T08:30:40Z</time></trkpt><trkpt lat="45.76534390308019" lon="8.444327608447633"><ele>420.5</ele><time>2026-04-11T08:30:41Z</time></trkpt><trkpt lat="45.765471963920994" lon="8.444324056809974"><ele>420.75</ele><time>2026-04-11T08:30:42Z</time></trkpt><trkpt lat="45.76561254019557" lon="8.444318087352608"><ele>421.0</ele><time>2026-04-11T08:30:43Z</time></trkpt><trkpt lat="45.76575652089854" lon="8.444311926268899"><ele>421.0</ele><time>2026-04-11T08:30:44Z</time></trkpt><trkpt lat="45.765901162971915" lon="8.444306531120075"><ele>421.0</ele><time>2026-04-11T08:30:45Z</time></trkpt><trkpt lat="45.7660473269823" lon="8.44430256514449"><ele>421.0</ele><time>2026-04-11T08:30:46Z</time></trkpt><trkpt lat="45.76619102797747" lon="8.444298666055499"><ele>421.0</ele><time>2026-04-11T08:30:47Z</time></trkpt><trkpt lat="45.766331078632334" lon="8.444297355231903"><ele>423.0</ele><time>2026-04-11T08:30:48Z</time></trkpt><trkpt lat="45.766465416300846" lon="8.444295525538113"><ele>425.0</ele><time>2026-04-11T08:30:49Z</time></trkpt><trkpt lat="45.76659568473185" lon="8.444292515938399"><ele>427.0</ele><time>2026-04-11T08:30:50Z</time></trkpt><trkpt lat="45.76672369865486" lon="8.444285524087334"><ele>429.0</ele><time>2026-04-11T08:30:51Z</time></trkpt><trkpt lat="45.76685472080774" lon="8.444267028989277"><ele>429.75</ele><time>2026-04-11T08:30:52Z</time></trkpt><trkpt lat="45.76698676539045" lon="8.444221648694983"><ele>430.5</ele><time>2026-04-11T08:30:53Z</time></trkpt><trkpt lat="45.767108762457134" lon="8.444158308753998"><ele>431.25</ele><time>2026-04-11T08:30:54Z</time></trkpt><trkpt lat="45.76722944829876" lon="8.444088842708103"><ele>432.0</ele><time>2026-04-11T08:30:55Z</time></trkpt><trkpt lat="45.7673529581674" lon="8.444016043163165"><ele>432.0</ele><time>2026-04-11T08:30:56Z</time></trkpt><trkpt lat="45.7674791842208" lon="8.44393753846506"><ele>432.0</ele><time>2026-04-11T08:30:57Z</time></trkpt><trkpt lat="45.76760625026107" lon="8.443858405166008"><ele>432.0</ele><time>2026-04-11T08:30:58Z</time></trkpt><trkpt lat="45.76773423553059" lon="8.44377852577216"><ele>432.0</ele><time>2026-04-11T08:30:59Z</time></trkpt><trkpt lat="45.76786306240905" lon="8.44369819062235"><ele>430.5</ele><time>2026-04-11T08:31:00Z</time></trkpt><trkpt lat="45.76799153276809" lon="8.44361816141544"><ele>429.0</ele><time>2026-04-11T08:31:01Z</time></trkpt><trkpt lat="45.76811794388484" lon="8.4435394151072"><ele>427.5</ele><time>2026-04-11T08:31:02Z</time></trkpt><trkpt lat="45.76824256898354" lon="8.44346490955901"><ele>426.0</ele><time>2026-04-11T08:31:03Z</time></trkpt><trkpt lat="45.76836908265378" lon="8.443384619178545"><ele>426.0</ele><time>2026-04-11T08:31:04Z</time></trkpt><trkpt lat="45.76849395194606" lon="8.443289737841491"><ele>426.0</ele><time>2026-04-11T08:31:05Z</time></trkpt><trkpt lat="45.768592411770406" lon="8.443147009792115"><ele>426.0</ele><time>2026-04-11T08:31:06Z</time></trkpt><trkpt lat="45.76868307839713" lon="8.44299827773115"><ele>426.0</ele><time>2026-04-11T08:31:07Z</time></trkpt><trkpt lat="45.76876715490922" lon="8.442831854636193"><ele>425.25</ele><time>2026-04-11T08:31:08Z</time></trkpt><trkpt lat="45.76884300258902" lon="8.442653917343327"><ele>424.5</ele><time>2026-04-11T08:31:09Z</time></trkpt><trkpt lat="45.76892685680962" lon="8.442489222851254"><ele>423.75</ele><time>2026-04-11T08:31:10Z</time></trkpt><trkpt lat="45.76900663012908" lon="8.442330939545293"><ele>423.0</ele><time>2026-04-11T08:31:11Z</time></trkpt><trkpt lat="45.769096591041134" lon="8.442200078248508"><ele>422.25</ele><time>2026-04-11T08:31:12Z</time></trkpt><trkpt lat="45.76920614189547" lon="8.442109555486338"><ele>421.5</ele><time>2026-04-11T08:31:13Z</time></trkpt><trkpt lat="45.76932730229469" lon="8.44203781755646"><ele>420.75</ele><time>2026-04-11T08:31:14Z</time></trkpt><trkpt lat="45.76945883286877" lon="8.441996646471381"><ele>420.0</ele><time>2026-04-11T08:31:15Z</time></trkpt><trkpt lat="45.769595148437254" lon="8.441953818760917"><ele>420.0</ele><time>2026-04-11T08:31:16Z</time></trkpt><trkpt lat="45.76974211600401" lon="8.441965959785845"><ele>420.0</ele><time>2026-04-11T08:31:17Z</time></trkpt><trkpt lat="45.76988382056015" lon="8.441926402777503"><ele>420.0</ele><time>2026-04-11T08:31:18Z</time></trkpt><trkpt lat="45.77002475508704" lon="8.441887497244979"><ele>420.0</ele><time>2026-04-11T08:31:19Z</time></trkpt><trkpt lat="45.77016537679561" lon="8.44184925793356"><ele>421.25</ele><time>2026-04-11T08:31:20Z</time></trkpt><trkpt lat="45.77030791314399" lon="8.441810498036636"><ele>422.5</ele><time>2026-04-11T08:31:21Z</time></trkpt><trkpt lat="45.770451224204" lon="8.441771527491623"><ele>423.75</ele><time>2026-04-11T08:31:22Z</time></trkpt><trkpt lat="45.7705952696328" lon="8.441731955165574"><ele>425.0</ele><time>2026-04-11T08:31:23Z</time></trkpt><trkpt lat="45.770738352780214" lon="8.441689021300036"><ele>425.0</ele><time>2026-04-11T08:31:24Z</time></trkpt><trkpt lat="45.77088788321422" lon="8.441630987486409"><ele>425.0</ele><time>2026-04-11T08:31:25Z</time></trkpt><trkpt lat="45.77102859527919" lon="8.441540486810998"><ele>425.0</ele><time>2026-04-11T08:31:26Z</time></trkpt><trkpt lat="45.77115895104328" lon="8.44145036684618"><ele>425.5</ele><time>2026-04-11T08:31:27Z</time></trkpt><trkpt lat="45.77128448187312" lon="8.441360669354584"><ele>426.0</ele><time>2026-04-11T08:31:28Z</time></trkpt><trkpt lat="45.77140665110647" lon="8.441273373937182"><ele>426.5</ele><time>2026-04-11T08:31:29Z</time></trkpt><trkpt lat="45.77152839800327" lon="8.441186954964577"><ele>427.0</ele><time>2026-04-11T08:31:30Z</time></trkpt><trkpt lat="45.77164674480661" lon="8.441103068897549"><ele>427.0</ele><time>2026-04-11T08:31:31Z</time></trkpt><trkpt lat="45.771760720544556" lon="8.441022281177002"><ele>427.0</ele><time>2026-04-11T08:31:32Z</time></trkpt><trkpt lat="45.771870794920666" lon="8.440927375360234"><ele>427.0</ele><time>2026-04-11T08:31:33Z</time></trkpt><trkpt lat="45.77193565092475" lon="8.440789327645874"><ele>427.0</ele><time>2026-04-11T08:31:34Z</time></trkpt><trkpt lat="45.7719925890231" lon="8.440643112239417"><ele>432.75</ele><time>2026-04-11T08:31:35Z</time></trkpt><trkpt lat="45.7720290456809" lon="8.440481218309742"><ele>438.5</ele><time>2026-04-11T08:31:36Z</time></trkpt><trkpt lat="45.77208868318405" lon="8.440325156712147"><ele>444.25</ele><time>2026-04-11T08:31:37Z</time></trkpt><trkpt lat="45.77213470235776" lon="8.440156482495297"><ele>450.0</ele><time>2026-04-11T08:31:38Z</time></trkpt><trkpt lat="45.772182521682" lon="8.439983688414916"><ele>450.0</ele><time>2026-04-11T08:31:39Z</time></trkpt><trkpt lat="45.772231700203825" lon="8.43980688183825"><ele>450.0</ele><time>2026-04-11T08:31:40Z</time></trkpt><trkpt lat="45.772279543915474" lon="8.439633877332241"><ele>450.0</ele><time>2026-04-11T08:31:41Z</time></trkpt><trkpt lat="45.77232549218859" lon="8.439464420384345"><ele>450.0</ele><time>2026-04-11T08:31:42Z</time></trkpt><trkpt lat="45.77237007519699" lon="8.439299999637402"><ele>447.75</ele><time>2026-04-11T08:31:43Z</time></trkpt><trkpt lat="45.77241416988149" lon="8.43914327194442"><ele>445.5</ele><time>2026-04-11T08:31:44Z</time></trkpt><trkpt lat="45.772469022251734" lon="8.438993104392546"><ele>443.25</ele><time>2026-04-11T08:31:45Z</time></trkpt><trkpt lat="45.772538221440975" lon="8.438849316706373"><ele>441.0</ele><time>2026-04-11T08:31:46Z</time></trkpt><trkpt lat="45.77261994354176" lon="8.438727434329742"><ele>443.5</ele><time>2026-04-11T08:31:47Z</time></trkpt><trkpt lat="45.77271484286023" lon="8.438607254479047"><ele>446.0</ele><time>2026-04-11T08:31:48Z</time></trkpt><trkpt lat="45.772816601875554" lon="8.438483385081994"><ele>448.5</ele><time>2026-04-11T08:31:49Z</time></trkpt><trkpt lat="45.77293441138382" lon="8.438377814907302"><ele>451.0</ele><time>2026-04-11T08:31:50Z</time></trkpt><trkpt lat="45.77305500933714" lon="8.438294393008478"><ele>451.0</ele><time>2026-04-11T08:31:51Z</time></trkpt><trkpt lat="45.77318325340704" lon="8.438220526965972"><ele>451.0</ele><time>2026-04-11T08:31:52Z</time></trkpt><trkpt lat="45.77331643804687" lon="8.438143044796563"><ele>451.0</ele><time>2026-04-11T08:31:53Z</time></trkpt><trkpt lat="45.77344625935389" lon="8.438063544586202"><ele>451.0</ele><time>2026-04-11T08:31:54Z</time></trkpt><trkpt lat="45.773560632693304" lon="8.4379549385717"><ele>451.25</ele><time>2026-04-11T08:31:55Z</time></trkpt><trkpt lat="45.773688965860124" lon="8.437885134962423"><ele>451.5</ele><time>2026-04-11T08:31:56Z</time></trkpt><trkpt lat="45.77381009353655" lon="8.437796337744675"><ele>451.75</ele><time>2026-04-11T08:31:57Z</time></trkpt><trkpt lat="45.77392975601184" lon="8.437708615387141"><ele>452.0</ele><time>2026-04-11T08:31:58Z</time></trkpt><trkpt lat="45.77404763283902" lon="8.437621079656964"><ele>452.0</ele><time>2026-04-11T08:31:59Z</time></trkpt><trkpt lat="45.774162489122475" lon="8.437534787575899"><ele>452.0</ele><time>2026-04-11T08:32:00Z</time></trkpt><trkpt lat="45.774276241584474" lon="8.437450865692663"><ele>452.0</ele><time>2026-04-11T08:32:01Z</time></trkpt><trkpt lat="45.774384791135766" lon="8.437353610555805"><ele>452.0</ele><time>2026-04-11T08:32:02Z</time></trkpt><trkpt lat="45.77449864986679" lon="8.437298287987707"><ele>453.5</ele><time>2026-04-11T08:32:03Z</time></trkpt><trkpt lat="45.774610595954144" lon="8.437238534740406"><ele>455.0</ele><time>2026-04-11T08:32:04Z</time></trkpt><trkpt lat="45.7747282389756" lon="8.437199658762143"><ele>456.5</ele><time>2026-04-11T08:32:05Z</time></trkpt><trkpt lat="45.774844300779854" lon="8.437139489930894"><ele>458.0</ele><time>2026-04-11T08:32:06Z</time></trkpt><trkpt lat="45.77496195603277" lon="8.437078363165302"><ele>458.0</ele><time>2026-04-11T08:32:07Z</time></trkpt><trkpt lat="45.77508324744406" lon="8.43701773564917"><ele>458.0</ele><time>2026-04-11T08:32:08Z</time></trkpt><trkpt lat="45.77520349623525" lon="8.436969180016323"><ele>458.0</ele><time>2026-04-11T08:32:09Z</time></trkpt><trkpt lat="45.77532589748035" lon="8.436926889498967"><ele>458.0</ele><time>2026-04-11T08:32:10Z</time></trkpt><trkpt lat="45.77546442653904" lon="8.43693589982451"><ele>461.0</ele><time>2026-04-11T08:32:11Z</time></trkpt><trkpt lat="45.77560547523856" lon="8.436978551555567"><ele>464.0</ele><time>2026-04-11T08:32:12Z</time></trkpt><trkpt lat="45.77574400084989" lon="8.437041304628123"><ele>467.0</ele><time>2026-04-11T08:32:13Z</time></trkpt><trkpt lat="45.77587784903331" lon="8.437118410148672"><ele>470.0</ele><time>2026-04-11T08:32:14Z</time></trkpt><trkpt lat="45.77600843128322" lon="8.437205970126524"><ele>469.0</ele><time>2026-04-11T08:32:15Z</time></trkpt><trkpt lat="45.77613486950947" lon="8.437286236873115"><ele>468.0</ele><time>2026-04-11T08:32:16Z</time></trkpt><trkpt lat="45.77625981404472" lon="8.437372631888737"><ele>467.0</ele><time>2026-04-11T08:32:17Z</time></trkpt><trkpt lat="45.77639129652388" lon="8.437468282263557"><ele>466.0</ele><time>2026-04-11T08:32:18Z</time></trkpt><trkpt lat="45.77651233056907" lon="8.43758563699866"><ele>466.0</ele><time>2026-04-11T08:32:19Z</time></trkpt><trkpt lat="45.77662517456188" lon="8.437716444281678"><ele>466.0</ele><time>2026-04-11T08:32:20Z</time></trkpt><trkpt lat="45.77673816520234" lon="8.43782713231188"><ele>466.0</ele><time>2026-04-11T08:32:21Z</time></trkpt><trkpt lat="45.776859952151476" lon="8.43788637192975"><ele>466.0</ele><time>2026-04-11T08:32:22Z</time></trkpt><trkpt lat="45.77699181267158" lon="8.437946866247138"><ele>466.33333333333337</ele><time>2026-04-11T08:32:23Z</time></trkpt><trkpt lat="45.77714534078418" lon="8.437951876911166"><ele>466.66666666666663</ele><time>2026-04-11T08:32:24Z</time></trkpt><trkpt lat="45.77728774164393" lon="8.437876022402602"><ele>467.0</ele><time>2026-04-11T08:32:25Z</time></trkpt><trkpt lat="45.77741395788024" lon="8.437754229550968"><ele>467.0</ele><time>2026-04-11T08:32:26Z</time></trkpt><trkpt lat="45.77751346046174" lon="8.43759455993878"><ele>467.0</ele><time>2026-04-11T08:32:27Z</time></trkpt><trkpt lat="45.777597634117996" lon="8.437441218749429"><ele>467.0</ele><time>2026-04-11T08:32:28Z</time></trkpt><trkpt lat="45.77768397576469" lon="8.437283763921098"><ele>467.0</ele><time>2026-04-11T08:32:29Z</time></trkpt><trkpt lat="45.77777059701519" lon="8.43712978940599"><ele>469.0</ele><time>2026-04-11T08:32:30Z</time></trkpt><trkpt lat="45.777865730357234" lon="8.436987977775493"><ele>471.0</ele><time>2026-04-11T08:32:31Z</time></trkpt><trkpt lat="45.77796867341664" lon="8.43684525984565"><ele>473.0</ele><time>2026-04-11T08:32:32Z</time></trkpt><trkpt lat="45.77806976929147" lon="8.436708142293154"><ele>475.0</ele><time>2026-04-11T08:32:33Z</time></trkpt><trkpt lat="45.77817105702263" lon="8.436570764529046"><ele>475.0</ele><time>2026-04-11T08:32:34Z</time></trkpt><trkpt lat="45.778272078224184" lon="8.436430995171696"><ele>475.0</ele><time>2026-04-11T08:32:35Z</time></trkpt><trkpt lat="45.7783752739672" lon="8.436287515355517"><ele>475.0</ele><time>2026-04-11T08:32:36Z</time></trkpt><trkpt lat="45.77847999008317" lon="8.436138889752781"><ele>475.0</ele><time>2026-04-11T08:32:37Z</time></trkpt><trkpt lat="45.77857840695947" lon="8.436002960958147"><ele>474.0</ele><time>2026-04-11T08:32:38Z</time></trkpt><trkpt lat="45.778674315462325" lon="8.435886258372767"><ele>473.0</ele><time>2026-04-11T08:32:39Z</time></trkpt><trkpt lat="45.7787768898531" lon="8.435778857025305"><ele>472.0</ele><time>2026-04-11T08:32:40Z</time></trkpt><trkpt lat="45.77888322427318" lon="8.435674802064064"><ele>471.0</ele><time>2026-04-11T08:32:41Z</time></trkpt><trkpt lat="45.778989494482836" lon="8.435553601703022"><ele>471.0</ele><time>2026-04-11T08:32:42Z</time></trkpt><trkpt lat="45.779112276798664" lon="8.435473429103961"><ele>471.0</ele><time>2026-04-11T08:32:43Z</time></trkpt><trkpt lat="45.779230137587945" lon="8.435373491474827"><ele>471.0</ele><time>2026-04-11T08:32:44Z</time></trkpt><trkpt lat="45.77934536736524" lon="8.435277024487483"><ele>471.0</ele><time>2026-04-11T08:32:45Z</time></trkpt><trkpt lat="45.77945692088841" lon="8.43518363438745"><ele>470.0</ele><time>2026-04-11T08:32:46Z</time></trkpt><trkpt lat="45.77956296805225" lon="8.435094854703962"><ele>469.0</ele><time>2026-04-11T08:32:47Z</time></trkpt><trkpt lat="45.77966622793437" lon="8.43501330317185"><ele>468.0</ele><time>2026-04-11T08:32:48Z</time></trkpt><trkpt lat="45.77977349370097" lon="8.434952963685525"><ele>467.0</ele><time>2026-04-11T08:32:49Z</time></trkpt><trkpt lat="45.77988389892412" lon="8.43491378062455"><ele>467.0</ele><time>2026-04-11T08:32:50Z</time></trkpt><trkpt lat="45.78000016242734" lon="8.434894137096277"><ele>467.0</ele><time>2026-04-11T08:32:51Z</time></trkpt><trkpt lat="45.78011591241285" lon="8.434895323783406"><ele>467.0</ele><time>2026-04-11T08:32:52Z</time></trkpt><trkpt lat="45.78023296471481" lon="8.434900651216982"><ele>467.0</ele><time>2026-04-11T08:32:53Z</time></trkpt><trkpt lat="45.78035013724892" lon="8.43490258379782"><ele>466.75</ele><time>2026-04-11T08:32:54Z</time></trkpt><trkpt lat="45.78047385898759" lon="8.434890828662551"><ele>466.5</ele><time>2026-04-11T08:32:55Z</time></trkpt><trkpt lat="45.78059298582563" lon="8.43483932956181"><ele>466.25</ele><time>2026-04-11T08:32:56Z</time></trkpt><trkpt lat="45.78070138635978" lon="8.434751704359122"><ele>466.0</ele><time>2026-04-11T08:32:57Z</time></trkpt><trkpt lat="45.78079105804875" lon="8.434624345007562"><ele>465.8</ele><time>2026-04-11T08:32:58Z</time></trkpt><trkpt lat="45.7808627707249" lon="8.434492589950839"><ele>465.6</ele><time>2026-04-11T08:32:59Z</time></trkpt><trkpt lat="45.780935872075716" lon="8.434360517958076"><ele>465.4</ele><time>2026-04-11T08:33:00Z</time></trkpt><trkpt lat="45.78100947348975" lon="8.43424146984908"><ele>465.2</ele><time>2026-04-11T08:33:01Z</time></trkpt><trkpt lat="45.781090967565" lon="8.434147973127255"><ele>465.0</ele><time>2026-04-11T08:33:02Z</time></trkpt><trkpt lat="45.78118741839286" lon="8.434063066775089"><ele>465.5</ele><time>2026-04-11T08:33:03Z</time></trkpt><trkpt lat="45.78129079686002" lon="8.433985429587015"><ele>466.0</ele><time>2026-04-11T08:33:04Z</time></trkpt><trkpt lat="45.78139760089378" lon="8.433911412422367"><ele>466.5</ele><time>2026-04-11T08:33:05Z</time></trkpt><trkpt lat="45.78150925182176" lon="8.433837844966673"><ele>467.0</ele><time>2026-04-11T08:33:06Z</time></trkpt><trkpt lat="45.78162346203855" lon="8.433762591218365"><ele>467.25</ele><time>2026-04-11T08:33:07Z</time></trkpt><trkpt lat="45.78173880848404" lon="8.433686588788515"><ele>467.5</ele><time>2026-04-11T08:33:08Z</time></trkpt><trkpt lat="45.78185469258926" lon="8.433606810470499"><ele>467.75</ele><time>2026-04-11T08:33:09Z</time></trkpt><trkpt lat="45.78196897678193" lon="8.433526592606963"><ele>468.0</ele><time>2026-04-11T08:33:10Z</time></trkpt><trkpt lat="45.78208088113952" lon="8.43344722460349"><ele>466.75</ele><time>2026-04-11T08:33:11Z</time></trkpt><trkpt lat="45.782191251396775" lon="8.433364055903194"><ele>465.5</ele><time>2026-04-11T08:33:12Z</time></trkpt><trkpt lat="45.782300237793585" lon="8.433263247136152"><ele>464.25</ele><time>2026-04-11T08:33:13Z</time></trkpt><trkpt lat="45.78239865173413" lon="8.433127646730084"><ele>463.0</ele><time>2026-04-11T08:33:14Z</time></trkpt><trkpt lat="45.78248474853131" lon="8.432983066600316"><ele>464.25</ele><time>2026-04-11T08:33:15Z</time></trkpt><trkpt lat="45.78256963757796" lon="8.432834811347593"><ele>465.5</ele><time>2026-04-11T08:33:16Z</time></trkpt><trkpt lat="45.782652850068175" lon="8.432688588880472"><ele>466.75</ele><time>2026-04-11T08:33:17Z</time></trkpt><trkpt lat="45.78273670593676" lon="8.43254123570026"><ele>468.0</ele><time>2026-04-11T08:33:18Z</time></trkpt><trkpt lat="45.782821855684496" lon="8.432395963219106"><ele>466.5</ele><time>2026-04-11T08:33:19Z</time></trkpt><trkpt lat="45.782908706418745" lon="8.432247162233198"><ele>465.0</ele><time>2026-04-11T08:33:20Z</time></trkpt><trkpt lat="45.78299922377722" lon="8.4321054534876"><ele>463.5</ele><time>2026-04-11T08:33:21Z</time></trkpt><trkpt lat="45.783100420997044" lon="8.431971271609372"><ele>462.0</ele><time>2026-04-11T08:33:22Z</time></trkpt><trkpt lat="45.783205351835655" lon="8.43185777177878"><ele>462.0</ele><time>2026-04-11T08:33:23Z</time></trkpt><trkpt lat="45.78332377153165" lon="8.431764681241592"><ele>462.0</ele><time>2026-04-11T08:33:24Z</time></trkpt><trkpt lat="45.78344374711526" lon="8.43169249462945"><ele>462.0</ele><time>2026-04-11T08:33:25Z</time></trkpt><trkpt lat="45.78356704331952" lon="8.431634518704053"><ele>462.0</ele><time>2026-04-11T08:33:26Z</time></trkpt><trkpt lat="45.78368689747541" lon="8.431583381453617"><ele>463.5</ele><time>2026-04-11T08:33:27Z</time></trkpt><trkpt lat="45.783799203168606" lon="8.43152577445567"><ele>465.0</ele><time>2026-04-11T08:33:28Z</time></trkpt><trkpt lat="45.783915088294904" lon="8.431483561408413"><ele>466.5</ele><time>2026-04-11T08:33:29Z</time></trkpt><trkpt lat="45.784030294522495" lon="8.431429094745676"><ele>468.0</ele><time>2026-04-11T08:33:30Z</time></trkpt><trkpt lat="45.784145693026126" lon="8.431403484371874"><ele>468.0</ele><time>2026-04-11T08:33:31Z</time></trkpt><trkpt lat="45.78425152236489" lon="8.431362311290819"><ele>467.99999999999994</ele><time>2026-04-11T08:33:32Z</time></trkpt><trkpt lat="45.78435042038801" lon="8.431325218190441"><ele>467.99999999999994</ele><time>2026-04-11T08:33:33Z</time></trkpt><trkpt lat="45.784445260712076" lon="8.43127768261167"><ele>468.0</ele><time>2026-04-11T08:33:34Z</time></trkpt><trkpt lat="45.78454570047148" lon="8.431287079503546"><ele>468.0</ele><time>2026-04-11T08:33:35Z</time></trkpt><trkpt lat="45.784644731618684" lon="8.43130926080148"><ele>470.25</ele><time>2026-04-11T08:33:36Z</time></trkpt><trkpt lat="45.78474889901089" lon="8.431363229509222"><ele>472.5</ele><time>2026-04-11T08:33:37Z</time></trkpt><trkpt lat="45.784847790678946" lon="8.43143872711756"><ele>474.75</ele><time>2026-04-11T08:33:38Z</time></trkpt><trkpt lat="45.78494032182058" lon="8.431544286723954"><ele>477.0</ele><time>2026-04-11T08:33:39Z</time></trkpt><trkpt lat="45.785020975379794" lon="8.431660207568367"><ele>477.0</ele><time>2026-04-11T08:33:40Z</time></trkpt><trkpt lat="45.78510688637601" lon="8.431785468599674"><ele>477.0</ele><time>2026-04-11T08:33:41Z</time></trkpt><trkpt lat="45.78518620765455" lon="8.431904921390785"><ele>477.0</ele><time>2026-04-11T08:33:42Z</time></trkpt><trkpt lat="45.785292215233255" lon="8.432005699404812"><ele>477.0</ele><time>2026-04-11T08:33:43Z</time></trkpt><trkpt lat="45.78540431200997" lon="8.432091631590396"><ele>478.25</ele><time>2026-04-11T08:33:44Z</time></trkpt><trkpt lat="45.785535085370945" lon="8.4321286351463"><ele>479.5</ele><time>2026-04-11T08:33:45Z</time></trkpt><trkpt lat="45.785664441059836" lon="8.432213084375867"><ele>480.75</ele><time>2026-04-11T08:33:46Z</time></trkpt><trkpt lat="45.78580952765989" lon="8.432236198091273"><ele>482.0</ele><time>2026-04-11T08:33:47Z</time></trkpt><trkpt lat="45.785945896843614" lon="8.432229000505496"><ele>483.5</ele><time>2026-04-11T08:33:48Z</time></trkpt><trkpt lat="45.786074986627064" lon="8.432214272326354"><ele>485.0</ele><time>2026-04-11T08:33:49Z</time></trkpt><trkpt lat="45.78619729195512" lon="8.432197346538866"><ele>486.5</ele><time>2026-04-11T08:33:50Z</time></trkpt><trkpt lat="45.786332043326524" lon="8.432178698351922"><ele>488.0</ele><time>2026-04-11T08:33:51Z</time></trkpt><trkpt lat="45.78645226313613" lon="8.432138760238395"><ele>489.75</ele><time>2026-04-11T08:33:52Z</time></trkpt><trkpt lat="45.78657350326064" lon="8.432124371512371"><ele>491.5</ele><time>2026-04-11T08:33:53Z</time></trkpt><trkpt lat="45.78669004919607" lon="8.432118122567003"><ele>493.25</ele><time>2026-04-11T08:33:54Z</time></trkpt><trkpt lat="45.78680786375015" lon="8.432095314249608"><ele>495.0</ele><time>2026-04-11T08:33:55Z</time></trkpt><trkpt lat="45.7869241480682" lon="8.432100151487187"><ele>496.5</ele><time>2026-04-11T08:33:56Z</time></trkpt><trkpt lat="45.787039017079486" lon="8.432084952046074"><ele>498.0</ele><time>2026-04-11T08:33:57Z</time></trkpt><trkpt lat="45.7871535900171" lon="8.432069102733475"><ele>499.5</ele><time>2026-04-11T08:33:58Z</time></trkpt><trkpt lat="45.787266290623876" lon="8.432053537639305"><ele>501.0</ele><time>2026-04-11T08:33:59Z</time></trkpt><trkpt lat="45.787381327296636" lon="8.432038462131514"><ele>501.0</ele><time>2026-04-11T08:34:00Z</time></trkpt><trkpt lat="45.787491464738906" lon="8.432024028652506"><ele>501.0</ele><time>2026-04-11T08:34:01Z</time></trkpt><trkpt lat="45.78759704616157" lon="8.432010192240057"><ele>501.0</ele><time>2026-04-11T08:34:02Z</time></trkpt><trkpt lat="45.7877047569852" lon="8.43197347881779"><ele>501.0</ele><time>2026-04-11T08:34:03Z</time></trkpt><trkpt lat="45.78781923523721" lon="8.431958451274935"><ele>501.0</ele><time>2026-04-11T08:34:04Z</time></trkpt><trkpt lat="45.78793570157178" lon="8.431965811567295"><ele>501.4</ele><time>2026-04-11T08:34:05Z</time></trkpt><trkpt lat="45.78805074110242" lon="8.431949786228044"><ele>501.8</ele><time>2026-04-11T08:34:06Z</time></trkpt><trkpt lat="45.78816481734872" lon="8.431933320542832"><ele>502.19999999999993</ele><time>2026-04-11T08:34:07Z</time></trkpt><trkpt lat="45.788272934529175" lon="8.431917898393692"><ele>502.59999999999997</ele><time>2026-04-11T08:34:08Z</time></trkpt><trkpt lat="45.788382306671856" lon="8.431907491903935"><ele>503.0</ele><time>2026-04-11T08:34:09Z</time></trkpt><trkpt lat="45.78849044590477" lon="8.431900987541097"><ele>504.5</ele><time>2026-04-11T08:34:10Z</time></trkpt><trkpt lat="45.78860022366015" lon="8.431892633554101"><ele>506.0</ele><time>2026-04-11T08:34:11Z</time></trkpt><trkpt lat="45.788709222853704" lon="8.431908494281204"><ele>507.5</ele><time>2026-04-11T08:34:12Z</time></trkpt><trkpt lat="45.788821794529795" lon="8.431921054037852"><ele>509.0</ele><time>2026-04-11T08:34:13Z</time></trkpt><trkpt lat="45.78893818500302" lon="8.43193998955017"><ele>509.0</ele><time>2026-04-11T08:34:14Z</time></trkpt><trkpt lat="45.789056337231415" lon="8.4319458731572"><ele>509.0</ele><time>2026-04-11T08:34:15Z</time></trkpt><trkpt lat="45.78917264888354" lon="8.431968275017821"><ele>509.0</ele><time>2026-04-11T08:34:16Z</time></trkpt><trkpt lat="45.7892895227781" lon="8.431971115851724"><ele>509.0</ele><time>2026-04-11T08:34:17Z</time></trkpt><trkpt lat="45.78940638013715" lon="8.431978694970724"><ele>509.75</ele><time>2026-04-11T08:34:18Z</time></trkpt><trkpt lat="45.78952579289583" lon="8.431993704933651"><ele>510.5</ele><time>2026-04-11T08:34:19Z</time></trkpt><trkpt lat="45.78964891570298" lon="8.432015070232731"><ele>511.25</ele><time>2026-04-11T08:34:20Z</time></trkpt><trkpt lat="45.78977834514853" lon="8.432027692315154"><ele>512.0</ele><time>2026-04-11T08:34:21Z</time></trkpt><trkpt lat="45.78990713262231" lon="8.432059127821915"><ele>512.0</ele><time>2026-04-11T08:34:22Z</time></trkpt><trkpt lat="45.79003725275197" lon="8.432110881716765"><ele>512.0</ele><time>2026-04-11T08:34:23Z</time></trkpt><trkpt lat="45.79017090728369" lon="8.432140308843952"><ele>512.0</ele><time>2026-04-11T08:34:24Z</time></trkpt><trkpt lat="45.79030473824869" lon="8.432145573887635"><ele>512.0</ele><time>2026-04-11T08:34:25Z</time></trkpt><trkpt lat="45.79043692607517" lon="8.43219823807547"><ele>512.75</ele><time>2026-04-11T08:34:26Z</time></trkpt><trkpt lat="45.79057161231547" lon="8.432229192271738"><ele>513.5</ele><time>2026-04-11T08:34:27Z</time></trkpt><trkpt lat="45.79071401548959" lon="8.432264791999732"><ele>514.25</ele><time>2026-04-11T08:34:28Z</time></trkpt><trkpt lat="45.79085484854855" lon="8.43234311596904"><ele>515.0</ele><time>2026-04-11T08:34:29Z</time></trkpt><trkpt lat="45.790995479076486" lon="8.432425454026625"><ele>515.6666666666666</ele><time>2026-04-11T08:34:30Z</time></trkpt><trkpt lat="45.79113525453934" lon="8.432519556852952"><ele>516.3333333333334</ele><time>2026-04-11T08:34:31Z</time></trkpt><trkpt lat="45.79127506717658" lon="8.432609226454202"><ele>517.0</ele><time>2026-04-11T08:34:32Z</time></trkpt><trkpt lat="45.791419687310544" lon="8.432679662277229"><ele>517.0</ele><time>2026-04-11T08:34:33Z</time></trkpt><trkpt lat="45.791557446227166" lon="8.4327556264221"><ele>517.0</ele><time>2026-04-11T08:34:34Z</time></trkpt><trkpt lat="45.79169511309985" lon="8.43282630507303"><ele>517.0</ele><time>2026-04-11T08:34:35Z</time></trkpt><trkpt lat="45.791822961878346" lon="8.43291436728878"><ele>517.0</ele><time>2026-04-11T08:34:36Z</time></trkpt><trkpt lat="45.79195150208294" lon="8.432988488476642"><ele>516.75</ele><time>2026-04-11T08:34:37Z</time></trkpt><trkpt lat="45.7920809771057" lon="8.433054831199785"><ele>516.5</ele><time>2026-04-11T08:34:38Z</time></trkpt><trkpt lat="45.792204089558226" lon="8.433128001859457"><ele>516.25</ele><time>2026-04-11T08:34:39Z</time></trkpt><trkpt lat="45.79232132744952" lon="8.433193030251703"><ele>516.0</ele><time>2026-04-11T08:34:40Z</time></trkpt><trkpt lat="45.79242882177644" lon="8.43325037951235"><ele>516.0</ele><time>2026-04-11T08:34:41Z</time></trkpt><trkpt lat="45.79252449735441" lon="8.433313389340183"><ele>516.0</ele><time>2026-04-11T08:34:42Z</time></trkpt><trkpt lat="45.7926128432453" lon="8.433372004356128"><ele>516.0</ele><time>2026-04-11T08:34:43Z</time></trkpt><trkpt lat="45.79269752155945" lon="8.433413780738784"><ele>516.0</ele><time>2026-04-11T08:34:44Z</time></trkpt><trkpt lat="45.792770286159254" lon="8.433467288062552"><ele>516.0</ele><time>2026-04-11T08:34:45Z</time></trkpt><trkpt lat="45.79283906773615" lon="8.43350077317614"><ele>516.0</ele><time>2026-04-11T08:34:46Z</time></trkpt><trkpt lat="45.792912719659846" lon="8.43351541018727"><ele>516.1666666666666</ele><time>2026-04-11T08:34:47Z</time></trkpt><trkpt lat="45.792974301788604" lon="8.43356936256288"><ele>516.3333333333334</ele><time>2026-04-11T08:34:48Z</time></trkpt><trkpt lat="45.79301750157593" lon="8.433645785594813"><ele>516.5</ele><time>2026-04-11T08:34:48.999Z</time></trkpt><trkpt lat="45.79308485302191" lon="8.433676063286772"><ele>516.6666666666667</ele><time>2026-04-11T08:34:49.999Z</time></trkpt><trkpt lat="45.793156295381195" lon="8.433647839277056"><ele>516.8333333333334</ele><time>2026-04-11T08:34:50.999Z</time></trkpt><trkpt lat="45.79326752826088" lon="8.43366406600364"><ele>517.0</ele><time>2026-04-11T08:34:51.999Z</time></trkpt><trkpt lat="45.79335005536594" lon="8.43359056087064"><ele>517.0</ele><time>2026-04-11T08:34:52.999Z</time></trkpt><trkpt lat="45.79345296297773" lon="8.433505971347008"><ele>517.0</ele><time>2026-04-11T08:34:53.999Z</time></trkpt><trkpt lat="45.79357860783685" lon="8.433476683303365"><ele>517.0</ele><time>2026-04-11T08:34:54.999Z</time></trkpt><trkpt lat="45.79372302763903" lon="8.433410726084274"><ele>517.0</ele><time>2026-04-11T08:34:55.999Z</time></trkpt><trkpt lat="45.79388428223266" lon="8.433338480851306"><ele>517.3333333333334</ele><time>2026-04-11T08:34:56.999Z</time></trkpt><trkpt lat="45.794063527133254" lon="8.433272980205693"><ele>517.6666666666666</ele><time>2026-04-11T08:34:57.999Z</time></trkpt><trkpt lat="45.79424962710455" lon="8.43324025620051"><ele>518.0</ele><time>2026-04-11T08:34:58.999Z</time></trkpt><trkpt lat="45.794429757340104" lon="8.43324098453681"><ele>517.3333333333333</ele><time>2026-04-11T08:34:59.999Z</time></trkpt><trkpt lat="45.79462963762859" lon="8.43322624722356"><ele>516.6666666666666</ele><time>2026-04-11T08:35:00.999Z</time></trkpt><trkpt lat="45.79480787237701" lon="8.433144561415315"><ele>516.0</ele><time>2026-04-11T08:35:01.999Z</time></trkpt><trkpt lat="45.794932169064396" lon="8.433048604710397"><ele>519.3333333333334</ele><time>2026-04-11T08:35:02.999Z</time></trkpt><trkpt lat="45.79502653696504" lon="8.432862456353773"><ele>522.6666666666667</ele><time>2026-04-11T08:35:03.999Z</time></trkpt><trkpt lat="45.79509357994674" lon="8.432651929030902"><ele>526.0</ele><time>2026-04-11T08:35:04.999Z</time></trkpt><trkpt lat="45.79514109471837" lon="8.432453077769077"><ele>523.5</ele><time>2026-04-11T08:35:05.999Z</time></trkpt><trkpt lat="45.79518445146639" lon="8.432264457803585"><ele>521.0</ele><time>2026-04-11T08:35:06.999Z</time></trkpt><trkpt lat="45.79524710439648" lon="8.432075219027267"><ele>518.5</ele><time>2026-04-11T08:35:07.999Z</time></trkpt><trkpt lat="45.795299504730984" lon="8.431904888998597"><ele>516.0</ele><time>2026-04-11T08:35:08.999Z</time></trkpt><trkpt lat="45.79537920547014" lon="8.431751409423358"><ele>516.0</ele><time>2026-04-11T08:35:09.999Z</time></trkpt><trkpt lat="45.795477584292854" lon="8.431624096058497"><ele>516.0</ele><time>2026-04-11T08:35:10.999Z</time></trkpt><trkpt lat="45.79560241906048" lon="8.431515167387635"><ele>516.0</ele><time>2026-04-11T08:35:11.999Z</time></trkpt><trkpt lat="45.79572800716516" lon="8.431451222362789"><ele>516.0</ele><time>2026-04-11T08:35:12.999Z</time></trkpt><trkpt lat="45.79585697097093" lon="8.431410296720632"><ele>516.0</ele><time>2026-04-11T08:35:13.999Z</time></trkpt><trkpt lat="45.79598154741827" lon="8.4313773374541"><ele>516.0</ele><time>2026-04-11T08:35:14.999Z</time></trkpt><trkpt lat="45.79611181500729" lon="8.431349031806807"><ele>516.0</ele><time>2026-04-11T08:35:15.999Z</time></trkpt><trkpt lat="45.79623746563422" lon="8.431319064724777"><ele>516.0</ele><time>2026-04-11T08:35:16.999Z</time></trkpt><trkpt lat="45.79634716818113" lon="8.431292901176485"><ele>515.8</ele><time>2026-04-11T08:35:17.999Z</time></trkpt><trkpt lat="45.79645155954241" lon="8.431268004345183"><ele>515.6</ele><time>2026-04-11T08:35:18.999Z</time></trkpt><trkpt lat="45.7965557795878" lon="8.431219114824152"><ele>515.4</ele><time>2026-04-11T08:35:19.999Z</time></trkpt><trkpt lat="45.79664985545578" lon="8.431205496102208"><ele>515.2</ele><time>2026-04-11T08:35:20.999Z</time></trkpt><trkpt lat="45.796772028775116" lon="8.431197281278733"><ele>515.0</ele><time>2026-04-11T08:35:21.999Z</time></trkpt><trkpt lat="45.79687478507124" lon="8.431233972366211"><ele>514.4</ele><time>2026-04-11T08:35:22.999Z</time></trkpt><trkpt lat="45.79698372530286" lon="8.43123549803089"><ele>513.8</ele><time>2026-04-11T08:35:23.999Z</time></trkpt><trkpt lat="45.7971037064172" lon="8.431250943833948"><ele>513.2</ele><time>2026-04-11T08:35:24.999Z</time></trkpt><trkpt lat="45.79719896991939" lon="8.431222399857205"><ele>512.6</ele><time>2026-04-11T08:35:25.999Z</time></trkpt><trkpt lat="45.79729396138856" lon="8.431180513105987"><ele>512.0</ele><time>2026-04-11T08:35:26.999Z</time></trkpt><trkpt lat="45.79740718204733" lon="8.431134547337837"><ele>512.0</ele><time>2026-04-11T08:35:27.999Z</time></trkpt><trkpt lat="45.797543319176164" lon="8.431082768036514"><ele>512.0</ele><time>2026-04-11T08:35:28.999Z</time></trkpt><trkpt lat="45.79769201005443" lon="8.431026214001589"><ele>512.0</ele><time>2026-04-11T08:35:29.999Z</time></trkpt><trkpt lat="45.797972985066735" lon="8.43091992834173"><ele>508.25</ele><time>2026-04-11T08:35:31.999Z</time></trkpt><trkpt lat="45.798103717425846" lon="8.43087190675818"><ele>504.5</ele><time>2026-04-11T08:35:32.999Z</time></trkpt><trkpt lat="45.79824108084827" lon="8.43082071655212"><ele>500.75</ele><time>2026-04-11T08:35:33.999Z</time></trkpt><trkpt lat="45.79837081242456" lon="8.430753760903654"><ele>497.0</ele><time>2026-04-11T08:35:34.999Z</time></trkpt><trkpt lat="45.79850499184267" lon="8.430717357679406"><ele>494.75</ele><time>2026-04-11T08:35:35.999Z</time></trkpt><trkpt lat="45.798635111782524" lon="8.430664919999314"><ele>492.5</ele><time>2026-04-11T08:35:36.999Z</time></trkpt><trkpt lat="45.79875841009121" lon="8.430615231414455"><ele>490.25</ele><time>2026-04-11T08:35:37.999Z</time></trkpt><trkpt lat="45.79888028144734" lon="8.43056596425578"><ele>488.0</ele><time>2026-04-11T08:35:38.999Z</time></trkpt><trkpt lat="45.79902298336149" lon="8.43050703698829"><ele>488.5</ele><time>2026-04-11T08:35:39.999Z</time></trkpt><trkpt lat="45.799131535542024" lon="8.430464566025714"><ele>489.0</ele><time>2026-04-11T08:35:40.999Z</time></trkpt><trkpt lat="45.799261537668514" lon="8.430386914541558"><ele>489.5</ele><time>2026-04-11T08:35:41.999Z</time></trkpt><trkpt lat="45.79937971795908" lon="8.430338721264102"><ele>490.0</ele><time>2026-04-11T08:35:42.999Z</time></trkpt><trkpt lat="45.79948566893007" lon="8.430318459100882"><ele>488.5</ele><time>2026-04-11T08:35:43.999Z</time></trkpt><trkpt lat="45.79960071633865" lon="8.430252547688411"><ele>487.0</ele><time>2026-04-11T08:35:44.999Z</time></trkpt><trkpt lat="45.799716222592245" lon="8.430211328971458"><ele>485.5</ele><time>2026-04-11T08:35:45.999Z</time></trkpt><trkpt lat="45.79983465191" lon="8.430174485639641"><ele>484.0</ele><time>2026-04-11T08:35:46.999Z</time></trkpt><trkpt lat="45.79996508520749" lon="8.43008216347168"><ele>484.0</ele><time>2026-04-11T08:35:47.999Z</time></trkpt><trkpt lat="45.80009416287341" lon="8.429991492925694"><ele>484.0</ele><time>2026-04-11T08:35:48.999Z</time></trkpt><trkpt lat="45.80018734429658" lon="8.429859153283061"><ele>484.0</ele><time>2026-04-11T08:35:49.999Z</time></trkpt><trkpt lat="45.80027471563557" lon="8.429749986121081"><ele>484.0</ele><time>2026-04-11T08:35:50.999Z</time></trkpt><trkpt lat="45.80033579026603" lon="8.429593880659603"><ele>482.79999999999995</ele><time>2026-04-11T08:35:51.999Z</time></trkpt><trkpt lat="45.800408370331134" lon="8.4294509980741"><ele>481.59999999999997</ele><time>2026-04-11T08:35:52.999Z</time></trkpt><trkpt lat="45.80047754977351" lon="8.429351022971572"><ele>480.4</ele><time>2026-04-11T08:35:53.999Z</time></trkpt><trkpt lat="45.80052928261026" lon="8.429261152063447"><ele>479.2</ele><time>2026-04-11T08:35:54.999Z</time></trkpt><trkpt lat="45.80057970315463" lon="8.429168474027255"><ele>478.0</ele><time>2026-04-11T08:35:55.999Z</time></trkpt><trkpt lat="45.800631959339476" lon="8.42909871219524"><ele>478.00000000000006</ele><time>2026-04-11T08:35:57.999Z</time></trkpt><trkpt lat="45.80069097374346" lon="8.429130237168538"><ele>478.0</ele><time>2026-04-11T08:35:58.999Z</time></trkpt><trkpt lat="45.80075292170455" lon="8.429163011856446"><ele>478.00000000000006</ele><time>2026-04-11T08:35:59.999Z</time></trkpt><trkpt lat="45.800817121396115" lon="8.429197094326316"><ele>478.00000000000006</ele><time>2026-04-11T08:36:00.999Z</time></trkpt><trkpt lat="45.80089636832783" lon="8.42922599113591"><ele>478.0</ele><time>2026-04-11T08:36:01.999Z</time></trkpt><trkpt lat="45.800945361940904" lon="8.429287014630292"><ele>478.00000000000006</ele><time>2026-04-11T08:36:02.999Z</time></trkpt><trkpt lat="45.801000627371614" lon="8.429351790634357"><ele>478.00000000000006</ele><time>2026-04-11T08:36:03.999Z</time></trkpt><trkpt lat="45.80103892256007" lon="8.429432401823078"><ele>477.4</ele><time>2026-04-11T08:36:04.999Z</time></trkpt><trkpt lat="45.80103518583327" lon="8.429534861064498"><ele>476.79999999999995</ele><time>2026-04-11T08:36:05.999Z</time></trkpt><trkpt lat="45.80098492111108" lon="8.429649816047432"><ele>476.2</ele><time>2026-04-11T08:36:06.999Z</time></trkpt><trkpt lat="45.80092265744444" lon="8.429750219009685"><ele>475.6</ele><time>2026-04-11T08:36:07.999Z</time></trkpt><trkpt lat="45.80083035026329" lon="8.429858980162912"><ele>475.0</ele><time>2026-04-11T08:36:08.999Z</time></trkpt><trkpt lat="45.80073900438239" lon="8.429971099620694"><ele>475.0</ele><time>2026-04-11T08:36:09.999Z</time></trkpt><trkpt lat="45.800643281673565" lon="8.430060307490939"><ele>475.0</ele><time>2026-04-11T08:36:10.999Z</time></trkpt><trkpt lat="45.80056343272564" lon="8.430146350452517"><ele>475.0</ele><time>2026-04-11T08:36:11.999Z</time></trkpt><trkpt lat="45.8004967061487" lon="8.430249947665642"><ele>475.0</ele><time>2026-04-11T08:36:12.999Z</time></trkpt><trkpt lat="45.80041952075133" lon="8.43035623422575"><ele>475.0</ele><time>2026-04-11T08:36:13.999Z</time></trkpt><trkpt lat="45.800330633485665" lon="8.430452592086521"><ele>475.0</ele><time>2026-04-11T08:36:14.999Z</time></trkpt><trkpt lat="45.8002414584639" lon="8.430548741318157"><ele>475.0</ele><time>2026-04-11T08:36:15.999Z</time></trkpt><trkpt lat="45.80015699138162" lon="8.430665067734473"><ele>475.0</ele><time>2026-04-11T08:36:16.999Z</time></trkpt><trkpt lat="45.80006427452086" lon="8.430790552757765"><ele>475.0</ele><time>2026-04-11T08:36:17.999Z</time></trkpt><trkpt lat="45.799970448763005" lon="8.430916591249849"><ele>476.0</ele><time>2026-04-11T08:36:18.999Z</time></trkpt><trkpt lat="45.79990605316427" lon="8.431050072222881"><ele>477.0</ele><time>2026-04-11T08:36:19.999Z</time></trkpt><trkpt lat="45.79987009487992" lon="8.431208419560347"><ele>478.0</ele><time>2026-04-11T08:36:20.999Z</time></trkpt><trkpt lat="45.799840970658906" lon="8.431381877295857"><ele>479.0</ele><time>2026-04-11T08:36:21.999Z</time></trkpt><trkpt lat="45.79982373921385" lon="8.431568829036317"><ele>479.0</ele><time>2026-04-11T08:36:22.999Z</time></trkpt><trkpt lat="45.7998110114654" lon="8.431761218643834"><ele>479.0</ele><time>2026-04-11T08:36:23.999Z</time></trkpt><trkpt lat="45.79981403126571" lon="8.431943792498116"><ele>479.0</ele><time>2026-04-11T08:36:24.999Z</time></trkpt><trkpt lat="45.79983560868279" lon="8.432118518883557"><ele>479.0</ele><time>2026-04-11T08:36:25.999Z</time></trkpt><trkpt lat="45.799855695372145" lon="8.43228950207187"><ele>479.25</ele><time>2026-04-11T08:36:26.999Z</time></trkpt><trkpt lat="45.79989444708984" lon="8.432487375958086"><ele>479.5</ele><time>2026-04-11T08:36:27.999Z</time></trkpt><trkpt lat="45.79996789191878" lon="8.432663455806413"><ele>479.75</ele><time>2026-04-11T08:36:28.999Z</time></trkpt><trkpt lat="45.8000757355186" lon="8.432817425730136"><ele>480.0</ele><time>2026-04-11T08:36:29.999Z</time></trkpt><trkpt lat="45.80016071319372" lon="8.432985874544404"><ele>479.5</ele><time>2026-04-11T08:36:30.999Z</time></trkpt><trkpt lat="45.800259415132615" lon="8.43314330088082"><ele>479.0</ele><time>2026-04-11T08:36:31.999Z</time></trkpt><trkpt lat="45.8003519654419" lon="8.433300613183912"><ele>478.5</ele><time>2026-04-11T08:36:32.999Z</time></trkpt><trkpt lat="45.8004272954968" lon="8.433458102924991"><ele>478.0</ele><time>2026-04-11T08:36:33.999Z</time></trkpt><trkpt lat="45.8005343055457" lon="8.433593245210185"><ele>478.0</ele><time>2026-04-11T08:36:34.999Z</time></trkpt><trkpt lat="45.80061272249572" lon="8.433757359291665"><ele>478.0</ele><time>2026-04-11T08:36:35.999Z</time></trkpt><trkpt lat="45.80070434510205" lon="8.433915454829952"><ele>478.0</ele><time>2026-04-11T08:36:36.999Z</time></trkpt><trkpt lat="45.800792260059886" lon="8.434066395020626"><ele>478.0</ele><time>2026-04-11T08:36:37.999Z</time></trkpt><trkpt lat="45.80087421642174" lon="8.434205824865138"><ele>478.25</ele><time>2026-04-11T08:36:38.999Z</time></trkpt><trkpt lat="45.80095373851793" lon="8.434341113505319"><ele>478.5</ele><time>2026-04-11T08:36:39.999Z</time></trkpt><trkpt lat="45.80103612556906" lon="8.434481276148722"><ele>478.75</ele><time>2026-04-11T08:36:40.999Z</time></trkpt><trkpt lat="45.801129321604215" lon="8.434625706894069"><ele>479.0</ele><time>2026-04-11T08:36:41.999Z</time></trkpt><trkpt lat="45.8012154089098" lon="8.434772386067722"><ele>477.3333333333333</ele><time>2026-04-11T08:36:42.999Z</time></trkpt><trkpt lat="45.80132229166009" lon="8.434928060516528"><ele>475.66666666666663</ele><time>2026-04-11T08:36:43.999Z</time></trkpt><trkpt lat="45.801450308800106" lon="8.43508912270735"><ele>474.0</ele><time>2026-04-11T08:36:44.999Z</time></trkpt><trkpt lat="45.80170868137575" lon="8.43533745433071"><ele>473.33333333333337</ele><time>2026-04-11T08:36:46.999Z</time></trkpt><trkpt lat="45.8018431085062" lon="8.435451971052808"><ele>472.6666666666667</ele><time>2026-04-11T08:36:47.999Z</time></trkpt><trkpt lat="45.80198454120692" lon="8.435574288247262"><ele>472.0</ele><time>2026-04-11T08:36:48.999Z</time></trkpt><trkpt lat="45.80214916004769" lon="8.435671884331853"><ele>472.0</ele><time>2026-04-11T08:36:49.999Z</time></trkpt><trkpt lat="45.80231139660717" lon="8.435755396606767"><ele>472.0</ele><time>2026-04-11T08:36:50.999Z</time></trkpt><trkpt lat="45.80247328575102" lon="8.435835238763127"><ele>472.0</ele><time>2026-04-11T08:36:51.999Z</time></trkpt><trkpt lat="45.80263072857118" lon="8.43591288801496"><ele>470.33333333333337</ele><time>2026-04-11T08:36:52.999Z</time></trkpt><trkpt lat="45.80279001548628" lon="8.43599192127942"><ele>468.66666666666663</ele><time>2026-04-11T08:36:53.999Z</time></trkpt><trkpt lat="45.802934821517894" lon="8.436063922781255"><ele>467.0</ele><time>2026-04-11T08:36:54.999Z</time></trkpt><trkpt lat="45.80311261013675" lon="8.43615225355192"><ele>467.0</ele><time>2026-04-11T08:36:55.999Z</time></trkpt><trkpt lat="45.80327606263644" lon="8.436234084981836"><ele>467.0</ele><time>2026-04-11T08:36:56.999Z</time></trkpt><trkpt lat="45.803440830269054" lon="8.436317411078962"><ele>467.0</ele><time>2026-04-11T08:36:57.999Z</time></trkpt><trkpt lat="45.8035812721694" lon="8.436388435162895"><ele>467.66666666666663</ele><time>2026-04-11T08:36:58.999Z</time></trkpt><trkpt lat="45.80372186077275" lon="8.436459533449606"><ele>468.33333333333337</ele><time>2026-04-11T08:36:59.999Z</time></trkpt><trkpt lat="45.80386833701729" lon="8.436533609266254"><ele>469.0</ele><time>2026-04-11T08:37:00.999Z</time></trkpt><trkpt lat="45.80401600798541" lon="8.436583867565995"><ele>469.0</ele><time>2026-04-11T08:37:01.999Z</time></trkpt><trkpt lat="45.80418035063951" lon="8.436673245621089"><ele>469.0</ele><time>2026-04-11T08:37:02.999Z</time></trkpt><trkpt lat="45.80434040402051" lon="8.436810653966846"><ele>469.0</ele><time>2026-04-11T08:37:03.999Z</time></trkpt><trkpt lat="45.80449914323181" lon="8.436872565595802"><ele>471.0</ele><time>2026-04-11T08:37:04.999Z</time></trkpt><trkpt lat="45.80464185857128" lon="8.436932517056286"><ele>473.0</ele><time>2026-04-11T08:37:05.999Z</time></trkpt><trkpt lat="45.804783254574225" lon="8.436986948694566"><ele>475.0</ele><time>2026-04-11T08:37:06.999Z</time></trkpt><trkpt lat="45.805041110540834" lon="8.437097849234371"><ele>475.0</ele><time>2026-04-11T08:37:08.999Z</time></trkpt><trkpt lat="45.805159492745645" lon="8.437181368126772"><ele>475.0</ele><time>2026-04-11T08:37:09.999Z</time></trkpt><trkpt lat="45.805278316644504" lon="8.437223360366284"><ele>475.0</ele><time>2026-04-11T08:37:10.999Z</time></trkpt><trkpt lat="45.80539019919946" lon="8.437279888870165"><ele>475.0</ele><time>2026-04-11T08:37:11.999Z</time></trkpt><trkpt lat="45.80548877528872" lon="8.437353327382802"><ele>475.00000000000006</ele><time>2026-04-11T08:37:12.999Z</time></trkpt><trkpt lat="45.805571131440345" lon="8.43738900471013"><ele>475.0</ele><time>2026-04-11T08:37:13.999Z</time></trkpt><trkpt lat="45.805654642168086" lon="8.437428652097909"><ele>475.0</ele><time>2026-04-11T08:37:14.999Z</time></trkpt><trkpt lat="45.805720655992495" lon="8.43746065055646"><ele>475.0</ele><time>2026-04-11T08:37:15.999Z</time></trkpt><trkpt lat="45.805788880732905" lon="8.437497411726993"><ele>475.00000000000006</ele><time>2026-04-11T08:37:16.999Z</time></trkpt><trkpt lat="45.8058844839753" lon="8.437544962620745"><ele>475.0</ele><time>2026-04-11T08:37:17.999Z</time></trkpt><trkpt lat="45.80596105591838" lon="8.437582790164273"><ele>475.8</ele><time>2026-04-11T08:37:18.999Z</time></trkpt><trkpt lat="45.80605801809647" lon="8.437630690755125"><ele>476.6</ele><time>2026-04-11T08:37:19.999Z</time></trkpt><trkpt lat="45.806162553997865" lon="8.437682332869995"><ele>477.4</ele><time>2026-04-11T08:37:20.999Z</time></trkpt><trkpt lat="45.80627487563016" lon="8.4377378212197"><ele>478.2</ele><time>2026-04-11T08:37:21.999Z</time></trkpt><trkpt lat="45.806386144068775" lon="8.437776948420883"><ele>479.0</ele><time>2026-04-11T08:37:22.999Z</time></trkpt><trkpt lat="45.806471967646765" lon="8.437835264881395"><ele>479.0</ele><time>2026-04-11T08:37:23.999Z</time></trkpt><trkpt lat="45.8065587364277" lon="8.43785454287925"><ele>479.0</ele><time>2026-04-11T08:37:24.999Z</time></trkpt><trkpt lat="45.8066555773894" lon="8.43790954926675"><ele>479.0</ele><time>2026-04-11T08:37:26Z</time></trkpt><trkpt lat="45.80676015138549" lon="8.437963925914152"><ele>479.0</ele><time>2026-04-11T08:37:27Z</time></trkpt><trkpt lat="45.80686720800884" lon="8.438010710032376"><ele>479.0</ele><time>2026-04-11T08:37:28Z</time></trkpt><trkpt lat="45.80698185613546" lon="8.4380649120317"><ele>479.0</ele><time>2026-04-11T08:37:29Z</time></trkpt><trkpt lat="45.80709790904978" lon="8.438134444226629"><ele>479.0</ele><time>2026-04-11T08:37:30Z</time></trkpt><trkpt lat="45.807210813893896" lon="8.438187023989911"><ele>479.0</ele><time>2026-04-11T08:37:31Z</time></trkpt><trkpt lat="45.807336835484655" lon="8.43824427398104"><ele>479.0</ele><time>2026-04-11T08:37:32Z</time></trkpt><trkpt lat="45.807466611257276" lon="8.438295579866722"><ele>479.0</ele><time>2026-04-11T08:37:33Z</time></trkpt><trkpt lat="45.80760509867221" lon="8.438348133644967"><ele>479.0</ele><time>2026-04-11T08:37:34Z</time></trkpt><trkpt lat="45.807743221112744" lon="8.438414165155054"><ele>479.0</ele><time>2026-04-11T08:37:35Z</time></trkpt><trkpt lat="45.80787275079682" lon="8.438447534187945"><ele>479.0</ele><time>2026-04-11T08:37:36Z</time></trkpt><trkpt lat="45.80801466237077" lon="8.43847236330373"><ele>480.66666666666663</ele><time>2026-04-11T08:37:37Z</time></trkpt><trkpt lat="45.80816656550654" lon="8.438496350299841"><ele>482.33333333333337</ele><time>2026-04-11T08:37:38Z</time></trkpt><trkpt lat="45.8083201997611" lon="8.43851078307464"><ele>484.0</ele><time>2026-04-11T08:37:39Z</time></trkpt><trkpt lat="45.80846900540608" lon="8.438512675281508"><ele>485.5</ele><time>2026-04-11T08:37:40Z</time></trkpt><trkpt lat="45.80861787731914" lon="8.438504003261588"><ele>487.0</ele><time>2026-04-11T08:37:41Z</time></trkpt><trkpt lat="45.80876755839235" lon="8.438483532500609"><ele>488.5</ele><time>2026-04-11T08:37:42Z</time></trkpt><trkpt lat="45.80891116977006" lon="8.438465049734797"><ele>490.0</ele><time>2026-04-11T08:37:43Z</time></trkpt><trkpt lat="45.80905812458283" lon="8.43844723585823"><ele>490.0</ele><time>2026-04-11T08:37:44Z</time></trkpt><trkpt lat="45.80922050007694" lon="8.438428728550099"><ele>490.0</ele><time>2026-04-11T08:37:45Z</time></trkpt><trkpt lat="45.809364514046614" lon="8.43841570604527"><ele>490.0</ele><time>2026-04-11T08:37:46Z</time></trkpt><trkpt lat="45.80951153768727" lon="8.438406634119959"><ele>491.6666666666667</ele><time>2026-04-11T08:37:47Z</time></trkpt><trkpt lat="45.80966611425073" lon="8.438397324583148"><ele>493.33333333333337</ele><time>2026-04-11T08:37:48Z</time></trkpt><trkpt lat="45.809821419670406" lon="8.43838686006548"><ele>495.0</ele><time>2026-04-11T08:37:49Z</time></trkpt><trkpt lat="45.80997198340089" lon="8.438376715071836"><ele>495.0</ele><time>2026-04-11T08:37:50Z</time></trkpt><trkpt lat="45.81011550984142" lon="8.438367046236706"><ele>495.0</ele><time>2026-04-11T08:37:51Z</time></trkpt><trkpt lat="45.810273798739026" lon="8.438348632533849"><ele>495.0</ele><time>2026-04-11T08:37:52Z</time></trkpt><trkpt lat="45.81042710343515" lon="8.438309527491"><ele>496.0</ele><time>2026-04-11T08:37:53Z</time></trkpt><trkpt lat="45.810575700085536" lon="8.438206368555552"><ele>497.0</ele><time>2026-04-11T08:37:54Z</time></trkpt><trkpt lat="45.810738213711076" lon="8.438113829615846"><ele>498.0</ele><time>2026-04-11T08:37:55Z</time></trkpt><trkpt lat="45.81087656213849" lon="8.437951300183906"><ele>501.66666666666663</ele><time>2026-04-11T08:37:56Z</time></trkpt><trkpt lat="45.810996747598985" lon="8.437787656940944"><ele>505.3333333333333</ele><time>2026-04-11T08:37:57Z</time></trkpt><trkpt lat="45.81110630563767" lon="8.437632660922151"><ele>509.0</ele><time>2026-04-11T08:37:58Z</time></trkpt><trkpt lat="45.811209311868666" lon="8.437487145280757"><ele>509.0</ele><time>2026-04-11T08:37:59Z</time></trkpt><trkpt lat="45.811307971763306" lon="8.437348549842058"><ele>509.0</ele><time>2026-04-11T08:38:00Z</time></trkpt><trkpt lat="45.811409329025494" lon="8.43721249885947"><ele>509.0</ele><time>2026-04-11T08:38:01Z</time></trkpt><trkpt lat="45.81151178652446" lon="8.437100675718256"><ele>509.0</ele><time>2026-04-11T08:38:02Z</time></trkpt><trkpt lat="45.811629570977196" lon="8.43700423383133"><ele>509.75</ele><time>2026-04-11T08:38:03Z</time></trkpt><trkpt lat="45.81176389712197" lon="8.436926511724435"><ele>510.5</ele><time>2026-04-11T08:38:04Z</time></trkpt><trkpt lat="45.81190096835507" lon="8.436864027905928"><ele>511.25</ele><time>2026-04-11T08:38:05Z</time></trkpt><trkpt lat="45.81203382264233" lon="8.436805321530537"><ele>512.0</ele><time>2026-04-11T08:38:06Z</time></trkpt><trkpt lat="45.81217073104099" lon="8.436742531144471"><ele>512.25</ele><time>2026-04-11T08:38:07Z</time></trkpt><trkpt lat="45.81231432989086" lon="8.43667649173562"><ele>512.5</ele><time>2026-04-11T08:38:08Z</time></trkpt><trkpt lat="45.812450790490566" lon="8.43661390548959"><ele>512.75</ele><time>2026-04-11T08:38:09Z</time></trkpt><trkpt lat="45.81259766785895" lon="8.436546736921493"><ele>513.0</ele><time>2026-04-11T08:38:10Z</time></trkpt><trkpt lat="45.81272791799512" lon="8.436482174371736"><ele>515.5</ele><time>2026-04-11T08:38:11Z</time></trkpt><trkpt lat="45.8128525601696" lon="8.436438646780749"><ele>518.0</ele><time>2026-04-11T08:38:12Z</time></trkpt><trkpt lat="45.812979242708444" lon="8.436420027941706"><ele>520.5</ele><time>2026-04-11T08:38:13Z</time></trkpt><trkpt lat="45.81311487578583" lon="8.436391617043958"><ele>523.0</ele><time>2026-04-11T08:38:14Z</time></trkpt><trkpt lat="45.813262271806295" lon="8.436362507511522"><ele>523.0</ele><time>2026-04-11T08:38:15Z</time></trkpt><trkpt lat="45.81341080263774" lon="8.43633317386315"><ele>523.0</ele><time>2026-04-11T08:38:16Z</time></trkpt><trkpt lat="45.81355316651908" lon="8.436304783664601"><ele>523.0</ele><time>2026-04-11T08:38:17Z</time></trkpt><trkpt lat="45.813702656850054" lon="8.436274964390346"><ele>523.0</ele><time>2026-04-11T08:38:18Z</time></trkpt><trkpt lat="45.81385330064427" lon="8.436244506588933"><ele>520.3333333333334</ele><time>2026-04-11T08:38:19Z</time></trkpt><trkpt lat="45.814009262959715" lon="8.436188570644072"><ele>517.6666666666666</ele><time>2026-04-11T08:38:20Z</time></trkpt><trkpt lat="45.814173235595206" lon="8.436175931893445"><ele>515.0</ele><time>2026-04-11T08:38:21Z</time></trkpt><trkpt lat="45.814327948616246" lon="8.43613839578607"><ele>515.0</ele><time>2026-04-11T08:38:22Z</time></trkpt><trkpt lat="45.814484568716566" lon="8.436077052185274"><ele>515.0</ele><time>2026-04-11T08:38:23Z</time></trkpt><trkpt lat="45.81463997233054" lon="8.436033209880987"><ele>515.0</ele><time>2026-04-11T08:38:24Z</time></trkpt><trkpt lat="45.81477789161291" lon="8.435950919562336"><ele>515.0</ele><time>2026-04-11T08:38:25Z</time></trkpt><trkpt lat="45.81491975649023" lon="8.435881454529612"><ele>515.0</ele><time>2026-04-11T08:38:26Z</time></trkpt><trkpt lat="45.81505740131987" lon="8.435801581818346"><ele>515.0</ele><time>2026-04-11T08:38:27Z</time></trkpt><trkpt lat="45.81516768996025" lon="8.43574565084248"><ele>515.0</ele><time>2026-04-11T08:38:28Z</time></trkpt><trkpt lat="45.815268668008976" lon="8.435731066425397"><ele>514.2</ele><time>2026-04-11T08:38:29Z</time></trkpt><trkpt lat="45.81536497338494" lon="8.435745654923787"><ele>513.4</ele><time>2026-04-11T08:38:30Z</time></trkpt><trkpt lat="45.8154780656841" lon="8.435768112430061"><ele>512.6</ele><time>2026-04-11T08:38:31Z</time></trkpt><trkpt lat="45.81558059027036" lon="8.435802020181118"><ele>511.8</ele><time>2026-04-11T08:38:32Z</time></trkpt><trkpt lat="45.815680188668026" lon="8.43585786631549"><ele>511.0</ele><time>2026-04-11T08:38:33Z</time></trkpt><trkpt lat="45.81577848725845" lon="8.435933713808666"><ele>511.0</ele><time>2026-04-11T08:38:34Z</time></trkpt><trkpt lat="45.8158948067342" lon="8.436029327878611"><ele>511.0</ele><time>2026-04-11T08:38:35Z</time></trkpt><trkpt lat="45.81600340669768" lon="8.436180180284646"><ele>511.0</ele><time>2026-04-11T08:38:36Z</time></trkpt><trkpt lat="45.81609584166698" lon="8.436337981015052"><ele>511.0</ele><time>2026-04-11T08:38:37Z</time></trkpt><trkpt lat="45.81615487603629" lon="8.436511942922865"><ele>510.75</ele><time>2026-04-11T08:38:38Z</time></trkpt><trkpt lat="45.81621807378776" lon="8.436680385443234"><ele>510.5</ele><time>2026-04-11T08:38:39Z</time></trkpt><trkpt lat="45.81627208863791" lon="8.436839233781953"><ele>510.25</ele><time>2026-04-11T08:38:40Z</time></trkpt><trkpt lat="45.816328088844585" lon="8.43697409571043"><ele>510.0</ele><time>2026-04-11T08:38:41Z</time></trkpt><trkpt lat="45.81635890914244" lon="8.43710820483277"><ele>511.6</ele><time>2026-04-11T08:38:42Z</time></trkpt><trkpt lat="45.81639992020791" lon="8.437235201223812"><ele>513.2</ele><time>2026-04-11T08:38:43Z</time></trkpt><trkpt lat="45.81645075407652" lon="8.437356164798784"><ele>514.8</ele><time>2026-04-11T08:38:45Z</time></trkpt><trkpt lat="45.81661401718532" lon="8.437399857280122"><ele>516.4</ele><time>2026-04-11T08:38:53Z</time></trkpt><trkpt lat="45.81670137596815" lon="8.437402600104305"><ele>518.0</ele><time>2026-04-11T08:38:54Z</time></trkpt><trkpt lat="45.81678568590055" lon="8.437430173387911"><ele>517.6</ele><time>2026-04-11T08:38:55Z</time></trkpt><trkpt lat="45.816876483699595" lon="8.437481020858527"><ele>517.1999999999999</ele><time>2026-04-11T08:38:56Z</time></trkpt><trkpt lat="45.81698204570256" lon="8.437545066756243"><ele>516.8</ele><time>2026-04-11T08:38:57Z</time></trkpt><trkpt lat="45.81708542562874" lon="8.43761497225895"><ele>516.4</ele><time>2026-04-11T08:38:58Z</time></trkpt><trkpt lat="45.81718514115799" lon="8.437691082023074"><ele>516.0</ele><time>2026-04-11T08:38:59Z</time></trkpt><trkpt lat="45.8172998657054" lon="8.43778773563379"><ele>516.0</ele><time>2026-04-11T08:39:00Z</time></trkpt><trkpt lat="45.817417544502966" lon="8.437889622660778"><ele>516.0</ele><time>2026-04-11T08:39:01Z</time></trkpt><trkpt lat="45.81753309297973" lon="8.437995127084715"><ele>516.0</ele><time>2026-04-11T08:39:02Z</time></trkpt><trkpt lat="45.81763610795271" lon="8.438089187484167"><ele>516.0</ele><time>2026-04-11T08:39:03Z</time></trkpt><trkpt lat="45.81774116712" lon="8.438157940200025"><ele>517.2</ele><time>2026-04-11T08:39:04Z</time></trkpt><trkpt lat="45.81782305002246" lon="8.43825102326661"><ele>518.4000000000001</ele><time>2026-04-11T08:39:05Z</time></trkpt><trkpt lat="45.81792292388924" lon="8.438321699703732"><ele>519.6</ele><time>2026-04-11T08:39:06Z</time></trkpt><trkpt lat="45.8180328201176" lon="8.438377805975362"><ele>520.8000000000001</ele><time>2026-04-11T08:39:07Z</time></trkpt><trkpt lat="45.818123534908715" lon="8.438428562815282"><ele>522.0</ele><time>2026-04-11T08:39:08Z</time></trkpt><trkpt lat="45.81821680435882" lon="8.438471488385547"><ele>522.0</ele><time>2026-04-11T08:39:09Z</time></trkpt><trkpt lat="45.81831944935268" lon="8.438521860941153"><ele>522.0</ele><time>2026-04-11T08:39:10Z</time></trkpt><trkpt lat="45.81842216318906" lon="8.438572926598066"><ele>522.0</ele><time>2026-04-11T08:39:11Z</time></trkpt><trkpt lat="45.81851683198765" lon="8.438618894762744"><ele>522.0</ele><time>2026-04-11T08:39:12Z</time></trkpt><trkpt lat="45.818596008743505" lon="8.43865627210095"><ele>522.0</ele><time>2026-04-11T08:39:13Z</time></trkpt><trkpt lat="45.81867867451953" lon="8.438695296525696"><ele>522.2</ele><time>2026-04-11T08:39:14Z</time></trkpt><trkpt lat="45.81876904039192" lon="8.438737270169865"><ele>522.4000000000001</ele><time>2026-04-11T08:39:15Z</time></trkpt><trkpt lat="45.81886045311199" lon="8.438779638821307"><ele>522.5999999999999</ele><time>2026-04-11T08:39:16Z</time></trkpt><trkpt lat="45.81896518394282" lon="8.438828180259373"><ele>522.8</ele><time>2026-04-11T08:39:17Z</time></trkpt><trkpt lat="45.81907485218117" lon="8.438870231292913"><ele>523.0</ele><time>2026-04-11T08:39:18Z</time></trkpt><trkpt lat="45.81916838124597" lon="8.438910298024854"><ele>523.8</ele><time>2026-04-11T08:39:19Z</time></trkpt><trkpt lat="45.8192596957575" lon="8.438957343662555"><ele>524.5999999999999</ele><time>2026-04-11T08:39:20Z</time></trkpt><trkpt lat="45.81935432828333" lon="8.43898770904653"><ele>525.4000000000001</ele><time>2026-04-11T08:39:21Z</time></trkpt><trkpt lat="45.81945028560541" lon="8.439032667692807"><ele>526.2</ele><time>2026-04-11T08:39:22Z</time></trkpt><trkpt lat="45.819545359675885" lon="8.439080729030941"><ele>527.0</ele><time>2026-04-11T08:39:23Z</time></trkpt><trkpt lat="45.819635053462804" lon="8.439125021780029"><ele>527.1666666666666</ele><time>2026-04-11T08:39:24Z</time></trkpt><trkpt lat="45.81972750349263" lon="8.439168758616589"><ele>527.3333333333333</ele><time>2026-04-11T08:39:25Z</time></trkpt><trkpt lat="45.819816012627385" lon="8.439191262881511"><ele>527.5</ele><time>2026-04-11T08:39:26Z</time></trkpt><trkpt lat="45.819906805446315" lon="8.439199751458498"><ele>527.6666666666666</ele><time>2026-04-11T08:39:27Z</time></trkpt><trkpt lat="45.8199850136984" lon="8.439181850048852"><ele>527.8333333333334</ele><time>2026-04-11T08:39:28Z</time></trkpt><trkpt lat="45.820070802793005" lon="8.439184829633145"><ele>528.0</ele><time>2026-04-11T08:39:29Z</time></trkpt><trkpt lat="45.820158502639075" lon="8.439189666717922"><ele>529.0</ele><time>2026-04-11T08:39:30Z</time></trkpt><trkpt lat="45.82024382970703" lon="8.439195411518634"><ele>530.0</ele><time>2026-04-11T08:39:31Z</time></trkpt><trkpt lat="45.82032339570119" lon="8.439200768444408"><ele>531.0</ele><time>2026-04-11T08:39:32Z</time></trkpt><trkpt lat="45.82042636569995" lon="8.439208013021437"><ele>532.0</ele><time>2026-04-11T08:39:34Z</time></trkpt><trkpt lat="45.82053136915817" lon="8.439212020211944"><ele>533.0</ele><time>2026-04-11T08:39:36Z</time></trkpt><trkpt lat="45.820637910201924" lon="8.439216086085843"><ele>533.0</ele><time>2026-04-11T08:39:38Z</time></trkpt><trkpt lat="45.820720900242655" lon="8.439219253195393"><ele>533.0</ele><time>2026-04-11T08:39:40Z</time></trkpt><trkpt lat="45.82081139517776" lon="8.439202681847368"><ele>533.0</ele><time>2026-04-11T08:39:42Z</time></trkpt><trkpt lat="45.82087584913139" lon="8.439208044362527"><ele>533.0</ele><time>2026-04-11T08:39:44Z</time></trkpt><trkpt lat="45.82097252204003" lon="8.439215892603826"><ele>533.0</ele><time>2026-04-11T08:39:46Z</time></trkpt><trkpt lat="45.82105626897645" lon="8.43923197094481"><ele>533.0</ele><time>2026-04-11T08:39:48Z</time></trkpt><trkpt lat="45.82112005485192" lon="8.439234385920958"><ele>534.0</ele><time>2026-04-11T08:39:49Z</time></trkpt><trkpt lat="45.821234619506335" lon="8.439240089873659"><ele>535.0</ele><time>2026-04-11T08:39:51Z</time></trkpt><trkpt lat="45.82133758899621" lon="8.439243412206272"><ele>536.0</ele><time>2026-04-11T08:39:53Z</time></trkpt><trkpt lat="45.821428940898834" lon="8.439245376006369"><ele>537.0</ele><time>2026-04-11T08:39:55Z</time></trkpt><trkpt lat="45.82151247245152" lon="8.439247171690662"><ele>538.0</ele><time>2026-04-11T08:39:57Z</time></trkpt><trkpt lat="45.821608250917" lon="8.439255647107705"><ele>538.0</ele><time>2026-04-11T08:39:59Z</time></trkpt><trkpt lat="45.821689624331505" lon="8.439270700468079"><ele>538.0</ele><time>2026-04-11T08:40:01Z</time></trkpt><trkpt lat="45.82174846302249" lon="8.439322107386483"><ele>538.0</ele><time>2026-04-11T08:40:02Z</time></trkpt><trkpt lat="45.82181396594971" lon="8.439355864998094"><ele>538.0</ele><time>2026-04-11T08:40:03Z</time></trkpt><trkpt lat="45.821890128439975" lon="8.439390101092945"><ele>538.0</ele><time>2026-04-11T08:40:05Z</time></trkpt><trkpt lat="45.821963060976096" lon="8.439457210956347"><ele>538.0</ele><time>2026-04-11T08:40:11Z</time></trkpt><trkpt lat="45.822030189963975" lon="8.439506186277232"><ele>539.0</ele><time>2026-04-11T08:40:14Z</time></trkpt><trkpt lat="45.8221058481718" lon="8.439555868577594"><ele>540.0</ele><time>2026-04-11T08:40:16Z</time></trkpt><trkpt lat="45.822188655588796" lon="8.439601798827997"><ele>541.0</ele><time>2026-04-11T08:40:18Z</time></trkpt><trkpt lat="45.822266211172234" lon="8.439639096525406"><ele>542.0</ele><time>2026-04-11T08:40:21Z</time></trkpt><trkpt lat="45.8224332396823" lon="8.43973794314735"><ele>543.0</ele><time>2026-04-11T08:40:27Z</time></trkpt><trkpt lat="45.822491191965184" lon="8.439785057107951"><ele>543.0</ele><time>2026-04-11T08:40:31Z</time></trkpt><trkpt lat="45.82258970388666" lon="8.439666084435387"><ele>543.0</ele><time>2026-04-11T08:40:32Z</time></trkpt><trkpt lat="45.822647202312176" lon="8.43957869219521"><ele>543.0</ele><time>2026-04-11T08:40:34Z</time></trkpt><trkpt lat="45.822696786082155" lon="8.439430804892678"><ele>543.0</ele><time>2026-04-11T08:40:36Z</time></trkpt><trkpt lat="45.822728126157934" lon="8.439287606813417"><ele>543.0</ele><time>2026-04-11T08:40:38Z</time></trkpt><trkpt lat="45.822759478524425" lon="8.439147629767845"><ele>545.1999999999999</ele><time>2026-04-11T08:40:40Z</time></trkpt><trkpt lat="45.822775522622784" lon="8.4390244441669"><ele>547.4</ele><time>2026-04-11T08:40:42Z</time></trkpt><trkpt lat="45.8228456452861" lon="8.438922681504986"><ele>549.5999999999999</ele><time>2026-04-11T08:40:44Z</time></trkpt><trkpt lat="45.82296454706739" lon="8.438948027512707"><ele>551.8</ele><time>2026-04-11T08:40:46Z</time></trkpt><trkpt lat="45.82308748549123" lon="8.43896181196728"><ele>554.0</ele><time>2026-04-11T08:40:48Z</time></trkpt><trkpt lat="45.823163032520384" lon="8.438943152823198"><ele>554.0</ele><time>2026-04-11T08:40:49Z</time></trkpt><trkpt lat="45.82323092530993" lon="8.438925513484481"><ele>554.0</ele><time>2026-04-11T08:40:50Z</time></trkpt><trkpt lat="45.823321784963625" lon="8.438903897583227"><ele>554.0</ele><time>2026-04-11T08:40:51Z</time></trkpt><trkpt lat="45.82338537536428" lon="8.438873167106166"><ele>554.0</ele><time>2026-04-11T08:40:52Z</time></trkpt><trkpt lat="45.82345010774097" lon="8.438826434308728"><ele>554.0</ele><time>2026-04-11T08:40:52.999Z</time></trkpt><trkpt lat="45.82349801515503" lon="8.438625884480068"><ele>554.0</ele><time>2026-04-11T08:40:53.999Z</time></trkpt><trkpt lat="45.8235208238493" lon="8.438492772886642"><ele>560.4</ele><time>2026-04-11T08:40:54.999Z</time></trkpt><trkpt lat="45.82354284752258" lon="8.438354653718575"><ele>566.8</ele><time>2026-04-11T08:40:55.999Z</time></trkpt><trkpt lat="45.82356671458292" lon="8.438205393929307"><ele>573.2</ele><time>2026-04-11T08:40:56.999Z</time></trkpt><trkpt lat="45.823591640130886" lon="8.438058045114985"><ele>579.6</ele><time>2026-04-11T08:40:57.999Z</time></trkpt><trkpt lat="45.82361764156718" lon="8.437904336126934"><ele>586.0</ele><time>2026-04-11T08:40:58.999Z</time></trkpt><trkpt lat="45.82364441407504" lon="8.437746068885273"><ele>586.0</ele><time>2026-04-11T08:40:59.999Z</time></trkpt><trkpt lat="45.823670111790435" lon="8.43758442696431"><ele>586.0</ele><time>2026-04-11T08:41:00.999Z</time></trkpt><trkpt lat="45.82369315209252" lon="8.437421474436457"><ele>586.0</ele><time>2026-04-11T08:41:01.999Z</time></trkpt><trkpt lat="45.823709527907916" lon="8.437253709553831"><ele>586.0</ele><time>2026-04-11T08:41:02.999Z</time></trkpt><trkpt lat="45.823722087591534" lon="8.437093505590758"><ele>583.2</ele><time>2026-04-11T08:41:03.999Z</time></trkpt><trkpt lat="45.82373477309618" lon="8.436940756919247"><ele>580.4000000000001</ele><time>2026-04-11T08:41:04.999Z</time></trkpt><trkpt lat="45.82373427296461" lon="8.436792705303914"><ele>577.6</ele><time>2026-04-11T08:41:05.999Z</time></trkpt><trkpt lat="45.82376832685305" lon="8.436649099479736"><ele>574.8000000000001</ele><time>2026-04-11T08:41:06.999Z</time></trkpt><trkpt lat="45.823814305510766" lon="8.436517298807921"><ele>572.0</ele><time>2026-04-11T08:41:07.999Z</time></trkpt><trkpt lat="45.823871437095676" lon="8.436400680989202"><ele>569.0</ele><time>2026-04-11T08:41:08.999Z</time></trkpt><trkpt lat="45.823929648415884" lon="8.436294207439051"><ele>566.0</ele><time>2026-04-11T08:41:09.999Z</time></trkpt><trkpt lat="45.823996135776866" lon="8.436204945491813"><ele>563.0</ele><time>2026-04-11T08:41:10.999Z</time></trkpt><trkpt lat="45.82405581549917" lon="8.436112208597764"><ele>560.0</ele><time>2026-04-11T08:41:11.999Z</time></trkpt><trkpt lat="45.824131702919225" lon="8.436038030314522"><ele>557.0</ele><time>2026-04-11T08:41:12.999Z</time></trkpt><trkpt lat="45.824211422864074" lon="8.435975217728267"><ele>557.0</ele><time>2026-04-11T08:41:13.999Z</time></trkpt><trkpt lat="45.82429424919248" lon="8.435916689606604"><ele>557.0</ele><time>2026-04-11T08:41:14.999Z</time></trkpt><trkpt lat="45.82437429179882" lon="8.435861575675005"><ele>557.0</ele><time>2026-04-11T08:41:15.999Z</time></trkpt><trkpt lat="45.82444594303394" lon="8.435816756896731"><ele>557.0</ele><time>2026-04-11T08:41:16.999Z</time></trkpt><trkpt lat="45.82458085875472" lon="8.435760139132201"><ele>557.0</ele><time>2026-04-11T08:41:18.999Z</time></trkpt><trkpt lat="45.82467970257708" lon="8.435742649503476"><ele>561.4</ele><time>2026-04-11T08:41:19.999Z</time></trkpt><trkpt lat="45.82475198436108" lon="8.43564672869344"><ele>565.8000000000001</ele><time>2026-04-11T08:41:20.999Z</time></trkpt><trkpt lat="45.82477411379063" lon="8.435521512468952"><ele>570.2</ele><time>2026-04-11T08:41:21.999Z</time></trkpt><trkpt lat="45.82477595979098" lon="8.435413677442744"><ele>574.6</ele><time>2026-04-11T08:41:22.999Z</time></trkpt><trkpt lat="45.82477068230141" lon="8.435251666260102"><ele>579.0</ele><time>2026-04-11T08:41:24.999Z</time></trkpt><trkpt lat="45.82476273824717" lon="8.435135721907102"><ele>579.0</ele><time>2026-04-11T08:41:25.999Z</time></trkpt><trkpt lat="45.82481147677402" lon="8.435055956936758"><ele>579.0</ele><time>2026-04-11T08:41:26.999Z</time></trkpt><trkpt lat="45.82488033595803" lon="8.435001497928203"><ele>579.0</ele><time>2026-04-11T08:41:27.999Z</time></trkpt><trkpt lat="45.8249551152686" lon="8.434951586219587"><ele>579.0</ele><time>2026-04-11T08:41:28.999Z</time></trkpt><trkpt lat="45.82502895963249" lon="8.43489988082785"><ele>579.0</ele><time>2026-04-11T08:41:29.999Z</time></trkpt><trkpt lat="45.82509733638429" lon="8.434838144011215"><ele>579.0</ele><time>2026-04-11T08:41:30.999Z</time></trkpt><trkpt lat="45.82516765119316" lon="8.434773098854137"><ele>583.0</ele><time>2026-04-11T08:41:31.999Z</time></trkpt><trkpt lat="45.82523293948439" lon="8.434689666416967"><ele>587.0</ele><time>2026-04-11T08:41:32.999Z</time></trkpt><trkpt lat="45.8253264596313" lon="8.434658978535362"><ele>591.0</ele><time>2026-04-11T08:41:33.999Z</time></trkpt><trkpt lat="45.82541551899199" lon="8.434608481578596"><ele>595.0</ele><time>2026-04-11T08:41:34.999Z</time></trkpt><trkpt lat="45.8254878096768" lon="8.434528303956426"><ele>599.0</ele><time>2026-04-11T08:41:35.999Z</time></trkpt><trkpt lat="45.825547431346045" lon="8.43443444790229"><ele>599.0</ele><time>2026-04-11T08:41:36.999Z</time></trkpt><trkpt lat="45.825604625689806" lon="8.434344412908166"><ele>599.0</ele><time>2026-04-11T08:41:37.999Z</time></trkpt><trkpt lat="45.82566236759639" lon="8.434255707704144"><ele>599.0</ele><time>2026-04-11T08:41:38.999Z</time></trkpt><trkpt lat="45.82572260453033" lon="8.434165641733205"><ele>599.0</ele><time>2026-04-11T08:41:39.999Z</time></trkpt><trkpt lat="45.82578462658246" lon="8.43407380468359"><ele>599.0</ele><time>2026-04-11T08:41:40.999Z</time></trkpt><trkpt lat="45.82584187480979" lon="8.433977171842308"><ele>599.0</ele><time>2026-04-11T08:41:41.999Z</time></trkpt><trkpt lat="45.82589714449432" lon="8.433879851082574"><ele>601.2</ele><time>2026-04-11T08:41:42.999Z</time></trkpt><trkpt lat="45.82595560219004" lon="8.433776229723472"><ele>603.4</ele><time>2026-04-11T08:41:43.999Z</time></trkpt><trkpt lat="45.82601748601532" lon="8.433686993863299"><ele>605.6</ele><time>2026-04-11T08:41:44.999Z</time></trkpt><trkpt lat="45.82609779691541" lon="8.433607754803358"><ele>607.8</ele><time>2026-04-11T08:41:45.999Z</time></trkpt><trkpt lat="45.82618705596138" lon="8.433524922527464"><ele>610.0</ele><time>2026-04-11T08:41:46.999Z</time></trkpt><trkpt lat="45.82635513204363" lon="8.43337753833152"><ele>610.0</ele><time>2026-04-11T08:41:48.999Z</time></trkpt><trkpt lat="45.826440751039556" lon="8.433324117078868"><ele>610.0</ele><time>2026-04-11T08:41:49.999Z</time></trkpt><trkpt lat="45.826522510271694" lon="8.433279941635288"><ele>610.0</ele><time>2026-04-11T08:41:50.999Z</time></trkpt><trkpt lat="45.82661752550808" lon="8.43322907539947"><ele>610.0</ele><time>2026-04-11T08:41:51.999Z</time></trkpt><trkpt lat="45.82670728808139" lon="8.43318332106482"><ele>610.0</ele><time>2026-04-11T08:41:52.999Z</time></trkpt><trkpt lat="45.82679423044541" lon="8.433137525309988"><ele>609.2</ele><time>2026-04-11T08:41:53.999Z</time></trkpt><trkpt lat="45.82688417470897" lon="8.43308807812335"><ele>608.4</ele><time>2026-04-11T08:41:54.999Z</time></trkpt><trkpt lat="45.82697082281623" lon="8.433041992424233"><ele>607.6</ele><time>2026-04-11T08:41:55.999Z</time></trkpt><trkpt lat="45.82705857142295" lon="8.433004077028796"><ele>606.8</ele><time>2026-04-11T08:41:56.999Z</time></trkpt><trkpt lat="45.827165641838334" lon="8.43298124027152"><ele>606.0</ele><time>2026-04-11T08:41:57.999Z</time></trkpt><trkpt lat="45.82728615924675" lon="8.432971824618672"><ele>606.0</ele><time>2026-04-11T08:41:58.999Z</time></trkpt><trkpt lat="45.82742134285328" lon="8.432961939262643"><ele>606.0</ele><time>2026-04-11T08:41:59.999Z</time></trkpt><trkpt lat="45.827569807082575" lon="8.432938165117685"><ele>606.0</ele><time>2026-04-11T08:42:00.999Z</time></trkpt><trkpt lat="45.82772844065955" lon="8.432910455257279"><ele>606.0</ele><time>2026-04-11T08:42:01.999Z</time></trkpt><trkpt lat="45.82789843918089" lon="8.432910003668962"><ele>610.6666666666666</ele><time>2026-04-11T08:42:02.999Z</time></trkpt><trkpt lat="45.82807371284208" lon="8.432888602305075"><ele>615.3333333333333</ele><time>2026-04-11T08:42:03.999Z</time></trkpt><trkpt lat="45.82825276825708" lon="8.432866739173868"><ele>620.0</ele><time>2026-04-11T08:42:04.999Z</time></trkpt><trkpt lat="45.82842074978483" lon="8.432846228187092"><ele>623.3333333333333</ele><time>2026-04-11T08:42:05.999Z</time></trkpt><trkpt lat="45.82857317914046" lon="8.432826980500396"><ele>626.6666666666666</ele><time>2026-04-11T08:42:06.999Z</time></trkpt><trkpt lat="45.82869877481306" lon="8.43281036999763"><ele>630.0</ele><time>2026-04-11T08:42:07.999Z</time></trkpt><trkpt lat="45.828942394462665" lon="8.432831040471843"><ele>630.0</ele><time>2026-04-11T08:42:09.999Z</time></trkpt><trkpt lat="45.82906838895406" lon="8.432889642668735"><ele>630.0</ele><time>2026-04-11T08:42:10.999Z</time></trkpt><trkpt lat="45.82922965879485" lon="8.43295929213864"><ele>630.0</ele><time>2026-04-11T08:42:11.999Z</time></trkpt><trkpt lat="45.82940008899715" lon="8.43303560228211"><ele>635.75</ele><time>2026-04-11T08:42:12.999Z</time></trkpt><trkpt lat="45.829550655681324" lon="8.433085403879469"><ele>641.5</ele><time>2026-04-11T08:42:13.999Z</time></trkpt><trkpt lat="45.82968305802581" lon="8.433139613618485"><ele>647.25</ele><time>2026-04-11T08:42:14.999Z</time></trkpt><trkpt lat="45.829806565168084" lon="8.433226694107088"><ele>653.0</ele><time>2026-04-11T08:42:15.999Z</time></trkpt><trkpt lat="45.829923887349075" lon="8.433301864088007"><ele>653.0</ele><time>2026-04-11T08:42:16.999Z</time></trkpt><trkpt lat="45.830049814879835" lon="8.43341720597278"><ele>653.0</ele><time>2026-04-11T08:42:17.999Z</time></trkpt><trkpt lat="45.83016682511378" lon="8.433537857631773"><ele>653.0</ele><time>2026-04-11T08:42:18.999Z</time></trkpt><trkpt lat="45.8303015107413" lon="8.433649932048551"><ele>653.0</ele><time>2026-04-11T08:42:19.999Z</time></trkpt><trkpt lat="45.83041882434807" lon="8.433736745427515"><ele>659.5</ele><time>2026-04-11T08:42:20.999Z</time></trkpt><trkpt lat="45.830538400161814" lon="8.433811119075553"><ele>666.0</ele><time>2026-04-11T08:42:21.999Z</time></trkpt><trkpt lat="45.83067254976047" lon="8.433864317650192"><ele>672.5</ele><time>2026-04-11T08:42:22.999Z</time></trkpt><trkpt lat="45.83079819554066" lon="8.433901616944445"><ele>679.0</ele><time>2026-04-11T08:42:23.999Z</time></trkpt><trkpt lat="45.830931593070105" lon="8.433933217487846"><ele>680.0</ele><time>2026-04-11T08:42:24.999Z</time></trkpt><trkpt lat="45.831064674010115" lon="8.434054334184976"><ele>681.0</ele><time>2026-04-11T08:42:25.999Z</time></trkpt><trkpt lat="45.831205683143565" lon="8.434052694911971"><ele>682.0</ele><time>2026-04-11T08:42:26.999Z</time></trkpt><trkpt lat="45.8313507622097" lon="8.434042021849137"><ele>683.0</ele><time>2026-04-11T08:42:27.999Z</time></trkpt><trkpt lat="45.83145548172411" lon="8.434075908066166"><ele>683.0</ele><time>2026-04-11T08:42:28.999Z</time></trkpt><trkpt lat="45.831547443276634" lon="8.434106820855481"><ele>683.0</ele><time>2026-04-11T08:42:29.999Z</time></trkpt><trkpt lat="45.831633805642745" lon="8.434148420111901"><ele>683.0</ele><time>2026-04-11T08:42:30.999Z</time></trkpt><trkpt lat="45.83174432450631" lon="8.434161003220108"><ele>683.0</ele><time>2026-04-11T08:42:32.999Z</time></trkpt><trkpt lat="45.83175491759434" lon="8.434258592512672"><ele>683.0</ele><time>2026-04-11T08:42:35.999Z</time></trkpt><trkpt lat="45.8316262478693" lon="8.434249839813065"><ele>683.0</ele><time>2026-04-11T08:42:37.999Z</time></trkpt><trkpt lat="45.831515426166014" lon="8.43429032016656"><ele>683.0</ele><time>2026-04-11T08:42:38.999Z</time></trkpt><trkpt lat="45.83138520544125" lon="8.434395803667416"><ele>683.0</ele><time>2026-04-11T08:42:39.999Z</time></trkpt><trkpt lat="45.831276153380806" lon="8.434489502735506"><ele>683.0</ele><time>2026-04-11T08:42:40.999Z</time></trkpt><trkpt lat="45.8311674067543" lon="8.43456427097759"><ele>683.0</ele><time>2026-04-11T08:42:41.999Z</time></trkpt><trkpt lat="45.83104179538549" lon="8.434608271204555"><ele>683.0</ele><time>2026-04-11T08:42:42.999Z</time></trkpt><trkpt lat="45.830919401273945" lon="8.434638570661875"><ele>683.0</ele><time>2026-04-11T08:42:43.999Z</time></trkpt><trkpt lat="45.830806848141386" lon="8.434673242888413"><ele>683.0</ele><time>2026-04-11T08:42:44.999Z</time></trkpt><trkpt lat="45.83071529404387" lon="8.43471009738971"><ele>688.2</ele><time>2026-04-11T08:42:45.999Z</time></trkpt><trkpt lat="45.83060019561382" lon="8.434724326788684"><ele>693.4</ele><time>2026-04-11T08:42:46.999Z</time></trkpt><trkpt lat="45.83049860113773" lon="8.434744792074387"><ele>698.6</ele><time>2026-04-11T08:42:47.999Z</time></trkpt><trkpt lat="45.83042189617506" lon="8.43475836462012"><ele>703.8000000000001</ele><time>2026-04-11T08:42:48.999Z</time></trkpt><trkpt lat="45.83032562393473" lon="8.43477275110434"><ele>709.0</ele><time>2026-04-11T08:42:49.999Z</time></trkpt><trkpt lat="45.830235379148405" lon="8.434780955380718"><ele>709.4000000000001</ele><time>2026-04-11T08:42:50.999Z</time></trkpt><trkpt lat="45.83013887042673" lon="8.434793894789696"><ele>709.8</ele><time>2026-04-11T08:42:51.999Z</time></trkpt><trkpt lat="45.83002184798425" lon="8.4347670827817"><ele>710.2</ele><time>2026-04-11T08:42:52.999Z</time></trkpt><trkpt lat="45.82992394181208" lon="8.43473836338679"><ele>710.5999999999999</ele><time>2026-04-11T08:42:53.999Z</time></trkpt><trkpt lat="45.8298239352425" lon="8.434709016892834"><ele>711.0</ele><time>2026-04-11T08:42:54.999Z</time></trkpt><trkpt lat="45.82970842494887" lon="8.434687474815307"><ele>711.0</ele><time>2026-04-11T08:42:55.999Z</time></trkpt><trkpt lat="45.82963065104702" lon="8.434691914190813"><ele>711.0</ele><time>2026-04-11T08:42:56.999Z</time></trkpt><trkpt lat="45.829552898180324" lon="8.434696352368608"><ele>711.0</ele><time>2026-04-11T08:42:57.999Z</time></trkpt><trkpt lat="45.82947997516686" lon="8.434702143993228"><ele>711.0</ele><time>2026-04-11T08:42:58.999Z</time></trkpt><trkpt lat="45.829398989054646" lon="8.434714352145253"><ele>711.0</ele><time>2026-04-11T08:42:59.999Z</time></trkpt><trkpt lat="45.82933045406391" lon="8.434721300215358"><ele>711.0</ele><time>2026-04-11T08:43:00.999Z</time></trkpt><trkpt lat="45.82926053094303" lon="8.434728965733335"><ele>711.0</ele><time>2026-04-11T08:43:01.999Z</time></trkpt><trkpt lat="45.82917768272711" lon="8.434762016146632"><ele>709.75</ele><time>2026-04-11T08:43:02.999Z</time></trkpt><trkpt lat="45.82907491682169" lon="8.434815783512848"><ele>708.5</ele><time>2026-04-11T08:43:03.999Z</time></trkpt><trkpt lat="45.82899249691675" lon="8.434923783087807"><ele>707.25</ele><time>2026-04-11T08:43:04.999Z</time></trkpt><trkpt lat="45.828923890799494" lon="8.435078197479681"><ele>706.0</ele><time>2026-04-11T08:43:05.999Z</time></trkpt><trkpt lat="45.828871939697194" lon="8.43522927234443"><ele>706.0</ele><time>2026-04-11T08:43:06.999Z</time></trkpt><trkpt lat="45.82878034022913" lon="8.435355178624725"><ele>706.0</ele><time>2026-04-11T08:43:07.999Z</time></trkpt><trkpt lat="45.82865879846085" lon="8.435468049465081"><ele>706.0</ele><time>2026-04-11T08:43:08.999Z</time></trkpt><trkpt lat="45.82855049632744" lon="8.43558129158048"><ele>706.0</ele><time>2026-04-11T08:43:09.999Z</time></trkpt><trkpt lat="45.82846915940529" lon="8.435707028248899"><ele>707.25</ele><time>2026-04-11T08:43:10.999Z</time></trkpt><trkpt lat="45.828379624780425" lon="8.435842142130308"><ele>708.5</ele><time>2026-04-11T08:43:11.999Z</time></trkpt><trkpt lat="45.82831784176931" lon="8.435959616207978"><ele>709.75</ele><time>2026-04-11T08:43:12.999Z</time></trkpt><trkpt lat="45.82823445607139" lon="8.436141415149196"><ele>711.0</ele><time>2026-04-11T08:43:13.999Z</time></trkpt><trkpt lat="45.82815969302208" lon="8.436284742878044"><ele>715.75</ele><time>2026-04-11T08:43:14.999Z</time></trkpt><trkpt lat="45.82810500203931" lon="8.436424234248223"><ele>720.5</ele><time>2026-04-11T08:43:15.999Z</time></trkpt><trkpt lat="45.82808513551753" lon="8.4366114669325"><ele>725.25</ele><time>2026-04-11T08:43:16.999Z</time></trkpt><trkpt lat="45.8280602653619" lon="8.436816774222642"><ele>730.0</ele><time>2026-04-11T08:43:17.999Z</time></trkpt><trkpt lat="45.82801311452695" lon="8.436929055913701"><ele>730.0</ele><time>2026-04-11T08:43:18.999Z</time></trkpt><trkpt lat="45.827932410031224" lon="8.437071330427827"><ele>730.0</ele><time>2026-04-11T08:43:19.999Z</time></trkpt><trkpt lat="45.82782769458295" lon="8.437237667211425"><ele>730.0</ele><time>2026-04-11T08:43:20.999Z</time></trkpt><trkpt lat="45.82779391832178" lon="8.437458673861238"><ele>730.0</ele><time>2026-04-11T08:43:21.999Z</time></trkpt><trkpt lat="45.827719930951865" lon="8.437650015652308"><ele>728.0</ele><time>2026-04-11T08:43:22.999Z</time></trkpt><trkpt lat="45.8276234881722" lon="8.43781295541652"><ele>726.0</ele><time>2026-04-11T08:43:23.999Z</time></trkpt><trkpt lat="45.82754555341984" lon="8.43799668885246"><ele>724.0</ele><time>2026-04-11T08:43:24.999Z</time></trkpt><trkpt lat="45.82750901037626" lon="8.438229503732662"><ele>724.0</ele><time>2026-04-11T08:43:25.999Z</time></trkpt><trkpt lat="45.8274910737309" lon="8.438428642023501"><ele>724.0</ele><time>2026-04-11T08:43:26.999Z</time></trkpt><trkpt lat="45.827465432688484" lon="8.438618542448053"><ele>724.0</ele><time>2026-04-11T08:43:27.999Z</time></trkpt><trkpt lat="45.82746930415124" lon="8.438787978299416"><ele>724.0</ele><time>2026-04-11T08:43:28.999Z</time></trkpt><trkpt lat="45.827466339662394" lon="8.438984473169372"><ele>724.8000000000001</ele><time>2026-04-11T08:43:29.999Z</time></trkpt><trkpt lat="45.82746797986314" lon="8.43912250510645"><ele>725.6</ele><time>2026-04-11T08:43:30.999Z</time></trkpt><trkpt lat="45.82752817464964" lon="8.439228407306835"><ele>726.4</ele><time>2026-04-11T08:43:31.999Z</time></trkpt><trkpt lat="45.82760837403327" lon="8.439313305370124"><ele>727.2</ele><time>2026-04-11T08:43:32.999Z</time></trkpt><trkpt lat="45.82775369507476" lon="8.439367825129144"><ele>728.0</ele><time>2026-04-11T08:43:33.999Z</time></trkpt><trkpt lat="45.827888663083684" lon="8.439421240162421"><ele>733.0</ele><time>2026-04-11T08:43:34.999Z</time></trkpt><trkpt lat="45.82800499508473" lon="8.439421817863654"><ele>738.0</ele><time>2026-04-11T08:43:35.999Z</time></trkpt><trkpt lat="45.828123131639146" lon="8.439368674142422"><ele>743.0</ele><time>2026-04-11T08:43:36.999Z</time></trkpt><trkpt lat="45.828242220608686" lon="8.439304814580032"><ele>748.0</ele><time>2026-04-11T08:43:37.999Z</time></trkpt><trkpt lat="45.82835156201804" lon="8.439258441008663"><ele>748.0</ele><time>2026-04-11T08:43:38.999Z</time></trkpt><trkpt lat="45.82847099361798" lon="8.439260589513061"><ele>748.0</ele><time>2026-04-11T08:43:39.999Z</time></trkpt><trkpt lat="45.828602815987075" lon="8.439276021589839"><ele>748.0</ele><time>2026-04-11T08:43:40.999Z</time></trkpt><trkpt lat="45.828716553638436" lon="8.439294721180023"><ele>748.0</ele><time>2026-04-11T08:43:41.999Z</time></trkpt><trkpt lat="45.828826484218546" lon="8.439312327748352"><ele>752.75</ele><time>2026-04-11T08:43:42.999Z</time></trkpt><trkpt lat="45.82892276882438" lon="8.439403475349174"><ele>757.5</ele><time>2026-04-11T08:43:43.999Z</time></trkpt><trkpt lat="45.82900721956114" lon="8.439506170293917"><ele>762.25</ele><time>2026-04-11T08:43:44.999Z</time></trkpt><trkpt lat="45.829135789235224" lon="8.439583820778516"><ele>767.0</ele><time>2026-04-11T08:43:45.999Z</time></trkpt><trkpt lat="45.82926861671616" lon="8.439602526126098"><ele>771.2</ele><time>2026-04-11T08:43:46.999Z</time></trkpt><trkpt lat="45.82937907206572" lon="8.439594477038394"><ele>775.4000000000001</ele><time>2026-04-11T08:43:47.999Z</time></trkpt><trkpt lat="45.82948486715201" lon="8.439534121492876"><ele>779.5999999999999</ele><time>2026-04-11T08:43:48.999Z</time></trkpt><trkpt lat="45.8295876267862" lon="8.43951068602162"><ele>783.8</ele><time>2026-04-11T08:43:49.999Z</time></trkpt><trkpt lat="45.82968220372444" lon="8.439556359884747"><ele>788.0</ele><time>2026-04-11T08:43:50.999Z</time></trkpt><trkpt lat="45.829745640285786" lon="8.43959087444997"><ele>788.0000000000001</ele><time>2026-04-11T08:43:51.999Z</time></trkpt><trkpt lat="45.82980983230001" lon="8.439661466601956"><ele>788.0</ele><time>2026-04-11T08:43:52.999Z</time></trkpt><trkpt lat="45.829933047721504" lon="8.439731581491797"><ele>788.0</ele><time>2026-04-11T08:43:53.999Z</time></trkpt><trkpt lat="45.82998894716191" lon="8.439671048256939"><ele>788.0</ele><time>2026-04-11T08:43:54.999Z</time></trkpt><trkpt lat="45.829995617200716" lon="8.43957836060978"><ele>788.0000000000001</ele><time>2026-04-11T08:43:55.999Z</time></trkpt><trkpt lat="45.829957520702784" lon="8.439470466428231"><ele>788.0</ele><time>2026-04-11T08:43:56.999Z</time></trkpt><trkpt lat="45.82987197511015" lon="8.439378154130026"><ele>788.0</ele><time>2026-04-11T08:43:57.999Z</time></trkpt><trkpt lat="45.829804344575045" lon="8.439277152862841"><ele>788.0</ele><time>2026-04-11T08:43:58.999Z</time></trkpt><trkpt lat="45.82975788752631" lon="8.439166041365267"><ele>788.0</ele><time>2026-04-11T08:43:59.999Z</time></trkpt><trkpt lat="45.829705291545004" lon="8.439005177452751"><ele>788.0</ele><time>2026-04-11T08:44:00.999Z</time></trkpt><trkpt lat="45.8296489802155" lon="8.438832439058695"><ele>788.0</ele><time>2026-04-11T08:44:01.999Z</time></trkpt><trkpt lat="45.82958972800553" lon="8.438640843892594"><ele>786.5</ele><time>2026-04-11T08:44:02.999Z</time></trkpt><trkpt lat="45.829556696507204" lon="8.43847223825662"><ele>785.0</ele><time>2026-04-11T08:44:03.999Z</time></trkpt><trkpt lat="45.82955215891199" lon="8.438311991482877"><ele>783.5</ele><time>2026-04-11T08:44:04.999Z</time></trkpt><trkpt lat="45.82956067338619" lon="8.43813299623893"><ele>782.0</ele><time>2026-04-11T08:44:05.999Z</time></trkpt><trkpt lat="45.82957045769307" lon="8.437951163140369"><ele>782.0000000000001</ele><time>2026-04-11T08:44:06.999Z</time></trkpt><trkpt lat="45.8295793679247" lon="8.437842988705324"><ele>782.0</ele><time>2026-04-11T08:44:07.999Z</time></trkpt><trkpt lat="45.82960461136751" lon="8.437711116279045"><ele>782.0</ele><time>2026-04-11T08:44:08.999Z</time></trkpt><trkpt lat="45.829661815252074" lon="8.437574700625646"><ele>782.0</ele><time>2026-04-11T08:44:10.999Z</time></trkpt><trkpt lat="45.82972421597763" lon="8.43760460981057"><ele>782.0000000000001</ele><time>2026-04-11T08:44:11.999Z</time></trkpt><trkpt lat="45.829787275744" lon="8.437693228301228"><ele>782.0</ele><time>2026-04-11T08:44:12.999Z</time></trkpt><trkpt lat="45.829845569188244" lon="8.437765017695542"><ele>782.0</ele><time>2026-04-11T08:44:13.999Z</time></trkpt><trkpt lat="45.829917137614984" lon="8.437822076836046"><ele>782.0</ele><time>2026-04-11T08:44:14.999Z</time></trkpt><trkpt lat="45.83002351126646" lon="8.437841421568075"><ele>782.0</ele><time>2026-04-11T08:44:15.999Z</time></trkpt><trkpt lat="45.83013842115099" lon="8.437857189965024"><ele>782.0</ele><time>2026-04-11T08:44:16.999Z</time></trkpt><trkpt lat="45.83025115365415" lon="8.437858570054985"><ele>782.0</ele><time>2026-04-11T08:44:17.999Z</time></trkpt><trkpt lat="45.830360622297" lon="8.437883818651656"><ele>782.4000000000001</ele><time>2026-04-11T08:44:18.999Z</time></trkpt><trkpt lat="45.830469645806424" lon="8.437873708269164"><ele>782.8000000000001</ele><time>2026-04-11T08:44:19.999Z</time></trkpt><trkpt lat="45.83057148833822" lon="8.437920537584583"><ele>783.2</ele><time>2026-04-11T08:44:20.999Z</time></trkpt><trkpt lat="45.830667191477986" lon="8.437971801133585"><ele>783.6</ele><time>2026-04-11T08:44:21.999Z</time></trkpt><trkpt lat="45.83075232765677" lon="8.438063491930496"><ele>784.0</ele><time>2026-04-11T08:44:22.999Z</time></trkpt><trkpt lat="45.8308306776805" lon="8.438188978290977"><ele>789.5</ele><time>2026-04-11T08:44:23.999Z</time></trkpt><trkpt lat="45.83089999436692" lon="8.438329506398047"><ele>795.0</ele><time>2026-04-11T08:44:24.999Z</time></trkpt><trkpt lat="45.830990299307295" lon="8.43847497707929"><ele>800.5</ele><time>2026-04-11T08:44:25.999Z</time></trkpt><trkpt lat="45.8311015834239" lon="8.438606090004376"><ele>806.0</ele><time>2026-04-11T08:44:26.999Z</time></trkpt><trkpt lat="45.83121836466522" lon="8.438722627182264"><ele>808.0</ele><time>2026-04-11T08:44:27.999Z</time></trkpt><trkpt lat="45.831345216511764" lon="8.438822634776766"><ele>810.0</ele><time>2026-04-11T08:44:28.999Z</time></trkpt><trkpt lat="45.831462905186186" lon="8.438945632280893"><ele>812.0</ele><time>2026-04-11T08:44:29.999Z</time></trkpt><trkpt lat="45.831573578311385" lon="8.43907643378939"><ele>814.0</ele><time>2026-04-11T08:44:31Z</time></trkpt><trkpt lat="45.831680882289" lon="8.439205452501183"><ele>814.0</ele><time>2026-04-11T08:44:32Z</time></trkpt><trkpt lat="45.831783348216256" lon="8.439331297185765"><ele>814.0</ele><time>2026-04-11T08:44:33Z</time></trkpt><trkpt lat="45.83190353490046" lon="8.439420746508729"><ele>814.0</ele><time>2026-04-11T08:44:34Z</time></trkpt><trkpt lat="45.83203707323972" lon="8.439464297039827"><ele>814.0</ele><time>2026-04-11T08:44:35Z</time></trkpt><trkpt lat="45.83217357848832" lon="8.439503322499036"><ele>816.5</ele><time>2026-04-11T08:44:36Z</time></trkpt><trkpt lat="45.83230338228439" lon="8.439531105295078"><ele>819.0</ele><time>2026-04-11T08:44:37Z</time></trkpt><trkpt lat="45.832420570839545" lon="8.439547328235836"><ele>821.5</ele><time>2026-04-11T08:44:38Z</time></trkpt><trkpt lat="45.83253574347083" lon="8.439609197203374"><ele>824.0</ele><time>2026-04-11T08:44:39Z</time></trkpt><trkpt lat="45.832656560987765" lon="8.439689723224383"><ele>824.0</ele><time>2026-04-11T08:44:40Z</time></trkpt><trkpt lat="45.83278118945674" lon="8.439766240893528"><ele>824.0</ele><time>2026-04-11T08:44:41Z</time></trkpt><trkpt lat="45.83290029933284" lon="8.439858236645462"><ele>824.0</ele><time>2026-04-11T08:44:42Z</time></trkpt><trkpt lat="45.83302133895758" lon="8.43994604813117"><ele>824.0</ele><time>2026-04-11T08:44:43Z</time></trkpt><trkpt lat="45.83314325601071" lon="8.440039090342108"><ele>824.0</ele><time>2026-04-11T08:44:44Z</time></trkpt><trkpt lat="45.833281450631354" lon="8.440068522963612"><ele>824.0</ele><time>2026-04-11T08:44:45Z</time></trkpt><trkpt lat="45.83341996987961" lon="8.440122849997605"><ele>824.0</ele><time>2026-04-11T08:44:46Z</time></trkpt><trkpt lat="45.833566325863146" lon="8.440141128293813"><ele>824.0</ele><time>2026-04-11T08:44:47Z</time></trkpt><trkpt lat="45.83370246561253" lon="8.440167501210261"><ele>825.4000000000001</ele><time>2026-04-11T08:44:48Z</time></trkpt><trkpt lat="45.83381728678483" lon="8.440181898616627"><ele>826.8</ele><time>2026-04-11T08:44:49Z</time></trkpt><trkpt lat="45.833914184906035" lon="8.440233372458163"><ele>828.2</ele><time>2026-04-11T08:44:50Z</time></trkpt><trkpt lat="45.83402239558677" lon="8.44027632531441"><ele>829.5999999999999</ele><time>2026-04-11T08:44:51Z</time></trkpt><trkpt lat="45.834114242156744" lon="8.440357645309197"><ele>831.0</ele><time>2026-04-11T08:44:52Z</time></trkpt><trkpt lat="45.83420682296447" lon="8.4404083926952"><ele>830.25</ele><time>2026-04-11T08:44:53Z</time></trkpt><trkpt lat="45.83431168799764" lon="8.440449910128079"><ele>829.5</ele><time>2026-04-11T08:44:54Z</time></trkpt><trkpt lat="45.834423251484594" lon="8.440437685785794"><ele>828.75</ele><time>2026-04-11T08:44:55Z</time></trkpt><trkpt lat="45.83453231715818" lon="8.440390721384848"><ele>828.0</ele><time>2026-04-11T08:44:56Z</time></trkpt><trkpt lat="45.83464625069211" lon="8.440335143052557"><ele>828.0</ele><time>2026-04-11T08:44:57Z</time></trkpt><trkpt lat="45.83475376021045" lon="8.440248823735008"><ele>828.0</ele><time>2026-04-11T08:44:58Z</time></trkpt><trkpt lat="45.83487137331953" lon="8.440314259031426"><ele>828.0</ele><time>2026-04-11T08:44:59Z</time></trkpt><trkpt lat="45.834991874535866" lon="8.440379604073538"><ele>828.0</ele><time>2026-04-11T08:45:00Z</time></trkpt><trkpt lat="45.83510117161167" lon="8.440465453363636"><ele>832.2</ele><time>2026-04-11T08:45:01Z</time></trkpt><trkpt lat="45.835220702261665" lon="8.440505710192797"><ele>836.4</ele><time>2026-04-11T08:45:02Z</time></trkpt><trkpt lat="45.835320034464694" lon="8.440597446036406"><ele>840.6</ele><time>2026-04-11T08:45:03Z</time></trkpt><trkpt lat="45.83537144960474" lon="8.440689347834168"><ele>844.8000000000001</ele><time>2026-04-11T08:45:04Z</time></trkpt><trkpt lat="45.835404656701634" lon="8.44080585913593"><ele>849.0</ele><time>2026-04-11T08:45:05Z</time></trkpt><trkpt lat="45.83548858504071" lon="8.440891976359724"><ele>849.0</ele><time>2026-04-11T08:45:06Z</time></trkpt><trkpt lat="45.83559460224216" lon="8.440934964463848"><ele>849.0</ele><time>2026-04-11T08:45:07Z</time></trkpt><trkpt lat="45.835709479195096" lon="8.440960507393509"><ele>849.0</ele><time>2026-04-11T08:45:08Z</time></trkpt><trkpt lat="45.835820749872475" lon="8.440973823255426"><ele>849.0</ele><time>2026-04-11T08:45:09Z</time></trkpt><trkpt lat="45.835942544069525" lon="8.440977559747967"><ele>850.2</ele><time>2026-04-11T08:45:10Z</time></trkpt><trkpt lat="45.836035606494896" lon="8.440973758802661"><ele>851.4000000000001</ele><time>2026-04-11T08:45:11Z</time></trkpt><trkpt lat="45.836126174145384" lon="8.440970059757918"><ele>852.6</ele><time>2026-04-11T08:45:12Z</time></trkpt><trkpt lat="45.83620775616629" lon="8.440966633496188"><ele>853.8</ele><time>2026-04-11T08:45:13Z</time></trkpt><trkpt lat="45.83630721425265" lon="8.440983045724906"><ele>855.0</ele><time>2026-04-11T08:45:14Z</time></trkpt><trkpt lat="45.83641578799075" lon="8.4410282014367"><ele>855.0</ele><time>2026-04-11T08:45:15Z</time></trkpt><trkpt lat="45.8365361830549" lon="8.441119930332396"><ele>855.0</ele><time>2026-04-11T08:45:16Z</time></trkpt><trkpt lat="45.83666318113251" lon="8.441195007144609"><ele>855.0</ele><time>2026-04-11T08:45:17Z</time></trkpt><trkpt lat="45.83679438980466" lon="8.441279733514524"><ele>855.0</ele><time>2026-04-11T08:45:18Z</time></trkpt><trkpt lat="45.83691754023847" lon="8.44138504460063"><ele>861.6666666666667</ele><time>2026-04-11T08:45:19Z</time></trkpt><trkpt lat="45.83704601330611" lon="8.441499587566774"><ele>868.3333333333334</ele><time>2026-04-11T08:45:20Z</time></trkpt><trkpt lat="45.83718477849425" lon="8.441601269161971"><ele>875.0</ele><time>2026-04-11T08:45:21Z</time></trkpt><trkpt lat="45.83731579782623" lon="8.44170116021252"><ele>875.0</ele><time>2026-04-11T08:45:22Z</time></trkpt><trkpt lat="45.83744999536922" lon="8.441779963480421"><ele>875.0</ele><time>2026-04-11T08:45:23Z</time></trkpt><trkpt lat="45.83757023761996" lon="8.441892357787738"><ele>875.0</ele><time>2026-04-11T08:45:23.999Z</time></trkpt><trkpt lat="45.83768993023949" lon="8.441994274583823"><ele>875.0</ele><time>2026-04-11T08:45:24.999Z</time></trkpt><trkpt lat="45.8378148355847" lon="8.442048005053312"><ele>873.0</ele><time>2026-04-11T08:45:25.999Z</time></trkpt><trkpt lat="45.837945004750246" lon="8.442058022816719"><ele>871.0</ele><time>2026-04-11T08:45:26.999Z</time></trkpt><trkpt lat="45.838091628487874" lon="8.442079232973558"><ele>869.0</ele><time>2026-04-11T08:45:27.999Z</time></trkpt><trkpt lat="45.838226140785856" lon="8.442157998336706"><ele>867.0</ele><time>2026-04-11T08:45:28.999Z</time></trkpt><trkpt lat="45.838334740228696" lon="8.442263028328243"><ele>870.75</ele><time>2026-04-11T08:45:29.999Z</time></trkpt><trkpt lat="45.83843316991647" lon="8.442392285983493"><ele>874.5</ele><time>2026-04-11T08:45:30.999Z</time></trkpt><trkpt lat="45.838542737960566" lon="8.44250429152338"><ele>878.25</ele><time>2026-04-11T08:45:31.999Z</time></trkpt><trkpt lat="45.83866785746008" lon="8.442593609985975"><ele>882.0</ele><time>2026-04-11T08:45:32.999Z</time></trkpt><trkpt lat="45.83879132234541" lon="8.442654312832975"><ele>882.0</ele><time>2026-04-11T08:45:33.999Z</time></trkpt><trkpt lat="45.83892583288416" lon="8.442720712047802"><ele>882.0</ele><time>2026-04-11T08:45:34.999Z</time></trkpt><trkpt lat="45.83906191052727" lon="8.442800569217473"><ele>882.0</ele><time>2026-04-11T08:45:35.999Z</time></trkpt><trkpt lat="45.839200554634836" lon="8.442878445207143"><ele>882.0</ele><time>2026-04-11T08:45:36.999Z</time></trkpt><trkpt lat="45.839328786804565" lon="8.442977289279252"><ele>887.3333333333333</ele><time>2026-04-11T08:45:37.999Z</time></trkpt><trkpt lat="45.839468218993225" lon="8.443058059041187"><ele>892.6666666666666</ele><time>2026-04-11T08:45:38.999Z</time></trkpt><trkpt lat="45.83961355688979" lon="8.443123199955236"><ele>898.0</ele><time>2026-04-11T08:45:39.999Z</time></trkpt><trkpt lat="45.83975552664591" lon="8.443182539827307"><ele>898.0</ele><time>2026-04-11T08:45:40.999Z</time></trkpt><trkpt lat="45.839890393281514" lon="8.44322491809027"><ele>898.0</ele><time>2026-04-11T08:45:41.999Z</time></trkpt><trkpt lat="45.84001364991934" lon="8.443287108388756"><ele>898.0</ele><time>2026-04-11T08:45:42.999Z</time></trkpt><trkpt lat="45.84014237316979" lon="8.44335150751755"><ele>898.0</ele><time>2026-04-11T08:45:43.999Z</time></trkpt><trkpt lat="45.840270684705835" lon="8.443429975222188"><ele>898.25</ele><time>2026-04-11T08:45:44.999Z</time></trkpt><trkpt lat="45.84039208430777" lon="8.443506487894002"><ele>898.5</ele><time>2026-04-11T08:45:45.999Z</time></trkpt><trkpt lat="45.84050758090421" lon="8.443591368148015"><ele>898.75</ele><time>2026-04-11T08:45:46.999Z</time></trkpt><trkpt lat="45.84063254597728" lon="8.443653688289693"><ele>899.0</ele><time>2026-04-11T08:45:47.999Z</time></trkpt><trkpt lat="45.840748586066034" lon="8.443760570953728"><ele>900.0</ele><time>2026-04-11T08:45:48.999Z</time></trkpt><trkpt lat="45.840860382033256" lon="8.443867554786785"><ele>901.0</ele><time>2026-04-11T08:45:49.999Z</time></trkpt><trkpt lat="45.84096275595851" lon="8.44396217322823"><ele>902.0</ele><time>2026-04-11T08:45:50.999Z</time></trkpt><trkpt lat="45.84105595530225" lon="8.444044816402277"><ele>903.0</ele><time>2026-04-11T08:45:51.999Z</time></trkpt><trkpt lat="45.84113812511782" lon="8.44411832382539"><ele>903.8333333333334</ele><time>2026-04-11T08:45:52.999Z</time></trkpt><trkpt lat="45.84122762344752" lon="8.444132922966917"><ele>904.6666666666667</ele><time>2026-04-11T08:45:53.999Z</time></trkpt><trkpt lat="45.84131686834616" lon="8.444139632817514"><ele>905.5</ele><time>2026-04-11T08:45:54.999Z</time></trkpt><trkpt lat="45.84140192785381" lon="8.44411449731511"><ele>906.3333333333334</ele><time>2026-04-11T08:45:55.999Z</time></trkpt><trkpt lat="45.841490995024145" lon="8.444088177282266"><ele>907.1666666666667</ele><time>2026-04-11T08:45:56.999Z</time></trkpt><trkpt lat="45.841562216126434" lon="8.444015331496457"><ele>908.0</ele><time>2026-04-11T08:45:57.999Z</time></trkpt><trkpt lat="45.84171312699476" lon="8.443900506087255"><ele>908.0</ele><time>2026-04-11T08:45:58.999Z</time></trkpt><trkpt lat="45.84178363004909" lon="8.443995585666121"><ele>908.0</ele><time>2026-04-11T08:45:59.999Z</time></trkpt><trkpt lat="45.841845978773335" lon="8.444121442260357"><ele>908.0</ele><time>2026-04-11T08:46:00.999Z</time></trkpt><trkpt lat="45.84189044370718" lon="8.444233612085014"><ele>908.0</ele><time>2026-04-11T08:46:01.999Z</time></trkpt><trkpt lat="45.84194245616468" lon="8.444357349656588"><ele>908.0</ele><time>2026-04-11T08:46:02.999Z</time></trkpt><trkpt lat="45.841998003137725" lon="8.444489496234386"><ele>911.25</ele><time>2026-04-11T08:46:03.999Z</time></trkpt><trkpt lat="45.84205654735552" lon="8.444628771074305"><ele>914.5</ele><time>2026-04-11T08:46:04.999Z</time></trkpt><trkpt lat="45.84211830035539" lon="8.444772964457858"><ele>917.75</ele><time>2026-04-11T08:46:05.999Z</time></trkpt><trkpt lat="45.842181069054064" lon="8.444920193264021"><ele>921.0</ele><time>2026-04-11T08:46:06.999Z</time></trkpt><trkpt lat="45.84224535521574" lon="8.445075222933022"><ele>921.5999999999999</ele><time>2026-04-11T08:46:07.999Z</time></trkpt><trkpt lat="45.84229026818978" lon="8.4452095336334"><ele>922.1999999999999</ele><time>2026-04-11T08:46:08.999Z</time></trkpt><trkpt lat="45.842325738816314" lon="8.445333338488625"><ele>922.8000000000001</ele><time>2026-04-11T08:46:09.999Z</time></trkpt><trkpt lat="45.84235968981922" lon="8.445437763157967"><ele>923.4000000000001</ele><time>2026-04-11T08:46:10.999Z</time></trkpt><trkpt lat="45.84242294945825" lon="8.445560758262008"><ele>924.0</ele><time>2026-04-11T08:46:11.999Z</time></trkpt><trkpt lat="45.84250279634163" lon="8.445676701421336"><ele>922.5</ele><time>2026-04-11T08:46:12.999Z</time></trkpt><trkpt lat="45.84260127588162" lon="8.44575970699408"><ele>921.0</ele><time>2026-04-11T08:46:13.999Z</time></trkpt><trkpt lat="45.84269510748064" lon="8.445845041634241"><ele>919.5</ele><time>2026-04-11T08:46:14.999Z</time></trkpt><trkpt lat="45.84279095213553" lon="8.445939105281859"><ele>918.0</ele><time>2026-04-11T08:46:15.999Z</time></trkpt><trkpt lat="45.842901120681525" lon="8.446005792678513"><ele>921.8</ele><time>2026-04-11T08:46:16.999Z</time></trkpt><trkpt lat="45.84301002330868" lon="8.446052483209598"><ele>925.5999999999999</ele><time>2026-04-11T08:46:17.999Z</time></trkpt><trkpt lat="45.843112233015994" lon="8.446081358523443"><ele>929.4000000000001</ele><time>2026-04-11T08:46:18.999Z</time></trkpt><trkpt lat="45.843190781702525" lon="8.446093328821204"><ele>933.2</ele><time>2026-04-11T08:46:19.999Z</time></trkpt><trkpt lat="45.84331163748926" lon="8.446100268488845"><ele>937.0</ele><time>2026-04-11T08:46:21.999Z</time></trkpt><trkpt lat="45.8436242630365" lon="8.446012378682683"><ele>938.6666666666666</ele><time>2026-04-11T08:46:23.999Z</time></trkpt><trkpt lat="45.84370316375616" lon="8.446316973894472"><ele>940.3333333333333</ele><time>2026-04-11T08:46:25.999Z</time></trkpt><trkpt lat="45.843732000107806" lon="8.446483430562196"><ele>942.0</ele><time>2026-04-11T08:46:26.999Z</time></trkpt><trkpt lat="45.84375458025586" lon="8.446657892042968"><ele>942.0</ele><time>2026-04-11T08:46:27.999Z</time></trkpt><trkpt lat="45.84376300894214" lon="8.446830656836086"><ele>942.0</ele><time>2026-04-11T08:46:28.999Z</time></trkpt><trkpt lat="45.84366963319882" lon="8.446990864678032"><ele>942.0</ele><time>2026-04-11T08:46:30.999Z</time></trkpt><trkpt lat="45.843715538340106" lon="8.447097380076615"><ele>942.0</ele><time>2026-04-11T08:46:31.999Z</time></trkpt><trkpt lat="45.84380583056709" lon="8.447157973848908"><ele>942.0</ele><time>2026-04-11T08:46:32.999Z</time></trkpt><trkpt lat="45.84385598786099" lon="8.447255427663405"><ele>942.0</ele><time>2026-04-11T08:46:33.999Z</time></trkpt><trkpt lat="45.84394007733191" lon="8.447323016692438"><ele>942.0</ele><time>2026-04-11T08:46:34.999Z</time></trkpt><trkpt lat="45.84398558805527" lon="8.44744532006689"><ele>942.0</ele><time>2026-04-11T08:46:35.999Z</time></trkpt><trkpt lat="45.844033915519766" lon="8.447575800427577"><ele>942.0</ele><time>2026-04-11T08:46:36.999Z</time></trkpt><trkpt lat="45.84410010618162" lon="8.44767131035133"><ele>942.0</ele><time>2026-04-11T08:46:37.999Z</time></trkpt><trkpt lat="45.844179974332356" lon="8.44777091201603"><ele>942.0</ele><time>2026-04-11T08:46:38.999Z</time></trkpt><trkpt lat="45.84427339099423" lon="8.447847816450407"><ele>942.0</ele><time>2026-04-11T08:46:39.999Z</time></trkpt><trkpt lat="45.84438034079826" lon="8.4478541766951"><ele>942.0</ele><time>2026-04-11T08:46:40.999Z</time></trkpt><trkpt lat="45.84448583632233" lon="8.447870629851133"><ele>942.0</ele><time>2026-04-11T08:46:41.999Z</time></trkpt><trkpt lat="45.844569168008526" lon="8.448017930568406"><ele>944.0</ele><time>2026-04-11T08:46:42.999Z</time></trkpt><trkpt lat="45.844670151118144" lon="8.448049442944539"><ele>946.0</ele><time>2026-04-11T08:46:43.999Z</time></trkpt><trkpt lat="45.844809377614155" lon="8.448091248808291"><ele>948.0</ele><time>2026-04-11T08:46:44.999Z</time></trkpt><trkpt lat="45.84491835792347" lon="8.448098727345906"><ele>950.0</ele><time>2026-04-11T08:46:45.999Z</time></trkpt><trkpt lat="45.84503402120337" lon="8.448099074612365"><ele>949.25</ele><time>2026-04-11T08:46:46.999Z</time></trkpt><trkpt lat="45.84517501219197" lon="8.448073379430857"><ele>948.5</ele><time>2026-04-11T08:46:47.999Z</time></trkpt><trkpt lat="45.8452946943799" lon="8.44802853366137"><ele>947.75</ele><time>2026-04-11T08:46:48.999Z</time></trkpt><trkpt lat="45.845413365302974" lon="8.447976867326712"><ele>947.0</ele><time>2026-04-11T08:46:49.999Z</time></trkpt><trkpt lat="45.84552781465902" lon="8.447934002913263"><ele>953.6666666666667</ele><time>2026-04-11T08:46:50.999Z</time></trkpt><trkpt lat="45.84565037017827" lon="8.447897504693307"><ele>960.3333333333333</ele><time>2026-04-11T08:46:52Z</time></trkpt><trkpt lat="45.84593610292994" lon="8.447849812712548"><ele>967.0</ele><time>2026-04-11T08:46:53Z</time></trkpt><trkpt lat="45.846064708949534" lon="8.447843850451386"><ele>967.0</ele><time>2026-04-11T08:46:54Z</time></trkpt><trkpt lat="45.846239744246496" lon="8.447785711155868"><ele>967.0</ele><time>2026-04-11T08:46:55Z</time></trkpt><trkpt lat="45.84640614875318" lon="8.44766113410442"><ele>967.0</ele><time>2026-04-11T08:46:56Z</time></trkpt><trkpt lat="45.84652413046292" lon="8.447533796729452"><ele>967.0</ele><time>2026-04-11T08:46:57Z</time></trkpt><trkpt lat="45.84661709764445" lon="8.447442659262792"><ele>967.0</ele><time>2026-04-11T08:46:58Z</time></trkpt><trkpt lat="45.84666490016784" lon="8.44736674860645"><ele>967.0</ele><time>2026-04-11T08:46:59Z</time></trkpt><trkpt lat="45.84674111361187" lon="8.447308053659953"><ele>967.0</ele><time>2026-04-11T08:47:00Z</time></trkpt><trkpt lat="45.8468673452865" lon="8.447331671721729"><ele>967.0</ele><time>2026-04-11T08:47:01Z</time></trkpt><trkpt lat="45.84696407418283" lon="8.447360075776736"><ele>967.75</ele><time>2026-04-11T08:47:02Z</time></trkpt><trkpt lat="45.84704898888187" lon="8.44734911498502"><ele>968.5</ele><time>2026-04-11T08:47:03Z</time></trkpt><trkpt lat="45.84721977357932" lon="8.447568505300183"><ele>969.25</ele><time>2026-04-11T08:47:04Z</time></trkpt><trkpt lat="45.84734227443822" lon="8.447499715347433"><ele>970.0</ele><time>2026-04-11T08:47:05Z</time></trkpt><trkpt lat="45.847432045185236" lon="8.447381517338535"><ele>970.0</ele><time>2026-04-11T08:47:06Z</time></trkpt><trkpt lat="45.84740409220051" lon="8.447189717842042"><ele>970.0</ele><time>2026-04-11T08:47:08Z</time></trkpt><trkpt lat="45.84752364178648" lon="8.447060059061485"><ele>970.0</ele><time>2026-04-11T08:47:09Z</time></trkpt><trkpt lat="45.84763426972128" lon="8.447149578676306"><ele>970.0</ele><time>2026-04-11T08:47:10Z</time></trkpt><trkpt lat="45.847688663849" lon="8.447310413582217"><ele>974.2</ele><time>2026-04-11T08:47:11Z</time></trkpt><trkpt lat="45.847720537214975" lon="8.447428513391573"><ele>978.4</ele><time>2026-04-11T08:47:12Z</time></trkpt><trkpt lat="45.84777217101756" lon="8.447543330210522"><ele>982.5999999999999</ele><time>2026-04-11T08:47:13Z</time></trkpt><trkpt lat="45.8478548593202" lon="8.447651610133212"><ele>986.8</ele><time>2026-04-11T08:47:14Z</time></trkpt><trkpt lat="45.847956363080456" lon="8.447749962484739"><ele>991.0</ele><time>2026-04-11T08:47:15Z</time></trkpt><trkpt lat="45.848074897866695" lon="8.447778682541207"><ele>990.9999999999999</ele><time>2026-04-11T08:47:16Z</time></trkpt><trkpt lat="45.848181150914876" lon="8.447768936914581"><ele>991.0</ele><time>2026-04-11T08:47:17Z</time></trkpt><trkpt lat="45.84824801953515" lon="8.447759236093187"><ele>991.0</ele><time>2026-04-11T08:47:18Z</time></trkpt><trkpt lat="45.84835275121627" lon="8.447849481544306"><ele>991.0</ele><time>2026-04-11T08:47:20Z</time></trkpt><trkpt lat="45.848366988265" lon="8.447944816135571"><ele>990.9999999999999</ele><time>2026-04-11T08:47:21Z</time></trkpt><trkpt lat="45.848355822301755" lon="8.448056823299488"><ele>991.0</ele><time>2026-04-11T08:47:22Z</time></trkpt><trkpt lat="45.84834299966949" lon="8.448184066802408"><ele>987.5</ele><time>2026-04-11T08:47:23Z</time></trkpt><trkpt lat="45.84834740799982" lon="8.448324927577398"><ele>984.0</ele><time>2026-04-11T08:47:24Z</time></trkpt><trkpt lat="45.848367311719585" lon="8.448487026366356"><ele>980.5</ele><time>2026-04-11T08:47:25Z</time></trkpt><trkpt lat="45.84833014559822" lon="8.448647357522331"><ele>977.0</ele><time>2026-04-11T08:47:26Z</time></trkpt><trkpt lat="45.848286453439485" lon="8.44880880046872"><ele>977.0</ele><time>2026-04-11T08:47:27Z</time></trkpt><trkpt lat="45.848247657608425" lon="8.448954916448699"><ele>977.0</ele><time>2026-04-11T08:47:28Z</time></trkpt><trkpt lat="45.84822147488216" lon="8.449104067314886"><ele>977.0</ele><time>2026-04-11T08:47:29Z</time></trkpt><trkpt lat="45.84822041032729" lon="8.44923575536497"><ele>977.0</ele><time>2026-04-11T08:47:30Z</time></trkpt><trkpt lat="45.84825830042329" lon="8.449347531241404"><ele>977.0</ele><time>2026-04-11T08:47:31Z</time></trkpt><trkpt lat="45.84830806406283" lon="8.449455933884275"><ele>977.0</ele><time>2026-04-11T08:47:32Z</time></trkpt><trkpt lat="45.848380130168486" lon="8.449545850840662"><ele>977.0</ele><time>2026-04-11T08:47:33Z</time></trkpt><trkpt lat="45.848465405786136" lon="8.449613214423541"><ele>977.0</ele><time>2026-04-11T08:47:34Z</time></trkpt><trkpt lat="45.84855908149125" lon="8.449666417111354"><ele>977.0</ele><time>2026-04-11T08:47:35Z</time></trkpt><trkpt lat="45.84866237806805" lon="8.44967523201668"><ele>977.0</ele><time>2026-04-11T08:47:36Z</time></trkpt><trkpt lat="45.848759124978635" lon="8.44963152924669"><ele>979.8</ele><time>2026-04-11T08:47:37Z</time></trkpt><trkpt lat="45.848859885586116" lon="8.449588742739522"><ele>982.6</ele><time>2026-04-11T08:47:38Z</time></trkpt><trkpt lat="45.84897613290167" lon="8.44955663453899"><ele>985.3999999999999</ele><time>2026-04-11T08:47:39Z</time></trkpt><trkpt lat="45.849088392891154" lon="8.449494306518739"><ele>988.1999999999999</ele><time>2026-04-11T08:47:40Z</time></trkpt><trkpt lat="45.84918195703554" lon="8.449437799629072"><ele>991.0</ele><time>2026-04-11T08:47:41Z</time></trkpt><trkpt lat="45.84925296546056" lon="8.449386568070448"><ele>993.1999999999999</ele><time>2026-04-11T08:47:42Z</time></trkpt><trkpt lat="45.84932320994527" lon="8.44933356819964"><ele>995.3999999999999</ele><time>2026-04-11T08:47:43Z</time></trkpt><trkpt lat="45.84942189338373" lon="8.449235179669795"><ele>997.6</ele><time>2026-04-11T08:47:45Z</time></trkpt><trkpt lat="45.84945600862301" lon="8.449058866872686"><ele>999.8</ele><time>2026-04-11T08:47:46Z</time></trkpt><trkpt lat="45.849534726168244" lon="8.449095162828112"><ele>1002.0</ele><time>2026-04-11T08:47:47Z</time></trkpt><trkpt lat="45.84960893747576" lon="8.449174421615535"><ele>1002.0</ele><time>2026-04-11T08:47:48Z</time></trkpt><trkpt lat="45.84968401880579" lon="8.449289609855288"><ele>1002.0</ele><time>2026-04-11T08:47:49Z</time></trkpt><trkpt lat="45.8497369813798" lon="8.449431872408812"><ele>1002.0</ele><time>2026-04-11T08:47:50Z</time></trkpt><trkpt lat="45.84977257618833" lon="8.449562358769322"><ele>1002.0</ele><time>2026-04-11T08:47:51Z</time></trkpt><trkpt lat="45.84980966052562" lon="8.449693170844807"><ele>1002.0</ele><time>2026-04-11T08:47:52Z</time></trkpt><trkpt lat="45.84988467552385" lon="8.449809306681262"><ele>1004.75</ele><time>2026-04-11T08:47:53Z</time></trkpt><trkpt lat="45.84995707739805" lon="8.44992850092056"><ele>1007.5</ele><time>2026-04-11T08:47:54Z</time></trkpt><trkpt lat="45.85004722522849" lon="8.450030204683292"><ele>1010.25</ele><time>2026-04-11T08:47:55Z</time></trkpt><trkpt lat="45.85014406876958" lon="8.450119792387873"><ele>1013.0</ele><time>2026-04-11T08:47:56Z</time></trkpt><trkpt lat="45.85025719612677" lon="8.450184798360857"><ele>1013.0</ele><time>2026-04-11T08:47:57Z</time></trkpt><trkpt lat="45.85036995959264" lon="8.450252625001768"><ele>1013.0</ele><time>2026-04-11T08:47:58Z</time></trkpt><trkpt lat="45.85047974544913" lon="8.45032739625706"><ele>1013.0</ele><time>2026-04-11T08:47:59Z</time></trkpt><trkpt lat="45.85059222564893" lon="8.450411327227112"><ele>1013.0</ele><time>2026-04-11T08:48:00Z</time></trkpt><trkpt lat="45.850705852217274" lon="8.450493473739767"><ele>1012.75</ele><time>2026-04-11T08:48:01Z</time></trkpt><trkpt lat="45.85082030851176" lon="8.450568892621812"><ele>1012.5</ele><time>2026-04-11T08:48:02Z</time></trkpt><trkpt lat="45.85092770465251" lon="8.450632493576009"><ele>1012.25</ele><time>2026-04-11T08:48:03Z</time></trkpt><trkpt lat="45.85103767477295" lon="8.450690139593869"><ele>1012.0</ele><time>2026-04-11T08:48:04Z</time></trkpt><trkpt lat="45.85115352080327" lon="8.45067705000134"><ele>1011.9999999999999</ele><time>2026-04-11T08:48:05Z</time></trkpt><trkpt lat="45.851252120858426" lon="8.450644570054473"><ele>1012.0</ele><time>2026-04-11T08:48:06Z</time></trkpt><trkpt lat="45.85134125049371" lon="8.450619125084861"><ele>1012.0</ele><time>2026-04-11T08:48:07Z</time></trkpt><trkpt lat="45.85141952757471" lon="8.450611750361404"><ele>1012.0</ele><time>2026-04-11T08:48:08Z</time></trkpt><trkpt lat="45.85149030450978" lon="8.450639304657898"><ele>1011.9999999999999</ele><time>2026-04-11T08:48:09Z</time></trkpt><trkpt lat="45.85155482735198" lon="8.450706998185067"><ele>1012.0</ele><time>2026-04-11T08:48:10Z</time></trkpt><trkpt lat="45.85161863768408" lon="8.450795282890745"><ele>1012.0</ele><time>2026-04-11T08:48:11Z</time></trkpt><trkpt lat="45.85163985443002" lon="8.450924588291077"><ele>1012.0</ele><time>2026-04-11T08:48:12Z</time></trkpt><trkpt lat="45.85164198316048" lon="8.451068026296678"><ele>1012.0</ele><time>2026-04-11T08:48:13Z</time></trkpt><trkpt lat="45.85163307875226" lon="8.451217284075518"><ele>1012.0</ele><time>2026-04-11T08:48:14Z</time></trkpt><trkpt lat="45.85164002550772" lon="8.451376957322273"><ele>1012.0</ele><time>2026-04-11T08:48:15Z</time></trkpt><trkpt lat="45.85165527071743" lon="8.451538741763445"><ele>1010.8</ele><time>2026-04-11T08:48:16Z</time></trkpt><trkpt lat="45.851664217947636" lon="8.451702583059182"><ele>1009.6</ele><time>2026-04-11T08:48:17Z</time></trkpt><trkpt lat="45.851672977513594" lon="8.451853641915411"><ele>1008.3999999999999</ele><time>2026-04-11T08:48:18Z</time></trkpt><trkpt lat="45.85169649809412" lon="8.45197929747143"><ele>1007.1999999999999</ele><time>2026-04-11T08:48:19Z</time></trkpt><trkpt lat="45.85175956191998" lon="8.452077673903661"><ele>1006.0</ele><time>2026-04-11T08:48:20Z</time></trkpt><trkpt lat="45.85183726911386" lon="8.452172246249983"><ele>1010.1999999999999</ele><time>2026-04-11T08:48:21Z</time></trkpt><trkpt lat="45.851915089307994" lon="8.452262193542532"><ele>1014.3999999999999</ele><time>2026-04-11T08:48:22Z</time></trkpt><trkpt lat="45.85195243078618" lon="8.452395419430808"><ele>1018.6</ele><time>2026-04-11T08:48:23Z</time></trkpt><trkpt lat="45.85198549338868" lon="8.452538643577531"><ele>1022.8</ele><time>2026-04-11T08:48:24Z</time></trkpt><trkpt lat="45.85203206643549" lon="8.452673903447046"><ele>1027.0</ele><time>2026-04-11T08:48:25Z</time></trkpt><trkpt lat="45.85209557724436" lon="8.452796675868967"><ele>1027.0</ele><time>2026-04-11T08:48:26Z</time></trkpt><trkpt lat="45.85218420269703" lon="8.452868933842668"><ele>1027.0</ele><time>2026-04-11T08:48:27Z</time></trkpt><trkpt lat="45.85228460186908" lon="8.452902622394182"><ele>1027.0</ele><time>2026-04-11T08:48:28Z</time></trkpt><trkpt lat="45.85239724722608" lon="8.452935297859003"><ele>1027.0</ele><time>2026-04-11T08:48:29Z</time></trkpt><trkpt lat="45.8525173048049" lon="8.45296231058299"><ele>1027.0</ele><time>2026-04-11T08:48:30Z</time></trkpt><trkpt lat="45.85264382392742" lon="8.452965416621092"><ele>1030.5</ele><time>2026-04-11T08:48:31Z</time></trkpt><trkpt lat="45.85276919080244" lon="8.452938728761863"><ele>1034.0</ele><time>2026-04-11T08:48:32Z</time></trkpt><trkpt lat="45.852891371653556" lon="8.452919943389755"><ele>1037.5</ele><time>2026-04-11T08:48:33Z</time></trkpt><trkpt lat="45.85300276233582" lon="8.452877983139622"><ele>1041.0</ele><time>2026-04-11T08:48:34Z</time></trkpt><trkpt lat="45.85311409587735" lon="8.452834174320149"><ele>1041.0</ele><time>2026-04-11T08:48:35Z</time></trkpt><trkpt lat="45.85322853764592" lon="8.452831059672638"><ele>1041.0</ele><time>2026-04-11T08:48:36Z</time></trkpt><trkpt lat="45.85334300616377" lon="8.452880128104873"><ele>1041.0</ele><time>2026-04-11T08:48:37Z</time></trkpt><trkpt lat="45.853441607667826" lon="8.452990855384586"><ele>1041.0</ele><time>2026-04-11T08:48:38Z</time></trkpt><trkpt lat="45.85352683401174" lon="8.453122761848359"><ele>1044.0</ele><time>2026-04-11T08:48:39Z</time></trkpt><trkpt lat="45.853570617407755" lon="8.453279690081844"><ele>1047.0</ele><time>2026-04-11T08:48:40Z</time></trkpt><trkpt lat="45.85361957230717" lon="8.453442878281855"><ele>1050.0</ele><time>2026-04-11T08:48:41Z</time></trkpt><trkpt lat="45.85367760838815" lon="8.453599527746201"><ele>1053.0</ele><time>2026-04-11T08:48:42Z</time></trkpt><trkpt lat="45.85373742550617" lon="8.453764393017734"><ele>1050.25</ele><time>2026-04-11T08:48:43Z</time></trkpt><trkpt lat="45.853810956885546" lon="8.453915105330118"><ele>1047.5</ele><time>2026-04-11T08:48:44Z</time></trkpt><trkpt lat="45.853899042727626" lon="8.45405351335253"><ele>1044.75</ele><time>2026-04-11T08:48:45Z</time></trkpt><trkpt lat="45.853993117276616" lon="8.45418772555344"><ele>1042.0</ele><time>2026-04-11T08:48:46Z</time></trkpt><trkpt lat="45.8541037488906" lon="8.454291910926935"><ele>1042.0</ele><time>2026-04-11T08:48:47Z</time></trkpt><trkpt lat="45.854216304113116" lon="8.454402221184319"><ele>1042.0</ele><time>2026-04-11T08:48:48Z</time></trkpt><trkpt lat="45.85434399695781" lon="8.454480903772128"><ele>1042.0</ele><time>2026-04-11T08:48:49Z</time></trkpt><trkpt lat="45.854480032141524" lon="8.454551417040358"><ele>1042.0</ele><time>2026-04-11T08:48:50Z</time></trkpt><trkpt lat="45.854622578944756" lon="8.454603646755432"><ele>1042.25</ele><time>2026-04-11T08:48:51Z</time></trkpt><trkpt lat="45.8547666635411" lon="8.454645650889251"><ele>1042.5</ele><time>2026-04-11T08:48:52Z</time></trkpt><trkpt lat="45.85490332642209" lon="8.454711077439867"><ele>1042.75</ele><time>2026-04-11T08:48:53Z</time></trkpt><trkpt lat="45.85504716085824" lon="8.45477835671711"><ele>1043.0</ele><time>2026-04-11T08:48:54Z</time></trkpt><trkpt lat="45.85519518343504" lon="8.454827400428849"><ele>1043.0</ele><time>2026-04-11T08:48:55Z</time></trkpt><trkpt lat="45.85534340402983" lon="8.454864092724671"><ele>1043.0</ele><time>2026-04-11T08:48:56Z</time></trkpt><trkpt lat="45.855498835491325" lon="8.454897154639896"><ele>1043.0</ele><time>2026-04-11T08:48:57Z</time></trkpt><trkpt lat="45.855659748157194" lon="8.454929748480264"><ele>1043.0</ele><time>2026-04-11T08:48:58Z</time></trkpt><trkpt lat="45.85582331065449" lon="8.454969960936465"><ele>1043.0</ele><time>2026-04-11T08:48:59Z</time></trkpt><trkpt lat="45.855988083781085" lon="8.455058782229116"><ele>1043.0</ele><time>2026-04-11T08:49:00Z</time></trkpt><trkpt lat="45.856166771112" lon="8.455164916559628"><ele>1044.0</ele><time>2026-04-11T08:49:01Z</time></trkpt><trkpt lat="45.856347915612226" lon="8.455267099125294"><ele>1045.0</ele><time>2026-04-11T08:49:02Z</time></trkpt><trkpt lat="45.856523533363884" lon="8.45535004431137"><ele>1046.0</ele><time>2026-04-11T08:49:03Z</time></trkpt><trkpt lat="45.8566672380919" lon="8.455441225261753"><ele>1045.0</ele><time>2026-04-11T08:49:04Z</time></trkpt><trkpt lat="45.85682604110441" lon="8.45557386587741"><ele>1044.0</ele><time>2026-04-11T08:49:05Z</time></trkpt><trkpt lat="45.85696923247095" lon="8.455696770166023"><ele>1043.0</ele><time>2026-04-11T08:49:06Z</time></trkpt><trkpt lat="45.85710292207962" lon="8.45581277486275"><ele>1043.0</ele><time>2026-04-11T08:49:07Z</time></trkpt><trkpt lat="45.85724549287635" lon="8.45592447313204"><ele>1043.0</ele><time>2026-04-11T08:49:08Z</time></trkpt><trkpt lat="45.85737925933839" lon="8.456036700894186"><ele>1043.0</ele><time>2026-04-11T08:49:09Z</time></trkpt><trkpt lat="45.857519552486515" lon="8.456186833168305"><ele>1047.3333333333335</ele><time>2026-04-11T08:49:10Z</time></trkpt><trkpt lat="45.8576268706507" lon="8.45633315436131"><ele>1051.6666666666667</ele><time>2026-04-11T08:49:11Z</time></trkpt><trkpt lat="45.85771829616367" lon="8.456509716595525"><ele>1056.0</ele><time>2026-04-11T08:49:12Z</time></trkpt><trkpt lat="45.85773735447991" lon="8.456721186845318"><ele>1056.0</ele><time>2026-04-11T08:49:13Z</time></trkpt><trkpt lat="45.857717169085" lon="8.456940567489525"><ele>1056.0</ele><time>2026-04-11T08:49:14Z</time></trkpt><trkpt lat="45.85772102495753" lon="8.457130598108535"><ele>1056.0</ele><time>2026-04-11T08:49:15Z</time></trkpt><trkpt lat="45.857815452999056" lon="8.457270564222613"><ele>1056.0</ele><time>2026-04-11T08:49:16Z</time></trkpt><trkpt lat="45.857932095802845" lon="8.457379569959496"><ele>1055.3333333333333</ele><time>2026-04-11T08:49:17Z</time></trkpt><trkpt lat="45.85804068468871" lon="8.457518303447793"><ele>1054.6666666666665</ele><time>2026-04-11T08:49:18Z</time></trkpt><trkpt lat="45.858170883411674" lon="8.457640590690161"><ele>1054.0</ele><time>2026-04-11T08:49:19Z</time></trkpt><trkpt lat="45.858296644105906" lon="8.457766424307549"><ele>1054.0</ele><time>2026-04-11T08:49:20Z</time></trkpt><trkpt lat="45.85842139348181" lon="8.457904636333755"><ele>1054.0</ele><time>2026-04-11T08:49:21Z</time></trkpt><trkpt lat="45.858556233170674" lon="8.458059142676198"><ele>1054.0</ele><time>2026-04-11T08:49:22Z</time></trkpt><trkpt lat="45.85869704750415" lon="8.458192466017312"><ele>1057.25</ele><time>2026-04-11T08:49:23Z</time></trkpt><trkpt lat="45.85880540683042" lon="8.458300052883482"><ele>1060.5</ele><time>2026-04-11T08:49:24Z</time></trkpt><trkpt lat="45.85890234298492" lon="8.458394314083414"><ele>1063.75</ele><time>2026-04-11T08:49:25Z</time></trkpt><trkpt lat="45.858984996193264" lon="8.458506663221074"><ele>1067.0</ele><time>2026-04-11T08:49:26Z</time></trkpt><trkpt lat="45.85898931278814" lon="8.45869568677152"><ele>1068.3333333333335</ele><time>2026-04-11T08:49:27Z</time></trkpt><trkpt lat="45.85891926460623" lon="8.458901404462823"><ele>1069.6666666666667</ele><time>2026-04-11T08:49:28Z</time></trkpt><trkpt lat="45.858847430521195" lon="8.459115100218598"><ele>1071.0</ele><time>2026-04-11T08:49:29Z</time></trkpt><trkpt lat="45.85877373003687" lon="8.459290117220954"><ele>1071.0</ele><time>2026-04-11T08:49:30Z</time></trkpt><trkpt lat="45.85869381962771" lon="8.459447745813414"><ele>1071.0</ele><time>2026-04-11T08:49:31Z</time></trkpt><trkpt lat="45.85862368858288" lon="8.459610800217442"><ele>1071.0</ele><time>2026-04-11T08:49:32Z</time></trkpt><trkpt lat="45.858607002822026" lon="8.459764576383119"><ele>1071.0</ele><time>2026-04-11T08:49:33Z</time></trkpt><trkpt lat="45.85863031171066" lon="8.45990457971596"><ele>1072.0</ele><time>2026-04-11T08:49:34Z</time></trkpt><trkpt lat="45.85867916811685" lon="8.46004507289164"><ele>1073.0</ele><time>2026-04-11T08:49:35Z</time></trkpt><trkpt lat="45.85876094934402" lon="8.460166940530131"><ele>1074.0</ele><time>2026-04-11T08:49:36Z</time></trkpt><trkpt lat="45.85888580407093" lon="8.460258702828336"><ele>1075.0</ele><time>2026-04-11T08:49:37Z</time></trkpt><trkpt lat="45.85902850757513" lon="8.460317526485326"><ele>1075.0</ele><time>2026-04-11T08:49:38Z</time></trkpt><trkpt lat="45.85918631635324" lon="8.460362759515371"><ele>1075.0</ele><time>2026-04-11T08:49:39Z</time></trkpt><trkpt lat="45.85933560389105" lon="8.460431308063372"><ele>1075.0</ele><time>2026-04-11T08:49:40Z</time></trkpt><trkpt lat="45.85948049807625" lon="8.460494158478895"><ele>1076.0</ele><time>2026-04-11T08:49:41Z</time></trkpt><trkpt lat="45.85964111455241" lon="8.460526034081097"><ele>1077.0</ele><time>2026-04-11T08:49:42Z</time></trkpt><trkpt lat="45.85980273268427" lon="8.460541445715762"><ele>1078.0</ele><time>2026-04-11T08:49:43Z</time></trkpt><trkpt lat="45.8599662188963" lon="8.460569028649187"><ele>1078.0</ele><time>2026-04-11T08:49:44Z</time></trkpt><trkpt lat="45.86008478018005" lon="8.46063765934406"><ele>1078.0</ele><time>2026-04-11T08:49:45Z</time></trkpt><trkpt lat="45.86017377032627" lon="8.460759647555822"><ele>1078.0</ele><time>2026-04-11T08:49:46Z</time></trkpt><trkpt lat="45.860259883968226" lon="8.460937901701625"><ele>1078.0</ele><time>2026-04-11T08:49:47Z</time></trkpt><trkpt lat="45.86036064820555" lon="8.461106838380843"><ele>1081.5</ele><time>2026-04-11T08:49:48Z</time></trkpt><trkpt lat="45.8604910287816" lon="8.461180514563189"><ele>1085.0</ele><time>2026-04-11T08:49:49Z</time></trkpt><trkpt lat="45.86058788946759" lon="8.461276446992061"><ele>1088.5</ele><time>2026-04-11T08:49:50Z</time></trkpt><trkpt lat="45.860634479083714" lon="8.461437828314818"><ele>1092.0</ele><time>2026-04-11T08:49:51Z</time></trkpt><trkpt lat="45.86065155321426" lon="8.461650469779514"><ele>1092.0</ele><time>2026-04-11T08:49:52Z</time></trkpt><trkpt lat="45.8606666316074" lon="8.461869623665631"><ele>1092.0</ele><time>2026-04-11T08:49:53Z</time></trkpt><trkpt lat="45.8606742279176" lon="8.462120781951937"><ele>1092.0</ele><time>2026-04-11T08:49:54Z</time></trkpt><trkpt lat="45.8607202975447" lon="8.462333297503514"><ele>1084.0</ele><time>2026-04-11T08:49:55Z</time></trkpt><trkpt lat="45.86072214130663" lon="8.462985281110598"><ele>1084.0</ele><time>2026-04-11T08:49:58Z</time></trkpt><trkpt lat="45.860758606296855" lon="8.463158601259865"><ele>1084.0</ele><time>2026-04-11T08:49:59Z</time></trkpt><trkpt lat="45.86082229750019" lon="8.463285691215363"><ele>1084.0</ele><time>2026-04-11T08:50:00Z</time></trkpt><trkpt lat="45.86090441335259" lon="8.46341779894421"><ele>1084.0</ele><time>2026-04-11T08:50:01Z</time></trkpt><trkpt lat="45.8609602411819" lon="8.463560211267913"><ele>1090.0</ele><time>2026-04-11T08:50:02Z</time></trkpt><trkpt lat="45.86098390828444" lon="8.463716863648468"><ele>1096.0</ele><time>2026-04-11T08:50:03Z</time></trkpt><trkpt lat="45.8610009184682" lon="8.463901069688427"><ele>1102.0</ele><time>2026-04-11T08:50:04Z</time></trkpt><trkpt lat="45.86099646409734" lon="8.464091699345488"><ele>1108.0</ele><time>2026-04-11T08:50:05Z</time></trkpt><trkpt lat="45.86104740623243" lon="8.464264081545323"><ele>1108.0</ele><time>2026-04-11T08:50:06Z</time></trkpt><trkpt lat="45.86111987499444" lon="8.46441027300032"><ele>1108.0</ele><time>2026-04-11T08:50:07Z</time></trkpt><trkpt lat="45.86121835282773" lon="8.464499333655771"><ele>1108.0</ele><time>2026-04-11T08:50:08Z</time></trkpt><trkpt lat="45.86133077596754" lon="8.464607890594964"><ele>1108.0</ele><time>2026-04-11T08:50:09Z</time></trkpt><trkpt lat="45.86144211095678" lon="8.464731780927846"><ele>1104.75</ele><time>2026-04-11T08:50:10Z</time></trkpt><trkpt lat="45.86152932640505" lon="8.46488054322087"><ele>1101.5</ele><time>2026-04-11T08:50:11Z</time></trkpt><trkpt lat="45.86157871403328" lon="8.465017165521306"><ele>1098.25</ele><time>2026-04-11T08:50:12Z</time></trkpt><trkpt lat="45.86164771293989" lon="8.465140241561565"><ele>1095.0</ele><time>2026-04-11T08:50:13Z</time></trkpt><trkpt lat="45.86172703595728" lon="8.465228394059574"><ele>1095.8</ele><time>2026-04-11T08:50:14Z</time></trkpt><trkpt lat="45.86182373062578" lon="8.465303476574684"><ele>1096.6</ele><time>2026-04-11T08:50:15Z</time></trkpt><trkpt lat="45.861937565098515" lon="8.465364082600354"><ele>1097.4</ele><time>2026-04-11T08:50:16Z</time></trkpt><trkpt lat="45.862030977724714" lon="8.465388665971233"><ele>1098.2</ele><time>2026-04-11T08:50:17Z</time></trkpt><trkpt lat="45.8621146993446" lon="8.465371614221056"><ele>1099.0</ele><time>2026-04-11T08:50:18Z</time></trkpt><trkpt lat="45.86217024956367" lon="8.46528927835866"><ele>1099.0</ele><time>2026-04-11T08:50:19Z</time></trkpt><trkpt lat="45.86220887808913" lon="8.465205545736136"><ele>1099.0</ele><time>2026-04-11T08:50:20Z</time></trkpt><trkpt lat="45.862205610202714" lon="8.465110720002263"><ele>1099.0</ele><time>2026-04-11T08:50:21Z</time></trkpt><trkpt lat="45.86209496272733" lon="8.464974597624146"><ele>1099.0</ele><time>2026-04-11T08:50:23Z</time></trkpt><trkpt lat="45.861984202821624" lon="8.464976981237177"><ele>1099.0</ele><time>2026-04-11T08:50:24Z</time></trkpt><trkpt lat="45.861874299465185" lon="8.464937601768376"><ele>1099.0</ele><time>2026-04-11T08:50:25Z</time></trkpt><trkpt lat="45.861791049578244" lon="8.464850173548417"><ele>1099.0</ele><time>2026-04-11T08:50:26Z</time></trkpt><trkpt lat="45.86171445146773" lon="8.464728976986722"><ele>1099.0</ele><time>2026-04-11T08:50:27Z</time></trkpt><trkpt lat="45.86165794597745" lon="8.464584996223628"><ele>1099.0</ele><time>2026-04-11T08:50:28Z</time></trkpt><trkpt lat="45.861605628645414" lon="8.464426655927575"><ele>1101.25</ele><time>2026-04-11T08:50:29Z</time></trkpt><trkpt lat="45.861592009056686" lon="8.464246896859182"><ele>1103.5</ele><time>2026-04-11T08:50:30Z</time></trkpt><trkpt lat="45.861581972406775" lon="8.46409525921128"><ele>1105.75</ele><time>2026-04-11T08:50:31Z</time></trkpt><trkpt lat="45.86163643579122" lon="8.463979266398082"><ele>1108.0</ele><time>2026-04-11T08:50:32Z</time></trkpt><trkpt lat="45.86169805860659" lon="8.463827129186493"><ele>1110.75</ele><time>2026-04-11T08:50:33Z</time></trkpt><trkpt lat="45.861750176003966" lon="8.46366881611803"><ele>1113.5</ele><time>2026-04-11T08:50:34Z</time></trkpt><trkpt lat="45.86174180826993" lon="8.463520069872283"><ele>1116.25</ele><time>2026-04-11T08:50:35Z</time></trkpt><trkpt lat="45.861706030307204" lon="8.46336218526932"><ele>1119.0</ele><time>2026-04-11T08:50:36Z</time></trkpt><trkpt lat="45.86163414014702" lon="8.4632215618368"><ele>1410.0</ele><time>2026-04-11T08:50:37Z</time></trkpt><trkpt lat="45.883499248442384" lon="8.45283016391528"><ele>1412.8</ele><time>2026-04-11T08:56:35Z</time></trkpt><trkpt lat="45.883408710333626" lon="8.452762607642516"><ele>1415.6</ele><time>2026-04-11T08:56:36Z</time></trkpt><trkpt lat="45.883322880901495" lon="8.452698796204386"><ele>1418.4</ele><time>2026-04-11T08:56:37Z</time></trkpt><trkpt lat="45.88323946358937" lon="8.452632467292021"><ele>1421.2</ele><time>2026-04-11T08:56:38Z</time></trkpt><trkpt lat="45.88315716569385" lon="8.452562745526057"><ele>1424.0</ele><time>2026-04-11T08:56:39Z</time></trkpt><trkpt lat="45.883079896088894" lon="8.45248528614188"><ele>1424.0</ele><time>2026-04-11T08:56:40Z</time></trkpt><trkpt lat="45.882999586675545" lon="8.452408158219685"><ele>1424.0</ele><time>2026-04-11T08:56:41Z</time></trkpt><trkpt lat="45.882939318527114" lon="8.45231033154158"><ele>1424.0</ele><time>2026-04-11T08:56:42Z</time></trkpt><trkpt lat="45.882881640300354" lon="8.452214850281358"><ele>1424.0</ele><time>2026-04-11T08:56:43Z</time></trkpt><trkpt lat="45.882836214103335" lon="8.452106981044265"><ele>1424.0</ele><time>2026-04-11T08:56:44Z</time></trkpt><trkpt lat="45.882717648795726" lon="8.451912202596354"><ele>1426.0</ele><time>2026-04-11T08:56:46Z</time></trkpt><trkpt lat="45.88264458321198" lon="8.451823361712377"><ele>1428.0</ele><time>2026-04-11T08:56:47Z</time></trkpt><trkpt lat="45.88259381118739" lon="8.451708788892773"><ele>1430.0</ele><time>2026-04-11T08:56:48Z</time></trkpt><trkpt lat="45.8825292359495" lon="8.451605682958197"><ele>1432.0</ele><time>2026-04-11T08:56:49Z</time></trkpt><trkpt lat="45.88246397233227" lon="8.451504998264141"><ele>1434.0</ele><time>2026-04-11T08:56:50Z</time></trkpt><trkpt lat="45.8823940614814" lon="8.451404752697648"><ele>1434.0</ele><time>2026-04-11T08:56:51Z</time></trkpt><trkpt lat="45.88232079863775" lon="8.451308229931623"><ele>1434.0</ele><time>2026-04-11T08:56:52Z</time></trkpt><trkpt lat="45.88223477778244" lon="8.451253220538307"><ele>1434.0</ele><time>2026-04-11T08:56:53Z</time></trkpt><trkpt lat="45.88214995994264" lon="8.451202770913534"><ele>1434.0</ele><time>2026-04-11T08:56:54Z</time></trkpt><trkpt lat="45.88206575908625" lon="8.45115101613354"><ele>1434.0</ele><time>2026-04-11T08:56:55Z</time></trkpt><trkpt lat="45.88197578757053" lon="8.451128594224285"><ele>1432.3333333333333</ele><time>2026-04-11T08:56:56Z</time></trkpt><trkpt lat="45.881883359481805" lon="8.451125430736239"><ele>1430.6666666666667</ele><time>2026-04-11T08:56:57Z</time></trkpt><trkpt lat="45.881794331984906" lon="8.451132226214657"><ele>1429.0</ele><time>2026-04-11T08:56:58Z</time></trkpt><trkpt lat="45.881708424873246" lon="8.451146433228569"><ele>1427.3333333333335</ele><time>2026-04-11T08:56:59Z</time></trkpt><trkpt lat="45.881623093628406" lon="8.451160539830395"><ele>1425.6666666666667</ele><time>2026-04-11T08:57:00Z</time></trkpt><trkpt lat="45.88153805903129" lon="8.451185448046864"><ele>1424.0</ele><time>2026-04-11T08:57:01Z</time></trkpt><trkpt lat="45.88145007792583" lon="8.451183522976756"><ele>1424.0</ele><time>2026-04-11T08:57:02Z</time></trkpt><trkpt lat="45.88136561587464" lon="8.45120284413729"><ele>1424.0</ele><time>2026-04-11T08:57:03Z</time></trkpt><trkpt lat="45.88128263736811" lon="8.451223987723841"><ele>1424.0</ele><time>2026-04-11T08:57:04Z</time></trkpt><trkpt lat="45.88119941491886" lon="8.451235990280964"><ele>1424.0</ele><time>2026-04-11T08:57:05Z</time></trkpt><trkpt lat="45.88104387576489" lon="8.451260492025197"><ele>1424.0</ele><time>2026-04-11T08:57:07Z</time></trkpt><trkpt lat="45.8809704233343" lon="8.451259978961515"><ele>1424.6666666666667</ele><time>2026-04-11T08:57:08Z</time></trkpt><trkpt lat="45.88090019639667" lon="8.451257873089713"><ele>1425.3333333333335</ele><time>2026-04-11T08:57:09Z</time></trkpt><trkpt lat="45.88083079569918" lon="8.45125422644113"><ele>1426.0</ele><time>2026-04-11T08:57:10Z</time></trkpt><trkpt lat="45.88076850199705" lon="8.45121579429681"><ele>1426.6666666666667</ele><time>2026-04-11T08:57:11Z</time></trkpt><trkpt lat="45.88070541259984" lon="8.451195474553826"><ele>1427.3333333333333</ele><time>2026-04-11T08:57:12Z</time></trkpt><trkpt lat="45.880640503655925" lon="8.451195763165286"><ele>1428.0</ele><time>2026-04-11T08:57:13Z</time></trkpt><trkpt lat="45.88053193519489" lon="8.451143596551116"><ele>1428.0</ele><time>2026-04-11T08:57:15Z</time></trkpt><trkpt lat="45.880434883046306" lon="8.451097357220737"><ele>1428.0</ele><time>2026-04-11T08:57:17Z</time></trkpt><trkpt lat="45.88036595855109" lon="8.4510234043444"><ele>1428.0</ele><time>2026-04-11T08:57:19Z</time></trkpt><trkpt lat="45.88030293869142" lon="8.450974334135648"><ele>1428.0</ele><time>2026-04-11T08:57:22Z</time></trkpt><trkpt lat="45.88027899623898" lon="8.45088854718317"><ele>1428.0</ele><time>2026-04-11T08:57:27Z</time></trkpt><trkpt lat="45.88019363871804" lon="8.450743006348066"><ele>1428.0</ele><time>2026-04-11T08:57:48Z</time></trkpt><trkpt lat="45.880163295216484" lon="8.450524246258345"><ele>1428.0</ele><time>2026-04-11T08:57:56Z</time></trkpt><trkpt lat="45.87994576789971" lon="8.450736395844965"><ele>1428.0</ele><time>2026-04-11T08:58:00Z</time></trkpt><trkpt lat="45.879975081686844" lon="8.450829249773793"><ele>1436.0</ele><time>2026-04-11T08:58:05Z</time></trkpt><trkpt lat="45.88009850319025" lon="8.45072794636303"><ele>1436.0</ele><time>2026-04-11T08:58:07.999Z</time></trkpt><trkpt lat="45.88004614383613" lon="8.450786678462773"><ele>1436.0</ele><time>2026-04-11T09:00:17Z</time></trkpt><trkpt lat="45.880049954647546" lon="8.450945022725005"><ele>1436.0</ele><time>2026-04-11T09:00:37Z</time></trkpt></trkseg><trkseg><trkpt lat="45.880140849003574" lon="8.450695596757717"><ele>1428.0</ele><time>2026-04-11T09:44:48.999Z</time></trkpt><trkpt lat="45.88011202752533" lon="8.45077836823984"><ele>1428.0</ele><time>2026-04-11T09:45:05Z</time></trkpt><trkpt lat="45.88010207629001" lon="8.450669314303843"><ele>1428.0</ele><time>2026-04-11T09:45:25Z</time></trkpt><trkpt lat="45.88004027076568" lon="8.450591844212605"><ele>1428.0</ele><time>2026-04-11T09:45:27Z</time></trkpt><trkpt lat="45.87997280162544" lon="8.450482265058659"><ele>1428.0</ele><time>2026-04-11T09:45:30Z</time></trkpt><trkpt lat="45.879907676775254" lon="8.45043649190564"><ele>1428.0</ele><time>2026-04-11T09:45:32Z</time></trkpt><trkpt lat="45.879823542306745" lon="8.45038073381318"><ele>1428.857142857143</ele><time>2026-04-11T09:45:35Z</time></trkpt><trkpt lat="45.87975569323796" lon="8.450384951485411"><ele>1429.7142857142858</ele><time>2026-04-11T09:45:37Z</time></trkpt><trkpt lat="45.879691651389955" lon="8.450439353814915"><ele>1430.5714285714284</ele><time>2026-04-11T09:45:39Z</time></trkpt><trkpt lat="45.879649107575645" lon="8.45051621036461"><ele>1431.4285714285716</ele><time>2026-04-11T09:45:41Z</time></trkpt><trkpt lat="45.87962875244564" lon="8.45060589571791"><ele>1432.2857142857142</ele><time>2026-04-11T09:45:43Z</time></trkpt><trkpt lat="45.87963265286286" lon="8.450716012737903"><ele>1433.142857142857</ele><time>2026-04-11T09:45:45Z</time></trkpt><trkpt lat="45.879644004767776" lon="8.450827693364733"><ele>1434.0</ele><time>2026-04-11T09:45:48Z</time></trkpt><trkpt lat="45.879670624329854" lon="8.450911026088018"><ele>1434.5</ele><time>2026-04-11T09:45:52Z</time></trkpt><trkpt lat="45.879733169830814" lon="8.451007824883261"><ele>1435.0</ele><time>2026-04-11T09:46:37Z</time></trkpt><trkpt lat="45.879771937355564" lon="8.451168773880447"><ele>1435.5</ele><time>2026-04-11T09:46:39Z</time></trkpt><trkpt lat="45.87974617101003" lon="8.451349409231844"><ele>1436.0</ele><time>2026-04-11T09:46:41Z</time></trkpt><trkpt lat="45.87970809300147" lon="8.451540986709535"><ele>1436.1999999999998</ele><time>2026-04-11T09:46:43Z</time></trkpt><trkpt lat="45.879675827089265" lon="8.451653866857788"><ele>1436.3999999999999</ele><time>2026-04-11T09:46:44Z</time></trkpt><trkpt lat="45.87964369151068" lon="8.451767795626122"><ele>1436.6</ele><time>2026-04-11T09:46:45Z</time></trkpt><trkpt lat="45.87961274051699" lon="8.451885481055035"><ele>1436.8</ele><time>2026-04-11T09:46:46Z</time></trkpt><trkpt lat="45.87958181694262" lon="8.452016332434491"><ele>1437.0</ele><time>2026-04-11T09:46:47Z</time></trkpt><trkpt lat="45.87955836865507" lon="8.452181436847198"><ele>1437.5</ele><time>2026-04-11T09:46:48Z</time></trkpt><trkpt lat="45.87956477180087" lon="8.452348359132186"><ele>1438.0</ele><time>2026-04-11T09:46:49Z</time></trkpt><trkpt lat="45.87958775734843" lon="8.452487159346529"><ele>1438.5</ele><time>2026-04-11T09:46:50Z</time></trkpt><trkpt lat="45.879604914966286" lon="8.45258932523201"><ele>1439.0</ele><time>2026-04-11T09:46:51Z</time></trkpt><trkpt lat="45.879614550722025" lon="8.45268966067692"><ele>1439.5</ele><time>2026-04-11T09:46:52Z</time></trkpt><trkpt lat="45.87961523806253" lon="8.452781388110344"><ele>1440.0</ele><time>2026-04-11T09:46:53Z</time></trkpt><trkpt lat="45.87960980722425" lon="8.452878274018286"><ele>1441.0</ele><time>2026-04-11T09:46:54Z</time></trkpt><trkpt lat="45.8795890109929" lon="8.452974650923403"><ele>1442.0</ele><time>2026-04-11T09:46:55Z</time></trkpt><trkpt lat="45.87954283846368" lon="8.45307584943197"><ele>1443.0</ele><time>2026-04-11T09:46:56Z</time></trkpt><trkpt lat="45.879488343691385" lon="8.453176322096688"><ele>1444.0</ele><time>2026-04-11T09:46:57Z</time></trkpt><trkpt lat="45.87942767588556" lon="8.453278998015907"><ele>1445.0</ele><time>2026-04-11T09:46:58Z</time></trkpt><trkpt lat="45.87936751483356" lon="8.453386305818125"><ele>1446.0</ele><time>2026-04-11T09:46:59Z</time></trkpt><trkpt lat="45.87930946523381" lon="8.453494582633827"><ele>1440.0</ele><time>2026-04-11T09:47:00Z</time></trkpt><trkpt lat="45.87925595414891" lon="8.453605649727972"><ele>1434.0</ele><time>2026-04-11T09:47:01Z</time></trkpt><trkpt lat="45.87920219225622" lon="8.453729983628413"><ele>1428.0</ele><time>2026-04-11T09:47:02Z</time></trkpt><trkpt lat="45.87915427395114" lon="8.453875222904898"><ele>1422.0</ele><time>2026-04-11T09:47:03Z</time></trkpt><trkpt lat="45.879120934258744" lon="8.454028089400346"><ele>1416.0</ele><time>2026-04-11T09:47:04Z</time></trkpt><trkpt lat="45.879100120434956" lon="8.454187898541987"><ele>1416.0</ele><time>2026-04-11T09:47:05Z</time></trkpt><trkpt lat="45.8790923668287" lon="8.454343942860245"><ele>1416.0</ele><time>2026-04-11T09:47:06Z</time></trkpt><trkpt lat="45.879086191628986" lon="8.454490036907579"><ele>1416.0</ele><time>2026-04-11T09:47:07Z</time></trkpt><trkpt lat="45.87908036418402" lon="8.454634489313383"><ele>1416.0</ele><time>2026-04-11T09:47:08Z</time></trkpt><trkpt lat="45.879075244010764" lon="8.454781583746742"><ele>1416.0</ele><time>2026-04-11T09:47:09Z</time></trkpt><trkpt lat="45.87907012973195" lon="8.454928508852161"><ele>1415.5</ele><time>2026-04-11T09:47:10Z</time></trkpt><trkpt lat="45.87906506943939" lon="8.45507388300969"><ele>1415.0</ele><time>2026-04-11T09:47:11Z</time></trkpt><trkpt lat="45.879060372811786" lon="8.45520880964543"><ele>1414.5</ele><time>2026-04-11T09:47:12Z</time></trkpt><trkpt lat="45.87905520631038" lon="8.455332040625382"><ele>1414.0</ele><time>2026-04-11T09:47:13Z</time></trkpt><trkpt lat="45.87904973198531" lon="8.455450533369333"><ele>1413.5</ele><time>2026-04-11T09:47:14Z</time></trkpt><trkpt lat="45.879043126512556" lon="8.455569014617799"><ele>1413.0</ele><time>2026-04-11T09:47:15Z</time></trkpt><trkpt lat="45.87903798530485" lon="8.455684707446794"><ele>1413.0</ele><time>2026-04-11T09:47:16Z</time></trkpt><trkpt lat="45.87904552608746" lon="8.455812191926984"><ele>1413.0</ele><time>2026-04-11T09:47:17Z</time></trkpt><trkpt lat="45.879060791463786" lon="8.455934010501254"><ele>1413.0</ele><time>2026-04-11T09:47:18Z</time></trkpt><trkpt lat="45.87908508497973" lon="8.456047572909346"><ele>1413.0</ele><time>2026-04-11T09:47:19Z</time></trkpt><trkpt lat="45.87911108858527" lon="8.456158071424408"><ele>1413.0</ele><time>2026-04-11T09:47:20Z</time></trkpt><trkpt lat="45.8791374530528" lon="8.456266495332535"><ele>1413.0</ele><time>2026-04-11T09:47:21Z</time></trkpt><trkpt lat="45.87916394529741" lon="8.456373101676629"><ele>1412.0</ele><time>2026-04-11T09:47:22Z</time></trkpt><trkpt lat="45.87918783991038" lon="8.45648220820557"><ele>1411.0</ele><time>2026-04-11T09:47:23Z</time></trkpt><trkpt lat="45.87920262717947" lon="8.456596659236025"><ele>1410.0</ele><time>2026-04-11T09:47:24Z</time></trkpt><trkpt lat="45.879210670408845" lon="8.456706056843156"><ele>1409.0</ele><time>2026-04-11T09:47:25Z</time></trkpt><trkpt lat="45.87921521805467" lon="8.456800732703854"><ele>1408.0</ele><time>2026-04-11T09:47:26Z</time></trkpt><trkpt lat="45.879222680887864" lon="8.456890683478312"><ele>1407.0</ele><time>2026-04-11T09:47:27Z</time></trkpt><trkpt lat="45.879205973204535" lon="8.457011886431303"><ele>1407.0</ele><time>2026-04-11T09:47:28Z</time></trkpt><trkpt lat="45.879145946355706" lon="8.457116356435895"><ele>1407.0</ele><time>2026-04-11T09:47:29Z</time></trkpt><trkpt lat="45.8790631160275" lon="8.45718317682769"><ele>1407.0</ele><time>2026-04-11T09:47:30Z</time></trkpt><trkpt lat="45.878979691821215" lon="8.45720536931993"><ele>1407.0</ele><time>2026-04-11T09:47:31Z</time></trkpt><trkpt lat="45.87888912830978" lon="8.457220509454915"><ele>1407.0</ele><time>2026-04-11T09:47:32Z</time></trkpt><trkpt lat="45.87879628254356" lon="8.457232638977596"><ele>1404.8</ele><time>2026-04-11T09:47:33Z</time></trkpt><trkpt lat="45.87870073241134" lon="8.4572444659476"><ele>1402.6</ele><time>2026-04-11T09:47:34Z</time></trkpt><trkpt lat="45.878599667384336" lon="8.457256975537765"><ele>1400.3999999999999</ele><time>2026-04-11T09:47:35Z</time></trkpt><trkpt lat="45.87849799601589" lon="8.457269560179206"><ele>1398.1999999999998</ele><time>2026-04-11T09:47:36Z</time></trkpt><trkpt lat="45.878405700249004" lon="8.45732607621381"><ele>1396.0</ele><time>2026-04-11T09:47:37Z</time></trkpt><trkpt lat="45.878296582693615" lon="8.457316551730628"><ele>1395.8</ele><time>2026-04-11T09:47:38Z</time></trkpt><trkpt lat="45.87819229330425" lon="8.457347244772723"><ele>1395.6</ele><time>2026-04-11T09:47:39Z</time></trkpt><trkpt lat="45.8780950302938" lon="8.457403174725892"><ele>1395.4</ele><time>2026-04-11T09:47:40Z</time></trkpt><trkpt lat="45.87799602586946" lon="8.45743280921358"><ele>1395.2</ele><time>2026-04-11T09:47:41Z</time></trkpt><trkpt lat="45.877896019136955" lon="8.457433083707109"><ele>1395.0</ele><time>2026-04-11T09:47:42Z</time></trkpt><trkpt lat="45.877793284572434" lon="8.457414764890112"><ele>1395.0</ele><time>2026-04-11T09:47:43Z</time></trkpt><trkpt lat="45.87769139423737" lon="8.457396294870492"><ele>1395.0</ele><time>2026-04-11T09:47:44Z</time></trkpt><trkpt lat="45.877588370576376" lon="8.457396059888621"><ele>1395.0</ele><time>2026-04-11T09:47:45Z</time></trkpt><trkpt lat="45.877488191359845" lon="8.45734812942343"><ele>1395.0</ele><time>2026-04-11T09:47:46Z</time></trkpt><trkpt lat="45.87738455506616" lon="8.457335847100396"><ele>1395.0</ele><time>2026-04-11T09:47:47Z</time></trkpt><trkpt lat="45.87728244657233" lon="8.457333064572705"><ele>1393.8</ele><time>2026-04-11T09:47:48.001Z</time></trkpt><trkpt lat="45.87718300728695" lon="8.45733163619316"><ele>1392.6</ele><time>2026-04-11T09:47:49.001Z</time></trkpt><trkpt lat="45.877086989291655" lon="8.457330256960166"><ele>1391.4</ele><time>2026-04-11T09:47:50.001Z</time></trkpt><trkpt lat="45.87698868706146" lon="8.45735003833188"><ele>1390.2</ele><time>2026-04-11T09:47:51.001Z</time></trkpt><trkpt lat="45.876890710580845" lon="8.457338041569052"><ele>1389.0</ele><time>2026-04-11T09:47:52.001Z</time></trkpt><trkpt lat="45.876794365376576" lon="8.457352647550675"><ele>1387.6</ele><time>2026-04-11T09:47:53.001Z</time></trkpt><trkpt lat="45.87669734730709" lon="8.457364971891876"><ele>1386.2</ele><time>2026-04-11T09:47:54.001Z</time></trkpt><trkpt lat="45.87660133135839" lon="8.45741160253387"><ele>1384.8</ele><time>2026-04-11T09:47:55.001Z</time></trkpt><trkpt lat="45.87650721836805" lon="8.457466508069258"><ele>1383.3999999999999</ele><time>2026-04-11T09:47:56.001Z</time></trkpt><trkpt lat="45.87641352323671" lon="8.457536027784924"><ele>1382.0</ele><time>2026-04-11T09:47:57.001Z</time></trkpt><trkpt lat="45.8763217547029" lon="8.457611001485354"><ele>1382.0</ele><time>2026-04-11T09:47:58.001Z</time></trkpt><trkpt lat="45.876229084957856" lon="8.457685384200394"><ele>1382.0</ele><time>2026-04-11T09:47:59.001Z</time></trkpt><trkpt lat="45.87613754848072" lon="8.45775885728218"><ele>1382.0</ele><time>2026-04-11T09:48:00.001Z</time></trkpt><trkpt lat="45.87604313792009" lon="8.457834975539894"><ele>1382.0</ele><time>2026-04-11T09:48:01.001Z</time></trkpt><trkpt lat="45.87595597430562" lon="8.457930803493651"><ele>1382.0</ele><time>2026-04-11T09:48:02.001Z</time></trkpt><trkpt lat="45.875860325814706" lon="8.458006242415264"><ele>1378.1999999999998</ele><time>2026-04-11T09:48:03.001Z</time></trkpt><trkpt lat="45.875766407030035" lon="8.458082829282914"><ele>1374.4</ele><time>2026-04-11T09:48:04.001Z</time></trkpt><trkpt lat="45.875671415472766" lon="8.458152888773377"><ele>1370.6</ele><time>2026-04-11T09:48:05.001Z</time></trkpt><trkpt lat="45.87557703481423" lon="8.458216838672142"><ele>1366.8000000000002</ele><time>2026-04-11T09:48:06.001Z</time></trkpt><trkpt lat="45.87548373714043" lon="8.458276163050748"><ele>1363.0</ele><time>2026-04-11T09:48:07.001Z</time></trkpt><trkpt lat="45.875383753015235" lon="8.45832339422753"><ele>1363.0</ele><time>2026-04-11T09:48:08.001Z</time></trkpt><trkpt lat="45.87527529285429" lon="8.458353822520515"><ele>1363.0</ele><time>2026-04-11T09:48:09.001Z</time></trkpt><trkpt lat="45.8751665935959" lon="8.458375436339958"><ele>1363.0</ele><time>2026-04-11T09:48:10.001Z</time></trkpt><trkpt lat="45.87506346971835" lon="8.458412133821682"><ele>1363.0</ele><time>2026-04-11T09:48:11.001Z</time></trkpt><trkpt lat="45.87495530514184" lon="8.458420806980977"><ele>1363.0</ele><time>2026-04-11T09:48:12.001Z</time></trkpt><trkpt lat="45.87484960937267" lon="8.458416344651441"><ele>1361.0</ele><time>2026-04-11T09:48:13.001Z</time></trkpt><trkpt lat="45.8747421847401" lon="8.458398500699655"><ele>1359.0</ele><time>2026-04-11T09:48:14.001Z</time></trkpt><trkpt lat="45.874640662988064" lon="8.458378993974607"><ele>1357.0</ele><time>2026-04-11T09:48:15.001Z</time></trkpt><trkpt lat="45.874540969742135" lon="8.458359321395365"><ele>1355.0</ele><time>2026-04-11T09:48:16.001Z</time></trkpt><trkpt lat="45.87444520266004" lon="8.458340423570764"><ele>1353.0</ele><time>2026-04-11T09:48:17.001Z</time></trkpt><trkpt lat="45.87435986454197" lon="8.45832358378614"><ele>1353.0</ele><time>2026-04-11T09:48:18.001Z</time></trkpt><trkpt lat="45.874280519108744" lon="8.458285590856836"><ele>1353.0</ele><time>2026-04-11T09:48:19.001Z</time></trkpt><trkpt lat="45.87421046664931" lon="8.458277260026517"><ele>1353.0</ele><time>2026-04-11T09:48:20.001Z</time></trkpt><trkpt lat="45.87412480511887" lon="8.458283230699609"><ele>1353.0</ele><time>2026-04-11T09:48:21.001Z</time></trkpt><trkpt lat="45.87405373017498" lon="8.458188592543845"><ele>1353.0</ele><time>2026-04-11T09:48:22.001Z</time></trkpt><trkpt lat="45.8740619482946" lon="8.458062841843937"><ele>1353.0</ele><time>2026-04-11T09:48:23.001Z</time></trkpt><trkpt lat="45.87416384690768" lon="8.45800833640982"><ele>1353.0</ele><time>2026-04-11T09:48:26.001Z</time></trkpt><trkpt lat="45.87423345455165" lon="8.458008218343187"><ele>1353.0</ele><time>2026-04-11T09:48:27.001Z</time></trkpt><trkpt lat="45.87430003567272" lon="8.458014063603366"><ele>1353.0</ele><time>2026-04-11T09:48:28.001Z</time></trkpt><trkpt lat="45.87436796249281" lon="8.458014569948535"><ele>1353.0</ele><time>2026-04-11T09:48:29.001Z</time></trkpt><trkpt lat="45.874439649402355" lon="8.458019164170699"><ele>1353.0</ele><time>2026-04-11T09:48:30.001Z</time></trkpt><trkpt lat="45.874513348375544" lon="8.458022212034082"><ele>1353.0</ele><time>2026-04-11T09:48:31.001Z</time></trkpt><trkpt lat="45.874577948566184" lon="8.457995460036004"><ele>1353.0</ele><time>2026-04-11T09:48:32.001Z</time></trkpt><trkpt lat="45.87462623212194" lon="8.457923996505118"><ele>1351.1666666666667</ele><time>2026-04-11T09:48:33.001Z</time></trkpt><trkpt lat="45.87465131933593" lon="8.457828435611166"><ele>1349.3333333333333</ele><time>2026-04-11T09:48:34.001Z</time></trkpt><trkpt lat="45.874648995402026" lon="8.457726655173012"><ele>1347.5</ele><time>2026-04-11T09:48:35.001Z</time></trkpt><trkpt lat="45.87461501779409" lon="8.45762812241691"><ele>1345.6666666666665</ele><time>2026-04-11T09:48:36.001Z</time></trkpt><trkpt lat="45.87455295324525" lon="8.45755891044161"><ele>1343.8333333333333</ele><time>2026-04-11T09:48:37.001Z</time></trkpt><trkpt lat="45.87448010574447" lon="8.457505426123712"><ele>1342.0</ele><time>2026-04-11T09:48:38.001Z</time></trkpt><trkpt lat="45.874399816781455" lon="8.457459946836542"><ele>1342.0</ele><time>2026-04-11T09:48:39.001Z</time></trkpt><trkpt lat="45.874315494749005" lon="8.457424526537364"><ele>1342.0</ele><time>2026-04-11T09:48:40.001Z</time></trkpt><trkpt lat="45.874227101704456" lon="8.457408823059668"><ele>1342.0</ele><time>2026-04-11T09:48:41.001Z</time></trkpt><trkpt lat="45.874132329738806" lon="8.457409544587106"><ele>1342.0</ele><time>2026-04-11T09:48:42.001Z</time></trkpt><trkpt lat="45.87403764318348" lon="8.45744392940991"><ele>1342.0</ele><time>2026-04-11T09:48:43.001Z</time></trkpt><trkpt lat="45.873945395592656" lon="8.45748653633316"><ele>1338.6</ele><time>2026-04-11T09:48:44.001Z</time></trkpt><trkpt lat="45.873854774072065" lon="8.457546707685585"><ele>1335.1999999999998</ele><time>2026-04-11T09:48:45.001Z</time></trkpt><trkpt lat="45.873762265241446" lon="8.4576078562963"><ele>1331.8</ele><time>2026-04-11T09:48:46.001Z</time></trkpt><trkpt lat="45.87365852268276" lon="8.457638751453837"><ele>1328.4</ele><time>2026-04-11T09:48:47.001Z</time></trkpt><trkpt lat="45.87355100529363" lon="8.457644565980537"><ele>1325.0</ele><time>2026-04-11T09:48:48.001Z</time></trkpt><trkpt lat="45.87344297751827" lon="8.457654544682043"><ele>1322.8</ele><time>2026-04-11T09:48:49.001Z</time></trkpt><trkpt lat="45.873334621178046" lon="8.457642035263797"><ele>1320.6</ele><time>2026-04-11T09:48:50.001Z</time></trkpt><trkpt lat="45.87322739097565" lon="8.457609204935878"><ele>1318.4</ele><time>2026-04-11T09:48:51.001Z</time></trkpt><trkpt lat="45.87311798665786" lon="8.45760042109421"><ele>1316.2</ele><time>2026-04-11T09:48:52.001Z</time></trkpt><trkpt lat="45.87300639963836" lon="8.457591461987512"><ele>1314.0</ele><time>2026-04-11T09:48:53.001Z</time></trkpt><trkpt lat="45.87289599331327" lon="8.457582597689905"><ele>1314.0</ele><time>2026-04-11T09:48:54.001Z</time></trkpt><trkpt lat="45.872789590080075" lon="8.45757405479412"><ele>1314.0</ele><time>2026-04-11T09:48:55.001Z</time></trkpt><trkpt lat="45.872684589449776" lon="8.457588335226486"><ele>1314.0</ele><time>2026-04-11T09:48:56.001Z</time></trkpt><trkpt lat="45.87257730941915" lon="8.457559492510171"><ele>1314.0</ele><time>2026-04-11T09:48:57.001Z</time></trkpt><trkpt lat="45.87246213535779" lon="8.457538436841281"><ele>1314.0</ele><time>2026-04-11T09:48:58.001Z</time></trkpt><trkpt lat="45.8723564734552" lon="8.457488292238724"><ele>1312.25</ele><time>2026-04-11T09:48:59.001Z</time></trkpt><trkpt lat="45.87226233115468" lon="8.457423488307372"><ele>1310.5</ele><time>2026-04-11T09:49:00.001Z</time></trkpt><trkpt lat="45.87217190129475" lon="8.457321658647537"><ele>1308.75</ele><time>2026-04-11T09:49:01.001Z</time></trkpt><trkpt lat="45.872056492084056" lon="8.457237851855668"><ele>1307.0</ele><time>2026-04-11T09:49:02.001Z</time></trkpt><trkpt lat="45.8719342457742" lon="8.457186727483801"><ele>1307.0</ele><time>2026-04-11T09:49:03.001Z</time></trkpt><trkpt lat="45.87180806280678" lon="8.45718924984465"><ele>1307.0</ele><time>2026-04-11T09:49:04.001Z</time></trkpt><trkpt lat="45.87167994352369" lon="8.45715933823361"><ele>1307.0</ele><time>2026-04-11T09:49:05.001Z</time></trkpt><trkpt lat="45.87156706840192" lon="8.45715845727464"><ele>1307.0</ele><time>2026-04-11T09:49:06.001Z</time></trkpt><trkpt lat="45.87145358365648" lon="8.457159075281185"><ele>1303.25</ele><time>2026-04-11T09:49:07.001Z</time></trkpt><trkpt lat="45.87133148015673" lon="8.457165708650509"><ele>1299.5</ele><time>2026-04-11T09:49:08.001Z</time></trkpt><trkpt lat="45.871212632452256" lon="8.45717917711931"><ele>1295.75</ele><time>2026-04-11T09:49:09.001Z</time></trkpt><trkpt lat="45.87109951683698" lon="8.457197763275607"><ele>1292.0</ele><time>2026-04-11T09:49:10.001Z</time></trkpt><trkpt lat="45.870984342936204" lon="8.457221012158236"><ele>1289.75</ele><time>2026-04-11T09:49:11.001Z</time></trkpt><trkpt lat="45.870868043877294" lon="8.457247430463513"><ele>1287.5</ele><time>2026-04-11T09:49:12.001Z</time></trkpt><trkpt lat="45.87075430498475" lon="8.45727384064878"><ele>1285.25</ele><time>2026-04-11T09:49:13.001Z</time></trkpt><trkpt lat="45.87064232634026" lon="8.45731308976108"><ele>1283.0</ele><time>2026-04-11T09:49:14.001Z</time></trkpt><trkpt lat="45.870538323752285" lon="8.457296464124836"><ele>1283.0</ele><time>2026-04-11T09:49:15.001Z</time></trkpt><trkpt lat="45.87043009454842" lon="8.457245089571321"><ele>1283.0</ele><time>2026-04-11T09:49:16.001Z</time></trkpt><trkpt lat="45.870341109288375" lon="8.457158415305708"><ele>1283.0</ele><time>2026-04-11T09:49:17.001Z</time></trkpt><trkpt lat="45.870280673966406" lon="8.457043234220551"><ele>1283.0</ele><time>2026-04-11T09:49:18.001Z</time></trkpt><trkpt lat="45.870221456579785" lon="8.456918331071021"><ele>1283.0</ele><time>2026-04-11T09:49:19.001Z</time></trkpt><trkpt lat="45.87015148146474" lon="8.456782218634865"><ele>1282.6000000000001</ele><time>2026-04-11T09:49:20.001Z</time></trkpt><trkpt lat="45.87008917612674" lon="8.45664790963612"><ele>1282.2</ele><time>2026-04-11T09:49:21.001Z</time></trkpt><trkpt lat="45.870029832247354" lon="8.456520899797326"><ele>1281.8</ele><time>2026-04-11T09:49:22.001Z</time></trkpt><trkpt lat="45.869988050420424" lon="8.45638168567103"><ele>1281.4</ele><time>2026-04-11T09:49:23.001Z</time></trkpt><trkpt lat="45.86993007071286" lon="8.456257366776759"><ele>1281.0</ele><time>2026-04-11T09:49:24.001Z</time></trkpt><trkpt lat="45.869849016901554" lon="8.456143789159992"><ele>1278.2</ele><time>2026-04-11T09:49:25.001Z</time></trkpt><trkpt lat="45.86979573434465" lon="8.456028286946347"><ele>1275.3999999999999</ele><time>2026-04-11T09:49:26.001Z</time></trkpt><trkpt lat="45.86972635175756" lon="8.455928180703827"><ele>1272.6</ele><time>2026-04-11T09:49:27.001Z</time></trkpt><trkpt lat="45.86964003822486" lon="8.455841955980231"><ele>1269.8</ele><time>2026-04-11T09:49:28.001Z</time></trkpt><trkpt lat="45.86953978605913" lon="8.455769065130683"><ele>1267.0</ele><time>2026-04-11T09:49:29.001Z</time></trkpt><trkpt lat="45.86939524645583" lon="8.455787479772969"><ele>1267.0</ele><time>2026-04-11T09:49:30.001Z</time></trkpt><trkpt lat="45.86929613116546" lon="8.455717506855049"><ele>1267.0</ele><time>2026-04-11T09:49:31.001Z</time></trkpt><trkpt lat="45.869187774201755" lon="8.455666375041295"><ele>1267.0</ele><time>2026-04-11T09:49:32.001Z</time></trkpt><trkpt lat="45.86907958689347" lon="8.455637058344823"><ele>1267.0</ele><time>2026-04-11T09:49:33.001Z</time></trkpt><trkpt lat="45.86896916881939" lon="8.455582803868303"><ele>1264.75</ele><time>2026-04-11T09:49:34.001Z</time></trkpt><trkpt lat="45.868859619391586" lon="8.455525622671964"><ele>1262.5</ele><time>2026-04-11T09:49:35.001Z</time></trkpt><trkpt lat="45.86874594471261" lon="8.455479184709624"><ele>1260.25</ele><time>2026-04-11T09:49:36.001Z</time></trkpt><trkpt lat="45.868637938961385" lon="8.455429662166257"><ele>1258.0</ele><time>2026-04-11T09:49:37.001Z</time></trkpt><trkpt lat="45.86853552888054" lon="8.455373847660283"><ele>1259.8</ele><time>2026-04-11T09:49:38.001Z</time></trkpt><trkpt lat="45.86844152032491" lon="8.45531014573186"><ele>1261.6</ele><time>2026-04-11T09:49:39.001Z</time></trkpt><trkpt lat="45.86834140169235" lon="8.455245869463543"><ele>1263.4</ele><time>2026-04-11T09:49:40.001Z</time></trkpt><trkpt lat="45.86824602880097" lon="8.455165474746277"><ele>1265.2</ele><time>2026-04-11T09:49:41.001Z</time></trkpt><trkpt lat="45.86815233186287" lon="8.455063426027513"><ele>1267.0</ele><time>2026-04-11T09:49:42.001Z</time></trkpt><trkpt lat="45.86806136438215" lon="8.45495720066337"><ele>1267.0</ele><time>2026-04-11T09:49:43.001Z</time></trkpt><trkpt lat="45.867988999568134" lon="8.45482063213796"><ele>1267.0</ele><time>2026-04-11T09:49:44.001Z</time></trkpt><trkpt lat="45.86792124849636" lon="8.454689377776223"><ele>1267.0</ele><time>2026-04-11T09:49:45.001Z</time></trkpt><trkpt lat="45.86786303595053" lon="8.454545218099627"><ele>1267.0</ele><time>2026-04-11T09:49:46.001Z</time></trkpt><trkpt lat="45.86780744682338" lon="8.454406048088853"><ele>1262.0</ele><time>2026-04-11T09:49:47.001Z</time></trkpt><trkpt lat="45.867786816005605" lon="8.454250073118912"><ele>1257.0</ele><time>2026-04-11T09:49:48.001Z</time></trkpt><trkpt lat="45.86775894520552" lon="8.454083194414048"><ele>1252.0</ele><time>2026-04-11T09:49:49.001Z</time></trkpt><trkpt lat="45.867728997536716" lon="8.453928644219998"><ele>1247.0</ele><time>2026-04-11T09:49:50.001Z</time></trkpt><trkpt lat="45.86768406835935" lon="8.453786240587704"><ele>1247.0</ele><time>2026-04-11T09:49:51.001Z</time></trkpt><trkpt lat="45.867641948695095" lon="8.453636869355396"><ele>1247.0</ele><time>2026-04-11T09:49:52.001Z</time></trkpt><trkpt lat="45.86756390379699" lon="8.453512396735974"><ele>1247.0</ele><time>2026-04-11T09:49:53.001Z</time></trkpt><trkpt lat="45.86747819767749" lon="8.453421597114659"><ele>1247.0</ele><time>2026-04-11T09:49:54.001Z</time></trkpt><trkpt lat="45.8673700791303" lon="8.453368744955206"><ele>1247.0</ele><time>2026-04-11T09:49:55.001Z</time></trkpt><trkpt lat="45.86726709907367" lon="8.453334563907815"><ele>1247.0</ele><time>2026-04-11T09:49:56.001Z</time></trkpt><trkpt lat="45.86715254613643" lon="8.453328389405396"><ele>1247.0</ele><time>2026-04-11T09:49:57.001Z</time></trkpt><trkpt lat="45.86703113181814" lon="8.453327816572685"><ele>1247.0</ele><time>2026-04-11T09:49:58.001Z</time></trkpt><trkpt lat="45.86692215996073" lon="8.453324086997997"><ele>1247.0</ele><time>2026-04-11T09:49:59.001Z</time></trkpt><trkpt lat="45.86681071753658" lon="8.453286484139738"><ele>1247.0</ele><time>2026-04-11T09:50:00.001Z</time></trkpt><trkpt lat="45.86671011204356" lon="8.453245648032032"><ele>1247.0</ele><time>2026-04-11T09:50:01.001Z</time></trkpt><trkpt lat="45.86661367152174" lon="8.45320737747061"><ele>1247.0</ele><time>2026-04-11T09:50:02.001Z</time></trkpt><trkpt lat="45.86650988136376" lon="8.453179107944399"><ele>1247.0</ele><time>2026-04-11T09:50:03.001Z</time></trkpt><trkpt lat="45.86640261282645" lon="8.453199071954995"><ele>1247.2</ele><time>2026-04-11T09:50:04.001Z</time></trkpt><trkpt lat="45.866306688584174" lon="8.453280094233042"><ele>1247.4</ele><time>2026-04-11T09:50:05.001Z</time></trkpt><trkpt lat="45.866238115382664" lon="8.453402492006484"><ele>1247.6</ele><time>2026-04-11T09:50:06.001Z</time></trkpt><trkpt lat="45.86617472760251" lon="8.453531294612844"><ele>1247.8</ele><time>2026-04-11T09:50:07.001Z</time></trkpt><trkpt lat="45.86613736039616" lon="8.45368144090286"><ele>1248.0</ele><time>2026-04-11T09:50:08.001Z</time></trkpt><trkpt lat="45.866123020449194" lon="8.45384175828857"><ele>1248.0</ele><time>2026-04-11T09:50:09.001Z</time></trkpt><trkpt lat="45.866113036344444" lon="8.454005986022132"><ele>1248.0</ele><time>2026-04-11T09:50:10.001Z</time></trkpt><trkpt lat="45.866111370307806" lon="8.454175470760113"><ele>1248.0</ele><time>2026-04-11T09:50:11.001Z</time></trkpt><trkpt lat="45.866107662465936" lon="8.454348499005992"><ele>1248.0</ele><time>2026-04-11T09:50:12.001Z</time></trkpt><trkpt lat="45.86610829296444" lon="8.45452524541928"><ele>1247.75</ele><time>2026-04-11T09:50:13.001Z</time></trkpt><trkpt lat="45.86610907610723" lon="8.454704593009653"><ele>1247.5</ele><time>2026-04-11T09:50:14.001Z</time></trkpt><trkpt lat="45.86612069972814" lon="8.454884591342218"><ele>1247.25</ele><time>2026-04-11T09:50:15.001Z</time></trkpt><trkpt lat="45.866154396384616" lon="8.45506271188592"><ele>1247.0</ele><time>2026-04-11T09:50:16.001Z</time></trkpt><trkpt lat="45.866193535555375" lon="8.455238419171812"><ele>1247.0</ele><time>2026-04-11T09:50:17.001Z</time></trkpt><trkpt lat="45.86623609279101" lon="8.455411752604322"><ele>1247.0</ele><time>2026-04-11T09:50:18.001Z</time></trkpt><trkpt lat="45.86627872801782" lon="8.455586561026543"><ele>1247.0</ele><time>2026-04-11T09:50:19.001Z</time></trkpt><trkpt lat="45.86632070376988" lon="8.4557597827665"><ele>1247.0</ele><time>2026-04-11T09:50:20.001Z</time></trkpt><trkpt lat="45.86636116618094" lon="8.455929159406962"><ele>1244.75</ele><time>2026-04-11T09:50:21.001Z</time></trkpt><trkpt lat="45.86640290034865" lon="8.4560940330636"><ele>1242.5</ele><time>2026-04-11T09:50:22.001Z</time></trkpt><trkpt lat="45.86645576330888" lon="8.456244209176619"><ele>1240.25</ele><time>2026-04-11T09:50:23.001Z</time></trkpt><trkpt lat="45.866523533907035" lon="8.456374748494918"><ele>1238.0</ele><time>2026-04-11T09:50:24.001Z</time></trkpt><trkpt lat="45.86659543287876" lon="8.456506796583923"><ele>1240.4</ele><time>2026-04-11T09:50:25.001Z</time></trkpt><trkpt lat="45.866683281605155" lon="8.456600984134027"><ele>1242.8</ele><time>2026-04-11T09:50:26.001Z</time></trkpt><trkpt lat="45.86676772211844" lon="8.456693433622819"><ele>1245.2</ele><time>2026-04-11T09:50:27.001Z</time></trkpt><trkpt lat="45.86685356892342" lon="8.456777881323312"><ele>1247.6</ele><time>2026-04-11T09:50:28.001Z</time></trkpt><trkpt lat="45.86691455083591" lon="8.456904681677043"><ele>1250.0</ele><time>2026-04-11T09:50:29.001Z</time></trkpt><trkpt lat="45.8669636494323" lon="8.457042380910245"><ele>1246.6</ele><time>2026-04-11T09:50:30.001Z</time></trkpt><trkpt lat="45.86698331258076" lon="8.457201159216485"><ele>1243.2</ele><time>2026-04-11T09:50:31.001Z</time></trkpt><trkpt lat="45.866994389209545" lon="8.457357628923441"><ele>1239.8</ele><time>2026-04-11T09:50:32.001Z</time></trkpt><trkpt lat="45.866987346805146" lon="8.457515942345614"><ele>1236.4</ele><time>2026-04-11T09:50:33.001Z</time></trkpt><trkpt lat="45.86697852432661" lon="8.457679123810017"><ele>1233.0</ele><time>2026-04-11T09:50:34.001Z</time></trkpt><trkpt lat="45.8669653024793" lon="8.457839828141564"><ele>1232.0</ele><time>2026-04-11T09:50:35.001Z</time></trkpt><trkpt lat="45.86694625269724" lon="8.458002308099017"><ele>1231.0</ele><time>2026-04-11T09:50:36.001Z</time></trkpt><trkpt lat="45.86690849869478" lon="8.45816121413784"><ele>1230.0</ele><time>2026-04-11T09:50:37.001Z</time></trkpt><trkpt lat="45.86686214190479" lon="8.458317853157235"><ele>1229.0</ele><time>2026-04-11T09:50:38.001Z</time></trkpt><trkpt lat="45.86680746983463" lon="8.458473659421234"><ele>1223.0</ele><time>2026-04-11T09:50:39.001Z</time></trkpt><trkpt lat="45.86675003315152" lon="8.458629128549713"><ele>1217.0</ele><time>2026-04-11T09:50:40.001Z</time></trkpt><trkpt lat="45.866691314668905" lon="8.458784925951047"><ele>1211.0</ele><time>2026-04-11T09:50:41.001Z</time></trkpt><trkpt lat="45.866635788473374" lon="8.45894445207853"><ele>1205.0</ele><time>2026-04-11T09:50:42.001Z</time></trkpt><trkpt lat="45.86658077335428" lon="8.459104515456591"><ele>1204.75</ele><time>2026-04-11T09:50:43.001Z</time></trkpt><trkpt lat="45.86652592589306" lon="8.459264807935545"><ele>1204.5</ele><time>2026-04-11T09:50:44.001Z</time></trkpt><trkpt lat="45.86647233601345" lon="8.45942296423323"><ele>1204.25</ele><time>2026-04-11T09:50:45.001Z</time></trkpt><trkpt lat="45.866419047071744" lon="8.459582505083683"><ele>1204.0</ele><time>2026-04-11T09:50:46.001Z</time></trkpt><trkpt lat="45.86635642803775" lon="8.459732385234812"><ele>1200.0</ele><time>2026-04-11T09:50:47.001Z</time></trkpt><trkpt lat="45.866271927015084" lon="8.459858418207796"><ele>1196.0</ele><time>2026-04-11T09:50:48.001Z</time></trkpt><trkpt lat="45.86618341973236" lon="8.459978017364524"><ele>1192.0</ele><time>2026-04-11T09:50:49.001Z</time></trkpt><trkpt lat="45.86608246768683" lon="8.460076660294394"><ele>1188.0</ele><time>2026-04-11T09:50:50.001Z</time></trkpt><trkpt lat="45.86597409873904" lon="8.460160935935315"><ele>1188.25</ele><time>2026-04-11T09:50:51.001Z</time></trkpt><trkpt lat="45.86585846326474" lon="8.460229541221038"><ele>1188.5</ele><time>2026-04-11T09:50:52.001Z</time></trkpt><trkpt lat="45.86573774437037" lon="8.460295988500832"><ele>1188.75</ele><time>2026-04-11T09:50:53.001Z</time></trkpt><trkpt lat="45.86561770982991" lon="8.460368504280273"><ele>1189.0</ele><time>2026-04-11T09:50:54.001Z</time></trkpt><trkpt lat="45.8655053271567" lon="8.460462901494681"><ele>1184.5</ele><time>2026-04-11T09:50:55.001Z</time></trkpt><trkpt lat="45.865398598321875" lon="8.460574164616453"><ele>1180.0</ele><time>2026-04-11T09:50:56.001Z</time></trkpt><trkpt lat="45.86530644354913" lon="8.460705988430329"><ele>1175.5</ele><time>2026-04-11T09:50:57.001Z</time></trkpt><trkpt lat="45.86521365504631" lon="8.460833760921718"><ele>1171.0</ele><time>2026-04-11T09:50:58.001Z</time></trkpt><trkpt lat="45.86513255032008" lon="8.460976884480761"><ele>1171.75</ele><time>2026-04-11T09:50:59.001Z</time></trkpt><trkpt lat="45.865059555393124" lon="8.461127606398271"><ele>1172.5</ele><time>2026-04-11T09:51:00.001Z</time></trkpt><trkpt lat="45.86500329254257" lon="8.461288939679388"><ele>1173.25</ele><time>2026-04-11T09:51:01.001Z</time></trkpt><trkpt lat="45.864915932491385" lon="8.461407020162516"><ele>1174.0</ele><time>2026-04-11T09:51:02.001Z</time></trkpt><trkpt lat="45.864835264783636" lon="8.46152009733976"><ele>1174.0</ele><time>2026-04-11T09:51:03.001Z</time></trkpt><trkpt lat="45.86474098687186" lon="8.461608028895833"><ele>1174.0</ele><time>2026-04-11T09:51:04.001Z</time></trkpt><trkpt lat="45.86463754349808" lon="8.461673999330529"><ele>1174.0</ele><time>2026-04-11T09:51:05.001Z</time></trkpt><trkpt lat="45.864532377911736" lon="8.461713011716641"><ele>1174.0</ele><time>2026-04-11T09:51:06.001Z</time></trkpt><trkpt lat="45.86442300042776" lon="8.461731477493558"><ele>1174.0</ele><time>2026-04-11T09:51:07.001Z</time></trkpt><trkpt lat="45.86430948509554" lon="8.461743118759463"><ele>1173.75</ele><time>2026-04-11T09:51:08.001Z</time></trkpt><trkpt lat="45.86419189023892" lon="8.461750562090618"><ele>1173.5</ele><time>2026-04-11T09:51:09.001Z</time></trkpt><trkpt lat="45.86407582693956" lon="8.461757908476233"><ele>1173.25</ele><time>2026-04-11T09:51:10.001Z</time></trkpt><trkpt lat="45.86395334712469" lon="8.461773290747017"><ele>1173.0</ele><time>2026-04-11T09:51:11.001Z</time></trkpt><trkpt lat="45.863830643829836" lon="8.461820289378814"><ele>1173.0</ele><time>2026-04-11T09:51:12.001Z</time></trkpt><trkpt lat="45.86372076602347" lon="8.461890853714639"><ele>1173.0</ele><time>2026-04-11T09:51:13.001Z</time></trkpt><trkpt lat="45.86361271847015" lon="8.46195335762052"><ele>1173.0</ele><time>2026-04-11T09:51:14.001Z</time></trkpt><trkpt lat="45.86349776335901" lon="8.462000711977508"><ele>1173.0</ele><time>2026-04-11T09:51:15.001Z</time></trkpt><trkpt lat="45.86338448165165" lon="8.462035797424827"><ele>1171.5</ele><time>2026-04-11T09:51:16.001Z</time></trkpt><trkpt lat="45.863271693262675" lon="8.46205873885769"><ele>1170.0</ele><time>2026-04-11T09:51:17.001Z</time></trkpt><trkpt lat="45.86316106127321" lon="8.462068064310134"><ele>1168.5</ele><time>2026-04-11T09:51:18.001Z</time></trkpt><trkpt lat="45.86304694349916" lon="8.46207341793889"><ele>1167.0</ele><time>2026-04-11T09:51:19.001Z</time></trkpt><trkpt lat="45.86293403003814" lon="8.462017797648208"><ele>1167.0</ele><time>2026-04-11T09:51:20.001Z</time></trkpt><trkpt lat="45.86282806158743" lon="8.461935885306175"><ele>1167.0</ele><time>2026-04-11T09:51:21.001Z</time></trkpt><trkpt lat="45.86273378662184" lon="8.461822557224524"><ele>1167.0</ele><time>2026-04-11T09:51:22.001Z</time></trkpt><trkpt lat="45.8626477204542" lon="8.4616888139632"><ele>1167.0</ele><time>2026-04-11T09:51:23.001Z</time></trkpt><trkpt lat="45.862582352480466" lon="8.461540965808048"><ele>1163.5</ele><time>2026-04-11T09:51:24.003Z</time></trkpt><trkpt lat="45.86253381742686" lon="8.461391567947853"><ele>1160.0</ele><time>2026-04-11T09:51:25.003Z</time></trkpt><trkpt lat="45.86250822415208" lon="8.461232780119149"><ele>1156.5</ele><time>2026-04-11T09:51:26.003Z</time></trkpt><trkpt lat="45.86249731532174" lon="8.461062644084084"><ele>1153.0</ele><time>2026-04-11T09:51:27.003Z</time></trkpt><trkpt lat="45.86250865467427" lon="8.460898288842591"><ele>1152.2</ele><time>2026-04-11T09:51:28.003Z</time></trkpt><trkpt lat="45.86252678877735" lon="8.460737747183071"><ele>1151.4</ele><time>2026-04-11T09:51:29.003Z</time></trkpt><trkpt lat="45.86256119014435" lon="8.460586470168284"><ele>1150.6000000000001</ele><time>2026-04-11T09:51:30.002Z</time></trkpt><trkpt lat="45.862587133137104" lon="8.460445509019625"><ele>1149.8</ele><time>2026-04-11T09:51:31.002Z</time></trkpt><trkpt lat="45.86262091803049" lon="8.460319098462065"><ele>1149.0</ele><time>2026-04-11T09:51:32.002Z</time></trkpt><trkpt lat="45.862614405802475" lon="8.460170313491904"><ele>1147.75</ele><time>2026-04-11T09:51:33.002Z</time></trkpt><trkpt lat="45.862606284740224" lon="8.459984147045406"><ele>1146.5</ele><time>2026-04-11T09:51:34.002Z</time></trkpt><trkpt lat="45.86254196619555" lon="8.459827164842457"><ele>1145.25</ele><time>2026-04-11T09:51:35.002Z</time></trkpt><trkpt lat="45.86246916291093" lon="8.459693713644096"><ele>1144.0</ele><time>2026-04-11T09:51:36.002Z</time></trkpt><trkpt lat="45.862394746594475" lon="8.459569155923324"><ele>1143.4</ele><time>2026-04-11T09:51:37.002Z</time></trkpt><trkpt lat="45.86232334281924" lon="8.459449641758939"><ele>1142.8000000000002</ele><time>2026-04-11T09:51:38.001Z</time></trkpt><trkpt lat="45.86225931506068" lon="8.459342490126433"><ele>1142.1999999999998</ele><time>2026-04-11T09:51:39.001Z</time></trkpt><trkpt lat="45.86220104029474" lon="8.459245511721747"><ele>1141.6</ele><time>2026-04-11T09:51:40.001Z</time></trkpt><trkpt lat="45.862138035421246" lon="8.459115288666402"><ele>1141.0</ele><time>2026-04-11T09:51:41.001Z</time></trkpt><trkpt lat="45.86202124463397" lon="8.45905154131674"><ele>1141.0</ele><time>2026-04-11T09:51:42.001Z</time></trkpt><trkpt lat="45.861921967480484" lon="8.459104938291555"><ele>1141.0</ele><time>2026-04-11T09:51:43.001Z</time></trkpt><trkpt lat="45.861867936400174" lon="8.459215262602806"><ele>1141.0</ele><time>2026-04-11T09:51:44.001Z</time></trkpt><trkpt lat="45.86186706656212" lon="8.45934919663286"><ele>1141.0</ele><time>2026-04-11T09:51:45.001Z</time></trkpt><trkpt lat="45.86189727519394" lon="8.459458262957734"><ele>1141.0</ele><time>2026-04-11T09:51:46.001Z</time></trkpt><trkpt lat="45.861947277598915" lon="8.459567717788744"><ele>1141.6</ele><time>2026-04-11T09:51:47.001Z</time></trkpt><trkpt lat="45.86197013503181" lon="8.459700916993235"><ele>1142.1999999999998</ele><time>2026-04-11T09:51:48.001Z</time></trkpt><trkpt lat="45.86201876210589" lon="8.459826962866035"><ele>1142.8000000000002</ele><time>2026-04-11T09:51:49.001Z</time></trkpt><trkpt lat="45.862042340117654" lon="8.459972397424465"><ele>1143.4</ele><time>2026-04-11T09:51:50.001Z</time></trkpt><trkpt lat="45.8620493330661" lon="8.460109482583244"><ele>1144.0</ele><time>2026-04-11T09:51:51.001Z</time></trkpt><trkpt lat="45.86202837166528" lon="8.460244264007919"><ele>1144.0</ele><time>2026-04-11T09:51:52.001Z</time></trkpt><trkpt lat="45.86202046742878" lon="8.460378792508305"><ele>1144.0</ele><time>2026-04-11T09:51:53.001Z</time></trkpt><trkpt lat="45.86198468858653" lon="8.460512260419033"><ele>1144.0</ele><time>2026-04-11T09:51:54Z</time></trkpt><trkpt lat="45.86193781057125" lon="8.460676155453204"><ele>1144.0</ele><time>2026-04-11T09:51:55Z</time></trkpt><trkpt lat="45.86187343082516" lon="8.460839397530542"><ele>1144.0</ele><time>2026-04-11T09:51:56Z</time></trkpt><trkpt lat="45.861805420010036" lon="8.461001764256604"><ele>1140.0</ele><time>2026-04-11T09:51:57Z</time></trkpt><trkpt lat="45.861757659309305" lon="8.461163670463185"><ele>1136.0</ele><time>2026-04-11T09:51:58Z</time></trkpt><trkpt lat="45.86171073008963" lon="8.461319568682459"><ele>1132.0</ele><time>2026-04-11T09:51:59Z</time></trkpt><trkpt lat="45.86166403417076" lon="8.461465335979396"><ele>1128.0</ele><time>2026-04-11T09:52:00Z</time></trkpt><trkpt lat="45.86161494972573" lon="8.461615930484973"><ele>1127.75</ele><time>2026-04-11T09:52:01Z</time></trkpt><trkpt lat="45.861567977717115" lon="8.461778172792608"><ele>1127.5</ele><time>2026-04-11T09:52:02Z</time></trkpt><trkpt lat="45.861516222853126" lon="8.461937157786675"><ele>1127.25</ele><time>2026-04-11T09:52:03Z</time></trkpt><trkpt lat="45.86146858576281" lon="8.462077810818222"><ele>1127.0</ele><time>2026-04-11T09:52:04Z</time></trkpt><trkpt lat="45.86141517891896" lon="8.462248617132376"><ele>1127.0</ele><time>2026-04-11T09:52:05Z</time></trkpt><trkpt lat="45.86137981583673" lon="8.462443584259374"><ele>1127.0</ele><time>2026-04-11T09:52:06Z</time></trkpt><trkpt lat="45.86139527233786" lon="8.462690560980006"><ele>1127.0</ele><time>2026-04-11T09:52:07Z</time></trkpt><trkpt lat="45.86144576428286" lon="8.46285086545305"><ele>1127.0</ele><time>2026-04-11T09:52:08Z</time></trkpt><trkpt lat="45.86149940292731" lon="8.46297569581411"><ele>1125.4</ele><time>2026-04-11T09:52:09Z</time></trkpt><trkpt lat="45.8615595557679" lon="8.463113437490081"><ele>1123.8000000000002</ele><time>2026-04-11T09:52:10Z</time></trkpt><trkpt lat="45.861619274433494" lon="8.463248903170143"><ele>1122.2</ele><time>2026-04-11T09:52:11Z</time></trkpt><trkpt lat="45.86166928800992" lon="8.463356537156459"><ele>1120.6000000000001</ele><time>2026-04-11T09:52:12Z</time></trkpt><trkpt lat="45.861711335019315" lon="8.463443946054454"><ele>1119.0</ele><time>2026-04-11T09:52:13Z</time></trkpt><trkpt lat="45.861733619731076" lon="8.463554679398353"><ele>1119.0</ele><time>2026-04-11T09:52:14Z</time></trkpt><trkpt lat="45.86170892612315" lon="8.463681719951598"><ele>1119.0</ele><time>2026-04-11T09:52:15Z</time></trkpt><trkpt lat="45.86167058698064" lon="8.463796683851083"><ele>1119.0</ele><time>2026-04-11T09:52:16Z</time></trkpt><trkpt lat="45.861603441219316" lon="8.463925750476212"><ele>1119.0</ele><time>2026-04-11T09:52:17Z</time></trkpt><trkpt lat="45.86156437933424" lon="8.464078277156787"><ele>1119.0</ele><time>2026-04-11T09:52:18Z</time></trkpt><trkpt lat="45.861559249434166" lon="8.464279948462735"><ele>1116.25</ele><time>2026-04-11T09:52:19Z</time></trkpt><trkpt lat="45.86159078265188" lon="8.464442735386843"><ele>1113.5</ele><time>2026-04-11T09:52:20Z</time></trkpt><trkpt lat="45.8616354790857" lon="8.464626800045329"><ele>1110.75</ele><time>2026-04-11T09:52:21Z</time></trkpt><trkpt lat="45.86174242092857" lon="8.464852617564265"><ele>1108.0</ele><time>2026-04-11T09:52:22Z</time></trkpt><trkpt lat="45.86191523574117" lon="8.464991355022782"><ele>1106.2</ele><time>2026-04-11T09:52:23Z</time></trkpt><trkpt lat="45.862021035456756" lon="8.465015719581002"><ele>1104.4</ele><time>2026-04-11T09:52:24Z</time></trkpt><trkpt lat="45.86209297615244" lon="8.46502474786294"><ele>1102.6000000000001</ele><time>2026-04-11T09:52:25Z</time></trkpt><trkpt lat="45.862224096728404" lon="8.465074659738251"><ele>1100.8</ele><time>2026-04-11T09:52:30Z</time></trkpt><trkpt lat="45.862153197992036" lon="8.46513316573721"><ele>1099.0</ele><time>2026-04-11T09:52:31Z</time></trkpt><trkpt lat="45.862030576378366" lon="8.46528260569419"><ele>1099.0</ele><time>2026-04-11T09:52:32Z</time></trkpt><trkpt lat="45.86190669732811" lon="8.465240742308886"><ele>1099.0</ele><time>2026-04-11T09:52:33Z</time></trkpt><trkpt lat="45.86179456879651" lon="8.465186164160025"><ele>1099.0</ele><time>2026-04-11T09:52:34Z</time></trkpt><trkpt lat="45.861694050298084" lon="8.465076875143035"><ele>1099.0</ele><time>2026-04-11T09:52:35Z</time></trkpt><trkpt lat="45.861632230730855" lon="8.464930637132849"><ele>1098.3333333333333</ele><time>2026-04-11T09:52:36Z</time></trkpt><trkpt lat="45.86158998841479" lon="8.464817031439088"><ele>1097.6666666666665</ele><time>2026-04-11T09:52:37Z</time></trkpt><trkpt lat="45.86153780066074" lon="8.46471966337376"><ele>1097.0</ele><time>2026-04-11T09:52:38Z</time></trkpt><trkpt lat="45.86148210005007" lon="8.464637163915619"><ele>1096.3333333333333</ele><time>2026-04-11T09:52:39Z</time></trkpt><trkpt lat="45.86141824484493" lon="8.464565266767435"><ele>1095.6666666666667</ele><time>2026-04-11T09:52:40Z</time></trkpt><trkpt lat="45.86134152138471" lon="8.46449219612335"><ele>1095.0</ele><time>2026-04-11T09:52:41Z</time></trkpt><trkpt lat="45.86126000912437" lon="8.464413630752391"><ele>1097.6</ele><time>2026-04-11T09:52:42Z</time></trkpt><trkpt lat="45.861180841312944" lon="8.464329141081578"><ele>1100.2</ele><time>2026-04-11T09:52:43Z</time></trkpt><trkpt lat="45.86112794831537" lon="8.464197778384102"><ele>1102.8</ele><time>2026-04-11T09:52:44Z</time></trkpt><trkpt lat="45.861075121508456" lon="8.46405715523859"><ele>1105.4</ele><time>2026-04-11T09:52:45Z</time></trkpt><trkpt lat="45.86105263630501" lon="8.463905677906887"><ele>1108.0</ele><time>2026-04-11T09:52:46Z</time></trkpt><trkpt lat="45.86105687171751" lon="8.463738275017171"><ele>1110.2</ele><time>2026-04-11T09:52:47Z</time></trkpt><trkpt lat="45.8610490793081" lon="8.463559319056321"><ele>1112.4</ele><time>2026-04-11T09:52:48Z</time></trkpt><trkpt lat="45.86099332452665" lon="8.463412493552601"><ele>1114.6000000000001</ele><time>2026-04-11T09:52:49Z</time></trkpt><trkpt lat="45.86093149002831" lon="8.463294849792693"><ele>1116.8</ele><time>2026-04-11T09:52:50Z</time></trkpt><trkpt lat="45.86086230750677" lon="8.463184517210747"><ele>1119.0</ele><time>2026-04-11T09:52:51Z</time></trkpt><trkpt lat="45.860790145771645" lon="8.463050088932748"><ele>1111.25</ele><time>2026-04-11T09:52:52Z</time></trkpt><trkpt lat="45.86076139764591" lon="8.462880639041927"><ele>1103.5</ele><time>2026-04-11T09:52:53Z</time></trkpt><trkpt lat="45.86074325426467" lon="8.462727555906673"><ele>1095.75</ele><time>2026-04-11T09:52:54Z</time></trkpt><trkpt lat="45.86074660786675" lon="8.462554828162064"><ele>1088.0</ele><time>2026-04-11T09:52:55Z</time></trkpt><trkpt lat="45.860752155399105" lon="8.462377626989339"><ele>1088.0</ele><time>2026-04-11T09:52:56Z</time></trkpt><trkpt lat="45.860746640720926" lon="8.462206501979875"><ele>1088.0</ele><time>2026-04-11T09:52:57Z</time></trkpt><trkpt lat="45.86072962170112" lon="8.462018054334496"><ele>1088.0</ele><time>2026-04-11T09:52:58Z</time></trkpt><trkpt lat="45.86069868039257" lon="8.461824404317493"><ele>1088.0</ele><time>2026-04-11T09:52:59Z</time></trkpt><trkpt lat="45.86066767676403" lon="8.461660703311132"><ele>1089.0</ele><time>2026-04-11T09:53:00Z</time></trkpt><trkpt lat="45.860646590354186" lon="8.46149370870418"><ele>1090.0</ele><time>2026-04-11T09:53:01Z</time></trkpt><trkpt lat="45.860619292539916" lon="8.461330670128051"><ele>1091.0</ele><time>2026-04-11T09:53:02Z</time></trkpt><trkpt lat="45.86055698468136" lon="8.461191208529758"><ele>1092.0</ele><time>2026-04-11T09:53:03Z</time></trkpt><trkpt lat="45.860468306125306" lon="8.461081660354582"><ele>1094.0</ele><time>2026-04-11T09:53:04Z</time></trkpt><trkpt lat="45.86035710048324" lon="8.461009616168234"><ele>1096.0</ele><time>2026-04-11T09:53:05Z</time></trkpt><trkpt lat="45.86025341033844" lon="8.460933788499041"><ele>1098.0</ele><time>2026-04-11T09:53:06Z</time></trkpt><trkpt lat="45.8601499059151" lon="8.460856922076236"><ele>1100.0</ele><time>2026-04-11T09:53:07Z</time></trkpt><trkpt lat="45.86006290745241" lon="8.460747245991312"><ele>1098.5</ele><time>2026-04-11T09:53:08Z</time></trkpt><trkpt lat="45.85997652241183" lon="8.46063209866101"><ele>1097.0</ele><time>2026-04-11T09:53:09Z</time></trkpt><trkpt lat="45.85989061555906" lon="8.460531533019799"><ele>1095.5</ele><time>2026-04-11T09:53:10Z</time></trkpt><trkpt lat="45.85978791030646" lon="8.460457910365749"><ele>1094.0</ele><time>2026-04-11T09:53:11Z</time></trkpt><trkpt lat="45.859670620391014" lon="8.460422268179006"><ele>1094.0</ele><time>2026-04-11T09:53:12Z</time></trkpt><trkpt lat="45.85955205429821" lon="8.460416648293577"><ele>1094.0</ele><time>2026-04-11T09:53:13Z</time></trkpt><trkpt lat="45.859431579280965" lon="8.460398717757231"><ele>1094.0</ele><time>2026-04-11T09:53:14Z</time></trkpt><trkpt lat="45.85931116890376" lon="8.460358511062195"><ele>1094.0</ele><time>2026-04-11T09:53:15Z</time></trkpt><trkpt lat="45.859190377348874" lon="8.460320234308988"><ele>1090.2</ele><time>2026-04-11T09:53:16Z</time></trkpt><trkpt lat="45.85907848328652" lon="8.460281977894411"><ele>1086.4</ele><time>2026-04-11T09:53:17Z</time></trkpt><trkpt lat="45.85897355799873" lon="8.460243457543141"><ele>1082.6</ele><time>2026-04-11T09:53:18Z</time></trkpt><trkpt lat="45.858877847751096" lon="8.460207891542096"><ele>1078.8</ele><time>2026-04-11T09:53:19Z</time></trkpt><trkpt lat="45.85879460792934" lon="8.460127134686191"><ele>1075.0</ele><time>2026-04-11T09:53:20Z</time></trkpt><trkpt lat="45.85871871337519" lon="8.460024077425505"><ele>1075.0</ele><time>2026-04-11T09:53:21Z</time></trkpt><trkpt lat="45.8586731670659" lon="8.459883913044411"><ele>1075.0</ele><time>2026-04-11T09:53:22Z</time></trkpt><trkpt lat="45.858662764039" lon="8.459731823237345"><ele>1075.0</ele><time>2026-04-11T09:53:23Z</time></trkpt><trkpt lat="45.85865759507594" lon="8.459574280370852"><ele>1075.0</ele><time>2026-04-11T09:53:24Z</time></trkpt><trkpt lat="45.85871517284478" lon="8.459432448104259"><ele>1075.0</ele><time>2026-04-11T09:53:25Z</time></trkpt><trkpt lat="45.85877429470915" lon="8.459291467103226"><ele>1074.0</ele><time>2026-04-11T09:53:26Z</time></trkpt><trkpt lat="45.85883992777637" lon="8.45914552254631"><ele>1073.0</ele><time>2026-04-11T09:53:27Z</time></trkpt><trkpt lat="45.85889561590088" lon="8.45899156018319"><ele>1072.0</ele><time>2026-04-11T09:53:28Z</time></trkpt><trkpt lat="45.85892052487028" lon="8.458826487915301"><ele>1071.0</ele><time>2026-04-11T09:53:29Z</time></trkpt><trkpt lat="45.858916225284794" lon="8.458645641921768"><ele>1070.0</ele><time>2026-04-11T09:53:30Z</time></trkpt><trkpt lat="45.85887590650856" lon="8.458463999766028"><ele>1069.0</ele><time>2026-04-11T09:53:31Z</time></trkpt><trkpt lat="45.858800753980994" lon="8.458320991320345"><ele>1068.0</ele><time>2026-04-11T09:53:32Z</time></trkpt><trkpt lat="45.85872086510017" lon="8.458190777585735"><ele>1067.0</ele><time>2026-04-11T09:53:33Z</time></trkpt><trkpt lat="45.85862048746871" lon="8.45808338744614"><ele>1067.0</ele><time>2026-04-11T09:53:34Z</time></trkpt><trkpt lat="45.858511391916025" lon="8.45798971785804"><ele>1067.0</ele><time>2026-04-11T09:53:35Z</time></trkpt><trkpt lat="45.85840513909166" lon="8.457882263348257"><ele>1067.0</ele><time>2026-04-11T09:53:36Z</time></trkpt><trkpt lat="45.85829893386656" lon="8.457768092279203"><ele>1067.0</ele><time>2026-04-11T09:53:37Z</time></trkpt><trkpt lat="45.85818920757329" lon="8.45765697847494"><ele>1063.75</ele><time>2026-04-11T09:53:38Z</time></trkpt><trkpt lat="45.858082778831914" lon="8.457542386953088"><ele>1060.5</ele><time>2026-04-11T09:53:39Z</time></trkpt><trkpt lat="45.85797639298309" lon="8.4574270018273"><ele>1057.25</ele><time>2026-04-11T09:53:40Z</time></trkpt><trkpt lat="45.85787351542793" lon="8.457311444833602"><ele>1054.0</ele><time>2026-04-11T09:53:41Z</time></trkpt><trkpt lat="45.857779434787076" lon="8.457191564800736"><ele>1054.5</ele><time>2026-04-11T09:53:42Z</time></trkpt><trkpt lat="45.85769883585913" lon="8.457060520749948"><ele>1055.0</ele><time>2026-04-11T09:53:43Z</time></trkpt><trkpt lat="45.85767168070278" lon="8.456895491423944"><ele>1055.5</ele><time>2026-04-11T09:53:44Z</time></trkpt><trkpt lat="45.857648995513635" lon="8.456718975910528"><ele>1056.0</ele><time>2026-04-11T09:53:45Z</time></trkpt><trkpt lat="45.85763259611176" lon="8.456538002923274"><ele>1053.0</ele><time>2026-04-11T09:53:46Z</time></trkpt><trkpt lat="45.857583915793505" lon="8.45637807371466"><ele>1050.0</ele><time>2026-04-11T09:53:47Z</time></trkpt><trkpt lat="45.85754807454161" lon="8.45622707274056"><ele>1047.0</ele><time>2026-04-11T09:53:48Z</time></trkpt><trkpt lat="45.85747579033316" lon="8.456115710752277"><ele>1044.0</ele><time>2026-04-11T09:53:49Z</time></trkpt><trkpt lat="45.85739552578729" lon="8.456005241853125"><ele>1043.75</ele><time>2026-04-11T09:53:50Z</time></trkpt><trkpt lat="45.857297885463915" lon="8.455914831923376"><ele>1043.5</ele><time>2026-04-11T09:53:51Z</time></trkpt><trkpt lat="45.85719445299129" lon="8.455838358166606"><ele>1043.25</ele><time>2026-04-11T09:53:52Z</time></trkpt><trkpt lat="45.857087925482055" lon="8.455757189675557"><ele>1043.0</ele><time>2026-04-11T09:53:53Z</time></trkpt><trkpt lat="45.85697803814364" lon="8.455672881351083"><ele>1043.0</ele><time>2026-04-11T09:53:54Z</time></trkpt><trkpt lat="45.85686482780778" lon="8.455586023626122"><ele>1043.0</ele><time>2026-04-11T09:53:55Z</time></trkpt><trkpt lat="45.856750537276476" lon="8.45549833702805"><ele>1043.0</ele><time>2026-04-11T09:53:56Z</time></trkpt><trkpt lat="45.85663552104816" lon="8.455409269571504"><ele>1043.0</ele><time>2026-04-11T09:53:57Z</time></trkpt><trkpt lat="45.85651705401446" lon="8.455325141257415"><ele>1043.75</ele><time>2026-04-11T09:53:58Z</time></trkpt><trkpt lat="45.85639654043655" lon="8.45525592679257"><ele>1044.5</ele><time>2026-04-11T09:53:59Z</time></trkpt><trkpt lat="45.85627143664939" lon="8.455191246184004"><ele>1045.25</ele><time>2026-04-11T09:54:00Z</time></trkpt><trkpt lat="45.85614442672186" lon="8.455126633565465"><ele>1046.0</ele><time>2026-04-11T09:54:01Z</time></trkpt><trkpt lat="45.85601525712043" lon="8.455061149090437"><ele>1045.25</ele><time>2026-04-11T09:54:02Z</time></trkpt><trkpt lat="45.855890000679004" lon="8.454996420892327"><ele>1044.5</ele><time>2026-04-11T09:54:03Z</time></trkpt><trkpt lat="45.85576631494125" lon="8.45493158626561"><ele>1043.75</ele><time>2026-04-11T09:54:04Z</time></trkpt><trkpt lat="45.8556438598968" lon="8.454897278644049"><ele>1043.0</ele><time>2026-04-11T09:54:05Z</time></trkpt><trkpt lat="45.855520179559335" lon="8.454863585695518"><ele>1043.0</ele><time>2026-04-11T09:54:06Z</time></trkpt><trkpt lat="45.855395913501276" lon="8.454832805575446"><ele>1043.0</ele><time>2026-04-11T09:54:07Z</time></trkpt><trkpt lat="45.85527143491448" lon="8.454802446835645"><ele>1043.0</ele><time>2026-04-11T09:54:08Z</time></trkpt><trkpt lat="45.85514323201034" lon="8.454782100864296"><ele>1043.0</ele><time>2026-04-11T09:54:09Z</time></trkpt><trkpt lat="45.855015370035254" lon="8.45471511793472"><ele>1041.0</ele><time>2026-04-11T09:54:10Z</time></trkpt><trkpt lat="45.85488480192323" lon="8.454679462781572"><ele>1039.0</ele><time>2026-04-11T09:54:11Z</time></trkpt><trkpt lat="45.854762100300455" lon="8.454632618514747"><ele>1037.0</ele><time>2026-04-11T09:54:12Z</time></trkpt><trkpt lat="45.854645141601964" lon="8.45455870571066"><ele>1035.0</ele><time>2026-04-11T09:54:13Z</time></trkpt><trkpt lat="45.85452051205705" lon="8.454505516192846"><ele>1036.75</ele><time>2026-04-11T09:54:14Z</time></trkpt><trkpt lat="45.85439498778438" lon="8.45444955527125"><ele>1038.5</ele><time>2026-04-11T09:54:15Z</time></trkpt><trkpt lat="45.854271634898566" lon="8.45437126481376"><ele>1040.25</ele><time>2026-04-11T09:54:16Z</time></trkpt><trkpt lat="45.85415089786321" lon="8.454273106269108"><ele>1042.0</ele><time>2026-04-11T09:54:17Z</time></trkpt><trkpt lat="45.854039924822644" lon="8.454157953468318"><ele>1042.0</ele><time>2026-04-11T09:54:18Z</time></trkpt><trkpt lat="45.853938805486045" lon="8.454027228608416"><ele>1042.0</ele><time>2026-04-11T09:54:19Z</time></trkpt><trkpt lat="45.85384587843619" lon="8.453880799748358"><ele>1042.0</ele><time>2026-04-11T09:54:20Z</time></trkpt><trkpt lat="45.853758302002156" lon="8.453724904725538"><ele>1042.0</ele><time>2026-04-11T09:54:21Z</time></trkpt><trkpt lat="45.85369036343253" lon="8.453562342907842"><ele>1044.75</ele><time>2026-04-11T09:54:22Z</time></trkpt><trkpt lat="45.853640769983265" lon="8.453391535975646"><ele>1047.5</ele><time>2026-04-11T09:54:23Z</time></trkpt><trkpt lat="45.853614502841104" lon="8.453223471648199"><ele>1050.25</ele><time>2026-04-11T09:54:24Z</time></trkpt><trkpt lat="45.85356443554835" lon="8.453074086738798"><ele>1053.0</ele><time>2026-04-11T09:54:25Z</time></trkpt><trkpt lat="45.85349564628775" lon="8.452963824712599"><ele>1050.6</ele><time>2026-04-11T09:54:26Z</time></trkpt><trkpt lat="45.85341251697077" lon="8.452878594938143"><ele>1048.1999999999998</ele><time>2026-04-11T09:54:27Z</time></trkpt><trkpt lat="45.85331557959582" lon="8.45282910309267"><ele>1045.8</ele><time>2026-04-11T09:54:28Z</time></trkpt><trkpt lat="45.853206324644276" lon="8.452821870248943"><ele>1043.3999999999999</ele><time>2026-04-11T09:54:29Z</time></trkpt><trkpt lat="45.85309961563128" lon="8.452855279607732"><ele>1041.0</ele><time>2026-04-11T09:54:30Z</time></trkpt><trkpt lat="45.85298979806508" lon="8.452867596185673"><ele>1041.0</ele><time>2026-04-11T09:54:31Z</time></trkpt><trkpt lat="45.85287664962692" lon="8.452892101962696"><ele>1041.0</ele><time>2026-04-11T09:54:32Z</time></trkpt><trkpt lat="45.85275571607983" lon="8.45289602378044"><ele>1041.0</ele><time>2026-04-11T09:54:33Z</time></trkpt><trkpt lat="45.85262999429751" lon="8.452894707985864"><ele>1041.0</ele><time>2026-04-11T09:54:34Z</time></trkpt><trkpt lat="45.852509238803236" lon="8.452859578521204"><ele>1038.2</ele><time>2026-04-11T09:54:35Z</time></trkpt><trkpt lat="45.85239213810922" lon="8.452854839060285"><ele>1035.3999999999999</ele><time>2026-04-11T09:54:36Z</time></trkpt><trkpt lat="45.85228933166205" lon="8.452803568682773"><ele>1032.6</ele><time>2026-04-11T09:54:37Z</time></trkpt><trkpt lat="45.8521927263882" lon="8.452736536022776"><ele>1029.8</ele><time>2026-04-11T09:54:38Z</time></trkpt><trkpt lat="45.85211586680114" lon="8.452615698083276"><ele>1027.0</ele><time>2026-04-11T09:54:39Z</time></trkpt><trkpt lat="45.85206029876679" lon="8.452470487082657"><ele>1027.0</ele><time>2026-04-11T09:54:40Z</time></trkpt><trkpt lat="45.85201196715379" lon="8.45232638503386"><ele>1027.0</ele><time>2026-04-11T09:54:41Z</time></trkpt><trkpt lat="45.85194036006765" lon="8.452216407081751"><ele>1027.0</ele><time>2026-04-11T09:54:42Z</time></trkpt><trkpt lat="45.851862880029174" lon="8.452124167472446"><ele>1027.0</ele><time>2026-04-11T09:54:43Z</time></trkpt><trkpt lat="45.851774975645945" lon="8.452041217904007"><ele>1027.0</ele><time>2026-04-11T09:54:44Z</time></trkpt><trkpt lat="45.85172525666228" lon="8.451922237886745"><ele>1028.8</ele><time>2026-04-11T09:54:45Z</time></trkpt><trkpt lat="45.8517349714251" lon="8.451780030007008"><ele>1030.6</ele><time>2026-04-11T09:54:46Z</time></trkpt><trkpt lat="45.851740924112754" lon="8.451625127030368"><ele>1032.3999999999999</ele><time>2026-04-11T09:54:47Z</time></trkpt><trkpt lat="45.85175042085789" lon="8.451475688133243"><ele>1034.2</ele><time>2026-04-11T09:54:48Z</time></trkpt><trkpt lat="45.8517670872044" lon="8.451331466519534"><ele>1036.0</ele><time>2026-04-11T09:54:49Z</time></trkpt><trkpt lat="45.8517912211951" lon="8.45119980736813"><ele>1036.0</ele><time>2026-04-11T09:54:50Z</time></trkpt><trkpt lat="45.851828758363474" lon="8.45106945746881"><ele>1036.0</ele><time>2026-04-11T09:54:51Z</time></trkpt><trkpt lat="45.851841658235415" lon="8.450922404152308"><ele>1036.0</ele><time>2026-04-11T09:54:52Z</time></trkpt><trkpt lat="45.85179925245279" lon="8.450782162624034"><ele>1036.0</ele><time>2026-04-11T09:54:53Z</time></trkpt><trkpt lat="45.85171676366503" lon="8.450705689479022"><ele>1036.0</ele><time>2026-04-11T09:54:54Z</time></trkpt><trkpt lat="45.85161615477877" lon="8.450684993047494"><ele>1031.2</ele><time>2026-04-11T09:54:55Z</time></trkpt><trkpt lat="45.85150774713949" lon="8.450689532620174"><ele>1026.3999999999999</ele><time>2026-04-11T09:54:56Z</time></trkpt><trkpt lat="45.85140081285826" lon="8.450701444127171"><ele>1021.6</ele><time>2026-04-11T09:54:57Z</time></trkpt><trkpt lat="45.85129594279187" lon="8.450712472210562"><ele>1016.8</ele><time>2026-04-11T09:54:58Z</time></trkpt><trkpt lat="45.85120739151051" lon="8.450710242298804"><ele>1012.0</ele><time>2026-04-11T09:54:59Z</time></trkpt><trkpt lat="45.85112370833593" lon="8.450681809245895"><ele>1012.0</ele><time>2026-04-11T09:55:00Z</time></trkpt><trkpt lat="45.85103386305125" lon="8.450627652034916"><ele>1012.0</ele><time>2026-04-11T09:55:01Z</time></trkpt><trkpt lat="45.85093536126829" lon="8.450558944231801"><ele>1012.0</ele><time>2026-04-11T09:55:02Z</time></trkpt><trkpt lat="45.85083345777115" lon="8.450487865226245"><ele>1012.0</ele><time>2026-04-11T09:55:03Z</time></trkpt><trkpt lat="45.850730382172046" lon="8.450437675700089"><ele>1012.0</ele><time>2026-04-11T09:55:04Z</time></trkpt><trkpt lat="45.850624613702685" lon="8.450366184289543"><ele>1012.25</ele><time>2026-04-11T09:55:05Z</time></trkpt><trkpt lat="45.850518752210924" lon="8.450289169725801"><ele>1012.5</ele><time>2026-04-11T09:55:06Z</time></trkpt><trkpt lat="45.85041697528555" lon="8.450212456546126"><ele>1012.75</ele><time>2026-04-11T09:55:07Z</time></trkpt><trkpt lat="45.850322146862574" lon="8.450135199754369"><ele>1013.0</ele><time>2026-04-11T09:55:08Z</time></trkpt><trkpt lat="45.85022503765477" lon="8.450054309848749"><ele>1013.0</ele><time>2026-04-11T09:55:09Z</time></trkpt><trkpt lat="45.85012614178287" lon="8.449962192129782"><ele>1013.0</ele><time>2026-04-11T09:55:10Z</time></trkpt><trkpt lat="45.85002362515665" lon="8.44987127505522"><ele>1013.0</ele><time>2026-04-11T09:55:11Z</time></trkpt><trkpt lat="45.84994818436914" lon="8.449757176093266"><ele>1013.0</ele><time>2026-04-11T09:55:12Z</time></trkpt><trkpt lat="45.84989081226455" lon="8.449624481220592"><ele>1010.25</ele><time>2026-04-11T09:55:13Z</time></trkpt><trkpt lat="45.84985156678079" lon="8.449489773762997"><ele>1007.5</ele><time>2026-04-11T09:55:14Z</time></trkpt><trkpt lat="45.8498132037362" lon="8.449370135763408"><ele>1004.75</ele><time>2026-04-11T09:55:15Z</time></trkpt><trkpt lat="45.84975888067423" lon="8.449284220701433"><ele>1002.0</ele><time>2026-04-11T09:55:16Z</time></trkpt><trkpt lat="45.84969611417097" lon="8.449048647775623"><ele>1002.0</ele><time>2026-04-11T09:55:17Z</time></trkpt><trkpt lat="45.84957289037352" lon="8.449034834736212"><ele>1002.0</ele><time>2026-04-11T09:55:18Z</time></trkpt><trkpt lat="45.8494589963226" lon="8.449114293608762"><ele>1002.0</ele><time>2026-04-11T09:55:19Z</time></trkpt><trkpt lat="45.849403965383736" lon="8.449187220833966"><ele>1002.0</ele><time>2026-04-11T09:55:20Z</time></trkpt><trkpt lat="45.84929424849675" lon="8.449300313556481"><ele>999.8</ele><time>2026-04-11T09:55:22Z</time></trkpt><trkpt lat="45.849205487327126" lon="8.449367623807694"><ele>997.6</ele><time>2026-04-11T09:55:23Z</time></trkpt><trkpt lat="45.84911611018798" lon="8.449430498610843"><ele>995.3999999999999</ele><time>2026-04-11T09:55:24Z</time></trkpt><trkpt lat="45.849019713891145" lon="8.449492938933483"><ele>993.1999999999999</ele><time>2026-04-11T09:55:25Z</time></trkpt><trkpt lat="45.84892828888214" lon="8.449554901431691"><ele>991.0</ele><time>2026-04-11T09:55:26Z</time></trkpt><trkpt lat="45.84883593528973" lon="8.449581820936196"><ele>991.0</ele><time>2026-04-11T09:55:27Z</time></trkpt><trkpt lat="45.84874374304371" lon="8.449599162479869"><ele>990.9999999999999</ele><time>2026-04-11T09:55:28Z</time></trkpt><trkpt lat="45.848657201526485" lon="8.449592943322427"><ele>990.9999999999999</ele><time>2026-04-11T09:55:29Z</time></trkpt><trkpt lat="45.84856311862211" lon="8.449577148846064"><ele>991.0</ele><time>2026-04-11T09:55:30Z</time></trkpt><trkpt lat="45.84847306777587" lon="8.44951086832205"><ele>991.0</ele><time>2026-04-11T09:55:31Z</time></trkpt><trkpt lat="45.84839928837585" lon="8.449427086429917"><ele>988.1999999999999</ele><time>2026-04-11T09:55:32Z</time></trkpt><trkpt lat="45.84833806474614" lon="8.449327071241031"><ele>985.3999999999999</ele><time>2026-04-11T09:55:33Z</time></trkpt><trkpt lat="45.84829759330941" lon="8.449212781983222"><ele>982.6</ele><time>2026-04-11T09:55:34Z</time></trkpt><trkpt lat="45.848282324561" lon="8.449077916627484"><ele>979.8</ele><time>2026-04-11T09:55:35Z</time></trkpt><trkpt lat="45.84830876297967" lon="8.448932651216706"><ele>977.0</ele><time>2026-04-11T09:55:36Z</time></trkpt><trkpt lat="45.848337576769204" lon="8.448796274022278"><ele>976.8</ele><time>2026-04-11T09:55:37Z</time></trkpt><trkpt lat="45.848360183001944" lon="8.448656217048741"><ele>976.6</ele><time>2026-04-11T09:55:38Z</time></trkpt><trkpt lat="45.848390492824365" lon="8.448513736728351"><ele>976.3999999999999</ele><time>2026-04-11T09:55:39Z</time></trkpt><trkpt lat="45.84838533672433" lon="8.448363833319762"><ele>976.1999999999999</ele><time>2026-04-11T09:55:40Z</time></trkpt><trkpt lat="45.848370367749496" lon="8.448226390609673"><ele>976.0</ele><time>2026-04-11T09:55:41Z</time></trkpt><trkpt lat="45.84838059224615" lon="8.448106525713824"><ele>976.0</ele><time>2026-04-11T09:55:42Z</time></trkpt><trkpt lat="45.84840369721314" lon="8.448010143812374"><ele>975.9999999999999</ele><time>2026-04-11T09:55:43Z</time></trkpt><trkpt lat="45.848427285467146" lon="8.447851992426616"><ele>975.9999999999999</ele><time>2026-04-11T09:55:44Z</time></trkpt><trkpt lat="45.84832848624357" lon="8.447721726567021"><ele>976.0</ele><time>2026-04-11T09:55:45Z</time></trkpt><trkpt lat="45.84823456560924" lon="8.4477144715877"><ele>976.0</ele><time>2026-04-11T09:55:46Z</time></trkpt><trkpt lat="45.848163846300736" lon="8.44772198216032"><ele>978.4999999999999</ele><time>2026-04-11T09:55:47Z</time></trkpt><trkpt lat="45.84808740237753" lon="8.447710816538514"><ele>981.0</ele><time>2026-04-11T09:55:48Z</time></trkpt><trkpt lat="45.84802201070918" lon="8.447685010682141"><ele>983.5</ele><time>2026-04-11T09:55:49Z</time></trkpt><trkpt lat="45.84794479116225" lon="8.447614847347365"><ele>986.0</ele><time>2026-04-11T09:55:50Z</time></trkpt><trkpt lat="45.84787190759465" lon="8.447539774059052"><ele>988.4999999999999</ele><time>2026-04-11T09:55:51Z</time></trkpt><trkpt lat="45.84781619842302" lon="8.44745232534335"><ele>991.0</ele><time>2026-04-11T09:55:52Z</time></trkpt><trkpt lat="45.84778232658258" lon="8.447365183364143"><ele>991.0</ele><time>2026-04-11T09:55:53Z</time></trkpt><trkpt lat="45.84776917448641" lon="8.447246464716226"><ele>991.0</ele><time>2026-04-11T09:55:54Z</time></trkpt><trkpt lat="45.84765924886148" lon="8.447065034492054"><ele>991.0</ele><time>2026-04-11T09:55:55Z</time></trkpt><trkpt lat="45.84755466805192" lon="8.44709481509117"><ele>991.0</ele><time>2026-04-11T09:55:56Z</time></trkpt><trkpt lat="45.847478596247505" lon="8.447218275333272"><ele>987.4999999999999</ele><time>2026-04-11T09:55:57Z</time></trkpt><trkpt lat="45.84743372399611" lon="8.44730236887265"><ele>984.0</ele><time>2026-04-11T09:55:58Z</time></trkpt><trkpt lat="45.8473887123521" lon="8.447372481056012"><ele>980.5</ele><time>2026-04-11T09:55:59Z</time></trkpt><trkpt lat="45.847329943544516" lon="8.44744308792289"><ele>977.0</ele><time>2026-04-11T09:56:01Z</time></trkpt><trkpt lat="45.84725974534262" lon="8.447435818301427"><ele>973.4999999999999</ele><time>2026-04-11T09:56:02Z</time></trkpt><trkpt lat="45.84717873035676" lon="8.447391592823935"><ele>970.0</ele><time>2026-04-11T09:56:03Z</time></trkpt><trkpt lat="45.84710487744337" lon="8.447318908727095"><ele>970.0</ele><time>2026-04-11T09:56:04Z</time></trkpt><trkpt lat="45.84700492383266" lon="8.447262682450662"><ele>970.0</ele><time>2026-04-11T09:56:05Z</time></trkpt><trkpt lat="45.846895653836604" lon="8.447240955181833"><ele>970.0</ele><time>2026-04-11T09:56:06Z</time></trkpt><trkpt lat="45.8467921839993" lon="8.447262195589232"><ele>970.0</ele><time>2026-04-11T09:56:07Z</time></trkpt><trkpt lat="45.84668545051452" lon="8.447330103877649"><ele>970.0</ele><time>2026-04-11T09:56:08Z</time></trkpt><trkpt lat="45.846597302310734" lon="8.44740692120607"><ele>969.4</ele><time>2026-04-11T09:56:09Z</time></trkpt><trkpt lat="45.84651481768469" lon="8.447485372366419"><ele>968.8</ele><time>2026-04-11T09:56:10Z</time></trkpt><trkpt lat="45.84647697964361" lon="8.4476934506177"><ele>968.2</ele><time>2026-04-11T09:56:11Z</time></trkpt><trkpt lat="45.84639283935001" lon="8.44777895520453"><ele>967.6</ele><time>2026-04-11T09:56:12Z</time></trkpt><trkpt lat="45.846304688284626" lon="8.447822471508577"><ele>967.0</ele><time>2026-04-11T09:56:13Z</time></trkpt><trkpt lat="45.84620877590699" lon="8.447846373179175"><ele>967.0</ele><time>2026-04-11T09:56:14Z</time></trkpt><trkpt lat="45.84610036399481" lon="8.447785503992874"><ele>967.0</ele><time>2026-04-11T09:56:15Z</time></trkpt><trkpt lat="45.84600611584892" lon="8.447806541281077"><ele>967.0</ele><time>2026-04-11T09:56:16Z</time></trkpt><trkpt lat="45.845905132218284" lon="8.44783414237313"><ele>967.0</ele><time>2026-04-11T09:56:17Z</time></trkpt><trkpt lat="45.84579681714194" lon="8.447839726156184"><ele>967.0</ele><time>2026-04-11T09:56:18Z</time></trkpt><trkpt lat="45.84568818694457" lon="8.447849185860909"><ele>967.8</ele><time>2026-04-11T09:56:19Z</time></trkpt><trkpt lat="45.84557629286592" lon="8.447832711931344"><ele>968.6</ele><time>2026-04-11T09:56:20Z</time></trkpt><trkpt lat="45.8454837176011" lon="8.44791629360471"><ele>969.3999999999999</ele><time>2026-04-11T09:56:21Z</time></trkpt><trkpt lat="45.84538368118845" lon="8.447939965779454"><ele>970.1999999999999</ele><time>2026-04-11T09:56:22Z</time></trkpt><trkpt lat="45.845289759713026" lon="8.447998736228763"><ele>971.0</ele><time>2026-04-11T09:56:23Z</time></trkpt><trkpt lat="45.84519347978894" lon="8.448021932843309"><ele>966.8</ele><time>2026-04-11T09:56:24Z</time></trkpt><trkpt lat="45.845097862342755" lon="8.448021147446699"><ele>962.5999999999999</ele><time>2026-04-11T09:56:25Z</time></trkpt><trkpt lat="45.845005246429224" lon="8.448018740836448"><ele>958.4</ele><time>2026-04-11T09:56:26Z</time></trkpt><trkpt lat="45.844920419809014" lon="8.448002862672368"><ele>954.2</ele><time>2026-04-11T09:56:27Z</time></trkpt><trkpt lat="45.844837471071145" lon="8.447970503374677"><ele>950.0</ele><time>2026-04-11T09:56:28Z</time></trkpt><trkpt lat="45.84474683592771" lon="8.447963380379377"><ele>952.0</ele><time>2026-04-11T09:56:29Z</time></trkpt><trkpt lat="45.844656044406825" lon="8.447906011491847"><ele>954.0</ele><time>2026-04-11T09:56:30Z</time></trkpt><trkpt lat="45.844567429765554" lon="8.447812691347275"><ele>956.0</ele><time>2026-04-11T09:56:31Z</time></trkpt><trkpt lat="45.84449835538212" lon="8.447703541701818"><ele>958.0</ele><time>2026-04-11T09:56:32Z</time></trkpt><trkpt lat="45.84444001834137" lon="8.447583702089437"><ele>960.0</ele><time>2026-04-11T09:56:33Z</time></trkpt><trkpt lat="45.844393942512745" lon="8.447479348150859"><ele>960.0</ele><time>2026-04-11T09:56:34Z</time></trkpt><trkpt lat="45.844327496788544" lon="8.447395639105736"><ele>960.0</ele><time>2026-04-11T09:56:35Z</time></trkpt><trkpt lat="45.844238547765485" lon="8.447344184696888"><ele>960.0</ele><time>2026-04-11T09:56:36Z</time></trkpt><trkpt lat="45.84414463142687" lon="8.447298278238836"><ele>960.0</ele><time>2026-04-11T09:56:37Z</time></trkpt><trkpt lat="45.844072173630046" lon="8.447208267396173"><ele>960.0</ele><time>2026-04-11T09:56:38Z</time></trkpt><trkpt lat="45.8439630824224" lon="8.44716798265691"><ele>955.5</ele><time>2026-04-11T09:56:39Z</time></trkpt><trkpt lat="45.84387785342383" lon="8.446979568569152"><ele>951.0</ele><time>2026-04-11T09:56:40Z</time></trkpt><trkpt lat="45.8438793525597" lon="8.44682212917575"><ele>946.5</ele><time>2026-04-11T09:56:41Z</time></trkpt><trkpt lat="45.843874743403504" lon="8.446687797916614"><ele>942.0</ele><time>2026-04-11T09:56:42Z</time></trkpt><trkpt lat="45.843860381519534" lon="8.44655677991708"><ele>942.0</ele><time>2026-04-11T09:56:43Z</time></trkpt><trkpt lat="45.84384316914374" lon="8.446439033212416"><ele>942.0</ele><time>2026-04-11T09:56:44Z</time></trkpt><trkpt lat="45.843827459835495" lon="8.446344429081169"><ele>942.0</ele><time>2026-04-11T09:56:45Z</time></trkpt><trkpt lat="45.843813451919175" lon="8.44622029707931"><ele>942.0</ele><time>2026-04-11T09:56:46Z</time></trkpt><trkpt lat="45.84373551966909" lon="8.44601362593128"><ele>942.0</ele><time>2026-04-11T09:56:47Z</time></trkpt><trkpt lat="45.843644741795764" lon="8.446007419548081"><ele>941.0</ele><time>2026-04-11T09:56:48Z</time></trkpt><trkpt lat="45.84353711321463" lon="8.446003226868928"><ele>940.0</ele><time>2026-04-11T09:56:49Z</time></trkpt><trkpt lat="45.84343401900596" lon="8.44602762116287"><ele>939.0</ele><time>2026-04-11T09:56:50Z</time></trkpt><trkpt lat="45.843350765132946" lon="8.446042557631156"><ele>938.0</ele><time>2026-04-11T09:56:51Z</time></trkpt><trkpt lat="45.84327298004072" lon="8.446050387785263"><ele>937.0</ele><time>2026-04-11T09:56:51.999Z</time></trkpt><trkpt lat="45.843192883936766" lon="8.446057357886767"><ele>937.0</ele><time>2026-04-11T09:56:52.999Z</time></trkpt><trkpt lat="45.843100686072624" lon="8.446035888056938"><ele>937.0</ele><time>2026-04-11T09:56:53.999Z</time></trkpt><trkpt lat="45.84301657463242" lon="8.445969750306496"><ele>937.0</ele><time>2026-04-11T09:56:54.999Z</time></trkpt><trkpt lat="45.842937573516416" lon="8.445883278597089"><ele>937.0</ele><time>2026-04-11T09:56:55.999Z</time></trkpt><trkpt lat="45.84286489055343" lon="8.4457861335167"><ele>937.0</ele><time>2026-04-11T09:56:56.999Z</time></trkpt><trkpt lat="45.84278118104941" lon="8.445722604767683"><ele>937.0</ele><time>2026-04-11T09:56:57.999Z</time></trkpt><trkpt lat="45.84269759728808" lon="8.445649913107657"><ele>937.0</ele><time>2026-04-11T09:56:58.999Z</time></trkpt><trkpt lat="45.84259466286797" lon="8.445571144627477"><ele>937.0</ele><time>2026-04-11T09:56:59.999Z</time></trkpt><trkpt lat="45.84248559291899" lon="8.445407277815935"><ele>937.0</ele><time>2026-04-11T09:57:00.999Z</time></trkpt><trkpt lat="45.842419818907246" lon="8.445228646412653"><ele>934.4000000000001</ele><time>2026-04-11T09:57:01.999Z</time></trkpt><trkpt lat="45.84236782050041" lon="8.445057547776937"><ele>931.8000000000001</ele><time>2026-04-11T09:57:02.999Z</time></trkpt><trkpt lat="45.842322940545536" lon="8.444932892883298"><ele>929.2</ele><time>2026-04-11T09:57:03.999Z</time></trkpt><trkpt lat="45.84226359489156" lon="8.444793692387906"><ele>926.6</ele><time>2026-04-11T09:57:04.999Z</time></trkpt><trkpt lat="45.84220899698272" lon="8.444665628533823"><ele>924.0</ele><time>2026-04-11T09:57:05.999Z</time></trkpt><trkpt lat="45.842273097800486" lon="8.4444467856746"><ele>923.5</ele><time>2026-04-11T09:57:06.999Z</time></trkpt><trkpt lat="45.8422119711178" lon="8.444336699486838"><ele>923.0</ele><time>2026-04-11T09:57:07.999Z</time></trkpt><trkpt lat="45.84216918370595" lon="8.444228475617223"><ele>922.5</ele><time>2026-04-11T09:57:08.999Z</time></trkpt><trkpt lat="45.84212015281921" lon="8.444144205940505"><ele>922.0</ele><time>2026-04-11T09:57:09.999Z</time></trkpt><trkpt lat="45.84204131428223" lon="8.444115563031474"><ele>921.5</ele><time>2026-04-11T09:57:10.999Z</time></trkpt><trkpt lat="45.841962407887046" lon="8.44412945890132"><ele>921.0</ele><time>2026-04-11T09:57:11.999Z</time></trkpt><trkpt lat="45.84179836410558" lon="8.44400710872492"><ele>918.4</ele><time>2026-04-11T09:57:12.999Z</time></trkpt><trkpt lat="45.84172555793418" lon="8.44407772784812"><ele>915.8</ele><time>2026-04-11T09:57:13.999Z</time></trkpt><trkpt lat="45.8416972306808" lon="8.443926596080779"><ele>913.1999999999999</ele><time>2026-04-11T09:57:14.999Z</time></trkpt><trkpt lat="45.84160764885803" lon="8.44395320163731"><ele>910.5999999999999</ele><time>2026-04-11T09:57:15.999Z</time></trkpt><trkpt lat="45.84152431828659" lon="8.444029699940094"><ele>908.0</ele><time>2026-04-11T09:57:16.999Z</time></trkpt><trkpt lat="45.841448546634126" lon="8.444080160606564"><ele>908.0</ele><time>2026-04-11T09:57:17.999Z</time></trkpt><trkpt lat="45.8413300894269" lon="8.444071544058087"><ele>908.0</ele><time>2026-04-11T09:57:18.999Z</time></trkpt><trkpt lat="45.84118359959373" lon="8.44398506027655"><ele>908.0</ele><time>2026-04-11T09:57:19.999Z</time></trkpt><trkpt lat="45.84107273619595" lon="8.443875821148339"><ele>908.0</ele><time>2026-04-11T09:57:20.999Z</time></trkpt><trkpt lat="45.84095918952733" lon="8.443776921739104"><ele>905.75</ele><time>2026-04-11T09:57:21.999Z</time></trkpt><trkpt lat="45.840833268063754" lon="8.443668676337277"><ele>903.5</ele><time>2026-04-11T09:57:22.999Z</time></trkpt><trkpt lat="45.84070961998243" lon="8.443567662310963"><ele>901.25</ele><time>2026-04-11T09:57:23.999Z</time></trkpt><trkpt lat="45.84059370117549" lon="8.443478398917575"><ele>899.0</ele><time>2026-04-11T09:57:24.999Z</time></trkpt><trkpt lat="45.84046068507507" lon="8.443397672874932"><ele>899.0</ele><time>2026-04-11T09:57:25.999Z</time></trkpt><trkpt lat="45.8403434675832" lon="8.443334886390986"><ele>899.0</ele><time>2026-04-11T09:57:26.999Z</time></trkpt><trkpt lat="45.84022708845235" lon="8.443277585861928"><ele>899.0</ele><time>2026-04-11T09:57:27.999Z</time></trkpt><trkpt lat="45.84010207065074" lon="8.443221101111476"><ele>899.0</ele><time>2026-04-11T09:57:28.999Z</time></trkpt><trkpt lat="45.83998619247556" lon="8.443168623365594"><ele>898.75</ele><time>2026-04-11T09:57:29.999Z</time></trkpt><trkpt lat="45.83984955868279" lon="8.443114210599825"><ele>898.5</ele><time>2026-04-11T09:57:30.999Z</time></trkpt><trkpt lat="45.83971077647292" lon="8.443060297005234"><ele>898.25</ele><time>2026-04-11T09:57:31.999Z</time></trkpt><trkpt lat="45.83957492429491" lon="8.442994071981266"><ele>898.0</ele><time>2026-04-11T09:57:32.999Z</time></trkpt><trkpt lat="45.839431190074485" lon="8.442908917396672"><ele>894.0</ele><time>2026-04-11T09:57:33.999Z</time></trkpt><trkpt lat="45.83929584709724" lon="8.442824789210508"><ele>890.0</ele><time>2026-04-11T09:57:34.999Z</time></trkpt><trkpt lat="45.83916962034633" lon="8.442743345349614"><ele>886.0</ele><time>2026-04-11T09:57:35.999Z</time></trkpt><trkpt lat="45.83902854002911" lon="8.442738962735929"><ele>882.0</ele><time>2026-04-11T09:57:36.999Z</time></trkpt><trkpt lat="45.83890475504837" lon="8.442667520949474"><ele>882.0</ele><time>2026-04-11T09:57:37.999Z</time></trkpt><trkpt lat="45.838785461590156" lon="8.442590116795872"><ele>882.0</ele><time>2026-04-11T09:57:38.999Z</time></trkpt><trkpt lat="45.838659079574875" lon="8.442513015807492"><ele>882.0</ele><time>2026-04-11T09:57:39.999Z</time></trkpt><trkpt lat="45.838540618662776" lon="8.442430424968427"><ele>882.0</ele><time>2026-04-11T09:57:40.999Z</time></trkpt><trkpt lat="45.838439970321005" lon="8.442329493589366"><ele>883.75</ele><time>2026-04-11T09:57:41.999Z</time></trkpt><trkpt lat="45.83835917439733" lon="8.442222296096855"><ele>885.5</ele><time>2026-04-11T09:57:42.999Z</time></trkpt><trkpt lat="45.83827450322935" lon="8.442128286594315"><ele>887.25</ele><time>2026-04-11T09:57:43.999Z</time></trkpt><trkpt lat="45.83816995649322" lon="8.442049059118444"><ele>889.0</ele><time>2026-04-11T09:57:44.999Z</time></trkpt><trkpt lat="45.83805089449895" lon="8.441994180783"><ele>885.5</ele><time>2026-04-11T09:57:45.999Z</time></trkpt><trkpt lat="45.83792202555883" lon="8.441954475418559"><ele>882.0</ele><time>2026-04-11T09:57:46.999Z</time></trkpt><trkpt lat="45.83778438252855" lon="8.44191444275225"><ele>878.5</ele><time>2026-04-11T09:57:47.999Z</time></trkpt><trkpt lat="45.83766585519492" lon="8.441837744138274"><ele>875.0</ele><time>2026-04-11T09:57:48.999Z</time></trkpt><trkpt lat="45.837539757982846" lon="8.44175033527598"><ele>875.0</ele><time>2026-04-11T09:57:49.999Z</time></trkpt><trkpt lat="45.83741278856805" lon="8.44166666785018"><ele>875.0</ele><time>2026-04-11T09:57:50.999Z</time></trkpt><trkpt lat="45.8372886281423" lon="8.441581026852853"><ele>875.0</ele><time>2026-04-11T09:57:51.999Z</time></trkpt><trkpt lat="45.837171818846734" lon="8.44149483245123"><ele>875.0</ele><time>2026-04-11T09:57:52.999Z</time></trkpt><trkpt lat="45.837059502428055" lon="8.441403536051258"><ele>875.0</ele><time>2026-04-11T09:57:53.999Z</time></trkpt><trkpt lat="45.83693840914716" lon="8.441338626791481"><ele>875.0</ele><time>2026-04-11T09:57:54.999Z</time></trkpt><trkpt lat="45.836824045140666" lon="8.441243747583627"><ele>875.0</ele><time>2026-04-11T09:57:55.999Z</time></trkpt><trkpt lat="45.836701558767174" lon="8.441182767698056"><ele>875.0</ele><time>2026-04-11T09:57:56.999Z</time></trkpt><trkpt lat="45.83659296271232" lon="8.441101623247313"><ele>870.0</ele><time>2026-04-11T09:57:57.999Z</time></trkpt><trkpt lat="45.836487211567295" lon="8.441020416447872"><ele>865.0</ele><time>2026-04-11T09:57:58.999Z</time></trkpt><trkpt lat="45.83637831872829" lon="8.440964079115597"><ele>860.0</ele><time>2026-04-11T09:57:59.999Z</time></trkpt><trkpt lat="45.83626744615096" lon="8.44092657502434"><ele>855.0</ele><time>2026-04-11T09:58:00.999Z</time></trkpt><trkpt lat="45.83614798490456" lon="8.440900485491259"><ele>855.0</ele><time>2026-04-11T09:58:01.999Z</time></trkpt><trkpt lat="45.836026611794956" lon="8.440881386004008"><ele>855.0</ele><time>2026-04-11T09:58:02.999Z</time></trkpt><trkpt lat="45.83590559767907" lon="8.440859108226544"><ele>855.0</ele><time>2026-04-11T09:58:03.999Z</time></trkpt><trkpt lat="45.83578492851118" lon="8.440848118302826"><ele>855.0</ele><time>2026-04-11T09:58:04.999Z</time></trkpt><trkpt lat="45.835668634697214" lon="8.440846213157588"><ele>853.8</ele><time>2026-04-11T09:58:05.999Z</time></trkpt><trkpt lat="45.83556313343058" lon="8.440803908275793"><ele>852.6</ele><time>2026-04-11T09:58:06.999Z</time></trkpt><trkpt lat="45.8355094867969" lon="8.440684580197978"><ele>851.4000000000001</ele><time>2026-04-11T09:58:07.999Z</time></trkpt><trkpt lat="45.83545029972794" lon="8.440558580463923"><ele>850.2</ele><time>2026-04-11T09:58:08.999Z</time></trkpt><trkpt lat="45.8353713851719" lon="8.440432588234223"><ele>849.0</ele><time>2026-04-11T09:58:09.999Z</time></trkpt><trkpt lat="45.83526365271216" lon="8.440358207748519"><ele>844.5</ele><time>2026-04-11T09:58:10.999Z</time></trkpt><trkpt lat="45.83515014244644" lon="8.44028910334085"><ele>840.0</ele><time>2026-04-11T09:58:11.999Z</time></trkpt><trkpt lat="45.83503045448122" lon="8.440227532600028"><ele>835.5</ele><time>2026-04-11T09:58:12.999Z</time></trkpt><trkpt lat="45.834902416117885" lon="8.440200753472574"><ele>831.0</ele><time>2026-04-11T09:58:13.999Z</time></trkpt><trkpt lat="45.83476982772918" lon="8.440233990825792"><ele>831.0</ele><time>2026-04-11T09:58:14.999Z</time></trkpt><trkpt lat="45.834645048955494" lon="8.440284668432152"><ele>831.0</ele><time>2026-04-11T09:58:15.999Z</time></trkpt><trkpt lat="45.83452818861839" lon="8.440338270362316"><ele>831.0</ele><time>2026-04-11T09:58:16.999Z</time></trkpt><trkpt lat="45.83441001334288" lon="8.440347146607353"><ele>831.0</ele><time>2026-04-11T09:58:17.999Z</time></trkpt><trkpt lat="45.83429591483239" lon="8.440364365895057"><ele>831.0</ele><time>2026-04-11T09:58:18.999Z</time></trkpt><trkpt lat="45.834194770444505" lon="8.440335246643814"><ele>831.0</ele><time>2026-04-11T09:58:19.999Z</time></trkpt><trkpt lat="45.834101228034285" lon="8.440285419085033"><ele>831.0</ele><time>2026-04-11T09:58:20.999Z</time></trkpt><trkpt lat="45.83400787971068" lon="8.440223750715747"><ele>831.0</ele><time>2026-04-11T09:58:21.999Z</time></trkpt><trkpt lat="45.833903622633606" lon="8.440176098257767"><ele>831.0</ele><time>2026-04-11T09:58:22.999Z</time></trkpt><trkpt lat="45.833790016305564" lon="8.440141382778926"><ele>831.0</ele><time>2026-04-11T09:58:23.999Z</time></trkpt><trkpt lat="45.83368387153978" lon="8.440109150735957"><ele>831.0</ele><time>2026-04-11T09:58:24.999Z</time></trkpt><trkpt lat="45.83357477465665" lon="8.440088265177238"><ele>831.0</ele><time>2026-04-11T09:58:25.999Z</time></trkpt><trkpt lat="45.83347195925728" lon="8.44003850260514"><ele>831.0</ele><time>2026-04-11T09:58:26.999Z</time></trkpt><trkpt lat="45.83337353340089" lon="8.439996413873233"><ele>831.0</ele><time>2026-04-11T09:58:27.999Z</time></trkpt><trkpt lat="45.833274563466546" lon="8.43998076236222"><ele>829.25</ele><time>2026-04-11T09:58:28.999Z</time></trkpt><trkpt lat="45.83317049437075" lon="8.439939244971638"><ele>827.5</ele><time>2026-04-11T09:58:30.002Z</time></trkpt><trkpt lat="45.83306200888409" lon="8.439866954978434"><ele>825.75</ele><time>2026-04-11T09:58:31.002Z</time></trkpt><trkpt lat="45.832967482848495" lon="8.439791082413"><ele>824.0</ele><time>2026-04-11T09:58:32.002Z</time></trkpt><trkpt lat="45.83284176484965" lon="8.439774900571896"><ele>824.0</ele><time>2026-04-11T09:58:33.001Z</time></trkpt><trkpt lat="45.83273760938556" lon="8.439691098082008"><ele>824.0</ele><time>2026-04-11T09:58:34.001Z</time></trkpt><trkpt lat="45.832619220607164" lon="8.439614589429741"><ele>824.0</ele><time>2026-04-11T09:58:35.001Z</time></trkpt><trkpt lat="45.83249426917241" lon="8.439555127011007"><ele>824.0</ele><time>2026-04-11T09:58:36.001Z</time></trkpt><trkpt lat="45.83236398091757" lon="8.43950421527109"><ele>824.25</ele><time>2026-04-11T09:58:37.001Z</time></trkpt><trkpt lat="45.832236515272065" lon="8.439466537499452"><ele>824.5</ele><time>2026-04-11T09:58:38.001Z</time></trkpt><trkpt lat="45.83211204757416" lon="8.43944420336881"><ele>824.75</ele><time>2026-04-11T09:58:39.001Z</time></trkpt><trkpt lat="45.83198306588343" lon="8.439415859441622"><ele>825.0</ele><time>2026-04-11T09:58:40.001Z</time></trkpt><trkpt lat="45.83187262816904" lon="8.439371899154294"><ele>822.25</ele><time>2026-04-11T09:58:41.001Z</time></trkpt><trkpt lat="45.831773365467704" lon="8.439286701988692"><ele>819.5</ele><time>2026-04-11T09:58:42.001Z</time></trkpt><trkpt lat="45.83168120474211" lon="8.43916063217617"><ele>816.75</ele><time>2026-04-11T09:58:43.001Z</time></trkpt><trkpt lat="45.83158063947158" lon="8.439025877743836"><ele>814.0</ele><time>2026-04-11T09:58:44.001Z</time></trkpt><trkpt lat="45.83146516301475" lon="8.438909004424215"><ele>814.0</ele><time>2026-04-11T09:58:45.001Z</time></trkpt><trkpt lat="45.83135987611741" lon="8.438804792999603"><ele>814.0</ele><time>2026-04-11T09:58:46.001Z</time></trkpt><trkpt lat="45.83125309376357" lon="8.438699101627511"><ele>814.0</ele><time>2026-04-11T09:58:47Z</time></trkpt><trkpt lat="45.831150015695286" lon="8.438598371963957"><ele>814.0</ele><time>2026-04-11T09:58:48Z</time></trkpt><trkpt lat="45.83105291431757" lon="8.438492664835042"><ele>812.0</ele><time>2026-04-11T09:58:49Z</time></trkpt><trkpt lat="45.83096445427023" lon="8.438386281891503"><ele>810.0</ele><time>2026-04-11T09:58:50Z</time></trkpt><trkpt lat="45.8308887053202" lon="8.438243589426625"><ele>808.0</ele><time>2026-04-11T09:58:51Z</time></trkpt><trkpt lat="45.830821435053416" lon="8.438098558243896"><ele>806.0</ele><time>2026-04-11T09:58:52Z</time></trkpt><trkpt lat="45.83072449483909" lon="8.438004888955076"><ele>800.5</ele><time>2026-04-11T09:58:53Z</time></trkpt><trkpt lat="45.83061595980114" lon="8.437899839289113"><ele>795.0</ele><time>2026-04-11T09:58:54Z</time></trkpt><trkpt lat="45.83048129557903" lon="8.437849159818882"><ele>789.5</ele><time>2026-04-11T09:58:55Z</time></trkpt><trkpt lat="45.83035428113667" lon="8.437835707019447"><ele>784.0</ele><time>2026-04-11T09:58:56Z</time></trkpt><trkpt lat="45.83022843839498" lon="8.437844032295983"><ele>783.6</ele><time>2026-04-11T09:58:57Z</time></trkpt><trkpt lat="45.83010900237968" lon="8.437808863396798"><ele>783.2</ele><time>2026-04-11T09:58:58.001Z</time></trkpt><trkpt lat="45.83000608558111" lon="8.437784084221642"><ele>782.8000000000001</ele><time>2026-04-11T09:58:59.001Z</time></trkpt><trkpt lat="45.829914237014215" lon="8.437683645537353"><ele>782.4000000000001</ele><time>2026-04-11T09:59:00.001Z</time></trkpt><trkpt lat="45.829848641205345" lon="8.437597852813596"><ele>782.0</ele><time>2026-04-11T09:59:01.001Z</time></trkpt><trkpt lat="45.829786032173715" lon="8.437519909517533"><ele>782.0</ele><time>2026-04-11T09:59:02.001Z</time></trkpt><trkpt lat="45.829723363613546" lon="8.437490195143578"><ele>782.0</ele><time>2026-04-11T09:59:03.001Z</time></trkpt><trkpt lat="45.82965828958036" lon="8.437493614110974"><ele>782.0</ele><time>2026-04-11T09:59:04.001Z</time></trkpt><trkpt lat="45.82956049912728" lon="8.437596948119152"><ele>782.0</ele><time>2026-04-11T09:59:06.001Z</time></trkpt><trkpt lat="45.829560204371084" lon="8.437772449264328"><ele>782.0</ele><time>2026-04-11T09:59:07.001Z</time></trkpt><trkpt lat="45.82953713129117" lon="8.437950274035805"><ele>785.25</ele><time>2026-04-11T09:59:08.001Z</time></trkpt><trkpt lat="45.829526516944654" lon="8.438146032043875"><ele>788.5</ele><time>2026-04-11T09:59:09.001Z</time></trkpt><trkpt lat="45.82951877184705" lon="8.438323726134593"><ele>791.75</ele><time>2026-04-11T09:59:10.001Z</time></trkpt><trkpt lat="45.82952485586997" lon="8.438503676491836"><ele>795.0</ele><time>2026-04-11T09:59:11.001Z</time></trkpt><trkpt lat="45.82956589918216" lon="8.43868327084699"><ele>793.6</ele><time>2026-04-11T09:59:12.001Z</time></trkpt><trkpt lat="45.82961996081653" lon="8.438856081517562"><ele>792.2</ele><time>2026-04-11T09:59:13.001Z</time></trkpt><trkpt lat="45.829664310810614" lon="8.43899219229253"><ele>790.8</ele><time>2026-04-11T09:59:14.001Z</time></trkpt><trkpt lat="45.82970790810756" lon="8.439125566063694"><ele>789.4</ele><time>2026-04-11T09:59:15.001Z</time></trkpt><trkpt lat="45.82975281677412" lon="8.43926451041808"><ele>788.0</ele><time>2026-04-11T09:59:16.001Z</time></trkpt><trkpt lat="45.82981530370645" lon="8.439366181996418"><ele>788.0000000000001</ele><time>2026-04-11T09:59:17.001Z</time></trkpt><trkpt lat="45.829877158417034" lon="8.439447087355267"><ele>788.0</ele><time>2026-04-11T09:59:18.001Z</time></trkpt><trkpt lat="45.82993474263415" lon="8.43950548906749"><ele>788.0</ele><time>2026-04-11T09:59:19.001Z</time></trkpt><trkpt lat="45.829988337847205" lon="8.439599409799973"><ele>788.0</ele><time>2026-04-11T09:59:21.001Z</time></trkpt><trkpt lat="45.82992540864903" lon="8.439625409742645"><ele>788.0000000000001</ele><time>2026-04-11T09:59:22.001Z</time></trkpt><trkpt lat="45.829857357104906" lon="8.43957797066763"><ele>788.0</ele><time>2026-04-11T09:59:23.001Z</time></trkpt><trkpt lat="45.82977632322451" lon="8.43950577802744"><ele>788.0</ele><time>2026-04-11T09:59:24.001Z</time></trkpt><trkpt lat="45.82968034708441" lon="8.439457094259366"><ele>788.0</ele><time>2026-04-11T09:59:25.001Z</time></trkpt><trkpt lat="45.829596789810964" lon="8.439424020663935"><ele>788.0</ele><time>2026-04-11T09:59:26.001Z</time></trkpt><trkpt lat="45.82950441823325" lon="8.439418624840377"><ele>788.0</ele><time>2026-04-11T09:59:27.001Z</time></trkpt><trkpt lat="45.82940160323685" lon="8.439461118063408"><ele>788.0</ele><time>2026-04-11T09:59:28.001Z</time></trkpt><trkpt lat="45.82931024608866" lon="8.439484107106386"><ele>782.75</ele><time>2026-04-11T09:59:29Z</time></trkpt><trkpt lat="45.82921848329043" lon="8.43949187445895"><ele>777.5</ele><time>2026-04-11T09:59:30Z</time></trkpt><trkpt lat="45.829071995966736" lon="8.43942465046506"><ele>772.25</ele><time>2026-04-11T09:59:31Z</time></trkpt><trkpt lat="45.82897118417894" lon="8.439328070226859"><ele>767.0</ele><time>2026-04-11T09:59:32Z</time></trkpt><trkpt lat="45.82886544653187" lon="8.439237688502695"><ele>767.0</ele><time>2026-04-11T09:59:33Z</time></trkpt><trkpt lat="45.828765386824884" lon="8.439195887289237"><ele>767.0</ele><time>2026-04-11T09:59:34Z</time></trkpt><trkpt lat="45.82864760761039" lon="8.439176831617072"><ele>767.0</ele><time>2026-04-11T09:59:35Z</time></trkpt><trkpt lat="45.828530117274" lon="8.439141443046003"><ele>767.0</ele><time>2026-04-11T09:59:36Z</time></trkpt><trkpt lat="45.82840820500448" lon="8.439151436166217"><ele>763.2</ele><time>2026-04-11T09:59:37Z</time></trkpt><trkpt lat="45.828297605123545" lon="8.439170220498937"><ele>759.4000000000001</ele><time>2026-04-11T09:59:38Z</time></trkpt><trkpt lat="45.82819047030224" lon="8.439228483438407"><ele>755.5999999999999</ele><time>2026-04-11T09:59:39Z</time></trkpt><trkpt lat="45.82807850567743" lon="8.439296077567954"><ele>751.8</ele><time>2026-04-11T09:59:40Z</time></trkpt><trkpt lat="45.82797924216398" lon="8.43932848577606"><ele>748.0</ele><time>2026-04-11T09:59:41Z</time></trkpt><trkpt lat="45.82787089044131" lon="8.439323935902511"><ele>748.0</ele><time>2026-04-11T09:59:42Z</time></trkpt><trkpt lat="45.82776300572732" lon="8.439268030359976"><ele>748.0</ele><time>2026-04-11T09:59:43Z</time></trkpt><trkpt lat="45.82765987188422" lon="8.43919394789837"><ele>748.0</ele><time>2026-04-11T09:59:44Z</time></trkpt><trkpt lat="45.82757190842437" lon="8.439104102862808"><ele>748.0</ele><time>2026-04-11T09:59:45Z</time></trkpt><trkpt lat="45.82750934722309" lon="8.438992855661343"><ele>748.0</ele><time>2026-04-11T09:59:46Z</time></trkpt><trkpt lat="45.82750478931459" lon="8.438858354007547"><ele>742.0</ele><time>2026-04-11T09:59:47Z</time></trkpt><trkpt lat="45.827499702483756" lon="8.438735303035969"><ele>736.0</ele><time>2026-04-11T09:59:48Z</time></trkpt><trkpt lat="45.82752262153082" lon="8.438573718293513"><ele>730.0</ele><time>2026-04-11T09:59:49Z</time></trkpt><trkpt lat="45.827554075556485" lon="8.438397571820202"><ele>724.0</ele><time>2026-04-11T09:59:50Z</time></trkpt><trkpt lat="45.827580540433516" lon="8.438218431433958"><ele>724.0</ele><time>2026-04-11T09:59:51Z</time></trkpt><trkpt lat="45.82761123541316" lon="8.438052506647653"><ele>724.0</ele><time>2026-04-11T09:59:52Z</time></trkpt><trkpt lat="45.82765493400611" lon="8.43788345386949"><ele>724.0</ele><time>2026-04-11T09:59:53Z</time></trkpt><trkpt lat="45.827725642585335" lon="8.43774279768596"><ele>724.0</ele><time>2026-04-11T09:59:54Z</time></trkpt><trkpt lat="45.82778840685594" lon="8.437584403646504"><ele>725.5</ele><time>2026-04-11T09:59:55Z</time></trkpt><trkpt lat="45.82784050351831" lon="8.437418135993406"><ele>727.0</ele><time>2026-04-11T09:59:56Z</time></trkpt><trkpt lat="45.827875767537165" lon="8.43725661572909"><ele>728.5</ele><time>2026-04-11T09:59:57Z</time></trkpt><trkpt lat="45.82793941467442" lon="8.43711933496957"><ele>730.0</ele><time>2026-04-11T09:59:58Z</time></trkpt><trkpt lat="45.828003449024536" lon="8.436993968347638"><ele>730.0</ele><time>2026-04-11T09:59:59Z</time></trkpt><trkpt lat="45.82806149234649" lon="8.43687175689151"><ele>730.0</ele><time>2026-04-11T10:00:00Z</time></trkpt><trkpt lat="45.828116488902594" lon="8.436732765279341"><ele>730.0</ele><time>2026-04-11T10:00:01Z</time></trkpt><trkpt lat="45.82812807931798" lon="8.436588603275451"><ele>730.0</ele><time>2026-04-11T10:00:02Z</time></trkpt><trkpt lat="45.82812632494544" lon="8.43645060575293"><ele>730.0</ele><time>2026-04-11T10:00:03Z</time></trkpt><trkpt lat="45.82818254477315" lon="8.436323019057008"><ele>730.5</ele><time>2026-04-11T10:00:04Z</time></trkpt><trkpt lat="45.82825753057338" lon="8.436199202144046"><ele>731.0</ele><time>2026-04-11T10:00:05Z</time></trkpt><trkpt lat="45.828333284976424" lon="8.43607227196407"><ele>731.5</ele><time>2026-04-11T10:00:06Z</time></trkpt><trkpt lat="45.82841331115292" lon="8.43594599391566"><ele>732.0</ele><time>2026-04-11T10:00:07Z</time></trkpt><trkpt lat="45.8284934014182" lon="8.435812859556469"><ele>732.0</ele><time>2026-04-11T10:00:08Z</time></trkpt><trkpt lat="45.82858735830022" lon="8.435688301784712"><ele>732.0</ele><time>2026-04-11T10:00:09Z</time></trkpt><trkpt lat="45.828692723379795" lon="8.435578158068227"><ele>732.0</ele><time>2026-04-11T10:00:10Z</time></trkpt><trkpt lat="45.82878888117792" lon="8.435466552138239"><ele>732.0</ele><time>2026-04-11T10:00:11Z</time></trkpt><trkpt lat="45.828862889542656" lon="8.435337970707042"><ele>726.8</ele><time>2026-04-11T10:00:12Z</time></trkpt><trkpt lat="45.828943181982176" lon="8.435231440448277"><ele>721.6</ele><time>2026-04-11T10:00:13Z</time></trkpt><trkpt lat="45.829010591303245" lon="8.435123533069861"><ele>716.4</ele><time>2026-04-11T10:00:14Z</time></trkpt><trkpt lat="45.829085431774665" lon="8.435030650394992"><ele>711.1999999999999</ele><time>2026-04-11T10:00:15Z</time></trkpt><trkpt lat="45.82915895451498" lon="8.434921181211319"><ele>706.0</ele><time>2026-04-11T10:00:16Z</time></trkpt><trkpt lat="45.82926033719126" lon="8.434858024067136"><ele>707.25</ele><time>2026-04-11T10:00:17Z</time></trkpt><trkpt lat="45.82937272681822" lon="8.434823239364107"><ele>708.5</ele><time>2026-04-11T10:00:18Z</time></trkpt><trkpt lat="45.829486543598286" lon="8.434808908473217"><ele>709.75</ele><time>2026-04-11T10:00:19Z</time></trkpt><trkpt lat="45.8295974032535" lon="8.434801029859871"><ele>711.0</ele><time>2026-04-11T10:00:20Z</time></trkpt><trkpt lat="45.82971206036757" lon="8.434794829075274"><ele>711.0</ele><time>2026-04-11T10:00:21Z</time></trkpt><trkpt lat="45.82983440813295" lon="8.434806938548707"><ele>711.0</ele><time>2026-04-11T10:00:22Z</time></trkpt><trkpt lat="45.82994680693654" lon="8.434853922647818"><ele>711.0</ele><time>2026-04-11T10:00:23Z</time></trkpt><trkpt lat="45.8300563126308" lon="8.434869481638247"><ele>711.0</ele><time>2026-04-11T10:00:24Z</time></trkpt><trkpt lat="45.83016521371999" lon="8.43488084214501"><ele>710.5</ele><time>2026-04-11T10:00:25Z</time></trkpt><trkpt lat="45.83028424787997" lon="8.434876241699339"><ele>710.0</ele><time>2026-04-11T10:00:26Z</time></trkpt><trkpt lat="45.83040160392222" lon="8.434841308018315"><ele>709.5</ele><time>2026-04-11T10:00:27Z</time></trkpt><trkpt lat="45.83051218801116" lon="8.434790145029439"><ele>709.0</ele><time>2026-04-11T10:00:28Z</time></trkpt><trkpt lat="45.83062015138349" lon="8.434768468565803"><ele>709.0</ele><time>2026-04-11T10:00:29Z</time></trkpt><trkpt lat="45.83072429542508" lon="8.434745992906597"><ele>709.0</ele><time>2026-04-11T10:00:30Z</time></trkpt><trkpt lat="45.83082718278202" lon="8.434703359797266"><ele>709.0</ele><time>2026-04-11T10:00:31Z</time></trkpt><trkpt lat="45.83092423206878" lon="8.43468324081483"><ele>709.0</ele><time>2026-04-11T10:00:32Z</time></trkpt><trkpt lat="45.83102482971054" lon="8.434683528019976"><ele>709.0</ele><time>2026-04-11T10:00:33Z</time></trkpt><trkpt lat="45.83112156965072" lon="8.434626602709724"><ele>703.8000000000001</ele><time>2026-04-11T10:00:34Z</time></trkpt><trkpt lat="45.8312257404694" lon="8.43458717213547"><ele>698.6</ele><time>2026-04-11T10:00:35Z</time></trkpt><trkpt lat="45.83131644472666" lon="8.434509933283394"><ele>693.4</ele><time>2026-04-11T10:00:36Z</time></trkpt><trkpt lat="45.83139604891835" lon="8.434441905850917"><ele>688.2</ele><time>2026-04-11T10:00:37Z</time></trkpt><trkpt lat="45.831462123698216" lon="8.434376704774412"><ele>683.0</ele><time>2026-04-11T10:00:38Z</time></trkpt><trkpt lat="45.83152758251058" lon="8.434366867781561"><ele>683.0</ele><time>2026-04-11T10:00:39Z</time></trkpt><trkpt lat="45.83167708673424" lon="8.434393435485788"><ele>683.0</ele><time>2026-04-11T10:00:41Z</time></trkpt><trkpt lat="45.83176186860199" lon="8.434315698465179"><ele>683.0</ele><time>2026-04-11T10:00:42Z</time></trkpt><trkpt lat="45.831627339549726" lon="8.43405518562622"><ele>683.0</ele><time>2026-04-11T10:00:46Z</time></trkpt><trkpt lat="45.831543295803144" lon="8.434044463898832"><ele>683.0</ele><time>2026-04-11T10:00:47Z</time></trkpt><trkpt lat="45.831464119306524" lon="8.434027985555085"><ele>683.0</ele><time>2026-04-11T10:00:48Z</time></trkpt><trkpt lat="45.83136009956363" lon="8.434006162505236"><ele>683.0</ele><time>2026-04-11T10:00:49Z</time></trkpt><trkpt lat="45.83125721331745" lon="8.4339905274617"><ele>683.0</ele><time>2026-04-11T10:00:50Z</time></trkpt><trkpt lat="45.83114736060451" lon="8.433977638746367"><ele>683.0</ele><time>2026-04-11T10:00:51Z</time></trkpt><trkpt lat="45.83106594248863" lon="8.433966954379592"><ele>683.0</ele><time>2026-04-11T10:00:52Z</time></trkpt><trkpt lat="45.830978497236636" lon="8.433932431750504"><ele>683.0</ele><time>2026-04-11T10:00:53Z</time></trkpt><trkpt lat="45.830876149061886" lon="8.43388078453407"><ele>683.0</ele><time>2026-04-11T10:00:54Z</time></trkpt><trkpt lat="45.830765811342516" lon="8.433846018452272"><ele>683.0</ele><time>2026-04-11T10:00:55Z</time></trkpt><trkpt lat="45.830664167752026" lon="8.433816959943792"><ele>677.5999999999999</ele><time>2026-04-11T10:00:56Z</time></trkpt><trkpt lat="45.83057497341682" lon="8.433776654463967"><ele>672.1999999999999</ele><time>2026-04-11T10:00:57Z</time></trkpt><trkpt lat="45.830478006125276" lon="8.433718146192403"><ele>666.8</ele><time>2026-04-11T10:00:58Z</time></trkpt><trkpt lat="45.83037364796268" lon="8.433646222662496"><ele>661.4</ele><time>2026-04-11T10:00:59Z</time></trkpt><trkpt lat="45.83027282605143" lon="8.433560006461816"><ele>656.0</ele><time>2026-04-11T10:01:00Z</time></trkpt><trkpt lat="45.830176515670935" lon="8.433475075585509"><ele>655.25</ele><time>2026-04-11T10:01:01Z</time></trkpt><trkpt lat="45.830077645379696" lon="8.43337830348565"><ele>654.5</ele><time>2026-04-11T10:01:02Z</time></trkpt><trkpt lat="45.82997309797119" lon="8.43328401137983"><ele>653.75</ele><time>2026-04-11T10:01:03Z</time></trkpt><trkpt lat="45.82986156893245" lon="8.433202152723508"><ele>653.0</ele><time>2026-04-11T10:01:04Z</time></trkpt><trkpt lat="45.82973938470488" lon="8.433125452318782"><ele>653.0</ele><time>2026-04-11T10:01:05Z</time></trkpt><trkpt lat="45.82960895115243" lon="8.433058692926124"><ele>653.0</ele><time>2026-04-11T10:01:06Z</time></trkpt><trkpt lat="45.829487747295865" lon="8.433012722763547"><ele>653.0</ele><time>2026-04-11T10:01:07Z</time></trkpt><trkpt lat="45.82936168594995" lon="8.432964800662667"><ele>653.0</ele><time>2026-04-11T10:01:08Z</time></trkpt><trkpt lat="45.82924528864582" lon="8.432916305024545"><ele>645.3333333333333</ele><time>2026-04-11T10:01:09Z</time></trkpt><trkpt lat="45.82912125509275" lon="8.432880917853764"><ele>637.6666666666666</ele><time>2026-04-11T10:01:10Z</time></trkpt><trkpt lat="45.828988728889485" lon="8.432805504838406"><ele>630.0</ele><time>2026-04-11T10:01:11Z</time></trkpt><trkpt lat="45.82880788620358" lon="8.432754223678488"><ele>630.0</ele><time>2026-04-11T10:01:12Z</time></trkpt><trkpt lat="45.82862826938685" lon="8.432771826530804"><ele>630.0</ele><time>2026-04-11T10:01:13Z</time></trkpt><trkpt lat="45.8284707624649" lon="8.432792335902638"><ele>630.0</ele><time>2026-04-11T10:01:14Z</time></trkpt><trkpt lat="45.82831052516192" lon="8.432811901277336"><ele>626.6666666666666</ele><time>2026-04-11T10:01:15Z</time></trkpt><trkpt lat="45.82813469432291" lon="8.432833370603849"><ele>623.3333333333333</ele><time>2026-04-11T10:01:16Z</time></trkpt><trkpt lat="45.827958725012294" lon="8.43285485693467"><ele>620.0</ele><time>2026-04-11T10:01:17Z</time></trkpt><trkpt lat="45.82777831198598" lon="8.432891758619888"><ele>615.3333333333333</ele><time>2026-04-11T10:01:18Z</time></trkpt><trkpt lat="45.827600878960425" lon="8.43291152409714"><ele>610.6666666666666</ele><time>2026-04-11T10:01:19Z</time></trkpt><trkpt lat="45.82743697388704" lon="8.432933123944544"><ele>606.0</ele><time>2026-04-11T10:01:20Z</time></trkpt><trkpt lat="45.82729887563958" lon="8.432940947103077"><ele>606.0</ele><time>2026-04-11T10:01:21Z</time></trkpt><trkpt lat="45.8271832806689" lon="8.432939916084113"><ele>606.0</ele><time>2026-04-11T10:01:22Z</time></trkpt><trkpt lat="45.827065083976954" lon="8.432947483003828"><ele>606.0</ele><time>2026-04-11T10:01:23Z</time></trkpt><trkpt lat="45.82695323094045" lon="8.432980576822029"><ele>606.0</ele><time>2026-04-11T10:01:24Z</time></trkpt><trkpt lat="45.82684678839953" lon="8.433057624032157"><ele>607.0</ele><time>2026-04-11T10:01:25Z</time></trkpt><trkpt lat="45.82674086650551" lon="8.433137936305718"><ele>608.0</ele><time>2026-04-11T10:01:26Z</time></trkpt><trkpt lat="45.826615880848244" lon="8.433188037238558"><ele>609.0</ele><time>2026-04-11T10:01:27Z</time></trkpt><trkpt lat="45.826488534922504" lon="8.433245892878718"><ele>610.0</ele><time>2026-04-11T10:01:28Z</time></trkpt><trkpt lat="45.82635456558399" lon="8.433279626222399"><ele>610.0</ele><time>2026-04-11T10:01:29Z</time></trkpt><trkpt lat="45.826240382725544" lon="8.433414762932506"><ele>610.0</ele><time>2026-04-11T10:01:30Z</time></trkpt><trkpt lat="45.8261413573529" lon="8.433520170690175"><ele>610.0</ele><time>2026-04-11T10:01:31Z</time></trkpt><trkpt lat="45.82604462688748" lon="8.433618931651848"><ele>610.0</ele><time>2026-04-11T10:01:32Z</time></trkpt><trkpt lat="45.825948920383475" lon="8.433738142699585"><ele>607.25</ele><time>2026-04-11T10:01:33Z</time></trkpt><trkpt lat="45.82586126661259" lon="8.433878392199508"><ele>604.5</ele><time>2026-04-11T10:01:34Z</time></trkpt><trkpt lat="45.8257747311118" lon="8.43402660004815"><ele>601.75</ele><time>2026-04-11T10:01:35Z</time></trkpt><trkpt lat="45.82569089539316" lon="8.434153430371145"><ele>599.0</ele><time>2026-04-11T10:01:36Z</time></trkpt><trkpt lat="45.82559773059017" lon="8.434294555833926"><ele>599.0</ele><time>2026-04-11T10:01:37Z</time></trkpt><trkpt lat="45.82551505161049" lon="8.434422608914169"><ele>599.0</ele><time>2026-04-11T10:01:38Z</time></trkpt><trkpt lat="45.82542458394285" lon="8.434555986861712"><ele>599.0</ele><time>2026-04-11T10:01:39Z</time></trkpt><trkpt lat="45.825332710766894" lon="8.434609645127708"><ele>599.0</ele><time>2026-04-11T10:01:40Z</time></trkpt><trkpt lat="45.82521223950216" lon="8.434694697500962"><ele>594.0</ele><time>2026-04-11T10:01:41Z</time></trkpt><trkpt lat="45.82509897825669" lon="8.434775593014683"><ele>589.0</ele><time>2026-04-11T10:01:42Z</time></trkpt><trkpt lat="45.82500065129874" lon="8.434879602739226"><ele>584.0</ele><time>2026-04-11T10:01:43Z</time></trkpt><trkpt lat="45.82489487855437" lon="8.434941148126013"><ele>579.0</ele><time>2026-04-11T10:01:44Z</time></trkpt><trkpt lat="45.82479279273433" lon="8.435001787422244"><ele>579.0</ele><time>2026-04-11T10:01:45Z</time></trkpt><trkpt lat="45.824718357952264" lon="8.435100930881267"><ele>579.0</ele><time>2026-04-11T10:01:46Z</time></trkpt><trkpt lat="45.82470685716525" lon="8.435230291994639"><ele>579.0</ele><time>2026-04-11T10:01:47Z</time></trkpt><trkpt lat="45.824688004435096" lon="8.435364245322045"><ele>579.0</ele><time>2026-04-11T10:01:48Z</time></trkpt><trkpt lat="45.82471827317857" lon="8.435487085690351"><ele>579.0</ele><time>2026-04-11T10:01:49Z</time></trkpt><trkpt lat="45.82473981464785" lon="8.43559969490906"><ele>582.2</ele><time>2026-04-11T10:01:50Z</time></trkpt><trkpt lat="45.824680812594494" lon="8.435676404278018"><ele>585.4</ele><time>2026-04-11T10:01:51Z</time></trkpt><trkpt lat="45.82460117814776" lon="8.435705636954637"><ele>588.6</ele><time>2026-04-11T10:01:52Z</time></trkpt><trkpt lat="45.82450323769476" lon="8.435736727121842"><ele>591.8</ele><time>2026-04-11T10:01:53Z</time></trkpt><trkpt lat="45.824403726377945" lon="8.43579081782142"><ele>595.0</ele><time>2026-04-11T10:01:54Z</time></trkpt><trkpt lat="45.82430986366589" lon="8.435852554255334"><ele>585.5</ele><time>2026-04-11T10:01:55Z</time></trkpt><trkpt lat="45.824223234938685" lon="8.435939979832284"><ele>576.0</ele><time>2026-04-11T10:01:56Z</time></trkpt><trkpt lat="45.8241274075613" lon="8.436009701099449"><ele>566.5</ele><time>2026-04-11T10:01:57Z</time></trkpt><trkpt lat="45.824011362180954" lon="8.436112286546619"><ele>557.0</ele><time>2026-04-11T10:01:58Z</time></trkpt><trkpt lat="45.82393813060186" lon="8.43622602880822"><ele>560.0</ele><time>2026-04-11T10:01:59Z</time></trkpt><trkpt lat="45.823873816208796" lon="8.436335107640103"><ele>563.0</ele><time>2026-04-11T10:02:00Z</time></trkpt><trkpt lat="45.82380675068471" lon="8.436453704968688"><ele>566.0</ele><time>2026-04-11T10:02:01Z</time></trkpt><trkpt lat="45.82374874084445" lon="8.436588569530505"><ele>569.0</ele><time>2026-04-11T10:02:02Z</time></trkpt><trkpt lat="45.82372042325882" lon="8.436764024272957"><ele>572.0</ele><time>2026-04-11T10:02:03Z</time></trkpt><trkpt lat="45.82370346303747" lon="8.436916448730083"><ele>572.0</ele><time>2026-04-11T10:02:04Z</time></trkpt><trkpt lat="45.823690756814266" lon="8.437065903505705"><ele>572.0</ele><time>2026-04-11T10:02:05Z</time></trkpt><trkpt lat="45.823678826678204" lon="8.437218077087048"><ele>572.0</ele><time>2026-04-11T10:02:06Z</time></trkpt><trkpt lat="45.82366698236066" lon="8.437360199278638"><ele>572.0</ele><time>2026-04-11T10:02:07Z</time></trkpt><trkpt lat="45.82364802520542" lon="8.43750712417257"><ele>572.0</ele><time>2026-04-11T10:02:08Z</time></trkpt><trkpt lat="45.82362656495705" lon="8.43764523465835"><ele>574.3333333333333</ele><time>2026-04-11T10:02:09Z</time></trkpt><trkpt lat="45.82360689109536" lon="8.4377718505192"><ele>576.6666666666666</ele><time>2026-04-11T10:02:10Z</time></trkpt><trkpt lat="45.82358526832075" lon="8.437893261920411"><ele>579.0</ele><time>2026-04-11T10:02:11Z</time></trkpt><trkpt lat="45.823567877587294" lon="8.437996067959157"><ele>581.3333333333334</ele><time>2026-04-11T10:02:12Z</time></trkpt><trkpt lat="45.82355001066923" lon="8.43810168968602"><ele>583.6666666666667</ele><time>2026-04-11T10:02:13Z</time></trkpt><trkpt lat="45.82353168979513" lon="8.438210517581087"><ele>586.0</ele><time>2026-04-11T10:02:14Z</time></trkpt><trkpt lat="45.82351598532926" lon="8.438309006386664"><ele>587.1666666666667</ele><time>2026-04-11T10:02:15Z</time></trkpt><trkpt lat="45.823500291219155" lon="8.43840743035235"><ele>588.3333333333334</ele><time>2026-04-11T10:02:16Z</time></trkpt><trkpt lat="45.82347441310827" lon="8.438564901349466"><ele>589.5</ele><time>2026-04-11T10:02:17.999Z</time></trkpt><trkpt lat="45.823492870015464" lon="8.438666098442097"><ele>590.6666666666666</ele><time>2026-04-11T10:02:20.999Z</time></trkpt><trkpt lat="45.82341640118561" lon="8.438685059547886"><ele>591.8333333333333</ele><time>2026-04-11T10:02:22.999Z</time></trkpt><trkpt lat="45.82336613038232" lon="8.43861689364381"><ele>593.0</ele><time>2026-04-11T10:02:23.999Z</time></trkpt><trkpt lat="45.823316906884855" lon="8.438553826856236"><ele>584.4</ele><time>2026-04-11T10:02:24.999Z</time></trkpt><trkpt lat="45.8232343399099" lon="8.43844056554887"><ele>575.8</ele><time>2026-04-11T10:02:26.999Z</time></trkpt><trkpt lat="45.82316848230344" lon="8.438319065103489"><ele>567.2</ele><time>2026-04-11T10:02:28.999Z</time></trkpt><trkpt lat="45.8231003020389" lon="8.438225920579768"><ele>558.6</ele><time>2026-04-11T10:02:30.999Z</time></trkpt><trkpt lat="45.823058426413986" lon="8.438140294193493"><ele>550.0</ele><time>2026-04-11T10:02:32.999Z</time></trkpt><trkpt lat="45.82300559534868" lon="8.438090427605841"><ele>550.0</ele><time>2026-04-11T10:02:34.999Z</time></trkpt><trkpt lat="45.82296210714155" lon="8.438021702971696"><ele>550.0</ele><time>2026-04-11T10:02:37.999Z</time></trkpt><trkpt lat="45.822912987217094" lon="8.437942972718895"><ele>550.0</ele><time>2026-04-11T10:02:41.999Z</time></trkpt><trkpt lat="45.82296992835927" lon="8.437735829664645"><ele>550.0</ele><time>2026-04-11T10:02:44.999Z</time></trkpt><trkpt lat="45.82301632692847" lon="8.437592149131943"><ele>550.0</ele><time>2026-04-11T10:02:46.999Z</time></trkpt><trkpt lat="45.82304976644197" lon="8.437464155421988"><ele>549.1666666666667</ele><time>2026-04-11T10:02:48.999Z</time></trkpt><trkpt lat="45.82307550677811" lon="8.437338351102605"><ele>548.3333333333334</ele><time>2026-04-11T10:02:50.999Z</time></trkpt><trkpt lat="45.82308973084524" lon="8.437247230107252"><ele>547.5</ele><time>2026-04-11T10:02:51.999Z</time></trkpt><trkpt lat="45.82310916110689" lon="8.437117111100475"><ele>546.6666666666666</ele><time>2026-04-11T10:02:53.999Z</time></trkpt><trkpt lat="45.823108589010296" lon="8.4369995318211"><ele>545.8333333333333</ele><time>2026-04-11T10:02:55.999Z</time></trkpt><trkpt lat="45.82312806417058" lon="8.436852316970883"><ele>545.0</ele><time>2026-04-11T10:02:57.999Z</time></trkpt><trkpt lat="45.82306012407851" lon="8.436719056075269"><ele>544.0</ele><time>2026-04-11T10:02:59.999Z</time></trkpt><trkpt lat="45.82309016877381" lon="8.43656282217767"><ele>543.0</ele><time>2026-04-11T10:03:01.999Z</time></trkpt><trkpt lat="45.82308790055269" lon="8.436410230089441"><ele>542.0</ele><time>2026-04-11T10:03:03.999Z</time></trkpt><trkpt lat="45.82308390486691" lon="8.436293290520315"><ele>541.0</ele><time>2026-04-11T10:03:05.999Z</time></trkpt><trkpt lat="45.823107917257836" lon="8.436179591648232"><ele>540.0</ele><time>2026-04-11T10:03:07.999Z</time></trkpt><trkpt lat="45.82314267583837" lon="8.436038818220512"><ele>538.6666666666666</ele><time>2026-04-11T10:03:09.999Z</time></trkpt><trkpt lat="45.82318651601256" lon="8.43594081157162"><ele>537.3333333333334</ele><time>2026-04-11T10:03:11.999Z</time></trkpt><trkpt lat="45.8232390828042" lon="8.435830473569533"><ele>536.0</ele><time>2026-04-11T10:03:13.999Z</time></trkpt><trkpt lat="45.8232828583674" lon="8.435715843045546"><ele>534.6666666666667</ele><time>2026-04-11T10:03:15.999Z</time></trkpt><trkpt lat="45.8233635795674" lon="8.43569787412456"><ele>533.3333333333334</ele><time>2026-04-11T10:03:16.999Z</time></trkpt><trkpt lat="45.82337981096856" lon="8.435602367265474"><ele>532.0</ele><time>2026-04-11T10:03:17.999Z</time></trkpt><trkpt lat="45.82345863927496" lon="8.435463161777902"><ele>534.2</ele><time>2026-04-11T10:03:19.999Z</time></trkpt><trkpt lat="45.82349393743477" lon="8.435387283554496"><ele>536.4000000000001</ele><time>2026-04-11T10:03:20.999Z</time></trkpt><trkpt lat="45.82350479698806" lon="8.435209271430523"><ele>538.5999999999999</ele><time>2026-04-11T10:03:22.999Z</time></trkpt><trkpt lat="45.82355657481335" lon="8.435047843297243"><ele>540.8</ele><time>2026-04-11T10:03:24.999Z</time></trkpt><trkpt lat="45.823635866296776" lon="8.43499938772825"><ele>543.0</ele><time>2026-04-11T10:03:25.999Z</time></trkpt><trkpt lat="45.82367923248479" lon="8.434846269763284"><ele>543.0</ele><time>2026-04-11T10:03:27.999Z</time></trkpt><trkpt lat="45.82369143884304" lon="8.43467234661697"><ele>543.0</ele><time>2026-04-11T10:03:29.999Z</time></trkpt><trkpt lat="45.82376689546886" lon="8.434558401803576"><ele>543.0</ele><time>2026-04-11T10:03:31.999Z</time></trkpt><trkpt lat="45.82382875072956" lon="8.434433819787445"><ele>543.0</ele><time>2026-04-11T10:03:33.999Z</time></trkpt><trkpt lat="45.82379771650471" lon="8.43429472870531"><ele>543.0</ele><time>2026-04-11T10:03:35.999Z</time></trkpt><trkpt lat="45.82376612670716" lon="8.434135541844887"><ele>540.4</ele><time>2026-04-11T10:03:37.999Z</time></trkpt><trkpt lat="45.823746966811036" lon="8.43399400934976"><ele>537.8</ele><time>2026-04-11T10:03:39.999Z</time></trkpt><trkpt lat="45.823746473730466" lon="8.433897867916619"><ele>535.2</ele><time>2026-04-11T10:03:41.999Z</time></trkpt><trkpt lat="45.823736021381684" lon="8.433796815940454"><ele>532.6</ele><time>2026-04-11T10:04:51.999Z</time></trkpt><trkpt lat="45.82364754980156" lon="8.433737819974356"><ele>530.0</ele><time>2026-04-11T10:04:52.999Z</time></trkpt><trkpt lat="45.82350410541372" lon="8.433747771721343"><ele>526.2</ele><time>2026-04-11T10:04:54.999Z</time></trkpt><trkpt lat="45.823415605630636" lon="8.433760209726461"><ele>522.4</ele><time>2026-04-11T10:04:55.999Z</time></trkpt><trkpt lat="45.82331543735592" lon="8.433770937754321"><ele>518.6</ele><time>2026-04-11T10:04:56.999Z</time></trkpt><trkpt lat="45.82320603139126" lon="8.433778458763474"><ele>514.8</ele><time>2026-04-11T10:04:57.999Z</time></trkpt><trkpt lat="45.82308858807261" lon="8.433781402902682"><ele>511.0</ele><time>2026-04-11T10:04:58.999Z</time></trkpt><trkpt lat="45.82296964573162" lon="8.433773683466164"><ele>511.0</ele><time>2026-04-11T10:04:59.999Z</time></trkpt><trkpt lat="45.82284505457614" lon="8.433775774282582"><ele>511.0</ele><time>2026-04-11T10:05:00.999Z</time></trkpt><trkpt lat="45.82272448213566" lon="8.433737603207163"><ele>511.0</ele><time>2026-04-11T10:05:01.999Z</time></trkpt><trkpt lat="45.822601722112054" lon="8.433728247880044"><ele>511.0</ele><time>2026-04-11T10:05:02.999Z</time></trkpt><trkpt lat="45.82246922126679" lon="8.433753421618931"><ele>511.5</ele><time>2026-04-11T10:05:03.999Z</time></trkpt><trkpt lat="45.82235641805698" lon="8.433844559254819"><ele>512.0</ele><time>2026-04-11T10:05:04.999Z</time></trkpt><trkpt lat="45.822263588898934" lon="8.433928133221212"><ele>512.5</ele><time>2026-04-11T10:05:05.999Z</time></trkpt><trkpt lat="45.82214547382487" lon="8.434008079531102"><ele>513.0</ele><time>2026-04-11T10:05:06.999Z</time></trkpt><trkpt lat="45.8221081098684" lon="8.434128290665056"><ele>513.0</ele><time>2026-04-11T10:05:07.999Z</time></trkpt><trkpt lat="45.8221100041337" lon="8.434278965225092"><ele>513.0</ele><time>2026-04-11T10:05:08.999Z</time></trkpt><trkpt lat="45.82215733466093" lon="8.434401443463468"><ele>513.0</ele><time>2026-04-11T10:05:09.999Z</time></trkpt><trkpt lat="45.822203395796514" lon="8.434503518959579"><ele>513.0</ele><time>2026-04-11T10:05:10.999Z</time></trkpt><trkpt lat="45.822235165549756" lon="8.43460441972826"><ele>513.0</ele><time>2026-04-11T10:05:11.999Z</time></trkpt><trkpt lat="45.82224561608768" lon="8.43474655909509"><ele>514.5</ele><time>2026-04-11T10:05:12.999Z</time></trkpt><trkpt lat="45.82226628078212" lon="8.434902121189662"><ele>516.0</ele><time>2026-04-11T10:05:13.999Z</time></trkpt><trkpt lat="45.82226760412289" lon="8.435067707124658"><ele>517.5</ele><time>2026-04-11T10:05:14.999Z</time></trkpt><trkpt lat="45.82225813759174" lon="8.435233270009459"><ele>519.0</ele><time>2026-04-11T10:05:15.998Z</time></trkpt><trkpt lat="45.82229092054079" lon="8.43538604366634"><ele>519.8</ele><time>2026-04-11T10:05:16.998Z</time></trkpt><trkpt lat="45.8223024727688" lon="8.43554171098586"><ele>520.5999999999999</ele><time>2026-04-11T10:05:17.998Z</time></trkpt><trkpt lat="45.82232315043801" lon="8.43569286643442"><ele>521.4</ele><time>2026-04-11T10:05:18.998Z</time></trkpt><trkpt lat="45.822329256535504" lon="8.435830410359829"><ele>522.1999999999999</ele><time>2026-04-11T10:05:19.998Z</time></trkpt><trkpt lat="45.822314907404184" lon="8.4359728445646"><ele>523.0</ele><time>2026-04-11T10:05:20.998Z</time></trkpt><trkpt lat="45.822300055467004" lon="8.43612253621016"><ele>522.9999999999999</ele><time>2026-04-11T10:05:21.998Z</time></trkpt><trkpt lat="45.82229312245898" lon="8.436248738023812"><ele>523.0</ele><time>2026-04-11T10:05:22.998Z</time></trkpt><trkpt lat="45.82228879775821" lon="8.436352167174661"><ele>523.0</ele><time>2026-04-11T10:05:23.998Z</time></trkpt><trkpt lat="45.8222846464474" lon="8.436451449533056"><ele>523.0</ele><time>2026-04-11T10:05:24.998Z</time></trkpt><trkpt lat="45.82228224763593" lon="8.436551913148513"><ele>523.0</ele><time>2026-04-11T10:05:25.998Z</time></trkpt><trkpt lat="45.82228100943327" lon="8.436650967897478"><ele>522.9999999999999</ele><time>2026-04-11T10:05:26.998Z</time></trkpt><trkpt lat="45.82227972245836" lon="8.436753924364117"><ele>523.0</ele><time>2026-04-11T10:05:27.998Z</time></trkpt><trkpt lat="45.82231763826864" lon="8.436869222091099"><ele>524.0</ele><time>2026-04-11T10:05:28.998Z</time></trkpt><trkpt lat="45.822337928428325" lon="8.4369650813526"><ele>525.0</ele><time>2026-04-11T10:05:29.998Z</time></trkpt><trkpt lat="45.8223786132281" lon="8.43706124298785"><ele>526.0</ele><time>2026-04-11T10:05:30.998Z</time></trkpt><trkpt lat="45.82235595760169" lon="8.437177124263545"><ele>527.0</ele><time>2026-04-11T10:05:31.998Z</time></trkpt><trkpt lat="45.82233692920647" lon="8.43730909680037"><ele>528.0</ele><time>2026-04-11T10:05:32.998Z</time></trkpt><trkpt lat="45.82231565375136" lon="8.43744276642367"><ele>529.0</ele><time>2026-04-11T10:05:33.998Z</time></trkpt><trkpt lat="45.82229299063844" lon="8.43758161353286"><ele>529.8333333333334</ele><time>2026-04-11T10:05:34.998Z</time></trkpt><trkpt lat="45.8222708777365" lon="8.437716936549705"><ele>530.6666666666667</ele><time>2026-04-11T10:05:36.001Z</time></trkpt><trkpt lat="45.82224901920623" lon="8.437850702959874"><ele>531.5</ele><time>2026-04-11T10:05:37.001Z</time></trkpt><trkpt lat="45.82222846883591" lon="8.43797646379079"><ele>532.3333333333334</ele><time>2026-04-11T10:05:38.001Z</time></trkpt><trkpt lat="45.82222450444436" lon="8.438102745022114"><ele>533.1666666666666</ele><time>2026-04-11T10:05:39.001Z</time></trkpt><trkpt lat="45.822206647185716" lon="8.438209932987474"><ele>534.0</ele><time>2026-04-11T10:05:40.001Z</time></trkpt><trkpt lat="45.82219142523136" lon="8.438305549981967"><ele>535.0</ele><time>2026-04-11T10:05:41.001Z</time></trkpt><trkpt lat="45.82215274346586" lon="8.438439875992858"><ele>536.0</ele><time>2026-04-11T10:05:43.001Z</time></trkpt><trkpt lat="45.822139020168365" lon="8.438538501782844"><ele>537.0</ele><time>2026-04-11T10:05:45.001Z</time></trkpt><trkpt lat="45.822246121779536" lon="8.438531960813421"><ele>538.0</ele><time>2026-04-11T10:06:02Z</time></trkpt><trkpt lat="45.82233264479375" lon="8.438458240625213"><ele>539.0</ele><time>2026-04-11T10:06:04Z</time></trkpt><trkpt lat="45.8224110484502" lon="8.438423108797783"><ele>539.0</ele><time>2026-04-11T10:06:06Z</time></trkpt><trkpt lat="45.8225235406911" lon="8.438356234486474"><ele>539.0</ele><time>2026-04-11T10:06:08Z</time></trkpt><trkpt lat="45.82257448786315" lon="8.438301644595299"><ele>539.0</ele><time>2026-04-11T10:06:09Z</time></trkpt><trkpt lat="45.82263898982404" lon="8.438190543378486"><ele>539.0</ele><time>2026-04-11T10:06:11Z</time></trkpt><trkpt lat="45.822695486123095" lon="8.43810781583158"><ele>539.0</ele><time>2026-04-11T10:06:14Z</time></trkpt><trkpt lat="45.82283762472477" lon="8.438178782427537"><ele>540.8333333333333</ele><time>2026-04-11T10:06:21Z</time></trkpt><trkpt lat="45.822822113179754" lon="8.438312335364245"><ele>542.6666666666666</ele><time>2026-04-11T10:06:23Z</time></trkpt><trkpt lat="45.822815972415555" lon="8.438416759503982"><ele>544.5</ele><time>2026-04-11T10:06:25Z</time></trkpt><trkpt lat="45.8228081937439" lon="8.438559026251506"><ele>546.3333333333334</ele><time>2026-04-11T10:06:27Z</time></trkpt><trkpt lat="45.822801889842765" lon="8.438670157023283"><ele>548.1666666666667</ele><time>2026-04-11T10:06:29Z</time></trkpt><trkpt lat="45.82279567107938" lon="8.438766698864278"><ele>550.0</ele><time>2026-04-11T10:06:31Z</time></trkpt><trkpt lat="45.82278943801966" lon="8.438863464166287"><ele>550.8</ele><time>2026-04-11T10:06:33Z</time></trkpt><trkpt lat="45.82278432643145" lon="8.438999844508542"><ele>551.6</ele><time>2026-04-11T10:06:35Z</time></trkpt><trkpt lat="45.82274175583461" lon="8.439137309240822"><ele>552.4</ele><time>2026-04-11T10:06:37Z</time></trkpt><trkpt lat="45.822696698422504" lon="8.43928052407964"><ele>553.2</ele><time>2026-04-11T10:06:39Z</time></trkpt><trkpt lat="45.82264908539719" lon="8.439393401701139"><ele>554.0</ele><time>2026-04-11T10:06:41Z</time></trkpt><trkpt lat="45.82261581139902" lon="8.439472186010073"><ele>551.8</ele><time>2026-04-11T10:06:43Z</time></trkpt><trkpt lat="45.822566926489216" lon="8.439529277811157"><ele>549.5999999999999</ele><time>2026-04-11T10:06:48Z</time></trkpt><trkpt lat="45.82240038796274" lon="8.43959357898278"><ele>547.4</ele><time>2026-04-11T10:06:57Z</time></trkpt><trkpt lat="45.82232918789787" lon="8.439557842440447"><ele>545.1999999999999</ele><time>2026-04-11T10:06:59Z</time></trkpt><trkpt lat="45.822243743204545" lon="8.439513459085257"><ele>543.0</ele><time>2026-04-11T10:07:01Z</time></trkpt><trkpt lat="45.82213544390228" lon="8.439457203817254"><ele>543.0</ele><time>2026-04-11T10:07:03Z</time></trkpt><trkpt lat="45.82203696365193" lon="8.43939085514924"><ele>543.0</ele><time>2026-04-11T10:07:05Z</time></trkpt><trkpt lat="45.82196411067694" lon="8.439337742025192"><ele>543.0</ele><time>2026-04-11T10:07:07Z</time></trkpt><trkpt lat="45.82189422453689" lon="8.439271116525122"><ele>543.0</ele><time>2026-04-11T10:07:10Z</time></trkpt><trkpt lat="45.82183141840954" lon="8.439208990319305"><ele>543.0</ele><time>2026-04-11T10:07:12Z</time></trkpt><trkpt lat="45.82172900445526" lon="8.4391824566843"><ele>542.2857142857143</ele><time>2026-04-11T10:07:14Z</time></trkpt><trkpt lat="45.82166188809554" lon="8.43919145711898"><ele>541.5714285714286</ele><time>2026-04-11T10:07:15Z</time></trkpt><trkpt lat="45.821588822967634" lon="8.439181773319456"><ele>540.8571428571429</ele><time>2026-04-11T10:07:16Z</time></trkpt><trkpt lat="45.82151707359939" lon="8.439175571162671"><ele>540.1428571428571</ele><time>2026-04-11T10:07:17Z</time></trkpt><trkpt lat="45.82144428093388" lon="8.439174284130553"><ele>539.4285714285714</ele><time>2026-04-11T10:07:18Z</time></trkpt><trkpt lat="45.82137373370567" lon="8.439172767571957"><ele>538.7142857142858</ele><time>2026-04-11T10:07:19Z</time></trkpt><trkpt lat="45.8212932046015" lon="8.439171036431352"><ele>538.0</ele><time>2026-04-11T10:07:20Z</time></trkpt><trkpt lat="45.8212097538591" lon="8.439167315960486"><ele>538.0</ele><time>2026-04-11T10:07:21Z</time></trkpt><trkpt lat="45.82114586159341" lon="8.43916394534409"><ele>538.0</ele><time>2026-04-11T10:07:22Z</time></trkpt><trkpt lat="45.821071324872605" lon="8.439193686300486"><ele>538.0</ele><time>2026-04-11T10:07:23Z</time></trkpt><trkpt lat="45.82100677008854" lon="8.439182471806236"><ele>538.0</ele><time>2026-04-11T10:07:25Z</time></trkpt><trkpt lat="45.82094055559386" lon="8.439179964881784"><ele>538.0</ele><time>2026-04-11T10:07:27Z</time></trkpt><trkpt lat="45.82087828944986" lon="8.43919965883256"><ele>538.0</ele><time>2026-04-11T10:07:29Z</time></trkpt><trkpt lat="45.82078036958075" lon="8.439173900149575"><ele>538.0</ele><time>2026-04-11T10:12:39.998Z</time></trkpt><trkpt lat="45.82070954951851" lon="8.439171194658787"><ele>537.1666666666667</ele><time>2026-04-11T10:12:58.999Z</time></trkpt><trkpt lat="45.82061357416339" lon="8.439167531998837"><ele>536.3333333333334</ele><time>2026-04-11T10:13:14Z</time></trkpt><trkpt lat="45.820542483580304" lon="8.439164819005455"><ele>535.5</ele><time>2026-04-11T10:13:16Z</time></trkpt><trkpt lat="45.8204498227133" lon="8.4391616192586"><ele>534.6666666666666</ele><time>2026-04-11T10:13:18Z</time></trkpt><trkpt lat="45.82034449574804" lon="8.43915452790913"><ele>533.8333333333333</ele><time>2026-04-11T10:13:20Z</time></trkpt><trkpt lat="45.82026890958142" lon="8.439149438926146"><ele>533.0</ele><time>2026-04-11T10:13:21Z</time></trkpt><trkpt lat="45.82018772183866" lon="8.439166000819863"><ele>532.0</ele><time>2026-04-11T10:13:22Z</time></trkpt><trkpt lat="45.820106707318715" lon="8.439138809789444"><ele>531.0</ele><time>2026-04-11T10:13:23Z</time></trkpt><trkpt lat="45.82002129140141" lon="8.439134979712836"><ele>530.0</ele><time>2026-04-11T10:13:24Z</time></trkpt><trkpt lat="45.81993202387124" lon="8.43913291013998"><ele>529.0</ele><time>2026-04-11T10:13:25Z</time></trkpt><trkpt lat="45.81983347702747" lon="8.439129413031392"><ele>528.0</ele><time>2026-04-11T10:13:26Z</time></trkpt><trkpt lat="45.81972652232197" lon="8.439114306074803"><ele>528.0</ele><time>2026-04-11T10:13:27Z</time></trkpt><trkpt lat="45.81961900363386" lon="8.439084977495893"><ele>528.0</ele><time>2026-04-11T10:13:28Z</time></trkpt><trkpt lat="45.81951276778798" lon="8.439036057482868"><ele>528.0</ele><time>2026-04-11T10:13:29Z</time></trkpt><trkpt lat="45.8194035780153" lon="8.43898408561007"><ele>528.0</ele><time>2026-04-11T10:13:30Z</time></trkpt><trkpt lat="45.81929086216495" lon="8.438955342653555"><ele>527.8</ele><time>2026-04-11T10:13:31Z</time></trkpt><trkpt lat="45.81918528345579" lon="8.438898073512883"><ele>527.5999999999999</ele><time>2026-04-11T10:13:32Z</time></trkpt><trkpt lat="45.819082090019165" lon="8.438854938279377"><ele>527.4000000000001</ele><time>2026-04-11T10:13:33Z</time></trkpt><trkpt lat="45.81897697515437" lon="8.438804889491315"><ele>527.2</ele><time>2026-04-11T10:13:34Z</time></trkpt><trkpt lat="45.81887450988186" lon="8.438753025266228"><ele>527.0</ele><time>2026-04-11T10:13:35Z</time></trkpt><trkpt lat="45.81876936360533" lon="8.438697730443455"><ele>526.2</ele><time>2026-04-11T10:13:36Z</time></trkpt><trkpt lat="45.81866827617657" lon="8.438657997392964"><ele>525.4000000000001</ele><time>2026-04-11T10:13:37Z</time></trkpt><trkpt lat="45.81857786688992" lon="8.43861522280348"><ele>524.5999999999999</ele><time>2026-04-11T10:13:38Z</time></trkpt><trkpt lat="45.818497810480814" lon="8.438559784440507"><ele>523.8</ele><time>2026-04-11T10:13:39Z</time></trkpt><trkpt lat="45.81840892653905" lon="8.438515946970252"><ele>523.0</ele><time>2026-04-11T10:13:40Z</time></trkpt><trkpt lat="45.818313304477364" lon="8.438468407098105"><ele>522.8</ele><time>2026-04-11T10:13:41Z</time></trkpt><trkpt lat="45.818208805483174" lon="8.438440693806921"><ele>522.5999999999999</ele><time>2026-04-11T10:13:42Z</time></trkpt><trkpt lat="45.818108963698684" lon="8.438386185232858"><ele>522.4000000000001</ele><time>2026-04-11T10:13:42.999Z</time></trkpt><trkpt lat="45.81800817515047" lon="8.43833171256765"><ele>522.2</ele><time>2026-04-11T10:13:43.999Z</time></trkpt><trkpt lat="45.81791014106248" lon="8.438256417163444"><ele>522.0</ele><time>2026-04-11T10:13:44.999Z</time></trkpt><trkpt lat="45.81781071903055" lon="8.438177047400401"><ele>522.0</ele><time>2026-04-11T10:13:45.999Z</time></trkpt><trkpt lat="45.817708725921065" lon="8.438089232011915"><ele>522.0</ele><time>2026-04-11T10:13:46.999Z</time></trkpt><trkpt lat="45.81760619592195" lon="8.438000047153725"><ele>522.0</ele><time>2026-04-11T10:13:47.999Z</time></trkpt><trkpt lat="45.81750288319068" lon="8.437909196949358"><ele>522.0</ele><time>2026-04-11T10:13:48.999Z</time></trkpt><trkpt lat="45.817396308347064" lon="8.437823932605717"><ele>520.5</ele><time>2026-04-11T10:13:49.999Z</time></trkpt><trkpt lat="45.817288828694295" lon="8.437732452468138"><ele>519.0</ele><time>2026-04-11T10:13:50.999Z</time></trkpt><trkpt lat="45.81717551297827" lon="8.437650216984999"><ele>517.5</ele><time>2026-04-11T10:13:51.999Z</time></trkpt><trkpt lat="45.81705965152808" lon="8.43756266263852"><ele>516.0</ele><time>2026-04-11T10:13:52.999Z</time></trkpt><trkpt lat="45.816941444092144" lon="8.43748864369976"><ele>516.0</ele><time>2026-04-11T10:13:53.999Z</time></trkpt><trkpt lat="45.81682528231539" lon="8.437413648295813"><ele>516.0</ele><time>2026-04-11T10:13:54.999Z</time></trkpt><trkpt lat="45.81671315938527" lon="8.437332372263683"><ele>516.0</ele><time>2026-04-11T10:13:55.999Z</time></trkpt><trkpt lat="45.81661391792262" lon="8.437240440702515"><ele>516.0</ele><time>2026-04-11T10:13:56.999Z</time></trkpt><trkpt lat="45.81652759663623" lon="8.43712841220223"><ele>514.5</ele><time>2026-04-11T10:13:57.999Z</time></trkpt><trkpt lat="45.8164343562931" lon="8.437025181709153"><ele>513.0</ele><time>2026-04-11T10:13:58.999Z</time></trkpt><trkpt lat="45.81635266045692" lon="8.436905643843609"><ele>511.5</ele><time>2026-04-11T10:13:59.999Z</time></trkpt><trkpt lat="45.81629220086436" lon="8.43673492956114"><ele>510.0</ele><time>2026-04-11T10:14:00.999Z</time></trkpt><trkpt lat="45.816251535781554" lon="8.436569950180633"><ele>510.0</ele><time>2026-04-11T10:14:01.999Z</time></trkpt><trkpt lat="45.816183803782245" lon="8.43642794882721"><ele>510.0</ele><time>2026-04-11T10:14:02.999Z</time></trkpt><trkpt lat="45.81612217537686" lon="8.436287551417031"><ele>510.0</ele><time>2026-04-11T10:14:03.999Z</time></trkpt><trkpt lat="45.8160679863601" lon="8.436149868032787"><ele>510.0</ele><time>2026-04-11T10:14:04.999Z</time></trkpt><trkpt lat="45.81601563812571" lon="8.436011982705768"><ele>510.25</ele><time>2026-04-11T10:14:05.999Z</time></trkpt><trkpt lat="45.81596558311663" lon="8.43587534118543"><ele>510.5</ele><time>2026-04-11T10:14:06.999Z</time></trkpt><trkpt lat="45.815916998649016" lon="8.43573386718933"><ele>510.75</ele><time>2026-04-11T10:14:07.999Z</time></trkpt><trkpt lat="45.815863649345175" lon="8.435589098698095"><ele>511.0</ele><time>2026-04-11T10:14:08.999Z</time></trkpt><trkpt lat="45.815808454556475" lon="8.435437179914171"><ele>509.25</ele><time>2026-04-11T10:14:09.999Z</time></trkpt><trkpt lat="45.81576994873106" lon="8.435270570852499"><ele>507.5</ele><time>2026-04-11T10:14:10.999Z</time></trkpt><trkpt lat="45.815717302173084" lon="8.435110317140401"><ele>505.75</ele><time>2026-04-11T10:14:11.999Z</time></trkpt><trkpt lat="45.815664152313325" lon="8.434950267968656"><ele>504.0</ele><time>2026-04-11T10:14:12.999Z</time></trkpt><trkpt lat="45.81560967554876" lon="8.43478830690017"><ele>502.5</ele><time>2026-04-11T10:14:13.999Z</time></trkpt><trkpt lat="45.81555477560534" lon="8.434626134972097"><ele>501.0</ele><time>2026-04-11T10:14:14.999Z</time></trkpt><trkpt lat="45.815498636207174" lon="8.43446030156806"><ele>499.5</ele><time>2026-04-11T10:14:15.999Z</time></trkpt><trkpt lat="45.81544139614346" lon="8.434291216903906"><ele>498.0</ele><time>2026-04-11T10:14:16.999Z</time></trkpt><trkpt lat="45.81538207946509" lon="8.434119772124474"><ele>498.0</ele><time>2026-04-11T10:14:17.999Z</time></trkpt><trkpt lat="45.81532404802541" lon="8.43394935037929"><ele>498.0</ele><time>2026-04-11T10:14:18.999Z</time></trkpt><trkpt lat="45.815267171871895" lon="8.433779340450998"><ele>498.0</ele><time>2026-04-11T10:14:19.999Z</time></trkpt><trkpt lat="45.81521032906571" lon="8.433612474755519"><ele>498.0</ele><time>2026-04-11T10:14:20.999Z</time></trkpt><trkpt lat="45.81515412802994" lon="8.433449866071673"><ele>496.25</ele><time>2026-04-11T10:14:21.999Z</time></trkpt><trkpt lat="45.81510182943195" lon="8.433293711454134"><ele>494.5</ele><time>2026-04-11T10:14:22.999Z</time></trkpt><trkpt lat="45.8150530678237" lon="8.433144481282557"><ele>492.75</ele><time>2026-04-11T10:14:23.999Z</time></trkpt><trkpt lat="45.81500950777445" lon="8.433001079950392"><ele>491.0</ele><time>2026-04-11T10:14:24.999Z</time></trkpt><trkpt lat="45.81496973985725" lon="8.432857195943678"><ele>488.5</ele><time>2026-04-11T10:14:25.999Z</time></trkpt><trkpt lat="45.81492146484941" lon="8.43269444043856"><ele>486.0</ele><time>2026-04-11T10:14:26.999Z</time></trkpt><trkpt lat="45.81484917311368" lon="8.432545631374692"><ele>483.5</ele><time>2026-04-11T10:14:27.999Z</time></trkpt><trkpt lat="45.814748962629245" lon="8.43240605712446"><ele>481.0</ele><time>2026-04-11T10:14:28.999Z</time></trkpt><trkpt lat="45.814640698299264" lon="8.432295796981215"><ele>481.0</ele><time>2026-04-11T10:14:29.999Z</time></trkpt><trkpt lat="45.81452826125215" lon="8.432183021678979"><ele>481.0</ele><time>2026-04-11T10:14:30.999Z</time></trkpt><trkpt lat="45.81441314439239" lon="8.432068228665116"><ele>481.0</ele><time>2026-04-11T10:14:31.999Z</time></trkpt><trkpt lat="45.814298242711764" lon="8.431960502324173"><ele>481.0</ele><time>2026-04-11T10:14:32.999Z</time></trkpt><trkpt lat="45.814191074430944" lon="8.431859723900644"><ele>478.75</ele><time>2026-04-11T10:14:33.999Z</time></trkpt><trkpt lat="45.81410127248304" lon="8.431762697901394"><ele>476.5</ele><time>2026-04-11T10:14:34.999Z</time></trkpt><trkpt lat="45.81402781730487" lon="8.431643957247285"><ele>474.25</ele><time>2026-04-11T10:14:35.999Z</time></trkpt><trkpt lat="45.81396987605549" lon="8.431496915557478"><ele>472.0</ele><time>2026-04-11T10:14:36.999Z</time></trkpt><trkpt lat="45.81392186797348" lon="8.431321093252555"><ele>470.25</ele><time>2026-04-11T10:14:37.999Z</time></trkpt><trkpt lat="45.81387592629017" lon="8.431147586993582"><ele>468.5</ele><time>2026-04-11T10:14:38.999Z</time></trkpt><trkpt lat="45.81383228095148" lon="8.430977123398318"><ele>466.75</ele><time>2026-04-11T10:14:39.999Z</time></trkpt><trkpt lat="45.81379247566521" lon="8.43082037816186"><ele>465.0</ele><time>2026-04-11T10:14:40.999Z</time></trkpt><trkpt lat="45.813742016773375" lon="8.430638410665916"><ele>464.0</ele><time>2026-04-11T10:14:41.999Z</time></trkpt><trkpt lat="45.81366330932524" lon="8.430453452707358"><ele>463.0</ele><time>2026-04-11T10:14:42.999Z</time></trkpt><trkpt lat="45.81353494533496" lon="8.430288293710868"><ele>462.0</ele><time>2026-04-11T10:14:43.999Z</time></trkpt><trkpt lat="45.813381666992804" lon="8.430187311285158"><ele>463.75</ele><time>2026-04-11T10:14:44.999Z</time></trkpt><trkpt lat="45.813238176207776" lon="8.43015454116837"><ele>465.5</ele><time>2026-04-11T10:14:45.999Z</time></trkpt><trkpt lat="45.81311282755462" lon="8.43014410381199"><ele>467.25</ele><time>2026-04-11T10:14:46.999Z</time></trkpt><trkpt lat="45.812985227112264" lon="8.430131823663787"><ele>469.0</ele><time>2026-04-11T10:14:47.999Z</time></trkpt><trkpt lat="45.81286222077205" lon="8.430121370314588"><ele>469.0</ele><time>2026-04-11T10:14:48.999Z</time></trkpt><trkpt lat="45.81273775453177" lon="8.430110792921916"><ele>469.0</ele><time>2026-04-11T10:14:49.999Z</time></trkpt><trkpt lat="45.81260847260585" lon="8.430097971144006"><ele>469.0</ele><time>2026-04-11T10:14:50.999Z</time></trkpt><trkpt lat="45.81247340212118" lon="8.43008492063241"><ele>469.0</ele><time>2026-04-11T10:14:51.999Z</time></trkpt><trkpt lat="45.812337835125845" lon="8.430071813783066"><ele>468.5</ele><time>2026-04-11T10:14:52.999Z</time></trkpt><trkpt lat="45.812199937316" lon="8.43005735961793"><ele>468.0</ele><time>2026-04-11T10:14:53.999Z</time></trkpt><trkpt lat="45.812063002391234" lon="8.430044635189619"><ele>467.5</ele><time>2026-04-11T10:14:54.999Z</time></trkpt><trkpt lat="45.81192456413487" lon="8.430032339960515"><ele>467.0</ele><time>2026-04-11T10:14:55.999Z</time></trkpt><trkpt lat="45.81178892752437" lon="8.43002029349241"><ele>466.0</ele><time>2026-04-11T10:14:56.999Z</time></trkpt><trkpt lat="45.81164657094906" lon="8.43000564545112"><ele>465.0</ele><time>2026-04-11T10:14:57.999Z</time></trkpt><trkpt lat="45.8114988727342" lon="8.429988573959582"><ele>464.0</ele><time>2026-04-11T10:14:58.999Z</time></trkpt><trkpt lat="45.81135122820807" lon="8.42997583916573"><ele>463.0</ele><time>2026-04-11T10:14:59.999Z</time></trkpt><trkpt lat="45.81120675268707" lon="8.4299633777574"><ele>463.0</ele><time>2026-04-11T10:15:00.999Z</time></trkpt><trkpt lat="45.811061718628956" lon="8.42995086818188"><ele>463.0</ele><time>2026-04-11T10:15:01.999Z</time></trkpt><trkpt lat="45.81092123312644" lon="8.429934694810155"><ele>463.0</ele><time>2026-04-11T10:15:02.999Z</time></trkpt><trkpt lat="45.81078239304712" lon="8.429919169573989"><ele>463.0</ele><time>2026-04-11T10:15:03.999Z</time></trkpt><trkpt lat="45.81064804164927" lon="8.429906396716644"><ele>462.59999999999997</ele><time>2026-04-11T10:15:04.999Z</time></trkpt><trkpt lat="45.81052006582364" lon="8.42989522301703"><ele>462.19999999999993</ele><time>2026-04-11T10:15:05.999Z</time></trkpt><trkpt lat="45.81040859742136" lon="8.429881086130763"><ele>461.8</ele><time>2026-04-11T10:15:06.999Z</time></trkpt><trkpt lat="45.810327107149" lon="8.42985947456045"><ele>461.4</ele><time>2026-04-11T10:15:07.999Z</time></trkpt><trkpt lat="45.81023555077489" lon="8.429811127757015"><ele>461.0</ele><time>2026-04-11T10:15:08.999Z</time></trkpt><trkpt lat="45.81017779357844" lon="8.4297590454814"><ele>459.4</ele><time>2026-04-11T10:15:09.999Z</time></trkpt><trkpt lat="45.810113884302595" lon="8.429682228362182"><ele>457.8</ele><time>2026-04-11T10:15:10.999Z</time></trkpt><trkpt lat="45.8100580638191" lon="8.429590261121307"><ele>456.19999999999993</ele><time>2026-04-11T10:15:11.999Z</time></trkpt><trkpt lat="45.80999562492926" lon="8.429460052383762"><ele>454.59999999999997</ele><time>2026-04-11T10:15:12.999Z</time></trkpt><trkpt lat="45.80992832128877" lon="8.429312309613241"><ele>453.0</ele><time>2026-04-11T10:15:13.999Z</time></trkpt><trkpt lat="45.80985865135053" lon="8.429164929653519"><ele>452.75</ele><time>2026-04-11T10:15:14.999Z</time></trkpt><trkpt lat="45.80978087088112" lon="8.428999949922098"><ele>452.5</ele><time>2026-04-11T10:15:15.999Z</time></trkpt><trkpt lat="45.809703695817106" lon="8.428836254737258"><ele>452.25</ele><time>2026-04-11T10:15:16.999Z</time></trkpt><trkpt lat="45.80962787693228" lon="8.428671943244535"><ele>452.0</ele><time>2026-04-11T10:15:17.999Z</time></trkpt><trkpt lat="45.809558575567635" lon="8.428521972728419"><ele>453.5</ele><time>2026-04-11T10:15:18.999Z</time></trkpt><trkpt lat="45.80949345100039" lon="8.428360943963176"><ele>455.0</ele><time>2026-04-11T10:15:19.999Z</time></trkpt><trkpt lat="45.80942961279572" lon="8.428192289311939"><ele>456.5</ele><time>2026-04-11T10:15:20.999Z</time></trkpt><trkpt lat="45.809380029929294" lon="8.428041475367667"><ele>458.0</ele><time>2026-04-11T10:15:21.999Z</time></trkpt><trkpt lat="45.809330026113905" lon="8.427864560040739"><ele>452.0</ele><time>2026-04-11T10:15:22.999Z</time></trkpt><trkpt lat="45.80928377400178" lon="8.427676486553965"><ele>446.0</ele><time>2026-04-11T10:15:23.999Z</time></trkpt><trkpt lat="45.809245124264166" lon="8.42748159554775"><ele>440.0</ele><time>2026-04-11T10:15:24.999Z</time></trkpt><trkpt lat="45.80921042081208" lon="8.427281948481271"><ele>434.0</ele><time>2026-04-11T10:15:25.999Z</time></trkpt><trkpt lat="45.809178813004806" lon="8.427075455396016"><ele>433.75</ele><time>2026-04-11T10:15:26.999Z</time></trkpt><trkpt lat="45.80914817122136" lon="8.426868621149925"><ele>433.5</ele><time>2026-04-11T10:15:27.999Z</time></trkpt><trkpt lat="45.80911850710878" lon="8.42666423899536"><ele>433.25</ele><time>2026-04-11T10:15:28.999Z</time></trkpt><trkpt lat="45.80909014642033" lon="8.426459358964193"><ele>433.0</ele><time>2026-04-11T10:15:29.999Z</time></trkpt><trkpt lat="45.80905978114906" lon="8.42625679361841"><ele>431.75</ele><time>2026-04-11T10:15:30.999Z</time></trkpt><trkpt lat="45.80902881683964" lon="8.42605023232759"><ele>430.5</ele><time>2026-04-11T10:15:31.999Z</time></trkpt><trkpt lat="45.808996666918524" lon="8.425842936483239"><ele>429.25</ele><time>2026-04-11T10:15:32.999Z</time></trkpt><trkpt lat="45.80895840591232" lon="8.42563851045182"><ele>428.0</ele><time>2026-04-11T10:15:33.999Z</time></trkpt><trkpt lat="45.808910875338526" lon="8.425433925482855"><ele>427.25</ele><time>2026-04-11T10:15:34.999Z</time></trkpt><trkpt lat="45.80885838902126" lon="8.425248145036196"><ele>426.5</ele><time>2026-04-11T10:15:35.999Z</time></trkpt><trkpt lat="45.80880446021875" lon="8.425061397582967"><ele>425.75</ele><time>2026-04-11T10:15:36.999Z</time></trkpt><trkpt lat="45.80875325717928" lon="8.42487644281112"><ele>425.0</ele><time>2026-04-11T10:15:37.999Z</time></trkpt><trkpt lat="45.80870890061647" lon="8.424691647804552"><ele>426.0</ele><time>2026-04-11T10:15:38.999Z</time></trkpt><trkpt lat="45.80868041706584" lon="8.424503306024798"><ele>427.0</ele><time>2026-04-11T10:15:39.999Z</time></trkpt><trkpt lat="45.808659887930204" lon="8.424311753966924"><ele>428.0</ele><time>2026-04-11T10:15:40.999Z</time></trkpt><trkpt lat="45.80865007582357" lon="8.424121319890112"><ele>429.0</ele><time>2026-04-11T10:15:41.999Z</time></trkpt><trkpt lat="45.808639402264056" lon="8.423931634431886"><ele>430.0</ele><time>2026-04-11T10:15:42.999Z</time></trkpt><trkpt lat="45.80862746848708" lon="8.423748445982582"><ele>431.0</ele><time>2026-04-11T10:15:43.999Z</time></trkpt><trkpt lat="45.80861606225548" lon="8.423573356167358"><ele>432.0</ele><time>2026-04-11T10:15:44.999Z</time></trkpt><trkpt lat="45.80860532911206" lon="8.423407618212906"><ele>433.0</ele><time>2026-04-11T10:15:45.999Z</time></trkpt><trkpt lat="45.80859556069214" lon="8.423256719971507"><ele>432.99999999999994</ele><time>2026-04-11T10:15:46.999Z</time></trkpt><trkpt lat="45.8085871343725" lon="8.423126553710903"><ele>433.0</ele><time>2026-04-11T10:15:47.999Z</time></trkpt><trkpt lat="45.80858023813139" lon="8.42302002333461"><ele>433.0</ele><time>2026-04-11T10:15:48.999Z</time></trkpt><trkpt lat="45.80857411845012" lon="8.422925489174819"><ele>433.0</ele><time>2026-04-11T10:15:49.999Z</time></trkpt><trkpt lat="45.808567797446926" lon="8.422827845330184"><ele>433.0</ele><time>2026-04-11T10:15:50.999Z</time></trkpt><trkpt lat="45.80856125702508" lon="8.422726809763681"><ele>432.99999999999994</ele><time>2026-04-11T10:15:51.999Z</time></trkpt><trkpt lat="45.80855366751535" lon="8.42261702167134"><ele>433.0</ele><time>2026-04-11T10:15:52.999Z</time></trkpt><trkpt lat="45.808545997214566" lon="8.422503259159438"><ele>432.83333333333337</ele><time>2026-04-11T10:15:53.999Z</time></trkpt><trkpt lat="45.808538043433195" lon="8.422383969027921"><ele>432.6666666666667</ele><time>2026-04-11T10:15:54.999Z</time></trkpt><trkpt lat="45.808529982993335" lon="8.422263078948092"><ele>432.5</ele><time>2026-04-11T10:15:55.999Z</time></trkpt><trkpt lat="45.80852220831217" lon="8.422146623696579"><ele>432.33333333333337</ele><time>2026-04-11T10:15:56.999Z</time></trkpt><trkpt lat="45.80843083102307" lon="8.422048423009432"><ele>432.1666666666667</ele><time>2026-04-11T10:15:57.999Z</time></trkpt><trkpt lat="45.80842178567888" lon="8.421939071736753"><ele>432.0</ele><time>2026-04-11T10:15:58.999Z</time></trkpt><trkpt lat="45.808413497270315" lon="8.42183097281115"><ele>427.3333333333333</ele><time>2026-04-11T10:15:59.999Z</time></trkpt><trkpt lat="45.80840833625602" lon="8.421728293332526"><ele>422.66666666666663</ele><time>2026-04-11T10:16:00.999Z</time></trkpt><trkpt lat="45.80848785869259" lon="8.421626621685677"><ele>418.0</ele><time>2026-04-11T10:16:01.999Z</time></trkpt><trkpt lat="45.80848407022214" lon="8.421525336914868"><ele>413.3333333333333</ele><time>2026-04-11T10:16:02.999Z</time></trkpt><trkpt lat="45.80846150664306" lon="8.421406935846198"><ele>408.66666666666663</ele><time>2026-04-11T10:16:03.999Z</time></trkpt><trkpt lat="45.80841515869663" lon="8.421328339582955"><ele>404.0</ele><time>2026-04-11T10:16:04.999Z</time></trkpt><trkpt lat="45.808335060291206" lon="8.421236618599046"><ele>403.49999999999994</ele><time>2026-04-11T10:16:06.999Z</time></trkpt><trkpt lat="45.808256805617695" lon="8.421140594765095"><ele>403.0</ele><time>2026-04-11T10:16:08.999Z</time></trkpt><trkpt lat="45.80819850529268" lon="8.421056954350282"><ele>402.5</ele><time>2026-04-11T10:16:09.999Z</time></trkpt><trkpt lat="45.808156293131994" lon="8.420962273904674"><ele>402.0</ele><time>2026-04-11T10:16:10.999Z</time></trkpt><trkpt lat="45.80810678285388" lon="8.420866274659657"><ele>401.49999999999994</ele><time>2026-04-11T10:16:11.999Z</time></trkpt><trkpt lat="45.80806002074776" lon="8.420766301147145"><ele>401.0</ele><time>2026-04-11T10:16:12.999Z</time></trkpt><trkpt lat="45.80801177959654" lon="8.420663924976354"><ele>401.0</ele><time>2026-04-11T10:16:13.999Z</time></trkpt><trkpt lat="45.807948228395205" lon="8.420544177353936"><ele>401.0</ele><time>2026-04-11T10:16:14.999Z</time></trkpt><trkpt lat="45.807859734123184" lon="8.420462394828332"><ele>401.0</ele><time>2026-04-11T10:16:15.999Z</time></trkpt><trkpt lat="45.807774062110454" lon="8.420410922070303"><ele>401.0</ele><time>2026-04-11T10:16:16.999Z</time></trkpt><trkpt lat="45.80768363172151" lon="8.420363621240629"><ele>401.0</ele><time>2026-04-11T10:16:17.999Z</time></trkpt><trkpt lat="45.80758658428216" lon="8.420313213311214"><ele>398.20000000000005</ele><time>2026-04-11T10:16:18.999Z</time></trkpt><trkpt lat="45.807488685879235" lon="8.420264595881564"><ele>395.40000000000003</ele><time>2026-04-11T10:16:19.999Z</time></trkpt><trkpt lat="45.80737804246352" lon="8.420225879212285"><ele>392.6</ele><time>2026-04-11T10:16:20.999Z</time></trkpt><trkpt lat="45.80726852641609" lon="8.420209364021751"><ele>389.8</ele><time>2026-04-11T10:16:21.999Z</time></trkpt><trkpt lat="45.80716697257761" lon="8.420211128124793"><ele>387.0</ele><time>2026-04-11T10:16:22.999Z</time></trkpt><trkpt lat="45.807072544033566" lon="8.420188229784895"><ele>387.0</ele><time>2026-04-11T10:16:23.999Z</time></trkpt><trkpt lat="45.80697354034606" lon="8.42017779491989"><ele>387.0</ele><time>2026-04-11T10:16:24.999Z</time></trkpt><trkpt lat="45.80687680435744" lon="8.420164771908064"><ele>387.0</ele><time>2026-04-11T10:16:25.999Z</time></trkpt><trkpt lat="45.806778443951934" lon="8.420157892963145"><ele>387.0</ele><time>2026-04-11T10:16:26.999Z</time></trkpt><trkpt lat="45.806691106491904" lon="8.420149673036954"><ele>387.0</ele><time>2026-04-11T10:16:27.999Z</time></trkpt><trkpt lat="45.80658503884081" lon="8.420157772040552"><ele>384.8</ele><time>2026-04-11T10:16:28.999Z</time></trkpt><trkpt lat="45.806480509916774" lon="8.420189911234683"><ele>382.6</ele><time>2026-04-11T10:16:29.999Z</time></trkpt><trkpt lat="45.80637989900875" lon="8.420232781882799"><ele>380.40000000000003</ele><time>2026-04-11T10:16:30.999Z</time></trkpt><trkpt lat="45.80628041888677" lon="8.420275841944303"><ele>378.20000000000005</ele><time>2026-04-11T10:16:31.999Z</time></trkpt><trkpt lat="45.80617400909355" lon="8.420325196597664"><ele>376.0</ele><time>2026-04-11T10:16:32.999Z</time></trkpt><trkpt lat="45.806094662266595" lon="8.420417697135282"><ele>379.0</ele><time>2026-04-11T10:16:33.999Z</time></trkpt><trkpt lat="45.8059952749975" lon="8.420483921105085"><ele>382.0</ele><time>2026-04-11T10:16:34.999Z</time></trkpt><trkpt lat="45.80589454084722" lon="8.420551775569526"><ele>385.0</ele><time>2026-04-11T10:16:35.999Z</time></trkpt><trkpt lat="45.80578493606222" lon="8.420629272737608"><ele>388.0</ele><time>2026-04-11T10:16:36.999Z</time></trkpt><trkpt lat="45.805666878153666" lon="8.420718228493772"><ele>388.0</ele><time>2026-04-11T10:16:37.999Z</time></trkpt><trkpt lat="45.80554453071048" lon="8.420799764893381"><ele>388.0</ele><time>2026-04-11T10:16:38.999Z</time></trkpt><trkpt lat="45.80542042324359" lon="8.420913866225641"><ele>388.0</ele><time>2026-04-11T10:16:39.999Z</time></trkpt><trkpt lat="45.80530393473191" lon="8.42100702325443"><ele>388.0</ele><time>2026-04-11T10:16:40.999Z</time></trkpt><trkpt lat="45.80517370865678" lon="8.421102869409385"><ele>386.75</ele><time>2026-04-11T10:16:41.999Z</time></trkpt><trkpt lat="45.80504163521022" lon="8.421196369826369"><ele>385.5</ele><time>2026-04-11T10:16:42.999Z</time></trkpt><trkpt lat="45.804914287320535" lon="8.421287319312952"><ele>384.25</ele><time>2026-04-11T10:16:43.999Z</time></trkpt><trkpt lat="45.80478109121528" lon="8.421383530916561"><ele>383.0</ele><time>2026-04-11T10:16:44.999Z</time></trkpt><trkpt lat="45.804647008581256" lon="8.4214819391805"><ele>383.0</ele><time>2026-04-11T10:16:45.999Z</time></trkpt><trkpt lat="45.804525085126635" lon="8.42158661991658"><ele>383.0</ele><time>2026-04-11T10:16:46.999Z</time></trkpt><trkpt lat="45.80439754911165" lon="8.421692300317764"><ele>383.0</ele><time>2026-04-11T10:16:47.999Z</time></trkpt><trkpt lat="45.80427029141316" lon="8.421795142542214"><ele>383.0</ele><time>2026-04-11T10:16:48.999Z</time></trkpt><trkpt lat="45.80414637364321" lon="8.421892714089777"><ele>381.5</ele><time>2026-04-11T10:16:49.999Z</time></trkpt><trkpt lat="45.80404235456397" lon="8.421991741621463"><ele>380.0</ele><time>2026-04-11T10:16:50.999Z</time></trkpt><trkpt lat="45.803927510136965" lon="8.422084431618456"><ele>378.5</ele><time>2026-04-11T10:16:51.999Z</time></trkpt><trkpt lat="45.80381028588875" lon="8.422184663617086"><ele>377.0</ele><time>2026-04-11T10:16:52.999Z</time></trkpt><trkpt lat="45.803698091719795" lon="8.422295655817354"><ele>377.0</ele><time>2026-04-11T10:16:53.999Z</time></trkpt><trkpt lat="45.803589397275395" lon="8.422421457407708"><ele>377.0</ele><time>2026-04-11T10:16:54.999Z</time></trkpt><trkpt lat="45.80348558821233" lon="8.422549257277652"><ele>377.0</ele><time>2026-04-11T10:16:55.999Z</time></trkpt><trkpt lat="45.803378298851705" lon="8.422682252216115"><ele>377.0</ele><time>2026-04-11T10:16:56.999Z</time></trkpt><trkpt lat="45.80327102350202" lon="8.422811431699111"><ele>377.75</ele><time>2026-04-11T10:16:57.999Z</time></trkpt><trkpt lat="45.80316585085175" lon="8.42293331412758"><ele>378.5</ele><time>2026-04-11T10:16:58.999Z</time></trkpt><trkpt lat="45.80305626599353" lon="8.4230594723284"><ele>379.25</ele><time>2026-04-11T10:16:59.999Z</time></trkpt><trkpt lat="45.80294937599969" lon="8.423181770536422"><ele>380.0</ele><time>2026-04-11T10:17:00.999Z</time></trkpt><trkpt lat="45.80283687967805" lon="8.42331048355934"><ele>380.0</ele><time>2026-04-11T10:17:01.999Z</time></trkpt><trkpt lat="45.80272380994327" lon="8.423439423583298"><ele>380.0</ele><time>2026-04-11T10:17:02.998Z</time></trkpt><trkpt lat="45.8026101047125" lon="8.423569110863472"><ele>380.0</ele><time>2026-04-11T10:17:03.998Z</time></trkpt><trkpt lat="45.80248842646865" lon="8.42371003629105"><ele>380.0</ele><time>2026-04-11T10:17:04.998Z</time></trkpt><trkpt lat="45.80237050145556" lon="8.423846614832785"><ele>380.5</ele><time>2026-04-11T10:17:05.998Z</time></trkpt><trkpt lat="45.80226082089437" lon="8.423973644788637"><ele>381.0</ele><time>2026-04-11T10:17:06.998Z</time></trkpt><trkpt lat="45.802148240789755" lon="8.424103343799436"><ele>381.5</ele><time>2026-04-11T10:17:07.998Z</time></trkpt><trkpt lat="45.802040022085286" lon="8.424227898014466"><ele>382.0</ele><time>2026-04-11T10:17:08.998Z</time></trkpt><trkpt lat="45.80193510148894" lon="8.424341045459794"><ele>378.5</ele><time>2026-04-11T10:17:09.998Z</time></trkpt><trkpt lat="45.80182111811891" lon="8.424446736743853"><ele>375.0</ele><time>2026-04-11T10:17:10.998Z</time></trkpt><trkpt lat="45.80172060419847" lon="8.424526530712221"><ele>371.5</ele><time>2026-04-11T10:17:11.998Z</time></trkpt><trkpt lat="45.80161631016001" lon="8.424586637966422"><ele>368.0</ele><time>2026-04-11T10:17:12.998Z</time></trkpt><trkpt lat="45.801514173967824" lon="8.424628187305792"><ele>368.0</ele><time>2026-04-11T10:17:13.998Z</time></trkpt><trkpt lat="45.80140704049088" lon="8.424653821754108"><ele>368.0</ele><time>2026-04-11T10:17:14.998Z</time></trkpt><trkpt lat="45.80129593864865" lon="8.424657612377"><ele>368.0</ele><time>2026-04-11T10:17:15.998Z</time></trkpt><trkpt lat="45.801176879561005" lon="8.424638283619036"><ele>368.0</ele><time>2026-04-11T10:17:16.998Z</time></trkpt><trkpt lat="45.80104640524651" lon="8.424605106479673"><ele>367.0</ele><time>2026-04-11T10:17:17.998Z</time></trkpt><trkpt lat="45.80091516252376" lon="8.42457241910616"><ele>366.0</ele><time>2026-04-11T10:17:18.998Z</time></trkpt><trkpt lat="45.800780990683904" lon="8.424539001184865"><ele>365.0</ele><time>2026-04-11T10:17:19.998Z</time></trkpt><trkpt lat="45.80064958543085" lon="8.424506272065061"><ele>364.0</ele><time>2026-04-11T10:17:20.998Z</time></trkpt><trkpt lat="45.8005159769535" lon="8.424472996334199"><ele>364.0</ele><time>2026-04-11T10:17:21.998Z</time></trkpt><trkpt lat="45.800377955740935" lon="8.424438620311575"><ele>364.0</ele><time>2026-04-11T10:17:22.998Z</time></trkpt><trkpt lat="45.800247541965696" lon="8.42440246507438"><ele>364.0</ele><time>2026-04-11T10:17:23.998Z</time></trkpt><trkpt lat="45.80011766102298" lon="8.424368273776054"><ele>364.0</ele><time>2026-04-11T10:17:24.998Z</time></trkpt><trkpt lat="45.79998340796091" lon="8.424332931561796"><ele>364.0</ele><time>2026-04-11T10:17:25.998Z</time></trkpt><trkpt lat="45.79984815969346" lon="8.42429732731813"><ele>364.0</ele><time>2026-04-11T10:17:26.998Z</time></trkpt><trkpt lat="45.79972061801274" lon="8.424263751828144"><ele>364.0</ele><time>2026-04-11T10:17:27.998Z</time></trkpt><trkpt lat="45.79959630051403" lon="8.424231025097605"><ele>364.0</ele><time>2026-04-11T10:17:28.998Z</time></trkpt><trkpt lat="45.79947223210887" lon="8.424197641135178"><ele>364.0</ele><time>2026-04-11T10:17:29.998Z</time></trkpt><trkpt lat="45.799343193893506" lon="8.424162790209964"><ele>364.0</ele><time>2026-04-11T10:17:30.998Z</time></trkpt><trkpt lat="45.79923098471177" lon="8.424132484470265"><ele>364.0</ele><time>2026-04-11T10:17:31.998Z</time></trkpt><trkpt lat="45.79913840476883" lon="8.424107480223656"><ele>364.0</ele><time>2026-04-11T10:17:32.998Z</time></trkpt><trkpt lat="45.79905457084268" lon="8.424084838144816"><ele>364.0</ele><time>2026-04-11T10:17:33.998Z</time></trkpt><trkpt lat="45.79896982132493" lon="8.424061948824788"><ele>364.2</ele><time>2026-04-11T10:17:34.998Z</time></trkpt><trkpt lat="45.79888591344958" lon="8.424039286697354"><ele>364.4</ele><time>2026-04-11T10:17:35.998Z</time></trkpt><trkpt lat="45.79878050858009" lon="8.424010818783772"><ele>364.6</ele><time>2026-04-11T10:17:36.998Z</time></trkpt><trkpt lat="45.798653526320166" lon="8.423999953637164"><ele>364.8</ele><time>2026-04-11T10:17:37.998Z</time></trkpt><trkpt lat="45.79853073703246" lon="8.423964735162782"><ele>365.0</ele><time>2026-04-11T10:17:38.998Z</time></trkpt><trkpt lat="45.798411017935955" lon="8.42393668682481"><ele>366.5</ele><time>2026-04-11T10:17:39.998Z</time></trkpt><trkpt lat="45.798295531377974" lon="8.423890844588366"><ele>368.0</ele><time>2026-04-11T10:17:40.998Z</time></trkpt><trkpt lat="45.79818054045104" lon="8.423885133212577"><ele>369.5</ele><time>2026-04-11T10:17:41.998Z</time></trkpt><trkpt lat="45.79806252792373" lon="8.423884575025712"><ele>371.0</ele><time>2026-04-11T10:17:42.998Z</time></trkpt><trkpt lat="45.79794456963183" lon="8.423883959860413"><ele>371.0</ele><time>2026-04-11T10:17:43.998Z</time></trkpt><trkpt lat="45.79782321527748" lon="8.423879090091592"><ele>371.0</ele><time>2026-04-11T10:17:44.998Z</time></trkpt><trkpt lat="45.79769935772219" lon="8.423861117148565"><ele>371.0</ele><time>2026-04-11T10:17:45.998Z</time></trkpt><trkpt lat="45.79757530600934" lon="8.42383110589204"><ele>371.0</ele><time>2026-04-11T10:17:46.998Z</time></trkpt><trkpt lat="45.797447257122336" lon="8.423799090807849"><ele>368.75</ele><time>2026-04-11T10:17:47.998Z</time></trkpt><trkpt lat="45.79732304956865" lon="8.423777326781646"><ele>366.5</ele><time>2026-04-11T10:17:48.998Z</time></trkpt><trkpt lat="45.797200980742" lon="8.42376095642629"><ele>364.25</ele><time>2026-04-11T10:17:49.998Z</time></trkpt><trkpt lat="45.79708228226624" lon="8.42374654370141"><ele>362.0</ele><time>2026-04-11T10:17:50.998Z</time></trkpt><trkpt lat="45.79696446819078" lon="8.423735199986425"><ele>362.0</ele><time>2026-04-11T10:17:51.998Z</time></trkpt><trkpt lat="45.79685237999824" lon="8.423725746847545"><ele>362.0</ele><time>2026-04-11T10:17:52.998Z</time></trkpt><trkpt lat="45.79674892136696" lon="8.423713117746894"><ele>362.0</ele><time>2026-04-11T10:17:53.998Z</time></trkpt><trkpt lat="45.796664441953695" lon="8.423686383488068"><ele>362.0</ele><time>2026-04-11T10:17:54.998Z</time></trkpt><trkpt lat="45.79658073585835" lon="8.423653935074988"><ele>362.0</ele><time>2026-04-11T10:17:55.998Z</time></trkpt><trkpt lat="45.79649832025905" lon="8.4236226769723"><ele>362.8</ele><time>2026-04-11T10:17:56.998Z</time></trkpt><trkpt lat="45.796421773053396" lon="8.423617747765379"><ele>363.6</ele><time>2026-04-11T10:17:57.998Z</time></trkpt><trkpt lat="45.79634004521862" lon="8.423528288570862"><ele>364.40000000000003</ele><time>2026-04-11T10:17:59.998Z</time></trkpt><trkpt lat="45.79629684051642" lon="8.423458871827787"><ele>365.20000000000005</ele><time>2026-04-11T10:18:01.998Z</time></trkpt><trkpt lat="45.79637581871979" lon="8.423261972252044"><ele>366.0</ele><time>2026-04-11T10:18:02.998Z</time></trkpt><trkpt lat="45.79641957233464" lon="8.423161161906656"><ele>366.0</ele><time>2026-04-11T10:18:03.998Z</time></trkpt><trkpt lat="45.79646080428837" lon="8.423051468106843"><ele>366.0</ele><time>2026-04-11T10:18:04.998Z</time></trkpt><trkpt lat="45.796494011619416" lon="8.422935721155403"><ele>366.0</ele><time>2026-04-11T10:18:05.998Z</time></trkpt><trkpt lat="45.79652666671613" lon="8.422821477840458"><ele>366.0</ele><time>2026-04-11T10:18:06.998Z</time></trkpt><trkpt lat="45.79656573002721" lon="8.422721088064584"><ele>366.0</ele><time>2026-04-11T10:18:07.998Z</time></trkpt><trkpt lat="45.796597925118185" lon="8.42262201995959"><ele>366.0</ele><time>2026-04-11T10:18:08.998Z</time></trkpt><trkpt lat="45.796627634896616" lon="8.422533295709613"><ele>365.0</ele><time>2026-04-11T10:18:09.998Z</time></trkpt><trkpt lat="45.7966672991648" lon="8.422453244812285"><ele>364.0</ele><time>2026-04-11T10:18:10.998Z</time></trkpt><trkpt lat="45.79669903843612" lon="8.422369720996036"><ele>363.0</ele><time>2026-04-11T10:18:11.998Z</time></trkpt><trkpt lat="45.7967174070769" lon="8.422273207214179"><ele>362.0</ele><time>2026-04-11T10:18:12.998Z</time></trkpt><trkpt lat="45.796763391790485" lon="8.422201345801643"><ele>361.0</ele><time>2026-04-11T10:18:13.998Z</time></trkpt><trkpt lat="45.796794469742885" lon="8.422120227583372"><ele>360.0</ele><time>2026-04-11T10:18:14.998Z</time></trkpt><trkpt lat="45.79683935657531" lon="8.421958200736263"><ele>358.0</ele><time>2026-04-11T10:18:16.998Z</time></trkpt><trkpt lat="45.79689963250051" lon="8.421816907162034"><ele>356.0</ele><time>2026-04-11T10:18:18.998Z</time></trkpt><trkpt lat="45.79694701455509" lon="8.421736858781246"><ele>354.0</ele><time>2026-04-11T10:18:19.998Z</time></trkpt><trkpt lat="45.7969876508784" lon="8.421628763143065"><ele>352.0</ele><time>2026-04-11T10:18:20.998Z</time></trkpt><trkpt lat="45.79703085794353" lon="8.42151551223103"><ele>350.0</ele><time>2026-04-11T10:18:21.998Z</time></trkpt><trkpt lat="45.79706830286315" lon="8.42139662027768"><ele>348.2</ele><time>2026-04-11T10:18:22.998Z</time></trkpt><trkpt lat="45.797085054689504" lon="8.421278861331377"><ele>346.4</ele><time>2026-04-11T10:18:23.998Z</time></trkpt><trkpt lat="45.79708368859656" lon="8.421157655144786"><ele>344.6</ele><time>2026-04-11T10:18:24.998Z</time></trkpt><trkpt lat="45.797057907196255" lon="8.421022665705058"><ele>342.8</ele><time>2026-04-11T10:18:25.998Z</time></trkpt><trkpt lat="45.79701366233954" lon="8.420898986816008"><ele>341.0</ele><time>2026-04-11T10:18:26.998Z</time></trkpt><trkpt lat="45.796963872406444" lon="8.420788230575496"><ele>341.0</ele><time>2026-04-11T10:18:27.998Z</time></trkpt><trkpt lat="45.79691198254062" lon="8.420681927971263"><ele>341.0</ele><time>2026-04-11T10:18:28.998Z</time></trkpt><trkpt lat="45.79685996691886" lon="8.420588636491516"><ele>341.0</ele><time>2026-04-11T10:18:29.998Z</time></trkpt><trkpt lat="45.79680572106448" lon="8.420495473413181"><ele>341.0</ele><time>2026-04-11T10:18:30.998Z</time></trkpt><trkpt lat="45.79675912239343" lon="8.420393788606338"><ele>341.0</ele><time>2026-04-11T10:18:31.998Z</time></trkpt><trkpt lat="45.796689669248266" lon="8.420256502151288"><ele>340.4</ele><time>2026-04-11T10:18:32.998Z</time></trkpt><trkpt lat="45.7965966262191" lon="8.420138011306664"><ele>339.8</ele><time>2026-04-11T10:18:33.998Z</time></trkpt><trkpt lat="45.79651157362538" lon="8.420051548160556"><ele>339.2</ele><time>2026-04-11T10:18:34.998Z</time></trkpt><trkpt lat="45.79642870884195" lon="8.419977841465759"><ele>338.59999999999997</ele><time>2026-04-11T10:18:35.998Z</time></trkpt><trkpt lat="45.79635195632109" lon="8.419911679462807"><ele>338.0</ele><time>2026-04-11T10:18:36.998Z</time></trkpt><trkpt lat="45.79627807481859" lon="8.419847992100253"><ele>338.0</ele><time>2026-04-11T10:18:37.998Z</time></trkpt><trkpt lat="45.79621593802425" lon="8.41979097140777"><ele>338.0</ele><time>2026-04-11T10:18:38.998Z</time></trkpt><trkpt lat="45.7961320493905" lon="8.419692206306795"><ele>338.0</ele><time>2026-04-11T10:18:40.998Z</time></trkpt><trkpt lat="45.79605532260596" lon="8.419535479258757"><ele>338.0</ele><time>2026-04-11T10:18:42.998Z</time></trkpt><trkpt lat="45.79601528783033" lon="8.41942672258409"><ele>338.0</ele><time>2026-04-11T10:18:43.998Z</time></trkpt><trkpt lat="45.79596716850909" lon="8.419294136805721"><ele>338.59999999999997</ele><time>2026-04-11T10:18:44.998Z</time></trkpt><trkpt lat="45.795921006015085" lon="8.419173187236561"><ele>339.2</ele><time>2026-04-11T10:18:45.998Z</time></trkpt><trkpt lat="45.795875902061944" lon="8.419055010513258"><ele>339.8</ele><time>2026-04-11T10:18:46.998Z</time></trkpt><trkpt lat="45.79583805472207" lon="8.418948666574114"><ele>340.4</ele><time>2026-04-11T10:18:47.998Z</time></trkpt><trkpt lat="45.79578818543311" lon="8.418842884964624"><ele>341.0</ele><time>2026-04-11T10:18:48.998Z</time></trkpt><trkpt lat="45.79578576979386" lon="8.418698037207768"><ele>339.4</ele><time>2026-04-11T10:18:49.998Z</time></trkpt><trkpt lat="45.79580001466036" lon="8.418558594942327"><ele>337.8</ele><time>2026-04-11T10:18:50.998Z</time></trkpt><trkpt lat="45.795824157437465" lon="8.418425283917149"><ele>336.2</ele><time>2026-04-11T10:18:51.998Z</time></trkpt><trkpt lat="45.79584927504281" lon="8.418299978555986"><ele>334.59999999999997</ele><time>2026-04-11T10:18:52.998Z</time></trkpt><trkpt lat="45.79589114238132" lon="8.418155741458708"><ele>333.0</ele><time>2026-04-11T10:18:53.998Z</time></trkpt><trkpt lat="45.795897004754636" lon="8.418026304754108"><ele>332.59999999999997</ele><time>2026-04-11T10:18:54.998Z</time></trkpt><trkpt lat="45.79592037155082" lon="8.41791004015592"><ele>332.2</ele><time>2026-04-11T10:18:55.998Z</time></trkpt><trkpt lat="45.795947582680995" lon="8.417784815962293"><ele>331.8</ele><time>2026-04-11T10:18:56.998Z</time></trkpt><trkpt lat="45.79599822836596" lon="8.417632997399568"><ele>331.4</ele><time>2026-04-11T10:18:57.998Z</time></trkpt><trkpt lat="45.79604207162276" lon="8.417555738610048"><ele>331.0</ele><time>2026-04-11T10:18:58.998Z</time></trkpt><trkpt lat="45.796163013371086" lon="8.41727358423874"><ele>327.66666666666663</ele><time>2026-04-11T10:18:59.998Z</time></trkpt><trkpt lat="45.79622882876997" lon="8.417237276638252"><ele>324.3333333333333</ele><time>2026-04-11T10:19:00.998Z</time></trkpt><trkpt lat="45.79647382276665" lon="8.417155122479672"><ele>321.0</ele><time>2026-04-11T10:19:02.998Z</time></trkpt><trkpt lat="45.79672252307172" lon="8.417225493022336"><ele>321.0</ele><time>2026-04-11T10:19:07.998Z</time></trkpt><trkpt lat="45.79679164005354" lon="8.41727506093497"><ele>321.0</ele><time>2026-04-11T10:19:09.998Z</time></trkpt><trkpt lat="45.79687457966268" lon="8.417420369754826"><ele>321.0</ele><time>2026-04-11T10:19:12.998Z</time></trkpt><trkpt lat="45.79695179714174" lon="8.417490050976438"><ele>321.0</ele><time>2026-04-11T10:19:14.998Z</time></trkpt><trkpt lat="45.79705033116627" lon="8.41757460759639"><ele>321.0</ele><time>2026-04-11T10:19:16.998Z</time></trkpt><trkpt lat="45.797106860715225" lon="8.41762461809777"><ele>320.1666666666667</ele><time>2026-04-11T10:19:17.998Z</time></trkpt><trkpt lat="45.79716288369692" lon="8.417673597666397"><ele>319.3333333333333</ele><time>2026-04-11T10:19:18.998Z</time></trkpt><trkpt lat="45.79721665453725" lon="8.4177206083836"><ele>318.5</ele><time>2026-04-11T10:19:19.998Z</time></trkpt><trkpt lat="45.79732044403816" lon="8.417815209618992"><ele>317.66666666666663</ele><time>2026-04-11T10:19:21.998Z</time></trkpt><trkpt lat="45.797399579199244" lon="8.417887678765098"><ele>316.8333333333333</ele><time>2026-04-11T10:19:22.998Z</time></trkpt><trkpt lat="45.79747789776909" lon="8.417959831490483"><ele>316.0</ele><time>2026-04-11T10:19:23.998Z</time></trkpt><trkpt lat="45.79739951814373" lon="8.418379822363395"><ele>316.0</ele><time>2026-04-11T10:19:24.998Z</time></trkpt><trkpt lat="45.79747684789288" lon="8.418468839916857"><ele>316.0</ele><time>2026-04-11T10:19:25.998Z</time></trkpt><trkpt lat="45.79756751888158" lon="8.418564138651691"><ele>316.0</ele><time>2026-04-11T10:19:26.998Z</time></trkpt><trkpt lat="45.79766679461708" lon="8.418656026097052"><ele>316.0</ele><time>2026-04-11T10:19:27.998Z</time></trkpt><trkpt lat="45.79776933213781" lon="8.418735010792624"><ele>316.0</ele><time>2026-04-11T10:19:28.998Z</time></trkpt><trkpt lat="45.797872612544715" lon="8.418823490996841"><ele>318.5</ele><time>2026-04-11T10:19:29.998Z</time></trkpt><trkpt lat="45.797979305485335" lon="8.418904246718398"><ele>321.0</ele><time>2026-04-11T10:19:30.998Z</time></trkpt><trkpt lat="45.79808108888881" lon="8.41899721537292"><ele>323.5</ele><time>2026-04-11T10:19:31.998Z</time></trkpt><trkpt lat="45.79818688814295" lon="8.419090638674795"><ele>326.0</ele><time>2026-04-11T10:19:32.998Z</time></trkpt><trkpt lat="45.79829210118187" lon="8.419181388188605"><ele>319.0</ele><time>2026-04-11T10:19:33.998Z</time></trkpt><trkpt lat="45.798561336222626" lon="8.418876525311179"><ele>312.0</ele><time>2026-04-11T10:19:34.998Z</time></trkpt><trkpt lat="45.79866705028474" lon="8.41896716081653"><ele>312.0</ele><time>2026-04-11T10:19:35.998Z</time></trkpt><trkpt lat="45.79877034483092" lon="8.419055721819"><ele>312.0</ele><time>2026-04-11T10:19:36.998Z</time></trkpt><trkpt lat="45.79886928773629" lon="8.419140551902037"><ele>312.0</ele><time>2026-04-11T10:19:37.998Z</time></trkpt><trkpt lat="45.798962640868716" lon="8.419220589472205"><ele>312.0</ele><time>2026-04-11T10:19:38.998Z</time></trkpt><trkpt lat="45.79904990220311" lon="8.419295404405828"><ele>312.0</ele><time>2026-04-11T10:19:39.998Z</time></trkpt><trkpt lat="45.799136882239594" lon="8.419369977878373"><ele>312.0</ele><time>2026-04-11T10:19:40.998Z</time></trkpt><trkpt lat="45.79922347777111" lon="8.41944422182285"><ele>312.0</ele><time>2026-04-11T10:19:41.998Z</time></trkpt><trkpt lat="45.799308201639235" lon="8.419516860980506"><ele>312.0</ele><time>2026-04-11T10:19:42.998Z</time></trkpt><trkpt lat="45.799401947115896" lon="8.419597235099932"><ele>312.0</ele><time>2026-04-11T10:19:43.998Z</time></trkpt><trkpt lat="45.79949552423863" lon="8.419677464693438"><ele>312.0</ele><time>2026-04-11T10:19:44.998Z</time></trkpt><trkpt lat="45.79958516703978" lon="8.419755004450764"><ele>311.0</ele><time>2026-04-11T10:19:45.998Z</time></trkpt><trkpt lat="45.79965698903053" lon="8.419817215517842"><ele>310.0</ele><time>2026-04-11T10:19:47.001Z</time></trkpt><trkpt lat="45.79972520277995" lon="8.419876301505406"><ele>309.0</ele><time>2026-04-11T10:19:48.001Z</time></trkpt><trkpt lat="45.79979815427608" lon="8.419939490927252"><ele>308.0</ele><time>2026-04-11T10:19:49.001Z</time></trkpt><trkpt lat="45.79987048772225" lon="8.420002146213589"><ele>307.0</ele><time>2026-04-11T10:19:50.001Z</time></trkpt><trkpt lat="45.79995400923733" lon="8.42007453077654"><ele>306.0</ele><time>2026-04-11T10:19:51.001Z</time></trkpt><trkpt lat="45.80003625440511" lon="8.420145800972515"><ele>306.0</ele><time>2026-04-11T10:19:52.001Z</time></trkpt><trkpt lat="45.80013727027175" lon="8.420233336731897"><ele>306.0</ele><time>2026-04-11T10:19:53.001Z</time></trkpt><trkpt lat="45.80023622375433" lon="8.420319085685069"><ele>306.0</ele><time>2026-04-11T10:19:54.001Z</time></trkpt><trkpt lat="45.8003405778569" lon="8.42040951431941"><ele>306.0</ele><time>2026-04-11T10:19:55.001Z</time></trkpt><trkpt lat="45.80044124410351" lon="8.420495702081055"><ele>305.40000000000003</ele><time>2026-04-11T10:19:56.001Z</time></trkpt><trkpt lat="45.80053919250114" lon="8.420578629352676"><ele>304.8</ele><time>2026-04-11T10:19:57.001Z</time></trkpt><trkpt lat="45.8006382272361" lon="8.420660763159384"><ele>304.20000000000005</ele><time>2026-04-11T10:19:58.001Z</time></trkpt><trkpt lat="45.80073344254412" lon="8.420738506987758"><ele>303.6</ele><time>2026-04-11T10:19:59.001Z</time></trkpt><trkpt lat="45.80082939138699" lon="8.420813239877594"><ele>303.0</ele><time>2026-04-11T10:20:00.001Z</time></trkpt><trkpt lat="45.800947020120695" lon="8.420895927301682"><ele>302.0</ele><time>2026-04-11T10:20:01.001Z</time></trkpt><trkpt lat="45.8010746792135" lon="8.420928847593926"><ele>301.0</ele><time>2026-04-11T10:20:02.001Z</time></trkpt><trkpt lat="45.80121747361877" lon="8.420917228509806"><ele>300.0</ele><time>2026-04-11T10:20:03Z</time></trkpt><trkpt lat="45.80136102068368" lon="8.42089145467127"><ele>299.0</ele><time>2026-04-11T10:20:04Z</time></trkpt><trkpt lat="45.80149451382579" lon="8.420852761115224"><ele>299.0</ele><time>2026-04-11T10:20:05Z</time></trkpt><trkpt lat="45.801612564972444" lon="8.420793952710417"><ele>299.0</ele><time>2026-04-11T10:20:06Z</time></trkpt><trkpt lat="45.80173179367168" lon="8.420747091363951"><ele>299.0</ele><time>2026-04-11T10:20:07Z</time></trkpt><trkpt lat="45.801852346106024" lon="8.420705695729682"><ele>299.0</ele><time>2026-04-11T10:20:08Z</time></trkpt><trkpt lat="45.80196747493267" lon="8.420656458380428"><ele>298.25</ele><time>2026-04-11T10:20:09Z</time></trkpt><trkpt lat="45.80208385671895" lon="8.420605194023917"><ele>297.5</ele><time>2026-04-11T10:20:10Z</time></trkpt><trkpt lat="45.80220259838307" lon="8.420546206896645"><ele>296.75</ele><time>2026-04-11T10:20:11Z</time></trkpt><trkpt lat="45.802315609626845" lon="8.420463265143873"><ele>296.0</ele><time>2026-04-11T10:20:12Z</time></trkpt><trkpt lat="45.80242085180109" lon="8.420409598222026"><ele>296.0</ele><time>2026-04-11T10:20:13Z</time></trkpt><trkpt lat="45.80253042235554" lon="8.42035077148605"><ele>296.0</ele><time>2026-04-11T10:20:14Z</time></trkpt><trkpt lat="45.802633592062456" lon="8.420296941847194"><ele>296.0</ele><time>2026-04-11T10:20:15.001Z</time></trkpt><trkpt lat="45.802733871853675" lon="8.420241566945663"><ele>296.0</ele><time>2026-04-11T10:20:16.001Z</time></trkpt><trkpt lat="45.80282789363393" lon="8.420175462862176"><ele>296.0</ele><time>2026-04-11T10:20:17.001Z</time></trkpt><trkpt lat="45.80292245486365" lon="8.420117314805728"><ele>297.2</ele><time>2026-04-11T10:20:18.001Z</time></trkpt><trkpt lat="45.80301644983021" lon="8.42006977307338"><ele>298.40000000000003</ele><time>2026-04-11T10:20:19.001Z</time></trkpt><trkpt lat="45.80310991709767" lon="8.42002048965363"><ele>299.6</ele><time>2026-04-11T10:20:20.001Z</time></trkpt><trkpt lat="45.803202368332286" lon="8.41997458865325"><ele>300.8</ele><time>2026-04-11T10:20:21.001Z</time></trkpt><trkpt lat="45.80329289370174" lon="8.419931817386363"><ele>302.0</ele><time>2026-04-11T10:20:22.001Z</time></trkpt><trkpt lat="45.803383245551004" lon="8.419888127058261"><ele>302.0</ele><time>2026-04-11T10:20:23.001Z</time></trkpt><trkpt lat="45.80347383094336" lon="8.419842300947856"><ele>302.0</ele><time>2026-04-11T10:20:24.001Z</time></trkpt><trkpt lat="45.803566377875086" lon="8.419794720172266"><ele>302.0</ele><time>2026-04-11T10:20:25.001Z</time></trkpt><trkpt lat="45.80365860578207" lon="8.419746610564586"><ele>302.0</ele><time>2026-04-11T10:20:26.001Z</time></trkpt><trkpt lat="45.803751332814656" lon="8.419695973698785"><ele>302.0</ele><time>2026-04-11T10:20:27.001Z</time></trkpt><trkpt lat="45.8038475710304" lon="8.41964470949647"><ele>301.6</ele><time>2026-04-11T10:20:28.001Z</time></trkpt><trkpt lat="45.80394242754481" lon="8.419596098339229"><ele>301.2</ele><time>2026-04-11T10:20:29.001Z</time></trkpt><trkpt lat="45.80403760045115" lon="8.419545210802246"><ele>300.8</ele><time>2026-04-11T10:20:30.001Z</time></trkpt><trkpt lat="45.80413381698901" lon="8.419487176264365"><ele>300.4</ele><time>2026-04-11T10:20:31.001Z</time></trkpt><trkpt lat="45.80423188107208" lon="8.419420821499308"><ele>300.0</ele><time>2026-04-11T10:20:32.001Z</time></trkpt><trkpt lat="45.80432658194561" lon="8.419338968678426"><ele>303.0</ele><time>2026-04-11T10:20:33.001Z</time></trkpt><trkpt lat="45.80442976541624" lon="8.419268228435811"><ele>306.0</ele><time>2026-04-11T10:20:34.001Z</time></trkpt><trkpt lat="45.80452096405845" lon="8.419168036721018"><ele>309.0</ele><time>2026-04-11T10:20:35.001Z</time></trkpt><trkpt lat="45.80461034051494" lon="8.41905488342352"><ele>312.0</ele><time>2026-04-11T10:20:36.001Z</time></trkpt><trkpt lat="45.80468952858221" lon="8.418917333968603"><ele>308.75</ele><time>2026-04-11T10:20:37.001Z</time></trkpt><trkpt lat="45.80477484048096" lon="8.41879115866682"><ele>305.5</ele><time>2026-04-11T10:20:38.001Z</time></trkpt><trkpt lat="45.80486268460645" lon="8.418667679039501"><ele>302.25</ele><time>2026-04-11T10:20:39.001Z</time></trkpt><trkpt lat="45.80495138855842" lon="8.418544370074592"><ele>299.0</ele><time>2026-04-11T10:20:40.001Z</time></trkpt><trkpt lat="45.80504001540625" lon="8.418425250806607"><ele>299.0</ele><time>2026-04-11T10:20:41.001Z</time></trkpt><trkpt lat="45.805130938950796" lon="8.418302298952879"><ele>299.0</ele><time>2026-04-11T10:20:42.001Z</time></trkpt><trkpt lat="45.80522262420128" lon="8.418170259673428"><ele>299.0</ele><time>2026-04-11T10:20:43.001Z</time></trkpt><trkpt lat="45.805312414256754" lon="8.418034607327877"><ele>299.0</ele><time>2026-04-11T10:20:44.001Z</time></trkpt><trkpt lat="45.80540285266811" lon="8.41789817325439"><ele>300.75</ele><time>2026-04-11T10:20:45.001Z</time></trkpt><trkpt lat="45.80549358233476" lon="8.417760211347298"><ele>302.5</ele><time>2026-04-11T10:20:46Z</time></trkpt><trkpt lat="45.805586167049015" lon="8.417619414297508"><ele>304.25</ele><time>2026-04-11T10:20:47Z</time></trkpt><trkpt lat="45.80567956586699" lon="8.417476861018084"><ele>306.0</ele><time>2026-04-11T10:20:48Z</time></trkpt><trkpt lat="45.80577522696732" lon="8.4173373076593"><ele>306.0</ele><time>2026-04-11T10:20:49Z</time></trkpt><trkpt lat="45.8058714201758" lon="8.417194106440581"><ele>306.0</ele><time>2026-04-11T10:20:50Z</time></trkpt><trkpt lat="45.805988107495104" lon="8.417072244272456"><ele>306.0</ele><time>2026-04-11T10:20:51Z</time></trkpt><trkpt lat="45.80610610474241" lon="8.416936827228108"><ele>306.0</ele><time>2026-04-11T10:20:52Z</time></trkpt><trkpt lat="45.80623252983778" lon="8.416794068041813"><ele>304.3333333333333</ele><time>2026-04-11T10:20:53Z</time></trkpt><trkpt lat="45.806371000624615" lon="8.41664021724862"><ele>302.66666666666663</ele><time>2026-04-11T10:20:54Z</time></trkpt><trkpt lat="45.80652309100107" lon="8.416472303465621"><ele>301.0</ele><time>2026-04-11T10:20:55Z</time></trkpt><trkpt lat="45.806678507526" lon="8.416272484032334"><ele>308.0</ele><time>2026-04-11T10:20:56Z</time></trkpt><trkpt lat="45.80684166029916" lon="8.416117684046796"><ele>315.0</ele><time>2026-04-11T10:20:57Z</time></trkpt><trkpt lat="45.80699797973187" lon="8.4159406112974"><ele>322.0</ele><time>2026-04-11T10:20:58Z</time></trkpt><trkpt lat="45.807145648832154" lon="8.415762848475588"><ele>322.0</ele><time>2026-04-11T10:20:59Z</time></trkpt><trkpt lat="45.80728466455285" lon="8.415640603288905"><ele>322.0</ele><time>2026-04-11T10:21:00Z</time></trkpt><trkpt lat="45.807401675057186" lon="8.415483250805435"><ele>322.0</ele><time>2026-04-11T10:21:01Z</time></trkpt><trkpt lat="45.80753034058663" lon="8.415367176290529"><ele>328.0</ele><time>2026-04-11T10:21:02Z</time></trkpt><trkpt lat="45.80764937987321" lon="8.415230248319956"><ele>334.0</ele><time>2026-04-11T10:21:03Z</time></trkpt><trkpt lat="45.807779244448014" lon="8.415099790835155"><ele>340.0</ele><time>2026-04-11T10:21:04Z</time></trkpt><trkpt lat="45.80790072565428" lon="8.414972336050226"><ele>340.0</ele><time>2026-04-11T10:21:05Z</time></trkpt><trkpt lat="45.808023128817766" lon="8.41483381615111"><ele>340.0</ele><time>2026-04-11T10:21:06Z</time></trkpt><trkpt lat="45.80810658784953" lon="8.41467541956197"><ele>340.0</ele><time>2026-04-11T10:21:07Z</time></trkpt><trkpt lat="45.80821188819067" lon="8.41454254700694"><ele>340.0</ele><time>2026-04-11T10:21:08Z</time></trkpt><trkpt lat="45.808318514864936" lon="8.414406067829677"><ele>341.25</ele><time>2026-04-11T10:21:09Z</time></trkpt><trkpt lat="45.80843956292858" lon="8.414294569684529"><ele>342.5</ele><time>2026-04-11T10:21:10Z</time></trkpt><trkpt lat="45.808554379024116" lon="8.414177539722091"><ele>343.75</ele><time>2026-04-11T10:21:11Z</time></trkpt><trkpt lat="45.808658199384695" lon="8.41407633176736"><ele>345.0</ele><time>2026-04-11T10:21:12Z</time></trkpt><trkpt lat="45.808753286787045" lon="8.413936547216391"><ele>336.25</ele><time>2026-04-11T10:21:13Z</time></trkpt><trkpt lat="45.8088341578965" lon="8.41377853856591"><ele>327.5</ele><time>2026-04-11T10:21:14Z</time></trkpt><trkpt lat="45.80891885120961" lon="8.413632781275291"><ele>318.75</ele><time>2026-04-11T10:21:15Z</time></trkpt><trkpt lat="45.80899770089659" lon="8.413489460621136"><ele>310.0</ele><time>2026-04-11T10:21:16Z</time></trkpt><trkpt lat="45.809084965991005" lon="8.413337604890085"><ele>310.0</ele><time>2026-04-11T10:21:17Z</time></trkpt><trkpt lat="45.80917277761497" lon="8.413188071836373"><ele>310.0</ele><time>2026-04-11T10:21:18Z</time></trkpt><trkpt lat="45.8092484156061" lon="8.413057015462586"><ele>310.0</ele><time>2026-04-11T10:21:19Z</time></trkpt><trkpt lat="45.80936179677902" lon="8.413009154104993"><ele>310.0</ele><time>2026-04-11T10:21:20Z</time></trkpt><trkpt lat="45.80948564827304" lon="8.412967523574027"><ele>311.5</ele><time>2026-04-11T10:21:21Z</time></trkpt><trkpt lat="45.809603955161606" lon="8.412926940785809"><ele>313.0</ele><time>2026-04-11T10:21:22Z</time></trkpt><trkpt lat="45.809702578809265" lon="8.412823160690676"><ele>314.5</ele><time>2026-04-11T10:21:23Z</time></trkpt><trkpt lat="45.80978594956256" lon="8.412695151582799"><ele>316.0</ele><time>2026-04-11T10:21:24Z</time></trkpt><trkpt lat="45.809893248567505" lon="8.412577501110245"><ele>316.0</ele><time>2026-04-11T10:21:25Z</time></trkpt><trkpt lat="45.80998773905848" lon="8.412455178975511"><ele>316.0</ele><time>2026-04-11T10:21:26Z</time></trkpt><trkpt lat="45.810081928417574" lon="8.412377927275111"><ele>316.0</ele><time>2026-04-11T10:21:27Z</time></trkpt><trkpt lat="45.81018295727832" lon="8.412297689450837"><ele>316.0</ele><time>2026-04-11T10:21:28Z</time></trkpt><trkpt lat="45.81028609649803" lon="8.412233572406521"><ele>311.5</ele><time>2026-04-11T10:21:29Z</time></trkpt><trkpt lat="45.81038977032117" lon="8.412179477900077"><ele>307.0</ele><time>2026-04-11T10:21:30Z</time></trkpt><trkpt lat="45.810496704377485" lon="8.412129574715538"><ele>302.5</ele><time>2026-04-11T10:21:31Z</time></trkpt><trkpt lat="45.810611169633816" lon="8.412107076860908"><ele>298.0</ele><time>2026-04-11T10:21:32Z</time></trkpt><trkpt lat="45.81072535186129" lon="8.412059708246302"><ele>298.0</ele><time>2026-04-11T10:21:33Z</time></trkpt><trkpt lat="45.81084374578298" lon="8.412031799335436"><ele>298.0</ele><time>2026-04-11T10:21:34Z</time></trkpt><trkpt lat="45.81096687253103" lon="8.412024482827393"><ele>298.0</ele><time>2026-04-11T10:21:35Z</time></trkpt><trkpt lat="45.81109066134742" lon="8.412004671084743"><ele>298.0</ele><time>2026-04-11T10:21:36Z</time></trkpt><trkpt lat="45.81119999162544" lon="8.411992632076242"><ele>300.0</ele><time>2026-04-11T10:21:37Z</time></trkpt><trkpt lat="45.81132765032197" lon="8.411957802435454"><ele>302.0</ele><time>2026-04-11T10:21:38Z</time></trkpt><trkpt lat="45.81144165414215" lon="8.41191672173997"><ele>304.0</ele><time>2026-04-11T10:21:39Z</time></trkpt><trkpt lat="45.811548569005076" lon="8.411850818709178"><ele>306.0</ele><time>2026-04-11T10:21:40Z</time></trkpt><trkpt lat="45.81161730980059" lon="8.411776455332005"><ele>306.0</ele><time>2026-04-11T10:21:41Z</time></trkpt><trkpt lat="45.81170688021079" lon="8.411723437712029"><ele>306.0</ele><time>2026-04-11T10:21:42Z</time></trkpt><trkpt lat="45.81179849829345" lon="8.411657356681186"><ele>306.0</ele><time>2026-04-11T10:21:43Z</time></trkpt><trkpt lat="45.8118982177764" lon="8.411631607227095"><ele>306.0</ele><time>2026-04-11T10:21:44Z</time></trkpt><trkpt lat="45.812000119943505" lon="8.411589990895795"><ele>306.0</ele><time>2026-04-11T10:21:45Z</time></trkpt><trkpt lat="45.812100645094176" lon="8.411520977409978"><ele>307.6</ele><time>2026-04-11T10:21:46Z</time></trkpt><trkpt lat="45.81218711965089" lon="8.411412197584655"><ele>309.20000000000005</ele><time>2026-04-11T10:21:47Z</time></trkpt><trkpt lat="45.812302487620066" lon="8.411345979695573"><ele>310.79999999999995</ele><time>2026-04-11T10:21:48Z</time></trkpt><trkpt lat="45.81239048327939" lon="8.411287973305205"><ele>312.4</ele><time>2026-04-11T10:21:49Z</time></trkpt><trkpt lat="45.81247673066725" lon="8.41122842188504"><ele>314.0</ele><time>2026-04-11T10:21:50Z</time></trkpt><trkpt lat="45.81254988687123" lon="8.411176243710166"><ele>311.33333333333337</ele><time>2026-04-11T10:21:51Z</time></trkpt><trkpt lat="45.812620426675515" lon="8.41113703366685"><ele>308.6666666666667</ele><time>2026-04-11T10:21:52Z</time></trkpt><trkpt lat="45.812693301470745" lon="8.411110777268647"><ele>306.0</ele><time>2026-04-11T10:21:53Z</time></trkpt><trkpt lat="45.81279467543035" lon="8.41103692665192"><ele>303.3333333333333</ele><time>2026-04-11T10:21:55Z</time></trkpt><trkpt lat="45.812737849799504" lon="8.411088846521732"><ele>300.66666666666663</ele><time>2026-04-11T10:22:03Z</time></trkpt><trkpt lat="45.812802178786825" lon="8.411041814722736"><ele>298.0</ele><time>2026-04-11T10:22:14Z</time></trkpt><trkpt lat="45.81286764528372" lon="8.410987067992576"><ele>298.0</ele><time>2026-04-11T10:22:17Z</time></trkpt><trkpt lat="45.812789885045646" lon="8.41104829351477"><ele>298.0</ele><time>2026-04-11T10:22:23Z</time></trkpt><trkpt lat="45.81279885389909" lon="8.410933573988846"><ele>298.0</ele><time>2026-04-11T10:22:39Z</time></trkpt><trkpt lat="45.812741825341405" lon="8.410825876459706"><ele>298.0</ele><time>2026-04-11T10:22:40Z</time></trkpt><trkpt lat="45.81265339634294" lon="8.410772629325095"><ele>298.0</ele><time>2026-04-11T10:22:41Z</time></trkpt><trkpt lat="45.81244577814705" lon="8.41114323756574"><ele>298.0</ele><time>2026-04-11T10:22:42Z</time></trkpt><trkpt lat="45.81237099078588" lon="8.41128130925953"><ele>298.0</ele><time>2026-04-11T10:22:43Z</time></trkpt><trkpt lat="45.812299865152106" lon="8.411344153230802"><ele>298.0</ele><time>2026-04-11T10:22:44Z</time></trkpt><trkpt lat="45.812218700834165" lon="8.411386969620006"><ele>298.0</ele><time>2026-04-11T10:22:45Z</time></trkpt><trkpt lat="45.81217065888442" lon="8.411492901703944"><ele>298.0</ele><time>2026-04-11T10:22:46Z</time></trkpt><trkpt lat="45.812111311360496" lon="8.411529804323168"><ele>298.0</ele><time>2026-04-11T10:22:47.999Z</time></trkpt><trkpt lat="45.812099934168124" lon="8.411419799869572"><ele>298.0</ele><time>2026-04-11T10:22:50.999Z</time></trkpt><trkpt lat="45.812038661896366" lon="8.411328375570148"><ele>298.0</ele><time>2026-04-11T10:22:53.999Z</time></trkpt><trkpt lat="45.8119876319864" lon="8.411250401583713"><ele>298.0</ele><time>2026-04-11T10:22:56.999Z</time></trkpt><trkpt lat="45.81193034984909" lon="8.411204911649786"><ele>298.0</ele><time>2026-04-11T10:23:00.999Z</time></trkpt><trkpt lat="45.811866441284856" lon="8.41115582906002"><ele>298.0</ele><time>2026-04-11T10:23:03.999Z</time></trkpt><trkpt lat="45.8117967652871" lon="8.411113294237095"><ele>298.0</ele><time>2026-04-11T10:23:22.999Z</time></trkpt><trkpt lat="45.81161570819348" lon="8.411428498720799"><ele>306.0</ele><time>2026-04-11T10:23:25.999Z</time></trkpt></trkseg><trkseg><trkpt lat="45.81166832742316" lon="8.411020084472943"><ele>294.0</ele><time>2026-04-11T15:13:33.797Z</time></trkpt><trkpt lat="45.81170990248712" lon="8.411104730211193"><ele>294.0</ele><time>2026-04-11T15:13:44.797Z</time></trkpt><trkpt lat="45.81176448516853" lon="8.411180203812938"><ele>294.0</ele><time>2026-04-11T15:13:46.797Z</time></trkpt><trkpt lat="45.811872588201815" lon="8.4112619980177"><ele>294.0</ele><time>2026-04-11T15:13:48.797Z</time></trkpt><trkpt lat="45.81194701008657" lon="8.411359822024531"><ele>294.0</ele><time>2026-04-11T15:13:50.797Z</time></trkpt><trkpt lat="45.81199381422269" lon="8.4114650607273"><ele>298.0</ele><time>2026-04-11T15:13:52.797Z</time></trkpt><trkpt lat="45.81205368580964" lon="8.411556120105267"><ele>302.0</ele><time>2026-04-11T15:14:08.796Z</time></trkpt><trkpt lat="45.81211979259842" lon="8.411553056612812"><ele>306.0</ele><time>2026-04-11T15:14:11.796Z</time></trkpt><trkpt lat="45.81218322250011" lon="8.411485181730544"><ele>310.0</ele><time>2026-04-11T15:14:12.796Z</time></trkpt><trkpt lat="45.812285346112986" lon="8.411416746810325"><ele>314.0</ele><time>2026-04-11T15:14:13.796Z</time></trkpt><trkpt lat="45.81238323069971" lon="8.411335470622937"><ele>310.0</ele><time>2026-04-11T15:14:14.796Z</time></trkpt><trkpt lat="45.812482999058254" lon="8.411256234699502"><ele>306.0</ele><time>2026-04-11T15:14:15.796Z</time></trkpt><trkpt lat="45.81260849426897" lon="8.411180313275777"><ele>302.0</ele><time>2026-04-11T15:14:16.796Z</time></trkpt><trkpt lat="45.812729071701675" lon="8.41110253995803"><ele>298.0</ele><time>2026-04-11T15:14:17.796Z</time></trkpt><trkpt lat="45.81285128983313" lon="8.411024232030414"><ele>297.75</ele><time>2026-04-11T15:14:18.796Z</time></trkpt><trkpt lat="45.81297818287662" lon="8.410955704688671"><ele>297.5</ele><time>2026-04-11T15:14:19.796Z</time></trkpt><trkpt lat="45.81310199084333" lon="8.410880101303366"><ele>297.25</ele><time>2026-04-11T15:14:20.796Z</time></trkpt><trkpt lat="45.813234107520785" lon="8.410795402499446"><ele>297.0</ele><time>2026-04-11T15:14:21.796Z</time></trkpt><trkpt lat="45.813368410705294" lon="8.410709628461444"><ele>297.3333333333333</ele><time>2026-04-11T15:14:22.796Z</time></trkpt><trkpt lat="45.81350815489466" lon="8.410626603601216"><ele>297.66666666666663</ele><time>2026-04-11T15:14:23.796Z</time></trkpt><trkpt lat="45.81364634696245" lon="8.410540474547677"><ele>298.0</ele><time>2026-04-11T15:14:24.796Z</time></trkpt><trkpt lat="45.81378236115405" lon="8.41044446619282"><ele>298.0</ele><time>2026-04-11T15:14:25.796Z</time></trkpt><trkpt lat="45.81391713077309" lon="8.41035263483703"><ele>298.0</ele><time>2026-04-11T15:14:26.796Z</time></trkpt><trkpt lat="45.81405495223583" lon="8.410261735609643"><ele>298.0</ele><time>2026-04-11T15:14:27.796Z</time></trkpt><trkpt lat="45.814192508947514" lon="8.41016688655578"><ele>298.66666666666663</ele><time>2026-04-11T15:14:28.796Z</time></trkpt><trkpt lat="45.81433110808262" lon="8.410077612844091"><ele>299.3333333333333</ele><time>2026-04-11T15:14:29.796Z</time></trkpt><trkpt lat="45.814475524854934" lon="8.409979315048982"><ele>300.0</ele><time>2026-04-11T15:14:30.796Z</time></trkpt><trkpt lat="45.81461951985285" lon="8.409896247992307"><ele>300.0</ele><time>2026-04-11T15:14:31.796Z</time></trkpt><trkpt lat="45.81477270431143" lon="8.409785514532999"><ele>300.0</ele><time>2026-04-11T15:14:32.796Z</time></trkpt><trkpt lat="45.814918427051495" lon="8.409726227356503"><ele>300.0</ele><time>2026-04-11T15:14:33.796Z</time></trkpt><trkpt lat="45.81504521561875" lon="8.409636959554472"><ele>300.5</ele><time>2026-04-11T15:14:34.796Z</time></trkpt><trkpt lat="45.815168933871966" lon="8.409533658601575"><ele>301.0</ele><time>2026-04-11T15:14:35.796Z</time></trkpt><trkpt lat="45.81529830603046" lon="8.40946466229437"><ele>301.5</ele><time>2026-04-11T15:14:36.796Z</time></trkpt><trkpt lat="45.815416141417245" lon="8.409382595392678"><ele>302.0</ele><time>2026-04-11T15:14:37.796Z</time></trkpt><trkpt lat="45.815543084299904" lon="8.409337352829569"><ele>302.0</ele><time>2026-04-11T15:14:38.796Z</time></trkpt><trkpt lat="45.81565654812827" lon="8.409261794813046"><ele>302.0</ele><time>2026-04-11T15:14:39.796Z</time></trkpt><trkpt lat="45.815746125082256" lon="8.409189662259045"><ele>302.0</ele><time>2026-04-11T15:14:40.796Z</time></trkpt><trkpt lat="45.81584389415793" lon="8.409128680852845"><ele>302.0</ele><time>2026-04-11T15:14:41.796Z</time></trkpt><trkpt lat="45.815926623304215" lon="8.409102412535992"><ele>302.0</ele><time>2026-04-11T15:14:42.796Z</time></trkpt><trkpt lat="45.816001616726744" lon="8.409033199813878"><ele>302.5</ele><time>2026-04-11T15:14:43.796Z</time></trkpt><trkpt lat="45.81606008912561" lon="8.408987134143926"><ele>303.0</ele><time>2026-04-11T15:14:44.796Z</time></trkpt><trkpt lat="45.81616613094952" lon="8.408923551812316"><ele>303.5</ele><time>2026-04-11T15:14:46.796Z</time></trkpt><trkpt lat="45.81624771673182" lon="8.40890119511249"><ele>304.0</ele><time>2026-04-11T15:14:49.796Z</time></trkpt><trkpt lat="45.81630945837048" lon="8.408833447655828"><ele>304.5</ele><time>2026-04-11T15:14:54.796Z</time></trkpt><trkpt lat="45.81624595890097" lon="8.408873979674636"><ele>305.0</ele><time>2026-04-11T15:15:02.795Z</time></trkpt><trkpt lat="45.816328911816505" lon="8.408821032807884"><ele>305.0</ele><time>2026-04-11T15:15:22.795Z</time></trkpt><trkpt lat="45.81639018770203" lon="8.408781921874448"><ele>305.0</ele><time>2026-04-11T15:15:23.795Z</time></trkpt><trkpt lat="45.81639019701195" lon="8.408528911499726"><ele>305.0</ele><time>2026-04-11T15:15:24.795Z</time></trkpt><trkpt lat="45.81646054641731" lon="8.408467124263211"><ele>305.0</ele><time>2026-04-11T15:15:25.795Z</time></trkpt><trkpt lat="45.81656182709679" lon="8.40840282659156"><ele>305.0</ele><time>2026-04-11T15:15:26.795Z</time></trkpt><trkpt lat="45.81662264326268" lon="8.408312974000701"><ele>305.0</ele><time>2026-04-11T15:15:27.795Z</time></trkpt><trkpt lat="45.81680914460958" lon="8.408512484955697"><ele>305.0</ele><time>2026-04-11T15:15:28.795Z</time></trkpt><trkpt lat="45.81711269922789" lon="8.40832475107438"><ele>305.6666666666667</ele><time>2026-04-11T15:15:31.795Z</time></trkpt><trkpt lat="45.81724429294327" lon="8.408243271538414"><ele>306.3333333333333</ele><time>2026-04-11T15:15:32.795Z</time></trkpt><trkpt lat="45.81741475690153" lon="8.408138898631593"><ele>307.0</ele><time>2026-04-11T15:15:33.795Z</time></trkpt><trkpt lat="45.817576412894105" lon="8.408034958769015"><ele>306.66666666666663</ele><time>2026-04-11T15:15:34.795Z</time></trkpt><trkpt lat="45.81771555334117" lon="8.407923379092214"><ele>306.3333333333333</ele><time>2026-04-11T15:15:35.795Z</time></trkpt><trkpt lat="45.817874408411654" lon="8.407775381874984"><ele>306.0</ele><time>2026-04-11T15:15:36.795Z</time></trkpt><trkpt lat="45.81805564714071" lon="8.407697391536177"><ele>306.0</ele><time>2026-04-11T15:15:37.795Z</time></trkpt><trkpt lat="45.81816084906841" lon="8.407551383523936"><ele>306.0</ele><time>2026-04-11T15:15:38.795Z</time></trkpt><trkpt lat="45.81830534433903" lon="8.407360999832358"><ele>306.0</ele><time>2026-04-11T15:15:39.795Z</time></trkpt><trkpt lat="45.81844452362971" lon="8.407178030762298"><ele>305.3333333333333</ele><time>2026-04-11T15:15:40.795Z</time></trkpt><trkpt lat="45.81858441969498" lon="8.406996203611078"><ele>304.66666666666663</ele><time>2026-04-11T15:15:41.795Z</time></trkpt><trkpt lat="45.81870384030255" lon="8.406838884858464"><ele>304.0</ele><time>2026-04-11T15:15:42.795Z</time></trkpt><trkpt lat="45.81883208641839" lon="8.406670161961896"><ele>304.0</ele><time>2026-04-11T15:15:43.795Z</time></trkpt><trkpt lat="45.81894748923083" lon="8.406518058671901"><ele>304.0</ele><time>2026-04-11T15:15:44.795Z</time></trkpt><trkpt lat="45.819072944508115" lon="8.406352706053974"><ele>304.0</ele><time>2026-04-11T15:15:45.795Z</time></trkpt><trkpt lat="45.81920934973461" lon="8.406173266019469"><ele>305.3333333333333</ele><time>2026-04-11T15:15:46.795Z</time></trkpt><trkpt lat="45.81933271727252" lon="8.406010806489359"><ele>306.6666666666667</ele><time>2026-04-11T15:15:47.795Z</time></trkpt><trkpt lat="45.81945429070499" lon="8.40584998455175"><ele>308.0</ele><time>2026-04-11T15:15:48.795Z</time></trkpt><trkpt lat="45.81957719540096" lon="8.40568740156137"><ele>308.0</ele><time>2026-04-11T15:15:49.795Z</time></trkpt><trkpt lat="45.81969177560873" lon="8.405535830457215"><ele>308.0</ele><time>2026-04-11T15:15:50.794Z</time></trkpt><trkpt lat="45.819808931994515" lon="8.405381568883287"><ele>308.0</ele><time>2026-04-11T15:15:51.794Z</time></trkpt><trkpt lat="45.819932511975296" lon="8.405218770015917"><ele>310.0</ele><time>2026-04-11T15:15:52.794Z</time></trkpt><trkpt lat="45.82005730042245" lon="8.405055000532451"><ele>312.0</ele><time>2026-04-11T15:15:53.794Z</time></trkpt><trkpt lat="45.820198445548485" lon="8.404867389783169"><ele>314.0</ele><time>2026-04-11T15:15:54.794Z</time></trkpt><trkpt lat="45.820334800158335" lon="8.40468713167531"><ele>310.6666666666667</ele><time>2026-04-11T15:15:55.794Z</time></trkpt><trkpt lat="45.82047431841908" lon="8.40451611875903"><ele>307.3333333333333</ele><time>2026-04-11T15:15:56.794Z</time></trkpt><trkpt lat="45.82059742902801" lon="8.404330836359952"><ele>304.0</ele><time>2026-04-11T15:15:57.794Z</time></trkpt><trkpt lat="45.82071798785449" lon="8.404161677796228"><ele>304.0</ele><time>2026-04-11T15:15:58.794Z</time></trkpt><trkpt lat="45.820837693182604" lon="8.403985915835914"><ele>304.0</ele><time>2026-04-11T15:15:59.794Z</time></trkpt><trkpt lat="45.82094649644601" lon="8.403807639419071"><ele>304.0</ele><time>2026-04-11T15:16:00.794Z</time></trkpt><trkpt lat="45.82107009310493" lon="8.403640099305806"><ele>306.0</ele><time>2026-04-11T15:16:01.794Z</time></trkpt><trkpt lat="45.821197547271076" lon="8.403472353120863"><ele>308.0</ele><time>2026-04-11T15:16:02.794Z</time></trkpt><trkpt lat="45.821315505564186" lon="8.403306498934322"><ele>310.0</ele><time>2026-04-11T15:16:03.794Z</time></trkpt><trkpt lat="45.82144017708256" lon="8.403145855409427"><ele>308.3333333333333</ele><time>2026-04-11T15:16:04.794Z</time></trkpt><trkpt lat="45.82156460066032" lon="8.402983276897315"><ele>306.6666666666667</ele><time>2026-04-11T15:16:05.794Z</time></trkpt><trkpt lat="45.82167709151265" lon="8.40280409307664"><ele>305.0</ele><time>2026-04-11T15:16:06.794Z</time></trkpt><trkpt lat="45.82181721351856" lon="8.40267276586775"><ele>305.0</ele><time>2026-04-11T15:16:07.794Z</time></trkpt><trkpt lat="45.821927946543326" lon="8.402504703353424"><ele>305.0</ele><time>2026-04-11T15:16:08.794Z</time></trkpt><trkpt lat="45.82203875497518" lon="8.402357550114935"><ele>305.0</ele><time>2026-04-11T15:16:09.794Z</time></trkpt><trkpt lat="45.82214362361508" lon="8.402216333733143"><ele>303.0</ele><time>2026-04-11T15:16:10.794Z</time></trkpt><trkpt lat="45.82224481285181" lon="8.402077792656332"><ele>301.0</ele><time>2026-04-11T15:16:11.794Z</time></trkpt><trkpt lat="45.82236624287742" lon="8.401933008817595"><ele>299.0</ele><time>2026-04-11T15:16:12.794Z</time></trkpt><trkpt lat="45.82247982348959" lon="8.401775350516058"><ele>299.0</ele><time>2026-04-11T15:16:13.794Z</time></trkpt><trkpt lat="45.82259950543615" lon="8.40163358096575"><ele>299.0</ele><time>2026-04-11T15:16:14.794Z</time></trkpt><trkpt lat="45.82271278429311" lon="8.401494511857008"><ele>299.0</ele><time>2026-04-11T15:16:15.794Z</time></trkpt><trkpt lat="45.822831163364" lon="8.401367516658354"><ele>299.0</ele><time>2026-04-11T15:16:16.794Z</time></trkpt><trkpt lat="45.822976660610315" lon="8.401277864642084"><ele>299.0</ele><time>2026-04-11T15:16:17.794Z</time></trkpt><trkpt lat="45.82311473495994" lon="8.401153835473842"><ele>299.0</ele><time>2026-04-11T15:16:18.794Z</time></trkpt><trkpt lat="45.82326987710452" lon="8.401072756420204"><ele>299.0</ele><time>2026-04-11T15:16:19.794Z</time></trkpt><trkpt lat="45.82342627665313" lon="8.4009712661649"><ele>299.0</ele><time>2026-04-11T15:16:20.794Z</time></trkpt><trkpt lat="45.82358906555113" lon="8.400892857357563"><ele>299.0</ele><time>2026-04-11T15:16:21.794Z</time></trkpt><trkpt lat="45.82377218165278" lon="8.400861616276261"><ele>300.33333333333337</ele><time>2026-04-11T15:16:22.794Z</time></trkpt><trkpt lat="45.82393109874052" lon="8.40073897315154"><ele>301.6666666666667</ele><time>2026-04-11T15:16:23.794Z</time></trkpt><trkpt lat="45.8240954062826" lon="8.400654784558737"><ele>303.0</ele><time>2026-04-11T15:16:24.794Z</time></trkpt><trkpt lat="45.8242666774495" lon="8.400560428304386"><ele>300.6666666666667</ele><time>2026-04-11T15:16:25.794Z</time></trkpt><trkpt lat="45.82444135358942" lon="8.400486164852936"><ele>298.33333333333337</ele><time>2026-04-11T15:16:26.794Z</time></trkpt><trkpt lat="45.82460511516516" lon="8.40040096772773"><ele>296.0</ele><time>2026-04-11T15:16:27.794Z</time></trkpt><trkpt lat="45.82475728159615" lon="8.40032807616625"><ele>296.0</ele><time>2026-04-11T15:16:28.794Z</time></trkpt><trkpt lat="45.82492609966988" lon="8.400266373709753"><ele>296.0</ele><time>2026-04-11T15:16:29.794Z</time></trkpt><trkpt lat="45.825076129316734" lon="8.4001514355455"><ele>296.0</ele><time>2026-04-11T15:16:30.794Z</time></trkpt><trkpt lat="45.8252276482745" lon="8.400043581351033"><ele>297.33333333333337</ele><time>2026-04-11T15:16:31.794Z</time></trkpt><trkpt lat="45.82538861203412" lon="8.399961274262848"><ele>298.6666666666667</ele><time>2026-04-11T15:16:32.794Z</time></trkpt><trkpt lat="45.825535473401395" lon="8.399899949309043"><ele>300.0</ele><time>2026-04-11T15:16:33.794Z</time></trkpt><trkpt lat="45.82570529268804" lon="8.399863663469686"><ele>300.0</ele><time>2026-04-11T15:16:34.794Z</time></trkpt><trkpt lat="45.82587958869757" lon="8.399877874860788"><ele>300.0</ele><time>2026-04-11T15:16:35.794Z</time></trkpt><trkpt lat="45.82603943798749" lon="8.39988024857988"><ele>300.0</ele><time>2026-04-11T15:16:36.794Z</time></trkpt><trkpt lat="45.82618701150583" lon="8.399861851526682"><ele>299.0</ele><time>2026-04-11T15:16:37.794Z</time></trkpt><trkpt lat="45.826342908574986" lon="8.399785919265938"><ele>298.0</ele><time>2026-04-11T15:16:38.794Z</time></trkpt><trkpt lat="45.826488884253436" lon="8.399727886566835"><ele>297.0</ele><time>2026-04-11T15:16:39.794Z</time></trkpt><trkpt lat="45.82663069257418" lon="8.399621596410027"><ele>297.0</ele><time>2026-04-11T15:16:40.794Z</time></trkpt><trkpt lat="45.82676549622736" lon="8.399480531505136"><ele>297.0</ele><time>2026-04-11T15:16:41.794Z</time></trkpt><trkpt lat="45.82687774543512" lon="8.399324594889949"><ele>297.0</ele><time>2026-04-11T15:16:42.794Z</time></trkpt><trkpt lat="45.82699092922422" lon="8.399165949943324"><ele>297.6666666666667</ele><time>2026-04-11T15:16:43.794Z</time></trkpt><trkpt lat="45.827126255783654" lon="8.399017327669247"><ele>298.33333333333337</ele><time>2026-04-11T15:16:44.794Z</time></trkpt><trkpt lat="45.8272526466927" lon="8.398877518226355"><ele>299.0</ele><time>2026-04-11T15:16:45.794Z</time></trkpt><trkpt lat="45.82739572701686" lon="8.398753007835094"><ele>299.0</ele><time>2026-04-11T15:16:46.793Z</time></trkpt><trkpt lat="45.82754159029668" lon="8.398629293296588"><ele>299.0</ele><time>2026-04-11T15:16:47.793Z</time></trkpt><trkpt lat="45.82768648845035" lon="8.398491856676435"><ele>299.0</ele><time>2026-04-11T15:16:48.793Z</time></trkpt><trkpt lat="45.827819393691826" lon="8.398358995118931"><ele>299.0</ele><time>2026-04-11T15:16:49.793Z</time></trkpt><trkpt lat="45.82795499875361" lon="8.398185426516386"><ele>299.0</ele><time>2026-04-11T15:16:50.793Z</time></trkpt><trkpt lat="45.828093452875585" lon="8.398043138274428"><ele>299.0</ele><time>2026-04-11T15:16:51.793Z</time></trkpt><trkpt lat="45.828240970164316" lon="8.397902285790906"><ele>299.0</ele><time>2026-04-11T15:16:52.793Z</time></trkpt><trkpt lat="45.82838692332947" lon="8.397768288655838"><ele>299.0</ele><time>2026-04-11T15:16:53.793Z</time></trkpt><trkpt lat="45.82853107683569" lon="8.397635353373625"><ele>299.0</ele><time>2026-04-11T15:16:54.793Z</time></trkpt><trkpt lat="45.82865966896994" lon="8.397502143418283"><ele>298.75</ele><time>2026-04-11T15:16:55.793Z</time></trkpt><trkpt lat="45.828793671723766" lon="8.3974104329417"><ele>298.5</ele><time>2026-04-11T15:16:56.793Z</time></trkpt><trkpt lat="45.82893578554213" lon="8.397336850053057"><ele>298.25</ele><time>2026-04-11T15:16:57.793Z</time></trkpt><trkpt lat="45.829069763971226" lon="8.397286668965068"><ele>298.0</ele><time>2026-04-11T15:16:58.793Z</time></trkpt><trkpt lat="45.82917745634722" lon="8.397158040196981"><ele>298.0</ele><time>2026-04-11T15:16:59.793Z</time></trkpt><trkpt lat="45.8292868134944" lon="8.396990678925752"><ele>298.0</ele><time>2026-04-11T15:17:00.793Z</time></trkpt><trkpt lat="45.82933623931439" lon="8.396774082615035"><ele>298.0</ele><time>2026-04-11T15:17:01.793Z</time></trkpt><trkpt lat="45.82936861521811" lon="8.396515590448242"><ele>300.3333333333333</ele><time>2026-04-11T15:17:02.793Z</time></trkpt><trkpt lat="45.82938127017572" lon="8.396282388036878"><ele>302.6666666666667</ele><time>2026-04-11T15:17:03.793Z</time></trkpt><trkpt lat="45.82937144892889" lon="8.396075136670346"><ele>305.0</ele><time>2026-04-11T15:17:04.793Z</time></trkpt><trkpt lat="45.82937741427234" lon="8.39586350290433"><ele>305.0</ele><time>2026-04-11T15:17:05.793Z</time></trkpt><trkpt lat="45.82938724715715" lon="8.395658116425198"><ele>305.0</ele><time>2026-04-11T15:17:06.793Z</time></trkpt><trkpt lat="45.829417701784635" lon="8.395498289448204"><ele>305.0</ele><time>2026-04-11T15:17:07.793Z</time></trkpt><trkpt lat="45.82949877729424" lon="8.395391656414263"><ele>305.0</ele><time>2026-04-11T15:17:08.793Z</time></trkpt><trkpt lat="45.8296090109615" lon="8.39530736916503"><ele>302.0</ele><time>2026-04-11T15:17:09.793Z</time></trkpt><trkpt lat="45.829729870015086" lon="8.39529081372857"><ele>299.0</ele><time>2026-04-11T15:17:10.793Z</time></trkpt><trkpt lat="45.829864632688285" lon="8.395286863126366"><ele>296.0</ele><time>2026-04-11T15:17:11.793Z</time></trkpt><trkpt lat="45.83001540238942" lon="8.395328199137342"><ele>293.0</ele><time>2026-04-11T15:17:12.793Z</time></trkpt><trkpt lat="45.83018154949592" lon="8.39539798299698"><ele>292.6666666666667</ele><time>2026-04-11T15:17:13.793Z</time></trkpt><trkpt lat="45.830361665344206" lon="8.395443669227358"><ele>292.3333333333333</ele><time>2026-04-11T15:17:14.793Z</time></trkpt><trkpt lat="45.830557839096656" lon="8.395519876673259"><ele>292.0</ele><time>2026-04-11T15:17:15.793Z</time></trkpt><trkpt lat="45.83075251593155" lon="8.395604091562918"><ele>293.0</ele><time>2026-04-11T15:17:16.793Z</time></trkpt><trkpt lat="45.83095570351387" lon="8.395614086448283"><ele>294.0</ele><time>2026-04-11T15:17:17.793Z</time></trkpt><trkpt lat="45.831136539075736" lon="8.395730074294509"><ele>295.0</ele><time>2026-04-11T15:17:18.793Z</time></trkpt><trkpt lat="45.83130646958689" lon="8.39582478204486"><ele>295.0</ele><time>2026-04-11T15:17:19.793Z</time></trkpt><trkpt lat="45.831470820552944" lon="8.395944200823775"><ele>295.0</ele><time>2026-04-11T15:17:20.793Z</time></trkpt><trkpt lat="45.8316204267906" lon="8.39612259595871"><ele>295.0</ele><time>2026-04-11T15:17:21.793Z</time></trkpt><trkpt lat="45.83176385174523" lon="8.396273484291001"><ele>295.0</ele><time>2026-04-11T15:17:22.793Z</time></trkpt><trkpt lat="45.83192081368692" lon="8.396440117300596"><ele>295.0</ele><time>2026-04-11T15:17:23.793Z</time></trkpt><trkpt lat="45.83204640099255" lon="8.396595649548193"><ele>295.0</ele><time>2026-04-11T15:17:24.793Z</time></trkpt><trkpt lat="45.83218074273267" lon="8.396760983899256"><ele>295.0</ele><time>2026-04-11T15:17:25.793Z</time></trkpt><trkpt lat="45.832327029508086" lon="8.396922994050168"><ele>295.0</ele><time>2026-04-11T15:17:26.793Z</time></trkpt><trkpt lat="45.83248229364872" lon="8.397097068559244"><ele>295.0</ele><time>2026-04-11T15:17:27.793Z</time></trkpt><trkpt lat="45.832591566743254" lon="8.39728347491764"><ele>294.3333333333333</ele><time>2026-04-11T15:17:28.793Z</time></trkpt><trkpt lat="45.83269693981681" lon="8.39750729617164"><ele>293.6666666666667</ele><time>2026-04-11T15:17:29.793Z</time></trkpt><trkpt lat="45.832815201697" lon="8.397701800208168"><ele>293.0</ele><time>2026-04-11T15:17:30.793Z</time></trkpt><trkpt lat="45.832934648166145" lon="8.397866769141789"><ele>296.33333333333337</ele><time>2026-04-11T15:17:31.793Z</time></trkpt><trkpt lat="45.83303912911498" lon="8.398047061651301"><ele>299.6666666666667</ele><time>2026-04-11T15:17:32.793Z</time></trkpt><trkpt lat="45.833197724848986" lon="8.398170177225367"><ele>303.0</ele><time>2026-04-11T15:17:33.793Z</time></trkpt><trkpt lat="45.83338392482445" lon="8.398284872873012"><ele>301.0</ele><time>2026-04-11T15:17:34.793Z</time></trkpt><trkpt lat="45.83357096289868" lon="8.398346345118547"><ele>299.0</ele><time>2026-04-11T15:17:35.793Z</time></trkpt><trkpt lat="45.83374826740828" lon="8.398429697193444"><ele>297.0</ele><time>2026-04-11T15:17:36.793Z</time></trkpt><trkpt lat="45.833936732083124" lon="8.398484273745044"><ele>297.0</ele><time>2026-04-11T15:17:37.793Z</time></trkpt><trkpt lat="45.834122846103284" lon="8.398552103959503"><ele>297.0</ele><time>2026-04-11T15:17:38.793Z</time></trkpt><trkpt lat="45.83430385165146" lon="8.398614129514398"><ele>297.0</ele><time>2026-04-11T15:17:39.793Z</time></trkpt><trkpt lat="45.834479239613756" lon="8.398671025184488"><ele>295.6666666666667</ele><time>2026-04-11T15:17:40.793Z</time></trkpt><trkpt lat="45.83465136568773" lon="8.398750864733335"><ele>294.33333333333337</ele><time>2026-04-11T15:17:41.793Z</time></trkpt><trkpt lat="45.834819278732" lon="8.398857604526588"><ele>293.0</ele><time>2026-04-11T15:17:42.792Z</time></trkpt><trkpt lat="45.83496976629077" lon="8.39897470524601"><ele>293.33333333333337</ele><time>2026-04-11T15:17:43.792Z</time></trkpt><trkpt lat="45.83510411756448" lon="8.399138246372138"><ele>293.6666666666667</ele><time>2026-04-11T15:17:44.792Z</time></trkpt><trkpt lat="45.83523334698002" lon="8.399325750261768"><ele>294.0</ele><time>2026-04-11T15:17:45.792Z</time></trkpt><trkpt lat="45.835388776986" lon="8.399456986640338"><ele>294.0</ele><time>2026-04-11T15:17:46.792Z</time></trkpt><trkpt lat="45.835570119282494" lon="8.39955666838174"><ele>294.0</ele><time>2026-04-11T15:17:47.792Z</time></trkpt><trkpt lat="45.83575801492514" lon="8.399625215043102"><ele>294.0</ele><time>2026-04-11T15:17:48.792Z</time></trkpt><trkpt lat="45.835940290357215" lon="8.399729490120434"><ele>297.6666666666667</ele><time>2026-04-11T15:17:49.792Z</time></trkpt><trkpt lat="45.83612096814226" lon="8.399810822820347"><ele>301.33333333333337</ele><time>2026-04-11T15:17:50.792Z</time></trkpt><trkpt lat="45.836302001326324" lon="8.399886232515204"><ele>305.0</ele><time>2026-04-11T15:17:51.792Z</time></trkpt><trkpt lat="45.83647223705037" lon="8.39996513519676"><ele>305.0</ele><time>2026-04-11T15:17:52.792Z</time></trkpt><trkpt lat="45.836659450155956" lon="8.399994482409381"><ele>305.0</ele><time>2026-04-11T15:17:53.792Z</time></trkpt><trkpt lat="45.8368467367226" lon="8.399995755202186"><ele>305.0</ele><time>2026-04-11T15:17:54.792Z</time></trkpt><trkpt lat="45.83701794031523" lon="8.39992565365054"><ele>304.33333333333337</ele><time>2026-04-11T15:17:55.792Z</time></trkpt><trkpt lat="45.83720198189098" lon="8.399864319913204"><ele>303.6666666666667</ele><time>2026-04-11T15:17:56.792Z</time></trkpt><trkpt lat="45.837388560336116" lon="8.399841448569873"><ele>303.0</ele><time>2026-04-11T15:17:57.792Z</time></trkpt><trkpt lat="45.8375614633482" lon="8.399892312939839"><ele>301.0</ele><time>2026-04-11T15:17:58.792Z</time></trkpt><trkpt lat="45.83775267203875" lon="8.399937600120365"><ele>299.0</ele><time>2026-04-11T15:17:59.792Z</time></trkpt><trkpt lat="45.83791650233403" lon="8.40000709530775"><ele>297.0</ele><time>2026-04-11T15:18:00.792Z</time></trkpt><trkpt lat="45.838069054698416" lon="8.400051793632574"><ele>297.0</ele><time>2026-04-11T15:18:01.792Z</time></trkpt><trkpt lat="45.838197204875236" lon="8.40011983705754"><ele>297.0</ele><time>2026-04-11T15:18:02.792Z</time></trkpt><trkpt lat="45.83830981875935" lon="8.400183530941476"><ele>297.0</ele><time>2026-04-11T15:18:03.792Z</time></trkpt><trkpt lat="45.838412444012704" lon="8.400289207045224"><ele>297.0</ele><time>2026-04-11T15:18:04.792Z</time></trkpt><trkpt lat="45.83848732136969" lon="8.400423098978541"><ele>295.3333333333333</ele><time>2026-04-11T15:18:05.792Z</time></trkpt><trkpt lat="45.838575468176224" lon="8.400622905583626"><ele>293.66666666666663</ele><time>2026-04-11T15:18:06.792Z</time></trkpt><trkpt lat="45.83866675816912" lon="8.400832418661556"><ele>292.0</ele><time>2026-04-11T15:18:07.792Z</time></trkpt><trkpt lat="45.83876603748362" lon="8.401026106960867"><ele>292.0</ele><time>2026-04-11T15:18:08.792Z</time></trkpt><trkpt lat="45.83887281460677" lon="8.401218591489227"><ele>292.0</ele><time>2026-04-11T15:18:09.792Z</time></trkpt><trkpt lat="45.83899017897457" lon="8.401413941854518"><ele>292.0</ele><time>2026-04-11T15:18:10.792Z</time></trkpt><trkpt lat="45.839121150619555" lon="8.401595129162608"><ele>292.66666666666663</ele><time>2026-04-11T15:18:11.792Z</time></trkpt><trkpt lat="45.83925279398087" lon="8.401764838808905"><ele>293.3333333333333</ele><time>2026-04-11T15:18:12.792Z</time></trkpt><trkpt lat="45.83943103112564" lon="8.401895690227837"><ele>294.0</ele><time>2026-04-11T15:18:13.792Z</time></trkpt><trkpt lat="45.83961390686247" lon="8.40200495842216"><ele>294.0</ele><time>2026-04-11T15:18:14.792Z</time></trkpt><trkpt lat="45.8397914459862" lon="8.40215415157862"><ele>294.0</ele><time>2026-04-11T15:18:15.792Z</time></trkpt><trkpt lat="45.83995276674695" lon="8.402318862630528"><ele>294.0</ele><time>2026-04-11T15:18:16.792Z</time></trkpt><trkpt lat="45.84010870457648" lon="8.40246494028699"><ele>294.3333333333333</ele><time>2026-04-11T15:18:17.792Z</time></trkpt><trkpt lat="45.84028026863967" lon="8.402612349924368"><ele>294.66666666666663</ele><time>2026-04-11T15:18:18.792Z</time></trkpt><trkpt lat="45.84044706819897" lon="8.402757439358739"><ele>295.0</ele><time>2026-04-11T15:18:19.792Z</time></trkpt><trkpt lat="45.84060810186894" lon="8.402932483514066"><ele>295.0</ele><time>2026-04-11T15:18:20.792Z</time></trkpt><trkpt lat="45.840776413105424" lon="8.403091133425628"><ele>295.0</ele><time>2026-04-11T15:18:21.792Z</time></trkpt><trkpt lat="45.84094841649633" lon="8.403259101279772"><ele>295.0</ele><time>2026-04-11T15:18:22.792Z</time></trkpt><trkpt lat="45.84111973491462" lon="8.403413028049124"><ele>295.0</ele><time>2026-04-11T15:18:23.792Z</time></trkpt><trkpt lat="45.84126477277281" lon="8.40353115229197"><ele>295.0</ele><time>2026-04-11T15:18:24.792Z</time></trkpt><trkpt lat="45.84144896645101" lon="8.403609294500765"><ele>295.0</ele><time>2026-04-11T15:18:25.792Z</time></trkpt><trkpt lat="45.841650012829916" lon="8.403689397099711"><ele>295.0</ele><time>2026-04-11T15:18:26.792Z</time></trkpt><trkpt lat="45.84186275662181" lon="8.403759802222122"><ele>295.0</ele><time>2026-04-11T15:18:27.792Z</time></trkpt><trkpt lat="45.842070683750244" lon="8.403853248372364"><ele>295.0</ele><time>2026-04-11T15:18:28.792Z</time></trkpt><trkpt lat="45.842272917057755" lon="8.403933760956981"><ele>296.0</ele><time>2026-04-11T15:18:29.792Z</time></trkpt><trkpt lat="45.8424656408566" lon="8.404021274562743"><ele>297.0</ele><time>2026-04-11T15:18:30.792Z</time></trkpt><trkpt lat="45.842649960513135" lon="8.404136796281456"><ele>298.0</ele><time>2026-04-11T15:18:31.792Z</time></trkpt><trkpt lat="45.842841879659275" lon="8.404238435112465"><ele>298.0</ele><time>2026-04-11T15:18:32.792Z</time></trkpt><trkpt lat="45.843033887029165" lon="8.404349739061024"><ele>298.0</ele><time>2026-04-11T15:18:33.792Z</time></trkpt><trkpt lat="45.843218452693776" lon="8.404471649545323"><ele>298.0</ele><time>2026-04-11T15:18:34.792Z</time></trkpt><trkpt lat="45.84341662989812" lon="8.404614013134601"><ele>300.0</ele><time>2026-04-11T15:18:35.792Z</time></trkpt><trkpt lat="45.843618507414966" lon="8.404764328130783"><ele>302.0</ele><time>2026-04-11T15:18:36.792Z</time></trkpt><trkpt lat="45.84380381859455" lon="8.404890498519565"><ele>304.0</ele><time>2026-04-11T15:18:37.792Z</time></trkpt><trkpt lat="45.8439894620077" lon="8.404990347703164"><ele>304.0</ele><time>2026-04-11T15:18:38.791Z</time></trkpt><trkpt lat="45.8441899108171" lon="8.405058667691554"><ele>304.0</ele><time>2026-04-11T15:18:39.791Z</time></trkpt><trkpt lat="45.844401492920575" lon="8.405117011083634"><ele>304.0</ele><time>2026-04-11T15:18:40.791Z</time></trkpt><trkpt lat="45.84462396192245" lon="8.40517743083012"><ele>301.0</ele><time>2026-04-11T15:18:41.791Z</time></trkpt><trkpt lat="45.8448580814672" lon="8.405241126334442"><ele>298.0</ele><time>2026-04-11T15:18:42.791Z</time></trkpt><trkpt lat="45.84508136261354" lon="8.40528902822729"><ele>296.0</ele><time>2026-04-11T15:18:43.791Z</time></trkpt><trkpt lat="45.84529966901686" lon="8.405361156785846"><ele>294.0</ele><time>2026-04-11T15:18:44.791Z</time></trkpt><trkpt lat="45.845525475467745" lon="8.405431792359337"><ele>294.0</ele><time>2026-04-11T15:18:45.791Z</time></trkpt><trkpt lat="45.845750675848734" lon="8.405481839247853"><ele>294.0</ele><time>2026-04-11T15:18:46.791Z</time></trkpt><trkpt lat="45.845973059100295" lon="8.405556929367807"><ele>302.5</ele><time>2026-04-11T15:18:47.791Z</time></trkpt><trkpt lat="45.84619838830424" lon="8.405641269718632"><ele>311.0</ele><time>2026-04-11T15:18:48.791Z</time></trkpt><trkpt lat="45.84641828698361" lon="8.40569466277051"><ele>311.0</ele><time>2026-04-11T15:18:49.791Z</time></trkpt><trkpt lat="45.84662124725881" lon="8.405736624810084"><ele>311.0</ele><time>2026-04-11T15:18:50.791Z</time></trkpt><trkpt lat="45.84683581099937" lon="8.405792961491114"><ele>311.0</ele><time>2026-04-11T15:18:51.791Z</time></trkpt><trkpt lat="45.847046621243464" lon="8.405874625923397"><ele>306.0</ele><time>2026-04-11T15:18:52.791Z</time></trkpt><trkpt lat="45.84726435621944" lon="8.405967606973897"><ele>301.0</ele><time>2026-04-11T15:18:53.791Z</time></trkpt><trkpt lat="45.84748473606983" lon="8.406056616855555"><ele>299.66666666666663</ele><time>2026-04-11T15:18:54.791Z</time></trkpt><trkpt lat="45.847690639272386" lon="8.406131036874076"><ele>298.3333333333333</ele><time>2026-04-11T15:18:55.791Z</time></trkpt><trkpt lat="45.8479090523994" lon="8.40617468980241"><ele>297.0</ele><time>2026-04-11T15:18:56.791Z</time></trkpt><trkpt lat="45.84810958251217" lon="8.406188783012787"><ele>297.0</ele><time>2026-04-11T15:18:57.791Z</time></trkpt><trkpt lat="45.848335626212986" lon="8.406211854049785"><ele>297.0</ele><time>2026-04-11T15:18:58.791Z</time></trkpt><trkpt lat="45.84855620716793" lon="8.406197261991846"><ele>297.0</ele><time>2026-04-11T15:18:59.791Z</time></trkpt><trkpt lat="45.8487612156179" lon="8.406183095016637"><ele>298.0</ele><time>2026-04-11T15:19:00.791Z</time></trkpt><trkpt lat="45.84898119977503" lon="8.40615475006664"><ele>299.0</ele><time>2026-04-11T15:19:01.791Z</time></trkpt><trkpt lat="45.84919637910631" lon="8.406167006093503"><ele>300.0</ele><time>2026-04-11T15:19:02.791Z</time></trkpt><trkpt lat="45.849421150109286" lon="8.406166581921275"><ele>297.3333333333333</ele><time>2026-04-11T15:19:03.791Z</time></trkpt><trkpt lat="45.8496289410381" lon="8.406235652020579"><ele>294.66666666666663</ele><time>2026-04-11T15:19:04.791Z</time></trkpt><trkpt lat="45.849821366954" lon="8.406274850672625"><ele>292.0</ele><time>2026-04-11T15:19:05.791Z</time></trkpt><trkpt lat="45.85003556772164" lon="8.406363390332489"><ele>299.0</ele><time>2026-04-11T15:19:06.791Z</time></trkpt><trkpt lat="45.85025338774919" lon="8.40647087717094"><ele>306.0</ele><time>2026-04-11T15:19:07.791Z</time></trkpt><trkpt lat="45.850462924437835" lon="8.406566084555395"><ele>306.0</ele><time>2026-04-11T15:19:08.791Z</time></trkpt><trkpt lat="45.850693309497004" lon="8.406647723123639"><ele>306.0</ele><time>2026-04-11T15:19:09.791Z</time></trkpt><trkpt lat="45.850916352072986" lon="8.406722665126091"><ele>304.6666666666667</ele><time>2026-04-11T15:19:10.791Z</time></trkpt><trkpt lat="45.85113923749424" lon="8.406808983806584"><ele>303.33333333333337</ele><time>2026-04-11T15:19:11.791Z</time></trkpt><trkpt lat="45.85134133591446" lon="8.406884573515354"><ele>302.0</ele><time>2026-04-11T15:19:12.791Z</time></trkpt><trkpt lat="45.85152952290948" lon="8.406933868563272"><ele>302.0</ele><time>2026-04-11T15:19:13.791Z</time></trkpt><trkpt lat="45.85171765918809" lon="8.406982326601657"><ele>302.0</ele><time>2026-04-11T15:19:14.791Z</time></trkpt><trkpt lat="45.851890428601074" lon="8.406937944997214"><ele>302.0</ele><time>2026-04-11T15:19:15.791Z</time></trkpt><trkpt lat="45.852039838675786" lon="8.406910089749854"><ele>302.0</ele><time>2026-04-11T15:19:16.791Z</time></trkpt><trkpt lat="45.852188571155644" lon="8.40683072018357"><ele>302.0</ele><time>2026-04-11T15:19:17.791Z</time></trkpt><trkpt lat="45.85235176595394" lon="8.406844362217758"><ele>302.0</ele><time>2026-04-11T15:19:18.791Z</time></trkpt><trkpt lat="45.85252360278953" lon="8.406864764006468"><ele>300.0</ele><time>2026-04-11T15:19:19.791Z</time></trkpt><trkpt lat="45.85269411327362" lon="8.406874670591536"><ele>298.0</ele><time>2026-04-11T15:19:20.791Z</time></trkpt><trkpt lat="45.85285083253721" lon="8.406963847846805"><ele>296.0</ele><time>2026-04-11T15:19:21.791Z</time></trkpt><trkpt lat="45.853005850898775" lon="8.407041115274591"><ele>296.0</ele><time>2026-04-11T15:19:22.791Z</time></trkpt><trkpt lat="45.853174910345395" lon="8.40711359976846"><ele>296.0</ele><time>2026-04-11T15:19:23.791Z</time></trkpt><trkpt lat="45.853349568133126" lon="8.407193631156181"><ele>296.0</ele><time>2026-04-11T15:19:24.791Z</time></trkpt><trkpt lat="45.85351076486578" lon="8.407294434758466"><ele>299.0</ele><time>2026-04-11T15:19:25.796Z</time></trkpt><trkpt lat="45.85368385225268" lon="8.407393037643027"><ele>302.0</ele><time>2026-04-11T15:19:27Z</time></trkpt><trkpt lat="45.853857883387704" lon="8.407450476236324"><ele>305.0</ele><time>2026-04-11T15:19:28Z</time></trkpt><trkpt lat="45.854016948903315" lon="8.407501723727947"><ele>305.0</ele><time>2026-04-11T15:19:29Z</time></trkpt><trkpt lat="45.85417317486504" lon="8.407524609211066"><ele>305.0</ele><time>2026-04-11T15:19:30Z</time></trkpt><trkpt lat="45.8543054462932" lon="8.407487579046858"><ele>305.0</ele><time>2026-04-11T15:19:31Z</time></trkpt><trkpt lat="45.85443701363959" lon="8.407481281874878"><ele>305.0</ele><time>2026-04-11T15:19:32Z</time></trkpt><trkpt lat="45.85458545855686" lon="8.407480521776966"><ele>304.5</ele><time>2026-04-11T15:19:33Z</time></trkpt><trkpt lat="45.8547185188397" lon="8.407449493990178"><ele>304.0</ele><time>2026-04-11T15:19:34Z</time></trkpt><trkpt lat="45.854864324584575" lon="8.40742941943419"><ele>303.5</ele><time>2026-04-11T15:19:35Z</time></trkpt><trkpt lat="45.85501860683399" lon="8.407399466899077"><ele>303.0</ele><time>2026-04-11T15:19:36Z</time></trkpt><trkpt lat="45.8551762446458" lon="8.407368114627214"><ele>303.0</ele><time>2026-04-11T15:19:37Z</time></trkpt><trkpt lat="45.85532707312204" lon="8.407321233941133"><ele>303.0</ele><time>2026-04-11T15:19:38Z</time></trkpt><trkpt lat="45.85548944604821" lon="8.407263256023954"><ele>303.0</ele><time>2026-04-11T15:19:39Z</time></trkpt><trkpt lat="45.85564226106103" lon="8.407295993578613"><ele>303.0</ele><time>2026-04-11T15:19:40Z</time></trkpt><trkpt lat="45.8557875841776" lon="8.407399006497982"><ele>303.0</ele><time>2026-04-11T15:19:41Z</time></trkpt><trkpt lat="45.855926871075496" lon="8.40749402777852"><ele>303.0</ele><time>2026-04-11T15:19:42Z</time></trkpt><trkpt lat="45.85608073062458" lon="8.407578360894616"><ele>302.3333333333333</ele><time>2026-04-11T15:19:43Z</time></trkpt><trkpt lat="45.856245420654055" lon="8.407665699620104"><ele>301.66666666666663</ele><time>2026-04-11T15:19:44Z</time></trkpt><trkpt lat="45.85640944275569" lon="8.407759776925642"><ele>301.0</ele><time>2026-04-11T15:19:45Z</time></trkpt><trkpt lat="45.85655402793052" lon="8.407853922108748"><ele>301.0</ele><time>2026-04-11T15:19:46Z</time></trkpt><trkpt lat="45.856701427987076" lon="8.407944611407851"><ele>301.0</ele><time>2026-04-11T15:19:47Z</time></trkpt><trkpt lat="45.85685618150361" lon="8.408035470108569"><ele>301.0</ele><time>2026-04-11T15:19:48Z</time></trkpt><trkpt lat="45.857007471624044" lon="8.40814467880389"><ele>301.3333333333333</ele><time>2026-04-11T15:19:49Z</time></trkpt><trkpt lat="45.85715841521033" lon="8.4082186866302"><ele>301.6666666666667</ele><time>2026-04-11T15:19:50Z</time></trkpt><trkpt lat="45.85729914072662" lon="8.408294945812203"><ele>302.0</ele><time>2026-04-11T15:19:51Z</time></trkpt><trkpt lat="45.85741530888339" lon="8.408408221520466"><ele>302.0</ele><time>2026-04-11T15:19:52Z</time></trkpt><trkpt lat="45.85752193466829" lon="8.40848439777296"><ele>302.0</ele><time>2026-04-11T15:19:53Z</time></trkpt><trkpt lat="45.85762005281524" lon="8.408579637185165"><ele>302.0</ele><time>2026-04-11T15:19:54Z</time></trkpt><trkpt lat="45.85771046526561" lon="8.408624290399317"><ele>302.0</ele><time>2026-04-11T15:19:55Z</time></trkpt><trkpt lat="45.85778644551238" lon="8.408685679300149"><ele>302.0</ele><time>2026-04-11T15:19:56Z</time></trkpt><trkpt lat="45.857850234757464" lon="8.408792386850214"><ele>301.8</ele><time>2026-04-11T15:19:57Z</time></trkpt><trkpt lat="45.8579197314811" lon="8.40892319743084"><ele>301.6</ele><time>2026-04-11T15:19:58Z</time></trkpt><trkpt lat="45.85799689208981" lon="8.409010974561088"><ele>301.40000000000003</ele><time>2026-04-11T15:19:59Z</time></trkpt><trkpt lat="45.858093955719255" lon="8.409088500277752"><ele>301.2</ele><time>2026-04-11T15:20:00Z</time></trkpt><trkpt lat="45.85819132096555" lon="8.409088986991293"><ele>301.0</ele><time>2026-04-11T15:20:01Z</time></trkpt><trkpt lat="45.858300046692676" lon="8.409108420341518"><ele>301.0</ele><time>2026-04-11T15:20:02Z</time></trkpt><trkpt lat="45.858428871230636" lon="8.409134408184508"><ele>301.0</ele><time>2026-04-11T15:20:03Z</time></trkpt><trkpt lat="45.85856354704014" lon="8.409213033953385"><ele>301.0</ele><time>2026-04-11T15:20:04Z</time></trkpt><trkpt lat="45.85868958697119" lon="8.409305321116229"><ele>301.0</ele><time>2026-04-11T15:20:05Z</time></trkpt><trkpt lat="45.85879554669177" lon="8.409400928116565"><ele>300.25</ele><time>2026-04-11T15:20:06Z</time></trkpt><trkpt lat="45.858890629237095" lon="8.409550672669324"><ele>299.5</ele><time>2026-04-11T15:20:07Z</time></trkpt><trkpt lat="45.85901770755251" lon="8.409648351516298"><ele>298.75</ele><time>2026-04-11T15:20:08Z</time></trkpt><trkpt lat="45.859132716150825" lon="8.409738733118015"><ele>298.0</ele><time>2026-04-11T15:20:09Z</time></trkpt><trkpt lat="45.859227088770126" lon="8.409843064460123"><ele>298.5</ele><time>2026-04-11T15:20:10Z</time></trkpt><trkpt lat="45.859307560866526" lon="8.409976189881393"><ele>299.0</ele><time>2026-04-11T15:20:11Z</time></trkpt><trkpt lat="45.859393332238675" lon="8.410104887085717"><ele>299.5</ele><time>2026-04-11T15:20:12Z</time></trkpt><trkpt lat="45.859502976538735" lon="8.410176824186502"><ele>300.0</ele><time>2026-04-11T15:20:13Z</time></trkpt><trkpt lat="45.85962463591612" lon="8.410042630886652"><ele>300.0</ele><time>2026-04-11T15:20:14Z</time></trkpt><trkpt lat="45.85976512583751" lon="8.410054949675402"><ele>300.0</ele><time>2026-04-11T15:20:15Z</time></trkpt><trkpt lat="45.85988537463715" lon="8.410076458438876"><ele>300.0</ele><time>2026-04-11T15:20:16Z</time></trkpt><trkpt lat="45.85998880593404" lon="8.410105684487945"><ele>300.0</ele><time>2026-04-11T15:20:17Z</time></trkpt><trkpt lat="45.86009870614326" lon="8.410170439125826"><ele>299.0</ele><time>2026-04-11T15:20:18Z</time></trkpt><trkpt lat="45.860197037235764" lon="8.410248275831464"><ele>298.0</ele><time>2026-04-11T15:20:19Z</time></trkpt><trkpt lat="45.86027224341727" lon="8.410360499646233"><ele>297.0</ele><time>2026-04-11T15:20:20Z</time></trkpt><trkpt lat="45.86036727384354" lon="8.41045407533227"><ele>296.0</ele><time>2026-04-11T15:20:21Z</time></trkpt><trkpt lat="45.86047749768914" lon="8.41054028705849"><ele>296.0</ele><time>2026-04-11T15:20:22Z</time></trkpt><trkpt lat="45.86059432739141" lon="8.410646771620744"><ele>296.0</ele><time>2026-04-11T15:20:23Z</time></trkpt><trkpt lat="45.860700615419255" lon="8.410768581606343"><ele>296.0</ele><time>2026-04-11T15:20:24Z</time></trkpt><trkpt lat="45.86080613628308" lon="8.410901369434114"><ele>296.0</ele><time>2026-04-11T15:20:25Z</time></trkpt><trkpt lat="45.86092397344454" lon="8.411052756779727"><ele>295.25</ele><time>2026-04-11T15:20:26Z</time></trkpt><trkpt lat="45.8610373740177" lon="8.41121095353719"><ele>294.5</ele><time>2026-04-11T15:20:27Z</time></trkpt><trkpt lat="45.861143374674434" lon="8.411350238048728"><ele>293.75</ele><time>2026-04-11T15:20:28.001Z</time></trkpt><trkpt lat="45.86125288872999" lon="8.411484389782789"><ele>293.0</ele><time>2026-04-11T15:20:29.001Z</time></trkpt><trkpt lat="45.86135411472238" lon="8.411628186451543"><ele>293.75</ele><time>2026-04-11T15:20:30.001Z</time></trkpt><trkpt lat="45.86146878894039" lon="8.411758407550929"><ele>294.5</ele><time>2026-04-11T15:20:31.001Z</time></trkpt><trkpt lat="45.86158921243529" lon="8.411841521090116"><ele>295.25</ele><time>2026-04-11T15:20:32.001Z</time></trkpt><trkpt lat="45.86169064625476" lon="8.411924355860624"><ele>296.0</ele><time>2026-04-11T15:20:33.001Z</time></trkpt><trkpt lat="45.86180095379209" lon="8.412010331905302"><ele>296.0</ele><time>2026-04-11T15:20:34.001Z</time></trkpt><trkpt lat="45.86191316343443" lon="8.412091320929818"><ele>296.0</ele><time>2026-04-11T15:20:35.001Z</time></trkpt><trkpt lat="45.86201947858459" lon="8.412158115946857"><ele>296.0</ele><time>2026-04-11T15:20:36.001Z</time></trkpt><trkpt lat="45.86213360980048" lon="8.412225189250343"><ele>296.0</ele><time>2026-04-11T15:20:37.001Z</time></trkpt><trkpt lat="45.86225025399303" lon="8.412290812210532"><ele>296.5</ele><time>2026-04-11T15:20:38.001Z</time></trkpt><trkpt lat="45.86235907589489" lon="8.412348762699583"><ele>297.0</ele><time>2026-04-11T15:20:39.001Z</time></trkpt><trkpt lat="45.86247678097444" lon="8.412409612044073"><ele>297.5</ele><time>2026-04-11T15:20:40.001Z</time></trkpt><trkpt lat="45.862602878187296" lon="8.412464593322655"><ele>298.0</ele><time>2026-04-11T15:20:41.001Z</time></trkpt><trkpt lat="45.86273323271678" lon="8.412520624415254"><ele>298.0</ele><time>2026-04-11T15:20:42.001Z</time></trkpt><trkpt lat="45.86285998723541" lon="8.412574391770741"><ele>298.0</ele><time>2026-04-11T15:20:43.001Z</time></trkpt><trkpt lat="45.86299673749819" lon="8.41263199655345"><ele>298.0</ele><time>2026-04-11T15:20:44.001Z</time></trkpt><trkpt lat="45.86313927041782" lon="8.412689592274125"><ele>298.0</ele><time>2026-04-11T15:20:45.001Z</time></trkpt><trkpt lat="45.86327376115568" lon="8.41274393851255"><ele>298.0</ele><time>2026-04-11T15:20:46.001Z</time></trkpt><trkpt lat="45.863412540285935" lon="8.412800258283712"><ele>298.0</ele><time>2026-04-11T15:20:47.001Z</time></trkpt><trkpt lat="45.86356223789386" lon="8.412861815538209"><ele>298.0</ele><time>2026-04-11T15:20:48.001Z</time></trkpt><trkpt lat="45.86370450162384" lon="8.412920315686797"><ele>298.0</ele><time>2026-04-11T15:20:49.001Z</time></trkpt><trkpt lat="45.86384119075896" lon="8.412976130779874"><ele>299.0</ele><time>2026-04-11T15:20:50.001Z</time></trkpt><trkpt lat="45.863985793605835" lon="8.413034329825152"><ele>300.0</ele><time>2026-04-11T15:20:51.001Z</time></trkpt><trkpt lat="45.864092023519405" lon="8.413048352940105"><ele>301.0</ele><time>2026-04-11T15:20:52.001Z</time></trkpt><trkpt lat="45.86421662335329" lon="8.413037978006148"><ele>302.0</ele><time>2026-04-11T15:20:53.001Z</time></trkpt><trkpt lat="45.86433883945557" lon="8.413077132043256"><ele>302.0</ele><time>2026-04-11T15:20:54.001Z</time></trkpt><trkpt lat="45.86445153923672" lon="8.413153386517935"><ele>302.0</ele><time>2026-04-11T15:20:55.001Z</time></trkpt><trkpt lat="45.864574123720324" lon="8.41322878317407"><ele>302.0</ele><time>2026-04-11T15:20:56.001Z</time></trkpt><trkpt lat="45.86469434726018" lon="8.413285082740288"><ele>302.0</ele><time>2026-04-11T15:20:57.001Z</time></trkpt><trkpt lat="45.86480167385019" lon="8.413330965264175"><ele>302.0</ele><time>2026-04-11T15:20:58.001Z</time></trkpt><trkpt lat="45.86492145437605" lon="8.413371862067896"><ele>302.0</ele><time>2026-04-11T15:20:59.001Z</time></trkpt><trkpt lat="45.86505676678898" lon="8.413396941436302"><ele>302.0</ele><time>2026-04-11T15:21:00.001Z</time></trkpt><trkpt lat="45.8651916155443" lon="8.413437646080517"><ele>302.0</ele><time>2026-04-11T15:21:01.001Z</time></trkpt><trkpt lat="45.86532587818735" lon="8.413490871690257"><ele>301.0</ele><time>2026-04-11T15:21:02.001Z</time></trkpt><trkpt lat="45.86547453217071" lon="8.413556172802613"><ele>300.0</ele><time>2026-04-11T15:21:03.001Z</time></trkpt><trkpt lat="45.865613005699856" lon="8.413606725316361"><ele>299.0</ele><time>2026-04-11T15:21:04.001Z</time></trkpt><trkpt lat="45.865730420645995" lon="8.413657117778685"><ele>298.0</ele><time>2026-04-11T15:21:05.001Z</time></trkpt><trkpt lat="45.865849459434756" lon="8.413692414419033"><ele>297.5</ele><time>2026-04-11T15:21:06.001Z</time></trkpt><trkpt lat="45.86597977476808" lon="8.41374362858834"><ele>297.0</ele><time>2026-04-11T15:21:07.001Z</time></trkpt><trkpt lat="45.86611280130695" lon="8.413796409497136"><ele>296.5</ele><time>2026-04-11T15:21:08.001Z</time></trkpt><trkpt lat="45.86623755445874" lon="8.413845957202469"><ele>296.0</ele><time>2026-04-11T15:21:09.001Z</time></trkpt><trkpt lat="45.86637211872032" lon="8.41389961928012"><ele>298.75</ele><time>2026-04-11T15:21:10.001Z</time></trkpt><trkpt lat="45.866486255530226" lon="8.413939552705253"><ele>301.5</ele><time>2026-04-11T15:21:11.001Z</time></trkpt><trkpt lat="45.866603977363134" lon="8.413979186954238"><ele>304.25</ele><time>2026-04-11T15:21:12.001Z</time></trkpt><trkpt lat="45.86671763611945" lon="8.413985769940737"><ele>307.0</ele><time>2026-04-11T15:21:13.001Z</time></trkpt><trkpt lat="45.866862156674586" lon="8.413996660000985"><ele>307.5</ele><time>2026-04-11T15:21:14.001Z</time></trkpt><trkpt lat="45.867006895728935" lon="8.413954303025317"><ele>308.0</ele><time>2026-04-11T15:21:15.001Z</time></trkpt><trkpt lat="45.86714270168351" lon="8.413894282041197"><ele>308.5</ele><time>2026-04-11T15:21:16.001Z</time></trkpt><trkpt lat="45.86726688457439" lon="8.413815465469485"><ele>309.0</ele><time>2026-04-11T15:21:17.001Z</time></trkpt><trkpt lat="45.86737440040134" lon="8.413691890225667"><ele>308.25</ele><time>2026-04-11T15:21:18.001Z</time></trkpt><trkpt lat="45.86750501328385" lon="8.41356531627086"><ele>307.5</ele><time>2026-04-11T15:21:19.001Z</time></trkpt><trkpt lat="45.86763352177426" lon="8.413439598309067"><ele>306.75</ele><time>2026-04-11T15:21:20.001Z</time></trkpt><trkpt lat="45.86774827582799" lon="8.413338289612295"><ele>306.0</ele><time>2026-04-11T15:21:21.001Z</time></trkpt><trkpt lat="45.86785505196219" lon="8.413215650737286"><ele>306.0</ele><time>2026-04-11T15:21:22.001Z</time></trkpt><trkpt lat="45.867954053972525" lon="8.413124088337064"><ele>306.0</ele><time>2026-04-11T15:21:23.001Z</time></trkpt><trkpt lat="45.86805286432803" lon="8.413012568281788"><ele>306.0</ele><time>2026-04-11T15:21:24.001Z</time></trkpt><trkpt lat="45.868157770584716" lon="8.41293530161163"><ele>306.0</ele><time>2026-04-11T15:21:25.001Z</time></trkpt><trkpt lat="45.86824521565782" lon="8.41283000020025"><ele>305.25</ele><time>2026-04-11T15:21:26.001Z</time></trkpt><trkpt lat="45.868313326773844" lon="8.412772386177371"><ele>304.5</ele><time>2026-04-11T15:21:27.001Z</time></trkpt><trkpt lat="45.86841130547777" lon="8.41268653867272"><ele>303.75</ele><time>2026-04-11T15:21:28.001Z</time></trkpt><trkpt lat="45.86852164670186" lon="8.412595139572936"><ele>303.0</ele><time>2026-04-11T15:21:29.001Z</time></trkpt><trkpt lat="45.868640491906106" lon="8.412513876256813"><ele>303.0</ele><time>2026-04-11T15:21:30.001Z</time></trkpt><trkpt lat="45.86875620016242" lon="8.412432106918331"><ele>303.0</ele><time>2026-04-11T15:21:31.001Z</time></trkpt><trkpt lat="45.86887567614129" lon="8.412361572182666"><ele>303.0</ele><time>2026-04-11T15:21:32.001Z</time></trkpt><trkpt lat="45.86901372410265" lon="8.412327124585477"><ele>303.0</ele><time>2026-04-11T15:21:33.001Z</time></trkpt><trkpt lat="45.869128886228616" lon="8.412275480574248"><ele>303.0</ele><time>2026-04-11T15:21:34.001Z</time></trkpt><trkpt lat="45.86923905871866" lon="8.412286694044361"><ele>303.0</ele><time>2026-04-11T15:21:35.001Z</time></trkpt><trkpt lat="45.869349369327615" lon="8.412250810682119"><ele>303.0</ele><time>2026-04-11T15:21:36.001Z</time></trkpt><trkpt lat="45.8694502069782" lon="8.41221965601434"><ele>303.0</ele><time>2026-04-11T15:21:37.001Z</time></trkpt><trkpt lat="45.86955600047866" lon="8.412204233425893"><ele>303.0</ele><time>2026-04-11T15:21:38.001Z</time></trkpt><trkpt lat="45.869631710377135" lon="8.412181016466954"><ele>303.0</ele><time>2026-04-11T15:21:39.001Z</time></trkpt><trkpt lat="45.86974455775788" lon="8.412177696629364"><ele>303.0</ele><time>2026-04-11T15:21:40.001Z</time></trkpt><trkpt lat="45.869866489032596" lon="8.412213551359127"><ele>303.0</ele><time>2026-04-11T15:21:41.001Z</time></trkpt><trkpt lat="45.86998829466476" lon="8.41224158716833"><ele>303.0</ele><time>2026-04-11T15:21:42.001Z</time></trkpt><trkpt lat="45.87010969189853" lon="8.412270959728652"><ele>303.0</ele><time>2026-04-11T15:21:43.001Z</time></trkpt><trkpt lat="45.87023047607585" lon="8.412290128667042"><ele>303.0</ele><time>2026-04-11T15:21:44.001Z</time></trkpt><trkpt lat="45.87035036722651" lon="8.412309459462817"><ele>303.0</ele><time>2026-04-11T15:21:45.001Z</time></trkpt><trkpt lat="45.87047722001658" lon="8.412363192720788"><ele>303.0</ele><time>2026-04-11T15:21:46.001Z</time></trkpt><trkpt lat="45.870588297387066" lon="8.412391936706483"><ele>303.0</ele><time>2026-04-11T15:21:47.001Z</time></trkpt><trkpt lat="45.8707027713124" lon="8.41242155961431"><ele>303.0</ele><time>2026-04-11T15:21:48.001Z</time></trkpt><trkpt lat="45.87082164268251" lon="8.412452389107882"><ele>303.0</ele><time>2026-04-11T15:21:49.001Z</time></trkpt><trkpt lat="45.87093460360268" lon="8.41248174619129"><ele>303.0</ele><time>2026-04-11T15:21:50.001Z</time></trkpt><trkpt lat="45.87106007340503" lon="8.412514354150032"><ele>302.8</ele><time>2026-04-11T15:21:51.001Z</time></trkpt><trkpt lat="45.871171293028546" lon="8.412543258680241"><ele>302.6</ele><time>2026-04-11T15:21:52.001Z</time></trkpt><trkpt lat="45.87128364483252" lon="8.41257245744686"><ele>302.4</ele><time>2026-04-11T15:21:53.001Z</time></trkpt><trkpt lat="45.87139297735502" lon="8.412600871545271"><ele>302.2</ele><time>2026-04-11T15:21:54.001Z</time></trkpt><trkpt lat="45.87149733199906" lon="8.412627991930483"><ele>302.0</ele><time>2026-04-11T15:21:55.001Z</time></trkpt><trkpt lat="45.87161280745484" lon="8.41265800246482"><ele>302.0</ele><time>2026-04-11T15:21:56.001Z</time></trkpt><trkpt lat="45.87173113867381" lon="8.412689013560207"><ele>302.0</ele><time>2026-04-11T15:21:57.001Z</time></trkpt><trkpt lat="45.87182932096385" lon="8.412714815940975"><ele>302.0</ele><time>2026-04-11T15:21:58.001Z</time></trkpt><trkpt lat="45.87192314406572" lon="8.41272616017211"><ele>302.0</ele><time>2026-04-11T15:21:59.001Z</time></trkpt><trkpt lat="45.87205792470354" lon="8.41277485173689"><ele>301.8</ele><time>2026-04-11T15:22:01.001Z</time></trkpt><trkpt lat="45.8721513014028" lon="8.41279955658252"><ele>301.6</ele><time>2026-04-11T15:22:02.001Z</time></trkpt><trkpt lat="45.872248929980536" lon="8.412825388324022"><ele>301.40000000000003</ele><time>2026-04-11T15:22:03.001Z</time></trkpt><trkpt lat="45.87233268450008" lon="8.412847547404517"><ele>301.2</ele><time>2026-04-11T15:22:04.001Z</time></trkpt><trkpt lat="45.87242578883063" lon="8.412830861919543"><ele>301.0</ele><time>2026-04-11T15:22:05.001Z</time></trkpt><trkpt lat="45.87252460343836" lon="8.412867393975622"><ele>301.40000000000003</ele><time>2026-04-11T15:22:06.001Z</time></trkpt><trkpt lat="45.87265384663344" lon="8.412852114790311"><ele>301.8</ele><time>2026-04-11T15:22:08.001Z</time></trkpt><trkpt lat="45.87273854016526" lon="8.412868981060063"><ele>302.20000000000005</ele><time>2026-04-11T15:22:09.001Z</time></trkpt><trkpt lat="45.87283549067908" lon="8.412858952296263"><ele>302.6</ele><time>2026-04-11T15:22:10.001Z</time></trkpt><trkpt lat="45.87293995987708" lon="8.412880271858882"><ele>303.0</ele><time>2026-04-11T15:22:11.001Z</time></trkpt><trkpt lat="45.87302501738323" lon="8.412861324955179"><ele>303.0</ele><time>2026-04-11T15:22:12.001Z</time></trkpt><trkpt lat="45.87310366674489" lon="8.412846553982837"><ele>303.0</ele><time>2026-04-11T15:22:13.001Z</time></trkpt><trkpt lat="45.8731833060203" lon="8.412791627303447"><ele>303.0</ele><time>2026-04-11T15:22:14.001Z</time></trkpt><trkpt lat="45.87325679829787" lon="8.412704216731903"><ele>303.0</ele><time>2026-04-11T15:22:15.001Z</time></trkpt><trkpt lat="45.8733398708755" lon="8.412652092699934"><ele>303.0</ele><time>2026-04-11T15:22:16.001Z</time></trkpt><trkpt lat="45.87342099220234" lon="8.41256591903004"><ele>303.2</ele><time>2026-04-11T15:22:17.001Z</time></trkpt><trkpt lat="45.87350704687557" lon="8.412483056544566"><ele>303.4</ele><time>2026-04-11T15:22:18.001Z</time></trkpt><trkpt lat="45.87358009714692" lon="8.412388905560341"><ele>303.59999999999997</ele><time>2026-04-11T15:22:19.001Z</time></trkpt><trkpt lat="45.87365366117346" lon="8.412307561567323"><ele>303.8</ele><time>2026-04-11T15:22:20.001Z</time></trkpt><trkpt lat="45.87371796109555" lon="8.41221131544332"><ele>304.0</ele><time>2026-04-11T15:22:21.001Z</time></trkpt><trkpt lat="45.873781111983284" lon="8.412116623524268"><ele>303.2</ele><time>2026-04-11T15:22:22.001Z</time></trkpt><trkpt lat="45.873857532720166" lon="8.412043878365356"><ele>302.4</ele><time>2026-04-11T15:22:23.001Z</time></trkpt><trkpt lat="45.87393184694059" lon="8.411971339138887"><ele>301.6</ele><time>2026-04-11T15:22:24.001Z</time></trkpt><trkpt lat="45.87400758654507" lon="8.411890369043505"><ele>300.8</ele><time>2026-04-11T15:22:25.001Z</time></trkpt><trkpt lat="45.874080057456126" lon="8.4118062572857"><ele>300.0</ele><time>2026-04-11T15:22:26.001Z</time></trkpt><trkpt lat="45.874133613894315" lon="8.411690143626018"><ele>300.0</ele><time>2026-04-11T15:22:27.001Z</time></trkpt><trkpt lat="45.87420299461861" lon="8.41158926840152"><ele>300.0</ele><time>2026-04-11T15:22:28.001Z</time></trkpt><trkpt lat="45.874277601678166" lon="8.411504423347143"><ele>300.0</ele><time>2026-04-11T15:22:29.001Z</time></trkpt><trkpt lat="45.87434761276247" lon="8.411424792088932"><ele>300.0</ele><time>2026-04-11T15:22:30.001Z</time></trkpt><trkpt lat="45.874412694716526" lon="8.41134817227325"><ele>300.0</ele><time>2026-04-11T15:22:31.001Z</time></trkpt><trkpt lat="45.87446822635077" lon="8.411277661607679"><ele>300.0</ele><time>2026-04-11T15:22:32.001Z</time></trkpt><trkpt lat="45.87451471742834" lon="8.411203725379222"><ele>300.1666666666667</ele><time>2026-04-11T15:22:33.001Z</time></trkpt><trkpt lat="45.87456724215151" lon="8.41114980176451"><ele>300.3333333333333</ele><time>2026-04-11T15:22:34.001Z</time></trkpt><trkpt lat="45.87465130954949" lon="8.411032369906614"><ele>300.5</ele><time>2026-04-11T15:22:36.001Z</time></trkpt><trkpt lat="45.87472033717309" lon="8.410960020567313"><ele>300.66666666666663</ele><time>2026-04-11T15:22:38.001Z</time></trkpt><trkpt lat="45.87479740511753" lon="8.410885138433231"><ele>300.8333333333333</ele><time>2026-04-11T15:22:41.001Z</time></trkpt><trkpt lat="45.87484566218132" lon="8.41081686848054"><ele>301.0</ele><time>2026-04-11T15:22:43.001Z</time></trkpt><trkpt lat="45.87493326598588" lon="8.410703233042804"><ele>301.0</ele><time>2026-04-11T15:22:45.001Z</time></trkpt><trkpt lat="45.87499061007757" lon="8.41063809574507"><ele>301.0</ele><time>2026-04-11T15:22:46.001Z</time></trkpt><trkpt lat="45.87504940080317" lon="8.410573796487098"><ele>301.0</ele><time>2026-04-11T15:22:47.001Z</time></trkpt><trkpt lat="45.87510742398126" lon="8.410503935636738"><ele>301.0</ele><time>2026-04-11T15:22:48.001Z</time></trkpt><trkpt lat="45.8751629154119" lon="8.410422733679049"><ele>301.0</ele><time>2026-04-11T15:22:49.001Z</time></trkpt><trkpt lat="45.87522476509685" lon="8.410356239226198"><ele>301.0</ele><time>2026-04-11T15:22:50.001Z</time></trkpt><trkpt lat="45.87528333298418" lon="8.410291314408166"><ele>300.8333333333333</ele><time>2026-04-11T15:22:51.001Z</time></trkpt><trkpt lat="45.87534079057274" lon="8.410224118483656"><ele>300.66666666666663</ele><time>2026-04-11T15:22:52.001Z</time></trkpt><trkpt lat="45.87539338312017" lon="8.410162656767117"><ele>300.5</ele><time>2026-04-11T15:22:53.001Z</time></trkpt><trkpt lat="45.875439757168955" lon="8.410094818114379"><ele>300.3333333333333</ele><time>2026-04-11T15:22:54.001Z</time></trkpt><trkpt lat="45.87549325876947" lon="8.410028764894797"><ele>300.1666666666667</ele><time>2026-04-11T15:22:55.001Z</time></trkpt><trkpt lat="45.87555409500995" lon="8.409941576002042"><ele>300.0</ele><time>2026-04-11T15:22:57.001Z</time></trkpt><trkpt lat="45.87556070635919" lon="8.409779233626377"><ele>299.6</ele><time>2026-04-11T15:22:59.001Z</time></trkpt><trkpt lat="45.8755175106135" lon="8.409619621142765"><ele>299.2</ele><time>2026-04-11T15:23:01.001Z</time></trkpt><trkpt lat="45.87550497868933" lon="8.409471665119838"><ele>298.8</ele><time>2026-04-11T15:23:03.001Z</time></trkpt><trkpt lat="45.87548505709588" lon="8.409344145236734"><ele>298.4</ele><time>2026-04-11T15:23:05.001Z</time></trkpt><trkpt lat="45.87552509307975" lon="8.40919883894754"><ele>298.0</ele><time>2026-04-11T15:23:07.001Z</time></trkpt><trkpt lat="45.87550548440212" lon="8.409100266433613"><ele>298.0</ele><time>2026-04-11T15:23:09.001Z</time></trkpt><trkpt lat="45.87539268465631" lon="8.40901446160871"><ele>298.0</ele><time>2026-04-11T15:23:10.001Z</time></trkpt><trkpt lat="45.87529093034921" lon="8.409023686887288"><ele>298.0</ele><time>2026-04-11T15:23:12.001Z</time></trkpt><trkpt lat="45.87517767542757" lon="8.409026519363596"><ele>298.0</ele><time>2026-04-11T15:23:14.001Z</time></trkpt><trkpt lat="45.87506293742449" lon="8.409018222221881"><ele>297.85714285714283</ele><time>2026-04-11T15:23:16.001Z</time></trkpt><trkpt lat="45.87499984582248" lon="8.409035155372473"><ele>297.71428571428567</ele><time>2026-04-11T15:23:17.001Z</time></trkpt><trkpt lat="45.87493264839856" lon="8.409027968868621"><ele>297.57142857142856</ele><time>2026-04-11T15:23:18.001Z</time></trkpt><trkpt lat="45.87486513782575" lon="8.40901884659773"><ele>297.42857142857144</ele><time>2026-04-11T15:23:19.001Z</time></trkpt><trkpt lat="45.87480222926769" lon="8.409014870589163"><ele>297.28571428571433</ele><time>2026-04-11T15:23:20.001Z</time></trkpt><trkpt lat="45.87473936294744" lon="8.408988891778597"><ele>297.14285714285717</ele><time>2026-04-11T15:23:21.001Z</time></trkpt><trkpt lat="45.874688606577216" lon="8.408911476132126"><ele>297.0</ele><time>2026-04-11T15:23:22.001Z</time></trkpt><trkpt lat="45.87463962589878" lon="8.408826575958225"><ele>297.3333333333333</ele><time>2026-04-11T15:23:23.001Z</time></trkpt><trkpt lat="45.87461080225045" lon="8.408737001890437"><ele>297.6666666666667</ele><time>2026-04-11T15:23:24.001Z</time></trkpt><trkpt lat="45.87458455348483" lon="8.408645598919191"><ele>298.0</ele><time>2026-04-11T15:23:25.001Z</time></trkpt><trkpt lat="45.874564986793324" lon="8.408552066876299"><ele>298.33333333333337</ele><time>2026-04-11T15:23:26.001Z</time></trkpt><trkpt lat="45.87451436610269" lon="8.408421330379982"><ele>298.6666666666667</ele><time>2026-04-11T15:23:28.001Z</time></trkpt><trkpt lat="45.87447617074633" lon="8.40831684056294"><ele>299.0</ele><time>2026-04-11T15:23:30.001Z</time></trkpt><trkpt lat="45.87444768727844" lon="8.408234881920796"><ele>299.0</ele><time>2026-04-11T15:23:32.001Z</time></trkpt><trkpt lat="45.87444761210318" lon="8.40813623884169"><ele>299.0</ele><time>2026-04-11T15:23:43.001Z</time></trkpt><trkpt lat="45.87442099544517" lon="8.408044769087919"><ele>299.0</ele><time>2026-04-11T15:23:45.001Z</time></trkpt><trkpt lat="45.87437167091418" lon="8.407906313205803"><ele>299.0</ele><time>2026-04-11T15:23:47.001Z</time></trkpt><trkpt lat="45.87436228137698" lon="8.407804810647969"><ele>299.0</ele><time>2026-04-11T15:23:49.001Z</time></trkpt><trkpt lat="45.87436760185734" lon="8.407696619331762"><ele>299.0</ele><time>2026-04-11T15:23:50.001Z</time></trkpt><trkpt lat="45.87427521149491" lon="8.407586477440335"><ele>298.6666666666667</ele><time>2026-04-11T15:23:52.001Z</time></trkpt><trkpt lat="45.874213771052894" lon="8.407520620017255"><ele>298.33333333333337</ele><time>2026-04-11T15:23:53.001Z</time></trkpt><trkpt lat="45.87411383579292" lon="8.407421777678955"><ele>298.0</ele><time>2026-04-11T15:23:55.001Z</time></trkpt><trkpt lat="45.87405861088549" lon="8.407366552680397"><ele>297.6666666666667</ele><time>2026-04-11T15:23:56.001Z</time></trkpt><trkpt lat="45.874003073905016" lon="8.407308693314487"><ele>297.3333333333333</ele><time>2026-04-11T15:23:57.001Z</time></trkpt><trkpt lat="45.87394736259801" lon="8.407250652285219"><ele>297.0</ele><time>2026-04-11T15:23:58.001Z</time></trkpt><trkpt lat="45.87387695343051" lon="8.407177319621606"><ele>296.5</ele><time>2026-04-11T15:23:59.001Z</time></trkpt><trkpt lat="45.8737976247967" lon="8.407094700600222"><ele>296.0</ele><time>2026-04-11T15:24:00.001Z</time></trkpt><trkpt lat="45.87370679784087" lon="8.407000873609498"><ele>295.5</ele><time>2026-04-11T15:24:01.001Z</time></trkpt><trkpt lat="45.87353980247726" lon="8.406876590212423"><ele>295.0</ele><time>2026-04-11T15:24:02.001Z</time></trkpt><trkpt lat="45.873367058720675" lon="8.407275303519864"><ele>295.0</ele><time>2026-04-11T15:24:03.001Z</time></trkpt><trkpt lat="45.873262719125" lon="8.40725705627495"><ele>295.0</ele><time>2026-04-11T15:24:04.001Z</time></trkpt><trkpt lat="45.87315300144006" lon="8.40723545874409"><ele>295.0</ele><time>2026-04-11T15:24:05.001Z</time></trkpt><trkpt lat="45.87303737616007" lon="8.407203851687662"><ele>295.0</ele><time>2026-04-11T15:24:06.001Z</time></trkpt><trkpt lat="45.87293162676622" lon="8.407152761209788"><ele>295.0</ele><time>2026-04-11T15:24:07.001Z</time></trkpt><trkpt lat="45.87284367722815" lon="8.407041469628128"><ele>295.8</ele><time>2026-04-11T15:24:08.001Z</time></trkpt><trkpt lat="45.87276197762325" lon="8.406973170496963"><ele>296.6</ele><time>2026-04-11T15:24:09.001Z</time></trkpt><trkpt lat="45.872684811766476" lon="8.406887956413206"><ele>297.4</ele><time>2026-04-11T15:24:10.001Z</time></trkpt><trkpt lat="45.872608772751725" lon="8.406795172069387"><ele>298.2</ele><time>2026-04-11T15:24:11.001Z</time></trkpt><trkpt lat="45.872529974080436" lon="8.406693810148568"><ele>299.0</ele><time>2026-04-11T15:24:12.001Z</time></trkpt><trkpt lat="45.87244835279906" lon="8.40658740220793"><ele>299.0</ele><time>2026-04-11T15:24:13.001Z</time></trkpt><trkpt lat="45.872374059388854" lon="8.406468596470036"><ele>299.0</ele><time>2026-04-11T15:24:14.001Z</time></trkpt><trkpt lat="45.87240743097238" lon="8.40619635637772"><ele>299.0</ele><time>2026-04-11T15:24:15.001Z</time></trkpt><trkpt lat="45.87232607494142" lon="8.406072859048196"><ele>299.0</ele><time>2026-04-11T15:24:16.001Z</time></trkpt><trkpt lat="45.87224926751211" lon="8.405950946711236"><ele>301.5</ele><time>2026-04-11T15:24:17.001Z</time></trkpt><trkpt lat="45.87217888832025" lon="8.405820353592976"><ele>304.0</ele><time>2026-04-11T15:24:18.001Z</time></trkpt><trkpt lat="45.87210568024471" lon="8.405676973561118"><ele>306.5</ele><time>2026-04-11T15:24:19.001Z</time></trkpt><trkpt lat="45.87203200437462" lon="8.405532329709345"><ele>309.0</ele><time>2026-04-11T15:24:20.001Z</time></trkpt><trkpt lat="45.871949028673704" lon="8.405369427959073"><ele>307.0</ele><time>2026-04-11T15:24:21.001Z</time></trkpt><trkpt lat="45.871864283036274" lon="8.405205383145885"><ele>305.0</ele><time>2026-04-11T15:24:22.001Z</time></trkpt><trkpt lat="45.871780967417095" lon="8.405044288876713"><ele>303.0</ele><time>2026-04-11T15:24:23.001Z</time></trkpt><trkpt lat="45.871698228245315" lon="8.404884309084268"><ele>301.0</ele><time>2026-04-11T15:24:24.001Z</time></trkpt><trkpt lat="45.871603565164115" lon="8.404701199570011"><ele>304.3333333333333</ele><time>2026-04-11T15:24:25.001Z</time></trkpt><trkpt lat="45.87149930093614" lon="8.404528903902488"><ele>307.6666666666667</ele><time>2026-04-11T15:24:26.001Z</time></trkpt><trkpt lat="45.87143063964568" lon="8.404301132165285"><ele>311.0</ele><time>2026-04-11T15:24:27.001Z</time></trkpt><trkpt lat="45.87135336374669" lon="8.404083039792797"><ele>311.0</ele><time>2026-04-11T15:24:28.001Z</time></trkpt><trkpt lat="45.87129149785373" lon="8.403860487675214"><ele>311.0</ele><time>2026-04-11T15:24:29.001Z</time></trkpt><trkpt lat="45.87121511180175" lon="8.403660864978821"><ele>311.0</ele><time>2026-04-11T15:24:30.001Z</time></trkpt><trkpt lat="45.871156660410634" lon="8.403444527128457"><ele>311.0</ele><time>2026-04-11T15:24:31.001Z</time></trkpt><trkpt lat="45.87110295296808" lon="8.40323696708447"><ele>311.0</ele><time>2026-04-11T15:24:32.001Z</time></trkpt><trkpt lat="45.87102910211719" lon="8.403074495046456"><ele>311.0</ele><time>2026-04-11T15:24:33.001Z</time></trkpt><trkpt lat="45.87094667146374" lon="8.4029187071751"><ele>311.0</ele><time>2026-04-11T15:24:34.001Z</time></trkpt><trkpt lat="45.870856463735" lon="8.402749116975235"><ele>311.0</ele><time>2026-04-11T15:24:35.001Z</time></trkpt><trkpt lat="45.8707694867831" lon="8.402581195722924"><ele>311.0</ele><time>2026-04-11T15:24:36.001Z</time></trkpt><trkpt lat="45.870685671184894" lon="8.402416777009147"><ele>311.0</ele><time>2026-04-11T15:24:37.001Z</time></trkpt><trkpt lat="45.870600372059286" lon="8.402253060588315"><ele>311.0</ele><time>2026-04-11T15:24:38.001Z</time></trkpt><trkpt lat="45.87051115756073" lon="8.402085627253687"><ele>312.25</ele><time>2026-04-11T15:24:39.001Z</time></trkpt><trkpt lat="45.870417559993335" lon="8.40193602767064"><ele>313.5</ele><time>2026-04-11T15:24:40.001Z</time></trkpt><trkpt lat="45.87033875490236" lon="8.401783849035144"><ele>314.75</ele><time>2026-04-11T15:24:41.001Z</time></trkpt><trkpt lat="45.870258827689796" lon="8.401632953254655"><ele>316.0</ele><time>2026-04-11T15:24:42.001Z</time></trkpt><trkpt lat="45.87019801863729" lon="8.401481911591587"><ele>319.25</ele><time>2026-04-11T15:24:43.001Z</time></trkpt><trkpt lat="45.87020369343453" lon="8.40131622798748"><ele>322.5</ele><time>2026-04-11T15:24:44.001Z</time></trkpt><trkpt lat="45.870194611520006" lon="8.401142588285031"><ele>325.75</ele><time>2026-04-11T15:24:45.001Z</time></trkpt><trkpt lat="45.87018648282811" lon="8.400961242137832"><ele>329.0</ele><time>2026-04-11T15:24:46.001Z</time></trkpt><trkpt lat="45.87018101532149" lon="8.400778023431274"><ele>329.0</ele><time>2026-04-11T15:24:47.001Z</time></trkpt><trkpt lat="45.87016851106526" lon="8.400593309196745"><ele>329.0</ele><time>2026-04-11T15:24:48.001Z</time></trkpt><trkpt lat="45.87014347390555" lon="8.400409697339713"><ele>329.0</ele><time>2026-04-11T15:24:49.001Z</time></trkpt><trkpt lat="45.870113739446886" lon="8.400235476953666"><ele>329.0</ele><time>2026-04-11T15:24:50.001Z</time></trkpt><trkpt lat="45.87007155814763" lon="8.400071163566405"><ele>327.4</ele><time>2026-04-11T15:24:51.001Z</time></trkpt><trkpt lat="45.87004950785866" lon="8.399906592560676"><ele>325.79999999999995</ele><time>2026-04-11T15:24:52.001Z</time></trkpt><trkpt lat="45.87003891681407" lon="8.39974685369601"><ele>324.20000000000005</ele><time>2026-04-11T15:24:53.002Z</time></trkpt><trkpt lat="45.87002540145098" lon="8.399587826668872"><ele>322.6</ele><time>2026-04-11T15:24:54.002Z</time></trkpt><trkpt lat="45.87002864822362" lon="8.399440374700216"><ele>321.0</ele><time>2026-04-11T15:24:55.002Z</time></trkpt><trkpt lat="45.87004049122216" lon="8.399297310596799"><ele>321.0</ele><time>2026-04-11T15:24:56.002Z</time></trkpt><trkpt lat="45.870053885231464" lon="8.399149533410622"><ele>321.0</ele><time>2026-04-11T15:24:57.002Z</time></trkpt><trkpt lat="45.87007000103213" lon="8.398992705001858"><ele>321.0</ele><time>2026-04-11T15:24:58.002Z</time></trkpt><trkpt lat="45.87010751257202" lon="8.398831982343614"><ele>321.0</ele><time>2026-04-11T15:24:59.002Z</time></trkpt><trkpt lat="45.87014782958704" lon="8.398672495524174"><ele>322.0</ele><time>2026-04-11T15:25:00.002Z</time></trkpt><trkpt lat="45.87018577694873" lon="8.398513118854785"><ele>323.0</ele><time>2026-04-11T15:25:01.002Z</time></trkpt><trkpt lat="45.870223849279185" lon="8.398340480543917"><ele>324.0</ele><time>2026-04-11T15:25:02.002Z</time></trkpt><trkpt lat="45.870262858112554" lon="8.398163828757424"><ele>325.0</ele><time>2026-04-11T15:25:03.002Z</time></trkpt><trkpt lat="45.87030318026492" lon="8.397986877300271"><ele>325.0</ele><time>2026-04-11T15:25:04.002Z</time></trkpt><trkpt lat="45.87034995131661" lon="8.397809456240015"><ele>325.0</ele><time>2026-04-11T15:25:05.002Z</time></trkpt><trkpt lat="45.87039369272531" lon="8.39762220141055"><ele>325.0</ele><time>2026-04-11T15:25:06.002Z</time></trkpt><trkpt lat="45.870440857608806" lon="8.397437204836812"><ele>325.0</ele><time>2026-04-11T15:25:07.002Z</time></trkpt><trkpt lat="45.87048297782564" lon="8.3972527212846"><ele>324.8</ele><time>2026-04-11T15:25:08.002Z</time></trkpt><trkpt lat="45.87052520957207" lon="8.397074592188357"><ele>324.6</ele><time>2026-04-11T15:25:09.002Z</time></trkpt><trkpt lat="45.87057144902367" lon="8.396915201654627"><ele>324.4</ele><time>2026-04-11T15:25:10.002Z</time></trkpt><trkpt lat="45.8706020017732" lon="8.396769130976766"><ele>324.2</ele><time>2026-04-11T15:25:11.002Z</time></trkpt><trkpt lat="45.87061602629718" lon="8.396639565853464"><ele>324.0</ele><time>2026-04-11T15:25:12.002Z</time></trkpt><trkpt lat="45.87062557284947" lon="8.396535509652127"><ele>324.0</ele><time>2026-04-11T15:25:13.002Z</time></trkpt><trkpt lat="45.87063184835292" lon="8.396425322358"><ele>324.0</ele><time>2026-04-11T15:25:15.002Z</time></trkpt><trkpt lat="45.87062745798201" lon="8.396333790852816"><ele>324.0</ele><time>2026-04-11T15:25:17.002Z</time></trkpt><trkpt lat="45.870646438594754" lon="8.396217162757637"><ele>324.0</ele><time>2026-04-11T15:25:19.002Z</time></trkpt><trkpt lat="45.87055917889474" lon="8.396151863881176"><ele>324.0</ele><time>2026-04-11T15:25:21.002Z</time></trkpt><trkpt lat="45.87046333102109" lon="8.396152120740707"><ele>324.0</ele><time>2026-04-11T15:25:22.002Z</time></trkpt><trkpt lat="45.8703656889087" lon="8.396094828801628"><ele>323.5</ele><time>2026-04-11T15:25:23.002Z</time></trkpt><trkpt lat="45.87024472814892" lon="8.396073485469424"><ele>323.0</ele><time>2026-04-11T15:25:24.002Z</time></trkpt><trkpt lat="45.87012029747708" lon="8.396024835517233"><ele>322.5</ele><time>2026-04-11T15:25:25.002Z</time></trkpt><trkpt lat="45.869983814573686" lon="8.395988833986097"><ele>322.0</ele><time>2026-04-11T15:25:26.002Z</time></trkpt><trkpt lat="45.86984399287712" lon="8.395970564528428"><ele>321.0</ele><time>2026-04-11T15:25:27.002Z</time></trkpt><trkpt lat="45.86971820289246" lon="8.395916417340493"><ele>320.0</ele><time>2026-04-11T15:25:28.002Z</time></trkpt><trkpt lat="45.86959416243818" lon="8.395878997784168"><ele>319.0</ele><time>2026-04-11T15:25:29.002Z</time></trkpt><trkpt lat="45.869464228904945" lon="8.395846389324317"><ele>318.0</ele><time>2026-04-11T15:25:30.002Z</time></trkpt><trkpt lat="45.86933379355768" lon="8.39587170312448"><ele>321.25</ele><time>2026-04-11T15:25:31.002Z</time></trkpt><trkpt lat="45.869233095560325" lon="8.39597776146283"><ele>324.5</ele><time>2026-04-11T15:25:32.002Z</time></trkpt><trkpt lat="45.86912088954124" lon="8.39607270996329"><ele>327.75</ele><time>2026-04-11T15:25:33.002Z</time></trkpt><trkpt lat="45.86899769527611" lon="8.396163940902358"><ele>331.0</ele><time>2026-04-11T15:25:34.002Z</time></trkpt><trkpt lat="45.8688678060678" lon="8.396245298870053"><ele>331.0</ele><time>2026-04-11T15:25:35.002Z</time></trkpt><trkpt lat="45.86873777999047" lon="8.39630811394473"><ele>331.0</ele><time>2026-04-11T15:25:36.002Z</time></trkpt><trkpt lat="45.86859909579565" lon="8.396330273996961"><ele>331.0</ele><time>2026-04-11T15:25:37.002Z</time></trkpt><trkpt lat="45.86846226970365" lon="8.396336827668659"><ele>331.0</ele><time>2026-04-11T15:25:38.002Z</time></trkpt><trkpt lat="45.86831829283075" lon="8.396289662304236"><ele>338.3333333333333</ele><time>2026-04-11T15:25:39.002Z</time></trkpt><trkpt lat="45.8681657508004" lon="8.396219755085093"><ele>345.6666666666667</ele><time>2026-04-11T15:25:40.002Z</time></trkpt><trkpt lat="45.8680086733361" lon="8.396163764456318"><ele>353.0</ele><time>2026-04-11T15:25:41.002Z</time></trkpt><trkpt lat="45.86784701994051" lon="8.396083643120626"><ele>353.0</ele><time>2026-04-11T15:25:42.002Z</time></trkpt><trkpt lat="45.86768397557765" lon="8.396006525747598"><ele>353.0</ele><time>2026-04-11T15:25:43.002Z</time></trkpt><trkpt lat="45.86752463279894" lon="8.395948277527477"><ele>353.0</ele><time>2026-04-11T15:25:44.002Z</time></trkpt><trkpt lat="45.86736457621891" lon="8.395874768526372"><ele>348.33333333333337</ele><time>2026-04-11T15:25:45.002Z</time></trkpt><trkpt lat="45.86722229670679" lon="8.395748448987494"><ele>343.6666666666667</ele><time>2026-04-11T15:25:46.002Z</time></trkpt><trkpt lat="45.86707875287226" lon="8.395641902614914"><ele>339.0</ele><time>2026-04-11T15:25:47.002Z</time></trkpt><trkpt lat="45.8669272427251" lon="8.395478062746964"><ele>343.0</ele><time>2026-04-11T15:25:48.002Z</time></trkpt><trkpt lat="45.86676506475982" lon="8.39531234381159"><ele>347.0</ele><time>2026-04-11T15:25:49.002Z</time></trkpt><trkpt lat="45.866594745177565" lon="8.395154416351822"><ele>351.0</ele><time>2026-04-11T15:25:50.002Z</time></trkpt><trkpt lat="45.86641043722444" lon="8.394981392006423"><ele>351.0</ele><time>2026-04-11T15:25:51.002Z</time></trkpt><trkpt lat="45.86621362903693" lon="8.394807231739268"><ele>351.0</ele><time>2026-04-11T15:25:52.002Z</time></trkpt><trkpt lat="45.8660198002927" lon="8.39459375587737"><ele>359.5</ele><time>2026-04-11T15:25:53.002Z</time></trkpt><trkpt lat="45.8658365052215" lon="8.394395497148658"><ele>368.0</ele><time>2026-04-11T15:25:54.002Z</time></trkpt><trkpt lat="45.8656467445769" lon="8.394215374158813"><ele>368.0</ele><time>2026-04-11T15:25:55.002Z</time></trkpt><trkpt lat="45.8654622217636" lon="8.394044635785427"><ele>368.0</ele><time>2026-04-11T15:25:56.002Z</time></trkpt><trkpt lat="45.8652761624332" lon="8.39395435262105"><ele>368.0</ele><time>2026-04-11T15:25:57.002Z</time></trkpt><trkpt lat="45.865105587837945" lon="8.393852752054784"><ele>371.0</ele><time>2026-04-11T15:25:58.002Z</time></trkpt><trkpt lat="45.864941517027574" lon="8.393727032837905"><ele>374.0</ele><time>2026-04-11T15:25:59.002Z</time></trkpt><trkpt lat="45.86481490543498" lon="8.393528043489122"><ele>377.0</ele><time>2026-04-11T15:26:00.002Z</time></trkpt><trkpt lat="45.864687766307114" lon="8.393356501762158"><ele>377.0</ele><time>2026-04-11T15:26:01.002Z</time></trkpt><trkpt lat="45.864544541307154" lon="8.393210372950376"><ele>377.0</ele><time>2026-04-11T15:26:02.002Z</time></trkpt><trkpt lat="45.864382670911525" lon="8.393050886413986"><ele>377.0</ele><time>2026-04-11T15:26:03.002Z</time></trkpt><trkpt lat="45.86422620946103" lon="8.392870235768363"><ele>376.0</ele><time>2026-04-11T15:26:04.002Z</time></trkpt><trkpt lat="45.86407039115557" lon="8.392731046395225"><ele>375.0</ele><time>2026-04-11T15:26:05.002Z</time></trkpt><trkpt lat="45.86391160810373" lon="8.392557350042676"><ele>374.0</ele><time>2026-04-11T15:26:06.002Z</time></trkpt><trkpt lat="45.86377726833324" lon="8.392381176546987"><ele>374.0</ele><time>2026-04-11T15:26:07.002Z</time></trkpt><trkpt lat="45.86365354314848" lon="8.39222425580435"><ele>374.0</ele><time>2026-04-11T15:26:08.002Z</time></trkpt><trkpt lat="45.86353920926567" lon="8.392085373480363"><ele>374.0</ele><time>2026-04-11T15:26:09.002Z</time></trkpt><trkpt lat="45.863443408692056" lon="8.391917211603866"><ele>370.0</ele><time>2026-04-11T15:26:10.002Z</time></trkpt><trkpt lat="45.863359981322965" lon="8.391767036571162"><ele>366.0</ele><time>2026-04-11T15:26:11.002Z</time></trkpt><trkpt lat="45.863284849312684" lon="8.391667172693332"><ele>362.0</ele><time>2026-04-11T15:26:12.002Z</time></trkpt><trkpt lat="45.863222580859436" lon="8.391558838151463"><ele>358.0</ele><time>2026-04-11T15:26:13.002Z</time></trkpt><trkpt lat="45.863186919638785" lon="8.391454058067337"><ele>354.0</ele><time>2026-04-11T15:26:15.002Z</time></trkpt><trkpt lat="45.86321387618947" lon="8.391358365423322"><ele>354.0</ele><time>2026-04-11T15:26:17.002Z</time></trkpt><trkpt lat="45.863358021362735" lon="8.391354757459242"><ele>354.0</ele><time>2026-04-11T15:26:19.002Z</time></trkpt><trkpt lat="45.86348912057884" lon="8.391391021229241"><ele>354.0</ele><time>2026-04-11T15:26:20.002Z</time></trkpt><trkpt lat="45.86362599144214" lon="8.391372878702803"><ele>354.0</ele><time>2026-04-11T15:26:21.002Z</time></trkpt><trkpt lat="45.86373214413632" lon="8.39128691996197"><ele>362.0</ele><time>2026-04-11T15:26:22.002Z</time></trkpt><trkpt lat="45.86376917055703" lon="8.391113228789465"><ele>370.0</ele><time>2026-04-11T15:26:23.002Z</time></trkpt><trkpt lat="45.86378218492439" lon="8.390925112188134"><ele>378.0</ele><time>2026-04-11T15:26:24.002Z</time></trkpt><trkpt lat="45.863737810772534" lon="8.390784018685729"><ele>386.0</ele><time>2026-04-11T15:26:25.002Z</time></trkpt><trkpt lat="45.86366542841787" lon="8.390662859201372"><ele>386.0</ele><time>2026-04-11T15:26:26.002Z</time></trkpt><trkpt lat="45.863555033871314" lon="8.39054570202487"><ele>386.0</ele><time>2026-04-11T15:26:27.002Z</time></trkpt><trkpt lat="45.86343525803895" lon="8.390396304238076"><ele>386.0</ele><time>2026-04-11T15:26:28.002Z</time></trkpt><trkpt lat="45.86329524608428" lon="8.390236148609425"><ele>385.3333333333333</ele><time>2026-04-11T15:26:29.002Z</time></trkpt><trkpt lat="45.863192993737464" lon="8.390070360338683"><ele>384.66666666666663</ele><time>2026-04-11T15:26:30.002Z</time></trkpt><trkpt lat="45.86308197011691" lon="8.389898455855432"><ele>384.0</ele><time>2026-04-11T15:26:31.006Z</time></trkpt><trkpt lat="45.8629531997843" lon="8.38972195456826"><ele>387.0</ele><time>2026-04-11T15:26:32.006Z</time></trkpt><trkpt lat="45.86284284556365" lon="8.3895467203783"><ele>390.0</ele><time>2026-04-11T15:26:33.006Z</time></trkpt><trkpt lat="45.86273203846388" lon="8.389379567155585"><ele>393.0</ele><time>2026-04-11T15:26:34.006Z</time></trkpt><trkpt lat="45.86261390996836" lon="8.389209850131788"><ele>390.0</ele><time>2026-04-11T15:26:35.005Z</time></trkpt><trkpt lat="45.862522007193576" lon="8.389041420447173"><ele>387.0</ele><time>2026-04-11T15:26:36.005Z</time></trkpt><trkpt lat="45.86243813421698" lon="8.38889712163192"><ele>384.0</ele><time>2026-04-11T15:26:37.005Z</time></trkpt><trkpt lat="45.86238566106117" lon="8.38876566313277"><ele>381.0</ele><time>2026-04-11T15:26:38.005Z</time></trkpt><trkpt lat="45.86237655394642" lon="8.388607619201759"><ele>381.0</ele><time>2026-04-11T15:26:39.004Z</time></trkpt><trkpt lat="45.86239119822143" lon="8.388484577248603"><ele>381.0</ele><time>2026-04-11T15:26:40.004Z</time></trkpt><trkpt lat="45.86254694144882" lon="8.38848102245273"><ele>381.0</ele><time>2026-04-11T15:26:42.003Z</time></trkpt><trkpt lat="45.8627452380923" lon="8.388445605550015"><ele>381.0</ele><time>2026-04-11T15:26:44.003Z</time></trkpt><trkpt lat="45.862909282807614" lon="8.388443376051406"><ele>385.25</ele><time>2026-04-11T15:26:45.003Z</time></trkpt><trkpt lat="45.86306183916497" lon="8.388443566241946"><ele>389.5</ele><time>2026-04-11T15:26:46.003Z</time></trkpt><trkpt lat="45.86317965188556" lon="8.388426681458169"><ele>393.75</ele><time>2026-04-11T15:26:47.002Z</time></trkpt><trkpt lat="45.86331013557946" lon="8.388379437221827"><ele>398.0</ele><time>2026-04-11T15:26:48.002Z</time></trkpt><trkpt lat="45.86338542734238" lon="8.388287852863625"><ele>398.0</ele><time>2026-04-11T15:26:49.002Z</time></trkpt><trkpt lat="45.863379484379195" lon="8.388149970777887"><ele>398.0</ele><time>2026-04-11T15:26:50.002Z</time></trkpt><trkpt lat="45.86332393123398" lon="8.388008868476694"><ele>398.0</ele><time>2026-04-11T15:26:51.002Z</time></trkpt><trkpt lat="45.86324003872294" lon="8.387890085020318"><ele>398.0</ele><time>2026-04-11T15:26:52.002Z</time></trkpt><trkpt lat="45.86313662578031" lon="8.387777476358252"><ele>404.0</ele><time>2026-04-11T15:26:53.002Z</time></trkpt><trkpt lat="45.86298846317079" lon="8.387745499085634"><ele>410.0</ele><time>2026-04-11T15:26:54.001Z</time></trkpt><trkpt lat="45.8628511502413" lon="8.387656015386803"><ele>416.0</ele><time>2026-04-11T15:26:55.001Z</time></trkpt><trkpt lat="45.8626899018886" lon="8.387611780723558"><ele>410.3333333333333</ele><time>2026-04-11T15:26:56.001Z</time></trkpt><trkpt lat="45.862563927246" lon="8.387505538776576"><ele>404.66666666666663</ele><time>2026-04-11T15:26:57.001Z</time></trkpt><trkpt lat="45.86242217166296" lon="8.387410830896782"><ele>399.0</ele><time>2026-04-11T15:26:58.001Z</time></trkpt><trkpt lat="45.86227051987095" lon="8.387330355779534"><ele>399.0</ele><time>2026-04-11T15:26:59.001Z</time></trkpt><trkpt lat="45.86212487513589" lon="8.387226104657676"><ele>399.0</ele><time>2026-04-11T15:27:00.001Z</time></trkpt><trkpt lat="45.86197276375456" lon="8.387139203437403"><ele>399.0</ele><time>2026-04-11T15:27:01.001Z</time></trkpt><trkpt lat="45.86181271933669" lon="8.387044085417063"><ele>404.66666666666663</ele><time>2026-04-11T15:27:02.001Z</time></trkpt><trkpt lat="45.86165424983564" lon="8.386983100720322"><ele>410.3333333333333</ele><time>2026-04-11T15:27:03.001Z</time></trkpt><trkpt lat="45.86149668832663" lon="8.386923487152417"><ele>416.0</ele><time>2026-04-11T15:27:04.001Z</time></trkpt><trkpt lat="45.86136276939201" lon="8.38686245918928"><ele>416.0</ele><time>2026-04-11T15:27:05.001Z</time></trkpt><trkpt lat="45.86119919713623" lon="8.386814103884534"><ele>416.0</ele><time>2026-04-11T15:27:06Z</time></trkpt><trkpt lat="45.86105506896275" lon="8.386746460823234"><ele>416.0</ele><time>2026-04-11T15:27:07Z</time></trkpt><trkpt lat="45.860885718882706" lon="8.386668529455024"><ele>412.3333333333333</ele><time>2026-04-11T15:27:08Z</time></trkpt><trkpt lat="45.86070413947928" lon="8.386600875506005"><ele>408.66666666666663</ele><time>2026-04-11T15:27:09Z</time></trkpt><trkpt lat="45.86052255551527" lon="8.386541914119098"><ele>405.0</ele><time>2026-04-11T15:27:10Z</time></trkpt><trkpt lat="45.86034443222028" lon="8.386497010874134"><ele>405.0</ele><time>2026-04-11T15:27:11Z</time></trkpt><trkpt lat="45.86018913238197" lon="8.386454911297152"><ele>405.0</ele><time>2026-04-11T15:27:12Z</time></trkpt><trkpt lat="45.86004440714613" lon="8.386425669829828"><ele>405.0</ele><time>2026-04-11T15:27:13Z</time></trkpt><trkpt lat="45.859915535261244" lon="8.386353368319302"><ele>405.0</ele><time>2026-04-11T15:27:14Z</time></trkpt><trkpt lat="45.85978881402101" lon="8.386347378306159"><ele>404.5</ele><time>2026-04-11T15:27:15Z</time></trkpt><trkpt lat="45.85966826977047" lon="8.386320070963986"><ele>404.0</ele><time>2026-04-11T15:27:16Z</time></trkpt><trkpt lat="45.85954937510472" lon="8.386324926541784"><ele>403.5</ele><time>2026-04-11T15:27:17Z</time></trkpt><trkpt lat="45.85940400180996" lon="8.38634893594381"><ele>403.0</ele><time>2026-04-11T15:27:18Z</time></trkpt><trkpt lat="45.85927340944812" lon="8.386349990979909"><ele>403.0</ele><time>2026-04-11T15:27:19Z</time></trkpt><trkpt lat="45.85916692210781" lon="8.386384948853616"><ele>403.0</ele><time>2026-04-11T15:27:20Z</time></trkpt><trkpt lat="45.85905330731689" lon="8.386426994042967"><ele>403.0</ele><time>2026-04-11T15:27:21Z</time></trkpt><trkpt lat="45.85893263096346" lon="8.386467836833605"><ele>403.0</ele><time>2026-04-11T15:27:22Z</time></trkpt><trkpt lat="45.8588132114658" lon="8.386515757206004"><ele>403.0</ele><time>2026-04-11T15:27:23Z</time></trkpt><trkpt lat="45.85871651618209" lon="8.386546973382956"><ele>403.0</ele><time>2026-04-11T15:27:24Z</time></trkpt><trkpt lat="45.858611410519345" lon="8.386567004546297"><ele>403.0</ele><time>2026-04-11T15:27:25Z</time></trkpt><trkpt lat="45.85850376456355" lon="8.386618513395966"><ele>403.0</ele><time>2026-04-11T15:27:26Z</time></trkpt><trkpt lat="45.85839516569097" lon="8.386586152440355"><ele>403.0</ele><time>2026-04-11T15:27:27Z</time></trkpt><trkpt lat="45.85829875473808" lon="8.386526530773597"><ele>403.75</ele><time>2026-04-11T15:27:28Z</time></trkpt><trkpt lat="45.858187635950195" lon="8.386452599079911"><ele>404.5</ele><time>2026-04-11T15:27:29Z</time></trkpt><trkpt lat="45.85809027368514" lon="8.38637107789317"><ele>405.25</ele><time>2026-04-11T15:27:30Z</time></trkpt><trkpt lat="45.858002498737406" lon="8.386272608115549"><ele>406.0</ele><time>2026-04-11T15:27:31Z</time></trkpt><trkpt lat="45.85790115066695" lon="8.386189750505038"><ele>409.0</ele><time>2026-04-11T15:27:32Z</time></trkpt><trkpt lat="45.85785601934953" lon="8.386059189467888"><ele>412.0</ele><time>2026-04-11T15:27:33Z</time></trkpt><trkpt lat="45.857824980680974" lon="8.385941701430582"><ele>415.0</ele><time>2026-04-11T15:27:34Z</time></trkpt><trkpt lat="45.857772675213084" lon="8.385830675214308"><ele>418.0</ele><time>2026-04-11T15:27:35Z</time></trkpt><trkpt lat="45.85770802648085" lon="8.385727382674116"><ele>421.0</ele><time>2026-04-11T15:27:35.999Z</time></trkpt><trkpt lat="45.857626091023675" lon="8.385637874873664"><ele>420.20000000000005</ele><time>2026-04-11T15:27:36.999Z</time></trkpt><trkpt lat="45.85756445212011" lon="8.385563239900652"><ele>419.40000000000003</ele><time>2026-04-11T15:27:37.999Z</time></trkpt><trkpt lat="45.857470393967226" lon="8.385449040152366"><ele>418.6</ele><time>2026-04-11T15:27:39.999Z</time></trkpt><trkpt lat="45.857384591750964" lon="8.38543508139288"><ele>417.8</ele><time>2026-04-11T15:27:41.999Z</time></trkpt><trkpt lat="45.85730236884781" lon="8.385324542550086"><ele>417.0</ele><time>2026-04-11T15:27:49.999Z</time></trkpt><trkpt lat="45.85721601510574" lon="8.385272072441321"><ele>421.33333333333337</ele><time>2026-04-11T15:27:50.999Z</time></trkpt><trkpt lat="45.85705887465006" lon="8.385268458896357"><ele>425.6666666666667</ele><time>2026-04-11T15:27:51.999Z</time></trkpt><trkpt lat="45.856882175697415" lon="8.385282868912068"><ele>430.0</ele><time>2026-04-11T15:27:52.999Z</time></trkpt><trkpt lat="45.85669340473803" lon="8.385303247197195"><ele>430.0</ele><time>2026-04-11T15:27:53.999Z</time></trkpt><trkpt lat="45.85647634905655" lon="8.385338584897118"><ele>430.0</ele><time>2026-04-11T15:27:54.999Z</time></trkpt><trkpt lat="45.85627969397701" lon="8.38538640821216"><ele>430.0</ele><time>2026-04-11T15:27:55.999Z</time></trkpt><trkpt lat="45.856068434674334" lon="8.385414620797745"><ele>430.0</ele><time>2026-04-11T15:27:56.999Z</time></trkpt><trkpt lat="45.855863101084175" lon="8.385428783344366"><ele>430.0</ele><time>2026-04-11T15:27:57.999Z</time></trkpt><trkpt lat="45.85567980616588" lon="8.385472908305198"><ele>430.0</ele><time>2026-04-11T15:27:58.999Z</time></trkpt><trkpt lat="45.85552796744422" lon="8.385488365025886"><ele>430.0</ele><time>2026-04-11T15:27:59.999Z</time></trkpt><trkpt lat="45.85537992460269" lon="8.385456973551399"><ele>430.0</ele><time>2026-04-11T15:28:00.999Z</time></trkpt><trkpt lat="45.85523985600807" lon="8.385411768446328"><ele>430.0</ele><time>2026-04-11T15:28:01.999Z</time></trkpt><trkpt lat="45.855130117347805" lon="8.385365679071478"><ele>430.0</ele><time>2026-04-11T15:28:02.999Z</time></trkpt><trkpt lat="45.85500519046819" lon="8.385269799660724"><ele>431.33333333333337</ele><time>2026-04-11T15:28:03.999Z</time></trkpt><trkpt lat="45.85489801188931" lon="8.385138306257709"><ele>432.66666666666663</ele><time>2026-04-11T15:28:04.999Z</time></trkpt><trkpt lat="45.85476733099781" lon="8.384930407551035"><ele>434.0</ele><time>2026-04-11T15:28:05.999Z</time></trkpt><trkpt lat="45.854622989294306" lon="8.384783932252521"><ele>436.0</ele><time>2026-04-11T15:28:06.999Z</time></trkpt><trkpt lat="45.854469275457014" lon="8.384623116102762"><ele>438.0</ele><time>2026-04-11T15:28:07.999Z</time></trkpt><trkpt lat="45.85433538177324" lon="8.384431949785464"><ele>440.0</ele><time>2026-04-11T15:28:08.999Z</time></trkpt><trkpt lat="45.85420025627372" lon="8.384259131582835"><ele>440.0</ele><time>2026-04-11T15:28:09.999Z</time></trkpt><trkpt lat="45.854023212679635" lon="8.38411810685814"><ele>440.0</ele><time>2026-04-11T15:28:10.999Z</time></trkpt><trkpt lat="45.85383467702574" lon="8.383950021915396"><ele>440.0</ele><time>2026-04-11T15:28:11.999Z</time></trkpt><trkpt lat="45.85365035456581" lon="8.383735291703305"><ele>439.5</ele><time>2026-04-11T15:28:12.999Z</time></trkpt><trkpt lat="45.85345839356478" lon="8.383522380100752"><ele>439.0</ele><time>2026-04-11T15:28:13.999Z</time></trkpt><trkpt lat="45.85329996908974" lon="8.383275325700088"><ele>439.0</ele><time>2026-04-11T15:28:14.999Z</time></trkpt><trkpt lat="45.85311372513835" lon="8.383077185697829"><ele>439.0</ele><time>2026-04-11T15:28:15.999Z</time></trkpt><trkpt lat="45.85292171992648" lon="8.382908861203545"><ele>441.5</ele><time>2026-04-11T15:28:16.999Z</time></trkpt><trkpt lat="45.85273353174887" lon="8.38271357274361"><ele>444.0</ele><time>2026-04-11T15:28:17.999Z</time></trkpt><trkpt lat="45.852556425852235" lon="8.382498249088842"><ele>444.0</ele><time>2026-04-11T15:28:18.999Z</time></trkpt><trkpt lat="45.85237174431354" lon="8.382295354195575"><ele>444.0</ele><time>2026-04-11T15:28:19.999Z</time></trkpt><trkpt lat="45.85219066342438" lon="8.382101187440218"><ele>447.0</ele><time>2026-04-11T15:28:20.999Z</time></trkpt><trkpt lat="45.85202887565623" lon="8.381948495279149"><ele>450.0</ele><time>2026-04-11T15:28:21.999Z</time></trkpt><trkpt lat="45.85187676158529" lon="8.381839832651565"><ele>453.0</ele><time>2026-04-11T15:28:22.999Z</time></trkpt><trkpt lat="45.85172379003818" lon="8.381763893484871"><ele>453.0</ele><time>2026-04-11T15:28:23.999Z</time></trkpt><trkpt lat="45.85154623724785" lon="8.381705322924285"><ele>453.0</ele><time>2026-04-11T15:28:24.999Z</time></trkpt><trkpt lat="45.8513541002639" lon="8.381681907288238"><ele>453.0</ele><time>2026-04-11T15:28:25.999Z</time></trkpt><trkpt lat="45.851166476829235" lon="8.381687067053742"><ele>453.0</ele><time>2026-04-11T15:28:26.999Z</time></trkpt><trkpt lat="45.85098419534132" lon="8.381702902197356"><ele>453.0</ele><time>2026-04-11T15:28:27.999Z</time></trkpt><trkpt lat="45.85080335210648" lon="8.381682398479636"><ele>453.0</ele><time>2026-04-11T15:28:28.999Z</time></trkpt><trkpt lat="45.85063069063703" lon="8.381624236405983"><ele>452.33333333333337</ele><time>2026-04-11T15:28:29.999Z</time></trkpt><trkpt lat="45.8504530394736" lon="8.381531643986275"><ele>451.6666666666667</ele><time>2026-04-11T15:28:30.999Z</time></trkpt><trkpt lat="45.850284878933095" lon="8.381383463976192"><ele>451.0</ele><time>2026-04-11T15:28:31.999Z</time></trkpt><trkpt lat="45.85011402757434" lon="8.381234910137927"><ele>454.33333333333337</ele><time>2026-04-11T15:28:32.999Z</time></trkpt><trkpt lat="45.84992385996363" lon="8.381106102316114"><ele>457.66666666666663</ele><time>2026-04-11T15:28:33.999Z</time></trkpt><trkpt lat="45.84974512493926" lon="8.380974981005025"><ele>461.0</ele><time>2026-04-11T15:28:34.999Z</time></trkpt><trkpt lat="45.84954688674963" lon="8.38082202627312"><ele>461.0</ele><time>2026-04-11T15:28:35.999Z</time></trkpt><trkpt lat="45.84937462459392" lon="8.380652627961771"><ele>461.0</ele><time>2026-04-11T15:28:36.999Z</time></trkpt><trkpt lat="45.84920249401458" lon="8.380492561927793"><ele>461.0</ele><time>2026-04-11T15:28:37.999Z</time></trkpt><trkpt lat="45.84902386417661" lon="8.380403870280935"><ele>462.66666666666663</ele><time>2026-04-11T15:28:38.999Z</time></trkpt><trkpt lat="45.84885101663596" lon="8.380209829893564"><ele>464.33333333333337</ele><time>2026-04-11T15:28:39.999Z</time></trkpt><trkpt lat="45.84869801361579" lon="8.380045936813573"><ele>466.0</ele><time>2026-04-11T15:28:40.999Z</time></trkpt><trkpt lat="45.848582713012725" lon="8.379914725551126"><ele>466.33333333333337</ele><time>2026-04-11T15:28:41.999Z</time></trkpt><trkpt lat="45.848450352229996" lon="8.379776044234957"><ele>466.66666666666663</ele><time>2026-04-11T15:28:42.999Z</time></trkpt><trkpt lat="45.84834600718686" lon="8.37960330326511"><ele>467.0</ele><time>2026-04-11T15:28:43.999Z</time></trkpt><trkpt lat="45.848229548833245" lon="8.379452314262835"><ele>467.0</ele><time>2026-04-11T15:28:44.999Z</time></trkpt><trkpt lat="45.848079649880944" lon="8.379321969006593"><ele>467.0</ele><time>2026-04-11T15:28:45.999Z</time></trkpt><trkpt lat="45.847987719954034" lon="8.379181672914838"><ele>467.0</ele><time>2026-04-11T15:28:46.999Z</time></trkpt><trkpt lat="45.847869272034" lon="8.379101007532336"><ele>467.0</ele><time>2026-04-11T15:28:47.999Z</time></trkpt><trkpt lat="45.84777637738336" lon="8.37907055928089"><ele>467.0</ele><time>2026-04-11T15:28:48.999Z</time></trkpt><trkpt lat="45.84765650643077" lon="8.37895933491667"><ele>467.0</ele><time>2026-04-11T15:28:49.999Z</time></trkpt><trkpt lat="45.84748264720393" lon="8.378954516065557"><ele>467.0</ele><time>2026-04-11T15:28:50.999Z</time></trkpt><trkpt lat="45.84731600348224" lon="8.378935137449755"><ele>463.0</ele><time>2026-04-11T15:28:51.999Z</time></trkpt><trkpt lat="45.84714475550769" lon="8.378969601717015"><ele>459.0</ele><time>2026-04-11T15:28:52.999Z</time></trkpt><trkpt lat="45.8469743946268" lon="8.378978523452025"><ele>455.0</ele><time>2026-04-11T15:28:53.999Z</time></trkpt><trkpt lat="45.84683051570943" lon="8.37889115979272"><ele>457.0</ele><time>2026-04-11T15:28:54.999Z</time></trkpt><trkpt lat="45.84672829640692" lon="8.37883438314218"><ele>459.0</ele><time>2026-04-11T15:28:55.999Z</time></trkpt><trkpt lat="45.84662625133179" lon="8.378771812429758"><ele>461.0</ele><time>2026-04-11T15:28:56.999Z</time></trkpt><trkpt lat="45.846603575670215" lon="8.378557613292221"><ele>463.0</ele><time>2026-04-11T15:28:58.999Z</time></trkpt><trkpt lat="45.846581887351704" lon="8.378422339072623"><ele>463.0</ele><time>2026-04-11T15:28:59.999Z</time></trkpt><trkpt lat="45.84657767320844" lon="8.378276392239853"><ele>462.99999999999994</ele><time>2026-04-11T15:29:00.999Z</time></trkpt><trkpt lat="45.846533509708394" lon="8.378162260816836"><ele>462.99999999999994</ele><time>2026-04-11T15:29:01.998Z</time></trkpt><trkpt lat="45.84649464044228" lon="8.378043739517208"><ele>463.0</ele><time>2026-04-11T15:29:02.998Z</time></trkpt><trkpt lat="45.846405833939194" lon="8.37795188423565"><ele>463.0</ele><time>2026-04-11T15:29:03.998Z</time></trkpt><trkpt lat="45.846284371772725" lon="8.377814531275753"><ele>464.25</ele><time>2026-04-11T15:29:04.998Z</time></trkpt><trkpt lat="45.84617093479028" lon="8.377727718036859"><ele>465.5</ele><time>2026-04-11T15:29:05.998Z</time></trkpt><trkpt lat="45.846035962089545" lon="8.377629109886078"><ele>466.75</ele><time>2026-04-11T15:29:06.998Z</time></trkpt><trkpt lat="45.84591928214097" lon="8.377509399652164"><ele>468.0</ele><time>2026-04-11T15:29:07.998Z</time></trkpt><trkpt lat="45.84574511957912" lon="8.377509507225563"><ele>468.0</ele><time>2026-04-11T15:29:08.998Z</time></trkpt><trkpt lat="45.84562854364817" lon="8.37732321389565"><ele>468.0</ele><time>2026-04-11T15:29:09.998Z</time></trkpt><trkpt lat="45.845517788840844" lon="8.377246752315378"><ele>468.0</ele><time>2026-04-11T15:29:10.998Z</time></trkpt><trkpt lat="45.84538975702711" lon="8.37723243313032"><ele>468.0</ele><time>2026-04-11T15:29:11.998Z</time></trkpt><trkpt lat="45.84526456989835" lon="8.377223168575844"><ele>467.75</ele><time>2026-04-11T15:29:12.998Z</time></trkpt><trkpt lat="45.84512574675115" lon="8.3772184502622"><ele>467.5</ele><time>2026-04-11T15:29:13.998Z</time></trkpt><trkpt lat="45.844981683625434" lon="8.37725682646951"><ele>467.25</ele><time>2026-04-11T15:29:14.998Z</time></trkpt><trkpt lat="45.844837068064614" lon="8.377314453151266"><ele>467.0</ele><time>2026-04-11T15:29:15.998Z</time></trkpt><trkpt lat="45.844674195694246" lon="8.377336250115118"><ele>467.0</ele><time>2026-04-11T15:29:16.998Z</time></trkpt><trkpt lat="45.84452626813893" lon="8.377437576016622"><ele>467.0</ele><time>2026-04-11T15:29:17.998Z</time></trkpt><trkpt lat="45.8443531527167" lon="8.377497222975824"><ele>467.0</ele><time>2026-04-11T15:29:18.998Z</time></trkpt><trkpt lat="45.84418391396099" lon="8.377586203888752"><ele>469.66666666666663</ele><time>2026-04-11T15:29:19.998Z</time></trkpt><trkpt lat="45.84401865179869" lon="8.377671016128453"><ele>472.33333333333337</ele><time>2026-04-11T15:29:20.998Z</time></trkpt><trkpt lat="45.843857130347565" lon="8.377743206720845"><ele>475.0</ele><time>2026-04-11T15:29:21.998Z</time></trkpt><trkpt lat="45.84369472686107" lon="8.377754223611785"><ele>475.0</ele><time>2026-04-11T15:29:22.998Z</time></trkpt><trkpt lat="45.84351425281478" lon="8.377762171347637"><ele>475.0</ele><time>2026-04-11T15:29:23.998Z</time></trkpt><trkpt lat="45.84335174668289" lon="8.377765760749739"><ele>475.0</ele><time>2026-04-11T15:29:24.998Z</time></trkpt><trkpt lat="45.843193204535254" lon="8.377798244848073"><ele>474.33333333333337</ele><time>2026-04-11T15:29:25.998Z</time></trkpt><trkpt lat="45.843022973131056" lon="8.377758942834996"><ele>473.66666666666663</ele><time>2026-04-11T15:29:26.998Z</time></trkpt><trkpt lat="45.842870570823955" lon="8.377756075513497"><ele>473.0</ele><time>2026-04-11T15:29:27.998Z</time></trkpt><trkpt lat="45.84272411132572" lon="8.377741461796735"><ele>472.0</ele><time>2026-04-11T15:29:28.998Z</time></trkpt><trkpt lat="45.842572326237274" lon="8.377683747656958"><ele>471.0</ele><time>2026-04-11T15:29:29.998Z</time></trkpt><trkpt lat="45.84241879172498" lon="8.377639050559601"><ele>470.0</ele><time>2026-04-11T15:29:30.998Z</time></trkpt><trkpt lat="45.84226205236249" lon="8.377570239980466"><ele>470.0</ele><time>2026-04-11T15:29:31.998Z</time></trkpt><trkpt lat="45.84210346807914" lon="8.377492484464423"><ele>470.0</ele><time>2026-04-11T15:29:32.998Z</time></trkpt><trkpt lat="45.841940841336054" lon="8.377428762670915"><ele>470.0</ele><time>2026-04-11T15:29:33.998Z</time></trkpt><trkpt lat="45.841776575230284" lon="8.377297037067553"><ele>471.0</ele><time>2026-04-11T15:29:34.998Z</time></trkpt><trkpt lat="45.8416032844793" lon="8.377143189367318"><ele>472.0</ele><time>2026-04-11T15:29:35.998Z</time></trkpt><trkpt lat="45.84144291374796" lon="8.377081706992836"><ele>473.0</ele><time>2026-04-11T15:29:36.998Z</time></trkpt><trkpt lat="45.84128402056305" lon="8.377052959018398"><ele>473.0</ele><time>2026-04-11T15:29:37.998Z</time></trkpt><trkpt lat="45.84113094425507" lon="8.37698445501491"><ele>473.0</ele><time>2026-04-11T15:29:38.998Z</time></trkpt><trkpt lat="45.8409890285032" lon="8.376880236666272"><ele>473.0</ele><time>2026-04-11T15:29:39.998Z</time></trkpt><trkpt lat="45.84087132485991" lon="8.376803652120254"><ele>473.0</ele><time>2026-04-11T15:29:40.998Z</time></trkpt><trkpt lat="45.8408009225105" lon="8.376629065156797"><ele>471.66666666666663</ele><time>2026-04-11T15:29:41.998Z</time></trkpt><trkpt lat="45.840715689133695" lon="8.37644091055044"><ele>470.33333333333337</ele><time>2026-04-11T15:29:42.998Z</time></trkpt><trkpt lat="45.840688561002395" lon="8.376224837684758"><ele>469.0</ele><time>2026-04-11T15:29:43.998Z</time></trkpt><trkpt lat="45.840660809232965" lon="8.37600602827202"><ele>469.0</ele><time>2026-04-11T15:29:44.998Z</time></trkpt><trkpt lat="45.84061496444722" lon="8.375803745860484"><ele>469.0</ele><time>2026-04-11T15:29:45.998Z</time></trkpt><trkpt lat="45.84055117945448" lon="8.375612663594145"><ele>469.0</ele><time>2026-04-11T15:29:46.998Z</time></trkpt><trkpt lat="45.84047799847601" lon="8.375410002714132"><ele>467.0</ele><time>2026-04-11T15:29:47.998Z</time></trkpt><trkpt lat="45.840369991601975" lon="8.375230571216168"><ele>465.0</ele><time>2026-04-11T15:29:48.998Z</time></trkpt><trkpt lat="45.84024553155557" lon="8.375085731396306"><ele>463.0</ele><time>2026-04-11T15:29:49.998Z</time></trkpt><trkpt lat="45.84009696955315" lon="8.374957486375063"><ele>463.0</ele><time>2026-04-11T15:29:50.998Z</time></trkpt><trkpt lat="45.83992715380545" lon="8.374839793851965"><ele>463.0</ele><time>2026-04-11T15:29:51.998Z</time></trkpt><trkpt lat="45.839764854994854" lon="8.374751079152736"><ele>463.0</ele><time>2026-04-11T15:29:52.998Z</time></trkpt><trkpt lat="45.83959603912254" lon="8.37463694026967"><ele>463.6666666666667</ele><time>2026-04-11T15:29:53.998Z</time></trkpt><trkpt lat="45.83940972687561" lon="8.374535189933027"><ele>464.33333333333337</ele><time>2026-04-11T15:29:54.998Z</time></trkpt><trkpt lat="45.839225591518804" lon="8.374400531630721"><ele>465.0</ele><time>2026-04-11T15:29:55.998Z</time></trkpt><trkpt lat="45.83904450640039" lon="8.374311365501704"><ele>465.0</ele><time>2026-04-11T15:29:56.998Z</time></trkpt><trkpt lat="45.838869813050884" lon="8.374184493876546"><ele>465.0</ele><time>2026-04-11T15:29:57.998Z</time></trkpt><trkpt lat="45.838683594619546" lon="8.374076314396827"><ele>465.0</ele><time>2026-04-11T15:29:58.998Z</time></trkpt><trkpt lat="45.838505100916294" lon="8.373988670136221"><ele>464.33333333333337</ele><time>2026-04-11T15:29:59.998Z</time></trkpt><trkpt lat="45.83835786584186" lon="8.373880011082171"><ele>463.6666666666667</ele><time>2026-04-11T15:30:00.998Z</time></trkpt><trkpt lat="45.83822530457732" lon="8.373786863123593"><ele>463.0</ele><time>2026-04-11T15:30:01.998Z</time></trkpt><trkpt lat="45.83811087360227" lon="8.373630896624746"><ele>463.0</ele><time>2026-04-11T15:30:02.998Z</time></trkpt><trkpt lat="45.837991362064564" lon="8.373449578944765"><ele>463.0</ele><time>2026-04-11T15:30:03.998Z</time></trkpt><trkpt lat="45.83788410514631" lon="8.373270304773957"><ele>463.0</ele><time>2026-04-11T15:30:04.998Z</time></trkpt><trkpt lat="45.837776137642315" lon="8.373093610763636"><ele>463.6666666666667</ele><time>2026-04-11T15:30:05.998Z</time></trkpt><trkpt lat="45.83768052147849" lon="8.37290254361788"><ele>464.33333333333337</ele><time>2026-04-11T15:30:06.998Z</time></trkpt><trkpt lat="45.837568365816566" lon="8.372728875217442"><ele>465.0</ele><time>2026-04-11T15:30:07.998Z</time></trkpt><trkpt lat="45.83747118886734" lon="8.372519698317623"><ele>462.33333333333337</ele><time>2026-04-11T15:30:08.998Z</time></trkpt><trkpt lat="45.83735875119399" lon="8.37233765472878"><ele>459.6666666666667</ele><time>2026-04-11T15:30:09.998Z</time></trkpt><trkpt lat="45.83725476526393" lon="8.372143787106934"><ele>457.0</ele><time>2026-04-11T15:30:10.998Z</time></trkpt><trkpt lat="45.83714790058809" lon="8.371944552386864"><ele>462.33333333333337</ele><time>2026-04-11T15:30:11.998Z</time></trkpt><trkpt lat="45.83704371904223" lon="8.371751836911036"><ele>467.66666666666663</ele><time>2026-04-11T15:30:12.998Z</time></trkpt><trkpt lat="45.83694097078903" lon="8.371565145169944"><ele>473.0</ele><time>2026-04-11T15:30:13.998Z</time></trkpt><trkpt lat="45.83683744109771" lon="8.371373949014671"><ele>475.66666666666663</ele><time>2026-04-11T15:30:14.998Z</time></trkpt><trkpt lat="45.83673838426221" lon="8.371189974851994"><ele>478.33333333333337</ele><time>2026-04-11T15:30:15.998Z</time></trkpt><trkpt lat="45.83663387651189" lon="8.370995877199384"><ele>481.0</ele><time>2026-04-11T15:30:16.998Z</time></trkpt><trkpt lat="45.83655171481078" lon="8.370843302632231"><ele>481.0</ele><time>2026-04-11T15:30:17.998Z</time></trkpt><trkpt lat="45.83645571082655" lon="8.37067089274225"><ele>481.0</ele><time>2026-04-11T15:30:18.998Z</time></trkpt><trkpt lat="45.83636481876902" lon="8.37051903853925"><ele>481.0</ele><time>2026-04-11T15:30:19.998Z</time></trkpt><trkpt lat="45.83626953591479" lon="8.37037887902117"><ele>481.0</ele><time>2026-04-11T15:30:20.998Z</time></trkpt><trkpt lat="45.8361555367277" lon="8.370237423737297"><ele>479.6666666666667</ele><time>2026-04-11T15:30:21.998Z</time></trkpt><trkpt lat="45.83603026111687" lon="8.3701028977657"><ele>478.33333333333337</ele><time>2026-04-11T15:30:22.998Z</time></trkpt><trkpt lat="45.83587697246587" lon="8.369952044013512"><ele>477.0</ele><time>2026-04-11T15:30:23.998Z</time></trkpt><trkpt lat="45.835706518930515" lon="8.369843021581605"><ele>477.0</ele><time>2026-04-11T15:30:24.998Z</time></trkpt><trkpt lat="45.83557107608315" lon="8.369726400997001"><ele>477.0</ele><time>2026-04-11T15:30:25.998Z</time></trkpt><trkpt lat="45.83542931581809" lon="8.369620798733092"><ele>477.0</ele><time>2026-04-11T15:30:26.998Z</time></trkpt><trkpt lat="45.83527948541185" lon="8.369488922553675"><ele>478.5</ele><time>2026-04-11T15:30:27.998Z</time></trkpt><trkpt lat="45.83514801718328" lon="8.369374497432771"><ele>480.0</ele><time>2026-04-11T15:30:28.998Z</time></trkpt><trkpt lat="45.83501801795249" lon="8.369269403045694"><ele>481.5</ele><time>2026-04-11T15:30:29.998Z</time></trkpt><trkpt lat="45.83490775909973" lon="8.369168053005472"><ele>483.0</ele><time>2026-04-11T15:30:30.998Z</time></trkpt><trkpt lat="45.834811926788575" lon="8.369074715534847"><ele>483.0</ele><time>2026-04-11T15:30:31.998Z</time></trkpt><trkpt lat="45.8347436488746" lon="8.368921264196333"><ele>483.0</ele><time>2026-04-11T15:30:32.998Z</time></trkpt><trkpt lat="45.834690224403815" lon="8.36880737033868"><ele>483.0</ele><time>2026-04-11T15:30:33.998Z</time></trkpt><trkpt lat="45.834635883823076" lon="8.368645488859128"><ele>483.0</ele><time>2026-04-11T15:30:34.998Z</time></trkpt><trkpt lat="45.83459124399373" lon="8.368498178413816"><ele>484.79999999999995</ele><time>2026-04-11T15:30:35.998Z</time></trkpt><trkpt lat="45.834536211294996" lon="8.368363673505401"><ele>486.59999999999997</ele><time>2026-04-11T15:30:36.998Z</time></trkpt><trkpt lat="45.83449943630024" lon="8.368233495287274"><ele>488.40000000000003</ele><time>2026-04-11T15:30:37.998Z</time></trkpt><trkpt lat="45.83446860642383" lon="8.368100238292882"><ele>490.20000000000005</ele><time>2026-04-11T15:30:38.998Z</time></trkpt><trkpt lat="45.83442119833196" lon="8.367989195172592"><ele>492.0</ele><time>2026-04-11T15:30:39.997Z</time></trkpt><trkpt lat="45.83437818258415" lon="8.367893288627013"><ele>492.0</ele><time>2026-04-11T15:30:40.997Z</time></trkpt><trkpt lat="45.834311884001394" lon="8.367790489304287"><ele>492.0</ele><time>2026-04-11T15:30:41.997Z</time></trkpt><trkpt lat="45.834208877821524" lon="8.367712782723453"><ele>492.0</ele><time>2026-04-11T15:30:42.997Z</time></trkpt><trkpt lat="45.834082179721285" lon="8.367701624281116"><ele>492.0</ele><time>2026-04-11T15:30:43.997Z</time></trkpt><trkpt lat="45.83395650389109" lon="8.367718678382463"><ele>490.75</ele><time>2026-04-11T15:30:44.997Z</time></trkpt><trkpt lat="45.83383182120746" lon="8.36772668697272"><ele>489.5</ele><time>2026-04-11T15:30:45.997Z</time></trkpt><trkpt lat="45.833709746954916" lon="8.36777959006381"><ele>488.25</ele><time>2026-04-11T15:30:46.997Z</time></trkpt><trkpt lat="45.83359072973553" lon="8.367786909095948"><ele>487.0</ele><time>2026-04-11T15:30:47.997Z</time></trkpt><trkpt lat="45.833462355119494" lon="8.367793743631415"><ele>486.0</ele><time>2026-04-11T15:30:48.997Z</time></trkpt><trkpt lat="45.83334026411222" lon="8.367793881034041"><ele>485.0</ele><time>2026-04-11T15:30:49.997Z</time></trkpt><trkpt lat="45.833228134700875" lon="8.367842365991729"><ele>484.0</ele><time>2026-04-11T15:30:50.997Z</time></trkpt><trkpt lat="45.8331102970859" lon="8.367876440910178"><ele>483.0</ele><time>2026-04-11T15:30:51.997Z</time></trkpt><trkpt lat="45.83299649426542" lon="8.367900683027576"><ele>483.0</ele><time>2026-04-11T15:30:52.997Z</time></trkpt><trkpt lat="45.83288465154205" lon="8.367923035912607"><ele>483.0</ele><time>2026-04-11T15:30:53.997Z</time></trkpt><trkpt lat="45.832762885474025" lon="8.367924935492173"><ele>483.0</ele><time>2026-04-11T15:30:54.997Z</time></trkpt><trkpt lat="45.832652143927056" lon="8.367945928499624"><ele>483.0</ele><time>2026-04-11T15:30:55.997Z</time></trkpt><trkpt lat="45.83253239165249" lon="8.367965460305806"><ele>482.2</ele><time>2026-04-11T15:30:56.997Z</time></trkpt><trkpt lat="45.832423276476334" lon="8.367983040238165"><ele>481.4</ele><time>2026-04-11T15:30:57.997Z</time></trkpt><trkpt lat="45.83230609047658" lon="8.368022000601425"><ele>480.59999999999997</ele><time>2026-04-11T15:30:58.997Z</time></trkpt><trkpt lat="45.83218118320469" lon="8.368021880067237"><ele>479.79999999999995</ele><time>2026-04-11T15:30:59.997Z</time></trkpt><trkpt lat="45.83209154318914" lon="8.368041444512203"><ele>479.0</ele><time>2026-04-11T15:31:00.997Z</time></trkpt><trkpt lat="45.83197739035503" lon="8.368056797432802"><ele>478.2</ele><time>2026-04-11T15:31:01.997Z</time></trkpt><trkpt lat="45.83186313829666" lon="8.368100750114722"><ele>477.4</ele><time>2026-04-11T15:31:02.997Z</time></trkpt><trkpt lat="45.83177323740824" lon="8.368102023640045"><ele>476.6</ele><time>2026-04-11T15:31:03.997Z</time></trkpt><trkpt lat="45.831671622998755" lon="8.368091897713107"><ele>475.8</ele><time>2026-04-11T15:31:04.997Z</time></trkpt><trkpt lat="45.831566314541746" lon="8.368036726387487"><ele>475.0</ele><time>2026-04-11T15:31:05.997Z</time></trkpt><trkpt lat="45.831436292427476" lon="8.368009758893464"><ele>475.0</ele><time>2026-04-11T15:31:06.997Z</time></trkpt><trkpt lat="45.831317370339804" lon="8.367913074248547"><ele>475.0</ele><time>2026-04-11T15:31:07.997Z</time></trkpt><trkpt lat="45.83118806123851" lon="8.367818102375344"><ele>475.0</ele><time>2026-04-11T15:31:08.997Z</time></trkpt><trkpt lat="45.83106529742032" lon="8.367769435262696"><ele>475.0</ele><time>2026-04-11T15:31:09.997Z</time></trkpt><trkpt lat="45.83095449570812" lon="8.36772425232554"><ele>475.0</ele><time>2026-04-11T15:31:10.997Z</time></trkpt><trkpt lat="45.830840226029956" lon="8.367676590186113"><ele>475.0</ele><time>2026-04-11T15:31:11.997Z</time></trkpt><trkpt lat="45.830703339921726" lon="8.367637148878133"><ele>475.0</ele><time>2026-04-11T15:31:12.997Z</time></trkpt><trkpt lat="45.83057718032977" lon="8.367582329960959"><ele>475.0</ele><time>2026-04-11T15:31:13.997Z</time></trkpt><trkpt lat="45.830447935988154" lon="8.367518673150801"><ele>475.0</ele><time>2026-04-11T15:31:14.997Z</time></trkpt><trkpt lat="45.8303112604702" lon="8.367445473388072"><ele>475.0</ele><time>2026-04-11T15:31:15.997Z</time></trkpt><trkpt lat="45.83016199424084" lon="8.367359249021613"><ele>475.0</ele><time>2026-04-11T15:31:16.997Z</time></trkpt><trkpt lat="45.83000463728221" lon="8.367282818654989"><ele>474.6666666666667</ele><time>2026-04-11T15:31:17.997Z</time></trkpt><trkpt lat="45.829846826271755" lon="8.367192407833963"><ele>474.33333333333337</ele><time>2026-04-11T15:31:18.997Z</time></trkpt><trkpt lat="45.82969585791351" lon="8.367129171072282"><ele>474.0</ele><time>2026-04-11T15:31:19.997Z</time></trkpt><trkpt lat="45.82954899626056" lon="8.367035247149552"><ele>474.0</ele><time>2026-04-11T15:31:20.997Z</time></trkpt><trkpt lat="45.82939087956489" lon="8.366953351350906"><ele>474.0</ele><time>2026-04-11T15:31:21.997Z</time></trkpt><trkpt lat="45.82923707930965" lon="8.366878307698306"><ele>474.0</ele><time>2026-04-11T15:31:22.997Z</time></trkpt><trkpt lat="45.829079939764554" lon="8.366752986247018"><ele>473.66666666666663</ele><time>2026-04-11T15:31:23.997Z</time></trkpt><trkpt lat="45.82889054867434" lon="8.366647965798178"><ele>473.3333333333333</ele><time>2026-04-11T15:31:24.997Z</time></trkpt><trkpt lat="45.82875541660845" lon="8.366519144981867"><ele>473.0</ele><time>2026-04-11T15:31:25.997Z</time></trkpt><trkpt lat="45.82859465157143" lon="8.366406605833092"><ele>477.66666666666663</ele><time>2026-04-11T15:31:26.997Z</time></trkpt><trkpt lat="45.82842133012331" lon="8.366296052764012"><ele>482.33333333333337</ele><time>2026-04-11T15:31:27.997Z</time></trkpt><trkpt lat="45.82825056816287" lon="8.366173326971502"><ele>487.0</ele><time>2026-04-11T15:31:28.997Z</time></trkpt><trkpt lat="45.828079136957896" lon="8.366055281600248"><ele>487.0</ele><time>2026-04-11T15:31:29.997Z</time></trkpt><trkpt lat="45.82790870354422" lon="8.365932285617614"><ele>487.0</ele><time>2026-04-11T15:31:30.997Z</time></trkpt><trkpt lat="45.82778074117762" lon="8.365776339958614"><ele>487.0</ele><time>2026-04-11T15:31:31.997Z</time></trkpt><trkpt lat="45.82760531188698" lon="8.365627565432447"><ele>488.33333333333337</ele><time>2026-04-11T15:31:32.997Z</time></trkpt><trkpt lat="45.82742450674687" lon="8.36546235229969"><ele>489.66666666666663</ele><time>2026-04-11T15:31:33.997Z</time></trkpt><trkpt lat="45.827247927120865" lon="8.365306988057418"><ele>491.0</ele><time>2026-04-11T15:31:34.997Z</time></trkpt><trkpt lat="45.82706276595917" lon="8.365131346559977"><ele>491.0</ele><time>2026-04-11T15:31:35.997Z</time></trkpt><trkpt lat="45.82689058116685" lon="8.364988545157063"><ele>491.0</ele><time>2026-04-11T15:31:36.997Z</time></trkpt><trkpt lat="45.82670921798696" lon="8.364836362840487"><ele>491.0</ele><time>2026-04-11T15:31:37.997Z</time></trkpt><trkpt lat="45.826521311863935" lon="8.364677046209748"><ele>489.5</ele><time>2026-04-11T15:31:38.997Z</time></trkpt><trkpt lat="45.8263357395466" lon="8.364514503558496"><ele>488.0</ele><time>2026-04-11T15:31:39.997Z</time></trkpt><trkpt lat="45.82613095047569" lon="8.36433969476241"><ele>482.0</ele><time>2026-04-11T15:31:40.997Z</time></trkpt><trkpt lat="45.82595858084964" lon="8.364179997569503"><ele>476.0</ele><time>2026-04-11T15:31:41.997Z</time></trkpt><trkpt lat="45.82577920551555" lon="8.364052458619506"><ele>470.0</ele><time>2026-04-11T15:31:42.997Z</time></trkpt><trkpt lat="45.82560375361158" lon="8.363981320326008"><ele>470.0</ele><time>2026-04-11T15:31:43.997Z</time></trkpt><trkpt lat="45.82539393234465" lon="8.363906267025966"><ele>470.0</ele><time>2026-04-11T15:31:44.997Z</time></trkpt><trkpt lat="45.82518261115857" lon="8.36383186364802"><ele>470.0</ele><time>2026-04-11T15:31:45.997Z</time></trkpt><trkpt lat="45.82495669253509" lon="8.363803230645354"><ele>471.0</ele><time>2026-04-11T15:31:46.997Z</time></trkpt><trkpt lat="45.82474467163471" lon="8.363736687946167"><ele>472.0</ele><time>2026-04-11T15:31:47.997Z</time></trkpt><trkpt lat="45.824532805787065" lon="8.363681309781795"><ele>473.0</ele><time>2026-04-11T15:31:48.997Z</time></trkpt><trkpt lat="45.82434344600135" lon="8.363623465834529"><ele>471.0</ele><time>2026-04-11T15:31:49.997Z</time></trkpt><trkpt lat="45.824153018262095" lon="8.363544027461339"><ele>469.0</ele><time>2026-04-11T15:31:50.997Z</time></trkpt><trkpt lat="45.82397523843792" lon="8.363481194609259"><ele>467.0</ele><time>2026-04-11T15:31:51.997Z</time></trkpt><trkpt lat="45.82379777315363" lon="8.363416899487685"><ele>467.0</ele><time>2026-04-11T15:31:52.997Z</time></trkpt><trkpt lat="45.82363333480756" lon="8.363347455094578"><ele>467.0</ele><time>2026-04-11T15:31:53.997Z</time></trkpt><trkpt lat="45.82351913517958" lon="8.363305563818885"><ele>467.0</ele><time>2026-04-11T15:31:54.997Z</time></trkpt><trkpt lat="45.823417522292814" lon="8.363269110725515"><ele>467.0</ele><time>2026-04-11T15:31:55.997Z</time></trkpt><trkpt lat="45.82332963874834" lon="8.363237582877147"><ele>468.8</ele><time>2026-04-11T15:31:56.997Z</time></trkpt><trkpt lat="45.82323407913506" lon="8.36320330132333"><ele>470.6</ele><time>2026-04-11T15:31:57.997Z</time></trkpt><trkpt lat="45.823138479026454" lon="8.363169005230805"><ele>472.40000000000003</ele><time>2026-04-11T15:31:58.997Z</time></trkpt><trkpt lat="45.82303866661611" lon="8.363155789060645"><ele>474.20000000000005</ele><time>2026-04-11T15:31:59.997Z</time></trkpt><trkpt lat="45.822951200261606" lon="8.363101820695649"><ele>476.0</ele><time>2026-04-11T15:32:00.997Z</time></trkpt><trkpt lat="45.822876142726635" lon="8.363075750435577"><ele>476.0</ele><time>2026-04-11T15:32:02.997Z</time></trkpt><trkpt lat="45.822755849627434" lon="8.362981809421308"><ele>469.0</ele><time>2026-04-11T15:32:07.997Z</time></trkpt></trkseg></trk></gpx>